﻿<?xml version="1.0" encoding="utf-8"?><gpx creator="Garmin Desktop App" version="1.1" xsi:schemaLocation="http://www.topografix.com/GPX/1/1 http://www.topografix.com/GPX/1/1/gpx.xsd http://www.garmin.com/xmlschemas/WaypointExtension/v1 http://www8.garmin.com/xmlschemas/WaypointExtensionv1.xsd http://www.garmin.com/xmlschemas/TrackPointExtension/v1 http://www.garmin.com/xmlschemas/TrackPointExtensionv1.xsd http://www.garmin.com/xmlschemas/GpxExtensions/v3 http://www8.garmin.com/xmlschemas/GpxExtensionsv3.xsd http://www.garmin.com/xmlschemas/ActivityExtension/v1 http://www8.garmin.com/xmlschemas/ActivityExtensionv1.xsd http://www.garmin.com/xmlschemas/AdventuresExtensions/v1 http://www8.garmin.com/xmlschemas/AdventuresExtensionv1.xsd http://www.garmin.com/xmlschemas/PressureExtension/v1 http://www.garmin.com/xmlschemas/PressureExtensionv1.xsd http://www.garmin.com/xmlschemas/TripExtensions/v1 http://www.garmin.com/xmlschemas/TripExtensionsv1.xsd http://www.garmin.com/xmlschemas/TripMetaDataExtensions/v1 http://www.garmin.com/xmlschemas/TripMetaDataExtensionsv1.xsd http://www.garmin.com/xmlschemas/ViaPointTransportationModeExtensions/v1 http://www.garmin.com/xmlschemas/ViaPointTransportationModeExtensionsv1.xsd http://www.garmin.com/xmlschemas/CreationTimeExtension/v1 http://www.garmin.com/xmlschemas/CreationTimeExtensionsv1.xsd http://www.garmin.com/xmlschemas/AccelerationExtension/v1 http://www.garmin.com/xmlschemas/AccelerationExtensionv1.xsd http://www.garmin.com/xmlschemas/PowerExtension/v1 http://www.garmin.com/xmlschemas/PowerExtensionv1.xsd http://www.garmin.com/xmlschemas/VideoExtension/v1 http://www.garmin.com/xmlschemas/VideoExtensionv1.xsd" xmlns="http://www.topografix.com/GPX/1/1" xmlns:xsi="http://www.w3.org/2001/XMLSchema-instance" xmlns:wptx1="http://www.garmin.com/xmlschemas/WaypointExtension/v1" xmlns:gpxtrx="http://www.garmin.com/xmlschemas/GpxExtensions/v3" xmlns:gpxtpx="http://www.garmin.com/xmlschemas/TrackPointExtension/v1" xmlns:gpxx="http://www.garmin.com/xmlschemas/GpxExtensions/v3" xmlns:trp="http://www.garmin.com/xmlschemas/TripExtensions/v1" xmlns:adv="http://www.garmin.com/xmlschemas/AdventuresExtensions/v1" xmlns:prs="http://www.garmin.com/xmlschemas/PressureExtension/v1" xmlns:tmd="http://www.garmin.com/xmlschemas/TripMetaDataExtensions/v1" xmlns:vptm="http://www.garmin.com/xmlschemas/ViaPointTransportationModeExtensions/v1" xmlns:ctx="http://www.garmin.com/xmlschemas/CreationTimeExtension/v1" xmlns:gpxacc="http://www.garmin.com/xmlschemas/AccelerationExtension/v1" xmlns:gpxpx="http://www.garmin.com/xmlschemas/PowerExtension/v1" xmlns:vidx1="http://www.garmin.com/xmlschemas/VideoExtension/v1">

  <metadata>
    <link href="http://www.garmin.com">
      <text>Garmin International</text>
    </link>
    <time>2025-04-23T18:47:36Z</time>
    <bounds maxlat="50.082568991929293" maxlon="8.646640973165631" minlat="46.338524976745248" minlon="4.772178987041116" />
  </metadata>

  <trk>
    <name>250423_G_Track</name>
    <extensions>
      <gpxx:TrackExtension>
        <gpxx:DisplayColor>DarkGray</gpxx:DisplayColor>
      </gpxx:TrackExtension>
    </extensions>
    <trkseg>
      <trkpt lat="50.068845972418785" lon="8.480042014271021">
        <ele>106.36</ele>
        <time>2025-04-23T05:00:51Z</time>
      </trkpt>
      <trkpt lat="50.069504035636783" lon="8.481355961412191">
        <ele>107.81</ele>
        <time>2025-04-23T05:01:02Z</time>
      </trkpt>
      <trkpt lat="50.070095965638757" lon="8.482508976012468">
        <ele>107.31999999999999</ele>
        <time>2025-04-23T05:01:10Z</time>
      </trkpt>
      <trkpt lat="50.070232003927231" lon="8.482766970992088">
        <ele>107.31999999999999</ele>
        <time>2025-04-23T05:01:12Z</time>
      </trkpt>
      <trkpt lat="50.070297969505191" lon="8.482896974310279">
        <ele>107.31999999999999</ele>
        <time>2025-04-23T05:01:13Z</time>
      </trkpt>
      <trkpt lat="50.070698959752917" lon="8.483630977571011">
        <ele>107.31999999999999</ele>
        <time>2025-04-23T05:01:18Z</time>
      </trkpt>
      <trkpt lat="50.070912027731538" lon="8.483944963663817">
        <ele>106.36</ele>
        <time>2025-04-23T05:01:22Z</time>
      </trkpt>
      <trkpt lat="50.070947986096144" lon="8.483999026939273">
        <ele>105.88</ele>
        <time>2025-04-23T05:01:23Z</time>
      </trkpt>
      <trkpt lat="50.070975981652737" lon="8.484040014445782">
        <ele>105.40000000000001</ele>
        <time>2025-04-23T05:01:24Z</time>
      </trkpt>
      <trkpt lat="50.071030966937542" lon="8.484050994738936">
        <ele>104.92</ele>
        <time>2025-04-23T05:01:25Z</time>
      </trkpt>
      <trkpt lat="50.071073966100812" lon="8.483989974483848">
        <ele>104.92</ele>
        <time>2025-04-23T05:01:26Z</time>
      </trkpt>
      <trkpt lat="50.071131968870759" lon="8.483909005299211">
        <ele>104.44</ele>
        <time>2025-04-23T05:01:27Z</time>
      </trkpt>
      <trkpt lat="50.071189971640706" lon="8.483828036114574">
        <ele>104.44</ele>
        <time>2025-04-23T05:01:28Z</time>
      </trkpt>
      <trkpt lat="50.071249986067414" lon="8.483743965625763">
        <ele>103.95999999999999</ele>
        <time>2025-04-23T05:01:29Z</time>
      </trkpt>
      <trkpt lat="50.071313017979264" lon="8.483656961470842">
        <ele>103.95999999999999</ele>
        <time>2025-04-23T05:01:30Z</time>
      </trkpt>
      <trkpt lat="50.071376971900463" lon="8.483567023649812">
        <ele>103.48</ele>
        <time>2025-04-23T05:01:31Z</time>
      </trkpt>
      <trkpt lat="50.071444027125835" lon="8.483474990352988">
        <ele>103.48</ele>
        <time>2025-04-23T05:01:32Z</time>
      </trkpt>
      <trkpt lat="50.071509992703795" lon="8.483382035046816">
        <ele>103.48</ele>
        <time>2025-04-23T05:01:33Z</time>
      </trkpt>
      <trkpt lat="50.071578975766897" lon="8.48328597843647">
        <ele>103.48</ele>
        <time>2025-04-23T05:01:34Z</time>
      </trkpt>
      <trkpt lat="50.071647958829999" lon="8.483188999816775">
        <ele>103.48</ele>
        <time>2025-04-23T05:01:35Z</time>
      </trkpt>
      <trkpt lat="50.071716019883752" lon="8.483094032853842">
        <ele>103.48</ele>
        <time>2025-04-23T05:01:36Z</time>
      </trkpt>
      <trkpt lat="50.071786008775234" lon="8.482995964586735">
        <ele>103.95999999999999</ele>
        <time>2025-04-23T05:01:37Z</time>
      </trkpt>
      <trkpt lat="50.071858009323478" lon="8.482895968481898">
        <ele>104.44</ele>
        <time>2025-04-23T05:01:38Z</time>
      </trkpt>
      <trkpt lat="50.07199396379292" lon="8.482706034556031">
        <ele>104.92</ele>
        <time>2025-04-23T05:01:40Z</time>
      </trkpt>
      <trkpt lat="50.072061019018292" lon="8.482615007087588">
        <ele>104.92</ele>
        <time>2025-04-23T05:01:41Z</time>
      </trkpt>
      <trkpt lat="50.072130002081394" lon="8.482525991275907">
        <ele>105.40000000000001</ele>
        <time>2025-04-23T05:01:42Z</time>
      </trkpt>
      <trkpt lat="50.072199990972877" lon="8.482434963807464">
        <ele>105.88</ele>
        <time>2025-04-23T05:01:43Z</time>
      </trkpt>
      <trkpt lat="50.07227199152112" lon="8.48233999684453">
        <ele>105.88</ele>
        <time>2025-04-23T05:01:44Z</time>
      </trkpt>
      <trkpt lat="50.072982022538781" lon="8.481417987495661">
        <ele>107.31999999999999</ele>
        <time>2025-04-23T05:01:55Z</time>
      </trkpt>
      <trkpt lat="50.073102973401546" lon="8.481259988620877">
        <ele>107.31999999999999</ele>
        <time>2025-04-23T05:01:57Z</time>
      </trkpt>
      <trkpt lat="50.073237000033259" lon="8.480852963402867">
        <ele>107.81</ele>
        <time>2025-04-23T05:02:01Z</time>
      </trkpt>
      <trkpt lat="50.073325010016561" lon="8.48057703115046">
        <ele>107.81</ele>
        <time>2025-04-23T05:02:08Z</time>
      </trkpt>
      <trkpt lat="50.073325010016561" lon="8.48057703115046">
        <ele>107.81</ele>
        <time>2025-04-23T05:02:22Z</time>
      </trkpt>
      <trkpt lat="50.073325010016561" lon="8.48057703115046">
        <ele>107.81</ele>
        <time>2025-04-23T05:03:03Z</time>
      </trkpt>
      <trkpt lat="50.073369015008211" lon="8.480671998113394">
        <ele>103.95999999999999</ele>
        <time>2025-04-23T05:08:13Z</time>
      </trkpt>
      <trkpt lat="50.073368009179831" lon="8.480648025870323">
        <ele>113.09</ele>
        <time>2025-04-23T05:08:52Z</time>
      </trkpt>
      <trkpt lat="50.073394998908043" lon="8.480611983686686">
        <ele>112.13</ele>
        <time>2025-04-23T05:09:36Z</time>
      </trkpt>
      <trkpt lat="50.073385024443269" lon="8.48062195815146">
        <ele>110.20999999999999</ele>
        <time>2025-04-23T05:10:14Z</time>
      </trkpt>
      <trkpt lat="50.073386030271649" lon="8.48061902448535">
        <ele>110.69</ele>
        <time>2025-04-23T05:10:49Z</time>
      </trkpt>
      <trkpt lat="50.073351999744773" lon="8.48049103282392">
        <ele>109.73</ele>
        <time>2025-04-23T05:10:57Z</time>
      </trkpt>
      <trkpt lat="50.073375971987844" lon="8.480417020618916">
        <ele>109.25</ele>
        <time>2025-04-23T05:10:58Z</time>
      </trkpt>
      <trkpt lat="50.073431041091681" lon="8.480244018137455">
        <ele>108.77</ele>
        <time>2025-04-23T05:11:00Z</time>
      </trkpt>
      <trkpt lat="50.073474040254951" lon="8.480159025639296">
        <ele>108.77</ele>
        <time>2025-04-23T05:11:01Z</time>
      </trkpt>
      <trkpt lat="50.073505975306034" lon="8.480093982070684">
        <ele>108.77</ele>
        <time>2025-04-23T05:11:02Z</time>
      </trkpt>
      <trkpt lat="50.073534976691008" lon="8.480036985129118">
        <ele>108.77</ele>
        <time>2025-04-23T05:11:03Z</time>
      </trkpt>
      <trkpt lat="50.073560038581491" lon="8.479986023157835">
        <ele>108.29000000000001</ele>
        <time>2025-04-23T05:11:04Z</time>
      </trkpt>
      <trkpt lat="50.073579987511039" lon="8.479946963489056">
        <ele>108.29000000000001</ele>
        <time>2025-04-23T05:11:05Z</time>
      </trkpt>
      <trkpt lat="50.073591973632574" lon="8.479887032881379">
        <ele>107.81</ele>
        <time>2025-04-23T05:11:06Z</time>
      </trkpt>
      <trkpt lat="50.073527013882995" lon="8.479810003191233">
        <ele>107.31999999999999</ele>
        <time>2025-04-23T05:11:08Z</time>
      </trkpt>
      <trkpt lat="50.0734300352633" lon="8.479693997651339">
        <ele>107.31999999999999</ele>
        <time>2025-04-23T05:11:10Z</time>
      </trkpt>
      <trkpt lat="50.073363985866308" lon="8.479615962132812">
        <ele>106.84</ele>
        <time>2025-04-23T05:11:11Z</time>
      </trkpt>
      <trkpt lat="50.073290979489684" lon="8.479529041796923">
        <ele>106.84</ele>
        <time>2025-04-23T05:11:12Z</time>
      </trkpt>
      <trkpt lat="50.073229037225246" lon="8.479454023763537">
        <ele>106.36</ele>
        <time>2025-04-23T05:11:13Z</time>
      </trkpt>
      <trkpt lat="50.073175979778171" lon="8.479391997680068">
        <ele>106.36</ele>
        <time>2025-04-23T05:11:14Z</time>
      </trkpt>
      <trkpt lat="50.073138009756804" lon="8.479345981031656">
        <ele>105.88</ele>
        <time>2025-04-23T05:11:15Z</time>
      </trkpt>
      <trkpt lat="50.073110014200211" lon="8.479313040152192">
        <ele>105.40000000000001</ele>
        <time>2025-04-23T05:11:16Z</time>
      </trkpt>
      <trkpt lat="50.073014041408896" lon="8.479295019060373">
        <ele>104.44</ele>
        <time>2025-04-23T05:11:17Z</time>
      </trkpt>
      <trkpt lat="50.072982022538781" lon="8.479355033487082">
        <ele>103.95999999999999</ele>
        <time>2025-04-23T05:11:18Z</time>
      </trkpt>
      <trkpt lat="50.072943968698382" lon="8.479427034035325">
        <ele>103.48</ele>
        <time>2025-04-23T05:11:19Z</time>
      </trkpt>
      <trkpt lat="50.072902981191874" lon="8.47950397990644">
        <ele>103</ele>
        <time>2025-04-23T05:11:20Z</time>
      </trkpt>
      <trkpt lat="50.072726039215922" lon="8.479839004576206">
        <ele>101.56</ele>
        <time>2025-04-23T05:11:24Z</time>
      </trkpt>
      <trkpt lat="50.072682034224272" lon="8.479921985417604">
        <ele>101.08</ele>
        <time>2025-04-23T05:11:25Z</time>
      </trkpt>
      <trkpt lat="50.072639035061002" lon="8.480003960430622">
        <ele>100.59999999999999</ele>
        <time>2025-04-23T05:11:26Z</time>
      </trkpt>
      <trkpt lat="50.071933027356863" lon="8.481341963633895">
        <ele>99.150000000000006</ele>
        <time>2025-04-23T05:11:40Z</time>
      </trkpt>
      <trkpt lat="50.07162700407207" lon="8.481924002990127">
        <ele>100.59999999999999</ele>
        <time>2025-04-23T05:11:46Z</time>
      </trkpt>
      <trkpt lat="50.071400022134185" lon="8.48227302543819">
        <ele>102.04000000000001</ele>
        <time>2025-04-23T05:11:50Z</time>
      </trkpt>
      <trkpt lat="50.071279993280768" lon="8.482454996556044">
        <ele>101.56</ele>
        <time>2025-04-23T05:11:52Z</time>
      </trkpt>
      <trkpt lat="50.071164993569255" lon="8.482629004865885">
        <ele>101.08</ele>
        <time>2025-04-23T05:11:54Z</time>
      </trkpt>
      <trkpt lat="50.071107996627688" lon="8.482715003192425">
        <ele>100.59999999999999</ele>
        <time>2025-04-23T05:11:55Z</time>
      </trkpt>
      <trkpt lat="50.071048988029361" lon="8.482803013175726">
        <ele>100.59999999999999</ele>
        <time>2025-04-23T05:11:56Z</time>
      </trkpt>
      <trkpt lat="50.070828963071108" lon="8.483135020360351">
        <ele>100.11</ele>
        <time>2025-04-23T05:11:59Z</time>
      </trkpt>
      <trkpt lat="50.070654032751918" lon="8.483399972319603">
        <ele>99.150000000000006</ele>
        <time>2025-04-23T05:12:02Z</time>
      </trkpt>
      <trkpt lat="50.070628970861435" lon="8.483437020331621">
        <ele>99.150000000000006</ele>
        <time>2025-04-23T05:12:03Z</time>
      </trkpt>
      <trkpt lat="50.070566022768617" lon="8.483418999239802">
        <ele>99.150000000000006</ele>
        <time>2025-04-23T05:12:04Z</time>
      </trkpt>
      <trkpt lat="50.070393020287156" lon="8.483082968741655">
        <ele>98.670000000000002</ele>
        <time>2025-04-23T05:12:09Z</time>
      </trkpt>
      <trkpt lat="50.070365024730563" lon="8.48302798345685">
        <ele>99.150000000000006</ele>
        <time>2025-04-23T05:12:10Z</time>
      </trkpt>
      <trkpt lat="50.070340968668461" lon="8.482981966808438">
        <ele>99.150000000000006</ele>
        <time>2025-04-23T05:12:11Z</time>
      </trkpt>
      <trkpt lat="50.070318002253771" lon="8.482937039807439">
        <ele>99.150000000000006</ele>
        <time>2025-04-23T05:12:12Z</time>
      </trkpt>
      <trkpt lat="50.070299981161952" lon="8.482899991795421">
        <ele>99.150000000000006</ele>
        <time>2025-04-23T05:12:21Z</time>
      </trkpt>
      <trkpt lat="50.070191016420722" lon="8.482688013464212">
        <ele>106.36</ele>
        <time>2025-04-23T05:12:56Z</time>
      </trkpt>
      <trkpt lat="50.070162015035748" lon="8.482631016522646">
        <ele>107.31999999999999</ele>
        <time>2025-04-23T05:12:57Z</time>
      </trkpt>
      <trkpt lat="50.070136031135917" lon="8.482580976560712">
        <ele>107.31999999999999</ele>
        <time>2025-04-23T05:12:58Z</time>
      </trkpt>
      <trkpt lat="50.070192022249103" lon="8.48253102041781">
        <ele>107.81</ele>
        <time>2025-04-23T05:12:59Z</time>
      </trkpt>
      <trkpt lat="50.070241978392005" lon="8.482448039576411">
        <ele>108.29000000000001</ele>
        <time>2025-04-23T05:13:00Z</time>
      </trkpt>
      <trkpt lat="50.070284977555275" lon="8.482376039028168">
        <ele>108.29000000000001</ele>
        <time>2025-04-23T05:13:01Z</time>
      </trkpt>
      <trkpt lat="50.070372987538576" lon="8.482227008789778">
        <ele>108.77</ele>
        <time>2025-04-23T05:13:03Z</time>
      </trkpt>
      <trkpt lat="50.070419004186988" lon="8.48214796744287">
        <ele>109.25</ele>
        <time>2025-04-23T05:13:04Z</time>
      </trkpt>
      <trkpt lat="50.070678004994988" lon="8.481672964990139">
        <ele>109.73</ele>
        <time>2025-04-23T05:13:10Z</time>
      </trkpt>
      <trkpt lat="50.070714969187975" lon="8.481599036604166">
        <ele>109.73</ele>
        <time>2025-04-23T05:13:11Z</time>
      </trkpt>
      <trkpt lat="50.070743970572948" lon="8.4815420396626">
        <ele>109.73</ele>
        <time>2025-04-23T05:13:12Z</time>
      </trkpt>
      <trkpt lat="50.070783030241728" lon="8.481464004144073">
        <ele>109.73</ele>
        <time>2025-04-23T05:13:14Z</time>
      </trkpt>
      <trkpt lat="50.070801973342896" lon="8.481426034122706">
        <ele>109.25</ele>
        <time>2025-04-23T05:13:15Z</time>
      </trkpt>
      <trkpt lat="50.070819994434714" lon="8.481387980282307">
        <ele>109.25</ele>
        <time>2025-04-23T05:13:16Z</time>
      </trkpt>
      <trkpt lat="50.070842960849404" lon="8.481342969462276">
        <ele>108.77</ele>
        <time>2025-04-23T05:13:17Z</time>
      </trkpt>
      <trkpt lat="50.070861987769604" lon="8.481303993612528">
        <ele>108.29000000000001</ele>
        <time>2025-04-23T05:13:18Z</time>
      </trkpt>
      <trkpt lat="50.070879003033042" lon="8.481270968914032">
        <ele>108.29000000000001</ele>
        <time>2025-04-23T05:13:19Z</time>
      </trkpt>
      <trkpt lat="50.0708950124681" lon="8.481240039691329">
        <ele>108.29000000000001</ele>
        <time>2025-04-23T05:13:20Z</time>
      </trkpt>
      <trkpt lat="50.0708950124681" lon="8.481240039691329">
        <ele>107.81</ele>
        <time>2025-04-23T05:13:34Z</time>
      </trkpt>
      <trkpt lat="50.0708950124681" lon="8.481240039691329">
        <ele>108.77</ele>
        <time>2025-04-23T05:14:24Z</time>
      </trkpt>
      <trkpt lat="50.0708950124681" lon="8.481240039691329">
        <ele>108.77</ele>
        <time>2025-04-23T05:15:14Z</time>
      </trkpt>
      <trkpt lat="50.070935999974608" lon="8.481156975030899">
        <ele>111.65000000000001</ele>
        <time>2025-04-23T05:15:47Z</time>
      </trkpt>
      <trkpt lat="50.070969024673104" lon="8.48109201528132">
        <ele>111.65000000000001</ele>
        <time>2025-04-23T05:15:48Z</time>
      </trkpt>
      <trkpt lat="50.071146972477436" lon="8.480745004490018">
        <ele>113.09</ele>
        <time>2025-04-23T05:15:52Z</time>
      </trkpt>
      <trkpt lat="50.071187037974596" lon="8.48066596314311">
        <ele>113.09</ele>
        <time>2025-04-23T05:15:53Z</time>
      </trkpt>
      <trkpt lat="50.071225007995963" lon="8.480593040585518">
        <ele>113.09</ele>
        <time>2025-04-23T05:15:54Z</time>
      </trkpt>
      <trkpt lat="50.071534970775247" lon="8.479988034814596">
        <ele>113.56999999999999</ele>
        <time>2025-04-23T05:16:01Z</time>
      </trkpt>
      <trkpt lat="50.071580987423658" lon="8.479898013174534">
        <ele>113.09</ele>
        <time>2025-04-23T05:16:02Z</time>
      </trkpt>
      <trkpt lat="50.072258999571204" lon="8.478603009134531">
        <ele>112.61</ele>
        <time>2025-04-23T05:16:16Z</time>
      </trkpt>
      <trkpt lat="50.072396965697408" lon="8.478330010548234">
        <ele>112.13</ele>
        <time>2025-04-23T05:16:19Z</time>
      </trkpt>
      <trkpt lat="50.072476007044315" lon="8.478145021945238">
        <ele>112.61</ele>
        <time>2025-04-23T05:16:21Z</time>
      </trkpt>
      <trkpt lat="50.072558987885714" lon="8.477955004200339">
        <ele>113.09</ele>
        <time>2025-04-23T05:16:23Z</time>
      </trkpt>
      <trkpt lat="50.072591006755829" lon="8.477883003652096">
        <ele>113.09</ele>
        <time>2025-04-23T05:16:24Z</time>
      </trkpt>
      <trkpt lat="50.072622019797564" lon="8.477814020588994">
        <ele>113.09</ele>
        <time>2025-04-23T05:16:25Z</time>
      </trkpt>
      <trkpt lat="50.072649009525776" lon="8.477751994505525">
        <ele>113.56999999999999</ele>
        <time>2025-04-23T05:16:26Z</time>
      </trkpt>
      <trkpt lat="50.072686979547143" lon="8.477664990350604">
        <ele>114.05</ele>
        <time>2025-04-23T05:16:33Z</time>
      </trkpt>
      <trkpt lat="50.072786975651979" lon="8.477442031726241">
        <ele>119.34</ele>
        <time>2025-04-23T05:16:55Z</time>
      </trkpt>
      <trkpt lat="50.072929970920086" lon="8.477111030369997">
        <ele>120.3</ele>
        <time>2025-04-23T05:16:59Z</time>
      </trkpt>
      <trkpt lat="50.072966013103724" lon="8.477025032043457">
        <ele>120.3</ele>
        <time>2025-04-23T05:17:00Z</time>
      </trkpt>
      <trkpt lat="50.072998031973839" lon="8.476948002353311">
        <ele>120.78</ele>
        <time>2025-04-23T05:17:01Z</time>
      </trkpt>
      <trkpt lat="50.072942962870002" lon="8.476865021511912">
        <ele>120.78</ele>
        <time>2025-04-23T05:17:02Z</time>
      </trkpt>
      <trkpt lat="50.072884960100055" lon="8.476791009306908">
        <ele>120.3</ele>
        <time>2025-04-23T05:17:03Z</time>
      </trkpt>
      <trkpt lat="50.072821006178856" lon="8.47670903429389">
        <ele>119.81999999999999</ele>
        <time>2025-04-23T05:17:04Z</time>
      </trkpt>
      <trkpt lat="50.072742970660329" lon="8.476621024310589">
        <ele>119.81999999999999</ele>
        <time>2025-04-23T05:17:05Z</time>
      </trkpt>
      <trkpt lat="50.072648003697395" lon="8.476547012105584">
        <ele>119.34</ele>
        <time>2025-04-23T05:17:06Z</time>
      </trkpt>
      <trkpt lat="50.07257298566401" lon="8.476489009335637">
        <ele>118.86</ele>
        <time>2025-04-23T05:17:07Z</time>
      </trkpt>
      <trkpt lat="50.072491010650992" lon="8.47632396966219">
        <ele>118.38</ele>
        <time>2025-04-23T05:17:08Z</time>
      </trkpt>
      <trkpt lat="50.072426972910762" lon="8.476196983829141">
        <ele>117.90000000000001</ele>
        <time>2025-04-23T05:17:09Z</time>
      </trkpt>
      <trkpt lat="50.072366036474705" lon="8.476074021309614">
        <ele>117.90000000000001</ele>
        <time>2025-04-23T05:17:10Z</time>
      </trkpt>
      <trkpt lat="50.072328988462687" lon="8.47593697719276">
        <ele>117.42</ele>
        <time>2025-04-23T05:17:11Z</time>
      </trkpt>
      <trkpt lat="50.072295041754842" lon="8.475791970267892">
        <ele>117.42</ele>
        <time>2025-04-23T05:17:12Z</time>
      </trkpt>
      <trkpt lat="50.072291018441319" lon="8.475626008585095">
        <ele>116.94</ele>
        <time>2025-04-23T05:17:13Z</time>
      </trkpt>
      <trkpt lat="50.072329994291067" lon="8.475479995831847">
        <ele>116.45999999999999</ele>
        <time>2025-04-23T05:17:14Z</time>
      </trkpt>
      <trkpt lat="50.07235798984766" lon="8.475372958928347">
        <ele>115.98</ele>
        <time>2025-04-23T05:17:15Z</time>
      </trkpt>
      <trkpt lat="50.072462009266019" lon="8.475240021944046">
        <ele>115.01000000000001</ele>
        <time>2025-04-23T05:17:16Z</time>
      </trkpt>
      <trkpt lat="50.072556976228952" lon="8.475175984203816">
        <ele>114.53</ele>
        <time>2025-04-23T05:17:17Z</time>
      </trkpt>
      <trkpt lat="50.072659989818931" lon="8.475168021395803">
        <ele>114.05</ele>
        <time>2025-04-23T05:17:18Z</time>
      </trkpt>
      <trkpt lat="50.072786975651979" lon="8.475157963111997">
        <ele>113.56999999999999</ele>
        <time>2025-04-23T05:17:19Z</time>
      </trkpt>
      <trkpt lat="50.072869034484029" lon="8.475234992802143">
        <ele>113.09</ele>
        <time>2025-04-23T05:17:20Z</time>
      </trkpt>
      <trkpt lat="50.072970958426595" lon="8.475330965593457">
        <ele>113.09</ele>
        <time>2025-04-23T05:17:21Z</time>
      </trkpt>
      <trkpt lat="50.073330961167812" lon="8.475668001919985">
        <ele>112.61</ele>
        <time>2025-04-23T05:17:24Z</time>
      </trkpt>
      <trkpt lat="50.073474040254951" lon="8.475802028551698">
        <ele>112.61</ele>
        <time>2025-04-23T05:17:25Z</time>
      </trkpt>
      <trkpt lat="50.074987979605794" lon="8.477819971740246">
        <ele>112.61</ele>
        <time>2025-04-23T05:17:35Z</time>
      </trkpt>
      <trkpt lat="50.076960995793343" lon="8.480437975376844">
        <ele>112.61</ele>
        <time>2025-04-23T05:17:47Z</time>
      </trkpt>
      <trkpt lat="50.079049011692405" lon="8.483253959566355">
        <ele>114.05</ele>
        <time>2025-04-23T05:17:59Z</time>
      </trkpt>
      <trkpt lat="50.08144598454237" lon="8.486613007262349">
        <ele>118.38</ele>
        <time>2025-04-23T05:18:13Z</time>
      </trkpt>
      <trkpt lat="50.082066999748349" lon="8.487621014937758">
        <ele>117.42</ele>
        <time>2025-04-23T05:18:17Z</time>
      </trkpt>
      <trkpt lat="50.082193985581398" lon="8.487922009080648">
        <ele>116.94</ele>
        <time>2025-04-23T05:18:18Z</time>
      </trkpt>
      <trkpt lat="50.082376040518284" lon="8.488590968772769">
        <ele>115.5</ele>
        <time>2025-04-23T05:18:20Z</time>
      </trkpt>
      <trkpt lat="50.082458015531301" lon="8.488943008705974">
        <ele>115.01000000000001</ele>
        <time>2025-04-23T05:18:21Z</time>
      </trkpt>
      <trkpt lat="50.082508977502584" lon="8.489308962598443">
        <ele>114.53</ele>
        <time>2025-04-23T05:18:22Z</time>
      </trkpt>
      <trkpt lat="50.08254200220108" lon="8.489679023623467">
        <ele>114.53</ele>
        <time>2025-04-23T05:18:23Z</time>
      </trkpt>
      <trkpt lat="50.082568991929293" lon="8.490049000829458">
        <ele>114.05</ele>
        <time>2025-04-23T05:18:24Z</time>
      </trkpt>
      <trkpt lat="50.082545019686222" lon="8.490417972207069">
        <ele>114.05</ele>
        <time>2025-04-23T05:18:25Z</time>
      </trkpt>
      <trkpt lat="50.08252096362412" lon="8.490789961069822">
        <ele>113.56999999999999</ele>
        <time>2025-04-23T05:18:26Z</time>
      </trkpt>
      <trkpt lat="50.081975972279906" lon="8.494073990732431">
        <ele>110.20999999999999</ele>
        <time>2025-04-23T05:18:35Z</time>
      </trkpt>
      <trkpt lat="50.08116896264255" lon="8.49680095911026">
        <ele>104.92</ele>
        <time>2025-04-23T05:18:43Z</time>
      </trkpt>
      <trkpt lat="50.079730041325092" lon="8.499758010730147">
        <ele>99.629999999999995</ele>
        <time>2025-04-23T05:18:53Z</time>
      </trkpt>
      <trkpt lat="50.078248037025332" lon="8.502257997170091">
        <ele>93.870000000000005</ele>
        <time>2025-04-23T05:19:03Z</time>
      </trkpt>
      <trkpt lat="50.076958984136581" lon="8.504242999479175">
        <ele>90.5</ele>
        <time>2025-04-23T05:19:10Z</time>
      </trkpt>
      <trkpt lat="50.075574964284897" lon="8.50670401006937">
        <ele>92.420000000000002</ele>
        <time>2025-04-23T05:19:19Z</time>
      </trkpt>
      <trkpt lat="50.074324971064925" lon="8.509976975619793">
        <ele>95.310000000000002</ele>
        <time>2025-04-23T05:19:28Z</time>
      </trkpt>
      <trkpt lat="50.073752989992499" lon="8.513481030240655">
        <ele>97.230000000000004</ele>
        <time>2025-04-23T05:19:36Z</time>
      </trkpt>
      <trkpt lat="50.073763970285654" lon="8.516228031367064">
        <ele>97.709999999999994</ele>
        <time>2025-04-23T05:19:43Z</time>
      </trkpt>
      <trkpt lat="50.07416102103889" lon="8.518910994753242">
        <ele>100.59999999999999</ele>
        <time>2025-04-23T05:19:50Z</time>
      </trkpt>
      <trkpt lat="50.075079007074237" lon="8.522074995562434">
        <ele>103.95999999999999</ele>
        <time>2025-04-23T05:19:59Z</time>
      </trkpt>
      <trkpt lat="50.076220035552979" lon="8.525927988812327">
        <ele>102.52</ele>
        <time>2025-04-23T05:20:10Z</time>
      </trkpt>
      <trkpt lat="50.076876003295183" lon="8.529384015128017">
        <ele>97.230000000000004</ele>
        <time>2025-04-23T05:20:19Z</time>
      </trkpt>
      <trkpt lat="50.076881032437086" lon="8.532663015648723">
        <ele>94.829999999999998</ele>
        <time>2025-04-23T05:20:28Z</time>
      </trkpt>
      <trkpt lat="50.076505020260811" lon="8.535980992019177">
        <ele>93.390000000000001</ele>
        <time>2025-04-23T05:20:37Z</time>
      </trkpt>
      <trkpt lat="50.076029011979699" lon="8.53873603977263">
        <ele>95.310000000000002</ele>
        <time>2025-04-23T05:20:45Z</time>
      </trkpt>
      <trkpt lat="50.07570999674499" lon="8.539842031896114">
        <ele>95.790000000000006</ele>
        <time>2025-04-23T05:20:50Z</time>
      </trkpt>
      <trkpt lat="50.074707018211484" lon="8.54168001562357">
        <ele>95.790000000000006</ele>
        <time>2025-04-23T05:20:58Z</time>
      </trkpt>
      <trkpt lat="50.073686018586159" lon="8.542585009709001">
        <ele>95.790000000000006</ele>
        <time>2025-04-23T05:21:04Z</time>
      </trkpt>
      <trkpt lat="50.071945013478398" lon="8.543346002697945">
        <ele>95.790000000000006</ele>
        <time>2025-04-23T05:21:13Z</time>
      </trkpt>
      <trkpt lat="50.070751011371613" lon="8.544364990666509">
        <ele>95.790000000000006</ele>
        <time>2025-04-23T05:21:20Z</time>
      </trkpt>
      <trkpt lat="50.069318041205406" lon="8.546531964093447">
        <ele>98.670000000000002</ele>
        <time>2025-04-23T05:21:30Z</time>
      </trkpt>
      <trkpt lat="50.067969979718328" lon="8.548308005556464">
        <ele>100.11</ele>
        <time>2025-04-23T05:21:39Z</time>
      </trkpt>
      <trkpt lat="50.066485963761806" lon="8.549417015165091">
        <ele>101.56</ele>
        <time>2025-04-23T05:21:47Z</time>
      </trkpt>
      <trkpt lat="50.06604197435081" lon="8.549632010981441">
        <ele>101.56</ele>
        <time>2025-04-23T05:21:49Z</time>
      </trkpt>
      <trkpt lat="50.064288983121514" lon="8.549916995689273">
        <ele>103</ele>
        <time>2025-04-23T05:21:56Z</time>
      </trkpt>
      <trkpt lat="50.062471032142639" lon="8.549606027081609">
        <ele>103.48</ele>
        <time>2025-04-23T05:22:03Z</time>
      </trkpt>
      <trkpt lat="50.061994018033147" lon="8.549465965479612">
        <ele>103.95999999999999</ele>
        <time>2025-04-23T05:22:04Z</time>
      </trkpt>
      <trkpt lat="50.061736023053527" lon="8.549379967153072">
        <ele>104.44</ele>
        <time>2025-04-23T05:22:05Z</time>
      </trkpt>
      <trkpt lat="50.059303008019924" lon="8.548993980512023">
        <ele>105.88</ele>
        <time>2025-04-23T05:22:15Z</time>
      </trkpt>
      <trkpt lat="50.056878961622715" lon="8.549103029072285">
        <ele>106.36</ele>
        <time>2025-04-23T05:22:25Z</time>
      </trkpt>
      <trkpt lat="50.05458801984787" lon="8.549699988216162">
        <ele>107.81</ele>
        <time>2025-04-23T05:22:35Z</time>
      </trkpt>
      <trkpt lat="50.052726985886693" lon="8.550623003393412">
        <ele>110.69</ele>
        <time>2025-04-23T05:22:46Z</time>
      </trkpt>
      <trkpt lat="50.051547987386584" lon="8.551364969462156">
        <ele>113.09</ele>
        <time>2025-04-23T05:22:53Z</time>
      </trkpt>
      <trkpt lat="50.051414966583252" lon="8.551471000537276">
        <ele>113.09</ele>
        <time>2025-04-23T05:22:54Z</time>
      </trkpt>
      <trkpt lat="50.05125897936523" lon="8.551419032737613">
        <ele>113.09</ele>
        <time>2025-04-23T05:22:55Z</time>
      </trkpt>
      <trkpt lat="50.051094023510814" lon="8.551462031900883">
        <ele>113.09</ele>
        <time>2025-04-23T05:22:56Z</time>
      </trkpt>
      <trkpt lat="50.050999978557229" lon="8.551409980282188">
        <ele>113.09</ele>
        <time>2025-04-23T05:22:57Z</time>
      </trkpt>
      <trkpt lat="50.050789006054401" lon="8.551173023879528">
        <ele>113.09</ele>
        <time>2025-04-23T05:22:59Z</time>
      </trkpt>
      <trkpt lat="50.050454987213016" lon="8.550356961786747">
        <ele>111.65000000000001</ele>
        <time>2025-04-23T05:23:03Z</time>
      </trkpt>
      <trkpt lat="50.050234962254763" lon="8.550002994015813">
        <ele>109.25</ele>
        <time>2025-04-23T05:23:05Z</time>
      </trkpt>
      <trkpt lat="50.050108982250094" lon="8.54995496571064">
        <ele>108.29000000000001</ele>
        <time>2025-04-23T05:23:06Z</time>
      </trkpt>
      <trkpt lat="50.049967998638749" lon="8.549934010952711">
        <ele>106.84</ele>
        <time>2025-04-23T05:23:07Z</time>
      </trkpt>
      <trkpt lat="50.049818968400359" lon="8.549926970154047">
        <ele>105.88</ele>
        <time>2025-04-23T05:23:08Z</time>
      </trkpt>
      <trkpt lat="50.04966801032424" lon="8.549919007346034">
        <ele>105.40000000000001</ele>
        <time>2025-04-23T05:23:09Z</time>
      </trkpt>
      <trkpt lat="50.049520991742611" lon="8.549844995141029">
        <ele>104.92</ele>
        <time>2025-04-23T05:23:10Z</time>
      </trkpt>
      <trkpt lat="50.049384031444788" lon="8.549712980166078">
        <ele>104.44</ele>
        <time>2025-04-23T05:23:11Z</time>
      </trkpt>
      <trkpt lat="50.049270037561655" lon="8.549541989341378">
        <ele>104.44</ele>
        <time>2025-04-23T05:23:12Z</time>
      </trkpt>
      <trkpt lat="50.048796040937304" lon="8.548355028033257">
        <ele>103.95999999999999</ele>
        <time>2025-04-23T05:23:17Z</time>
      </trkpt>
      <trkpt lat="50.048475014045835" lon="8.547239983454347">
        <ele>103.95999999999999</ele>
        <time>2025-04-23T05:23:21Z</time>
      </trkpt>
      <trkpt lat="50.048396978527308" lon="8.546962961554527">
        <ele>103.95999999999999</ele>
        <time>2025-04-23T05:23:22Z</time>
      </trkpt>
      <trkpt lat="50.047447979450226" lon="8.545151967555285">
        <ele>105.40000000000001</ele>
        <time>2025-04-23T05:23:30Z</time>
      </trkpt>
      <trkpt lat="50.046478025615215" lon="8.543214993551374">
        <ele>105.88</ele>
        <time>2025-04-23T05:23:38Z</time>
      </trkpt>
      <trkpt lat="50.045195007696748" lon="8.539966000244021">
        <ele>105.88</ele>
        <time>2025-04-23T05:23:49Z</time>
      </trkpt>
      <trkpt lat="50.044539961963892" lon="8.53835198096931">
        <ele>106.36</ele>
        <time>2025-04-23T05:23:54Z</time>
      </trkpt>
      <trkpt lat="50.042425040155649" lon="8.533079009503126">
        <ele>106.84</ele>
        <time>2025-04-23T05:24:10Z</time>
      </trkpt>
      <trkpt lat="50.040877992287278" lon="8.529199026525021">
        <ele>105.88</ele>
        <time>2025-04-23T05:24:21Z</time>
      </trkpt>
      <trkpt lat="50.038558971136808" lon="8.523401012644172">
        <ele>103</ele>
        <time>2025-04-23T05:24:36Z</time>
      </trkpt>
      <trkpt lat="50.036517977714539" lon="8.518285034224391">
        <ele>101.08</ele>
        <time>2025-04-23T05:24:49Z</time>
      </trkpt>
      <trkpt lat="50.035884976387024" lon="8.516712002456188">
        <ele>99.150000000000006</ele>
        <time>2025-04-23T05:24:53Z</time>
      </trkpt>
      <trkpt lat="50.034963972866535" lon="8.514347970485687">
        <ele>90.980000000000004</ele>
        <time>2025-04-23T05:24:59Z</time>
      </trkpt>
      <trkpt lat="50.033456990495324" lon="8.510621963068843">
        <ele>90.5</ele>
        <time>2025-04-23T05:25:08Z</time>
      </trkpt>
      <trkpt lat="50.032162992283702" lon="8.507385961711407">
        <ele>90.980000000000004</ele>
        <time>2025-04-23T05:25:19Z</time>
      </trkpt>
      <trkpt lat="50.0311079621315" lon="8.504785979166627">
        <ele>91.939999999999998</ele>
        <time>2025-04-23T05:25:27Z</time>
      </trkpt>
      <trkpt lat="50.02968798391521" lon="8.500540964305401">
        <ele>95.310000000000002</ele>
        <time>2025-04-23T05:25:38Z</time>
      </trkpt>
      <trkpt lat="50.028534969314933" lon="8.496716972440481">
        <ele>99.150000000000006</ele>
        <time>2025-04-23T05:25:49Z</time>
      </trkpt>
      <trkpt lat="50.028407983481884" lon="8.496375996619463">
        <ele>100.11</ele>
        <time>2025-04-23T05:25:50Z</time>
      </trkpt>
      <trkpt lat="50.027949996292591" lon="8.495442001149058">
        <ele>101.08</ele>
        <time>2025-04-23T05:25:52Z</time>
      </trkpt>
      <trkpt lat="50.027949996292591" lon="8.495442001149058">
        <ele>102.04000000000001</ele>
        <time>2025-04-23T05:25:53Z</time>
      </trkpt>
      <trkpt lat="50.02775302156806" lon="8.495191968977451">
        <ele>103</ele>
        <time>2025-04-23T05:25:54Z</time>
      </trkpt>
      <trkpt lat="50.027554035186768" lon="8.494939003139734">
        <ele>103.95999999999999</ele>
        <time>2025-04-23T05:25:55Z</time>
      </trkpt>
      <trkpt lat="50.027343984693289" lon="8.494691988453269">
        <ele>104.44</ele>
        <time>2025-04-23T05:25:56Z</time>
      </trkpt>
      <trkpt lat="50.027124965563416" lon="8.494486967101693">
        <ele>104.92</ele>
        <time>2025-04-23T05:25:57Z</time>
      </trkpt>
      <trkpt lat="50.026888009160757" lon="8.494312036782503">
        <ele>105.40000000000001</ele>
        <time>2025-04-23T05:25:58Z</time>
      </trkpt>
      <trkpt lat="50.026643006131053" lon="8.494185972958803">
        <ele>105.88</ele>
        <time>2025-04-23T05:25:59Z</time>
      </trkpt>
      <trkpt lat="50.026391968131065" lon="8.494080025702715">
        <ele>105.88</ele>
        <time>2025-04-23T05:26:00Z</time>
      </trkpt>
      <trkpt lat="50.026141013950109" lon="8.493993021547794">
        <ele>105.88</ele>
        <time>2025-04-23T05:26:01Z</time>
      </trkpt>
      <trkpt lat="50.025877989828587" lon="8.493953961879015">
        <ele>105.88</ele>
        <time>2025-04-23T05:26:02Z</time>
      </trkpt>
      <trkpt lat="50.025613037869334" lon="8.493947004899383">
        <ele>105.40000000000001</ele>
        <time>2025-04-23T05:26:03Z</time>
      </trkpt>
      <trkpt lat="50.025356970727444" lon="8.493992015719414">
        <ele>105.40000000000001</ele>
        <time>2025-04-23T05:26:04Z</time>
      </trkpt>
      <trkpt lat="50.025096964091063" lon="8.494037026539445">
        <ele>104.92</ele>
        <time>2025-04-23T05:26:05Z</time>
      </trkpt>
      <trkpt lat="50.024824971333146" lon="8.494086982682347">
        <ele>104.44</ele>
        <time>2025-04-23T05:26:06Z</time>
      </trkpt>
      <trkpt lat="50.024569993838668" lon="8.494226960465312">
        <ele>103.48</ele>
        <time>2025-04-23T05:26:07Z</time>
      </trkpt>
      <trkpt lat="50.024309987202287" lon="8.49437003955245">
        <ele>103</ele>
        <time>2025-04-23T05:26:08Z</time>
      </trkpt>
      <trkpt lat="50.02405802719295" lon="8.494567014276981">
        <ele>102.04000000000001</ele>
        <time>2025-04-23T05:26:09Z</time>
      </trkpt>
      <trkpt lat="50.023816963657737" lon="8.494791984558106">
        <ele>101.08</ele>
        <time>2025-04-23T05:26:10Z</time>
      </trkpt>
      <trkpt lat="50.022221971303225" lon="8.496072990819812">
        <ele>96.269999999999996</ele>
        <time>2025-04-23T05:26:17Z</time>
      </trkpt>
      <trkpt lat="50.020607030019164" lon="8.496704986318946">
        <ele>93.390000000000001</ele>
        <time>2025-04-23T05:26:24Z</time>
      </trkpt>
      <trkpt lat="50.018125986680388" lon="8.496732981875539">
        <ele>91.459999999999994</ele>
        <time>2025-04-23T05:26:32Z</time>
      </trkpt>
      <trkpt lat="50.015549976378679" lon="8.496037032455206">
        <ele>90.980000000000004</ele>
        <time>2025-04-23T05:26:42Z</time>
      </trkpt>
      <trkpt lat="50.013859011232853" lon="8.495216025039554">
        <ele>90.980000000000004</ele>
        <time>2025-04-23T05:26:48Z</time>
      </trkpt>
      <trkpt lat="50.011721039190888" lon="8.493733014911413">
        <ele>91.939999999999998</ele>
        <time>2025-04-23T05:26:57Z</time>
      </trkpt>
      <trkpt lat="50.009374022483826" lon="8.491394966840744">
        <ele>93.390000000000001</ele>
        <time>2025-04-23T05:27:07Z</time>
      </trkpt>
      <trkpt lat="50.007073022425175" lon="8.488129964098334">
        <ele>95.790000000000006</ele>
        <time>2025-04-23T05:27:18Z</time>
      </trkpt>
      <trkpt lat="50.005145017057657" lon="8.485000999644399">
        <ele>99.150000000000006</ele>
        <time>2025-04-23T05:27:28Z</time>
      </trkpt>
      <trkpt lat="50.002965973690152" lon="8.481382029131055">
        <ele>99.150000000000006</ele>
        <time>2025-04-23T05:27:40Z</time>
      </trkpt>
      <trkpt lat="50.000938978046179" lon="8.478192966431379">
        <ele>97.230000000000004</ele>
        <time>2025-04-23T05:27:52Z</time>
      </trkpt>
      <trkpt lat="49.998199017718434" lon="8.4747330006212">
        <ele>96.269999999999996</ele>
        <time>2025-04-23T05:28:04Z</time>
      </trkpt>
      <trkpt lat="49.995724009349942" lon="8.472137041389942">
        <ele>95.790000000000006</ele>
        <time>2025-04-23T05:28:14Z</time>
      </trkpt>
      <trkpt lat="49.992839964106679" lon="8.469781978055835">
        <ele>95.310000000000002</ele>
        <time>2025-04-23T05:28:25Z</time>
      </trkpt>
      <trkpt lat="49.990899972617626" lon="8.468454033136368">
        <ele>94.349999999999994</ele>
        <time>2025-04-23T05:28:34Z</time>
      </trkpt>
      <trkpt lat="49.987665982916951" lon="8.466754015535116">
        <ele>97.230000000000004</ele>
        <time>2025-04-23T05:28:46Z</time>
      </trkpt>
      <trkpt lat="49.985648039728403" lon="8.46598899923265">
        <ele>95.310000000000002</ele>
        <time>2025-04-23T05:28:56Z</time>
      </trkpt>
      <trkpt lat="49.983439994975924" lon="8.465372007340193">
        <ele>92.420000000000002</ele>
        <time>2025-04-23T05:29:06Z</time>
      </trkpt>
      <trkpt lat="49.98059400357306" lon="8.464963976293802">
        <ele>92.900000000000006</ele>
        <time>2025-04-23T05:29:19Z</time>
      </trkpt>
      <trkpt lat="49.978224020451307" lon="8.464922988787293">
        <ele>91.939999999999998</ele>
        <time>2025-04-23T05:29:31Z</time>
      </trkpt>
      <trkpt lat="49.977634018287063" lon="8.464960958808661">
        <ele>90.5</ele>
        <time>2025-04-23T05:29:34Z</time>
      </trkpt>
      <trkpt lat="49.974968992173672" lon="8.465291960164905">
        <ele>90.5</ele>
        <time>2025-04-23T05:29:48Z</time>
      </trkpt>
      <trkpt lat="49.972908971831203" lon="8.465824965387583">
        <ele>91.459999999999994</ele>
        <time>2025-04-23T05:29:58Z</time>
      </trkpt>
      <trkpt lat="49.971088003367186" lon="8.466402981430292">
        <ele>90.980000000000004</ele>
        <time>2025-04-23T05:30:05Z</time>
      </trkpt>
      <trkpt lat="49.967676987871528" lon="8.468049019575119">
        <ele>90.980000000000004</ele>
        <time>2025-04-23T05:30:17Z</time>
      </trkpt>
      <trkpt lat="49.964360017329454" lon="8.470153966918588">
        <ele>90.980000000000004</ele>
        <time>2025-04-23T05:30:29Z</time>
      </trkpt>
      <trkpt lat="49.961099959909916" lon="8.472421020269394">
        <ele>91.459999999999994</ele>
        <time>2025-04-23T05:30:41Z</time>
      </trkpt>
      <trkpt lat="49.958913959562778" lon="8.473872011527419">
        <ele>91.459999999999994</ele>
        <time>2025-04-23T05:30:49Z</time>
      </trkpt>
      <trkpt lat="49.95528400875628" lon="8.475884003564715">
        <ele>91.459999999999994</ele>
        <time>2025-04-23T05:31:02Z</time>
      </trkpt>
      <trkpt lat="49.952667010948062" lon="8.476810036227107">
        <ele>89.060000000000002</ele>
        <time>2025-04-23T05:31:10Z</time>
      </trkpt>
      <trkpt lat="49.950615037232637" lon="8.477277997881174">
        <ele>86.659999999999997</ele>
        <time>2025-04-23T05:31:18Z</time>
      </trkpt>
      <trkpt lat="49.947650022804737" lon="8.477501962333918">
        <ele>87.140000000000001</ele>
        <time>2025-04-23T05:31:28Z</time>
      </trkpt>
      <trkpt lat="49.944382002577186" lon="8.477586032822728">
        <ele>87.620000000000005</ele>
        <time>2025-04-23T05:31:39Z</time>
      </trkpt>
      <trkpt lat="49.941424028947949" lon="8.478197995573282">
        <ele>89.540000000000006</ele>
        <time>2025-04-23T05:31:49Z</time>
      </trkpt>
      <trkpt lat="49.938579965382814" lon="8.47956701181829">
        <ele>89.540000000000006</ele>
        <time>2025-04-23T05:31:59Z</time>
      </trkpt>
      <trkpt lat="49.935938995331526" lon="8.481677994132042">
        <ele>88.099999999999994</ele>
        <time>2025-04-23T05:32:08Z</time>
      </trkpt>
      <trkpt lat="49.933741008862853" lon="8.484038002789021">
        <ele>87.620000000000005</ele>
        <time>2025-04-23T05:32:18Z</time>
      </trkpt>
      <trkpt lat="49.931445959955454" lon="8.487642975524068">
        <ele>88.099999999999994</ele>
        <time>2025-04-23T05:32:28Z</time>
      </trkpt>
      <trkpt lat="49.929730016738176" lon="8.491392033174634">
        <ele>87.620000000000005</ele>
        <time>2025-04-23T05:32:38Z</time>
      </trkpt>
      <trkpt lat="49.927595984190702" lon="8.496944960206747">
        <ele>88.579999999999998</ele>
        <time>2025-04-23T05:32:52Z</time>
      </trkpt>
      <trkpt lat="49.926198972389102" lon="8.499948028475046">
        <ele>89.540000000000006</ele>
        <time>2025-04-23T05:33:00Z</time>
      </trkpt>
      <trkpt lat="49.924566010013223" lon="8.502584975212812">
        <ele>89.060000000000002</ele>
        <time>2025-04-23T05:33:08Z</time>
      </trkpt>
      <trkpt lat="49.922731965780258" lon="8.504887986928225">
        <ele>94.829999999999998</ele>
        <time>2025-04-23T05:33:17Z</time>
      </trkpt>
      <trkpt lat="49.919892009347677" lon="8.50743499584496">
        <ele>96.75</ele>
        <time>2025-04-23T05:33:27Z</time>
      </trkpt>
      <trkpt lat="49.917093040421605" lon="8.509021019563079">
        <ele>96.75</ele>
        <time>2025-04-23T05:33:37Z</time>
      </trkpt>
      <trkpt lat="49.914201032370329" lon="8.510061968117952">
        <ele>92.420000000000002</ele>
        <time>2025-04-23T05:33:47Z</time>
      </trkpt>
      <trkpt lat="49.910762021318078" lon="8.511503990739584">
        <ele>89.540000000000006</ele>
        <time>2025-04-23T05:33:59Z</time>
      </trkpt>
      <trkpt lat="49.908322971314192" lon="8.513196967542172">
        <ele>90.5</ele>
        <time>2025-04-23T05:34:09Z</time>
      </trkpt>
      <trkpt lat="49.905815022066236" lon="8.515631994232535">
        <ele>90.5</ele>
        <time>2025-04-23T05:34:18Z</time>
      </trkpt>
      <trkpt lat="49.904460003599524" lon="8.517419015988708">
        <ele>92.420000000000002</ele>
        <time>2025-04-23T05:34:25Z</time>
      </trkpt>
      <trkpt lat="49.902639035135508" lon="8.520468017086387">
        <ele>91.939999999999998</ele>
        <time>2025-04-23T05:34:34Z</time>
      </trkpt>
      <trkpt lat="49.901154013350606" lon="8.523906022310257">
        <ele>93.390000000000001</ele>
        <time>2025-04-23T05:34:43Z</time>
      </trkpt>
      <trkpt lat="49.899361040443182" lon="8.528687981888652">
        <ele>92.900000000000006</ele>
        <time>2025-04-23T05:34:55Z</time>
      </trkpt>
      <trkpt lat="49.897601008415222" lon="8.533392995595932">
        <ele>92.900000000000006</ele>
        <time>2025-04-23T05:35:07Z</time>
      </trkpt>
      <trkpt lat="49.895623968914151" lon="8.538632020354271">
        <ele>93.870000000000005</ele>
        <time>2025-04-23T05:35:22Z</time>
      </trkpt>
      <trkpt lat="49.89385899156332" lon="8.542807968333364">
        <ele>95.310000000000002</ele>
        <time>2025-04-23T05:35:34Z</time>
      </trkpt>
      <trkpt lat="49.891951018944383" lon="8.54655803181231">
        <ele>96.269999999999996</ele>
        <time>2025-04-23T05:35:45Z</time>
      </trkpt>
      <trkpt lat="49.889305019751191" lon="8.550907988101244">
        <ele>97.230000000000004</ele>
        <time>2025-04-23T05:35:57Z</time>
      </trkpt>
      <trkpt lat="49.886989016085863" lon="8.554493011906743">
        <ele>99.150000000000006</ele>
        <time>2025-04-23T05:36:09Z</time>
      </trkpt>
      <trkpt lat="49.884044034406543" lon="8.559056958183646">
        <ele>100.11</ele>
        <time>2025-04-23T05:36:23Z</time>
      </trkpt>
      <trkpt lat="49.881387976929545" lon="8.563408004119992">
        <ele>99.629999999999995</ele>
        <time>2025-04-23T05:36:36Z</time>
      </trkpt>
      <trkpt lat="49.879380008205771" lon="8.566788006573916">
        <ele>102.52</ele>
        <time>2025-04-23T05:36:45Z</time>
      </trkpt>
      <trkpt lat="49.877003990113735" lon="8.570893965661526">
        <ele>106.84</ele>
        <time>2025-04-23T05:36:58Z</time>
      </trkpt>
      <trkpt lat="49.875056035816669" lon="8.574313027784228">
        <ele>108.77</ele>
        <time>2025-04-23T05:37:07Z</time>
      </trkpt>
      <trkpt lat="49.873059969395399" lon="8.577887993305922">
        <ele>110.20999999999999</ele>
        <time>2025-04-23T05:37:19Z</time>
      </trkpt>
      <trkpt lat="49.871434969827533" lon="8.58095501549542">
        <ele>109.73</ele>
        <time>2025-04-23T05:37:30Z</time>
      </trkpt>
      <trkpt lat="49.869813993573189" lon="8.584237033501267">
        <ele>108.29000000000001</ele>
        <time>2025-04-23T05:37:42Z</time>
      </trkpt>
      <trkpt lat="49.868925008922815" lon="8.58606998808682">
        <ele>106.36</ele>
        <time>2025-04-23T05:37:49Z</time>
      </trkpt>
      <trkpt lat="49.867263967171311" lon="8.589079007506371">
        <ele>106.36</ele>
        <time>2025-04-23T05:37:58Z</time>
      </trkpt>
      <trkpt lat="49.865566967055202" lon="8.59144002199173">
        <ele>108.77</ele>
        <time>2025-04-23T05:38:07Z</time>
      </trkpt>
      <trkpt lat="49.863850018009543" lon="8.59328999184072">
        <ele>112.61</ele>
        <time>2025-04-23T05:38:15Z</time>
      </trkpt>
      <trkpt lat="49.862450994551182" lon="8.594463039189577">
        <ele>115.01000000000001</ele>
        <time>2025-04-23T05:38:22Z</time>
      </trkpt>
      <trkpt lat="49.859737018123269" lon="8.596698995679617">
        <ele>117.42</ele>
        <time>2025-04-23T05:38:37Z</time>
      </trkpt>
      <trkpt lat="49.856999991461635" lon="8.59932697378099">
        <ele>116.94</ele>
        <time>2025-04-23T05:38:52Z</time>
      </trkpt>
      <trkpt lat="49.854394979774952" lon="8.602287964895368">
        <ele>115.98</ele>
        <time>2025-04-23T05:39:06Z</time>
      </trkpt>
      <trkpt lat="49.852739972993731" lon="8.60443901270628">
        <ele>114.53</ele>
        <time>2025-04-23T05:39:14Z</time>
      </trkpt>
      <trkpt lat="49.850178966298699" lon="8.608270967379212">
        <ele>113.56999999999999</ele>
        <time>2025-04-23T05:39:26Z</time>
      </trkpt>
      <trkpt lat="49.847661964595318" lon="8.612809013575316">
        <ele>111.17</ele>
        <time>2025-04-23T05:39:39Z</time>
      </trkpt>
      <trkpt lat="49.846765017136931" lon="8.614642973989248">
        <ele>110.20999999999999</ele>
        <time>2025-04-23T05:39:45Z</time>
      </trkpt>
      <trkpt lat="49.846427980810404" lon="8.615359961986542">
        <ele>111.65000000000001</ele>
        <time>2025-04-23T05:39:46Z</time>
      </trkpt>
      <trkpt lat="49.844611035659909" lon="8.619606988504529">
        <ele>116.45999999999999</ele>
        <time>2025-04-23T05:39:57Z</time>
      </trkpt>
      <trkpt lat="49.842988969758153" lon="8.623441038653255">
        <ele>118.38</ele>
        <time>2025-04-23T05:40:07Z</time>
      </trkpt>
      <trkpt lat="49.84141300432384" lon="8.626778963953257">
        <ele>121.73999999999999</ele>
        <time>2025-04-23T05:40:17Z</time>
      </trkpt>
      <trkpt lat="49.839730001986027" lon="8.629401996731758">
        <ele>124.15000000000001</ele>
        <time>2025-04-23T05:40:25Z</time>
      </trkpt>
      <trkpt lat="49.837764026597142" lon="8.631495963782072">
        <ele>127.98999999999999</ele>
        <time>2025-04-23T05:40:33Z</time>
      </trkpt>
      <trkpt lat="49.835322964936495" lon="8.63316597416997">
        <ele>132.80000000000001</ele>
        <time>2025-04-23T05:40:42Z</time>
      </trkpt>
      <trkpt lat="49.832412013784051" lon="8.634056970477104">
        <ele>136.16</ele>
        <time>2025-04-23T05:40:51Z</time>
      </trkpt>
      <trkpt lat="49.830327015370131" lon="8.634120002388954">
        <ele>136.63999999999999</ele>
        <time>2025-04-23T05:40:59Z</time>
      </trkpt>
      <trkpt lat="49.827400976791978" lon="8.633334031328559">
        <ele>131.36000000000001</ele>
        <time>2025-04-23T05:41:08Z</time>
      </trkpt>
      <trkpt lat="49.824887998402119" lon="8.631927967071533">
        <ele>125.11</ele>
        <time>2025-04-23T05:41:17Z</time>
      </trkpt>
      <trkpt lat="49.821007009595633" lon="8.629649011418223">
        <ele>118.86</ele>
        <time>2025-04-23T05:41:31Z</time>
      </trkpt>
      <trkpt lat="49.81838003732264" lon="8.628794979304075">
        <ele>118.86</ele>
        <time>2025-04-23T05:41:41Z</time>
      </trkpt>
      <trkpt lat="49.815110005438328" lon="8.628516029566526">
        <ele>120.3</ele>
        <time>2025-04-23T05:41:51Z</time>
      </trkpt>
      <trkpt lat="49.811235973611474" lon="8.628673022612929">
        <ele>119.34</ele>
        <time>2025-04-23T05:42:04Z</time>
      </trkpt>
      <trkpt lat="49.808573964983225" lon="8.628314025700092">
        <ele>116.94</ele>
        <time>2025-04-23T05:42:14Z</time>
      </trkpt>
      <trkpt lat="49.80542303994298" lon="8.627012986689806">
        <ele>115.5</ele>
        <time>2025-04-23T05:42:24Z</time>
      </trkpt>
      <trkpt lat="49.802952976897359" lon="8.625453030690551">
        <ele>114.05</ele>
        <time>2025-04-23T05:42:33Z</time>
      </trkpt>
      <trkpt lat="49.798616012558341" lon="8.622406963258982">
        <ele>113.09</ele>
        <time>2025-04-23T05:42:49Z</time>
      </trkpt>
      <trkpt lat="49.795588972046971" lon="8.620470995083451">
        <ele>111.17</ele>
        <time>2025-04-23T05:43:00Z</time>
      </trkpt>
      <trkpt lat="49.792425977066159" lon="8.61922100186348">
        <ele>108.77</ele>
        <time>2025-04-23T05:43:11Z</time>
      </trkpt>
      <trkpt lat="49.789189975708723" lon="8.618473000824451">
        <ele>109.25</ele>
        <time>2025-04-23T05:43:22Z</time>
      </trkpt>
      <trkpt lat="49.785931007936597" lon="8.617947036400437">
        <ele>110.69</ele>
        <time>2025-04-23T05:43:33Z</time>
      </trkpt>
      <trkpt lat="49.782664999365807" lon="8.617327027022839">
        <ele>109.73</ele>
        <time>2025-04-23T05:43:45Z</time>
      </trkpt>
      <trkpt lat="49.779187012463808" lon="8.616126989945769">
        <ele>110.20999999999999</ele>
        <time>2025-04-23T05:43:56Z</time>
      </trkpt>
      <trkpt lat="49.776980979368091" lon="8.614810025319457">
        <ele>110.69</ele>
        <time>2025-04-23T05:44:04Z</time>
      </trkpt>
      <trkpt lat="49.774655001237988" lon="8.612847989425063">
        <ele>109.25</ele>
        <time>2025-04-23T05:44:14Z</time>
      </trkpt>
      <trkpt lat="49.77210396900773" lon="8.609680971130729">
        <ele>109.73</ele>
        <time>2025-04-23T05:44:24Z</time>
      </trkpt>
      <trkpt lat="49.769079023972154" lon="8.605249039828777">
        <ele>107.81</ele>
        <time>2025-04-23T05:44:38Z</time>
      </trkpt>
      <trkpt lat="49.76698899641633" lon="8.602645033970475">
        <ele>102.52</ele>
        <time>2025-04-23T05:44:47Z</time>
      </trkpt>
      <trkpt lat="49.764504013583064" lon="8.600082015618682">
        <ele>98.670000000000002</ele>
        <time>2025-04-23T05:44:57Z</time>
      </trkpt>
      <trkpt lat="49.761854996904731" lon="8.597941026091576">
        <ele>96.75</ele>
        <time>2025-04-23T05:45:07Z</time>
      </trkpt>
      <trkpt lat="49.758801972493529" lon="8.596098013222218">
        <ele>95.310000000000002</ele>
        <time>2025-04-23T05:45:18Z</time>
      </trkpt>
      <trkpt lat="49.756506001576781" lon="8.595041977241635">
        <ele>95.310000000000002</ele>
        <time>2025-04-23T05:45:26Z</time>
      </trkpt>
      <trkpt lat="49.753036983311176" lon="8.593855015933514">
        <ele>94.829999999999998</ele>
        <time>2025-04-23T05:45:38Z</time>
      </trkpt>
      <trkpt lat="49.750986015424132" lon="8.593300972133875">
        <ele>92.900000000000006</ele>
        <time>2025-04-23T05:45:45Z</time>
      </trkpt>
      <trkpt lat="49.74833901040256" lon="8.59266797080636">
        <ele>93.390000000000001</ele>
        <time>2025-04-23T05:45:54Z</time>
      </trkpt>
      <trkpt lat="49.744200026616454" lon="8.591989958658814">
        <ele>91.939999999999998</ele>
        <time>2025-04-23T05:46:08Z</time>
      </trkpt>
      <trkpt lat="49.740935023874044" lon="8.59169902279973">
        <ele>92.900000000000006</ele>
        <time>2025-04-23T05:46:19Z</time>
      </trkpt>
      <trkpt lat="49.73648096434772" lon="8.59161302447319">
        <ele>88.579999999999998</ele>
        <time>2025-04-23T05:46:34Z</time>
      </trkpt>
      <trkpt lat="49.733210010454059" lon="8.591796001419425">
        <ele>88.579999999999998</ele>
        <time>2025-04-23T05:46:45Z</time>
      </trkpt>
      <trkpt lat="49.72964895889163" lon="8.592213001102209">
        <ele>89.060000000000002</ele>
        <time>2025-04-23T05:46:57Z</time>
      </trkpt>
      <trkpt lat="49.726682016626" lon="8.592742988839746">
        <ele>90.019999999999996</ele>
        <time>2025-04-23T05:47:07Z</time>
      </trkpt>
      <trkpt lat="49.723432017490268" lon="8.593498030677438">
        <ele>91.939999999999998</ele>
        <time>2025-04-23T05:47:18Z</time>
      </trkpt>
      <trkpt lat="49.720510002225637" lon="8.594281990081072">
        <ele>93.390000000000001</ele>
        <time>2025-04-23T05:47:29Z</time>
      </trkpt>
      <trkpt lat="49.716404965147376" lon="8.595510022714734">
        <ele>93.390000000000001</ele>
        <time>2025-04-23T05:47:42Z</time>
      </trkpt>
      <trkpt lat="49.7129119746387" lon="8.596667982637882">
        <ele>94.349999999999994</ele>
        <time>2025-04-23T05:47:54Z</time>
      </trkpt>
      <trkpt lat="49.709441028535366" lon="8.597927028313279">
        <ele>94.829999999999998</ele>
        <time>2025-04-23T05:48:06Z</time>
      </trkpt>
      <trkpt lat="49.706772984936833" lon="8.598981974646449">
        <ele>94.829999999999998</ele>
        <time>2025-04-23T05:48:16Z</time>
      </trkpt>
      <trkpt lat="49.704089015722275" lon="8.600084027275443">
        <ele>90.980000000000004</ele>
        <time>2025-04-23T05:48:26Z</time>
      </trkpt>
      <trkpt lat="49.701145039871335" lon="8.601319016888738">
        <ele>90.5</ele>
        <time>2025-04-23T05:48:38Z</time>
      </trkpt>
      <trkpt lat="49.698551008477807" lon="8.602287964895368">
        <ele>93.390000000000001</ele>
        <time>2025-04-23T05:48:49Z</time>
      </trkpt>
      <trkpt lat="49.695324981585145" lon="8.602953990921378">
        <ele>94.349999999999994</ele>
        <time>2025-04-23T05:49:01Z</time>
      </trkpt>
      <trkpt lat="49.692319985479116" lon="8.602942004799843">
        <ele>94.349999999999994</ele>
        <time>2025-04-23T05:49:11Z</time>
      </trkpt>
      <trkpt lat="49.689419008791447" lon="8.602395001798868">
        <ele>93.870000000000005</ele>
        <time>2025-04-23T05:49:21Z</time>
      </trkpt>
      <trkpt lat="49.685656959190965" lon="8.601013999432325">
        <ele>94.349999999999994</ele>
        <time>2025-04-23T05:49:34Z</time>
      </trkpt>
      <trkpt lat="49.682469991967082" lon="8.5998859629035">
        <ele>92.900000000000006</ele>
        <time>2025-04-23T05:49:45Z</time>
      </trkpt>
      <trkpt lat="49.67982399277389" lon="8.599337032064796">
        <ele>93.870000000000005</ele>
        <time>2025-04-23T05:49:54Z</time>
      </trkpt>
      <trkpt lat="49.676844980567694" lon="8.599272994324565">
        <ele>95.310000000000002</ele>
        <time>2025-04-23T05:50:04Z</time>
      </trkpt>
      <trkpt lat="49.673273032531142" lon="8.59990700148046">
        <ele>98.189999999999998</ele>
        <time>2025-04-23T05:50:16Z</time>
      </trkpt>
      <trkpt lat="49.670094028115273" lon="8.601034032180905">
        <ele>100.11</ele>
        <time>2025-04-23T05:50:27Z</time>
      </trkpt>
      <trkpt lat="49.66671603731811" lon="8.602804038673639">
        <ele>100.11</ele>
        <time>2025-04-23T05:50:39Z</time>
      </trkpt>
      <trkpt lat="49.663150040432811" lon="8.605089029297233">
        <ele>97.709999999999994</ele>
        <time>2025-04-23T05:50:52Z</time>
      </trkpt>
      <trkpt lat="49.660128029063344" lon="8.60701703466475">
        <ele>97.230000000000004</ele>
        <time>2025-04-23T05:51:03Z</time>
      </trkpt>
      <trkpt lat="49.657018007710576" lon="8.608568022027612">
        <ele>98.189999999999998</ele>
        <time>2025-04-23T05:51:14Z</time>
      </trkpt>
      <trkpt lat="49.654079983010888" lon="8.60940202139318">
        <ele>99.150000000000006</ele>
        <time>2025-04-23T05:51:24Z</time>
      </trkpt>
      <trkpt lat="49.651122009381652" lon="8.609629003331065">
        <ele>98.189999999999998</ele>
        <time>2025-04-23T05:51:34Z</time>
      </trkpt>
      <trkpt lat="49.646375002339482" lon="8.609425993636251">
        <ele>97.709999999999994</ele>
        <time>2025-04-23T05:51:51Z</time>
      </trkpt>
      <trkpt lat="49.64310597628355" lon="8.609269000589848">
        <ele>97.709999999999994</ele>
        <time>2025-04-23T05:52:01Z</time>
      </trkpt>
      <trkpt lat="49.639236973598599" lon="8.60951098613441">
        <ele>98.670000000000002</ele>
        <time>2025-04-23T05:52:15Z</time>
      </trkpt>
      <trkpt lat="49.635696038603783" lon="8.610350014641881">
        <ele>97.709999999999994</ele>
        <time>2025-04-23T05:52:27Z</time>
      </trkpt>
      <trkpt lat="49.631969025358558" lon="8.61189597286284">
        <ele>98.189999999999998</ele>
        <time>2025-04-23T05:52:40Z</time>
      </trkpt>
      <trkpt lat="49.628914995118976" lon="8.61367997713387">
        <ele>99.150000000000006</ele>
        <time>2025-04-23T05:52:50Z</time>
      </trkpt>
      <trkpt lat="49.625720987096429" lon="8.616162026301026">
        <ele>98.189999999999998</ele>
        <time>2025-04-23T05:53:02Z</time>
      </trkpt>
      <trkpt lat="49.623161992058158" lon="8.618480041623116">
        <ele>99.629999999999995</ele>
        <time>2025-04-23T05:53:12Z</time>
      </trkpt>
      <trkpt lat="49.620399987325072" lon="8.621189994737506">
        <ele>102.52</ele>
        <time>2025-04-23T05:53:23Z</time>
      </trkpt>
      <trkpt lat="49.617055021226406" lon="8.624170012772083">
        <ele>103</ele>
        <time>2025-04-23T05:53:36Z</time>
      </trkpt>
      <trkpt lat="49.613558007404208" lon="8.626682991161943">
        <ele>103.48</ele>
        <time>2025-04-23T05:53:50Z</time>
      </trkpt>
      <trkpt lat="49.610170964151621" lon="8.628437994047999">
        <ele>103.95999999999999</ele>
        <time>2025-04-23T05:54:01Z</time>
      </trkpt>
      <trkpt lat="49.606983996927738" lon="8.629631996154785">
        <ele>104.92</ele>
        <time>2025-04-23T05:54:12Z</time>
      </trkpt>
      <trkpt lat="49.603158999234438" lon="8.630519974976778">
        <ele>103</ele>
        <time>2025-04-23T05:54:25Z</time>
      </trkpt>
      <trkpt lat="49.599297037348151" lon="8.630739999935031">
        <ele>99.629999999999995</ele>
        <time>2025-04-23T05:54:38Z</time>
      </trkpt>
      <trkpt lat="49.594841971993446" lon="8.631169991567731">
        <ele>96.269999999999996</ele>
        <time>2025-04-23T05:54:54Z</time>
      </trkpt>
      <trkpt lat="49.591912999749184" lon="8.631863007321954">
        <ele>94.349999999999994</ele>
        <time>2025-04-23T05:55:03Z</time>
      </trkpt>
      <trkpt lat="49.58812496624887" lon="8.633121969178319">
        <ele>94.829999999999998</ele>
        <time>2025-04-23T05:55:16Z</time>
      </trkpt>
      <trkpt lat="49.584332993254066" lon="8.634319994598627">
        <ele>97.709999999999994</ele>
        <time>2025-04-23T05:55:30Z</time>
      </trkpt>
      <trkpt lat="49.58049600943923" lon="8.635072018951178">
        <ele>98.670000000000002</ele>
        <time>2025-04-23T05:55:42Z</time>
      </trkpt>
      <trkpt lat="49.57723100669682" lon="8.635189030319452">
        <ele>99.150000000000006</ele>
        <time>2025-04-23T05:55:53Z</time>
      </trkpt>
      <trkpt lat="49.573673978447914" lon="8.634785022586584">
        <ele>102.52</ele>
        <time>2025-04-23T05:56:05Z</time>
      </trkpt>
      <trkpt lat="49.570157015696168" lon="8.633824959397316">
        <ele>103</ele>
        <time>2025-04-23T05:56:17Z</time>
      </trkpt>
      <trkpt lat="49.56833797506988" lon="8.633145019412041">
        <ele>103</ele>
        <time>2025-04-23T05:56:24Z</time>
      </trkpt>
      <trkpt lat="49.565074983984232" lon="8.631586991250515">
        <ele>102.52</ele>
        <time>2025-04-23T05:56:39Z</time>
      </trkpt>
      <trkpt lat="49.562321025878191" lon="8.630233984440565">
        <ele>100.59999999999999</ele>
        <time>2025-04-23T05:56:52Z</time>
      </trkpt>
      <trkpt lat="49.559804024174809" lon="8.629155987873673">
        <ele>100.59999999999999</ele>
        <time>2025-04-23T05:57:05Z</time>
      </trkpt>
      <trkpt lat="49.557235976681113" lon="8.628296004608274">
        <ele>101.56</ele>
        <time>2025-04-23T05:57:18Z</time>
      </trkpt>
      <trkpt lat="49.555061962455511" lon="8.627809016034007">
        <ele>101.08</ele>
        <time>2025-04-23T05:57:29Z</time>
      </trkpt>
      <trkpt lat="49.553748015314341" lon="8.627594020217657">
        <ele>100.11</ele>
        <time>2025-04-23T05:57:38Z</time>
      </trkpt>
      <trkpt lat="49.551721019670367" lon="8.627456976100802">
        <ele>101.56</ele>
        <time>2025-04-23T05:57:47Z</time>
      </trkpt>
      <trkpt lat="49.549379032105207" lon="8.627497041597962">
        <ele>104.92</ele>
        <time>2025-04-23T05:57:59Z</time>
      </trkpt>
      <trkpt lat="49.547266960144043" lon="8.627742966637015">
        <ele>106.36</ele>
        <time>2025-04-23T05:58:10Z</time>
      </trkpt>
      <trkpt lat="49.545751009136438" lon="8.627991992980242">
        <ele>106.36</ele>
        <time>2025-04-23T05:58:18Z</time>
      </trkpt>
      <trkpt lat="49.543359987437725" lon="8.628562968224287">
        <ele>105.88</ele>
        <time>2025-04-23T05:58:29Z</time>
      </trkpt>
      <trkpt lat="49.54019196331501" lon="8.629590002819896">
        <ele>104.92</ele>
        <time>2025-04-23T05:58:43Z</time>
      </trkpt>
      <trkpt lat="49.537238012999296" lon="8.630723990499973">
        <ele>103</ele>
        <time>2025-04-23T05:58:56Z</time>
      </trkpt>
      <trkpt lat="49.535187967121601" lon="8.631593026220799">
        <ele>101.56</ele>
        <time>2025-04-23T05:59:05Z</time>
      </trkpt>
      <trkpt lat="49.529722966253757" lon="8.633978012949228">
        <ele>101.08</ele>
        <time>2025-04-23T05:59:24Z</time>
      </trkpt>
      <trkpt lat="49.52570996247232" lon="8.635609969496727">
        <ele>105.88</ele>
        <time>2025-04-23T05:59:38Z</time>
      </trkpt>
      <trkpt lat="49.520765980705619" lon="8.637262964621186">
        <ele>110.20999999999999</ele>
        <time>2025-04-23T05:59:54Z</time>
      </trkpt>
      <trkpt lat="49.516070019453764" lon="8.638435006141663">
        <ele>112.13</ele>
        <time>2025-04-23T06:00:11Z</time>
      </trkpt>
      <trkpt lat="49.511032998561859" lon="8.639279985800386">
        <ele>108.77</ele>
        <time>2025-04-23T06:00:28Z</time>
      </trkpt>
      <trkpt lat="49.507176987826824" lon="8.639600006863475">
        <ele>103.95999999999999</ele>
        <time>2025-04-23T06:00:40Z</time>
      </trkpt>
      <trkpt lat="49.503604033961892" lon="8.639688016846776">
        <ele>101.56</ele>
        <time>2025-04-23T06:00:53Z</time>
      </trkpt>
      <trkpt lat="49.499430013820529" lon="8.639506967738271">
        <ele>103.48</ele>
        <time>2025-04-23T06:01:07Z</time>
      </trkpt>
      <trkpt lat="49.496243968605995" lon="8.639208991080523">
        <ele>106.36</ele>
        <time>2025-04-23T06:01:18Z</time>
      </trkpt>
      <trkpt lat="49.493782036006451" lon="8.638977985829115">
        <ele>107.31999999999999</ele>
        <time>2025-04-23T06:01:27Z</time>
      </trkpt>
      <trkpt lat="49.489655960351229" lon="8.638701969757676">
        <ele>108.77</ele>
        <time>2025-04-23T06:01:40Z</time>
      </trkpt>
      <trkpt lat="49.487328976392746" lon="8.63864497281611">
        <ele>110.20999999999999</ele>
        <time>2025-04-23T06:01:49Z</time>
      </trkpt>
      <trkpt lat="49.484368991106749" lon="8.638788973912597">
        <ele>108.29000000000001</ele>
        <time>2025-04-23T06:01:59Z</time>
      </trkpt>
      <trkpt lat="49.480816991999745" lon="8.63931099884212">
        <ele>109.73</ele>
        <time>2025-04-23T06:02:10Z</time>
      </trkpt>
      <trkpt lat="49.477901011705399" lon="8.640037039294839">
        <ele>109.25</ele>
        <time>2025-04-23T06:02:21Z</time>
      </trkpt>
      <trkpt lat="49.475893964990973" lon="8.640670040622354">
        <ele>109.73</ele>
        <time>2025-04-23T06:02:29Z</time>
      </trkpt>
      <trkpt lat="49.472957029938698" lon="8.641717024147511">
        <ele>105.88</ele>
        <time>2025-04-23T06:02:39Z</time>
      </trkpt>
      <trkpt lat="49.470533989369869" lon="8.642620006576181">
        <ele>104.44</ele>
        <time>2025-04-23T06:02:49Z</time>
      </trkpt>
      <trkpt lat="49.467652039602399" lon="8.643670007586479">
        <ele>103.95999999999999</ele>
        <time>2025-04-23T06:03:02Z</time>
      </trkpt>
      <trkpt lat="49.46576502174139" lon="8.644310971722007">
        <ele>103.48</ele>
        <time>2025-04-23T06:03:11Z</time>
      </trkpt>
      <trkpt lat="49.463673988357186" lon="8.644994013011456">
        <ele>104.92</ele>
        <time>2025-04-23T06:03:21Z</time>
      </trkpt>
      <trkpt lat="49.461629977449775" lon="8.645577980205417">
        <ele>106.36</ele>
        <time>2025-04-23T06:03:32Z</time>
      </trkpt>
      <trkpt lat="49.459919985383749" lon="8.64599296823144">
        <ele>106.36</ele>
        <time>2025-04-23T06:03:43Z</time>
      </trkpt>
      <trkpt lat="49.45663302205503" lon="8.646493032574654">
        <ele>106.36</ele>
        <time>2025-04-23T06:03:59Z</time>
      </trkpt>
      <trkpt lat="49.453659038990736" lon="8.646640973165631">
        <ele>105.40000000000001</ele>
        <time>2025-04-23T06:04:13Z</time>
      </trkpt>
      <trkpt lat="49.450986972078681" lon="8.646519016474485">
        <ele>106.36</ele>
        <time>2025-04-23T06:04:25Z</time>
      </trkpt>
      <trkpt lat="49.447908969596028" lon="8.645976958796382">
        <ele>108.29000000000001</ele>
        <time>2025-04-23T06:04:37Z</time>
      </trkpt>
      <trkpt lat="49.444484962150455" lon="8.64498202688992">
        <ele>112.61</ele>
        <time>2025-04-23T06:04:50Z</time>
      </trkpt>
      <trkpt lat="49.44170200265944" lon="8.643803028389812">
        <ele>114.53</ele>
        <time>2025-04-23T06:05:00Z</time>
      </trkpt>
      <trkpt lat="49.438763977959752" lon="8.642185991629958">
        <ele>115.98</ele>
        <time>2025-04-23T06:05:13Z</time>
      </trkpt>
      <trkpt lat="49.436605973169208" lon="8.640770958736539">
        <ele>116.45999999999999</ele>
        <time>2025-04-23T06:05:24Z</time>
      </trkpt>
      <trkpt lat="49.433647999539971" lon="8.638738011941314">
        <ele>112.13</ele>
        <time>2025-04-23T06:05:38Z</time>
      </trkpt>
      <trkpt lat="49.43149896338582" lon="8.637336976826191">
        <ele>110.69</ele>
        <time>2025-04-23T06:05:49Z</time>
      </trkpt>
      <trkpt lat="49.428957989439368" lon="8.635924961417913">
        <ele>105.40000000000001</ele>
        <time>2025-04-23T06:06:02Z</time>
      </trkpt>
      <trkpt lat="49.426049971953034" lon="8.634684020653367">
        <ele>104.44</ele>
        <time>2025-04-23T06:06:15Z</time>
      </trkpt>
      <trkpt lat="49.423586027696729" lon="8.634009025990963">
        <ele>106.36</ele>
        <time>2025-04-23T06:06:25Z</time>
      </trkpt>
      <trkpt lat="49.42066996358335" lon="8.6335529666394">
        <ele>109.73</ele>
        <time>2025-04-23T06:06:36Z</time>
      </trkpt>
      <trkpt lat="49.417372019961476" lon="8.633527988567948">
        <ele>114.05</ele>
        <time>2025-04-23T06:06:50Z</time>
      </trkpt>
      <trkpt lat="49.413994029164314" lon="8.634042972698808">
        <ele>115.5</ele>
        <time>2025-04-23T06:07:03Z</time>
      </trkpt>
      <trkpt lat="49.4104840233922" lon="8.635138990357518">
        <ele>110.69</ele>
        <time>2025-04-23T06:07:16Z</time>
      </trkpt>
      <trkpt lat="49.407168980687857" lon="8.636403987184167">
        <ele>105.40000000000001</ele>
        <time>2025-04-23T06:07:31Z</time>
      </trkpt>
      <trkpt lat="49.405726036056876" lon="8.636781005188823">
        <ele>105.88</ele>
        <time>2025-04-23T06:07:37Z</time>
      </trkpt>
      <trkpt lat="49.402303034439683" lon="8.63727000541985">
        <ele>106.36</ele>
        <time>2025-04-23T06:07:50Z</time>
      </trkpt>
      <trkpt lat="49.398664031177759" lon="8.637746013700962">
        <ele>110.20999999999999</ele>
        <time>2025-04-23T06:08:05Z</time>
      </trkpt>
      <trkpt lat="49.395031984895468" lon="8.638230990618467">
        <ele>111.17</ele>
        <time>2025-04-23T06:08:20Z</time>
      </trkpt>
      <trkpt lat="49.39301697537303" lon="8.638489991426468">
        <ele>104.44</ele>
        <time>2025-04-23T06:08:28Z</time>
      </trkpt>
      <trkpt lat="49.389931010082364" lon="8.638772964477539">
        <ele>103.95999999999999</ele>
        <time>2025-04-23T06:08:40Z</time>
      </trkpt>
      <trkpt lat="49.387253997847438" lon="8.638464007526636">
        <ele>107.31999999999999</ele>
        <time>2025-04-23T06:08:51Z</time>
      </trkpt>
      <trkpt lat="49.384497022256255" lon="8.637521965429187">
        <ele>108.29000000000001</ele>
        <time>2025-04-23T06:09:03Z</time>
      </trkpt>
      <trkpt lat="49.382191998884082" lon="8.636243976652622">
        <ele>107.81</ele>
        <time>2025-04-23T06:09:13Z</time>
      </trkpt>
      <trkpt lat="49.379664016887546" lon="8.634799020364881">
        <ele>107.81</ele>
        <time>2025-04-23T06:09:24Z</time>
      </trkpt>
      <trkpt lat="49.377063028514385" lon="8.633426986634731">
        <ele>111.65000000000001</ele>
        <time>2025-04-23T06:09:35Z</time>
      </trkpt>
      <trkpt lat="49.374283002689481" lon="8.632605979219079">
        <ele>115.98</ele>
        <time>2025-04-23T06:09:46Z</time>
      </trkpt>
      <trkpt lat="49.371238024905324" lon="8.632312025874853">
        <ele>114.05</ele>
        <time>2025-04-23T06:09:59Z</time>
      </trkpt>
      <trkpt lat="49.37073603272438" lon="8.63228403031826">
        <ele>113.09</ele>
        <time>2025-04-23T06:10:01Z</time>
      </trkpt>
      <trkpt lat="49.370498992502689" lon="8.632271038368344">
        <ele>112.61</ele>
        <time>2025-04-23T06:10:02Z</time>
      </trkpt>
      <trkpt lat="49.365952983498573" lon="8.63200600259006">
        <ele>110.69</ele>
        <time>2025-04-23T06:10:20Z</time>
      </trkpt>
      <trkpt lat="49.361865967512131" lon="8.631800981238484">
        <ele>108.77</ele>
        <time>2025-04-23T06:10:36Z</time>
      </trkpt>
      <trkpt lat="49.358024960383773" lon="8.631595959886909">
        <ele>108.77</ele>
        <time>2025-04-23T06:10:49Z</time>
      </trkpt>
      <trkpt lat="49.355047037824988" lon="8.631437039002776">
        <ele>108.77</ele>
        <time>2025-04-23T06:10:59Z</time>
      </trkpt>
      <trkpt lat="49.352163998410106" lon="8.631279962137342">
        <ele>106.36</ele>
        <time>2025-04-23T06:11:09Z</time>
      </trkpt>
      <trkpt lat="49.346817014738917" lon="8.630993971601129">
        <ele>111.65000000000001</ele>
        <time>2025-04-23T06:11:28Z</time>
      </trkpt>
      <trkpt lat="49.341741017997265" lon="8.630723990499973">
        <ele>109.25</ele>
        <time>2025-04-23T06:11:44Z</time>
      </trkpt>
      <trkpt lat="49.337876038625836" lon="8.630526009947062">
        <ele>105.40000000000001</ele>
        <time>2025-04-23T06:11:57Z</time>
      </trkpt>
      <trkpt lat="49.335189973935485" lon="8.63037496805191">
        <ele>102.52</ele>
        <time>2025-04-23T06:12:06Z</time>
      </trkpt>
      <trkpt lat="49.330740021541715" lon="8.630152009427548">
        <ele>104.92</ele>
        <time>2025-04-23T06:12:21Z</time>
      </trkpt>
      <trkpt lat="49.326577987521887" lon="8.629942964762449">
        <ele>106.84</ele>
        <time>2025-04-23T06:12:35Z</time>
      </trkpt>
      <trkpt lat="49.321824023500085" lon="8.629667032510042">
        <ele>106.84</ele>
        <time>2025-04-23T06:12:58Z</time>
      </trkpt>
      <trkpt lat="49.31438097730279" lon="8.629261013120413">
        <ele>105.88</ele>
        <time>2025-04-23T06:13:16Z</time>
      </trkpt>
      <trkpt lat="49.311126032844186" lon="8.628820963203907">
        <ele>106.36</ele>
        <time>2025-04-23T06:13:27Z</time>
      </trkpt>
      <trkpt lat="49.307982986792922" lon="8.628119984641671">
        <ele>106.36</ele>
        <time>2025-04-23T06:13:38Z</time>
      </trkpt>
      <trkpt lat="49.305159039795399" lon="8.627445995807648">
        <ele>105.40000000000001</ele>
        <time>2025-04-23T06:13:50Z</time>
      </trkpt>
      <trkpt lat="49.301706030964851" lon="8.626638986170292">
        <ele>106.84</ele>
        <time>2025-04-23T06:14:02Z</time>
      </trkpt>
      <trkpt lat="49.298812011256814" lon="8.625956028699875">
        <ele>109.25</ele>
        <time>2025-04-23T06:14:13Z</time>
      </trkpt>
      <trkpt lat="49.294446967542171" lon="8.624911978840828">
        <ele>109.73</ele>
        <time>2025-04-23T06:14:29Z</time>
      </trkpt>
      <trkpt lat="49.291502991691232" lon="8.624189961701632">
        <ele>105.88</ele>
        <time>2025-04-23T06:14:46Z</time>
      </trkpt>
      <trkpt lat="49.286228008568287" lon="8.622726984322071">
        <ele>110.20999999999999</ele>
        <time>2025-04-23T06:15:05Z</time>
      </trkpt>
      <trkpt lat="49.279389968141913" lon="8.619635989889503">
        <ele>113.56999999999999</ele>
        <time>2025-04-23T06:15:21Z</time>
      </trkpt>
      <trkpt lat="49.276082972064614" lon="8.617591978982091">
        <ele>113.09</ele>
        <time>2025-04-23T06:15:33Z</time>
      </trkpt>
      <trkpt lat="49.273144025355577" lon="8.61541997641325">
        <ele>111.65000000000001</ele>
        <time>2025-04-23T06:15:52Z</time>
      </trkpt>
      <trkpt lat="49.264751980081201" lon="8.608481017872691">
        <ele>115.98</ele>
        <time>2025-04-23T06:16:16Z</time>
      </trkpt>
      <trkpt lat="49.262401023879647" lon="8.606517976149917">
        <ele>114.05</ele>
        <time>2025-04-23T06:16:25Z</time>
      </trkpt>
      <trkpt lat="49.259511027485132" lon="8.604123014956713">
        <ele>115.01000000000001</ele>
        <time>2025-04-23T06:16:37Z</time>
      </trkpt>
      <trkpt lat="49.25899101421237" lon="8.603700986132026">
        <ele>115.01000000000001</ele>
        <time>2025-04-23T06:16:39Z</time>
      </trkpt>
      <trkpt lat="49.25544798374176" lon="8.601385988295078">
        <ele>114.53</ele>
        <time>2025-04-23T06:16:51Z</time>
      </trkpt>
      <trkpt lat="49.252838026732206" lon="8.600474959239364">
        <ele>114.05</ele>
        <time>2025-04-23T06:17:00Z</time>
      </trkpt>
      <trkpt lat="49.249858008697629" lon="8.600172037258744">
        <ele>116.45999999999999</ele>
        <time>2025-04-23T06:17:11Z</time>
      </trkpt>
      <trkpt lat="49.246585965156555" lon="8.600517958402634">
        <ele>114.05</ele>
        <time>2025-04-23T06:17:21Z</time>
      </trkpt>
      <trkpt lat="49.243324985727668" lon="8.600966976955533">
        <ele>112.61</ele>
        <time>2025-04-23T06:17:32Z</time>
      </trkpt>
      <trkpt lat="49.238575967028737" lon="8.601593021303415">
        <ele>112.61</ele>
        <time>2025-04-23T06:17:48Z</time>
      </trkpt>
      <trkpt lat="49.232948021963239" lon="8.602339010685682">
        <ele>111.17</ele>
        <time>2025-04-23T06:18:07Z</time>
      </trkpt>
      <trkpt lat="49.230058025568724" lon="8.602729020640254">
        <ele>110.20999999999999</ele>
        <time>2025-04-23T06:18:17Z</time>
      </trkpt>
      <trkpt lat="49.227127963677049" lon="8.603098997846246">
        <ele>110.69</ele>
        <time>2025-04-23T06:18:29Z</time>
      </trkpt>
      <trkpt lat="49.22569097019732" lon="8.603298990055919">
        <ele>110.20999999999999</ele>
        <time>2025-04-23T06:18:35Z</time>
      </trkpt>
      <trkpt lat="49.222922008484602" lon="8.603667039424181">
        <ele>109.73</ele>
        <time>2025-04-23T06:18:46Z</time>
      </trkpt>
      <trkpt lat="49.219755996018648" lon="8.603714983910322">
        <ele>108.77</ele>
        <time>2025-04-23T06:18:58Z</time>
      </trkpt>
      <trkpt lat="49.217220973223448" lon="8.603174015879631">
        <ele>108.29000000000001</ele>
        <time>2025-04-23T06:19:07Z</time>
      </trkpt>
      <trkpt lat="49.214654015377164" lon="8.602001974359155">
        <ele>107.81</ele>
        <time>2025-04-23T06:19:16Z</time>
      </trkpt>
      <trkpt lat="49.211910031735897" lon="8.600231967866421">
        <ele>107.81</ele>
        <time>2025-04-23T06:19:26Z</time>
      </trkpt>
      <trkpt lat="49.208633964881301" lon="8.598127020522952">
        <ele>112.13</ele>
        <time>2025-04-23T06:19:38Z</time>
      </trkpt>
      <trkpt lat="49.20424503274262" lon="8.59526501968503">
        <ele>114.05</ele>
        <time>2025-04-23T06:19:54Z</time>
      </trkpt>
      <trkpt lat="49.20068196952343" lon="8.592894030734897">
        <ele>111.65000000000001</ele>
        <time>2025-04-23T06:20:07Z</time>
      </trkpt>
      <trkpt lat="49.197701029479504" lon="8.590858988463879">
        <ele>110.20999999999999</ele>
        <time>2025-04-23T06:20:18Z</time>
      </trkpt>
      <trkpt lat="49.194439966231585" lon="8.588651027530432">
        <ele>113.09</ele>
        <time>2025-04-23T06:20:30Z</time>
      </trkpt>
      <trkpt lat="49.191191978752613" lon="8.586426973342896">
        <ele>117.42</ele>
        <time>2025-04-23T06:20:42Z</time>
      </trkpt>
      <trkpt lat="49.188201986253262" lon="8.584381034597755">
        <ele>116.45999999999999</ele>
        <time>2025-04-23T06:20:54Z</time>
      </trkpt>
      <trkpt lat="49.184656022116542" lon="8.581961011514068">
        <ele>114.05</ele>
        <time>2025-04-23T06:21:06Z</time>
      </trkpt>
      <trkpt lat="49.181651026010513" lon="8.579944996163249">
        <ele>111.65000000000001</ele>
        <time>2025-04-23T06:21:17Z</time>
      </trkpt>
      <trkpt lat="49.178897989913821" lon="8.578258976340294">
        <ele>113.56999999999999</ele>
        <time>2025-04-23T06:21:28Z</time>
      </trkpt>
      <trkpt lat="49.175829039886594" lon="8.57655200175941">
        <ele>111.65000000000001</ele>
        <time>2025-04-23T06:21:38Z</time>
      </trkpt>
      <trkpt lat="49.17274902574718" lon="8.57485399581492">
        <ele>112.13</ele>
        <time>2025-04-23T06:21:49Z</time>
      </trkpt>
      <trkpt lat="49.169382015243173" lon="8.57300796546042">
        <ele>113.56999999999999</ele>
        <time>2025-04-23T06:22:01Z</time>
      </trkpt>
      <trkpt lat="49.165736977010965" lon="8.570999996736646">
        <ele>112.13</ele>
        <time>2025-04-23T06:22:14Z</time>
      </trkpt>
      <trkpt lat="49.162956029176712" lon="8.569445991888642">
        <ele>114.05</ele>
        <time>2025-04-23T06:22:24Z</time>
      </trkpt>
      <trkpt lat="49.159925971180201" lon="8.567586969584227">
        <ele>114.05</ele>
        <time>2025-04-23T06:22:35Z</time>
      </trkpt>
      <trkpt lat="49.156634984537959" lon="8.565467018634081">
        <ele>114.53</ele>
        <time>2025-04-23T06:22:47Z</time>
      </trkpt>
      <trkpt lat="49.152238005772233" lon="8.562617003917694">
        <ele>114.53</ele>
        <time>2025-04-23T06:23:04Z</time>
      </trkpt>
      <trkpt lat="49.148415019735694" lon="8.560139983892441">
        <ele>113.56999999999999</ele>
        <time>2025-04-23T06:23:17Z</time>
      </trkpt>
      <trkpt lat="49.147367030382156" lon="8.559461971744895">
        <ele>114.05</ele>
        <time>2025-04-23T06:23:21Z</time>
      </trkpt>
      <trkpt lat="49.144305037334561" lon="8.557613007724285">
        <ele>119.34</ele>
        <time>2025-04-23T06:23:33Z</time>
      </trkpt>
      <trkpt lat="49.139582002535462" lon="8.55472200550139">
        <ele>119.81999999999999</ele>
        <time>2025-04-23T06:23:50Z</time>
      </trkpt>
      <trkpt lat="49.135701013728976" lon="8.552455035969615">
        <ele>119.81999999999999</ele>
        <time>2025-04-23T06:24:03Z</time>
      </trkpt>
      <trkpt lat="49.133099019527435" lon="8.551406962797046">
        <ele>121.26000000000001</ele>
        <time>2025-04-23T06:24:12Z</time>
      </trkpt>
      <trkpt lat="49.129855977371335" lon="8.550761975347996">
        <ele>119.81999999999999</ele>
        <time>2025-04-23T06:24:23Z</time>
      </trkpt>
      <trkpt lat="49.126870008185506" lon="8.550798017531633">
        <ele>119.34</ele>
        <time>2025-04-23T06:24:33Z</time>
      </trkpt>
      <trkpt lat="49.122415026649833" lon="8.551311995834112">
        <ele>119.34</ele>
        <time>2025-04-23T06:24:48Z</time>
      </trkpt>
      <trkpt lat="49.118851041421294" lon="8.551387013867497">
        <ele>115.98</ele>
        <time>2025-04-23T06:25:00Z</time>
      </trkpt>
      <trkpt lat="49.115939000621438" lon="8.550671031698585">
        <ele>117.42</ele>
        <time>2025-04-23T06:25:10Z</time>
      </trkpt>
      <trkpt lat="49.113897001370788" lon="8.549679033458233">
        <ele>118.38</ele>
        <time>2025-04-23T06:25:18Z</time>
      </trkpt>
      <trkpt lat="49.111729022115469" lon="8.548194011673331">
        <ele>118.86</ele>
        <time>2025-04-23T06:25:26Z</time>
      </trkpt>
      <trkpt lat="49.10777703858912" lon="8.545061023905873">
        <ele>117.42</ele>
        <time>2025-04-23T06:25:41Z</time>
      </trkpt>
      <trkpt lat="49.106719996780157" lon="8.54421797208488">
        <ele>116.94</ele>
        <time>2025-04-23T06:25:46Z</time>
      </trkpt>
      <trkpt lat="49.106206018477678" lon="8.543801978230476">
        <ele>117.42</ele>
        <time>2025-04-23T06:25:47Z</time>
      </trkpt>
      <trkpt lat="49.10251303575933" lon="8.540874011814594">
        <ele>117.90000000000001</ele>
        <time>2025-04-23T06:26:02Z</time>
      </trkpt>
      <trkpt lat="49.09907796420157" lon="8.538161963224411">
        <ele>115.98</ele>
        <time>2025-04-23T06:26:14Z</time>
      </trkpt>
      <trkpt lat="49.096162989735603" lon="8.535841014236212">
        <ele>117.42</ele>
        <time>2025-04-23T06:26:25Z</time>
      </trkpt>
      <trkpt lat="49.093269975855947" lon="8.533549988642335">
        <ele>117.42</ele>
        <time>2025-04-23T06:26:36Z</time>
      </trkpt>
      <trkpt lat="49.091173997148871" lon="8.531812001019716">
        <ele>117.42</ele>
        <time>2025-04-23T06:26:45Z</time>
      </trkpt>
      <trkpt lat="49.088379973545671" lon="8.529193997383118">
        <ele>116.94</ele>
        <time>2025-04-23T06:26:55Z</time>
      </trkpt>
      <trkpt lat="49.085503974929452" lon="8.525977022945881">
        <ele>115.98</ele>
        <time>2025-04-23T06:27:07Z</time>
      </trkpt>
      <trkpt lat="49.083430962637067" lon="8.523399000987411">
        <ele>114.53</ele>
        <time>2025-04-23T06:27:16Z</time>
      </trkpt>
      <trkpt lat="49.080918990075588" lon="8.520208010450006">
        <ele>114.05</ele>
        <time>2025-04-23T06:27:27Z</time>
      </trkpt>
      <trkpt lat="49.077729005366564" lon="8.516155024990439">
        <ele>114.05</ele>
        <time>2025-04-23T06:27:41Z</time>
      </trkpt>
      <trkpt lat="49.074967000633478" lon="8.51267502643168">
        <ele>115.98</ele>
        <time>2025-04-23T06:27:53Z</time>
      </trkpt>
      <trkpt lat="49.073420958593488" lon="8.511005016043782">
        <ele>117.90000000000001</ele>
        <time>2025-04-23T06:28:01Z</time>
      </trkpt>
      <trkpt lat="49.072024030610919" lon="8.509826017543674">
        <ele>117.90000000000001</ele>
        <time>2025-04-23T06:28:08Z</time>
      </trkpt>
      <trkpt lat="49.070837991312146" lon="8.50891700014472">
        <ele>116.94</ele>
        <time>2025-04-23T06:28:18Z</time>
      </trkpt>
      <trkpt lat="49.069972978904843" lon="8.508296990767121">
        <ele>116.45999999999999</ele>
        <time>2025-04-23T06:28:25Z</time>
      </trkpt>
      <trkpt lat="49.069596966728568" lon="8.508024998009205">
        <ele>115.98</ele>
        <time>2025-04-23T06:28:33Z</time>
      </trkpt>
      <trkpt lat="49.069060022011399" lon="8.507641023024917">
        <ele>116.94</ele>
        <time>2025-04-23T06:28:43Z</time>
      </trkpt>
      <trkpt lat="49.067915976047516" lon="8.50683300755918">
        <ele>118.86</ele>
        <time>2025-04-23T06:28:54Z</time>
      </trkpt>
      <trkpt lat="49.067121036350727" lon="8.506266977638006">
        <ele>118.86</ele>
        <time>2025-04-23T06:29:04Z</time>
      </trkpt>
      <trkpt lat="49.06596701592207" lon="8.505440019071102">
        <ele>117.90000000000001</ele>
        <time>2025-04-23T06:29:12Z</time>
      </trkpt>
      <trkpt lat="49.064311003312469" lon="8.504260014742613">
        <ele>117.90000000000001</ele>
        <time>2025-04-23T06:29:22Z</time>
      </trkpt>
      <trkpt lat="49.062086027115583" lon="8.502668961882591">
        <ele>116.45999999999999</ele>
        <time>2025-04-23T06:29:33Z</time>
      </trkpt>
      <trkpt lat="49.05941303819418" lon="8.500756965950131">
        <ele>115.5</ele>
        <time>2025-04-23T06:29:45Z</time>
      </trkpt>
      <trkpt lat="49.057312030345201" lon="8.499236991629005">
        <ele>115.01000000000001</ele>
        <time>2025-04-23T06:29:54Z</time>
      </trkpt>
      <trkpt lat="49.053498012945056" lon="8.496521003544331">
        <ele>115.5</ele>
        <time>2025-04-23T06:30:10Z</time>
      </trkpt>
      <trkpt lat="49.049599003046751" lon="8.49372697994113">
        <ele>115.98</ele>
        <time>2025-04-23T06:30:25Z</time>
      </trkpt>
      <trkpt lat="49.045783979818225" lon="8.491025995463133">
        <ele>115.98</ele>
        <time>2025-04-23T06:30:39Z</time>
      </trkpt>
      <trkpt lat="49.041697969660163" lon="8.488322999328375">
        <ele>115.5</ele>
        <time>2025-04-23T06:30:54Z</time>
      </trkpt>
      <trkpt lat="49.037053976207972" lon="8.485215995460749">
        <ele>114.05</ele>
        <time>2025-04-23T06:31:11Z</time>
      </trkpt>
      <trkpt lat="49.031604984775186" lon="8.481562994420528">
        <ele>114.05</ele>
        <time>2025-04-23T06:31:30Z</time>
      </trkpt>
      <trkpt lat="49.028685986995697" lon="8.479347992688417">
        <ele>116.94</ele>
        <time>2025-04-23T06:31:42Z</time>
      </trkpt>
      <trkpt lat="49.025130970403552" lon="8.476047031581402">
        <ele>117.42</ele>
        <time>2025-04-23T06:31:56Z</time>
      </trkpt>
      <trkpt lat="49.022178025916219" lon="8.472975986078382">
        <ele>112.61</ele>
        <time>2025-04-23T06:32:07Z</time>
      </trkpt>
      <trkpt lat="49.019073033705354" lon="8.469731016084552">
        <ele>113.56999999999999</ele>
        <time>2025-04-23T06:32:20Z</time>
      </trkpt>
      <trkpt lat="49.016645969823003" lon="8.467189958319068">
        <ele>115.01000000000001</ele>
        <time>2025-04-23T06:32:31Z</time>
      </trkpt>
      <trkpt lat="49.014184037223458" lon="8.464620988816023">
        <ele>122.22</ele>
        <time>2025-04-23T06:32:42Z</time>
      </trkpt>
      <trkpt lat="49.01027899235487" lon="8.460475970059633">
        <ele>123.19</ele>
        <time>2025-04-23T06:32:58Z</time>
      </trkpt>
      <trkpt lat="49.0072709787637" lon="8.456841995939612">
        <ele>120.78</ele>
        <time>2025-04-23T06:33:11Z</time>
      </trkpt>
      <trkpt lat="49.005023036152124" lon="8.453594008460641">
        <ele>120.78</ele>
        <time>2025-04-23T06:33:23Z</time>
      </trkpt>
      <trkpt lat="49.001573966816068" lon="8.448254987597466">
        <ele>124.63</ele>
        <time>2025-04-23T06:33:42Z</time>
      </trkpt>
      <trkpt lat="48.998725963756442" lon="8.443771004676819">
        <ele>134.72</ele>
        <time>2025-04-23T06:33:58Z</time>
      </trkpt>
      <trkpt lat="48.996480032801628" lon="8.440280025824904">
        <ele>131.84</ele>
        <time>2025-04-23T06:34:08Z</time>
      </trkpt>
      <trkpt lat="48.994671972468495" lon="8.437967039644718">
        <ele>130.40000000000001</ele>
        <time>2025-04-23T06:34:16Z</time>
      </trkpt>
      <trkpt lat="48.99304898455739" lon="8.436816036701202">
        <ele>131.84</ele>
        <time>2025-04-23T06:34:23Z</time>
      </trkpt>
      <trkpt lat="48.991022994741797" lon="8.436091002076864">
        <ele>130.88</ele>
        <time>2025-04-23T06:34:30Z</time>
      </trkpt>
      <trkpt lat="48.988646976649761" lon="8.436098964884877">
        <ele>129.91999999999999</ele>
        <time>2025-04-23T06:34:38Z</time>
      </trkpt>
      <trkpt lat="48.98419501259923" lon="8.436463996767998">
        <ele>127.03</ele>
        <time>2025-04-23T06:34:53Z</time>
      </trkpt>
      <trkpt lat="48.979438031092286" lon="8.436882002279162">
        <ele>125.59</ele>
        <time>2025-04-23T06:35:09Z</time>
      </trkpt>
      <trkpt lat="48.975857030600309" lon="8.437115019187331">
        <ele>121.73999999999999</ele>
        <time>2025-04-23T06:35:27Z</time>
      </trkpt>
      <trkpt lat="48.973257970064878" lon="8.436255035921931">
        <ele>121.73999999999999</ele>
        <time>2025-04-23T06:35:36Z</time>
      </trkpt>
      <trkpt lat="48.970862003043294" lon="8.433682965114713">
        <ele>121.73999999999999</ele>
        <time>2025-04-23T06:35:46Z</time>
      </trkpt>
      <trkpt lat="48.968140985816717" lon="8.427688982337713">
        <ele>120.3</ele>
        <time>2025-04-23T06:35:55Z</time>
      </trkpt>
      <trkpt lat="48.965646028518677" lon="8.421540018171072">
        <ele>120.3</ele>
        <time>2025-04-23T06:36:18Z</time>
      </trkpt>
      <trkpt lat="48.96238898858428" lon="8.412885032594204">
        <ele>121.26000000000001</ele>
        <time>2025-04-23T06:36:34Z</time>
      </trkpt>
      <trkpt lat="48.961296994239092" lon="8.409167993813753">
        <ele>121.26000000000001</ele>
        <time>2025-04-23T06:36:43Z</time>
      </trkpt>
      <trkpt lat="48.960749991238117" lon="8.406121004372835">
        <ele>119.34</ele>
        <time>2025-04-23T06:36:50Z</time>
      </trkpt>
      <trkpt lat="48.960658041760325" lon="8.405635021626949">
        <ele>119.34</ele>
        <time>2025-04-23T06:36:51Z</time>
      </trkpt>
      <trkpt lat="48.959837034344673" lon="8.400417035445571">
        <ele>119.34</ele>
        <time>2025-04-23T06:37:03Z</time>
      </trkpt>
      <trkpt lat="48.958818968385458" lon="8.39382098056376">
        <ele>125.59</ele>
        <time>2025-04-23T06:37:18Z</time>
      </trkpt>
      <trkpt lat="48.957686992362142" lon="8.386782025918365">
        <ele>130.40000000000001</ele>
        <time>2025-04-23T06:37:34Z</time>
      </trkpt>
      <trkpt lat="48.95652299746871" lon="8.382624015212059">
        <ele>130.88</ele>
        <time>2025-04-23T06:37:43Z</time>
      </trkpt>
      <trkpt lat="48.955181976780295" lon="8.37964097969234">
        <ele>125.59</ele>
        <time>2025-04-23T06:37:52Z</time>
      </trkpt>
      <trkpt lat="48.953263023868203" lon="8.376806974411011">
        <ele>120.78</ele>
        <time>2025-04-23T06:38:01Z</time>
      </trkpt>
      <trkpt lat="48.950387025251985" lon="8.373599974438548">
        <ele>123.19</ele>
        <time>2025-04-23T06:38:13Z</time>
      </trkpt>
      <trkpt lat="48.9477130305022" lon="8.370687011629343">
        <ele>124.63</ele>
        <time>2025-04-23T06:38:24Z</time>
      </trkpt>
      <trkpt lat="48.94504901021719" lon="8.367793997749686">
        <ele>122.70999999999999</ele>
        <time>2025-04-23T06:38:35Z</time>
      </trkpt>
      <trkpt lat="48.942336039617658" lon="8.365045990794897">
        <ele>122.70999999999999</ele>
        <time>2025-04-23T06:38:46Z</time>
      </trkpt>
      <trkpt lat="48.939950969070196" lon="8.363219993188977">
        <ele>122.70999999999999</ele>
        <time>2025-04-23T06:38:55Z</time>
      </trkpt>
      <trkpt lat="48.938363017514348" lon="8.362336037680507">
        <ele>122.22</ele>
        <time>2025-04-23T06:39:01Z</time>
      </trkpt>
      <trkpt lat="48.937194999307394" lon="8.361802026629448">
        <ele>122.22</ele>
        <time>2025-04-23T06:39:08Z</time>
      </trkpt>
      <trkpt lat="48.936118008568883" lon="8.361310008913279">
        <ele>121.73999999999999</ele>
        <time>2025-04-23T06:39:17Z</time>
      </trkpt>
      <trkpt lat="48.935219971463084" lon="8.360898960381746">
        <ele>119.34</ele>
        <time>2025-04-23T06:39:27Z</time>
      </trkpt>
      <trkpt lat="48.934258986264467" lon="8.360460000112653">
        <ele>120.3</ele>
        <time>2025-04-23T06:39:41Z</time>
      </trkpt>
      <trkpt lat="48.933863025158644" lon="8.360279034823179">
        <ele>120.3</ele>
        <time>2025-04-23T06:39:51Z</time>
      </trkpt>
      <trkpt lat="48.933693962171674" lon="8.360202005133033">
        <ele>120.78</ele>
        <time>2025-04-23T06:40:04Z</time>
      </trkpt>
      <trkpt lat="48.933521965518594" lon="8.360122963786125">
        <ele>123.67</ele>
        <time>2025-04-23T06:40:17Z</time>
      </trkpt>
      <trkpt lat="48.933200016617775" lon="8.359975023195148">
        <ele>122.22</ele>
        <time>2025-04-23T06:40:34Z</time>
      </trkpt>
      <trkpt lat="48.932934980839491" lon="8.359853988513351">
        <ele>120.78</ele>
        <time>2025-04-23T06:40:47Z</time>
      </trkpt>
      <trkpt lat="48.932431982830167" lon="8.359623989090323">
        <ele>119.34</ele>
        <time>2025-04-23T06:41:04Z</time>
      </trkpt>
      <trkpt lat="48.931811973452568" lon="8.359350990504026">
        <ele>118.86</ele>
        <time>2025-04-23T06:41:17Z</time>
      </trkpt>
      <trkpt lat="48.931000018492341" lon="8.35899299941957">
        <ele>120.78</ele>
        <time>2025-04-23T06:41:27Z</time>
      </trkpt>
      <trkpt lat="48.929821019992232" lon="8.358474997803569">
        <ele>120.78</ele>
        <time>2025-04-23T06:41:38Z</time>
      </trkpt>
      <trkpt lat="48.92917200922966" lon="8.358188001438975">
        <ele>121.26000000000001</ele>
        <time>2025-04-23T06:41:45Z</time>
      </trkpt>
      <trkpt lat="48.928713016211987" lon="8.357980968430638">
        <ele>120.78</ele>
        <time>2025-04-23T06:41:50Z</time>
      </trkpt>
      <trkpt lat="48.928650990128517" lon="8.357952972874045">
        <ele>120.3</ele>
        <time>2025-04-23T06:41:51Z</time>
      </trkpt>
      <trkpt lat="48.927781032398343" lon="8.357561035081744">
        <ele>121.26000000000001</ele>
        <time>2025-04-23T06:42:05Z</time>
      </trkpt>
      <trkpt lat="48.926597004756331" lon="8.357026018202305">
        <ele>122.22</ele>
        <time>2025-04-23T06:42:20Z</time>
      </trkpt>
      <trkpt lat="48.925612969323993" lon="8.356582028791308">
        <ele>123.67</ele>
        <time>2025-04-23T06:42:33Z</time>
      </trkpt>
      <trkpt lat="48.92500402405858" lon="8.35630701854825">
        <ele>123.67</ele>
        <time>2025-04-23T06:42:45Z</time>
      </trkpt>
      <trkpt lat="48.924842001870275" lon="8.356235018000007">
        <ele>123.19</ele>
        <time>2025-04-23T06:42:56Z</time>
      </trkpt>
      <trkpt lat="48.924800008535385" lon="8.356215991079807">
        <ele>124.15000000000001</ele>
        <time>2025-04-23T06:43:21Z</time>
      </trkpt>
      <trkpt lat="48.924522986635566" lon="8.35609101690352">
        <ele>123.67</ele>
        <time>2025-04-23T06:43:36Z</time>
      </trkpt>
      <trkpt lat="48.924393989145756" lon="8.356032008305192">
        <ele>123.19</ele>
        <time>2025-04-23T06:43:54Z</time>
      </trkpt>
      <trkpt lat="48.924235990270972" lon="8.355961013585329">
        <ele>122.70999999999999</ele>
        <time>2025-04-23T06:44:13Z</time>
      </trkpt>
      <trkpt lat="48.923944970592856" lon="8.355830004438758">
        <ele>122.70999999999999</ele>
        <time>2025-04-23T06:44:29Z</time>
      </trkpt>
      <trkpt lat="48.923429986461997" lon="8.355596987530589">
        <ele>123.19</ele>
        <time>2025-04-23T06:44:44Z</time>
      </trkpt>
      <trkpt lat="48.923133015632629" lon="8.355462960898876">
        <ele>125.11</ele>
        <time>2025-04-23T06:45:02Z</time>
      </trkpt>
      <trkpt lat="48.922877032309771" lon="8.355347961187363">
        <ele>126.06999999999999</ele>
        <time>2025-04-23T06:45:19Z</time>
      </trkpt>
      <trkpt lat="48.922590035945177" lon="8.355218041688204">
        <ele>126.06999999999999</ele>
        <time>2025-04-23T06:45:32Z</time>
      </trkpt>
      <trkpt lat="48.922005984932184" lon="8.354955017566681">
        <ele>128.47</ele>
        <time>2025-04-23T06:45:47Z</time>
      </trkpt>
      <trkpt lat="48.921091016381979" lon="8.354542041197419">
        <ele>129.43000000000001</ele>
        <time>2025-04-23T06:46:00Z</time>
      </trkpt>
      <trkpt lat="48.920055013149977" lon="8.354075001552701">
        <ele>130.88</ele>
        <time>2025-04-23T06:46:11Z</time>
      </trkpt>
      <trkpt lat="48.91879697330296" lon="8.353515006601811">
        <ele>129.91999999999999</ele>
        <time>2025-04-23T06:46:22Z</time>
      </trkpt>
      <trkpt lat="48.917374983429909" lon="8.352879993617535">
        <ele>127.51000000000001</ele>
        <time>2025-04-23T06:46:33Z</time>
      </trkpt>
      <trkpt lat="48.915297025814652" lon="8.351933006197214">
        <ele>123.67</ele>
        <time>2025-04-23T06:46:48Z</time>
      </trkpt>
      <trkpt lat="48.913436997681856" lon="8.351096995174885">
        <ele>122.22</ele>
        <time>2025-04-23T06:47:01Z</time>
      </trkpt>
      <trkpt lat="48.911470016464591" lon="8.350212033838034">
        <ele>119.81999999999999</ele>
        <time>2025-04-23T06:47:14Z</time>
      </trkpt>
      <trkpt lat="48.908423027023673" lon="8.348758025094867">
        <ele>120.3</ele>
        <time>2025-04-23T06:47:30Z</time>
      </trkpt>
      <trkpt lat="48.906971029937267" lon="8.347721016034484">
        <ele>121.26000000000001</ele>
        <time>2025-04-23T06:47:40Z</time>
      </trkpt>
      <trkpt lat="48.905380982905626" lon="8.345988979563117">
        <ele>121.73999999999999</ele>
        <time>2025-04-23T06:47:51Z</time>
      </trkpt>
      <trkpt lat="48.904058989137411" lon="8.34401898086071">
        <ele>121.73999999999999</ele>
        <time>2025-04-23T06:48:02Z</time>
      </trkpt>
      <trkpt lat="48.902776977047324" lon="8.341084979474545">
        <ele>122.22</ele>
        <time>2025-04-23T06:48:14Z</time>
      </trkpt>
      <trkpt lat="48.902342040091753" lon="8.339671958237886">
        <ele>120.3</ele>
        <time>2025-04-23T06:48:22Z</time>
      </trkpt>
      <trkpt lat="48.901882041245699" lon="8.337988033890724">
        <ele>121.26000000000001</ele>
        <time>2025-04-23T06:48:33Z</time>
      </trkpt>
      <trkpt lat="48.901595966890454" lon="8.336942978203297">
        <ele>122.22</ele>
        <time>2025-04-23T06:48:41Z</time>
      </trkpt>
      <trkpt lat="48.901569982990623" lon="8.336849017068744">
        <ele>122.70999999999999</ele>
        <time>2025-04-23T06:48:48Z</time>
      </trkpt>
      <trkpt lat="48.901468981057405" lon="8.336479039862752">
        <ele>123.19</ele>
        <time>2025-04-23T06:48:57Z</time>
      </trkpt>
      <trkpt lat="48.90130796469748" lon="8.335890965536237">
        <ele>122.70999999999999</ele>
        <time>2025-04-23T06:49:05Z</time>
      </trkpt>
      <trkpt lat="48.901282986626029" lon="8.335798010230064">
        <ele>122.70999999999999</ele>
        <time>2025-04-23T06:49:06Z</time>
      </trkpt>
      <trkpt lat="48.901282986626029" lon="8.335798010230064">
        <ele>122.70999999999999</ele>
        <time>2025-04-23T06:49:07Z</time>
      </trkpt>
      <trkpt lat="48.900966988876462" lon="8.334615994244814">
        <ele>124.63</ele>
        <time>2025-04-23T06:49:15Z</time>
      </trkpt>
      <trkpt lat="48.90033801086247" lon="8.332262020558119">
        <ele>123.67</ele>
        <time>2025-04-23T06:49:29Z</time>
      </trkpt>
      <trkpt lat="48.899720013141632" lon="8.329952973872423">
        <ele>122.22</ele>
        <time>2025-04-23T06:49:41Z</time>
      </trkpt>
      <trkpt lat="48.898895988240838" lon="8.32687103189528">
        <ele>122.22</ele>
        <time>2025-04-23T06:49:53Z</time>
      </trkpt>
      <trkpt lat="48.897897033020854" lon="8.323152987286449">
        <ele>122.70999999999999</ele>
        <time>2025-04-23T06:50:06Z</time>
      </trkpt>
      <trkpt lat="48.896770002320409" lon="8.318977039307356">
        <ele>122.70999999999999</ele>
        <time>2025-04-23T06:50:17Z</time>
      </trkpt>
      <trkpt lat="48.89563299715519" lon="8.314766976982355">
        <ele>121.73999999999999</ele>
        <time>2025-04-23T06:50:29Z</time>
      </trkpt>
      <trkpt lat="48.894355008378625" lon="8.309977976605296">
        <ele>123.19</ele>
        <time>2025-04-23T06:50:42Z</time>
      </trkpt>
      <trkpt lat="48.892801003530622" lon="8.304136041551828">
        <ele>124.15000000000001</ele>
        <time>2025-04-23T06:50:57Z</time>
      </trkpt>
      <trkpt lat="48.891426958143711" lon="8.298982009291649">
        <ele>125.59</ele>
        <time>2025-04-23T06:51:12Z</time>
      </trkpt>
      <trkpt lat="48.890552977100015" lon="8.29567601904273">
        <ele>124.63</ele>
        <time>2025-04-23T06:51:22Z</time>
      </trkpt>
      <trkpt lat="48.889571959152818" lon="8.291932996362448">
        <ele>123.19</ele>
        <time>2025-04-23T06:51:33Z</time>
      </trkpt>
      <trkpt lat="48.889357969164848" lon="8.290662970393896">
        <ele>122.70999999999999</ele>
        <time>2025-04-23T06:51:39Z</time>
      </trkpt>
      <trkpt lat="48.88929502107203" lon="8.289956040680409">
        <ele>122.22</ele>
        <time>2025-04-23T06:51:45Z</time>
      </trkpt>
      <trkpt lat="48.889194019138813" lon="8.289246009662747">
        <ele>119.81999999999999</ele>
        <time>2025-04-23T06:51:57Z</time>
      </trkpt>
      <trkpt lat="48.889127969741821" lon="8.289002012461424">
        <ele>119.34</ele>
        <time>2025-04-23T06:52:01Z</time>
      </trkpt>
      <trkpt lat="48.889110032469034" lon="8.288940992206335">
        <ele>118.86</ele>
        <time>2025-04-23T06:52:02Z</time>
      </trkpt>
      <trkpt lat="48.889001989737153" lon="8.288575960323215">
        <ele>117.42</ele>
        <time>2025-04-23T06:52:09Z</time>
      </trkpt>
      <trkpt lat="48.888945998623967" lon="8.288384014740586">
        <ele>117.42</ele>
        <time>2025-04-23T06:52:17Z</time>
      </trkpt>
      <trkpt lat="48.888866035267711" lon="8.288362976163626">
        <ele>122.70999999999999</ele>
        <time>2025-04-23T07:03:28Z</time>
      </trkpt>
      <trkpt lat="48.88890702277422" lon="8.28837001696229">
        <ele>120.3</ele>
        <time>2025-04-23T07:04:05Z</time>
      </trkpt>
      <trkpt lat="48.888976005837321" lon="8.288258034735918">
        <ele>119.34</ele>
        <time>2025-04-23T07:04:40Z</time>
      </trkpt>
      <trkpt lat="48.888927977532148" lon="8.288236996158958">
        <ele>125.59</ele>
        <time>2025-04-23T07:04:59Z</time>
      </trkpt>
      <trkpt lat="48.888902999460697" lon="8.28824101947248">
        <ele>127.51000000000001</ele>
        <time>2025-04-23T07:05:13Z</time>
      </trkpt>
      <trkpt lat="48.888877015560865" lon="8.288187040016055">
        <ele>127.51000000000001</ele>
        <time>2025-04-23T07:05:14Z</time>
      </trkpt>
      <trkpt lat="48.88884399086237" lon="8.288116967305541">
        <ele>127.03</ele>
        <time>2025-04-23T07:05:15Z</time>
      </trkpt>
      <trkpt lat="48.888795040547848" lon="8.288014959543943">
        <ele>127.03</ele>
        <time>2025-04-23T07:05:16Z</time>
      </trkpt>
      <trkpt lat="48.88873795978725" lon="8.28789702616632">
        <ele>126.55</ele>
        <time>2025-04-23T07:05:17Z</time>
      </trkpt>
      <trkpt lat="48.888452975079417" lon="8.287306018173695">
        <ele>125.59</ele>
        <time>2025-04-23T07:05:21Z</time>
      </trkpt>
      <trkpt lat="48.888172013685107" lon="8.286750968545675">
        <ele>123.19</ele>
        <time>2025-04-23T07:05:31Z</time>
      </trkpt>
      <trkpt lat="48.886485993862152" lon="8.281627027317882">
        <ele>121.73999999999999</ele>
        <time>2025-04-23T07:05:44Z</time>
      </trkpt>
      <trkpt lat="48.885487038642168" lon="8.278863010928035">
        <ele>119.81999999999999</ele>
        <time>2025-04-23T07:05:53Z</time>
      </trkpt>
      <trkpt lat="48.884411975741386" lon="8.276036968454719">
        <ele>118.38</ele>
        <time>2025-04-23T07:06:02Z</time>
      </trkpt>
      <trkpt lat="48.882716987282038" lon="8.271587016060948">
        <ele>120.3</ele>
        <time>2025-04-23T07:06:15Z</time>
      </trkpt>
      <trkpt lat="48.881055023521185" lon="8.267365973442793">
        <ele>118.38</ele>
        <time>2025-04-23T07:06:26Z</time>
      </trkpt>
      <trkpt lat="48.879297003149986" lon="8.263195976614952">
        <ele>118.86</ele>
        <time>2025-04-23T07:06:37Z</time>
      </trkpt>
      <trkpt lat="48.877209993079305" lon="8.259394029155374">
        <ele>117.42</ele>
        <time>2025-04-23T07:06:48Z</time>
      </trkpt>
      <trkpt lat="48.875181991606951" lon="8.256754986941814">
        <ele>119.81999999999999</ele>
        <time>2025-04-23T07:06:57Z</time>
      </trkpt>
      <trkpt lat="48.872406994923949" lon="8.254109993577004">
        <ele>125.11</ele>
        <time>2025-04-23T07:07:08Z</time>
      </trkpt>
      <trkpt lat="48.868234986439347" lon="8.250606022775173">
        <ele>129.91999999999999</ele>
        <time>2025-04-23T07:07:24Z</time>
      </trkpt>
      <trkpt lat="48.864839980378747" lon="8.247748967260122">
        <ele>126.55</ele>
        <time>2025-04-23T07:07:37Z</time>
      </trkpt>
      <trkpt lat="48.862258018925786" lon="8.245582999661565">
        <ele>126.06999999999999</ele>
        <time>2025-04-23T07:07:54Z</time>
      </trkpt>
      <trkpt lat="48.857832960784435" lon="8.241856992244721">
        <ele>127.51000000000001</ele>
        <time>2025-04-23T07:08:04Z</time>
      </trkpt>
      <trkpt lat="48.855733964592218" lon="8.240100983530283">
        <ele>128.47</ele>
        <time>2025-04-23T07:08:12Z</time>
      </trkpt>
      <trkpt lat="48.851823974400759" lon="8.236831035465002">
        <ele>126.06999999999999</ele>
        <time>2025-04-23T07:08:27Z</time>
      </trkpt>
      <trkpt lat="48.847404029220343" lon="8.233119025826454">
        <ele>133.28</ele>
        <time>2025-04-23T07:08:44Z</time>
      </trkpt>
      <trkpt lat="48.84295298717916" lon="8.229406010359526">
        <ele>139.53</ele>
        <time>2025-04-23T07:09:01Z</time>
      </trkpt>
      <trkpt lat="48.839036040008068" lon="8.226124998182058">
        <ele>142.41</ele>
        <time>2025-04-23T07:09:16Z</time>
      </trkpt>
      <trkpt lat="48.836962021887302" lon="8.224363960325718">
        <ele>136.63999999999999</ele>
        <time>2025-04-23T07:09:24Z</time>
      </trkpt>
      <trkpt lat="48.833922995254397" lon="8.221549987792969">
        <ele>131.84</ele>
        <time>2025-04-23T07:09:36Z</time>
      </trkpt>
      <trkpt lat="48.831305997446179" lon="8.218574998900294">
        <ele>134.24000000000001</ele>
        <time>2025-04-23T07:09:47Z</time>
      </trkpt>
      <trkpt lat="48.829300962388515" lon="8.215874014422298">
        <ele>138.09</ele>
        <time>2025-04-23T07:09:56Z</time>
      </trkpt>
      <trkpt lat="48.827024018391967" lon="8.212301982566714">
        <ele>137.61000000000001</ele>
        <time>2025-04-23T07:10:07Z</time>
      </trkpt>
      <trkpt lat="48.824908006936312" lon="8.208521995693445">
        <ele>131.84</ele>
        <time>2025-04-23T07:10:19Z</time>
      </trkpt>
      <trkpt lat="48.820476997643709" lon="8.200794970616698">
        <ele>124.15000000000001</ele>
        <time>2025-04-23T07:10:41Z</time>
      </trkpt>
      <trkpt lat="48.818355035036802" lon="8.19723199121654">
        <ele>124.63</ele>
        <time>2025-04-23T07:10:53Z</time>
      </trkpt>
      <trkpt lat="48.817043015733361" lon="8.19510399363935">
        <ele>124.15000000000001</ele>
        <time>2025-04-23T07:11:00Z</time>
      </trkpt>
      <trkpt lat="48.813984962180257" lon="8.190340977162123">
        <ele>126.06999999999999</ele>
        <time>2025-04-23T07:11:15Z</time>
      </trkpt>
      <trkpt lat="48.81188596598804" lon="8.187235984951258">
        <ele>127.98999999999999</ele>
        <time>2025-04-23T07:11:25Z</time>
      </trkpt>
      <trkpt lat="48.809510031715035" lon="8.18377903662622">
        <ele>131.36000000000001</ele>
        <time>2025-04-23T07:11:36Z</time>
      </trkpt>
      <trkpt lat="48.805763991549611" lon="8.178565995767713">
        <ele>130.88</ele>
        <time>2025-04-23T07:11:53Z</time>
      </trkpt>
      <trkpt lat="48.803114974871278" lon="8.174949958920479">
        <ele>133.28</ele>
        <time>2025-04-23T07:12:05Z</time>
      </trkpt>
      <trkpt lat="48.80066704005003" lon="8.17161999642849">
        <ele>136.63999999999999</ele>
        <time>2025-04-23T07:12:16Z</time>
      </trkpt>
      <trkpt lat="48.797997990623116" lon="8.16798803396523">
        <ele>137.13</ele>
        <time>2025-04-23T07:12:28Z</time>
      </trkpt>
      <trkpt lat="48.796237036585808" lon="8.165571028366685">
        <ele>134.24000000000001</ele>
        <time>2025-04-23T07:12:37Z</time>
      </trkpt>
      <trkpt lat="48.792905984446406" lon="8.161059971898794">
        <ele>126.55</ele>
        <time>2025-04-23T07:12:51Z</time>
      </trkpt>
      <trkpt lat="48.789796968922019" lon="8.156900033354759">
        <ele>124.63</ele>
        <time>2025-04-23T07:13:05Z</time>
      </trkpt>
      <trkpt lat="48.786801025271416" lon="8.153234962373972">
        <ele>126.55</ele>
        <time>2025-04-23T07:13:25Z</time>
      </trkpt>
      <trkpt lat="48.783033024519682" lon="8.149592019617558">
        <ele>123.19</ele>
        <time>2025-04-23T07:13:40Z</time>
      </trkpt>
      <trkpt lat="48.778201024979353" lon="8.146150996908546">
        <ele>123.19</ele>
        <time>2025-04-23T07:13:51Z</time>
      </trkpt>
      <trkpt lat="48.774334033951163" lon="8.143756035715342">
        <ele>121.26000000000001</ele>
        <time>2025-04-23T07:14:05Z</time>
      </trkpt>
      <trkpt lat="48.77026503905654" lon="8.141287984326482">
        <ele>121.73999999999999</ele>
        <time>2025-04-23T07:14:20Z</time>
      </trkpt>
      <trkpt lat="48.768041990697384" lon="8.13992902636528">
        <ele>121.73999999999999</ele>
        <time>2025-04-23T07:14:30Z</time>
      </trkpt>
      <trkpt lat="48.765646023675799" lon="8.138461019843817">
        <ele>119.81999999999999</ele>
        <time>2025-04-23T07:14:41Z</time>
      </trkpt>
      <trkpt lat="48.762624012306333" lon="8.136608032509685">
        <ele>121.73999999999999</ele>
        <time>2025-04-23T07:14:55Z</time>
      </trkpt>
      <trkpt lat="48.76062199473381" lon="8.135361978784204">
        <ele>123.19</ele>
        <time>2025-04-23T07:15:03Z</time>
      </trkpt>
      <trkpt lat="48.757356991991401" lon="8.133126022294164">
        <ele>123.19</ele>
        <time>2025-04-23T07:15:15Z</time>
      </trkpt>
      <trkpt lat="48.75445500947535" lon="8.130874978378415">
        <ele>123.19</ele>
        <time>2025-04-23T07:15:26Z</time>
      </trkpt>
      <trkpt lat="48.751130998134613" lon="8.127881968393922">
        <ele>123.19</ele>
        <time>2025-04-23T07:15:39Z</time>
      </trkpt>
      <trkpt lat="48.749154964461923" lon="8.125889003276825">
        <ele>126.55</ele>
        <time>2025-04-23T07:15:47Z</time>
      </trkpt>
      <trkpt lat="48.746427996084094" lon="8.123043011873961">
        <ele>128.47</ele>
        <time>2025-04-23T07:15:58Z</time>
      </trkpt>
      <trkpt lat="48.743980983272195" lon="8.120497008785605">
        <ele>129.91999999999999</ele>
        <time>2025-04-23T07:16:08Z</time>
      </trkpt>
      <trkpt lat="48.740435019135475" lon="8.117180038243532">
        <ele>128.47</ele>
        <time>2025-04-23T07:16:22Z</time>
      </trkpt>
      <trkpt lat="48.736570039764047" lon="8.113821996375918">
        <ele>127.03</ele>
        <time>2025-04-23T07:16:37Z</time>
      </trkpt>
      <trkpt lat="48.732811007648706" lon="8.110180981457233">
        <ele>126.55</ele>
        <time>2025-04-23T07:16:52Z</time>
      </trkpt>
      <trkpt lat="48.729457994922996" lon="8.106423960998654">
        <ele>127.98999999999999</ele>
        <time>2025-04-23T07:17:06Z</time>
      </trkpt>
      <trkpt lat="48.726264992728829" lon="8.102301992475987">
        <ele>130.88</ele>
        <time>2025-04-23T07:17:20Z</time>
      </trkpt>
      <trkpt lat="48.724307985976338" lon="8.099533030763269">
        <ele>131.36000000000001</ele>
        <time>2025-04-23T07:17:29Z</time>
      </trkpt>
      <trkpt lat="48.721493007615209" lon="8.095583980903029">
        <ele>127.51000000000001</ele>
        <time>2025-04-23T07:17:42Z</time>
      </trkpt>
      <trkpt lat="48.717677984386683" lon="8.090554000809789">
        <ele>130.40000000000001</ele>
        <time>2025-04-23T07:17:59Z</time>
      </trkpt>
      <trkpt lat="48.713919958099723" lon="8.08615199290216">
        <ele>133.28</ele>
        <time>2025-04-23T07:18:15Z</time>
      </trkpt>
      <trkpt lat="48.710263017565012" lon="8.082269998267293">
        <ele>134.72</ele>
        <time>2025-04-23T07:18:30Z</time>
      </trkpt>
      <trkpt lat="48.706223024055362" lon="8.078447012230754">
        <ele>136.16</ele>
        <time>2025-04-23T07:18:46Z</time>
      </trkpt>
      <trkpt lat="48.702860036864877" lon="8.075646031647921">
        <ele>133.75999999999999</ele>
        <time>2025-04-23T07:18:59Z</time>
      </trkpt>
      <trkpt lat="48.699594028294086" lon="8.073441004380584">
        <ele>130.88</ele>
        <time>2025-04-23T07:19:11Z</time>
      </trkpt>
      <trkpt lat="48.695998024195433" lon="8.071293979883194">
        <ele>132.31999999999999</ele>
        <time>2025-04-23T07:19:24Z</time>
      </trkpt>
      <trkpt lat="48.692387016490102" lon="8.069189032539725">
        <ele>134.24000000000001</ele>
        <time>2025-04-23T07:19:37Z</time>
      </trkpt>
      <trkpt lat="48.68935402482748" lon="8.067250968888402">
        <ele>138.09</ele>
        <time>2025-04-23T07:19:48Z</time>
      </trkpt>
      <trkpt lat="48.686127997934818" lon="8.064957009628415">
        <ele>140.97</ele>
        <time>2025-04-23T07:20:00Z</time>
      </trkpt>
      <trkpt lat="48.683748040348291" lon="8.063089018687606">
        <ele>141.93000000000001</ele>
        <time>2025-04-23T07:20:09Z</time>
      </trkpt>
      <trkpt lat="48.680387986823916" lon="8.060186030343175">
        <ele>139.53</ele>
        <time>2025-04-23T07:20:22Z</time>
      </trkpt>
      <trkpt lat="48.676624009385705" lon="8.056563036516309">
        <ele>140.97</ele>
        <time>2025-04-23T07:20:37Z</time>
      </trkpt>
      <trkpt lat="48.673687996342778" lon="8.053424013778567">
        <ele>140.97</ele>
        <time>2025-04-23T07:20:49Z</time>
      </trkpt>
      <trkpt lat="48.670123005285859" lon="8.049331968650222">
        <ele>141.44999999999999</ele>
        <time>2025-04-23T07:21:04Z</time>
      </trkpt>
      <trkpt lat="48.666631020605564" lon="8.045125007629395">
        <ele>144.34</ele>
        <time>2025-04-23T07:21:19Z</time>
      </trkpt>
      <trkpt lat="48.663540026172996" lon="8.04159396328032">
        <ele>144.34</ele>
        <time>2025-04-23T07:21:32Z</time>
      </trkpt>
      <trkpt lat="48.660291032865644" lon="8.038467010483146">
        <ele>142.88999999999999</ele>
        <time>2025-04-23T07:21:45Z</time>
      </trkpt>
      <trkpt lat="48.657408999279141" lon="8.036187971010804">
        <ele>140.97</ele>
        <time>2025-04-23T07:21:56Z</time>
      </trkpt>
      <trkpt lat="48.653325000777841" lon="8.033540965989232">
        <ele>138.56999999999999</ele>
        <time>2025-04-23T07:22:11Z</time>
      </trkpt>
      <trkpt lat="48.649943992495537" lon="8.031811024993658">
        <ele>138.09</ele>
        <time>2025-04-23T07:22:23Z</time>
      </trkpt>
      <trkpt lat="48.646271964535117" lon="8.030056022107601">
        <ele>140.97</ele>
        <time>2025-04-23T07:22:36Z</time>
      </trkpt>
      <trkpt lat="48.641991997137666" lon="8.028031038120389">
        <ele>144.34</ele>
        <time>2025-04-23T07:22:51Z</time>
      </trkpt>
      <trkpt lat="48.637470966205001" lon="8.025739006698132">
        <ele>143.37</ele>
        <time>2025-04-23T07:23:07Z</time>
      </trkpt>
      <trkpt lat="48.634126000106335" lon="8.023797003552318">
        <ele>141.93000000000001</ele>
        <time>2025-04-23T07:23:19Z</time>
      </trkpt>
      <trkpt lat="48.63007502630353" lon="8.020983031019568">
        <ele>143.37</ele>
        <time>2025-04-23T07:23:34Z</time>
      </trkpt>
      <trkpt lat="48.625868987292051" lon="8.017605040222406">
        <ele>143.37</ele>
        <time>2025-04-23T07:23:50Z</time>
      </trkpt>
      <trkpt lat="48.623933019116521" lon="8.015824975445867">
        <ele>143.84999999999999</ele>
        <time>2025-04-23T07:23:58Z</time>
      </trkpt>
      <trkpt lat="48.622134011238813" lon="8.014094028621912">
        <ele>143.37</ele>
        <time>2025-04-23T07:24:05Z</time>
      </trkpt>
      <trkpt lat="48.618717966601253" lon="8.01046097651124">
        <ele>143.84999999999999</ele>
        <time>2025-04-23T07:24:19Z</time>
      </trkpt>
      <trkpt lat="48.616150002926588" lon="8.007403006777167">
        <ele>143.84999999999999</ele>
        <time>2025-04-23T07:24:30Z</time>
      </trkpt>
      <trkpt lat="48.612547963857651" lon="8.00272598862648">
        <ele>143.84999999999999</ele>
        <time>2025-04-23T07:24:46Z</time>
      </trkpt>
      <trkpt lat="48.608261039480567" lon="7.997140036895871">
        <ele>145.30000000000001</ele>
        <time>2025-04-23T07:25:05Z</time>
      </trkpt>
      <trkpt lat="48.605457963421941" lon="7.993778977543116">
        <ele>145.30000000000001</ele>
        <time>2025-04-23T07:25:17Z</time>
      </trkpt>
      <trkpt lat="48.602118026465178" lon="7.990002008154988">
        <ele>146.74000000000001</ele>
        <time>2025-04-23T07:25:31Z</time>
      </trkpt>
      <trkpt lat="48.598017012700438" lon="7.985532023012638">
        <ele>146.25999999999999</ele>
        <time>2025-04-23T07:25:48Z</time>
      </trkpt>
      <trkpt lat="48.595346035435796" lon="7.982753003016114">
        <ele>146.74000000000001</ele>
        <time>2025-04-23T07:25:59Z</time>
      </trkpt>
      <trkpt lat="48.59108199365437" lon="7.978589963167906">
        <ele>149.62</ele>
        <time>2025-04-23T07:26:16Z</time>
      </trkpt>
      <trkpt lat="48.586499020457268" lon="7.974378978833556">
        <ele>145.30000000000001</ele>
        <time>2025-04-23T07:26:34Z</time>
      </trkpt>
      <trkpt lat="48.583145001903176" lon="7.971484959125519">
        <ele>142.88999999999999</ele>
        <time>2025-04-23T07:26:47Z</time>
      </trkpt>
      <trkpt lat="48.579490995034575" lon="7.968461019918323">
        <ele>142.88999999999999</ele>
        <time>2025-04-23T07:27:01Z</time>
      </trkpt>
      <trkpt lat="48.576060030609369" lon="7.965773027390242">
        <ele>146.25999999999999</ele>
        <time>2025-04-23T07:27:14Z</time>
      </trkpt>
      <trkpt lat="48.572585983201861" lon="7.963225012645125">
        <ele>146.25999999999999</ele>
        <time>2025-04-23T07:27:27Z</time>
      </trkpt>
      <trkpt lat="48.568798033520579" lon="7.96057197265327">
        <ele>144.34</ele>
        <time>2025-04-23T07:27:41Z</time>
      </trkpt>
      <trkpt lat="48.564982004463673" lon="7.958124037832022">
        <ele>143.37</ele>
        <time>2025-04-23T07:27:55Z</time>
      </trkpt>
      <trkpt lat="48.561657993122935" lon="7.956162001937628">
        <ele>143.37</ele>
        <time>2025-04-23T07:28:07Z</time>
      </trkpt>
      <trkpt lat="48.558865981176496" lon="7.95459802262485">
        <ele>141.44999999999999</ele>
        <time>2025-04-23T07:28:17Z</time>
      </trkpt>
      <trkpt lat="48.555495031177998" lon="7.95288098976016">
        <ele>142.88999999999999</ele>
        <time>2025-04-23T07:28:29Z</time>
      </trkpt>
      <trkpt lat="48.550981963053346" lon="7.9505580291152">
        <ele>147.69999999999999</ele>
        <time>2025-04-23T07:28:45Z</time>
      </trkpt>
      <trkpt lat="48.548245020210743" lon="7.948811994865537">
        <ele>149.62</ele>
        <time>2025-04-23T07:28:55Z</time>
      </trkpt>
      <trkpt lat="48.545629028230906" lon="7.946659019216895">
        <ele>149.13999999999999</ele>
        <time>2025-04-23T07:29:05Z</time>
      </trkpt>
      <trkpt lat="48.542654039338231" lon="7.943663997575641">
        <ele>147.22</ele>
        <time>2025-04-23T07:29:17Z</time>
      </trkpt>
      <trkpt lat="48.539807964116335" lon="7.940390026196837">
        <ele>145.30000000000001</ele>
        <time>2025-04-23T07:29:29Z</time>
      </trkpt>
      <trkpt lat="48.536762986332178" lon="7.936854036524892">
        <ele>143.37</ele>
        <time>2025-04-23T07:29:42Z</time>
      </trkpt>
      <trkpt lat="48.533942978829145" lon="7.933561960235238">
        <ele>140.49000000000001</ele>
        <time>2025-04-23T07:29:54Z</time>
      </trkpt>
      <trkpt lat="48.530868999660015" lon="7.930003004148603">
        <ele>141.44999999999999</ele>
        <time>2025-04-23T07:30:07Z</time>
      </trkpt>
      <trkpt lat="48.528006998822093" lon="7.92677597142756">
        <ele>142.41</ele>
        <time>2025-04-23T07:30:19Z</time>
      </trkpt>
      <trkpt lat="48.525104010477662" lon="7.923603001981974">
        <ele>144.81999999999999</ele>
        <time>2025-04-23T07:30:31Z</time>
      </trkpt>
      <trkpt lat="48.521435000002384" lon="7.919764006510377">
        <ele>148.66</ele>
        <time>2025-04-23T07:30:46Z</time>
      </trkpt>
      <trkpt lat="48.519059987738729" lon="7.917368039488792">
        <ele>152.03</ele>
        <time>2025-04-23T07:30:56Z</time>
      </trkpt>
      <trkpt lat="48.516511972993612" lon="7.915009036660194">
        <ele>156.34999999999999</ele>
        <time>2025-04-23T07:31:07Z</time>
      </trkpt>
      <trkpt lat="48.512512966990471" lon="7.911716960370541">
        <ele>155.38999999999999</ele>
        <time>2025-04-23T07:31:23Z</time>
      </trkpt>
      <trkpt lat="48.509606039151549" lon="7.909615030512214">
        <ele>151.53999999999999</ele>
        <time>2025-04-23T07:31:34Z</time>
      </trkpt>
      <trkpt lat="48.507881965488195" lon="7.908497974276543">
        <ele>150.58000000000001</ele>
        <time>2025-04-23T07:31:41Z</time>
      </trkpt>
      <trkpt lat="48.504632972180843" lon="7.906561000272632">
        <ele>150.58000000000001</ele>
        <time>2025-04-23T07:31:54Z</time>
      </trkpt>
      <trkpt lat="48.502539005130529" lon="7.905463976785541">
        <ele>151.53999999999999</ele>
        <time>2025-04-23T07:32:03Z</time>
      </trkpt>
      <trkpt lat="48.499803990125656" lon="7.904147012159228">
        <ele>151.06</ele>
        <time>2025-04-23T07:32:16Z</time>
      </trkpt>
      <trkpt lat="48.497813958674669" lon="7.903372021391988">
        <ele>151.06</ele>
        <time>2025-04-23T07:32:25Z</time>
      </trkpt>
      <trkpt lat="48.495878996327519" lon="7.902717981487513">
        <ele>150.58000000000001</ele>
        <time>2025-04-23T07:32:32Z</time>
      </trkpt>
      <trkpt lat="48.492065984755754" lon="7.90176697075367">
        <ele>152.03</ele>
        <time>2025-04-23T07:32:45Z</time>
      </trkpt>
      <trkpt lat="48.489394001662731" lon="7.901407973840833">
        <ele>152.03</ele>
        <time>2025-04-23T07:32:54Z</time>
      </trkpt>
      <trkpt lat="48.486131010577083" lon="7.901260033249855">
        <ele>153.47</ele>
        <time>2025-04-23T07:33:05Z</time>
      </trkpt>
      <trkpt lat="48.482569037005305" lon="7.901518028229475">
        <ele>152.03</ele>
        <time>2025-04-23T07:33:17Z</time>
      </trkpt>
      <trkpt lat="48.479032963514328" lon="7.902223030105233">
        <ele>152.50999999999999</ele>
        <time>2025-04-23T07:33:29Z</time>
      </trkpt>
      <trkpt lat="48.47463296726346" lon="7.903303960338235">
        <ele>152.99000000000001</ele>
        <time>2025-04-23T07:33:44Z</time>
      </trkpt>
      <trkpt lat="48.470499012619257" lon="7.904287995770574">
        <ele>153.47</ele>
        <time>2025-04-23T07:33:58Z</time>
      </trkpt>
      <trkpt lat="48.46724197268486" lon="7.904844973236322">
        <ele>153.94999999999999</ele>
        <time>2025-04-23T07:34:10Z</time>
      </trkpt>
      <trkpt lat="48.464295985177159" lon="7.905024010688067">
        <ele>155.87</ele>
        <time>2025-04-23T07:34:19Z</time>
      </trkpt>
      <trkpt lat="48.461616961285472" lon="7.904942035675049">
        <ele>156.83000000000001</ele>
        <time>2025-04-23T07:34:28Z</time>
      </trkpt>
      <trkpt lat="48.458356987684965" lon="7.904510032385588">
        <ele>155.87</ele>
        <time>2025-04-23T07:34:39Z</time>
      </trkpt>
      <trkpt lat="48.454536013305187" lon="7.903558015823364">
        <ele>154.43000000000001</ele>
        <time>2025-04-23T07:34:52Z</time>
      </trkpt>
      <trkpt lat="48.451923038810492" lon="7.902677999809384">
        <ele>153.94999999999999</ele>
        <time>2025-04-23T07:35:01Z</time>
      </trkpt>
      <trkpt lat="48.448459971696138" lon="7.90131401270628">
        <ele>153.94999999999999</ele>
        <time>2025-04-23T07:35:13Z</time>
      </trkpt>
      <trkpt lat="48.445038981735706" lon="7.899776017293334">
        <ele>150.58000000000001</ele>
        <time>2025-04-23T07:35:25Z</time>
      </trkpt>
      <trkpt lat="48.443056996911764" lon="7.898769015446305">
        <ele>149.62</ele>
        <time>2025-04-23T07:35:32Z</time>
      </trkpt>
      <trkpt lat="48.440263979136944" lon="7.897217022255063">
        <ele>150.09999999999999</ele>
        <time>2025-04-23T07:35:42Z</time>
      </trkpt>
      <trkpt lat="48.435860965400934" lon="7.894427021965385">
        <ele>149.62</ele>
        <time>2025-04-23T07:35:58Z</time>
      </trkpt>
      <trkpt lat="48.43292998149991" lon="7.892370019108057">
        <ele>150.58000000000001</ele>
        <time>2025-04-23T07:36:09Z</time>
      </trkpt>
      <trkpt lat="48.429946023970842" lon="7.890029037371278">
        <ele>151.06</ele>
        <time>2025-04-23T07:36:21Z</time>
      </trkpt>
      <trkpt lat="48.426663000136614" lon="7.887252029031515">
        <ele>150.58000000000001</ele>
        <time>2025-04-23T07:36:34Z</time>
      </trkpt>
      <trkpt lat="48.423735033720732" lon="7.88449396379292">
        <ele>151.53999999999999</ele>
        <time>2025-04-23T07:36:46Z</time>
      </trkpt>
      <trkpt lat="48.421692028641701" lon="7.882431009784341">
        <ele>150.09999999999999</ele>
        <time>2025-04-23T07:36:55Z</time>
      </trkpt>
      <trkpt lat="48.419416006654501" lon="7.880000006407499">
        <ele>152.99000000000001</ele>
        <time>2025-04-23T07:37:07Z</time>
      </trkpt>
      <trkpt lat="48.417499987408519" lon="7.877780981361866">
        <ele>153.94999999999999</ele>
        <time>2025-04-23T07:37:17Z</time>
      </trkpt>
      <trkpt lat="48.415532000362873" lon="7.875428013503552">
        <ele>153.94999999999999</ele>
        <time>2025-04-23T07:37:28Z</time>
      </trkpt>
      <trkpt lat="48.415356986224651" lon="7.875205976888537">
        <ele>154.43000000000001</ele>
        <time>2025-04-23T07:37:29Z</time>
      </trkpt>
      <trkpt lat="48.415180966258049" lon="7.874980000779033">
        <ele>154.43000000000001</ele>
        <time>2025-04-23T07:37:30Z</time>
      </trkpt>
      <trkpt lat="48.412729008123279" lon="7.871817005798221">
        <ele>153.47</ele>
        <time>2025-04-23T07:37:43Z</time>
      </trkpt>
      <trkpt lat="48.410978028550744" lon="7.869380973279476">
        <ele>152.99000000000001</ele>
        <time>2025-04-23T07:37:52Z</time>
      </trkpt>
      <trkpt lat="48.409019010141492" lon="7.866495000198484">
        <ele>152.50999999999999</ele>
        <time>2025-04-23T07:38:03Z</time>
      </trkpt>
      <trkpt lat="48.407383030280471" lon="7.863964000716806">
        <ele>152.03</ele>
        <time>2025-04-23T07:38:13Z</time>
      </trkpt>
      <trkpt lat="48.406060030683875" lon="7.861789986491203">
        <ele>150.09999999999999</ele>
        <time>2025-04-23T07:38:22Z</time>
      </trkpt>
      <trkpt lat="48.404599986970425" lon="7.859311960637569">
        <ele>151.06</ele>
        <time>2025-04-23T07:38:30Z</time>
      </trkpt>
      <trkpt lat="48.402868034318089" lon="7.85621602088213">
        <ele>152.50999999999999</ele>
        <time>2025-04-23T07:38:39Z</time>
      </trkpt>
      <trkpt lat="48.401040025055408" lon="7.852734010666609">
        <ele>152.99000000000001</ele>
        <time>2025-04-23T07:38:49Z</time>
      </trkpt>
      <trkpt lat="48.39947797358036" lon="7.849760027602315">
        <ele>152.99000000000001</ele>
        <time>2025-04-23T07:38:58Z</time>
      </trkpt>
      <trkpt lat="48.397694975137711" lon="7.846444984897971">
        <ele>152.99000000000001</ele>
        <time>2025-04-23T07:39:09Z</time>
      </trkpt>
      <trkpt lat="48.395999986678362" lon="7.843319959938526">
        <ele>152.99000000000001</ele>
        <time>2025-04-23T07:39:20Z</time>
      </trkpt>
      <trkpt lat="48.394665000960231" lon="7.840940002351999">
        <ele>151.06</ele>
        <time>2025-04-23T07:39:28Z</time>
      </trkpt>
      <trkpt lat="48.393003959208727" lon="7.838124018162489">
        <ele>152.03</ele>
        <time>2025-04-23T07:39:37Z</time>
      </trkpt>
      <trkpt lat="48.391303019598126" lon="7.835303004831076">
        <ele>152.50999999999999</ele>
        <time>2025-04-23T07:39:45Z</time>
      </trkpt>
      <trkpt lat="48.388703959062696" lon="7.831162009388208">
        <ele>152.50999999999999</ele>
        <time>2025-04-23T07:39:57Z</time>
      </trkpt>
      <trkpt lat="48.386620972305536" lon="7.828040001913905">
        <ele>151.53999999999999</ele>
        <time>2025-04-23T07:40:07Z</time>
      </trkpt>
      <trkpt lat="48.384661031886935" lon="7.825219994410873">
        <ele>152.50999999999999</ele>
        <time>2025-04-23T07:40:17Z</time>
      </trkpt>
      <trkpt lat="48.382563041523099" lon="7.822310971096158">
        <ele>153.94999999999999</ele>
        <time>2025-04-23T07:40:28Z</time>
      </trkpt>
      <trkpt lat="48.380129020661116" lon="7.819055020809174">
        <ele>153.94999999999999</ele>
        <time>2025-04-23T07:40:39Z</time>
      </trkpt>
      <trkpt lat="48.376988992094994" lon="7.81492399983108">
        <ele>155.87</ele>
        <time>2025-04-23T07:40:53Z</time>
      </trkpt>
      <trkpt lat="48.37403797544539" lon="7.811174020171166">
        <ele>155.87</ele>
        <time>2025-04-23T07:41:06Z</time>
      </trkpt>
      <trkpt lat="48.372372994199395" lon="7.809116011485457">
        <ele>155.87</ele>
        <time>2025-04-23T07:41:14Z</time>
      </trkpt>
      <trkpt lat="48.369453996419907" lon="7.805552026256919">
        <ele>156.83000000000001</ele>
        <time>2025-04-23T07:41:28Z</time>
      </trkpt>
      <trkpt lat="48.36707797832787" lon="7.802772000432015">
        <ele>156.34999999999999</ele>
        <time>2025-04-23T07:41:39Z</time>
      </trkpt>
      <trkpt lat="48.36424196138978" lon="7.799757029861212">
        <ele>157.78999999999999</ele>
        <time>2025-04-23T07:41:51Z</time>
      </trkpt>
      <trkpt lat="48.360665990039706" lon="7.79655103571713">
        <ele>158.27000000000001</ele>
        <time>2025-04-23T07:42:05Z</time>
      </trkpt>
      <trkpt lat="48.357193032279611" lon="7.794010983780026">
        <ele>158.27000000000001</ele>
        <time>2025-04-23T07:42:18Z</time>
      </trkpt>
      <trkpt lat="48.35386399179697" lon="7.79208499006927">
        <ele>160.19999999999999</ele>
        <time>2025-04-23T07:42:30Z</time>
      </trkpt>
      <trkpt lat="48.350727986544371" lon="7.790686972439289">
        <ele>161.63999999999999</ele>
        <time>2025-04-23T07:42:41Z</time>
      </trkpt>
      <trkpt lat="48.3478909637779" lon="7.789714001119137">
        <ele>160.68000000000001</ele>
        <time>2025-04-23T07:42:51Z</time>
      </trkpt>
      <trkpt lat="48.345529027283192" lon="7.789127016440034">
        <ele>160.19999999999999</ele>
        <time>2025-04-23T07:43:01Z</time>
      </trkpt>
      <trkpt lat="48.342944970354438" lon="7.788697024807334">
        <ele>159.72</ele>
        <time>2025-04-23T07:43:11Z</time>
      </trkpt>
      <trkpt lat="48.340311041101813" lon="7.788527039811015">
        <ele>158.27000000000001</ele>
        <time>2025-04-23T07:43:21Z</time>
      </trkpt>
      <trkpt lat="48.337289029732347" lon="7.788568027317524">
        <ele>158.75</ele>
        <time>2025-04-23T07:43:33Z</time>
      </trkpt>
      <trkpt lat="48.334157969802618" lon="7.788852006196976">
        <ele>157.31</ele>
        <time>2025-04-23T07:43:46Z</time>
      </trkpt>
      <trkpt lat="48.330892967060208" lon="7.789274035021663">
        <ele>157.31</ele>
        <time>2025-04-23T07:43:59Z</time>
      </trkpt>
      <trkpt lat="48.328278986737132" lon="7.789591960608959">
        <ele>156.83000000000001</ele>
        <time>2025-04-23T07:44:09Z</time>
      </trkpt>
      <trkpt lat="48.325010966509581" lon="7.789931008592248">
        <ele>154.91</ele>
        <time>2025-04-23T07:44:22Z</time>
      </trkpt>
      <trkpt lat="48.322047963738441" lon="7.790185986086726">
        <ele>156.83000000000001</ele>
        <time>2025-04-23T07:44:33Z</time>
      </trkpt>
      <trkpt lat="48.319491986185312" lon="7.790308026596904">
        <ele>158.27000000000001</ele>
        <time>2025-04-23T07:44:42Z</time>
      </trkpt>
      <trkpt lat="48.316425969824195" lon="7.790413973852992">
        <ele>159.24000000000001</ele>
        <time>2025-04-23T07:44:53Z</time>
      </trkpt>
      <trkpt lat="48.312905989587307" lon="7.790443981066346">
        <ele>160.19999999999999</ele>
        <time>2025-04-23T07:45:05Z</time>
      </trkpt>
      <trkpt lat="48.310479009523988" lon="7.790396036580205">
        <ele>159.72</ele>
        <time>2025-04-23T07:45:14Z</time>
      </trkpt>
      <trkpt lat="48.307661013677716" lon="7.790280031040311">
        <ele>159.24000000000001</ele>
        <time>2025-04-23T07:45:24Z</time>
      </trkpt>
      <trkpt lat="48.303828975185752" lon="7.789973001927137">
        <ele>158.27000000000001</ele>
        <time>2025-04-23T07:45:38Z</time>
      </trkpt>
      <trkpt lat="48.299728967249393" lon="7.789392974227667">
        <ele>159.72</ele>
        <time>2025-04-23T07:45:53Z</time>
      </trkpt>
      <trkpt lat="48.296169005334377" lon="7.788642961531878">
        <ele>157.78999999999999</ele>
        <time>2025-04-23T07:46:06Z</time>
      </trkpt>
      <trkpt lat="48.292514998465776" lon="7.787582986056805">
        <ele>159.72</ele>
        <time>2025-04-23T07:46:19Z</time>
      </trkpt>
      <trkpt lat="48.289005998522043" lon="7.786330981180072">
        <ele>159.72</ele>
        <time>2025-04-23T07:46:31Z</time>
      </trkpt>
      <trkpt lat="48.285272028297186" lon="7.784728026017547">
        <ele>157.78999999999999</ele>
        <time>2025-04-23T07:46:44Z</time>
      </trkpt>
      <trkpt lat="48.280220003798604" lon="7.78209300711751">
        <ele>159.24000000000001</ele>
        <time>2025-04-23T07:47:02Z</time>
      </trkpt>
      <trkpt lat="48.27608797699213" lon="7.779525965452194">
        <ele>162.59999999999999</ele>
        <time>2025-04-23T07:47:17Z</time>
      </trkpt>
      <trkpt lat="48.271286990493536" lon="7.77596902102232">
        <ele>165.47999999999999</ele>
        <time>2025-04-23T07:47:35Z</time>
      </trkpt>
      <trkpt lat="48.266622964292765" lon="7.771990969777107">
        <ele>166.93000000000001</ele>
        <time>2025-04-23T07:47:53Z</time>
      </trkpt>
      <trkpt lat="48.264322970062494" lon="7.770031029358506">
        <ele>166.93000000000001</ele>
        <time>2025-04-23T07:48:03Z</time>
      </trkpt>
      <trkpt lat="48.261222001165152" lon="7.767468011006713">
        <ele>168.37</ele>
        <time>2025-04-23T07:48:16Z</time>
      </trkpt>
      <trkpt lat="48.25769598595798" lon="7.764783035963774">
        <ele>166.93000000000001</ele>
        <time>2025-04-23T07:48:30Z</time>
      </trkpt>
      <trkpt lat="48.254455961287022" lon="7.76247700676322">
        <ele>166.93000000000001</ele>
        <time>2025-04-23T07:48:44Z</time>
      </trkpt>
      <trkpt lat="48.251094985753298" lon="7.760296035557985">
        <ele>165</ele>
        <time>2025-04-23T07:48:57Z</time>
      </trkpt>
      <trkpt lat="48.246967988088727" lon="7.757844999432564">
        <ele>162.59999999999999</ele>
        <time>2025-04-23T07:49:12Z</time>
      </trkpt>
      <trkpt lat="48.242993038147688" lon="7.755680959671736">
        <ele>160.19999999999999</ele>
        <time>2025-04-23T07:49:28Z</time>
      </trkpt>
      <trkpt lat="48.239962980151176" lon="7.754193004220724">
        <ele>160.68000000000001</ele>
        <time>2025-04-23T07:49:39Z</time>
      </trkpt>
      <trkpt lat="48.235667003318667" lon="7.752311015501618">
        <ele>163.56</ele>
        <time>2025-04-23T07:49:54Z</time>
      </trkpt>
      <trkpt lat="48.231085035949945" lon="7.750565987080336">
        <ele>165.47999999999999</ele>
        <time>2025-04-23T07:50:10Z</time>
      </trkpt>
      <trkpt lat="48.22832596488297" lon="7.749640038236976">
        <ele>166.93000000000001</ele>
        <time>2025-04-23T07:50:21Z</time>
      </trkpt>
      <trkpt lat="48.225904013961554" lon="7.74891902692616">
        <ele>169.81</ele>
        <time>2025-04-23T07:50:31Z</time>
      </trkpt>
      <trkpt lat="48.222296023741364" lon="7.747960975393653">
        <ele>172.21000000000001</ele>
        <time>2025-04-23T07:50:46Z</time>
      </trkpt>
      <trkpt lat="48.219724958762527" lon="7.747405003756285">
        <ele>173.16999999999999</ele>
        <time>2025-04-23T07:50:57Z</time>
      </trkpt>
      <trkpt lat="48.2160359993577" lon="7.746682986617088">
        <ele>174.62</ele>
        <time>2025-04-23T07:51:12Z</time>
      </trkpt>
      <trkpt lat="48.213138962164521" lon="7.746302029117942">
        <ele>177.02000000000001</ele>
        <time>2025-04-23T07:51:24Z</time>
      </trkpt>
      <trkpt lat="48.209425024688244" lon="7.745898021385074">
        <ele>180.38</ele>
        <time>2025-04-23T07:51:39Z</time>
      </trkpt>
      <trkpt lat="48.206908022984862" lon="7.745716972276568">
        <ele>178.94</ele>
        <time>2025-04-23T07:51:49Z</time>
      </trkpt>
      <trkpt lat="48.203547969460487" lon="7.745614964514971">
        <ele>177.02000000000001</ele>
        <time>2025-04-23T07:52:01Z</time>
      </trkpt>
      <trkpt lat="48.200664008036256" lon="7.745623011142016">
        <ele>175.58000000000001</ele>
        <time>2025-04-23T07:52:11Z</time>
      </trkpt>
      <trkpt lat="48.197695976123214" lon="7.745729964226484">
        <ele>174.62</ele>
        <time>2025-04-23T07:52:21Z</time>
      </trkpt>
      <trkpt lat="48.193898973986506" lon="7.7460209839046">
        <ele>174.62</ele>
        <time>2025-04-23T07:52:34Z</time>
      </trkpt>
      <trkpt lat="48.191274013370275" lon="7.746349973604083">
        <ele>175.58000000000001</ele>
        <time>2025-04-23T07:52:43Z</time>
      </trkpt>
      <trkpt lat="48.188345041126013" lon="7.746778959408402">
        <ele>176.53999999999999</ele>
        <time>2025-04-23T07:52:53Z</time>
      </trkpt>
      <trkpt lat="48.185885958373547" lon="7.747220015153289">
        <ele>177.5</ele>
        <time>2025-04-23T07:53:02Z</time>
      </trkpt>
      <trkpt lat="48.182189958170056" lon="7.748060971498489">
        <ele>176.53999999999999</ele>
        <time>2025-04-23T07:53:17Z</time>
      </trkpt>
      <trkpt lat="48.17916501313448" lon="7.748823976144195">
        <ele>177.5</ele>
        <time>2025-04-23T07:53:30Z</time>
      </trkpt>
      <trkpt lat="48.176468973979354" lon="7.749626040458679">
        <ele>177.97999999999999</ele>
        <time>2025-04-23T07:53:41Z</time>
      </trkpt>
      <trkpt lat="48.173119984567165" lon="7.75074502453208">
        <ele>176.53999999999999</ele>
        <time>2025-04-23T07:53:54Z</time>
      </trkpt>
      <trkpt lat="48.170430986210704" lon="7.751765018329024">
        <ele>177.5</ele>
        <time>2025-04-23T07:54:05Z</time>
      </trkpt>
      <trkpt lat="48.168010963127017" lon="7.75274301879108">
        <ele>177.02000000000001</ele>
        <time>2025-04-23T07:54:16Z</time>
      </trkpt>
      <trkpt lat="48.165339985862374" lon="7.753931991755962">
        <ele>178.46000000000001</ele>
        <time>2025-04-23T07:54:28Z</time>
      </trkpt>
      <trkpt lat="48.162879981100559" lon="7.755106966942549">
        <ele>175.09999999999999</ele>
        <time>2025-04-23T07:54:38Z</time>
      </trkpt>
      <trkpt lat="48.159363018348813" lon="7.756932964548469">
        <ele>174.13999999999999</ele>
        <time>2025-04-23T07:54:52Z</time>
      </trkpt>
      <trkpt lat="48.157151034101844" lon="7.75818002410233">
        <ele>176.53999999999999</ele>
        <time>2025-04-23T07:55:02Z</time>
      </trkpt>
      <trkpt lat="48.154793959110975" lon="7.759689018130302">
        <ele>179.90000000000001</ele>
        <time>2025-04-23T07:55:12Z</time>
      </trkpt>
      <trkpt lat="48.152349963784218" lon="7.761461958289146">
        <ele>184.22999999999999</ele>
        <time>2025-04-23T07:55:22Z</time>
      </trkpt>
      <trkpt lat="48.149607991799712" lon="7.763777039945126">
        <ele>184.22999999999999</ele>
        <time>2025-04-23T07:55:33Z</time>
      </trkpt>
      <trkpt lat="48.14607996493578" lon="7.76709602214396">
        <ele>184.71000000000001</ele>
        <time>2025-04-23T07:55:47Z</time>
      </trkpt>
      <trkpt lat="48.142283968627453" lon="7.77061901986599">
        <ele>185.19</ele>
        <time>2025-04-23T07:56:02Z</time>
      </trkpt>
      <trkpt lat="48.13866600394249" lon="7.773636002093554">
        <ele>184.22999999999999</ele>
        <time>2025-04-23T07:56:16Z</time>
      </trkpt>
      <trkpt lat="48.136529959738255" lon="7.77534699998796">
        <ele>183.75</ele>
        <time>2025-04-23T07:56:25Z</time>
      </trkpt>
      <trkpt lat="48.133777007460594" lon="7.777392016723752">
        <ele>182.31</ele>
        <time>2025-04-23T07:56:36Z</time>
      </trkpt>
      <trkpt lat="48.130907965824008" lon="7.779365032911301">
        <ele>183.27000000000001</ele>
        <time>2025-04-23T07:56:48Z</time>
      </trkpt>
      <trkpt lat="48.128518033772707" lon="7.780882995575666">
        <ele>182.78999999999999</ele>
        <time>2025-04-23T07:56:59Z</time>
      </trkpt>
      <trkpt lat="48.126165987923741" lon="7.782267015427351">
        <ele>182.78999999999999</ele>
        <time>2025-04-23T07:57:09Z</time>
      </trkpt>
      <trkpt lat="48.12317700125277" lon="7.78393903747201">
        <ele>182.31</ele>
        <time>2025-04-23T07:57:21Z</time>
      </trkpt>
      <trkpt lat="48.119983999058604" lon="7.785502010956407">
        <ele>182.31</ele>
        <time>2025-04-23T07:57:33Z</time>
      </trkpt>
      <trkpt lat="48.116847993806005" lon="7.786916960030794">
        <ele>184.71000000000001</ele>
        <time>2025-04-23T07:57:44Z</time>
      </trkpt>
      <trkpt lat="48.11397903598845" lon="7.788084978237748">
        <ele>181.83000000000001</ele>
        <time>2025-04-23T07:57:54Z</time>
      </trkpt>
      <trkpt lat="48.109338982030749" lon="7.789666978642345">
        <ele>182.78999999999999</ele>
        <time>2025-04-23T07:58:10Z</time>
      </trkpt>
      <trkpt lat="48.105532005429268" lon="7.790771964937449">
        <ele>184.71000000000001</ele>
        <time>2025-04-23T07:58:23Z</time>
      </trkpt>
      <trkpt lat="48.10027102008462" lon="7.792254975065589">
        <ele>186.63</ele>
        <time>2025-04-23T07:58:41Z</time>
      </trkpt>
      <trkpt lat="48.096928987652063" lon="7.793459035456181">
        <ele>186.15000000000001</ele>
        <time>2025-04-23T07:58:53Z</time>
      </trkpt>
      <trkpt lat="48.094267984852195" lon="7.794626969844103">
        <ele>188.56</ele>
        <time>2025-04-23T07:59:04Z</time>
      </trkpt>
      <trkpt lat="48.091298025101423" lon="7.796121966093779">
        <ele>189.03999999999999</ele>
        <time>2025-04-23T07:59:15Z</time>
      </trkpt>
      <trkpt lat="48.087981976568699" lon="7.798016024753451">
        <ele>189.52000000000001</ele>
        <time>2025-04-23T07:59:27Z</time>
      </trkpt>
      <trkpt lat="48.083646018058062" lon="7.80095798894763">
        <ele>193.36000000000001</ele>
        <time>2025-04-23T07:59:43Z</time>
      </trkpt>
      <trkpt lat="48.080212958157063" lon="7.803656039759517">
        <ele>195.77000000000001</ele>
        <time>2025-04-23T07:59:56Z</time>
      </trkpt>
      <trkpt lat="48.076249994337559" lon="7.806733036413789">
        <ele>197.69</ele>
        <time>2025-04-23T08:00:11Z</time>
      </trkpt>
      <trkpt lat="48.074540002271533" lon="7.807905999943614">
        <ele>198.16999999999999</ele>
        <time>2025-04-23T08:00:18Z</time>
      </trkpt>
      <trkpt lat="48.072056025266647" lon="7.809324972331524">
        <ele>196.72999999999999</ele>
        <time>2025-04-23T08:00:28Z</time>
      </trkpt>
      <trkpt lat="48.069286979734898" lon="7.810571026057005">
        <ele>197.21000000000001</ele>
        <time>2025-04-23T08:00:38Z</time>
      </trkpt>
      <trkpt lat="48.064921014010906" lon="7.811985975131393">
        <ele>198.16999999999999</ele>
        <time>2025-04-23T08:00:53Z</time>
      </trkpt>
      <trkpt lat="48.061081012710929" lon="7.812607996165752">
        <ele>201.05000000000001</ele>
        <time>2025-04-23T08:01:06Z</time>
      </trkpt>
      <trkpt lat="48.05691503919661" lon="7.812630962580442">
        <ele>207.30000000000001</ele>
        <time>2025-04-23T08:01:20Z</time>
      </trkpt>
      <trkpt lat="48.052760967984796" lon="7.812039032578468">
        <ele>214.99000000000001</ele>
        <time>2025-04-23T08:01:34Z</time>
      </trkpt>
      <trkpt lat="48.048961032181978" lon="7.810931028798223">
        <ele>217.40000000000001</ele>
        <time>2025-04-23T08:01:47Z</time>
      </trkpt>
      <trkpt lat="48.046679981052876" lon="7.809928972274065">
        <ele>213.06999999999999</ele>
        <time>2025-04-23T08:01:55Z</time>
      </trkpt>
      <trkpt lat="48.043314982205629" lon="7.808144968003035">
        <ele>210.66999999999999</ele>
        <time>2025-04-23T08:02:07Z</time>
      </trkpt>
      <trkpt lat="48.040089961141348" lon="7.805885039269924">
        <ele>212.59</ele>
        <time>2025-04-23T08:02:19Z</time>
      </trkpt>
      <trkpt lat="48.037243969738483" lon="7.803488988429308">
        <ele>217.88</ele>
        <time>2025-04-23T08:02:30Z</time>
      </trkpt>
      <trkpt lat="48.034305023029447" lon="7.800452979281545">
        <ele>221.24000000000001</ele>
        <time>2025-04-23T08:02:42Z</time>
      </trkpt>
      <trkpt lat="48.031103974208236" lon="7.796455984935165">
        <ele>223.63999999999999</ele>
        <time>2025-04-23T08:02:56Z</time>
      </trkpt>
      <trkpt lat="48.028979999944568" lon="7.793348981067538">
        <ele>223.16</ele>
        <time>2025-04-23T08:03:06Z</time>
      </trkpt>
      <trkpt lat="48.026200979948044" lon="7.788725020363927">
        <ele>223.16</ele>
        <time>2025-04-23T08:03:20Z</time>
      </trkpt>
      <trkpt lat="48.023637961596251" lon="7.783843986690044">
        <ele>222.68000000000001</ele>
        <time>2025-04-23T08:03:34Z</time>
      </trkpt>
      <trkpt lat="48.021965017542243" lon="7.780751986429095">
        <ele>221.72</ele>
        <time>2025-04-23T08:03:43Z</time>
      </trkpt>
      <trkpt lat="48.0195979680866" lon="7.776783993467689">
        <ele>221.72</ele>
        <time>2025-04-23T08:03:55Z</time>
      </trkpt>
      <trkpt lat="48.01768203265965" lon="7.773976977914572">
        <ele>222.19999999999999</ele>
        <time>2025-04-23T08:04:04Z</time>
      </trkpt>
      <trkpt lat="48.015457978472114" lon="7.771037025377154">
        <ele>221.24000000000001</ele>
        <time>2025-04-23T08:04:14Z</time>
      </trkpt>
      <trkpt lat="48.012396991252899" lon="7.767497012391686">
        <ele>219.80000000000001</ele>
        <time>2025-04-23T08:04:27Z</time>
      </trkpt>
      <trkpt lat="48.009134000167251" lon="7.76438900269568">
        <ele>218.84</ele>
        <time>2025-04-23T08:04:40Z</time>
      </trkpt>
      <trkpt lat="48.006026996299624" lon="7.761720959097147">
        <ele>217.88</ele>
        <time>2025-04-23T08:04:52Z</time>
      </trkpt>
      <trkpt lat="48.002138966694474" lon="7.758440030738711">
        <ele>217.40000000000001</ele>
        <time>2025-04-23T08:05:07Z</time>
      </trkpt>
      <trkpt lat="47.998334001749754" lon="7.754969000816345">
        <ele>215.47</ele>
        <time>2025-04-23T08:05:22Z</time>
      </trkpt>
      <trkpt lat="47.996846968308091" lon="7.753522032871842">
        <ele>215.47</ele>
        <time>2025-04-23T08:05:28Z</time>
      </trkpt>
      <trkpt lat="47.992190988734365" lon="7.748715011402965">
        <ele>215.47</ele>
        <time>2025-04-23T08:05:47Z</time>
      </trkpt>
      <trkpt lat="47.988854991272092" lon="7.7450090367347">
        <ele>215.94999999999999</ele>
        <time>2025-04-23T08:06:01Z</time>
      </trkpt>
      <trkpt lat="47.985594011843204" lon="7.741137016564608">
        <ele>215.47</ele>
        <time>2025-04-23T08:06:15Z</time>
      </trkpt>
      <trkpt lat="47.982417019084096" lon="7.73712401278317">
        <ele>214.50999999999999</ele>
        <time>2025-04-23T08:06:29Z</time>
      </trkpt>
      <trkpt lat="47.97978300601244" lon="7.733508981764317">
        <ele>213.55000000000001</ele>
        <time>2025-04-23T08:06:42Z</time>
      </trkpt>
      <trkpt lat="47.977229962125421" lon="7.729825973510742">
        <ele>214.50999999999999</ele>
        <time>2025-04-23T08:06:53Z</time>
      </trkpt>
      <trkpt lat="47.973920032382011" lon="7.724736984819174">
        <ele>221.24000000000001</ele>
        <time>2025-04-23T08:07:09Z</time>
      </trkpt>
      <trkpt lat="47.971333041787148" lon="7.720461040735245">
        <ele>228.93000000000001</ele>
        <time>2025-04-23T08:07:22Z</time>
      </trkpt>
      <trkpt lat="47.968634990975261" lon="7.715737000107765">
        <ele>234.69999999999999</ele>
        <time>2025-04-23T08:07:36Z</time>
      </trkpt>
      <trkpt lat="47.966417977586389" lon="7.71153699606657">
        <ele>235.18000000000001</ele>
        <time>2025-04-23T08:07:48Z</time>
      </trkpt>
      <trkpt lat="47.96407800167799" lon="7.70691404119134">
        <ele>231.33000000000001</ele>
        <time>2025-04-23T08:08:01Z</time>
      </trkpt>
      <trkpt lat="47.962184026837349" lon="7.702933978289366">
        <ele>224.61000000000001</ele>
        <time>2025-04-23T08:08:12Z</time>
      </trkpt>
      <trkpt lat="47.959925020113587" lon="7.697894023731351">
        <ele>216.43000000000001</ele>
        <time>2025-04-23T08:08:26Z</time>
      </trkpt>
      <trkpt lat="47.958122994750738" lon="7.69353199750185">
        <ele>211.15000000000001</ele>
        <time>2025-04-23T08:08:38Z</time>
      </trkpt>
      <trkpt lat="47.956195995211601" lon="7.688472010195255">
        <ele>208.74000000000001</ele>
        <time>2025-04-23T08:08:52Z</time>
      </trkpt>
      <trkpt lat="47.954857992008328" lon="7.68437803722918">
        <ele>207.30000000000001</ele>
        <time>2025-04-23T08:09:04Z</time>
      </trkpt>
      <trkpt lat="47.953837998211384" lon="7.680822014808655">
        <ele>209.22</ele>
        <time>2025-04-23T08:09:14Z</time>
      </trkpt>
      <trkpt lat="47.952724965289235" lon="7.676276005804539">
        <ele>212.11000000000001</ele>
        <time>2025-04-23T08:09:26Z</time>
      </trkpt>
      <trkpt lat="47.951785018667579" lon="7.671512989327312">
        <ele>214.99000000000001</ele>
        <time>2025-04-23T08:09:38Z</time>
      </trkpt>
      <trkpt lat="47.950926041230559" lon="7.666175980120897">
        <ele>214.03</ele>
        <time>2025-04-23T08:09:51Z</time>
      </trkpt>
      <trkpt lat="47.950163036584854" lon="7.660969980061054">
        <ele>211.15000000000001</ele>
        <time>2025-04-23T08:10:03Z</time>
      </trkpt>
      <trkpt lat="47.948897033929825" lon="7.653678981587291">
        <ele>209.69999999999999</ele>
        <time>2025-04-23T08:10:20Z</time>
      </trkpt>
      <trkpt lat="47.947451993823051" lon="7.646925011649728">
        <ele>209.69999999999999</ele>
        <time>2025-04-23T08:10:36Z</time>
      </trkpt>
      <trkpt lat="47.946428982540965" lon="7.642776975408196">
        <ele>208.74000000000001</ele>
        <time>2025-04-23T08:10:46Z</time>
      </trkpt>
      <trkpt lat="47.944614971056581" lon="7.636227020993829">
        <ele>207.78</ele>
        <time>2025-04-23T08:11:02Z</time>
      </trkpt>
      <trkpt lat="47.942965999245644" lon="7.631039964035153">
        <ele>206.34</ele>
        <time>2025-04-23T08:11:15Z</time>
      </trkpt>
      <trkpt lat="47.941568987444043" lon="7.627117987722158">
        <ele>205.38</ele>
        <time>2025-04-23T08:11:25Z</time>
      </trkpt>
      <trkpt lat="47.939659003168344" lon="7.622098987922072">
        <ele>203.94</ele>
        <time>2025-04-23T08:11:38Z</time>
      </trkpt>
      <trkpt lat="47.937562018632889" lon="7.617264976724982">
        <ele>204.41999999999999</ele>
        <time>2025-04-23T08:11:51Z</time>
      </trkpt>
      <trkpt lat="47.935379035770893" lon="7.613077964633703">
        <ele>203.94</ele>
        <time>2025-04-23T08:12:03Z</time>
      </trkpt>
      <trkpt lat="47.932986002415419" lon="7.609149031341076">
        <ele>204.90000000000001</ele>
        <time>2025-04-23T08:12:15Z</time>
      </trkpt>
      <trkpt lat="47.92993800714612" lon="7.60492798872292">
        <ele>205.86000000000001</ele>
        <time>2025-04-23T08:12:29Z</time>
      </trkpt>
      <trkpt lat="47.926391959190369" lon="7.600932000204921">
        <ele>206.34</ele>
        <time>2025-04-23T08:12:44Z</time>
      </trkpt>
      <trkpt lat="47.923647975549102" lon="7.59828700684011">
        <ele>206.81999999999999</ele>
        <time>2025-04-23T08:12:55Z</time>
      </trkpt>
      <trkpt lat="47.920240983366966" lon="7.595556015148759">
        <ele>207.30000000000001</ele>
        <time>2025-04-23T08:13:08Z</time>
      </trkpt>
      <trkpt lat="47.91616402566433" lon="7.592866010963917">
        <ele>206.34</ele>
        <time>2025-04-23T08:13:23Z</time>
      </trkpt>
      <trkpt lat="47.912525022402406" lon="7.590890983119607">
        <ele>204.90000000000001</ele>
        <time>2025-04-23T08:13:36Z</time>
      </trkpt>
      <trkpt lat="47.907968033105135" lon="7.588843032717705">
        <ele>205.86000000000001</ele>
        <time>2025-04-23T08:13:52Z</time>
      </trkpt>
      <trkpt lat="47.90391999296844" lon="7.587450966238976">
        <ele>205.38</ele>
        <time>2025-04-23T08:14:06Z</time>
      </trkpt>
      <trkpt lat="47.898981962352991" lon="7.58580501191318">
        <ele>204.41999999999999</ele>
        <time>2025-04-23T08:14:23Z</time>
      </trkpt>
      <trkpt lat="47.895836988463998" lon="7.584457034245133">
        <ele>204.41999999999999</ele>
        <time>2025-04-23T08:14:34Z</time>
      </trkpt>
      <trkpt lat="47.892185999080539" lon="7.582547971978784">
        <ele>204.90000000000001</ele>
        <time>2025-04-23T08:14:47Z</time>
      </trkpt>
      <trkpt lat="47.889725994318724" lon="7.580967983230948">
        <ele>205.38</ele>
        <time>2025-04-23T08:14:56Z</time>
      </trkpt>
      <trkpt lat="47.887060968205333" lon="7.579013993963599">
        <ele>205.86000000000001</ele>
        <time>2025-04-23T08:15:06Z</time>
      </trkpt>
      <trkpt lat="47.883409978821874" lon="7.576013021171093">
        <ele>206.81999999999999</ele>
        <time>2025-04-23T08:15:20Z</time>
      </trkpt>
      <trkpt lat="47.880553007125854" lon="7.57364597171545">
        <ele>206.81999999999999</ele>
        <time>2025-04-23T08:15:31Z</time>
      </trkpt>
      <trkpt lat="47.877329997718334" lon="7.571386964991689">
        <ele>206.81999999999999</ele>
        <time>2025-04-23T08:15:44Z</time>
      </trkpt>
      <trkpt lat="47.873440040275455" lon="7.569230971857905">
        <ele>207.78</ele>
        <time>2025-04-23T08:15:57Z</time>
      </trkpt>
      <trkpt lat="47.86971696652472" lon="7.567685013636947">
        <ele>209.22</ele>
        <time>2025-04-23T08:16:10Z</time>
      </trkpt>
      <trkpt lat="47.866206038743258" lon="7.566707013174892">
        <ele>209.22</ele>
        <time>2025-04-23T08:16:22Z</time>
      </trkpt>
      <trkpt lat="47.86176597699523" lon="7.566068982705474">
        <ele>209.22</ele>
        <time>2025-04-23T08:16:37Z</time>
      </trkpt>
      <trkpt lat="47.858204003423452" lon="7.566035035997629">
        <ele>208.25999999999999</ele>
        <time>2025-04-23T08:16:49Z</time>
      </trkpt>
      <trkpt lat="47.853432018309832" lon="7.566496040672064">
        <ele>210.19</ele>
        <time>2025-04-23T08:17:05Z</time>
      </trkpt>
      <trkpt lat="47.849565027281642" lon="7.566908011212945">
        <ele>213.06999999999999</ele>
        <time>2025-04-23T08:17:18Z</time>
      </trkpt>
      <trkpt lat="47.844803016632795" lon="7.566852020099759">
        <ele>214.50999999999999</ele>
        <time>2025-04-23T08:17:34Z</time>
      </trkpt>
      <trkpt lat="47.841857029125094" lon="7.566519007086754">
        <ele>214.50999999999999</ele>
        <time>2025-04-23T08:17:44Z</time>
      </trkpt>
      <trkpt lat="47.838607029989362" lon="7.565863961353898">
        <ele>214.50999999999999</ele>
        <time>2025-04-23T08:17:55Z</time>
      </trkpt>
      <trkpt lat="47.834234023466706" lon="7.564594019204378">
        <ele>214.03</ele>
        <time>2025-04-23T08:18:10Z</time>
      </trkpt>
      <trkpt lat="47.830492006614804" lon="7.563139004632831">
        <ele>214.50999999999999</ele>
        <time>2025-04-23T08:18:23Z</time>
      </trkpt>
      <trkpt lat="47.826817966997623" lon="7.56135399453342">
        <ele>216.43000000000001</ele>
        <time>2025-04-23T08:18:36Z</time>
      </trkpt>
      <trkpt lat="47.822676971554756" lon="7.558940006420016">
        <ele>218.36000000000001</ele>
        <time>2025-04-23T08:18:51Z</time>
      </trkpt>
      <trkpt lat="47.820865977555513" lon="7.557761007919908">
        <ele>217.40000000000001</ele>
        <time>2025-04-23T08:18:59Z</time>
      </trkpt>
      <trkpt lat="47.818721970543265" lon="7.556254025548697">
        <ele>218.36000000000001</ele>
        <time>2025-04-23T08:19:10Z</time>
      </trkpt>
      <trkpt lat="47.816414013504982" lon="7.554596001282334">
        <ele>218.36000000000001</ele>
        <time>2025-04-23T08:19:22Z</time>
      </trkpt>
      <trkpt lat="47.815741030499339" lon="7.553958976641297">
        <ele>218.36000000000001</ele>
        <time>2025-04-23T08:19:27Z</time>
      </trkpt>
      <trkpt lat="47.815633993595839" lon="7.553763007745147">
        <ele>217.88</ele>
        <time>2025-04-23T08:19:28Z</time>
      </trkpt>
      <trkpt lat="47.815533997491002" lon="7.553579024970532">
        <ele>217.88</ele>
        <time>2025-04-23T08:19:29Z</time>
      </trkpt>
      <trkpt lat="47.815454034134746" lon="7.55338498391211">
        <ele>217.88</ele>
        <time>2025-04-23T08:19:30Z</time>
      </trkpt>
      <trkpt lat="47.815395025536418" lon="7.553166970610619">
        <ele>217.88</ele>
        <time>2025-04-23T08:19:31Z</time>
      </trkpt>
      <trkpt lat="47.815362000837922" lon="7.552928002551198">
        <ele>217.88</ele>
        <time>2025-04-23T08:19:32Z</time>
      </trkpt>
      <trkpt lat="47.815327970311046" lon="7.552685011178255">
        <ele>217.88</ele>
        <time>2025-04-23T08:19:33Z</time>
      </trkpt>
      <trkpt lat="47.815139964222908" lon="7.551776999607682">
        <ele>219.31999999999999</ele>
        <time>2025-04-23T08:19:37Z</time>
      </trkpt>
      <trkpt lat="47.815067963674664" lon="7.551598967984319">
        <ele>219.80000000000001</ele>
        <time>2025-04-23T08:19:38Z</time>
      </trkpt>
      <trkpt lat="47.814993029460311" lon="7.551439963281155">
        <ele>220.28</ele>
        <time>2025-04-23T08:19:39Z</time>
      </trkpt>
      <trkpt lat="47.814912982285023" lon="7.551295962184668">
        <ele>220.75999999999999</ele>
        <time>2025-04-23T08:19:40Z</time>
      </trkpt>
      <trkpt lat="47.814824972301722" lon="7.551179034635425">
        <ele>221.24000000000001</ele>
        <time>2025-04-23T08:19:41Z</time>
      </trkpt>
      <trkpt lat="47.814741991460323" lon="7.551067974418402">
        <ele>221.72</ele>
        <time>2025-04-23T08:19:42Z</time>
      </trkpt>
      <trkpt lat="47.814664961770177" lon="7.550977030768991">
        <ele>222.19999999999999</ele>
        <time>2025-04-23T08:19:43Z</time>
      </trkpt>
      <trkpt lat="47.814582986757159" lon="7.550906036049128">
        <ele>223.16</ele>
        <time>2025-04-23T08:19:44Z</time>
      </trkpt>
      <trkpt lat="47.814403027296066" lon="7.550748959183693">
        <ele>224.61000000000001</ele>
        <time>2025-04-23T08:19:47Z</time>
      </trkpt>
      <trkpt lat="47.814366985112429" lon="7.550719035789371">
        <ele>224.61000000000001</ele>
        <time>2025-04-23T08:19:48Z</time>
      </trkpt>
      <trkpt lat="47.814337983727455" lon="7.550631025806069">
        <ele>225.09</ele>
        <time>2025-04-23T08:19:49Z</time>
      </trkpt>
      <trkpt lat="47.814272018149495" lon="7.550509991124272">
        <ele>226.05000000000001</ele>
        <time>2025-04-23T08:19:51Z</time>
      </trkpt>
      <trkpt lat="47.814218960702419" lon="7.550484007224441">
        <ele>226.05000000000001</ele>
        <time>2025-04-23T08:19:52Z</time>
      </trkpt>
      <trkpt lat="47.81417403370142" lon="7.550461040809751">
        <ele>226.53</ele>
        <time>2025-04-23T08:19:53Z</time>
      </trkpt>
      <trkpt lat="47.814108990132809" lon="7.550527006387711">
        <ele>227.00999999999999</ele>
        <time>2025-04-23T08:19:54Z</time>
      </trkpt>
      <trkpt lat="47.814050987362862" lon="7.550585009157658">
        <ele>227.00999999999999</ele>
        <time>2025-04-23T08:19:55Z</time>
      </trkpt>
      <trkpt lat="47.814030032604933" lon="7.550666984170675">
        <ele>227.49000000000001</ele>
        <time>2025-04-23T08:19:56Z</time>
      </trkpt>
      <trkpt lat="47.814023997634649" lon="7.550696991384029">
        <ele>227.49000000000001</ele>
        <time>2025-04-23T08:19:57Z</time>
      </trkpt>
      <trkpt lat="47.814107984304428" lon="7.550922967493534">
        <ele>227.49000000000001</ele>
        <time>2025-04-23T08:19:58Z</time>
      </trkpt>
      <trkpt lat="47.81408803537488" lon="7.551022041589022">
        <ele>227.49000000000001</ele>
        <time>2025-04-23T08:19:59Z</time>
      </trkpt>
      <trkpt lat="47.814072025939822" lon="7.55114802159369">
        <ele>227.49000000000001</ele>
        <time>2025-04-23T08:20:00Z</time>
      </trkpt>
      <trkpt lat="47.814056016504765" lon="7.551275007426739">
        <ele>227.00999999999999</ele>
        <time>2025-04-23T08:20:01Z</time>
      </trkpt>
      <trkpt lat="47.813942022621632" lon="7.552714012563229">
        <ele>225.56999999999999</ele>
        <time>2025-04-23T08:20:10Z</time>
      </trkpt>
      <trkpt lat="47.813985021784902" lon="7.553996024653316">
        <ele>222.68000000000001</ele>
        <time>2025-04-23T08:20:18Z</time>
      </trkpt>
      <trkpt lat="47.814017962664366" lon="7.554346974939108">
        <ele>220.75999999999999</ele>
        <time>2025-04-23T08:20:25Z</time>
      </trkpt>
      <trkpt lat="47.814049981534481" lon="7.55454202182591">
        <ele>219.80000000000001</ele>
        <time>2025-04-23T08:20:32Z</time>
      </trkpt>
      <trkpt lat="47.813988961279392" lon="7.554922979325056">
        <ele>219.31999999999999</ele>
        <time>2025-04-23T08:20:39Z</time>
      </trkpt>
      <trkpt lat="47.814007988199592" lon="7.555026998743415">
        <ele>219.31999999999999</ele>
        <time>2025-04-23T08:20:40Z</time>
      </trkpt>
      <trkpt lat="47.814023997634649" lon="7.555075027048588">
        <ele>219.31999999999999</ele>
        <time>2025-04-23T08:20:41Z</time>
      </trkpt>
      <trkpt lat="47.814099015668035" lon="7.555129006505013">
        <ele>219.31999999999999</ele>
        <time>2025-04-23T08:20:42Z</time>
      </trkpt>
      <trkpt lat="47.814179984852672" lon="7.555237971246243">
        <ele>219.31999999999999</ele>
        <time>2025-04-23T08:20:43Z</time>
      </trkpt>
      <trkpt lat="47.814189959317446" lon="7.555326987057924">
        <ele>219.31999999999999</ele>
        <time>2025-04-23T08:20:44Z</time>
      </trkpt>
      <trkpt lat="47.814199011772871" lon="7.555414997041225">
        <ele>219.31999999999999</ele>
        <time>2025-04-23T08:20:45Z</time>
      </trkpt>
      <trkpt lat="47.814208986237645" lon="7.55551197566092">
        <ele>219.31999999999999</ele>
        <time>2025-04-23T08:20:46Z</time>
      </trkpt>
      <trkpt lat="47.814228013157845" lon="7.555627981200814">
        <ele>219.31999999999999</ele>
        <time>2025-04-23T08:20:47Z</time>
      </trkpt>
      <trkpt lat="47.814523978158832" lon="7.556595001369715">
        <ele>219.80000000000001</ele>
        <time>2025-04-23T08:20:53Z</time>
      </trkpt>
      <trkpt lat="47.814569994807243" lon="7.557042008265853">
        <ele>220.28</ele>
        <time>2025-04-23T08:20:56Z</time>
      </trkpt>
      <trkpt lat="47.814579969272017" lon="7.557169999927282">
        <ele>220.28</ele>
        <time>2025-04-23T08:20:57Z</time>
      </trkpt>
      <trkpt lat="47.814572006464005" lon="7.557220039889216">
        <ele>219.80000000000001</ele>
        <time>2025-04-23T08:20:58Z</time>
      </trkpt>
      <trkpt lat="47.814601007848978" lon="7.557399999350309">
        <ele>219.80000000000001</ele>
        <time>2025-04-23T08:20:59Z</time>
      </trkpt>
      <trkpt lat="47.81454099342227" lon="7.557488009333611">
        <ele>219.31999999999999</ele>
        <time>2025-04-23T08:21:00Z</time>
      </trkpt>
      <trkpt lat="47.814477039501071" lon="7.557580964639783">
        <ele>219.31999999999999</ele>
        <time>2025-04-23T08:21:01Z</time>
      </trkpt>
      <trkpt lat="47.814285010099411" lon="7.557855974882841">
        <ele>220.75999999999999</ele>
        <time>2025-04-23T08:21:04Z</time>
      </trkpt>
      <trkpt lat="47.814242010936141" lon="7.557966029271483">
        <ele>221.72</ele>
        <time>2025-04-23T08:21:05Z</time>
      </trkpt>
      <trkpt lat="47.814200017601252" lon="7.558074994012713">
        <ele>222.68000000000001</ele>
        <time>2025-04-23T08:21:06Z</time>
      </trkpt>
      <trkpt lat="47.814035983756185" lon="7.558817965909839">
        <ele>229.88999999999999</ele>
        <time>2025-04-23T08:21:15Z</time>
      </trkpt>
      <trkpt lat="47.814028020948172" lon="7.55886398255825">
        <ele>230.37</ele>
        <time>2025-04-23T08:21:18Z</time>
      </trkpt>
      <trkpt lat="47.814019974321127" lon="7.558903964236379">
        <ele>231.33000000000001</ele>
        <time>2025-04-23T08:21:19Z</time>
      </trkpt>
      <trkpt lat="47.814002959057689" lon="7.559002032503486">
        <ele>231.33000000000001</ele>
        <time>2025-04-23T08:21:20Z</time>
      </trkpt>
      <trkpt lat="47.814002959057689" lon="7.559002032503486">
        <ele>231.81</ele>
        <time>2025-04-23T08:21:21Z</time>
      </trkpt>
      <trkpt lat="47.813911009579897" lon="7.559051988646388">
        <ele>231.81</ele>
        <time>2025-04-23T08:21:22Z</time>
      </trkpt>
      <trkpt lat="47.813850995153189" lon="7.559037990868092">
        <ele>232.30000000000001</ele>
        <time>2025-04-23T08:21:23Z</time>
      </trkpt>
      <trkpt lat="47.813795004040003" lon="7.559021981433034">
        <ele>232.30000000000001</ele>
        <time>2025-04-23T08:21:24Z</time>
      </trkpt>
      <trkpt lat="47.81374798156321" lon="7.559008989483118">
        <ele>232.30000000000001</ele>
        <time>2025-04-23T08:21:25Z</time>
      </trkpt>
      <trkpt lat="47.813656032085419" lon="7.558988034725189">
        <ele>233.25999999999999</ele>
        <time>2025-04-23T08:21:34Z</time>
      </trkpt>
      <trkpt lat="47.813558969646692" lon="7.558749988675118">
        <ele>233.25999999999999</ele>
        <time>2025-04-23T08:21:39Z</time>
      </trkpt>
      <trkpt lat="47.813503984361887" lon="7.558756023645401">
        <ele>233.25999999999999</ele>
        <time>2025-04-23T08:21:40Z</time>
      </trkpt>
      <trkpt lat="47.813428966328502" lon="7.558763986453414">
        <ele>232.78</ele>
        <time>2025-04-23T08:21:41Z</time>
      </trkpt>
      <trkpt lat="47.812593961134553" lon="7.558856019750238">
        <ele>227.00999999999999</ele>
        <time>2025-04-23T08:21:51Z</time>
      </trkpt>
      <trkpt lat="47.812216021120548" lon="7.558897007256746">
        <ele>225.09</ele>
        <time>2025-04-23T08:21:56Z</time>
      </trkpt>
      <trkpt lat="47.812152989208698" lon="7.558903964236379">
        <ele>225.09</ele>
        <time>2025-04-23T08:21:57Z</time>
      </trkpt>
      <trkpt lat="47.812102027237415" lon="7.558909999206662">
        <ele>225.09</ele>
        <time>2025-04-23T08:21:58Z</time>
      </trkpt>
      <trkpt lat="47.812024997547269" lon="7.558832969516516">
        <ele>225.09</ele>
        <time>2025-04-23T08:21:59Z</time>
      </trkpt>
      <trkpt lat="47.812004964798689" lon="7.558769015595317">
        <ele>225.09</ele>
        <time>2025-04-23T08:22:00Z</time>
      </trkpt>
      <trkpt lat="47.811988033354282" lon="7.55871101282537">
        <ele>224.61000000000001</ele>
        <time>2025-04-23T08:22:01Z</time>
      </trkpt>
      <trkpt lat="47.811970012262464" lon="7.558653010055423">
        <ele>224.61000000000001</ele>
        <time>2025-04-23T08:22:02Z</time>
      </trkpt>
      <trkpt lat="47.811951991170645" lon="7.558594001457095">
        <ele>224.61000000000001</ele>
        <time>2025-04-23T08:22:03Z</time>
      </trkpt>
      <trkpt lat="47.811931036412716" lon="7.558524012565613">
        <ele>224.12</ele>
        <time>2025-04-23T08:22:04Z</time>
      </trkpt>
      <trkpt lat="47.811655020341277" lon="7.557750027626753">
        <ele>223.16</ele>
        <time>2025-04-23T08:22:13Z</time>
      </trkpt>
      <trkpt lat="47.811578996479511" lon="7.557540982961655">
        <ele>222.19999999999999</ele>
        <time>2025-04-23T08:22:20Z</time>
      </trkpt>
      <trkpt lat="47.8115329798311" lon="7.557418020442128">
        <ele>221.72</ele>
        <time>2025-04-23T08:22:23Z</time>
      </trkpt>
      <trkpt lat="47.811256041750312" lon="7.556688040494919">
        <ele>221.24000000000001</ele>
        <time>2025-04-23T08:22:29Z</time>
      </trkpt>
      <trkpt lat="47.810955969616771" lon="7.555847000330687">
        <ele>219.80000000000001</ele>
        <time>2025-04-23T08:22:35Z</time>
      </trkpt>
      <trkpt lat="47.810945995151997" lon="7.555784974247217">
        <ele>219.80000000000001</ele>
        <time>2025-04-23T08:22:36Z</time>
      </trkpt>
      <trkpt lat="47.810939960181713" lon="7.555739963427186">
        <ele>220.28</ele>
        <time>2025-04-23T08:22:37Z</time>
      </trkpt>
      <trkpt lat="47.810935014858842" lon="7.555708028376102">
        <ele>220.75999999999999</ele>
        <time>2025-04-23T08:22:38Z</time>
      </trkpt>
      <trkpt lat="47.811043979600072" lon="7.555452967062593">
        <ele>220.75999999999999</ele>
        <time>2025-04-23T08:22:39Z</time>
      </trkpt>
      <trkpt lat="47.811067029833794" lon="7.555459002032876">
        <ele>220.75999999999999</ele>
        <time>2025-04-23T08:22:40Z</time>
      </trkpt>
      <trkpt lat="47.811087984591722" lon="7.555463025346398">
        <ele>220.75999999999999</ele>
        <time>2025-04-23T08:22:41Z</time>
      </trkpt>
      <trkpt lat="47.811112040653825" lon="7.55546897649765">
        <ele>220.75999999999999</ele>
        <time>2025-04-23T08:22:42Z</time>
      </trkpt>
      <trkpt lat="47.81114699319005" lon="7.555477023124695">
        <ele>221.24000000000001</ele>
        <time>2025-04-23T08:22:43Z</time>
      </trkpt>
      <trkpt lat="47.811206001788378" lon="7.555492026731372">
        <ele>221.24000000000001</ele>
        <time>2025-04-23T08:22:44Z</time>
      </trkpt>
      <trkpt lat="47.811288982629776" lon="7.555512981489301">
        <ele>221.24000000000001</ele>
        <time>2025-04-23T08:22:45Z</time>
      </trkpt>
      <trkpt lat="47.811395013704896" lon="7.555540977045894">
        <ele>221.24000000000001</ele>
        <time>2025-04-23T08:22:46Z</time>
      </trkpt>
      <trkpt lat="47.812412995845079" lon="7.555668968707323">
        <ele>220.28</ele>
        <time>2025-04-23T08:22:53Z</time>
      </trkpt>
      <trkpt lat="47.812861008569598" lon="7.555676009505987">
        <ele>220.28</ele>
        <time>2025-04-23T08:22:56Z</time>
      </trkpt>
      <trkpt lat="47.813001992180943" lon="7.555676009505987">
        <ele>220.28</ele>
        <time>2025-04-23T08:22:57Z</time>
      </trkpt>
      <trkpt lat="47.813489986583591" lon="7.555676009505987">
        <ele>220.75999999999999</ele>
        <time>2025-04-23T08:23:02Z</time>
      </trkpt>
      <trkpt lat="47.81355201266706" lon="7.555911960080266">
        <ele>220.75999999999999</ele>
        <time>2025-04-23T08:23:03Z</time>
      </trkpt>
      <trkpt lat="47.81355201266706" lon="7.555911960080266">
        <ele>220.28</ele>
        <time>2025-04-23T08:23:04Z</time>
      </trkpt>
      <trkpt lat="47.81363901682198" lon="7.555911960080266">
        <ele>219.80000000000001</ele>
        <time>2025-04-23T08:23:08Z</time>
      </trkpt>
      <trkpt lat="47.813696013763547" lon="7.555911960080266">
        <ele>219.80000000000001</ele>
        <time>2025-04-23T08:23:20Z</time>
      </trkpt>
      <trkpt lat="47.813696013763547" lon="7.555911960080266">
        <ele>219.31999999999999</ele>
        <time>2025-04-23T08:24:01Z</time>
      </trkpt>
      <trkpt lat="47.813815036788583" lon="7.555782040581107">
        <ele>242.87</ele>
        <time>2025-04-23T08:31:16Z</time>
      </trkpt>
      <trkpt lat="47.813798021525145" lon="7.555756978690624">
        <ele>243.34999999999999</ele>
        <time>2025-04-23T08:31:57Z</time>
      </trkpt>
      <trkpt lat="47.813801039010286" lon="7.555758990347385">
        <ele>243.34999999999999</ele>
        <time>2025-04-23T08:32:34Z</time>
      </trkpt>
      <trkpt lat="47.813676986843348" lon="7.555696964263916">
        <ele>237.58000000000001</ele>
        <time>2025-04-23T08:32:52Z</time>
      </trkpt>
      <trkpt lat="47.813676986843348" lon="7.555696964263916">
        <ele>237.58000000000001</ele>
        <time>2025-04-23T08:33:22Z</time>
      </trkpt>
      <trkpt lat="47.813670029863715" lon="7.555710040032864">
        <ele>237.09999999999999</ele>
        <time>2025-04-23T08:34:00Z</time>
      </trkpt>
      <trkpt lat="47.813627030700445" lon="7.555664023384452">
        <ele>230.84999999999999</ele>
        <time>2025-04-23T08:34:09Z</time>
      </trkpt>
      <trkpt lat="47.813653014600277" lon="7.55566100589931">
        <ele>230.37</ele>
        <time>2025-04-23T08:34:10Z</time>
      </trkpt>
      <trkpt lat="47.813690984621644" lon="7.555654970929027">
        <ele>229.88999999999999</ele>
        <time>2025-04-23T08:34:11Z</time>
      </trkpt>
      <trkpt lat="47.813753010705113" lon="7.555644996464253">
        <ele>229.88999999999999</ele>
        <time>2025-04-23T08:34:12Z</time>
      </trkpt>
      <trkpt lat="47.813827022910118" lon="7.555634016171098">
        <ele>229.41</ele>
        <time>2025-04-23T08:34:13Z</time>
      </trkpt>
      <trkpt lat="47.814077977091074" lon="7.555603003129363">
        <ele>227.97</ele>
        <time>2025-04-23T08:34:16Z</time>
      </trkpt>
      <trkpt lat="47.81426003202796" lon="7.555567966774106">
        <ele>227.97</ele>
        <time>2025-04-23T08:34:17Z</time>
      </trkpt>
      <trkpt lat="47.81520701944828" lon="7.555564027279615">
        <ele>226.05000000000001</ele>
        <time>2025-04-23T08:34:27Z</time>
      </trkpt>
      <trkpt lat="47.815359989181161" lon="7.555630998685956">
        <ele>226.05000000000001</ele>
        <time>2025-04-23T08:34:29Z</time>
      </trkpt>
      <trkpt lat="47.815426038578153" lon="7.55566000007093">
        <ele>225.56999999999999</ele>
        <time>2025-04-23T08:34:30Z</time>
      </trkpt>
      <trkpt lat="47.815475994721055" lon="7.555777011439204">
        <ele>225.56999999999999</ele>
        <time>2025-04-23T08:34:31Z</time>
      </trkpt>
      <trkpt lat="47.815483035519719" lon="7.555825961753726">
        <ele>226.05000000000001</ele>
        <time>2025-04-23T08:34:32Z</time>
      </trkpt>
      <trkpt lat="47.815471971407533" lon="7.556002987548709">
        <ele>226.05000000000001</ele>
        <time>2025-04-23T08:34:33Z</time>
      </trkpt>
      <trkpt lat="47.81546400859952" lon="7.556129973381758">
        <ele>226.53</ele>
        <time>2025-04-23T08:34:34Z</time>
      </trkpt>
      <trkpt lat="47.815429978072643" lon="7.556228041648865">
        <ele>227.00999999999999</ele>
        <time>2025-04-23T08:34:35Z</time>
      </trkpt>
      <trkpt lat="47.815373986959457" lon="7.556333988904953">
        <ele>227.49000000000001</ele>
        <time>2025-04-23T08:34:36Z</time>
      </trkpt>
      <trkpt lat="47.81531497836113" lon="7.556443037465215">
        <ele>227.49000000000001</ele>
        <time>2025-04-23T08:34:37Z</time>
      </trkpt>
      <trkpt lat="47.815256975591183" lon="7.556553008034825">
        <ele>227.97</ele>
        <time>2025-04-23T08:34:38Z</time>
      </trkpt>
      <trkpt lat="47.815139964222908" lon="7.556772027164698">
        <ele>228.93000000000001</ele>
        <time>2025-04-23T08:34:40Z</time>
      </trkpt>
      <trkpt lat="47.815021025016904" lon="7.556819971650839">
        <ele>228.93000000000001</ele>
        <time>2025-04-23T08:34:41Z</time>
      </trkpt>
      <trkpt lat="47.814932009205222" lon="7.556826006621122">
        <ele>229.41</ele>
        <time>2025-04-23T08:34:42Z</time>
      </trkpt>
      <trkpt lat="47.81484198756516" lon="7.556832041591406">
        <ele>229.41</ele>
        <time>2025-04-23T08:34:43Z</time>
      </trkpt>
      <trkpt lat="47.814750960096717" lon="7.556788036599755">
        <ele>229.41</ele>
        <time>2025-04-23T08:34:44Z</time>
      </trkpt>
      <trkpt lat="47.814664039760828" lon="7.556728022173047">
        <ele>228.93000000000001</ele>
        <time>2025-04-23T08:34:45Z</time>
      </trkpt>
      <trkpt lat="47.814578963443637" lon="7.556669013574719">
        <ele>228.93000000000001</ele>
        <time>2025-04-23T08:34:46Z</time>
      </trkpt>
      <trkpt lat="47.814500005915761" lon="7.556525012478232">
        <ele>228.44999999999999</ele>
        <time>2025-04-23T08:34:47Z</time>
      </trkpt>
      <trkpt lat="47.814461030066013" lon="7.556404983624816">
        <ele>228.44999999999999</ele>
        <time>2025-04-23T08:34:48Z</time>
      </trkpt>
      <trkpt lat="47.814423982053995" lon="7.55628202110529">
        <ele>227.97</ele>
        <time>2025-04-23T08:34:49Z</time>
      </trkpt>
      <trkpt lat="47.814209992066026" lon="7.555523961782455">
        <ele>227.97</ele>
        <time>2025-04-23T08:34:55Z</time>
      </trkpt>
      <trkpt lat="47.814199011772871" lon="7.555419020354748">
        <ele>227.97</ele>
        <time>2025-04-23T08:34:56Z</time>
      </trkpt>
      <trkpt lat="47.814189959317446" lon="7.555326987057924">
        <ele>227.97</ele>
        <time>2025-04-23T08:34:57Z</time>
      </trkpt>
      <trkpt lat="47.81426003202796" lon="7.555138980969787">
        <ele>227.97</ele>
        <time>2025-04-23T08:34:58Z</time>
      </trkpt>
      <trkpt lat="47.814265983179212" lon="7.555125989019871">
        <ele>227.49000000000001</ele>
        <time>2025-04-23T08:34:59Z</time>
      </trkpt>
      <trkpt lat="47.81430403701961" lon="7.55503797903657">
        <ele>227.49000000000001</ele>
        <time>2025-04-23T08:35:00Z</time>
      </trkpt>
      <trkpt lat="47.814307976514101" lon="7.55493002012372">
        <ele>227.00999999999999</ele>
        <time>2025-04-23T08:35:01Z</time>
      </trkpt>
      <trkpt lat="47.81428299844265" lon="7.554834969341755">
        <ele>226.53</ele>
        <time>2025-04-23T08:35:02Z</time>
      </trkpt>
      <trkpt lat="47.81426003202796" lon="7.554752994328737">
        <ele>225.56999999999999</ele>
        <time>2025-04-23T08:35:03Z</time>
      </trkpt>
      <trkpt lat="47.81417696736753" lon="7.554741008207202">
        <ele>225.09</ele>
        <time>2025-04-23T08:35:04Z</time>
      </trkpt>
      <trkpt lat="47.814070014283061" lon="7.554632965475321">
        <ele>224.61000000000001</ele>
        <time>2025-04-23T08:35:05Z</time>
      </trkpt>
      <trkpt lat="47.814040007069707" lon="7.554487958550453">
        <ele>224.61000000000001</ele>
        <time>2025-04-23T08:35:06Z</time>
      </trkpt>
      <trkpt lat="47.814017040655017" lon="7.554331971332431">
        <ele>224.61000000000001</ele>
        <time>2025-04-23T08:35:07Z</time>
      </trkpt>
      <trkpt lat="47.814001031219959" lon="7.554168021306396">
        <ele>224.61000000000001</ele>
        <time>2025-04-23T08:35:08Z</time>
      </trkpt>
      <trkpt lat="47.813984015956521" lon="7.553994012996554">
        <ele>225.09</ele>
        <time>2025-04-23T08:35:09Z</time>
      </trkpt>
      <trkpt lat="47.813970018178225" lon="7.5538120418787">
        <ele>225.09</ele>
        <time>2025-04-23T08:35:10Z</time>
      </trkpt>
      <trkpt lat="47.813975969329476" lon="7.551995012909174">
        <ele>228.44999999999999</ele>
        <time>2025-04-23T08:35:21Z</time>
      </trkpt>
      <trkpt lat="47.814060961827636" lon="7.551241982728243">
        <ele>228.93000000000001</ele>
        <time>2025-04-23T08:35:27Z</time>
      </trkpt>
      <trkpt lat="47.814073031768203" lon="7.551139974966645">
        <ele>228.44999999999999</ele>
        <time>2025-04-23T08:35:28Z</time>
      </trkpt>
      <trkpt lat="47.81408803537488" lon="7.55101902410388">
        <ele>228.44999999999999</ele>
        <time>2025-04-23T08:35:29Z</time>
      </trkpt>
      <trkpt lat="47.814092980697751" lon="7.550997985526919">
        <ele>228.44999999999999</ele>
        <time>2025-04-23T08:35:30Z</time>
      </trkpt>
      <trkpt lat="47.814170010387897" lon="7.550911987200379">
        <ele>227.97</ele>
        <time>2025-04-23T08:35:31Z</time>
      </trkpt>
      <trkpt lat="47.81421703286469" lon="7.550911987200379">
        <ele>227.97</ele>
        <time>2025-04-23T08:35:32Z</time>
      </trkpt>
      <trkpt lat="47.81428299844265" lon="7.550907963886857">
        <ele>227.97</ele>
        <time>2025-04-23T08:35:33Z</time>
      </trkpt>
      <trkpt lat="47.814318034797907" lon="7.550830012187362">
        <ele>227.97</ele>
        <time>2025-04-23T08:35:34Z</time>
      </trkpt>
      <trkpt lat="47.814352987334132" lon="7.550750970840454">
        <ele>227.97</ele>
        <time>2025-04-23T08:35:35Z</time>
      </trkpt>
      <trkpt lat="47.814343012869358" lon="7.550644017755985">
        <ele>227.97</ele>
        <time>2025-04-23T08:35:36Z</time>
      </trkpt>
      <trkpt lat="47.814317028969526" lon="7.550567993894219">
        <ele>227.97</ele>
        <time>2025-04-23T08:35:37Z</time>
      </trkpt>
      <trkpt lat="47.814279980957508" lon="7.550514014437795">
        <ele>227.97</ele>
        <time>2025-04-23T08:35:38Z</time>
      </trkpt>
      <trkpt lat="47.814232036471367" lon="7.550489958375692">
        <ele>227.97</ele>
        <time>2025-04-23T08:35:39Z</time>
      </trkpt>
      <trkpt lat="47.814181996509433" lon="7.550464980304241">
        <ele>227.49000000000001</ele>
        <time>2025-04-23T08:35:40Z</time>
      </trkpt>
      <trkpt lat="47.814148971810937" lon="7.550487024709582">
        <ele>227.49000000000001</ele>
        <time>2025-04-23T08:35:41Z</time>
      </trkpt>
      <trkpt lat="47.814105972647667" lon="7.550530023872852">
        <ele>227.00999999999999</ele>
        <time>2025-04-23T08:35:42Z</time>
      </trkpt>
      <trkpt lat="47.814045958220959" lon="7.550590038299561">
        <ele>227.00999999999999</ele>
        <time>2025-04-23T08:35:43Z</time>
      </trkpt>
      <trkpt lat="47.814040007069707" lon="7.550617028027773">
        <ele>227.00999999999999</ele>
        <time>2025-04-23T08:35:44Z</time>
      </trkpt>
      <trkpt lat="47.814023997634649" lon="7.550694979727268">
        <ele>226.53</ele>
        <time>2025-04-23T08:35:45Z</time>
      </trkpt>
      <trkpt lat="47.814052999019623" lon="7.550769997760654">
        <ele>226.53</ele>
        <time>2025-04-23T08:35:46Z</time>
      </trkpt>
      <trkpt lat="47.814079988747835" lon="7.550836969166994">
        <ele>226.53</ele>
        <time>2025-04-23T08:35:47Z</time>
      </trkpt>
      <trkpt lat="47.814113013446331" lon="7.550911987200379">
        <ele>226.05000000000001</ele>
        <time>2025-04-23T08:35:48Z</time>
      </trkpt>
      <trkpt lat="47.814161963760853" lon="7.550911987200379">
        <ele>225.56999999999999</ele>
        <time>2025-04-23T08:35:49Z</time>
      </trkpt>
      <trkpt lat="47.8142199665308" lon="7.550911987200379">
        <ele>226.05000000000001</ele>
        <time>2025-04-23T08:35:50Z</time>
      </trkpt>
      <trkpt lat="47.814271012321115" lon="7.550911987200379">
        <ele>225.56999999999999</ele>
        <time>2025-04-23T08:35:51Z</time>
      </trkpt>
      <trkpt lat="47.814281992614269" lon="7.550911987200379">
        <ele>226.05000000000001</ele>
        <time>2025-04-23T08:35:52Z</time>
      </trkpt>
      <trkpt lat="47.814281992614269" lon="7.550911987200379">
        <ele>226.05000000000001</ele>
        <time>2025-04-23T08:35:53Z</time>
      </trkpt>
      <trkpt lat="47.814466981217265" lon="7.550805034115911">
        <ele>226.05000000000001</ele>
        <time>2025-04-23T08:35:54Z</time>
      </trkpt>
      <trkpt lat="47.814534958451986" lon="7.550863958895207">
        <ele>225.56999999999999</ele>
        <time>2025-04-23T08:35:55Z</time>
      </trkpt>
      <trkpt lat="47.814618023112416" lon="7.55093595944345">
        <ele>225.56999999999999</ele>
        <time>2025-04-23T08:35:56Z</time>
      </trkpt>
      <trkpt lat="47.814707038924098" lon="7.551022041589022">
        <ele>225.09</ele>
        <time>2025-04-23T08:35:57Z</time>
      </trkpt>
      <trkpt lat="47.814793959259987" lon="7.551137041300535">
        <ele>224.12</ele>
        <time>2025-04-23T08:35:59Z</time>
      </trkpt>
      <trkpt lat="47.815055977553129" lon="7.551573989912868">
        <ele>223.63999999999999</ele>
        <time>2025-04-23T08:36:01Z</time>
      </trkpt>
      <trkpt lat="47.815130995586514" lon="7.551749004051089">
        <ele>223.16</ele>
        <time>2025-04-23T08:36:02Z</time>
      </trkpt>
      <trkpt lat="47.815187992528081" lon="7.551937010139227">
        <ele>222.68000000000001</ele>
        <time>2025-04-23T08:36:03Z</time>
      </trkpt>
      <trkpt lat="47.815244989469647" lon="7.552127027884126">
        <ele>222.19999999999999</ele>
        <time>2025-04-23T08:36:04Z</time>
      </trkpt>
      <trkpt lat="47.815276002511382" lon="7.552326014265418">
        <ele>221.72</ele>
        <time>2025-04-23T08:36:05Z</time>
      </trkpt>
      <trkpt lat="47.815302992239594" lon="7.552507985383272">
        <ele>220.75999999999999</ele>
        <time>2025-04-23T08:36:06Z</time>
      </trkpt>
      <trkpt lat="47.815297041088343" lon="7.552690962329507">
        <ele>220.28</ele>
        <time>2025-04-23T08:36:07Z</time>
      </trkpt>
      <trkpt lat="47.815277008339763" lon="7.552858013659716">
        <ele>218.84</ele>
        <time>2025-04-23T08:36:09Z</time>
      </trkpt>
      <trkpt lat="47.815140970051289" lon="7.553120031952858">
        <ele>218.36000000000001</ele>
        <time>2025-04-23T08:36:10Z</time>
      </trkpt>
      <trkpt lat="47.815044997259974" lon="7.553208963945508">
        <ele>217.88</ele>
        <time>2025-04-23T08:36:11Z</time>
      </trkpt>
      <trkpt lat="47.814929997548461" lon="7.553261015564203">
        <ele>216.91</ele>
        <time>2025-04-23T08:36:12Z</time>
      </trkpt>
      <trkpt lat="47.814808962866664" lon="7.553256992250681">
        <ele>216.43000000000001</ele>
        <time>2025-04-23T08:36:13Z</time>
      </trkpt>
      <trkpt lat="47.814693041145802" lon="7.553236959502101">
        <ele>216.43000000000001</ele>
        <time>2025-04-23T08:36:14Z</time>
      </trkpt>
      <trkpt lat="47.814568988978863" lon="7.553217010572553">
        <ele>215.94999999999999</ele>
        <time>2025-04-23T08:36:15Z</time>
      </trkpt>
      <trkpt lat="47.814421970397234" lon="7.553140986710787">
        <ele>215.47</ele>
        <time>2025-04-23T08:36:16Z</time>
      </trkpt>
      <trkpt lat="47.81383397988975" lon="7.552734967321158">
        <ele>215.47</ele>
        <time>2025-04-23T08:36:20Z</time>
      </trkpt>
      <trkpt lat="47.813657037913799" lon="7.552624996751547">
        <ele>215.94999999999999</ele>
        <time>2025-04-23T08:36:21Z</time>
      </trkpt>
      <trkpt lat="47.812177967280149" lon="7.551498971879482">
        <ele>214.99000000000001</ele>
        <time>2025-04-23T08:36:29Z</time>
      </trkpt>
      <trkpt lat="47.809602040797472" lon="7.549656964838505">
        <ele>214.03</ele>
        <time>2025-04-23T08:36:41Z</time>
      </trkpt>
      <trkpt lat="47.807240020483732" lon="7.547996006906033">
        <ele>211.63</ele>
        <time>2025-04-23T08:36:52Z</time>
      </trkpt>
      <trkpt lat="47.804329991340637" lon="7.546074958518148">
        <ele>212.11000000000001</ele>
        <time>2025-04-23T08:37:05Z</time>
      </trkpt>
      <trkpt lat="47.800240041688085" lon="7.54350196570158">
        <ele>213.06999999999999</ele>
        <time>2025-04-23T08:37:23Z</time>
      </trkpt>
      <trkpt lat="47.796727018430829" lon="7.541538001969457">
        <ele>214.03</ele>
        <time>2025-04-23T08:37:38Z</time>
      </trkpt>
      <trkpt lat="47.793760998174548" lon="7.539990032091737">
        <ele>216.43000000000001</ele>
        <time>2025-04-23T08:37:51Z</time>
      </trkpt>
      <trkpt lat="47.790489038452506" lon="7.538448013365269">
        <ele>216.91</ele>
        <time>2025-04-23T08:38:06Z</time>
      </trkpt>
      <trkpt lat="47.7894670329988" lon="7.538010980933905">
        <ele>216.43000000000001</ele>
        <time>2025-04-23T08:38:13Z</time>
      </trkpt>
      <trkpt lat="47.789160003885627" lon="7.537881983444095">
        <ele>216.43000000000001</ele>
        <time>2025-04-23T08:38:19Z</time>
      </trkpt>
      <trkpt lat="47.789160003885627" lon="7.537881983444095">
        <ele>216.43000000000001</ele>
        <time>2025-04-23T08:38:52Z</time>
      </trkpt>
      <trkpt lat="47.789160003885627" lon="7.537881983444095">
        <ele>217.40000000000001</ele>
        <time>2025-04-23T08:39:42Z</time>
      </trkpt>
      <trkpt lat="47.788907960057259" lon="7.537776036188006">
        <ele>217.88</ele>
        <time>2025-04-23T08:39:57Z</time>
      </trkpt>
      <trkpt lat="47.788130035623908" lon="7.537492979317904">
        <ele>218.36000000000001</ele>
        <time>2025-04-23T08:40:04Z</time>
      </trkpt>
      <trkpt lat="47.787996008992195" lon="7.537446962669492">
        <ele>218.36000000000001</ele>
        <time>2025-04-23T08:40:05Z</time>
      </trkpt>
      <trkpt lat="47.787857037037611" lon="7.537400024011731">
        <ele>218.36000000000001</ele>
        <time>2025-04-23T08:40:06Z</time>
      </trkpt>
      <trkpt lat="47.786507969722152" lon="7.536959974095225">
        <ele>218.84</ele>
        <time>2025-04-23T08:40:14Z</time>
      </trkpt>
      <trkpt lat="47.784334039315581" lon="7.536380030214787">
        <ele>220.28</ele>
        <time>2025-04-23T08:40:24Z</time>
      </trkpt>
      <trkpt lat="47.781402971595526" lon="7.535896981135011">
        <ele>217.88</ele>
        <time>2025-04-23T08:40:36Z</time>
      </trkpt>
      <trkpt lat="47.779142037034035" lon="7.535738982260227">
        <ele>217.40000000000001</ele>
        <time>2025-04-23T08:40:46Z</time>
      </trkpt>
      <trkpt lat="47.778391018509865" lon="7.535621970891953">
        <ele>216.91</ele>
        <time>2025-04-23T08:40:51Z</time>
      </trkpt>
      <trkpt lat="47.777649974450469" lon="7.535275965929031">
        <ele>216.91</ele>
        <time>2025-04-23T08:40:54Z</time>
      </trkpt>
      <trkpt lat="47.777461968362331" lon="7.535147974267602">
        <ele>216.91</ele>
        <time>2025-04-23T08:40:55Z</time>
      </trkpt>
      <trkpt lat="47.777270022779703" lon="7.53501595929265">
        <ele>217.40000000000001</ele>
        <time>2025-04-23T08:40:56Z</time>
      </trkpt>
      <trkpt lat="47.777098026126623" lon="7.53484396263957">
        <ele>217.88</ele>
        <time>2025-04-23T08:40:57Z</time>
      </trkpt>
      <trkpt lat="47.776932986453176" lon="7.534645982086659">
        <ele>218.36000000000001</ele>
        <time>2025-04-23T08:40:58Z</time>
      </trkpt>
      <trkpt lat="47.776784040033817" lon="7.53443400375545">
        <ele>218.84</ele>
        <time>2025-04-23T08:40:59Z</time>
      </trkpt>
      <trkpt lat="47.776637021452188" lon="7.534209033474326">
        <ele>219.80000000000001</ele>
        <time>2025-04-23T08:41:00Z</time>
      </trkpt>
      <trkpt lat="47.776506012305617" lon="7.533977022394538">
        <ele>220.75999999999999</ele>
        <time>2025-04-23T08:41:01Z</time>
      </trkpt>
      <trkpt lat="47.776382965967059" lon="7.533717015758157">
        <ele>221.72</ele>
        <time>2025-04-23T08:41:02Z</time>
      </trkpt>
      <trkpt lat="47.776260003447533" lon="7.533456003293395">
        <ele>222.68000000000001</ele>
        <time>2025-04-23T08:41:03Z</time>
      </trkpt>
      <trkpt lat="47.775779971852899" lon="7.531636962667108">
        <ele>226.05000000000001</ele>
        <time>2025-04-23T08:41:09Z</time>
      </trkpt>
      <trkpt lat="47.775638988241553" lon="7.528371037915349">
        <ele>230.37</ele>
        <time>2025-04-23T08:41:19Z</time>
      </trkpt>
      <trkpt lat="47.775728004053235" lon="7.524799006059766">
        <ele>233.25999999999999</ele>
        <time>2025-04-23T08:41:30Z</time>
      </trkpt>
      <trkpt lat="47.775882985442877" lon="7.520845010876656">
        <ele>234.22</ele>
        <time>2025-04-23T08:41:42Z</time>
      </trkpt>
      <trkpt lat="47.77616897597909" lon="7.516953041777015">
        <ele>231.33000000000001</ele>
        <time>2025-04-23T08:41:53Z</time>
      </trkpt>
      <trkpt lat="47.776783034205437" lon="7.512314999476075">
        <ele>227.97</ele>
        <time>2025-04-23T08:42:05Z</time>
      </trkpt>
      <trkpt lat="47.777488958090544" lon="7.508717989549041">
        <ele>227.49000000000001</ele>
        <time>2025-04-23T08:42:15Z</time>
      </trkpt>
      <trkpt lat="47.778428988531232" lon="7.504432993009687">
        <ele>227.97</ele>
        <time>2025-04-23T08:42:29Z</time>
      </trkpt>
      <trkpt lat="47.779241027310491" lon="7.50067999586463">
        <ele>230.84999999999999</ele>
        <time>2025-04-23T08:42:41Z</time>
      </trkpt>
      <trkpt lat="47.780123976990581" lon="7.496603960171342">
        <ele>231.81</ele>
        <time>2025-04-23T08:42:53Z</time>
      </trkpt>
      <trkpt lat="47.780955964699388" lon="7.492724983021617">
        <ele>233.25999999999999</ele>
        <time>2025-04-23T08:43:04Z</time>
      </trkpt>
      <trkpt lat="47.782047959044576" lon="7.487759040668607">
        <ele>232.30000000000001</ele>
        <time>2025-04-23T08:43:17Z</time>
      </trkpt>
      <trkpt lat="47.783203991129994" lon="7.482491014525294">
        <ele>229.88999999999999</ele>
        <time>2025-04-23T08:43:31Z</time>
      </trkpt>
      <trkpt lat="47.784227002412081" lon="7.477740989997983">
        <ele>229.88999999999999</ele>
        <time>2025-04-23T08:43:43Z</time>
      </trkpt>
      <trkpt lat="47.785264011472464" lon="7.472932040691376">
        <ele>229.88999999999999</ele>
        <time>2025-04-23T08:43:55Z</time>
      </trkpt>
      <trkpt lat="47.786630010232329" lon="7.466115960851312">
        <ele>229.88999999999999</ele>
        <time>2025-04-23T08:44:12Z</time>
      </trkpt>
      <trkpt lat="47.787311961874366" lon="7.462494978681207">
        <ele>229.41</ele>
        <time>2025-04-23T08:44:21Z</time>
      </trkpt>
      <trkpt lat="47.78809298761189" lon="7.458022981882095">
        <ele>230.84999999999999</ele>
        <time>2025-04-23T08:44:32Z</time>
      </trkpt>
      <trkpt lat="47.788614006713033" lon="7.454759990796447">
        <ele>231.33000000000001</ele>
        <time>2025-04-23T08:44:40Z</time>
      </trkpt>
      <trkpt lat="47.78951003216207" lon="7.448611026629806">
        <ele>230.37</ele>
        <time>2025-04-23T08:44:55Z</time>
      </trkpt>
      <trkpt lat="47.789966007694602" lon="7.444049008190632">
        <ele>227.49000000000001</ele>
        <time>2025-04-23T08:45:06Z</time>
      </trkpt>
      <trkpt lat="47.790142027661204" lon="7.440274972468615">
        <ele>224.12</ele>
        <time>2025-04-23T08:45:15Z</time>
      </trkpt>
      <trkpt lat="47.79004798270762" lon="7.436077985912561">
        <ele>225.09</ele>
        <time>2025-04-23T08:45:25Z</time>
      </trkpt>
      <trkpt lat="47.78959502466023" lon="7.431515967473388">
        <ele>224.61000000000001</ele>
        <time>2025-04-23T08:45:36Z</time>
      </trkpt>
      <trkpt lat="47.788724983111024" lon="7.426666030660272">
        <ele>225.09</ele>
        <time>2025-04-23T08:45:48Z</time>
      </trkpt>
      <trkpt lat="47.787360996007919" lon="7.42163697257638">
        <ele>225.09</ele>
        <time>2025-04-23T08:46:01Z</time>
      </trkpt>
      <trkpt lat="47.786496989428997" lon="7.419002037495375">
        <ele>225.56999999999999</ele>
        <time>2025-04-23T08:46:15Z</time>
      </trkpt>
      <trkpt lat="47.783597018569708" lon="7.410835968330503">
        <ele>226.05000000000001</ele>
        <time>2025-04-23T08:46:30Z</time>
      </trkpt>
      <trkpt lat="47.781492993235588" lon="7.404927983880043">
        <ele>227.00999999999999</ele>
        <time>2025-04-23T08:46:46Z</time>
      </trkpt>
      <trkpt lat="47.780575007200241" lon="7.402387009933591">
        <ele>229.41</ele>
        <time>2025-04-23T08:46:53Z</time>
      </trkpt>
      <trkpt lat="47.780336039140821" lon="7.401696005836129">
        <ele>229.88999999999999</ele>
        <time>2025-04-23T08:46:55Z</time>
      </trkpt>
      <trkpt lat="47.780219027772546" lon="7.401357041671872">
        <ele>230.37</ele>
        <time>2025-04-23T08:46:56Z</time>
      </trkpt>
      <trkpt lat="47.778816986829042" lon="7.397496001794934">
        <ele>231.81</ele>
        <time>2025-04-23T08:47:07Z</time>
      </trkpt>
      <trkpt lat="47.776796026155353" lon="7.391873002052307">
        <ele>232.78</ele>
        <time>2025-04-23T08:47:23Z</time>
      </trkpt>
      <trkpt lat="47.77507496997714" lon="7.386937988922">
        <ele>235.66</ele>
        <time>2025-04-23T08:47:37Z</time>
      </trkpt>
      <trkpt lat="47.773683993145823" lon="7.382212020456791">
        <ele>235.66</ele>
        <time>2025-04-23T08:47:50Z</time>
      </trkpt>
      <trkpt lat="47.773229023441672" lon="7.379946978762746">
        <ele>236.62</ele>
        <time>2025-04-23T08:48:03Z</time>
      </trkpt>
      <trkpt lat="47.772810012102127" lon="7.376835029572249">
        <ele>236.62</ele>
        <time>2025-04-23T08:48:11Z</time>
      </trkpt>
      <trkpt lat="47.772705992683768" lon="7.369695995002985">
        <ele>237.09999999999999</ele>
        <time>2025-04-23T08:48:22Z</time>
      </trkpt>
      <trkpt lat="47.773203961551189" lon="7.365373028442264">
        <ele>239.50999999999999</ele>
        <time>2025-04-23T08:48:33Z</time>
      </trkpt>
      <trkpt lat="47.774136029183865" lon="7.359575014561415">
        <ele>241.43000000000001</ele>
        <time>2025-04-23T08:48:48Z</time>
      </trkpt>
      <trkpt lat="47.774298973381519" lon="7.355639962479472">
        <ele>239.02000000000001</ele>
        <time>2025-04-23T08:48:58Z</time>
      </trkpt>
      <trkpt lat="47.774024968966842" lon="7.352100033313036">
        <ele>238.53999999999999</ele>
        <time>2025-04-23T08:49:07Z</time>
      </trkpt>
      <trkpt lat="47.773200022056699" lon="7.347919978201389">
        <ele>239.02000000000001</ele>
        <time>2025-04-23T08:49:18Z</time>
      </trkpt>
      <trkpt lat="47.772071985527873" lon="7.344749020412564">
        <ele>239.50999999999999</ele>
        <time>2025-04-23T08:49:27Z</time>
      </trkpt>
      <trkpt lat="47.770448997616768" lon="7.341597005724907">
        <ele>239.02000000000001</ele>
        <time>2025-04-23T08:49:37Z</time>
      </trkpt>
      <trkpt lat="47.768790973350406" lon="7.339028958231211">
        <ele>238.53999999999999</ele>
        <time>2025-04-23T08:49:46Z</time>
      </trkpt>
      <trkpt lat="47.766563985496759" lon="7.335045961663127">
        <ele>239.02000000000001</ele>
        <time>2025-04-23T08:49:59Z</time>
      </trkpt>
      <trkpt lat="47.765336036682129" lon="7.331524975597858">
        <ele>238.06</ele>
        <time>2025-04-23T08:50:09Z</time>
      </trkpt>
      <trkpt lat="47.765244003385305" lon="7.331150975078344">
        <ele>238.06</ele>
        <time>2025-04-23T08:50:17Z</time>
      </trkpt>
      <trkpt lat="47.764697000384331" lon="7.328502964228392">
        <ele>237.09999999999999</ele>
        <time>2025-04-23T08:50:24Z</time>
      </trkpt>
      <trkpt lat="47.7637729793787" lon="7.320694969967008">
        <ele>236.62</ele>
        <time>2025-04-23T08:50:37Z</time>
      </trkpt>
      <trkpt lat="47.762863961979747" lon="7.317387973889709">
        <ele>237.58000000000001</ele>
        <time>2025-04-23T08:50:46Z</time>
      </trkpt>
      <trkpt lat="47.761291014030576" lon="7.313673030585051">
        <ele>236.13999999999999</ele>
        <time>2025-04-23T08:50:57Z</time>
      </trkpt>
      <trkpt lat="47.75943199172616" lon="7.309771003201604">
        <ele>236.62</ele>
        <time>2025-04-23T08:51:09Z</time>
      </trkpt>
      <trkpt lat="47.758025005459785" lon="7.305946005508304">
        <ele>239.02000000000001</ele>
        <time>2025-04-23T08:51:20Z</time>
      </trkpt>
      <trkpt lat="47.756885988637805" lon="7.301502004265785">
        <ele>241.43000000000001</ele>
        <time>2025-04-23T08:51:32Z</time>
      </trkpt>
      <trkpt lat="47.755835987627506" lon="7.297448012977839">
        <ele>245.75</ele>
        <time>2025-04-23T08:51:43Z</time>
      </trkpt>
      <trkpt lat="47.754357000812888" lon="7.293661991134286">
        <ele>250.56</ele>
        <time>2025-04-23T08:51:54Z</time>
      </trkpt>
      <trkpt lat="47.752596968784928" lon="7.289664996787906">
        <ele>253.93000000000001</ele>
        <time>2025-04-23T08:52:06Z</time>
      </trkpt>
      <trkpt lat="47.750203013420105" lon="7.283914005383849">
        <ele>252</ele>
        <time>2025-04-23T08:52:23Z</time>
      </trkpt>
      <trkpt lat="47.748522022739053" lon="7.279390962794423">
        <ele>252.47999999999999</ele>
        <time>2025-04-23T08:52:36Z</time>
      </trkpt>
      <trkpt lat="47.747157029807568" lon="7.275090040639043">
        <ele>255.37</ele>
        <time>2025-04-23T08:52:48Z</time>
      </trkpt>
      <trkpt lat="47.745999991893768" lon="7.27074502967298">
        <ele>258.25</ele>
        <time>2025-04-23T08:53:00Z</time>
      </trkpt>
      <trkpt lat="47.745265988633037" lon="7.267568036913872">
        <ele>259.69</ele>
        <time>2025-04-23T08:53:09Z</time>
      </trkpt>
      <trkpt lat="47.745189964771271" lon="7.267180038616061">
        <ele>259.20999999999998</ele>
        <time>2025-04-23T08:53:10Z</time>
      </trkpt>
      <trkpt lat="47.744334004819393" lon="7.262666970491409">
        <ele>259.69</ele>
        <time>2025-04-23T08:53:22Z</time>
      </trkpt>
      <trkpt lat="47.743407972157001" lon="7.256066976115108">
        <ele>262.10000000000002</ele>
        <time>2025-04-23T08:53:39Z</time>
      </trkpt>
      <trkpt lat="47.742773965001106" lon="7.250195033848286">
        <ele>264.98000000000002</ele>
        <time>2025-04-23T08:53:54Z</time>
      </trkpt>
      <trkpt lat="47.742181029170752" lon="7.244699019938707">
        <ele>265.45999999999998</ele>
        <time>2025-04-23T08:54:08Z</time>
      </trkpt>
      <trkpt lat="47.741632014513016" lon="7.239611959084868">
        <ele>266.89999999999998</ele>
        <time>2025-04-23T08:54:21Z</time>
      </trkpt>
      <trkpt lat="47.741207974031568" lon="7.236092984676361">
        <ele>265.45999999999998</ele>
        <time>2025-04-23T08:54:30Z</time>
      </trkpt>
      <trkpt lat="47.740638004615903" lon="7.231800025328994">
        <ele>264.98000000000002</ele>
        <time>2025-04-23T08:54:41Z</time>
      </trkpt>
      <trkpt lat="47.739794030785561" lon="7.226792005822063">
        <ele>267.38</ele>
        <time>2025-04-23T08:54:54Z</time>
      </trkpt>
      <trkpt lat="47.738531967625022" lon="7.220735996961594">
        <ele>273.63</ele>
        <time>2025-04-23T08:55:10Z</time>
      </trkpt>
      <trkpt lat="47.737347017973661" lon="7.215888993814588">
        <ele>276.51999999999998</ele>
        <time>2025-04-23T08:55:23Z</time>
      </trkpt>
      <trkpt lat="47.735903989523649" lon="7.21075901761651">
        <ele>279.39999999999998</ele>
        <time>2025-04-23T08:55:37Z</time>
      </trkpt>
      <trkpt lat="47.734436988830566" lon="7.205648990347982">
        <ele>280.36000000000001</ele>
        <time>2025-04-23T08:55:51Z</time>
      </trkpt>
      <trkpt lat="47.733368966728449" lon="7.201833967119455">
        <ele>279.88</ele>
        <time>2025-04-23T08:56:02Z</time>
      </trkpt>
      <trkpt lat="47.732716016471386" lon="7.199309002608061">
        <ele>280.36000000000001</ele>
        <time>2025-04-23T08:56:09Z</time>
      </trkpt>
      <trkpt lat="47.731809010729194" lon="7.19537696801126">
        <ele>281.80000000000001</ele>
        <time>2025-04-23T08:56:20Z</time>
      </trkpt>
      <trkpt lat="47.730784993618727" lon="7.189990002661943">
        <ele>284.20999999999998</ele>
        <time>2025-04-23T08:56:35Z</time>
      </trkpt>
      <trkpt lat="47.730263974517584" lon="7.186876963824034">
        <ele>283.73000000000002</ele>
        <time>2025-04-23T08:56:44Z</time>
      </trkpt>
      <trkpt lat="47.729425029829144" lon="7.182046975940466">
        <ele>287.56999999999999</ele>
        <time>2025-04-23T08:56:58Z</time>
      </trkpt>
      <trkpt lat="47.728453986346722" lon="7.177231991663575">
        <ele>290.45999999999998</ele>
        <time>2025-04-23T08:57:12Z</time>
      </trkpt>
      <trkpt lat="47.72754798643291" lon="7.173070041462779">
        <ele>293.33999999999997</ele>
        <time>2025-04-23T08:57:25Z</time>
      </trkpt>
      <trkpt lat="47.726411987096071" lon="7.167913997545838">
        <ele>294.77999999999997</ele>
        <time>2025-04-23T08:57:41Z</time>
      </trkpt>
      <trkpt lat="47.726328000426292" lon="7.167560029774904">
        <ele>294.77999999999997</ele>
        <time>2025-04-23T08:57:42Z</time>
      </trkpt>
      <trkpt lat="47.72522795945406" lon="7.163278972730041">
        <ele>298.63</ele>
        <time>2025-04-23T08:57:55Z</time>
      </trkpt>
      <trkpt lat="47.723935972899199" lon="7.159071005880833">
        <ele>304.88</ele>
        <time>2025-04-23T08:58:09Z</time>
      </trkpt>
      <trkpt lat="47.722491016611457" lon="7.15498298406601">
        <ele>304.88</ele>
        <time>2025-04-23T08:58:23Z</time>
      </trkpt>
      <trkpt lat="47.721184026449919" lon="7.151441965252161">
        <ele>308.24000000000001</ele>
        <time>2025-04-23T08:58:36Z</time>
      </trkpt>
      <trkpt lat="47.719526002183557" lon="7.146657994017005">
        <ele>314.00999999999999</ele>
        <time>2025-04-23T08:58:53Z</time>
      </trkpt>
      <trkpt lat="47.718253964558244" lon="7.142827967181802">
        <ele>317.85000000000002</ele>
        <time>2025-04-23T08:59:06Z</time>
      </trkpt>
      <trkpt lat="47.717714002355933" lon="7.141174972057343">
        <ele>319.30000000000001</ele>
        <time>2025-04-23T08:59:13Z</time>
      </trkpt>
      <trkpt lat="47.717221984639764" lon="7.139616021886468">
        <ele>322.18000000000001</ele>
        <time>2025-04-23T08:59:23Z</time>
      </trkpt>
      <trkpt lat="47.717194994911551" lon="7.139528011903167">
        <ele>322.18000000000001</ele>
        <time>2025-04-23T08:59:24Z</time>
      </trkpt>
      <trkpt lat="47.717271018773317" lon="7.139331959187985">
        <ele>322.18000000000001</ele>
        <time>2025-04-23T08:59:25Z</time>
      </trkpt>
      <trkpt lat="47.717678966000676" lon="7.138496031984687">
        <ele>323.62</ele>
        <time>2025-04-23T08:59:35Z</time>
      </trkpt>
      <trkpt lat="47.717736968770623" lon="7.138214986771345">
        <ele>324.57999999999998</ele>
        <time>2025-04-23T08:59:39Z</time>
      </trkpt>
      <trkpt lat="47.717801006510854" lon="7.137822965160012">
        <ele>325.54000000000002</ele>
        <time>2025-04-23T08:59:46Z</time>
      </trkpt>
      <trkpt lat="47.717801006510854" lon="7.137822965160012">
        <ele>325.54000000000002</ele>
        <time>2025-04-23T09:00:20Z</time>
      </trkpt>
      <trkpt lat="47.717801006510854" lon="7.137822965160012">
        <ele>327.47000000000003</ele>
        <time>2025-04-23T09:01:13Z</time>
      </trkpt>
      <trkpt lat="47.717604031786323" lon="7.137680975720286">
        <ele>330.35000000000002</ele>
        <time>2025-04-23T09:02:54Z</time>
      </trkpt>
      <trkpt lat="47.717671003192663" lon="7.137813996523619">
        <ele>351.01999999999998</ele>
        <time>2025-04-23T09:03:01Z</time>
      </trkpt>
      <trkpt lat="47.717789020389318" lon="7.137729004025459">
        <ele>347.17000000000002</ele>
        <time>2025-04-23T09:03:03Z</time>
      </trkpt>
      <trkpt lat="47.717782985419035" lon="7.137684999033809">
        <ele>345.73000000000002</ele>
        <time>2025-04-23T09:03:04Z</time>
      </trkpt>
      <trkpt lat="47.717778040096164" lon="7.137650968506932">
        <ele>344.29000000000002</ele>
        <time>2025-04-23T09:03:05Z</time>
      </trkpt>
      <trkpt lat="47.717774016782641" lon="7.137616015970707">
        <ele>343.32999999999998</ele>
        <time>2025-04-23T09:03:06Z</time>
      </trkpt>
      <trkpt lat="47.717767981812358" lon="7.137576034292579">
        <ele>341.88999999999999</ele>
        <time>2025-04-23T09:03:07Z</time>
      </trkpt>
      <trkpt lat="47.717764964327216" lon="7.137550972402096">
        <ele>341.41000000000003</ele>
        <time>2025-04-23T09:03:08Z</time>
      </trkpt>
      <trkpt lat="47.717764964327216" lon="7.137550972402096">
        <ele>340.44</ele>
        <time>2025-04-23T09:03:09Z</time>
      </trkpt>
      <trkpt lat="47.717560026794672" lon="7.137120980769396">
        <ele>336.60000000000002</ele>
        <time>2025-04-23T09:03:15Z</time>
      </trkpt>
      <trkpt lat="47.717527002096176" lon="7.137048980221152">
        <ele>335.63999999999999</ele>
        <time>2025-04-23T09:03:16Z</time>
      </trkpt>
      <trkpt lat="47.7174929715693" lon="7.136977985501289">
        <ele>335.16000000000003</ele>
        <time>2025-04-23T09:03:17Z</time>
      </trkpt>
      <trkpt lat="47.717457013204694" lon="7.136903973296285">
        <ele>334.19999999999999</ele>
        <time>2025-04-23T09:03:18Z</time>
      </trkpt>
      <trkpt lat="47.717422982677817" lon="7.136830966919661">
        <ele>333.70999999999998</ele>
        <time>2025-04-23T09:03:19Z</time>
      </trkpt>
      <trkpt lat="47.717386018484831" lon="7.136755026876926">
        <ele>333.70999999999998</ele>
        <time>2025-04-23T09:03:20Z</time>
      </trkpt>
      <trkpt lat="47.717357017099857" lon="7.136693000793457">
        <ele>332.75</ele>
        <time>2025-04-23T09:03:22Z</time>
      </trkpt>
      <trkpt lat="47.717357017099857" lon="7.136693000793457">
        <ele>332.75</ele>
        <time>2025-04-23T09:03:23Z</time>
      </trkpt>
      <trkpt lat="47.716982010751963" lon="7.135533029213548">
        <ele>326.01999999999998</ele>
        <time>2025-04-23T09:03:32Z</time>
      </trkpt>
      <trkpt lat="47.716897018253803" lon="7.135251984000206">
        <ele>322.66000000000003</ele>
        <time>2025-04-23T09:03:35Z</time>
      </trkpt>
      <trkpt lat="47.716842032968998" lon="7.134869014844298">
        <ele>321.22000000000003</ele>
        <time>2025-04-23T09:03:37Z</time>
      </trkpt>
      <trkpt lat="47.716842032968998" lon="7.134869014844298">
        <ele>321.22000000000003</ele>
        <time>2025-04-23T09:03:38Z</time>
      </trkpt>
      <trkpt lat="47.716853013262153" lon="7.134847976267338">
        <ele>320.74000000000001</ele>
        <time>2025-04-23T09:03:39Z</time>
      </trkpt>
      <trkpt lat="47.7168919891119" lon="7.134770024567843">
        <ele>320.25999999999999</ele>
        <time>2025-04-23T09:03:40Z</time>
      </trkpt>
      <trkpt lat="47.716928031295538" lon="7.134698024019599">
        <ele>319.30000000000001</ele>
        <time>2025-04-23T09:03:41Z</time>
      </trkpt>
      <trkpt lat="47.716928031295538" lon="7.134610014036298">
        <ele>318.81</ele>
        <time>2025-04-23T09:03:42Z</time>
      </trkpt>
      <trkpt lat="47.716928031295538" lon="7.134440029039979">
        <ele>318.32999999999998</ele>
        <time>2025-04-23T09:03:43Z</time>
      </trkpt>
      <trkpt lat="47.716921996325254" lon="7.134415972977877">
        <ele>317.85000000000002</ele>
        <time>2025-04-23T09:03:44Z</time>
      </trkpt>
      <trkpt lat="47.716838009655476" lon="7.134380014613271">
        <ele>316.88999999999999</ele>
        <time>2025-04-23T09:03:45Z</time>
      </trkpt>
      <trkpt lat="47.716781012713909" lon="7.134341960772872">
        <ele>316.88999999999999</ele>
        <time>2025-04-23T09:03:46Z</time>
      </trkpt>
      <trkpt lat="47.716723009943962" lon="7.13431497104466">
        <ele>316.41000000000003</ele>
        <time>2025-04-23T09:03:47Z</time>
      </trkpt>
      <trkpt lat="47.716655032709241" lon="7.13433500379324">
        <ele>316.41000000000003</ele>
        <time>2025-04-23T09:03:48Z</time>
      </trkpt>
      <trkpt lat="47.716584037989378" lon="7.134355958551168">
        <ele>315.93000000000001</ele>
        <time>2025-04-23T09:03:49Z</time>
      </trkpt>
      <trkpt lat="47.716516982764006" lon="7.13437800295651">
        <ele>315.93000000000001</ele>
        <time>2025-04-23T09:03:50Z</time>
      </trkpt>
      <trkpt lat="47.716350015252829" lon="7.13452803902328">
        <ele>315.44999999999999</ele>
        <time>2025-04-23T09:03:54Z</time>
      </trkpt>
      <trkpt lat="47.716317996382713" lon="7.134600039571524">
        <ele>314.97000000000003</ele>
        <time>2025-04-23T09:03:55Z</time>
      </trkpt>
      <trkpt lat="47.716257981956005" lon="7.134686959907413">
        <ele>314.97000000000003</ele>
        <time>2025-04-23T09:03:56Z</time>
      </trkpt>
      <trkpt lat="47.716199979186058" lon="7.134712021797895">
        <ele>314.49000000000001</ele>
        <time>2025-04-23T09:03:57Z</time>
      </trkpt>
      <trkpt lat="47.71609403192997" lon="7.134674973785877">
        <ele>314.00999999999999</ele>
        <time>2025-04-23T09:03:58Z</time>
      </trkpt>
      <trkpt lat="47.716050026938319" lon="7.134604984894395">
        <ele>314.00999999999999</ele>
        <time>2025-04-23T09:03:59Z</time>
      </trkpt>
      <trkpt lat="47.715994035825133" lon="7.134514041244984">
        <ele>314.00999999999999</ele>
        <time>2025-04-23T09:04:00Z</time>
      </trkpt>
      <trkpt lat="47.715926980599761" lon="7.134404992684722">
        <ele>313.52999999999997</ele>
        <time>2025-04-23T09:04:01Z</time>
      </trkpt>
      <trkpt lat="47.715854980051517" lon="7.134289992973208">
        <ele>313.05000000000001</ele>
        <time>2025-04-23T09:04:02Z</time>
      </trkpt>
      <trkpt lat="47.715811980888247" lon="7.13414297439158">
        <ele>313.52999999999997</ele>
        <time>2025-04-23T09:04:03Z</time>
      </trkpt>
      <trkpt lat="47.715764036402106" lon="7.133983969688416">
        <ele>313.52999999999997</ele>
        <time>2025-04-23T09:04:04Z</time>
      </trkpt>
      <trkpt lat="47.715713996440172" lon="7.133818008005619">
        <ele>313.52999999999997</ele>
        <time>2025-04-23T09:04:05Z</time>
      </trkpt>
      <trkpt lat="47.715663034468889" lon="7.133646011352539">
        <ele>314.00999999999999</ele>
        <time>2025-04-23T09:04:06Z</time>
      </trkpt>
      <trkpt lat="47.715052999556065" lon="7.131796041503549">
        <ele>312.08999999999997</ele>
        <time>2025-04-23T09:04:16Z</time>
      </trkpt>
      <trkpt lat="47.714432990178466" lon="7.129921009764075">
        <ele>308.24000000000001</ele>
        <time>2025-04-23T09:04:24Z</time>
      </trkpt>
      <trkpt lat="47.713761013001204" lon="7.127151964232326">
        <ele>305.83999999999997</ele>
        <time>2025-04-23T09:04:33Z</time>
      </trkpt>
      <trkpt lat="47.712897006422281" lon="7.123052962124348">
        <ele>304.38999999999999</ele>
        <time>2025-04-23T09:04:45Z</time>
      </trkpt>
      <trkpt lat="47.712255958467722" lon="7.119701039046049">
        <ele>303.43000000000001</ele>
        <time>2025-04-23T09:04:55Z</time>
      </trkpt>
      <trkpt lat="47.711732005700469" lon="7.116423966363072">
        <ele>302.47000000000003</ele>
        <time>2025-04-23T09:05:04Z</time>
      </trkpt>
      <trkpt lat="47.710947040468454" lon="7.110569039359689">
        <ele>305.83999999999997</ele>
        <time>2025-04-23T09:05:19Z</time>
      </trkpt>
      <trkpt lat="47.710440019145608" lon="7.105564959347248">
        <ele>310.63999999999999</ele>
        <time>2025-04-23T09:05:32Z</time>
      </trkpt>
      <trkpt lat="47.710118992254138" lon="7.100338004529476">
        <ele>316.88999999999999</ele>
        <time>2025-04-23T09:05:46Z</time>
      </trkpt>
      <trkpt lat="47.709961999207735" lon="7.095743967220187">
        <ele>320.74000000000001</ele>
        <time>2025-04-23T09:05:58Z</time>
      </trkpt>
      <trkpt lat="47.710004998371005" lon="7.089992975816131">
        <ele>328.91000000000003</ele>
        <time>2025-04-23T09:06:13Z</time>
      </trkpt>
      <trkpt lat="47.710214965045452" lon="7.085411008447409">
        <ele>339.95999999999998</ele>
        <time>2025-04-23T09:06:25Z</time>
      </trkpt>
      <trkpt lat="47.710646968334913" lon="7.080084979534149">
        <ele>354.86000000000001</ele>
        <time>2025-04-23T09:06:39Z</time>
      </trkpt>
      <trkpt lat="47.7110880240798" lon="7.075891010463238">
        <ele>365.92000000000002</ele>
        <time>2025-04-23T09:06:50Z</time>
      </trkpt>
      <trkpt lat="47.711608959361911" lon="7.070936970412731">
        <ele>374.08999999999997</ele>
        <time>2025-04-23T09:07:03Z</time>
      </trkpt>
      <trkpt lat="47.712108017876744" lon="7.066393978893757">
        <ele>383.22000000000003</ele>
        <time>2025-04-23T09:07:15Z</time>
      </trkpt>
      <trkpt lat="47.712471038103104" lon="7.062570992857218">
        <ele>396.19999999999999</ele>
        <time>2025-04-23T09:07:25Z</time>
      </trkpt>
      <trkpt lat="47.712652003392577" lon="7.058332012966275">
        <ele>399.56999999999999</ele>
        <time>2025-04-23T09:07:36Z</time>
      </trkpt>
      <trkpt lat="47.7123779989779" lon="7.053722972050309">
        <ele>399.56999999999999</ele>
        <time>2025-04-23T09:07:48Z</time>
      </trkpt>
      <trkpt lat="47.711870977655053" lon="7.050355039536953">
        <ele>397.16000000000003</ele>
        <time>2025-04-23T09:07:57Z</time>
      </trkpt>
      <trkpt lat="47.710786024108529" lon="7.046059984713793">
        <ele>397.16000000000003</ele>
        <time>2025-04-23T09:08:09Z</time>
      </trkpt>
      <trkpt lat="47.709383983165026" lon="7.042350992560387">
        <ele>396.19999999999999</ele>
        <time>2025-04-23T09:08:20Z</time>
      </trkpt>
      <trkpt lat="47.707337960600853" lon="7.037892993539572">
        <ele>395.24000000000001</ele>
        <time>2025-04-23T09:08:34Z</time>
      </trkpt>
      <trkpt lat="47.705478016287088" lon="7.034186013042927">
        <ele>394.75999999999999</ele>
        <time>2025-04-23T09:08:46Z</time>
      </trkpt>
      <trkpt lat="47.703510029241443" lon="7.030750019475818">
        <ele>392.83999999999997</ele>
        <time>2025-04-23T09:08:58Z</time>
      </trkpt>
      <trkpt lat="47.701481021940708" lon="7.027686014771462">
        <ele>388.50999999999999</ele>
        <time>2025-04-23T09:09:11Z</time>
      </trkpt>
      <trkpt lat="47.699010036885738" lon="7.024611029773951">
        <ele>382.25999999999999</ele>
        <time>2025-04-23T09:09:26Z</time>
      </trkpt>
      <trkpt lat="47.697244975715876" lon="7.022669026628137">
        <ele>376.49000000000001</ele>
        <time>2025-04-23T09:09:37Z</time>
      </trkpt>
      <trkpt lat="47.696634018793702" lon="7.022034013643861">
        <ele>374.56999999999999</ele>
        <time>2025-04-23T09:09:43Z</time>
      </trkpt>
      <trkpt lat="47.69658800214529" lon="7.021607039496303">
        <ele>374.08999999999997</ele>
        <time>2025-04-23T09:09:46Z</time>
      </trkpt>
      <trkpt lat="47.696563024073839" lon="7.021564962342382">
        <ele>374.08999999999997</ele>
        <time>2025-04-23T09:09:47Z</time>
      </trkpt>
      <trkpt lat="47.696538968011737" lon="7.021447028964758">
        <ele>373.61000000000001</ele>
        <time>2025-04-23T09:09:48Z</time>
      </trkpt>
      <trkpt lat="47.696511978283525" lon="7.021318031474948">
        <ele>373.61000000000001</ele>
        <time>2025-04-23T09:09:49Z</time>
      </trkpt>
      <trkpt lat="47.696483982726932" lon="7.021181993186474">
        <ele>373.13</ele>
        <time>2025-04-23T09:09:50Z</time>
      </trkpt>
      <trkpt lat="47.696369988843799" lon="7.020779997110367">
        <ele>372.64999999999998</ele>
        <time>2025-04-23T09:09:53Z</time>
      </trkpt>
      <trkpt lat="47.69632900133729" lon="7.020671032369137">
        <ele>372.17000000000002</ele>
        <time>2025-04-23T09:09:54Z</time>
      </trkpt>
      <trkpt lat="47.696235040202737" lon="7.020571958273649">
        <ele>372.17000000000002</ele>
        <time>2025-04-23T09:09:55Z</time>
      </trkpt>
      <trkpt lat="47.696161027997732" lon="7.020495012402535">
        <ele>371.69</ele>
        <time>2025-04-23T09:09:56Z</time>
      </trkpt>
      <trkpt lat="47.696085004135966" lon="7.020413959398866">
        <ele>371.20999999999998</ele>
        <time>2025-04-23T09:09:57Z</time>
      </trkpt>
      <trkpt lat="47.696009986102581" lon="7.020333996042609">
        <ele>371.20999999999998</ele>
        <time>2025-04-23T09:09:58Z</time>
      </trkpt>
      <trkpt lat="47.695936979725957" lon="7.020257972180843">
        <ele>370.73000000000002</ele>
        <time>2025-04-23T09:09:59Z</time>
      </trkpt>
      <trkpt lat="47.695176992565393" lon="7.019466971978545">
        <ele>366.88</ele>
        <time>2025-04-23T09:10:10Z</time>
      </trkpt>
      <trkpt lat="47.695090994238853" lon="7.019450040534139">
        <ele>366.39999999999998</ele>
        <time>2025-04-23T09:10:11Z</time>
      </trkpt>
      <trkpt lat="47.695007007569075" lon="7.019433025270701">
        <ele>366.39999999999998</ele>
        <time>2025-04-23T09:10:12Z</time>
      </trkpt>
      <trkpt lat="47.694945987313986" lon="7.019421039149165">
        <ele>365.92000000000002</ele>
        <time>2025-04-23T09:10:13Z</time>
      </trkpt>
      <trkpt lat="47.69491002894938" lon="7.019413998350501">
        <ele>365.92000000000002</ele>
        <time>2025-04-23T09:10:14Z</time>
      </trkpt>
      <trkpt lat="47.694885972887278" lon="7.019408969208598">
        <ele>365.44</ele>
        <time>2025-04-23T09:10:15Z</time>
      </trkpt>
      <trkpt lat="47.694885972887278" lon="7.019408969208598">
        <ele>365.92000000000002</ele>
        <time>2025-04-23T09:10:26Z</time>
      </trkpt>
      <trkpt lat="47.694885972887278" lon="7.019408969208598">
        <ele>365.92000000000002</ele>
        <time>2025-04-23T09:10:32Z</time>
      </trkpt>
      <trkpt lat="47.694885972887278" lon="7.019408969208598">
        <ele>366.39999999999998</ele>
        <time>2025-04-23T09:10:33Z</time>
      </trkpt>
      <trkpt lat="47.695074984803796" lon="7.019461020827293">
        <ele>365.92000000000002</ele>
        <time>2025-04-23T09:10:42Z</time>
      </trkpt>
      <trkpt lat="47.695306995883584" lon="7.019619019702077">
        <ele>364.48000000000002</ele>
        <time>2025-04-23T09:10:48Z</time>
      </trkpt>
      <trkpt lat="47.695321999490261" lon="7.019681967794895">
        <ele>364.48000000000002</ele>
        <time>2025-04-23T09:10:51Z</time>
      </trkpt>
      <trkpt lat="47.695325016975403" lon="7.019628994166851">
        <ele>364.95999999999998</ele>
        <time>2025-04-23T09:11:00Z</time>
      </trkpt>
      <trkpt lat="47.695309007540345" lon="7.019634023308754">
        <ele>364.95999999999998</ele>
        <time>2025-04-23T09:11:01Z</time>
      </trkpt>
      <trkpt lat="47.695257961750031" lon="7.019668975844979">
        <ele>365.44</ele>
        <time>2025-04-23T09:11:16Z</time>
      </trkpt>
      <trkpt lat="47.695261985063553" lon="7.019666964188218">
        <ele>366.39999999999998</ele>
        <time>2025-04-23T09:12:11Z</time>
      </trkpt>
      <trkpt lat="47.695265002548695" lon="7.019664030522108">
        <ele>367.83999999999997</ele>
        <time>2025-04-23T09:13:11Z</time>
      </trkpt>
      <trkpt lat="47.695266008377075" lon="7.019665958359838">
        <ele>368.80000000000001</ele>
        <time>2025-04-23T09:14:06Z</time>
      </trkpt>
      <trkpt lat="47.695228038355708" lon="7.019622037187219">
        <ele>381.30000000000001</ele>
        <time>2025-04-23T09:17:36Z</time>
      </trkpt>
      <trkpt lat="47.69523398950696" lon="7.019609967246652">
        <ele>377.94</ele>
        <time>2025-04-23T09:18:24Z</time>
      </trkpt>
      <trkpt lat="47.69523499533534" lon="7.019617008045316">
        <ele>377.94</ele>
        <time>2025-04-23T09:19:15Z</time>
      </trkpt>
      <trkpt lat="47.695236001163721" lon="7.019627988338471">
        <ele>377.44999999999999</ele>
        <time>2025-04-23T09:20:08Z</time>
      </trkpt>
      <trkpt lat="47.695242958143353" lon="7.019624970853329">
        <ele>377.94</ele>
        <time>2025-04-23T09:20:57Z</time>
      </trkpt>
      <trkpt lat="47.695239018648863" lon="7.019634023308754">
        <ele>377.94</ele>
        <time>2025-04-23T09:21:50Z</time>
      </trkpt>
      <trkpt lat="47.695242036134005" lon="7.019637040793896">
        <ele>378.42000000000002</ele>
        <time>2025-04-23T09:22:40Z</time>
      </trkpt>
      <trkpt lat="47.695242958143353" lon="7.019637962803245">
        <ele>377.94</ele>
        <time>2025-04-23T09:23:31Z</time>
      </trkpt>
      <trkpt lat="47.695247987285256" lon="7.019643997773528">
        <ele>377.94</ele>
        <time>2025-04-23T09:24:22Z</time>
      </trkpt>
      <trkpt lat="47.695246981456876" lon="7.01964701525867">
        <ele>377.94</ele>
        <time>2025-04-23T09:25:08Z</time>
      </trkpt>
      <trkpt lat="47.695249998942018" lon="7.019652966409922">
        <ele>377.94</ele>
        <time>2025-04-23T09:25:59Z</time>
      </trkpt>
      <trkpt lat="47.695251004770398" lon="7.019654978066683">
        <ele>377.94</ele>
        <time>2025-04-23T09:26:46Z</time>
      </trkpt>
      <trkpt lat="47.695242036134005" lon="7.019655983895063">
        <ele>378.42000000000002</ele>
        <time>2025-04-23T09:27:33Z</time>
      </trkpt>
      <trkpt lat="47.695242036134005" lon="7.019653972238302">
        <ele>378.42000000000002</ele>
        <time>2025-04-23T09:28:26Z</time>
      </trkpt>
      <trkpt lat="47.695237006992102" lon="7.019667970016599">
        <ele>377.94</ele>
        <time>2025-04-23T09:29:13Z</time>
      </trkpt>
      <trkpt lat="47.695226026698947" lon="7.019665958359838">
        <ele>377.94</ele>
        <time>2025-04-23T09:30:05Z</time>
      </trkpt>
      <trkpt lat="47.695230972021818" lon="7.01966998167336">
        <ele>378.42000000000002</ele>
        <time>2025-04-23T09:31:00Z</time>
      </trkpt>
      <trkpt lat="47.695230972021818" lon="7.019671993330121">
        <ele>378.42000000000002</ele>
        <time>2025-04-23T09:31:44Z</time>
      </trkpt>
      <trkpt lat="47.695239018648863" lon="7.019674004986882">
        <ele>378.42000000000002</ele>
        <time>2025-04-23T09:32:27Z</time>
      </trkpt>
      <trkpt lat="47.695242036134005" lon="7.019674004986882">
        <ele>378.42000000000002</ele>
        <time>2025-04-23T09:32:48Z</time>
      </trkpt>
      <trkpt lat="47.695213034749031" lon="7.019493039697409">
        <ele>377.44999999999999</ele>
        <time>2025-04-23T09:33:02Z</time>
      </trkpt>
      <trkpt lat="47.695131981745362" lon="7.019458003342152">
        <ele>377.44999999999999</ele>
        <time>2025-04-23T09:33:03Z</time>
      </trkpt>
      <trkpt lat="47.695058975368738" lon="7.019444005563855">
        <ele>376.97000000000003</ele>
        <time>2025-04-23T09:33:05Z</time>
      </trkpt>
      <trkpt lat="47.694298988208175" lon="7.019319031387568">
        <ele>375.52999999999997</ele>
        <time>2025-04-23T09:33:11Z</time>
      </trkpt>
      <trkpt lat="47.694162027910352" lon="7.019297992810607">
        <ele>376.00999999999999</ele>
        <time>2025-04-23T09:33:12Z</time>
      </trkpt>
      <trkpt lat="47.694031018763781" lon="7.019193973392248">
        <ele>376.00999999999999</ele>
        <time>2025-04-23T09:33:13Z</time>
      </trkpt>
      <trkpt lat="47.693897997960448" lon="7.019089031964541">
        <ele>376.00999999999999</ele>
        <time>2025-04-23T09:33:14Z</time>
      </trkpt>
      <trkpt lat="47.693756008520722" lon="7.018975960090756">
        <ele>376.00999999999999</ele>
        <time>2025-04-23T09:33:15Z</time>
      </trkpt>
      <trkpt lat="47.693604966625571" lon="7.018855009227991">
        <ele>376.49000000000001</ele>
        <time>2025-04-23T09:33:16Z</time>
      </trkpt>
      <trkpt lat="47.692253971472383" lon="7.017552964389324">
        <ele>376.00999999999999</ele>
        <time>2025-04-23T09:33:24Z</time>
      </trkpt>
      <trkpt lat="47.690092027187347" lon="7.015211982652545">
        <ele>374.08999999999997</ele>
        <time>2025-04-23T09:33:35Z</time>
      </trkpt>
      <trkpt lat="47.688484964892268" lon="7.013260005041957">
        <ele>371.20999999999998</ele>
        <time>2025-04-23T09:33:43Z</time>
      </trkpt>
      <trkpt lat="47.68605899065733" lon="7.009590994566679">
        <ele>369.75999999999999</ele>
        <time>2025-04-23T09:33:56Z</time>
      </trkpt>
      <trkpt lat="47.684261994436383" lon="7.006178973242641">
        <ele>370.73000000000002</ele>
        <time>2025-04-23T09:34:07Z</time>
      </trkpt>
      <trkpt lat="47.682993980124593" lon="7.003185041248798">
        <ele>372.64999999999998</ele>
        <time>2025-04-23T09:34:16Z</time>
      </trkpt>
      <trkpt lat="47.682216977700591" lon="7.00112602673471">
        <ele>376.49000000000001</ele>
        <time>2025-04-23T09:34:23Z</time>
      </trkpt>
      <trkpt lat="47.681505018845201" lon="6.999057959765196">
        <ele>378.42000000000002</ele>
        <time>2025-04-23T09:34:31Z</time>
      </trkpt>
      <trkpt lat="47.68113998696208" lon="6.997997984290123">
        <ele>379.38</ele>
        <time>2025-04-23T09:34:37Z</time>
      </trkpt>
      <trkpt lat="47.680688034743071" lon="6.996684959158301">
        <ele>382.25999999999999</ele>
        <time>2025-04-23T09:34:46Z</time>
      </trkpt>
      <trkpt lat="47.680189982056618" lon="6.995204966515303">
        <ele>380.81999999999999</ele>
        <time>2025-04-23T09:34:56Z</time>
      </trkpt>
      <trkpt lat="47.679600985720754" lon="6.993417022749782">
        <ele>377.44999999999999</ele>
        <time>2025-04-23T09:35:08Z</time>
      </trkpt>
      <trkpt lat="47.679130006581545" lon="6.991991009563208">
        <ele>372.17000000000002</ele>
        <time>2025-04-23T09:35:18Z</time>
      </trkpt>
      <trkpt lat="47.678508991375566" lon="6.99010499753058">
        <ele>368.80000000000001</ele>
        <time>2025-04-23T09:35:29Z</time>
      </trkpt>
      <trkpt lat="47.67825803719461" lon="6.989303017035127">
        <ele>365.44</ele>
        <time>2025-04-23T09:35:35Z</time>
      </trkpt>
      <trkpt lat="47.677902979776263" lon="6.988158971071243">
        <ele>370.24000000000001</ele>
        <time>2025-04-23T09:35:46Z</time>
      </trkpt>
      <trkpt lat="47.677576001733541" lon="6.987073011696339">
        <ele>372.17000000000002</ele>
        <time>2025-04-23T09:35:58Z</time>
      </trkpt>
      <trkpt lat="47.677438035607338" lon="6.986617036163807">
        <ele>373.61000000000001</ele>
        <time>2025-04-23T09:36:08Z</time>
      </trkpt>
      <trkpt lat="47.677346002310514" lon="6.986315036192536">
        <ele>375.05000000000001</ele>
        <time>2025-04-23T09:36:14Z</time>
      </trkpt>
      <trkpt lat="47.677304008975625" lon="6.986159970983863">
        <ele>375.52999999999997</ele>
        <time>2025-04-23T09:36:16Z</time>
      </trkpt>
      <trkpt lat="47.677283976227045" lon="6.986089982092381">
        <ele>375.52999999999997</ele>
        <time>2025-04-23T09:36:17Z</time>
      </trkpt>
      <trkpt lat="47.677087001502514" lon="6.985336029902101">
        <ele>376.49000000000001</ele>
        <time>2025-04-23T09:36:28Z</time>
      </trkpt>
      <trkpt lat="47.676941994577646" lon="6.984775029122829">
        <ele>375.05000000000001</ele>
        <time>2025-04-23T09:36:40Z</time>
      </trkpt>
      <trkpt lat="47.676867982372642" lon="6.984490966424346">
        <ele>375.05000000000001</ele>
        <time>2025-04-23T09:36:51Z</time>
      </trkpt>
      <trkpt lat="47.676867982372642" lon="6.984490966424346">
        <ele>375.05000000000001</ele>
        <time>2025-04-23T09:37:07Z</time>
      </trkpt>
      <trkpt lat="47.676867982372642" lon="6.984490966424346">
        <ele>375.05000000000001</ele>
        <time>2025-04-23T09:37:13Z</time>
      </trkpt>
      <trkpt lat="47.676820959895849" lon="6.984310001134872">
        <ele>376.49000000000001</ele>
        <time>2025-04-23T09:37:20Z</time>
      </trkpt>
      <trkpt lat="47.67680000513792" lon="6.984225008636713">
        <ele>376.00999999999999</ele>
        <time>2025-04-23T09:37:21Z</time>
      </trkpt>
      <trkpt lat="47.676777960732579" lon="6.98413297533989">
        <ele>375.52999999999997</ele>
        <time>2025-04-23T09:37:22Z</time>
      </trkpt>
      <trkpt lat="47.676754994317889" lon="6.984029961749911">
        <ele>375.52999999999997</ele>
        <time>2025-04-23T09:37:23Z</time>
      </trkpt>
      <trkpt lat="47.676728004589677" lon="6.983915967866778">
        <ele>375.52999999999997</ele>
        <time>2025-04-23T09:37:24Z</time>
      </trkpt>
      <trkpt lat="47.676500016823411" lon="6.98290703818202">
        <ele>375.52999999999997</ele>
        <time>2025-04-23T09:37:34Z</time>
      </trkpt>
      <trkpt lat="47.676301030442119" lon="6.982056023553014">
        <ele>376.49000000000001</ele>
        <time>2025-04-23T09:37:45Z</time>
      </trkpt>
      <trkpt lat="47.676229029893875" lon="6.981809008866549">
        <ele>376.97000000000003</ele>
        <time>2025-04-23T09:37:52Z</time>
      </trkpt>
      <trkpt lat="47.676229029893875" lon="6.981809008866549">
        <ele>376.97000000000003</ele>
        <time>2025-04-23T09:37:53Z</time>
      </trkpt>
      <trkpt lat="47.676229029893875" lon="6.981809008866549">
        <ele>375.05000000000001</ele>
        <time>2025-04-23T09:38:07Z</time>
      </trkpt>
      <trkpt lat="47.676229029893875" lon="6.981809008866549">
        <ele>375.05000000000001</ele>
        <time>2025-04-23T09:38:33Z</time>
      </trkpt>
      <trkpt lat="47.676229029893875" lon="6.981809008866549">
        <ele>374.56999999999999</ele>
        <time>2025-04-23T09:38:59Z</time>
      </trkpt>
      <trkpt lat="47.676229029893875" lon="6.981809008866549">
        <ele>375.05000000000001</ele>
        <time>2025-04-23T09:39:31Z</time>
      </trkpt>
      <trkpt lat="47.676229029893875" lon="6.981809008866549">
        <ele>374.56999999999999</ele>
        <time>2025-04-23T09:39:56Z</time>
      </trkpt>
      <trkpt lat="47.676229029893875" lon="6.981809008866549">
        <ele>374.56999999999999</ele>
        <time>2025-04-23T09:40:22Z</time>
      </trkpt>
      <trkpt lat="47.676179995760322" lon="6.98164002969861">
        <ele>374.56999999999999</ele>
        <time>2025-04-23T09:40:38Z</time>
      </trkpt>
      <trkpt lat="47.676171027123928" lon="6.981612034142017">
        <ele>372.64999999999998</ele>
        <time>2025-04-23T09:40:40Z</time>
      </trkpt>
      <trkpt lat="47.676117969676852" lon="6.981454035267234">
        <ele>372.17000000000002</ele>
        <time>2025-04-23T09:40:41Z</time>
      </trkpt>
      <trkpt lat="47.676087962463498" lon="6.981365019455552">
        <ele>371.69</ele>
        <time>2025-04-23T09:40:42Z</time>
      </trkpt>
      <trkpt lat="47.676046974956989" lon="6.980678960680962">
        <ele>369.75999999999999</ele>
        <time>2025-04-23T09:40:48Z</time>
      </trkpt>
      <trkpt lat="47.676044041290879" lon="6.980608971789479">
        <ele>369.75999999999999</ele>
        <time>2025-04-23T09:40:49Z</time>
      </trkpt>
      <trkpt lat="47.676042029634118" lon="6.980552980676293">
        <ele>369.27999999999997</ele>
        <time>2025-04-23T09:40:50Z</time>
      </trkpt>
      <trkpt lat="47.676042029634118" lon="6.980552980676293">
        <ele>369.27999999999997</ele>
        <time>2025-04-23T09:40:58Z</time>
      </trkpt>
      <trkpt lat="47.676042029634118" lon="6.980552980676293">
        <ele>369.75999999999999</ele>
        <time>2025-04-23T09:41:38Z</time>
      </trkpt>
      <trkpt lat="47.676038006320596" lon="6.980460025370121">
        <ele>369.75999999999999</ele>
        <time>2025-04-23T09:41:50Z</time>
      </trkpt>
      <trkpt lat="47.676035994663835" lon="6.980397999286652">
        <ele>369.75999999999999</ele>
        <time>2025-04-23T09:41:51Z</time>
      </trkpt>
      <trkpt lat="47.676033983007073" lon="6.980337984859943">
        <ele>370.24000000000001</ele>
        <time>2025-04-23T09:41:52Z</time>
      </trkpt>
      <trkpt lat="47.676030965521932" lon="6.980266990140081">
        <ele>370.73000000000002</ele>
        <time>2025-04-23T09:41:53Z</time>
      </trkpt>
      <trkpt lat="47.676015039905906" lon="6.980172023177147">
        <ele>370.73000000000002</ele>
        <time>2025-04-23T09:41:54Z</time>
      </trkpt>
      <trkpt lat="47.675964999943972" lon="6.979922996833921">
        <ele>370.73000000000002</ele>
        <time>2025-04-23T09:41:57Z</time>
      </trkpt>
      <trkpt lat="47.675930969417095" lon="6.979836998507381">
        <ele>370.73000000000002</ele>
        <time>2025-04-23T09:41:58Z</time>
      </trkpt>
      <trkpt lat="47.675900040194392" lon="6.979759968817234">
        <ele>370.24000000000001</ele>
        <time>2025-04-23T09:41:59Z</time>
      </trkpt>
      <trkpt lat="47.675865003839135" lon="6.979678999632597">
        <ele>370.24000000000001</ele>
        <time>2025-04-23T09:42:00Z</time>
      </trkpt>
      <trkpt lat="47.675823010504246" lon="6.979590989649296">
        <ele>369.75999999999999</ele>
        <time>2025-04-23T09:42:02Z</time>
      </trkpt>
      <trkpt lat="47.675356976687908" lon="6.978824967518449">
        <ele>368.80000000000001</ele>
        <time>2025-04-23T09:42:10Z</time>
      </trkpt>
      <trkpt lat="47.675221022218466" lon="6.978633021935821">
        <ele>368.80000000000001</ele>
        <time>2025-04-23T09:42:12Z</time>
      </trkpt>
      <trkpt lat="47.674674019217491" lon="6.977485958486795">
        <ele>370.24000000000001</ele>
        <time>2025-04-23T09:42:21Z</time>
      </trkpt>
      <trkpt lat="47.67404998652637" lon="6.975673958659172">
        <ele>373.13</ele>
        <time>2025-04-23T09:42:31Z</time>
      </trkpt>
      <trkpt lat="47.673610020428896" lon="6.973631959408522">
        <ele>376.00999999999999</ele>
        <time>2025-04-23T09:42:41Z</time>
      </trkpt>
      <trkpt lat="47.673412039875984" lon="6.972090024501085">
        <ele>378.89999999999998</ele>
        <time>2025-04-23T09:42:49Z</time>
      </trkpt>
      <trkpt lat="47.673343978822231" lon="6.971957003697753">
        <ele>379.38</ele>
        <time>2025-04-23T09:42:50Z</time>
      </trkpt>
      <trkpt lat="47.673259992152452" lon="6.971909981220961">
        <ele>379.38</ele>
        <time>2025-04-23T09:42:51Z</time>
      </trkpt>
      <trkpt lat="47.67316997051239" lon="6.971918027848005">
        <ele>379.86000000000001</ele>
        <time>2025-04-23T09:42:52Z</time>
      </trkpt>
      <trkpt lat="47.673090007156134" lon="6.971940994262695">
        <ele>379.86000000000001</ele>
        <time>2025-04-23T09:42:53Z</time>
      </trkpt>
      <trkpt lat="47.672989005222917" lon="6.971982987597585">
        <ele>379.86000000000001</ele>
        <time>2025-04-23T09:42:54Z</time>
      </trkpt>
      <trkpt lat="47.672896971926093" lon="6.972049959003925">
        <ele>379.38</ele>
        <time>2025-04-23T09:42:55Z</time>
      </trkpt>
      <trkpt lat="47.672810973599553" lon="6.972112990915775">
        <ele>379.38</ele>
        <time>2025-04-23T09:42:56Z</time>
      </trkpt>
      <trkpt lat="47.672410989180207" lon="6.972420020028949">
        <ele>378.89999999999998</ele>
        <time>2025-04-23T09:43:01Z</time>
      </trkpt>
      <trkpt lat="47.672322979196906" lon="6.972464025020599">
        <ele>378.89999999999998</ele>
        <time>2025-04-23T09:43:02Z</time>
      </trkpt>
      <trkpt lat="47.672216026112437" lon="6.972483973950148">
        <ele>378.42000000000002</ele>
        <time>2025-04-23T09:43:03Z</time>
      </trkpt>
      <trkpt lat="47.672101026400924" lon="6.972492020577192">
        <ele>378.42000000000002</ele>
        <time>2025-04-23T09:43:04Z</time>
      </trkpt>
      <trkpt lat="47.671978985890746" lon="6.972500989213586">
        <ele>378.42000000000002</ele>
        <time>2025-04-23T09:43:05Z</time>
      </trkpt>
      <trkpt lat="47.671852000057697" lon="6.97250803001225">
        <ele>378.42000000000002</ele>
        <time>2025-04-23T09:43:06Z</time>
      </trkpt>
      <trkpt lat="47.671174993738532" lon="6.972569972276688">
        <ele>377.44999999999999</ele>
        <time>2025-04-23T09:43:11Z</time>
      </trkpt>
      <trkpt lat="47.671034010127187" lon="6.972613977268338">
        <ele>377.44999999999999</ele>
        <time>2025-04-23T09:43:12Z</time>
      </trkpt>
      <trkpt lat="47.670897971838713" lon="6.972668040543795">
        <ele>376.97000000000003</ele>
        <time>2025-04-23T09:43:13Z</time>
      </trkpt>
      <trkpt lat="47.670768974348903" lon="6.972768036648631">
        <ele>376.49000000000001</ele>
        <time>2025-04-23T09:43:14Z</time>
      </trkpt>
      <trkpt lat="47.670641988515854" lon="6.972866021096706">
        <ele>376.00999999999999</ele>
        <time>2025-04-23T09:43:15Z</time>
      </trkpt>
      <trkpt lat="47.670524977147579" lon="6.972996024414897">
        <ele>375.52999999999997</ele>
        <time>2025-04-23T09:43:16Z</time>
      </trkpt>
      <trkpt lat="47.670419029891491" lon="6.97313298471272">
        <ele>375.05000000000001</ele>
        <time>2025-04-23T09:43:17Z</time>
      </trkpt>
      <trkpt lat="47.670322973281145" lon="6.973301041871309">
        <ele>375.05000000000001</ele>
        <time>2025-04-23T09:43:18Z</time>
      </trkpt>
      <trkpt lat="47.67024502158165" lon="6.973471026867628">
        <ele>374.56999999999999</ele>
        <time>2025-04-23T09:43:19Z</time>
      </trkpt>
      <trkpt lat="47.670175032690167" lon="6.973657021299005">
        <ele>374.08999999999997</ele>
        <time>2025-04-23T09:43:20Z</time>
      </trkpt>
      <trkpt lat="47.670123986899853" lon="6.973843015730381">
        <ele>373.61000000000001</ele>
        <time>2025-04-23T09:43:21Z</time>
      </trkpt>
      <trkpt lat="47.670080987736583" lon="6.974043007940054">
        <ele>373.13</ele>
        <time>2025-04-23T09:43:22Z</time>
      </trkpt>
      <trkpt lat="47.670036982744932" lon="6.974244005978108">
        <ele>373.13</ele>
        <time>2025-04-23T09:43:23Z</time>
      </trkpt>
      <trkpt lat="47.669994989410043" lon="6.974440980702639">
        <ele>372.64999999999998</ele>
        <time>2025-04-23T09:43:24Z</time>
      </trkpt>
      <trkpt lat="47.669971017166972" lon="6.97463602758944">
        <ele>372.64999999999998</ele>
        <time>2025-04-23T09:43:25Z</time>
      </trkpt>
      <trkpt lat="47.669958025217056" lon="6.97485001757741">
        <ele>372.17000000000002</ele>
        <time>2025-04-23T09:43:26Z</time>
      </trkpt>
      <trkpt lat="47.669934974983335" lon="6.976727982982993">
        <ele>369.75999999999999</ele>
        <time>2025-04-23T09:43:34Z</time>
      </trkpt>
      <trkpt lat="47.670167991891503" lon="6.979130990803242">
        <ele>369.75999999999999</ele>
        <time>2025-04-23T09:43:44Z</time>
      </trkpt>
      <trkpt lat="47.670157011598349" lon="6.979331988841295">
        <ele>369.75999999999999</ele>
        <time>2025-04-23T09:43:45Z</time>
      </trkpt>
      <trkpt lat="47.670134967193007" lon="6.979516977444291">
        <ele>369.27999999999997</ele>
        <time>2025-04-23T09:43:46Z</time>
      </trkpt>
      <trkpt lat="47.669992977753282" lon="6.980156013742089">
        <ele>368.80000000000001</ele>
        <time>2025-04-23T09:43:50Z</time>
      </trkpt>
      <trkpt lat="47.669940004125237" lon="6.980281993746758">
        <ele>368.31999999999999</ele>
        <time>2025-04-23T09:43:51Z</time>
      </trkpt>
      <trkpt lat="47.669849982485175" lon="6.980377966538072">
        <ele>368.31999999999999</ele>
        <time>2025-04-23T09:43:52Z</time>
      </trkpt>
      <trkpt lat="47.669730959460139" lon="6.980449967086315">
        <ele>368.31999999999999</ele>
        <time>2025-04-23T09:43:53Z</time>
      </trkpt>
      <trkpt lat="47.669598022475839" lon="6.980529008433223">
        <ele>368.31999999999999</ele>
        <time>2025-04-23T09:43:54Z</time>
      </trkpt>
      <trkpt lat="47.668457999825478" lon="6.980924969539046">
        <ele>368.31999999999999</ele>
        <time>2025-04-23T09:44:01Z</time>
      </trkpt>
      <trkpt lat="47.668137978762388" lon="6.981173995882273">
        <ele>367.83999999999997</ele>
        <time>2025-04-23T09:44:03Z</time>
      </trkpt>
      <trkpt lat="47.667573960497975" lon="6.981880003586412">
        <ele>367.36000000000001</ele>
        <time>2025-04-23T09:44:07Z</time>
      </trkpt>
      <trkpt lat="47.667457032948732" lon="6.982093993574381">
        <ele>367.36000000000001</ele>
        <time>2025-04-23T09:44:08Z</time>
      </trkpt>
      <trkpt lat="47.667349996045232" lon="6.982320975512266">
        <ele>367.36000000000001</ele>
        <time>2025-04-23T09:44:09Z</time>
      </trkpt>
      <trkpt lat="47.666983958333731" lon="6.984264990314841">
        <ele>368.31999999999999</ele>
        <time>2025-04-23T09:44:16Z</time>
      </trkpt>
      <trkpt lat="47.66704497858882" lon="6.987457992509008">
        <ele>368.80000000000001</ele>
        <time>2025-04-23T09:44:26Z</time>
      </trkpt>
      <trkpt lat="47.667596004903316" lon="6.990705979987979">
        <ele>365.44</ele>
        <time>2025-04-23T09:44:36Z</time>
      </trkpt>
      <trkpt lat="47.668240992352366" lon="6.994498036801815">
        <ele>361.11000000000001</ele>
        <time>2025-04-23T09:44:49Z</time>
      </trkpt>
      <trkpt lat="47.668705014511943" lon="6.997226011008024">
        <ele>360.14999999999998</ele>
        <time>2025-04-23T09:45:00Z</time>
      </trkpt>
      <trkpt lat="47.669295016676188" lon="6.999509995803237">
        <ele>361.58999999999997</ele>
        <time>2025-04-23T09:45:10Z</time>
      </trkpt>
      <trkpt lat="47.66992500051856" lon="7.001673029735684">
        <ele>362.55000000000001</ele>
        <time>2025-04-23T09:45:20Z</time>
      </trkpt>
      <trkpt lat="47.670002030208707" lon="7.003255030140281">
        <ele>366.39999999999998</ele>
        <time>2025-04-23T09:45:28Z</time>
      </trkpt>
      <trkpt lat="47.669984009116888" lon="7.003358965739608">
        <ele>366.88</ele>
        <time>2025-04-23T09:45:29Z</time>
      </trkpt>
      <trkpt lat="47.669969005510211" lon="7.003440018743277">
        <ele>367.36000000000001</ele>
        <time>2025-04-23T09:45:30Z</time>
      </trkpt>
      <trkpt lat="47.669958025217056" lon="7.003506990149617">
        <ele>367.36000000000001</ele>
        <time>2025-04-23T09:45:31Z</time>
      </trkpt>
      <trkpt lat="47.66994796693325" lon="7.003561975434423">
        <ele>367.36000000000001</ele>
        <time>2025-04-23T09:45:32Z</time>
      </trkpt>
      <trkpt lat="47.669935980811715" lon="7.003633975982666">
        <ele>367.83999999999997</ele>
        <time>2025-04-23T09:45:33Z</time>
      </trkpt>
      <trkpt lat="47.669911002740264" lon="7.003671023994684">
        <ele>367.83999999999997</ele>
        <time>2025-04-23T09:45:34Z</time>
      </trkpt>
      <trkpt lat="47.669885018840432" lon="7.00374998152256">
        <ele>367.83999999999997</ele>
        <time>2025-04-23T09:45:36Z</time>
      </trkpt>
      <trkpt lat="47.669871021062136" lon="7.003848971799016">
        <ele>367.83999999999997</ele>
        <time>2025-04-23T09:45:37Z</time>
      </trkpt>
      <trkpt lat="47.669883007183671" lon="7.003917032852769">
        <ele>367.83999999999997</ele>
        <time>2025-04-23T09:45:38Z</time>
      </trkpt>
      <trkpt lat="47.669914020225406" lon="7.004019962623715">
        <ele>367.83999999999997</ele>
        <time>2025-04-23T09:45:39Z</time>
      </trkpt>
      <trkpt lat="47.66994696110487" lon="7.004160024225712">
        <ele>367.83999999999997</ele>
        <time>2025-04-23T09:45:40Z</time>
      </trkpt>
      <trkpt lat="47.669978979974985" lon="7.004303019493818">
        <ele>368.31999999999999</ele>
        <time>2025-04-23T09:45:41Z</time>
      </trkpt>
      <trkpt lat="47.670012004673481" lon="7.004445008933544">
        <ele>368.31999999999999</ele>
        <time>2025-04-23T09:45:42Z</time>
      </trkpt>
      <trkpt lat="47.670044023543596" lon="7.004602001979947">
        <ele>368.80000000000001</ele>
        <time>2025-04-23T09:45:43Z</time>
      </trkpt>
      <trkpt lat="47.670047041028738" lon="7.00475899502635">
        <ele>368.80000000000001</ele>
        <time>2025-04-23T09:45:44Z</time>
      </trkpt>
      <trkpt lat="47.670056009665132" lon="7.005678992718458">
        <ele>370.24000000000001</ele>
        <time>2025-04-23T09:45:51Z</time>
      </trkpt>
      <trkpt lat="47.669873032718897" lon="7.007452016696334">
        <ele>372.64999999999998</ele>
        <time>2025-04-23T09:46:00Z</time>
      </trkpt>
      <trkpt lat="47.669832967221737" lon="7.007656032219529">
        <ele>372.64999999999998</ele>
        <time>2025-04-23T09:46:01Z</time>
      </trkpt>
      <trkpt lat="47.669769013300538" lon="7.007845966145396">
        <ele>372.64999999999998</ele>
        <time>2025-04-23T09:46:02Z</time>
      </trkpt>
      <trkpt lat="47.669442035257816" lon="7.008548034355044">
        <ele>372.64999999999998</ele>
        <time>2025-04-23T09:46:06Z</time>
      </trkpt>
      <trkpt lat="47.669330975040793" lon="7.008682982996106">
        <ele>372.64999999999998</ele>
        <time>2025-04-23T09:46:07Z</time>
      </trkpt>
      <trkpt lat="47.66921597532928" lon="7.008822038769722">
        <ele>372.64999999999998</ele>
        <time>2025-04-23T09:46:08Z</time>
      </trkpt>
      <trkpt lat="47.669100975617766" lon="7.008961010724306">
        <ele>372.64999999999998</ele>
        <time>2025-04-23T09:46:09Z</time>
      </trkpt>
      <trkpt lat="47.668986981734633" lon="7.00909998267889">
        <ele>372.64999999999998</ele>
        <time>2025-04-23T09:46:10Z</time>
      </trkpt>
      <trkpt lat="47.668872987851501" lon="7.009238032624126">
        <ele>372.17000000000002</ele>
        <time>2025-04-23T09:46:11Z</time>
      </trkpt>
      <trkpt lat="47.66876301728189" lon="7.009370969608426">
        <ele>372.64999999999998</ele>
        <time>2025-04-23T09:46:13Z</time>
      </trkpt>
      <trkpt lat="47.667412022128701" lon="7.009736001491547">
        <ele>372.64999999999998</ele>
        <time>2025-04-23T09:46:21Z</time>
      </trkpt>
      <trkpt lat="47.666413988918066" lon="7.00944003649056">
        <ele>371.69</ele>
        <time>2025-04-23T09:46:29Z</time>
      </trkpt>
      <trkpt lat="47.666338970884681" lon="7.009384967386723">
        <ele>370.73000000000002</ele>
        <time>2025-04-23T09:46:30Z</time>
      </trkpt>
      <trkpt lat="47.666308963671327" lon="7.009363006800413">
        <ele>370.24000000000001</ele>
        <time>2025-04-23T09:46:31Z</time>
      </trkpt>
      <trkpt lat="47.666234029456973" lon="7.009210037067533">
        <ele>369.75999999999999</ele>
        <time>2025-04-23T09:46:32Z</time>
      </trkpt>
      <trkpt lat="47.666123975068331" lon="7.009188998490572">
        <ele>369.27999999999997</ele>
        <time>2025-04-23T09:46:33Z</time>
      </trkpt>
      <trkpt lat="47.66605599783361" lon="7.009210959076881">
        <ele>369.27999999999997</ele>
        <time>2025-04-23T09:46:34Z</time>
      </trkpt>
      <trkpt lat="47.665988020598888" lon="7.009298969060183">
        <ele>369.27999999999997</ele>
        <time>2025-04-23T09:46:35Z</time>
      </trkpt>
      <trkpt lat="47.66573497094214" lon="7.009316990152001">
        <ele>369.27999999999997</ele>
        <time>2025-04-23T09:46:38Z</time>
      </trkpt>
      <trkpt lat="47.665636986494064" lon="7.009308021515608">
        <ele>369.27999999999997</ele>
        <time>2025-04-23T09:46:39Z</time>
      </trkpt>
      <trkpt lat="47.664478020742536" lon="7.009073998779059">
        <ele>372.64999999999998</ele>
        <time>2025-04-23T09:46:49Z</time>
      </trkpt>
      <trkpt lat="47.662858972325921" lon="7.009268961846829">
        <ele>380.33999999999997</ele>
        <time>2025-04-23T09:47:00Z</time>
      </trkpt>
      <trkpt lat="47.661536978557706" lon="7.009590994566679">
        <ele>380.33999999999997</ele>
        <time>2025-04-23T09:47:10Z</time>
      </trkpt>
      <trkpt lat="47.661198014393449" lon="7.00956903398037">
        <ele>380.33999999999997</ele>
        <time>2025-04-23T09:47:15Z</time>
      </trkpt>
      <trkpt lat="47.661137999966741" lon="7.009555036202073">
        <ele>380.33999999999997</ele>
        <time>2025-04-23T09:47:16Z</time>
      </trkpt>
      <trkpt lat="47.661086032167077" lon="7.009542966261506">
        <ele>380.81999999999999</ele>
        <time>2025-04-23T09:47:17Z</time>
      </trkpt>
      <trkpt lat="47.661046972498298" lon="7.009530980139971">
        <ele>380.81999999999999</ele>
        <time>2025-04-23T09:47:18Z</time>
      </trkpt>
      <trkpt lat="47.66100799664855" lon="7.009496027603746">
        <ele>380.81999999999999</ele>
        <time>2025-04-23T09:47:19Z</time>
      </trkpt>
      <trkpt lat="47.660972038283944" lon="7.009465014562011">
        <ele>380.33999999999997</ele>
        <time>2025-04-23T09:47:20Z</time>
      </trkpt>
      <trkpt lat="47.660935996100307" lon="7.009432995691896">
        <ele>380.81999999999999</ele>
        <time>2025-04-23T09:47:21Z</time>
      </trkpt>
      <trkpt lat="47.660903977230191" lon="7.009405000135303">
        <ele>380.81999999999999</ele>
        <time>2025-04-23T09:47:22Z</time>
      </trkpt>
      <trkpt lat="47.660868018865585" lon="7.009386979043484">
        <ele>380.81999999999999</ele>
        <time>2025-04-23T09:47:23Z</time>
      </trkpt>
      <trkpt lat="47.660816973075271" lon="7.009395025670528">
        <ele>380.33999999999997</ele>
        <time>2025-04-23T09:47:24Z</time>
      </trkpt>
      <trkpt lat="47.660761987790465" lon="7.009403994306922">
        <ele>380.33999999999997</ele>
        <time>2025-04-23T09:47:25Z</time>
      </trkpt>
      <trkpt lat="47.660721000283957" lon="7.00944397598505">
        <ele>380.33999999999997</ele>
        <time>2025-04-23T09:47:26Z</time>
      </trkpt>
      <trkpt lat="47.660673977807164" lon="7.009499967098236">
        <ele>379.86000000000001</ele>
        <time>2025-04-23T09:47:27Z</time>
      </trkpt>
      <trkpt lat="47.660644976422191" lon="7.009535003453493">
        <ele>379.86000000000001</ele>
        <time>2025-04-23T09:47:28Z</time>
      </trkpt>
      <trkpt lat="47.660526037216187" lon="7.009502984583378">
        <ele>379.86000000000001</ele>
        <time>2025-04-23T09:47:29Z</time>
      </trkpt>
      <trkpt lat="47.660445990040898" lon="7.009481023997068">
        <ele>379.86000000000001</ele>
        <time>2025-04-23T09:47:30Z</time>
      </trkpt>
      <trkpt lat="47.660353034734726" lon="7.009455962106586">
        <ele>379.86000000000001</ele>
        <time>2025-04-23T09:47:31Z</time>
      </trkpt>
      <trkpt lat="47.659514006227255" lon="7.008932009339333">
        <ele>377.94</ele>
        <time>2025-04-23T09:47:39Z</time>
      </trkpt>
      <trkpt lat="47.657907027751207" lon="7.007254036143422">
        <ele>374.56999999999999</ele>
        <time>2025-04-23T09:47:53Z</time>
      </trkpt>
      <trkpt lat="47.656111037358642" lon="7.005391996353865">
        <ele>371.69</ele>
        <time>2025-04-23T09:48:07Z</time>
      </trkpt>
      <trkpt lat="47.654536999762058" lon="7.003838997334242">
        <ele>370.24000000000001</ele>
        <time>2025-04-23T09:48:19Z</time>
      </trkpt>
      <trkpt lat="47.654389981180429" lon="7.003760961815715">
        <ele>370.24000000000001</ele>
        <time>2025-04-23T09:48:20Z</time>
      </trkpt>
      <trkpt lat="47.654240028932691" lon="7.003690972924233">
        <ele>369.75999999999999</ele>
        <time>2025-04-23T09:48:21Z</time>
      </trkpt>
      <trkpt lat="47.654084963724017" lon="7.003655014559627">
        <ele>369.75999999999999</ele>
        <time>2025-04-23T09:48:22Z</time>
      </trkpt>
      <trkpt lat="47.653927970677614" lon="7.003630958497524">
        <ele>369.27999999999997</ele>
        <time>2025-04-23T09:48:23Z</time>
      </trkpt>
      <trkpt lat="47.653771983459592" lon="7.003622995689511">
        <ele>369.27999999999997</ele>
        <time>2025-04-23T09:48:24Z</time>
      </trkpt>
      <trkpt lat="47.653613984584808" lon="7.003615032881498">
        <ele>368.80000000000001</ele>
        <time>2025-04-23T09:48:25Z</time>
      </trkpt>
      <trkpt lat="47.653019037097692" lon="7.003535991534591">
        <ele>367.36000000000001</ele>
        <time>2025-04-23T09:48:29Z</time>
      </trkpt>
      <trkpt lat="47.652904959395528" lon="7.003481006249785">
        <ele>366.88</ele>
        <time>2025-04-23T09:48:30Z</time>
      </trkpt>
      <trkpt lat="47.652808986604214" lon="7.003433983772993">
        <ele>366.88</ele>
        <time>2025-04-23T09:48:31Z</time>
      </trkpt>
      <trkpt lat="47.652726005762815" lon="7.003395007923245">
        <ele>366.39999999999998</ele>
        <time>2025-04-23T09:48:32Z</time>
      </trkpt>
      <trkpt lat="47.652642019093037" lon="7.003354020416737">
        <ele>366.39999999999998</ele>
        <time>2025-04-23T09:48:33Z</time>
      </trkpt>
      <trkpt lat="47.652555014938116" lon="7.003312027081847">
        <ele>366.39999999999998</ele>
        <time>2025-04-23T09:48:34Z</time>
      </trkpt>
      <trkpt lat="47.652444038540125" lon="7.003204990178347">
        <ele>366.39999999999998</ele>
        <time>2025-04-23T09:48:35Z</time>
      </trkpt>
      <trkpt lat="47.652358040213585" lon="7.003121003508568">
        <ele>366.39999999999998</ele>
        <time>2025-04-23T09:48:36Z</time>
      </trkpt>
      <trkpt lat="47.652255026623607" lon="7.003022013232112">
        <ele>366.39999999999998</ele>
        <time>2025-04-23T09:48:37Z</time>
      </trkpt>
      <trkpt lat="47.652137009426951" lon="7.002907013520598">
        <ele>366.39999999999998</ele>
        <time>2025-04-23T09:48:38Z</time>
      </trkpt>
      <trkpt lat="47.652007006108761" lon="7.002782039344311">
        <ele>366.88</ele>
        <time>2025-04-23T09:48:39Z</time>
      </trkpt>
      <trkpt lat="47.65065299347043" lon="7.001347979530692">
        <ele>369.27999999999997</ele>
        <time>2025-04-23T09:48:48Z</time>
      </trkpt>
      <trkpt lat="47.649145005270839" lon="6.999778971076012">
        <ele>368.31999999999999</ele>
        <time>2025-04-23T09:48:57Z</time>
      </trkpt>
      <trkpt lat="47.647581025958061" lon="6.99824801646173">
        <ele>364.48000000000002</ele>
        <time>2025-04-23T09:49:06Z</time>
      </trkpt>
      <trkpt lat="47.646474028006196" lon="6.997640999034047">
        <ele>361.11000000000001</ele>
        <time>2025-04-23T09:49:12Z</time>
      </trkpt>
      <trkpt lat="47.646148977801204" lon="6.997422985732555">
        <ele>360.63</ele>
        <time>2025-04-23T09:49:14Z</time>
      </trkpt>
      <trkpt lat="47.64601000584662" lon="6.997326007112861">
        <ele>360.14999999999998</ele>
        <time>2025-04-23T09:49:15Z</time>
      </trkpt>
      <trkpt lat="47.645872961729765" lon="6.997142024338245">
        <ele>360.14999999999998</ele>
        <time>2025-04-23T09:49:16Z</time>
      </trkpt>
      <trkpt lat="47.645771037787199" lon="6.997005986049771">
        <ele>359.67000000000002</ele>
        <time>2025-04-23T09:49:17Z</time>
      </trkpt>
      <trkpt lat="47.64568897895515" lon="6.996896015480161">
        <ele>359.67000000000002</ele>
        <time>2025-04-23T09:49:18Z</time>
      </trkpt>
      <trkpt lat="47.645650003105402" lon="6.996748996898532">
        <ele>359.67000000000002</ele>
        <time>2025-04-23T09:49:19Z</time>
      </trkpt>
      <trkpt lat="47.645614966750145" lon="6.996617987751961">
        <ele>359.19</ele>
        <time>2025-04-23T09:49:20Z</time>
      </trkpt>
      <trkpt lat="47.6455810200423" lon="6.996488990262151">
        <ele>359.19</ele>
        <time>2025-04-23T09:49:21Z</time>
      </trkpt>
      <trkpt lat="47.645596023648977" lon="6.996413972228766">
        <ele>358.23000000000002</ele>
        <time>2025-04-23T09:49:22Z</time>
      </trkpt>
      <trkpt lat="47.645643968135118" lon="6.996342977508903">
        <ele>357.75</ele>
        <time>2025-04-23T09:49:23Z</time>
      </trkpt>
      <trkpt lat="47.645720997825265" lon="6.996270976960659">
        <ele>357.75</ele>
        <time>2025-04-23T09:49:24Z</time>
      </trkpt>
      <trkpt lat="47.645814036950469" lon="6.996183972805738">
        <ele>357.75</ele>
        <time>2025-04-23T09:49:25Z</time>
      </trkpt>
      <trkpt lat="47.64592501334846" lon="6.99608095921576">
        <ele>357.26999999999998</ele>
        <time>2025-04-23T09:49:26Z</time>
      </trkpt>
      <trkpt lat="47.646050993353128" lon="6.996032008901238">
        <ele>356.79000000000002</ele>
        <time>2025-04-23T09:49:27Z</time>
      </trkpt>
      <trkpt lat="47.646193988621235" lon="6.995976017788053">
        <ele>356.79000000000002</ele>
        <time>2025-04-23T09:49:28Z</time>
      </trkpt>
      <trkpt lat="47.646347964182496" lon="6.995925977826119">
        <ele>356.31</ele>
        <time>2025-04-23T09:49:29Z</time>
      </trkpt>
      <trkpt lat="47.647577002644539" lon="6.995924971997738">
        <ele>355.33999999999997</ele>
        <time>2025-04-23T09:49:36Z</time>
      </trkpt>
      <trkpt lat="47.648950964212418" lon="6.996705997735262">
        <ele>358.23000000000002</ele>
        <time>2025-04-23T09:49:44Z</time>
      </trkpt>
      <trkpt lat="47.650474961847067" lon="6.998277017846704">
        <ele>363.51999999999998</ele>
        <time>2025-04-23T09:49:55Z</time>
      </trkpt>
      <trkpt lat="47.651697965338826" lon="6.999458028003573">
        <ele>364.95999999999998</ele>
        <time>2025-04-23T09:50:05Z</time>
      </trkpt>
      <trkpt lat="47.651951014995575" lon="6.999609991908073">
        <ele>365.44</ele>
        <time>2025-04-23T09:50:08Z</time>
      </trkpt>
      <trkpt lat="47.652033995836973" lon="6.999620972201228">
        <ele>365.44</ele>
        <time>2025-04-23T09:50:09Z</time>
      </trkpt>
      <trkpt lat="47.65211395919323" lon="6.999620972201228">
        <ele>365.44</ele>
        <time>2025-04-23T09:50:10Z</time>
      </trkpt>
      <trkpt lat="47.652194006368518" lon="6.999606974422932">
        <ele>365.44</ele>
        <time>2025-04-23T09:50:11Z</time>
      </trkpt>
      <trkpt lat="47.652271036058664" lon="6.999562969431281">
        <ele>365.44</ele>
        <time>2025-04-23T09:50:12Z</time>
      </trkpt>
      <trkpt lat="47.652345970273018" lon="6.999509995803237">
        <ele>365.44</ele>
        <time>2025-04-23T09:50:13Z</time>
      </trkpt>
      <trkpt lat="47.65320997685194" lon="6.998695023357868">
        <ele>364.95999999999998</ele>
        <time>2025-04-23T09:50:24Z</time>
      </trkpt>
      <trkpt lat="47.65337803401053" lon="6.998536018654704">
        <ele>364</ele>
        <time>2025-04-23T09:50:26Z</time>
      </trkpt>
      <trkpt lat="47.653460009023547" lon="6.998457983136177">
        <ele>364</ele>
        <time>2025-04-23T09:50:27Z</time>
      </trkpt>
      <trkpt lat="47.653862005099654" lon="6.998077025637031">
        <ele>362.06999999999999</ele>
        <time>2025-04-23T09:50:32Z</time>
      </trkpt>
      <trkpt lat="47.653946997597814" lon="6.998003013432026">
        <ele>361.58999999999997</ele>
        <time>2025-04-23T09:50:33Z</time>
      </trkpt>
      <trkpt lat="47.654035007581115" lon="6.997929001227021">
        <ele>360.63</ele>
        <time>2025-04-23T09:50:34Z</time>
      </trkpt>
      <trkpt lat="47.654127040877938" lon="6.997851971536875">
        <ele>360.14999999999998</ele>
        <time>2025-04-23T09:50:35Z</time>
      </trkpt>
      <trkpt lat="47.65421899035573" lon="6.997773014008999">
        <ele>359.67000000000002</ele>
        <time>2025-04-23T09:50:36Z</time>
      </trkpt>
      <trkpt lat="47.654311023652554" lon="6.997695984318852">
        <ele>358.70999999999998</ele>
        <time>2025-04-23T09:50:37Z</time>
      </trkpt>
      <trkpt lat="47.654572036117315" lon="6.9974759593606">
        <ele>357.26999999999998</ele>
        <time>2025-04-23T09:50:40Z</time>
      </trkpt>
      <trkpt lat="47.654644958674908" lon="6.997354002669454">
        <ele>357.26999999999998</ele>
        <time>2025-04-23T09:50:41Z</time>
      </trkpt>
      <trkpt lat="47.654713019728661" lon="6.997241014614701">
        <ele>356.79000000000002</ele>
        <time>2025-04-23T09:50:42Z</time>
      </trkpt>
      <trkpt lat="47.654778985306621" lon="6.997130960226059">
        <ele>356.31</ele>
        <time>2025-04-23T09:50:43Z</time>
      </trkpt>
      <trkpt lat="47.654842017218471" lon="6.997025012969971">
        <ele>355.82999999999998</ele>
        <time>2025-04-23T09:50:44Z</time>
      </trkpt>
      <trkpt lat="47.655044021084905" lon="6.996688982471824">
        <ele>354.86000000000001</ele>
        <time>2025-04-23T09:50:50Z</time>
      </trkpt>
      <trkpt lat="47.655057013034821" lon="6.996668027713895">
        <ele>354.86000000000001</ele>
        <time>2025-04-23T09:50:52Z</time>
      </trkpt>
      <trkpt lat="47.655045026913285" lon="6.996584041044116">
        <ele>354.86000000000001</ele>
        <time>2025-04-23T09:50:53Z</time>
      </trkpt>
      <trkpt lat="47.655003033578396" lon="6.99655001051724">
        <ele>354.86000000000001</ele>
        <time>2025-04-23T09:50:54Z</time>
      </trkpt>
      <trkpt lat="47.654942013323307" lon="6.996500976383686">
        <ele>354.86000000000001</ele>
        <time>2025-04-23T09:50:55Z</time>
      </trkpt>
      <trkpt lat="47.654869006946683" lon="6.996442973613739">
        <ele>354.86000000000001</ele>
        <time>2025-04-23T09:50:56Z</time>
      </trkpt>
      <trkpt lat="47.654790971428156" lon="6.996380025520921">
        <ele>355.33999999999997</ele>
        <time>2025-04-23T09:50:57Z</time>
      </trkpt>
      <trkpt lat="47.654730034992099" lon="6.996240969747305">
        <ele>355.33999999999997</ele>
        <time>2025-04-23T09:50:58Z</time>
      </trkpt>
      <trkpt lat="47.654688963666558" lon="6.996103003621101">
        <ele>354.86000000000001</ele>
        <time>2025-04-23T09:50:59Z</time>
      </trkpt>
      <trkpt lat="47.654649987816811" lon="6.99597098864615">
        <ele>354.86000000000001</ele>
        <time>2025-04-23T09:51:00Z</time>
      </trkpt>
      <trkpt lat="47.654612017795444" lon="6.995844002813101">
        <ele>354.38</ele>
        <time>2025-04-23T09:51:01Z</time>
      </trkpt>
      <trkpt lat="47.654573963955045" lon="6.995723973959684">
        <ele>353.89999999999998</ele>
        <time>2025-04-23T09:51:02Z</time>
      </trkpt>
      <trkpt lat="47.654457036405802" lon="6.995388027280569">
        <ele>353.42000000000002</ele>
        <time>2025-04-23T09:51:05Z</time>
      </trkpt>
      <trkpt lat="47.654420994222164" lon="6.99528400786221">
        <ele>353.42000000000002</ele>
        <time>2025-04-23T09:51:06Z</time>
      </trkpt>
      <trkpt lat="47.653675004839897" lon="6.994048012420535">
        <ele>353.42000000000002</ele>
        <time>2025-04-23T09:51:19Z</time>
      </trkpt>
      <trkpt lat="47.652675965800881" lon="6.992439022287726">
        <ele>352.94</ele>
        <time>2025-04-23T09:51:32Z</time>
      </trkpt>
      <trkpt lat="47.652395004406571" lon="6.991916997358203">
        <ele>353.89999999999998</ele>
        <time>2025-04-23T09:51:36Z</time>
      </trkpt>
      <trkpt lat="47.652136003598571" lon="6.991333030164242">
        <ele>354.38</ele>
        <time>2025-04-23T09:51:38Z</time>
      </trkpt>
      <trkpt lat="47.652038019150496" lon="6.991154998540878">
        <ele>354.38</ele>
        <time>2025-04-23T09:51:39Z</time>
      </trkpt>
      <trkpt lat="47.651917990297079" lon="6.99100898578763">
        <ele>354.38</ele>
        <time>2025-04-23T09:51:40Z</time>
      </trkpt>
      <trkpt lat="47.651781029999256" lon="6.990890968590975">
        <ele>354.38</ele>
        <time>2025-04-23T09:51:41Z</time>
      </trkpt>
      <trkpt lat="47.651637028902769" lon="6.990780998021364">
        <ele>354.38</ele>
        <time>2025-04-23T09:51:42Z</time>
      </trkpt>
      <trkpt lat="47.651494033634663" lon="6.990671027451754">
        <ele>354.38</ele>
        <time>2025-04-23T09:51:43Z</time>
      </trkpt>
      <trkpt lat="47.651351038366556" lon="6.990561978891492">
        <ele>353.89999999999998</ele>
        <time>2025-04-23T09:51:44Z</time>
      </trkpt>
      <trkpt lat="47.650100961327553" lon="6.989636030048132">
        <ele>352.94</ele>
        <time>2025-04-23T09:51:53Z</time>
      </trkpt>
      <trkpt lat="47.649196973070502" lon="6.989000011235476">
        <ele>355.33999999999997</ele>
        <time>2025-04-23T09:52:02Z</time>
      </trkpt>
      <trkpt lat="47.648679977282882" lon="6.988685019314289">
        <ele>355.82999999999998</ele>
        <time>2025-04-23T09:52:10Z</time>
      </trkpt>
      <trkpt lat="47.648608982563019" lon="6.988641014322639">
        <ele>356.31</ele>
        <time>2025-04-23T09:52:11Z</time>
      </trkpt>
      <trkpt lat="47.648541005328298" lon="6.98860396631062">
        <ele>356.31</ele>
        <time>2025-04-23T09:52:12Z</time>
      </trkpt>
      <trkpt lat="47.648466993123293" lon="6.988572031259537">
        <ele>356.31</ele>
        <time>2025-04-23T09:52:13Z</time>
      </trkpt>
      <trkpt lat="47.648391975089908" lon="6.988539006561041">
        <ele>356.79000000000002</ele>
        <time>2025-04-23T09:52:14Z</time>
      </trkpt>
      <trkpt lat="47.648316035047174" lon="6.988504976034164">
        <ele>356.79000000000002</ele>
        <time>2025-04-23T09:52:15Z</time>
      </trkpt>
      <trkpt lat="47.648220984265208" lon="6.988462982699275">
        <ele>356.79000000000002</ele>
        <time>2025-04-23T09:52:16Z</time>
      </trkpt>
      <trkpt lat="47.648157030344009" lon="6.988462982699275">
        <ele>356.79000000000002</ele>
        <time>2025-04-23T09:52:17Z</time>
      </trkpt>
      <trkpt lat="47.648069020360708" lon="6.988462982699275">
        <ele>356.79000000000002</ele>
        <time>2025-04-23T09:52:18Z</time>
      </trkpt>
      <trkpt lat="47.647535009309649" lon="6.988411014899612">
        <ele>355.33999999999997</ele>
        <time>2025-04-23T09:52:24Z</time>
      </trkpt>
      <trkpt lat="47.647454040125012" lon="6.988363992422819">
        <ele>354.86000000000001</ele>
        <time>2025-04-23T09:52:25Z</time>
      </trkpt>
      <trkpt lat="47.647380027920008" lon="6.988292997702956">
        <ele>354.86000000000001</ele>
        <time>2025-04-23T09:52:26Z</time>
      </trkpt>
      <trkpt lat="47.646500011906028" lon="6.987492023035884">
        <ele>355.33999999999997</ele>
        <time>2025-04-23T09:52:37Z</time>
      </trkpt>
      <trkpt lat="47.646166998893023" lon="6.987209971994162">
        <ele>355.33999999999997</ele>
        <time>2025-04-23T09:52:41Z</time>
      </trkpt>
      <trkpt lat="47.646103966981173" lon="6.98716102167964">
        <ele>355.33999999999997</ele>
        <time>2025-04-23T09:52:42Z</time>
      </trkpt>
      <trkpt lat="47.646050993353128" lon="6.98711902834475">
        <ele>355.82999999999998</ele>
        <time>2025-04-23T09:52:43Z</time>
      </trkpt>
      <trkpt lat="47.646074965596199" lon="6.986767994239926">
        <ele>355.82999999999998</ele>
        <time>2025-04-23T09:52:44Z</time>
      </trkpt>
      <trkpt lat="47.646074965596199" lon="6.986767994239926">
        <ele>355.82999999999998</ele>
        <time>2025-04-23T09:52:45Z</time>
      </trkpt>
      <trkpt lat="47.646086029708385" lon="6.986709991469979">
        <ele>355.82999999999998</ele>
        <time>2025-04-23T09:52:46Z</time>
      </trkpt>
      <trkpt lat="47.646340001374483" lon="6.985339969396591">
        <ele>356.31</ele>
        <time>2025-04-23T09:52:56Z</time>
      </trkpt>
      <trkpt lat="47.646706039085984" lon="6.983364019542933">
        <ele>359.67000000000002</ele>
        <time>2025-04-23T09:53:08Z</time>
      </trkpt>
      <trkpt lat="47.646733028814197" lon="6.983136031776667">
        <ele>360.14999999999998</ele>
        <time>2025-04-23T09:53:10Z</time>
      </trkpt>
      <trkpt lat="47.646746020764112" lon="6.983025977388024">
        <ele>360.14999999999998</ele>
        <time>2025-04-23T09:53:11Z</time>
      </trkpt>
      <trkpt lat="47.64676102437079" lon="6.982904020696878">
        <ele>360.63</ele>
        <time>2025-04-23T09:53:12Z</time>
      </trkpt>
      <trkpt lat="47.646628003567457" lon="6.98155403137207">
        <ele>364.95999999999998</ele>
        <time>2025-04-23T09:53:20Z</time>
      </trkpt>
      <trkpt lat="47.646425999701023" lon="6.980854980647564">
        <ele>366.39999999999998</ele>
        <time>2025-04-23T09:53:23Z</time>
      </trkpt>
      <trkpt lat="47.646338995546103" lon="6.980624981224537">
        <ele>366.88</ele>
        <time>2025-04-23T09:53:24Z</time>
      </trkpt>
      <trkpt lat="47.645610021427274" lon="6.978513998910785">
        <ele>369.75999999999999</ele>
        <time>2025-04-23T09:53:33Z</time>
      </trkpt>
      <trkpt lat="47.645530980080366" lon="6.978003960102797">
        <ele>370.24000000000001</ele>
        <time>2025-04-23T09:53:35Z</time>
      </trkpt>
      <trkpt lat="47.645522011443973" lon="6.97775099426508">
        <ele>370.24000000000001</ele>
        <time>2025-04-23T09:53:36Z</time>
      </trkpt>
      <trkpt lat="47.645512958988547" lon="6.977499034255743">
        <ele>370.24000000000001</ele>
        <time>2025-04-23T09:53:37Z</time>
      </trkpt>
      <trkpt lat="47.645504996180534" lon="6.977250007912517">
        <ele>370.73000000000002</ele>
        <time>2025-04-23T09:53:38Z</time>
      </trkpt>
      <trkpt lat="47.64549502171576" lon="6.976983966305852">
        <ele>370.73000000000002</ele>
        <time>2025-04-23T09:53:39Z</time>
      </trkpt>
      <trkpt lat="47.645862987264991" lon="6.974561009556055">
        <ele>373.13</ele>
        <time>2025-04-23T09:53:49Z</time>
      </trkpt>
      <trkpt lat="47.646144032478333" lon="6.973142959177494">
        <ele>376.00999999999999</ele>
        <time>2025-04-23T09:53:55Z</time>
      </trkpt>
      <trkpt lat="47.646230030804873" lon="6.972950007766485">
        <ele>376.97000000000003</ele>
        <time>2025-04-23T09:53:56Z</time>
      </trkpt>
      <trkpt lat="47.646336983889341" lon="6.972760995849967">
        <ele>377.44999999999999</ele>
        <time>2025-04-23T09:53:57Z</time>
      </trkpt>
      <trkpt lat="47.647514976561069" lon="6.971255019307137">
        <ele>379.86000000000001</ele>
        <time>2025-04-23T09:54:06Z</time>
      </trkpt>
      <trkpt lat="47.647626958787441" lon="6.971058966591954">
        <ele>379.86000000000001</ele>
        <time>2025-04-23T09:54:07Z</time>
      </trkpt>
      <trkpt lat="47.647726032882929" lon="6.970851011574268">
        <ele>379.38</ele>
        <time>2025-04-23T09:54:08Z</time>
      </trkpt>
      <trkpt lat="47.648549973964691" lon="6.968913031741977">
        <ele>378.42000000000002</ele>
        <time>2025-04-23T09:54:17Z</time>
      </trkpt>
      <trkpt lat="47.649305015802383" lon="6.967097008600831">
        <ele>376.49000000000001</ele>
        <time>2025-04-23T09:54:25Z</time>
      </trkpt>
      <trkpt lat="47.650301959365606" lon="6.964699029922485">
        <ele>367.83999999999997</ele>
        <time>2025-04-23T09:54:35Z</time>
      </trkpt>
      <trkpt lat="47.651126990094781" lon="6.962504982948303">
        <ele>361.58999999999997</ele>
        <time>2025-04-23T09:54:44Z</time>
      </trkpt>
      <trkpt lat="47.651821011677384" lon="6.960510006174445">
        <ele>356.79000000000002</ele>
        <time>2025-04-23T09:54:52Z</time>
      </trkpt>
      <trkpt lat="47.652357034385204" lon="6.958735976368189">
        <ele>355.33999999999997</ele>
        <time>2025-04-23T09:54:59Z</time>
      </trkpt>
      <trkpt lat="47.652468010783195" lon="6.957610035315156">
        <ele>355.33999999999997</ele>
        <time>2025-04-23T09:55:03Z</time>
      </trkpt>
      <trkpt lat="47.652458036318421" lon="6.957323960959911">
        <ele>354.86000000000001</ele>
        <time>2025-04-23T09:55:04Z</time>
      </trkpt>
      <trkpt lat="47.652254020795226" lon="6.954787010326982">
        <ele>355.82999999999998</ele>
        <time>2025-04-23T09:55:13Z</time>
      </trkpt>
      <trkpt lat="47.652056962251663" lon="6.951957028359175">
        <ele>357.26999999999998</ele>
        <time>2025-04-23T09:55:23Z</time>
      </trkpt>
      <trkpt lat="47.65187599696219" lon="6.949458969756961">
        <ele>354.38</ele>
        <time>2025-04-23T09:55:32Z</time>
      </trkpt>
      <trkpt lat="47.651760997250676" lon="6.948079979047179">
        <ele>353.42000000000002</ele>
        <time>2025-04-23T09:55:37Z</time>
      </trkpt>
      <trkpt lat="47.65168396756053" lon="6.947834976017475">
        <ele>353.89999999999998</ele>
        <time>2025-04-23T09:55:38Z</time>
      </trkpt>
      <trkpt lat="47.651606015861034" lon="6.947590978816152">
        <ele>354.86000000000001</ele>
        <time>2025-04-23T09:55:39Z</time>
      </trkpt>
      <trkpt lat="47.650858014822006" lon="6.945281010121107">
        <ele>363.04000000000002</ele>
        <time>2025-04-23T09:55:49Z</time>
      </trkpt>
      <trkpt lat="47.650028960779309" lon="6.943308999761939">
        <ele>360.14999999999998</ele>
        <time>2025-04-23T09:55:58Z</time>
      </trkpt>
      <trkpt lat="47.648863960057497" lon="6.94081898778677">
        <ele>351.98000000000002</ele>
        <time>2025-04-23T09:56:09Z</time>
      </trkpt>
      <trkpt lat="47.648748038336635" lon="6.940660988911986">
        <ele>351.01999999999998</ele>
        <time>2025-04-23T09:56:10Z</time>
      </trkpt>
      <trkpt lat="47.648635972291231" lon="6.94051799364388">
        <ele>350.06</ele>
        <time>2025-04-23T09:56:11Z</time>
      </trkpt>
      <trkpt lat="47.648503035306931" lon="6.940428977832198">
        <ele>349.57999999999998</ele>
        <time>2025-04-23T09:56:12Z</time>
      </trkpt>
      <trkpt lat="47.648368002846837" lon="6.940339040011168">
        <ele>349.10000000000002</ele>
        <time>2025-04-23T09:56:13Z</time>
      </trkpt>
      <trkpt lat="47.648235987871885" lon="6.940243989229202">
        <ele>348.62</ele>
        <time>2025-04-23T09:56:14Z</time>
      </trkpt>
      <trkpt lat="47.64811503700912" lon="6.940132007002831">
        <ele>348.13</ele>
        <time>2025-04-23T09:56:15Z</time>
      </trkpt>
      <trkpt lat="47.648001965135336" lon="6.940026981756091">
        <ele>347.64999999999998</ele>
        <time>2025-04-23T09:56:16Z</time>
      </trkpt>
      <trkpt lat="47.647914960980415" lon="6.939898990094662">
        <ele>347.17000000000002</ele>
        <time>2025-04-23T09:56:17Z</time>
      </trkpt>
      <trkpt lat="47.647846983745694" lon="6.939772004261613">
        <ele>346.20999999999998</ele>
        <time>2025-04-23T09:56:18Z</time>
      </trkpt>
      <trkpt lat="47.647770037874579" lon="6.939625991508365">
        <ele>345.73000000000002</ele>
        <time>2025-04-23T09:56:19Z</time>
      </trkpt>
      <trkpt lat="47.6477309782058" lon="6.939491964876652">
        <ele>345.25</ele>
        <time>2025-04-23T09:56:20Z</time>
      </trkpt>
      <trkpt lat="47.647684961557388" lon="6.93933698348701">
        <ele>345.25</ele>
        <time>2025-04-23T09:56:21Z</time>
      </trkpt>
      <trkpt lat="47.647637017071247" lon="6.939174961298704">
        <ele>344.76999999999998</ele>
        <time>2025-04-23T09:56:22Z</time>
      </trkpt>
      <trkpt lat="47.647297969087958" lon="6.937845004722476">
        <ele>345.25</ele>
        <time>2025-04-23T09:56:30Z</time>
      </trkpt>
      <trkpt lat="47.646950036287308" lon="6.936553018167615">
        <ele>347.64999999999998</ele>
        <time>2025-04-23T09:56:41Z</time>
      </trkpt>
      <trkpt lat="47.646878035739064" lon="6.936283959075809">
        <ele>348.13</ele>
        <time>2025-04-23T09:56:43Z</time>
      </trkpt>
      <trkpt lat="47.646610988304019" lon="6.935280980542302">
        <ele>350.06</ele>
        <time>2025-04-23T09:56:50Z</time>
      </trkpt>
      <trkpt lat="47.646574024111032" lon="6.935129016637802">
        <ele>350.54000000000002</ele>
        <time>2025-04-23T09:56:51Z</time>
      </trkpt>
      <trkpt lat="47.646327009424567" lon="6.933968961238861">
        <ele>357.26999999999998</ele>
        <time>2025-04-23T09:56:59Z</time>
      </trkpt>
      <trkpt lat="47.646314017474651" lon="6.933818003162742">
        <ele>358.23000000000002</ele>
        <time>2025-04-23T09:57:00Z</time>
      </trkpt>
      <trkpt lat="47.646275041624904" lon="6.933367978781462">
        <ele>360.63</ele>
        <time>2025-04-23T09:57:03Z</time>
      </trkpt>
      <trkpt lat="47.646261965855956" lon="6.933220038190484">
        <ele>361.58999999999997</ele>
        <time>2025-04-23T09:57:04Z</time>
      </trkpt>
      <trkpt lat="47.64624897390604" lon="6.933072013780475">
        <ele>362.55000000000001</ele>
        <time>2025-04-23T09:57:05Z</time>
      </trkpt>
      <trkpt lat="47.646206980571151" lon="6.932939998805523">
        <ele>364</ele>
        <time>2025-04-23T09:57:06Z</time>
      </trkpt>
      <trkpt lat="47.646121988072991" lon="6.932872021570802">
        <ele>364.95999999999998</ele>
        <time>2025-04-23T09:57:07Z</time>
      </trkpt>
      <trkpt lat="47.646031966432929" lon="6.93280597217381">
        <ele>365.92000000000002</ele>
        <time>2025-04-23T09:57:08Z</time>
      </trkpt>
      <trkpt lat="47.645948985591531" lon="6.932757021859288">
        <ele>366.88</ele>
        <time>2025-04-23T09:57:09Z</time>
      </trkpt>
      <trkpt lat="47.645846977829933" lon="6.932742018252611">
        <ele>367.36000000000001</ele>
        <time>2025-04-23T09:57:10Z</time>
      </trkpt>
      <trkpt lat="47.64545101672411" lon="6.932658031582832">
        <ele>368.80000000000001</ele>
        <time>2025-04-23T09:57:14Z</time>
      </trkpt>
      <trkpt lat="47.645375998690724" lon="6.932615032419562">
        <ele>368.80000000000001</ele>
        <time>2025-04-23T09:57:15Z</time>
      </trkpt>
      <trkpt lat="47.64534498564899" lon="6.932565998286009">
        <ele>368.31999999999999</ele>
        <time>2025-04-23T09:57:16Z</time>
      </trkpt>
      <trkpt lat="47.64534498564899" lon="6.932446975260973">
        <ele>367.83999999999997</ele>
        <time>2025-04-23T09:57:17Z</time>
      </trkpt>
      <trkpt lat="47.645360995084047" lon="6.932325018569827">
        <ele>367.83999999999997</ele>
        <time>2025-04-23T09:57:18Z</time>
      </trkpt>
      <trkpt lat="47.645386978983879" lon="6.932177999988198">
        <ele>367.36000000000001</ele>
        <time>2025-04-23T09:57:19Z</time>
      </trkpt>
      <trkpt lat="47.645413968712091" lon="6.932022012770176">
        <ele>366.88</ele>
        <time>2025-04-23T09:57:20Z</time>
      </trkpt>
      <trkpt lat="47.645440958440304" lon="6.931863008067012">
        <ele>366.88</ele>
        <time>2025-04-23T09:57:21Z</time>
      </trkpt>
      <trkpt lat="47.645720997825265" lon="6.930644027888775">
        <ele>364.48000000000002</ele>
        <time>2025-04-23T09:57:29Z</time>
      </trkpt>
      <trkpt lat="47.645636005327106" lon="6.929200999438763">
        <ele>363.51999999999998</ele>
        <time>2025-04-23T09:57:38Z</time>
      </trkpt>
      <trkpt lat="47.645463002845645" lon="6.92749603651464">
        <ele>365.44</ele>
        <time>2025-04-23T09:57:49Z</time>
      </trkpt>
      <trkpt lat="47.645453028380871" lon="6.927140979096293">
        <ele>366.39999999999998</ele>
        <time>2025-04-23T09:57:52Z</time>
      </trkpt>
      <trkpt lat="47.645389996469021" lon="6.925847986713052">
        <ele>368.80000000000001</ele>
        <time>2025-04-23T09:58:01Z</time>
      </trkpt>
      <trkpt lat="47.645328976213932" lon="6.92543501034379">
        <ele>369.27999999999997</ele>
        <time>2025-04-23T09:58:04Z</time>
      </trkpt>
      <trkpt lat="47.644847016781569" lon="6.923904977738857">
        <ele>372.64999999999998</ele>
        <time>2025-04-23T09:58:15Z</time>
      </trkpt>
      <trkpt lat="47.644627997651696" lon="6.922526992857456">
        <ele>376.00999999999999</ele>
        <time>2025-04-23T09:58:24Z</time>
      </trkpt>
      <trkpt lat="47.644607964903116" lon="6.922369999811053">
        <ele>376.00999999999999</ele>
        <time>2025-04-23T09:58:25Z</time>
      </trkpt>
      <trkpt lat="47.644492965191603" lon="6.921758959069848">
        <ele>376.00999999999999</ele>
        <time>2025-04-23T09:58:29Z</time>
      </trkpt>
      <trkpt lat="47.644575024023652" lon="6.921605989336968">
        <ele>375.52999999999997</ele>
        <time>2025-04-23T09:58:30Z</time>
      </trkpt>
      <trkpt lat="47.644588015973568" lon="6.921444972977042">
        <ele>375.05000000000001</ele>
        <time>2025-04-23T09:58:31Z</time>
      </trkpt>
      <trkpt lat="47.644559014588594" lon="6.921312035992742">
        <ele>375.05000000000001</ele>
        <time>2025-04-23T09:58:32Z</time>
      </trkpt>
      <trkpt lat="47.64455096796155" lon="6.921280017122626">
        <ele>374.08999999999997</ele>
        <time>2025-04-23T09:58:33Z</time>
      </trkpt>
      <trkpt lat="47.644439991563559" lon="6.921041971072555">
        <ele>374.08999999999997</ele>
        <time>2025-04-23T09:58:34Z</time>
      </trkpt>
      <trkpt lat="47.644456000998616" lon="6.920906016603112">
        <ele>373.61000000000001</ele>
        <time>2025-04-23T09:58:35Z</time>
      </trkpt>
      <trkpt lat="47.644429011270404" lon="6.920608039945364">
        <ele>373.13</ele>
        <time>2025-04-23T09:58:37Z</time>
      </trkpt>
      <trkpt lat="47.644403027370572" lon="6.920453980565071">
        <ele>372.64999999999998</ele>
        <time>2025-04-23T09:58:38Z</time>
      </trkpt>
      <trkpt lat="47.644354999065399" lon="6.920308973640204">
        <ele>372.64999999999998</ele>
        <time>2025-04-23T09:58:39Z</time>
      </trkpt>
      <trkpt lat="47.643715040758252" lon="6.91845003515482">
        <ele>371.69</ele>
        <time>2025-04-23T09:58:50Z</time>
      </trkpt>
      <trkpt lat="47.64291800558567" lon="6.916083991527557">
        <ele>373.13</ele>
        <time>2025-04-23T09:59:02Z</time>
      </trkpt>
      <trkpt lat="47.642261032015085" lon="6.914117010310292">
        <ele>378.42000000000002</ele>
        <time>2025-04-23T09:59:13Z</time>
      </trkpt>
      <trkpt lat="47.642104960978031" lon="6.913580987602472">
        <ele>379.38</ele>
        <time>2025-04-23T09:59:18Z</time>
      </trkpt>
      <trkpt lat="47.642104960978031" lon="6.913469005376101">
        <ele>379.38</ele>
        <time>2025-04-23T09:59:20Z</time>
      </trkpt>
      <trkpt lat="47.642104960978031" lon="6.913227019831538">
        <ele>379.38</ele>
        <time>2025-04-23T09:59:21Z</time>
      </trkpt>
      <trkpt lat="47.642042012885213" lon="6.91312400624156">
        <ele>379.38</ele>
        <time>2025-04-23T09:59:22Z</time>
      </trkpt>
      <trkpt lat="47.641998007893562" lon="6.91306097432971">
        <ele>378.89999999999998</ele>
        <time>2025-04-23T09:59:23Z</time>
      </trkpt>
      <trkpt lat="47.641900023445487" lon="6.913046976551414">
        <ele>378.89999999999998</ele>
        <time>2025-04-23T09:59:24Z</time>
      </trkpt>
      <trkpt lat="47.641847971826792" lon="6.913040019571781">
        <ele>378.42000000000002</ele>
        <time>2025-04-23T09:59:25Z</time>
      </trkpt>
      <trkpt lat="47.641727020964026" lon="6.912912027910352">
        <ele>378.42000000000002</ele>
        <time>2025-04-23T09:59:26Z</time>
      </trkpt>
      <trkpt lat="47.641645967960358" lon="6.912826029583812">
        <ele>378.42000000000002</ele>
        <time>2025-04-23T09:59:27Z</time>
      </trkpt>
      <trkpt lat="47.641559969633818" lon="6.912736007943749">
        <ele>378.42000000000002</ele>
        <time>2025-04-23T09:59:28Z</time>
      </trkpt>
      <trkpt lat="47.641460979357362" lon="6.912631988525391">
        <ele>378.42000000000002</ele>
        <time>2025-04-23T09:59:29Z</time>
      </trkpt>
      <trkpt lat="47.641401970759034" lon="6.912494022399187">
        <ele>378.42000000000002</ele>
        <time>2025-04-23T09:59:30Z</time>
      </trkpt>
      <trkpt lat="47.640742985531688" lon="6.910755028948188">
        <ele>380.33999999999997</ele>
        <time>2025-04-23T09:59:40Z</time>
      </trkpt>
      <trkpt lat="47.640057010576129" lon="6.9085250236094">
        <ele>384.66000000000003</ele>
        <time>2025-04-23T09:59:50Z</time>
      </trkpt>
      <trkpt lat="47.639357037842274" lon="6.906058983877301">
        <ele>382.25999999999999</ele>
        <time>2025-04-23T10:00:00Z</time>
      </trkpt>
      <trkpt lat="47.638876000419259" lon="6.903716996312141">
        <ele>376.97000000000003</ele>
        <time>2025-04-23T10:00:09Z</time>
      </trkpt>
      <trkpt lat="47.638610964640975" lon="6.901766024529934">
        <ele>374.56999999999999</ele>
        <time>2025-04-23T10:00:16Z</time>
      </trkpt>
      <trkpt lat="47.638542987406254" lon="6.901493025943637">
        <ele>374.08999999999997</ele>
        <time>2025-04-23T10:00:17Z</time>
      </trkpt>
      <trkpt lat="47.638351963832974" lon="6.900989022105932">
        <ele>374.56999999999999</ele>
        <time>2025-04-23T10:00:19Z</time>
      </trkpt>
      <trkpt lat="47.63741796836257" lon="6.899111978709698">
        <ele>379.86000000000001</ele>
        <time>2025-04-23T10:00:28Z</time>
      </trkpt>
      <trkpt lat="47.637317972257733" lon="6.898934030905366">
        <ele>380.81999999999999</ele>
        <time>2025-04-23T10:00:29Z</time>
      </trkpt>
      <trkpt lat="47.63720297254622" lon="6.898790029808879">
        <ele>381.30000000000001</ele>
        <time>2025-04-23T10:00:30Z</time>
      </trkpt>
      <trkpt lat="47.637091996148229" lon="6.898650974035263">
        <ele>381.77999999999997</ele>
        <time>2025-04-23T10:00:31Z</time>
      </trkpt>
      <trkpt lat="47.636811034753919" lon="6.898253001272678">
        <ele>382.74000000000001</ele>
        <time>2025-04-23T10:00:34Z</time>
      </trkpt>
      <trkpt lat="47.636738028377295" lon="6.898124003782868">
        <ele>382.74000000000001</ele>
        <time>2025-04-23T10:00:35Z</time>
      </trkpt>
      <trkpt lat="47.636722018942237" lon="6.897958964109421">
        <ele>382.74000000000001</ele>
        <time>2025-04-23T10:00:36Z</time>
      </trkpt>
      <trkpt lat="47.636706009507179" lon="6.897798031568527">
        <ele>382.74000000000001</ele>
        <time>2025-04-23T10:00:37Z</time>
      </trkpt>
      <trkpt lat="47.636706009507179" lon="6.897644978016615">
        <ele>382.74000000000001</ele>
        <time>2025-04-23T10:00:38Z</time>
      </trkpt>
      <trkpt lat="47.636727970093489" lon="6.897496031597257">
        <ele>382.74000000000001</ele>
        <time>2025-04-23T10:00:39Z</time>
      </trkpt>
      <trkpt lat="47.636765018105507" lon="6.897357981652021">
        <ele>382.74000000000001</ele>
        <time>2025-04-23T10:00:40Z</time>
      </trkpt>
      <trkpt lat="47.636801982298493" lon="6.89722403883934">
        <ele>383.22000000000003</ele>
        <time>2025-04-23T10:00:41Z</time>
      </trkpt>
      <trkpt lat="47.637047991156578" lon="6.895877989009023">
        <ele>383.22000000000003</ele>
        <time>2025-04-23T10:00:52Z</time>
      </trkpt>
      <trkpt lat="47.637054026126862" lon="6.895773969590664">
        <ele>383.69999999999999</ele>
        <time>2025-04-23T10:00:53Z</time>
      </trkpt>
      <trkpt lat="47.637059977278113" lon="6.895680008456111">
        <ele>384.18000000000001</ele>
        <time>2025-04-23T10:00:54Z</time>
      </trkpt>
      <trkpt lat="47.637056959792972" lon="6.895596021786332">
        <ele>384.66000000000003</ele>
        <time>2025-04-23T10:00:55Z</time>
      </trkpt>
      <trkpt lat="47.637042040005326" lon="6.895496025681496">
        <ele>385.14999999999998</ele>
        <time>2025-04-23T10:00:56Z</time>
      </trkpt>
      <trkpt lat="47.637000968679786" lon="6.895426036790013">
        <ele>385.63</ele>
        <time>2025-04-23T10:00:57Z</time>
      </trkpt>
      <trkpt lat="47.63694598339498" lon="6.895341966301203">
        <ele>385.63</ele>
        <time>2025-04-23T10:00:58Z</time>
      </trkpt>
      <trkpt lat="47.636888986453414" lon="6.895254962146282">
        <ele>386.11000000000001</ele>
        <time>2025-04-23T10:00:59Z</time>
      </trkpt>
      <trkpt lat="47.636826960369945" lon="6.895159995183349">
        <ele>386.11000000000001</ele>
        <time>2025-04-23T10:01:00Z</time>
      </trkpt>
      <trkpt lat="47.636422030627728" lon="6.894454993307591">
        <ele>384.66000000000003</ele>
        <time>2025-04-23T10:01:07Z</time>
      </trkpt>
      <trkpt lat="47.636384982615709" lon="6.894338987767696">
        <ele>384.18000000000001</ele>
        <time>2025-04-23T10:01:08Z</time>
      </trkpt>
      <trkpt lat="47.636354975402355" lon="6.894243014976382">
        <ele>384.18000000000001</ele>
        <time>2025-04-23T10:01:09Z</time>
      </trkpt>
      <trkpt lat="47.636371990665793" lon="6.894088033586741">
        <ele>383.69999999999999</ele>
        <time>2025-04-23T10:01:10Z</time>
      </trkpt>
      <trkpt lat="47.636388000100851" lon="6.893943026661873">
        <ele>383.69999999999999</ele>
        <time>2025-04-23T10:01:11Z</time>
      </trkpt>
      <trkpt lat="47.636415995657444" lon="6.893807994201779">
        <ele>383.22000000000003</ele>
        <time>2025-04-23T10:01:12Z</time>
      </trkpt>
      <trkpt lat="47.636467041447759" lon="6.893676985055208">
        <ele>382.74000000000001</ele>
        <time>2025-04-23T10:01:13Z</time>
      </trkpt>
      <trkpt lat="47.636846993118525" lon="6.892752964049578">
        <ele>381.77999999999997</ele>
        <time>2025-04-23T10:01:23Z</time>
      </trkpt>
      <trkpt lat="47.636906001716852" lon="6.892536962404847">
        <ele>382.74000000000001</ele>
        <time>2025-04-23T10:01:30Z</time>
      </trkpt>
      <trkpt lat="47.636961992830038" lon="6.89228299073875">
        <ele>383.22000000000003</ele>
        <time>2025-04-23T10:01:33Z</time>
      </trkpt>
      <trkpt lat="47.636955035850406" lon="6.89120901748538">
        <ele>383.69999999999999</ele>
        <time>2025-04-23T10:01:43Z</time>
      </trkpt>
      <trkpt lat="47.636979008093476" lon="6.890958985313773">
        <ele>383.22000000000003</ele>
        <time>2025-04-23T10:01:45Z</time>
      </trkpt>
      <trkpt lat="47.636998035013676" lon="6.890830993652344">
        <ele>383.22000000000003</ele>
        <time>2025-04-23T10:01:46Z</time>
      </trkpt>
      <trkpt lat="47.637059977278113" lon="6.890704007819295">
        <ele>382.74000000000001</ele>
        <time>2025-04-23T10:01:47Z</time>
      </trkpt>
      <trkpt lat="47.637118985876441" lon="6.890582973137498">
        <ele>382.25999999999999</ele>
        <time>2025-04-23T10:01:48Z</time>
      </trkpt>
      <trkpt lat="47.637176988646388" lon="6.890462022274733">
        <ele>382.25999999999999</ele>
        <time>2025-04-23T10:01:49Z</time>
      </trkpt>
      <trkpt lat="47.637238008901477" lon="6.890336964279413">
        <ele>381.77999999999997</ele>
        <time>2025-04-23T10:01:50Z</time>
      </trkpt>
      <trkpt lat="47.637300034984946" lon="6.890208972617984">
        <ele>381.77999999999997</ele>
        <time>2025-04-23T10:01:51Z</time>
      </trkpt>
      <trkpt lat="47.63735300861299" lon="6.890065977349877">
        <ele>382.25999999999999</ele>
        <time>2025-04-23T10:01:52Z</time>
      </trkpt>
      <trkpt lat="47.637383015826344" lon="6.889914013445377">
        <ele>382.25999999999999</ele>
        <time>2025-04-23T10:01:53Z</time>
      </trkpt>
      <trkpt lat="47.637414028868079" lon="6.889761965721846">
        <ele>382.74000000000001</ele>
        <time>2025-04-23T10:01:54Z</time>
      </trkpt>
      <trkpt lat="47.637427020817995" lon="6.889601033180952">
        <ele>383.22000000000003</ele>
        <time>2025-04-23T10:01:55Z</time>
      </trkpt>
      <trkpt lat="47.637428026646376" lon="6.889445967972279">
        <ele>383.69999999999999</ele>
        <time>2025-04-23T10:01:56Z</time>
      </trkpt>
      <trkpt lat="47.63741604052484" lon="6.888682041317225">
        <ele>387.55000000000001</ele>
        <time>2025-04-23T10:02:01Z</time>
      </trkpt>
      <trkpt lat="47.637393996119499" lon="6.888535022735596">
        <ele>388.50999999999999</ele>
        <time>2025-04-23T10:02:02Z</time>
      </trkpt>
      <trkpt lat="47.637360971421003" lon="6.888400996103883">
        <ele>388.99000000000001</ele>
        <time>2025-04-23T10:02:03Z</time>
      </trkpt>
      <trkpt lat="47.637316966429353" lon="6.888269986957312">
        <ele>389.94999999999999</ele>
        <time>2025-04-23T10:02:04Z</time>
      </trkpt>
      <trkpt lat="47.637256029993296" lon="6.888149036094546">
        <ele>390.43000000000001</ele>
        <time>2025-04-23T10:02:05Z</time>
      </trkpt>
      <trkpt lat="47.637195009738207" lon="6.888028001412749">
        <ele>390.91000000000003</ele>
        <time>2025-04-23T10:02:06Z</time>
      </trkpt>
      <trkpt lat="47.636849004775286" lon="6.887460965663195">
        <ele>391.87</ele>
        <time>2025-04-23T10:02:11Z</time>
      </trkpt>
      <trkpt lat="47.636779015883803" lon="6.88734102062881">
        <ele>391.87</ele>
        <time>2025-04-23T10:02:12Z</time>
      </trkpt>
      <trkpt lat="47.636724030598998" lon="6.887196013703942">
        <ele>391.87</ele>
        <time>2025-04-23T10:02:13Z</time>
      </trkpt>
      <trkpt lat="47.636217009276152" lon="6.885446039959788">
        <ele>394.75999999999999</ele>
        <time>2025-04-23T10:02:24Z</time>
      </trkpt>
      <trkpt lat="47.635781988501549" lon="6.883716015145183">
        <ele>400.52999999999997</ele>
        <time>2025-04-23T10:02:34Z</time>
      </trkpt>
      <trkpt lat="47.635750975459814" lon="6.883605038747191">
        <ele>401.00999999999999</ele>
        <time>2025-04-23T10:02:35Z</time>
      </trkpt>
      <trkpt lat="47.635775031521916" lon="6.883471012115479">
        <ele>401.00999999999999</ele>
        <time>2025-04-23T10:02:36Z</time>
      </trkpt>
      <trkpt lat="47.635775031521916" lon="6.883287029340863">
        <ele>401.49000000000001</ele>
        <time>2025-04-23T10:02:38Z</time>
      </trkpt>
      <trkpt lat="47.635756004601717" lon="6.883180998265743">
        <ele>401.97000000000003</ele>
        <time>2025-04-23T10:02:39Z</time>
      </trkpt>
      <trkpt lat="47.635722979903221" lon="6.883126012980938">
        <ele>402.44999999999999</ele>
        <time>2025-04-23T10:02:40Z</time>
      </trkpt>
      <trkpt lat="47.635710993781686" lon="6.883082007989287">
        <ele>402.93000000000001</ele>
        <time>2025-04-23T10:02:41Z</time>
      </trkpt>
      <trkpt lat="47.635710993781686" lon="6.883020987734199">
        <ele>403.41000000000003</ele>
        <time>2025-04-23T10:02:42Z</time>
      </trkpt>
      <trkpt lat="47.635710993781686" lon="6.88293700106442">
        <ele>403.88999999999999</ele>
        <time>2025-04-23T10:02:43Z</time>
      </trkpt>
      <trkpt lat="47.635710993781686" lon="6.88269903883338">
        <ele>404.37</ele>
        <time>2025-04-23T10:02:45Z</time>
      </trkpt>
      <trkpt lat="47.63574100099504" lon="6.882578004151583">
        <ele>404.37</ele>
        <time>2025-04-23T10:02:46Z</time>
      </trkpt>
      <trkpt lat="47.635776037350297" lon="6.882438026368618">
        <ele>404.85000000000002</ele>
        <time>2025-04-23T10:02:47Z</time>
      </trkpt>
      <trkpt lat="47.635815013200045" lon="6.882301988080144">
        <ele>404.37</ele>
        <time>2025-04-23T10:02:48Z</time>
      </trkpt>
      <trkpt lat="47.635863963514566" lon="6.882165027782321">
        <ele>404.37</ele>
        <time>2025-04-23T10:02:49Z</time>
      </trkpt>
      <trkpt lat="47.635924983769655" lon="6.88199101947248">
        <ele>403.88999999999999</ele>
        <time>2025-04-23T10:02:50Z</time>
      </trkpt>
      <trkpt lat="47.63619395904243" lon="6.881505958735943">
        <ele>402.93000000000001</ele>
        <time>2025-04-23T10:02:54Z</time>
      </trkpt>
      <trkpt lat="47.637319983914495" lon="6.879981039091945">
        <ele>400.52999999999997</ele>
        <time>2025-04-23T10:03:07Z</time>
      </trkpt>
      <trkpt lat="47.638234030455351" lon="6.879158020019531">
        <ele>396.68000000000001</ele>
        <time>2025-04-23T10:03:17Z</time>
      </trkpt>
      <trkpt lat="47.638320028781891" lon="6.879075961187482">
        <ele>396.19999999999999</ele>
        <time>2025-04-23T10:03:18Z</time>
      </trkpt>
      <trkpt lat="47.638402003794909" lon="6.878999015316367">
        <ele>395.24000000000001</ele>
        <time>2025-04-23T10:03:19Z</time>
      </trkpt>
      <trkpt lat="47.638640971854329" lon="6.878716964274645">
        <ele>392.83999999999997</ele>
        <time>2025-04-23T10:03:23Z</time>
      </trkpt>
      <trkpt lat="47.638669973239303" lon="6.878676982596517">
        <ele>392.36000000000001</ele>
        <time>2025-04-23T10:03:24Z</time>
      </trkpt>
      <trkpt lat="47.638694029301405" lon="6.878642030060291">
        <ele>391.87</ele>
        <time>2025-04-23T10:03:25Z</time>
      </trkpt>
      <trkpt lat="47.638712972402573" lon="6.878615962341428">
        <ele>391.38999999999999</ele>
        <time>2025-04-23T10:03:26Z</time>
      </trkpt>
      <trkpt lat="47.638726970180869" lon="6.878595007583499">
        <ele>390.91000000000003</ele>
        <time>2025-04-23T10:03:27Z</time>
      </trkpt>
      <trkpt lat="47.638726970180869" lon="6.878595007583499">
        <ele>390.43000000000001</ele>
        <time>2025-04-23T10:03:41Z</time>
      </trkpt>
      <trkpt lat="47.638837024569511" lon="6.878438014537096">
        <ele>388.99000000000001</ele>
        <time>2025-04-23T10:04:14Z</time>
      </trkpt>
      <trkpt lat="47.639164002612233" lon="6.877769976854324">
        <ele>388.02999999999997</ele>
        <time>2025-04-23T10:04:21Z</time>
      </trkpt>
      <trkpt lat="47.639214964583516" lon="6.87765397131443">
        <ele>388.02999999999997</ele>
        <time>2025-04-23T10:04:22Z</time>
      </trkpt>
      <trkpt lat="47.639266010373831" lon="6.877530002966523">
        <ele>388.02999999999997</ele>
        <time>2025-04-23T10:04:23Z</time>
      </trkpt>
      <trkpt lat="47.639419985935092" lon="6.87672802247107">
        <ele>388.50999999999999</ele>
        <time>2025-04-23T10:04:28Z</time>
      </trkpt>
      <trkpt lat="47.639583013951778" lon="6.875125989317894">
        <ele>390.91000000000003</ele>
        <time>2025-04-23T10:04:37Z</time>
      </trkpt>
      <trkpt lat="47.639562981203198" lon="6.873831991106272">
        <ele>392.83999999999997</ele>
        <time>2025-04-23T10:04:44Z</time>
      </trkpt>
      <trkpt lat="47.639210019260645" lon="6.872073970735073">
        <ele>391.38999999999999</ele>
        <time>2025-04-23T10:04:54Z</time>
      </trkpt>
      <trkpt lat="47.639143969863653" lon="6.871347008273006">
        <ele>389.94999999999999</ele>
        <time>2025-04-23T10:04:58Z</time>
      </trkpt>
      <trkpt lat="47.639152016490698" lon="6.870999997481704">
        <ele>389.47000000000003</ele>
        <time>2025-04-23T10:05:00Z</time>
      </trkpt>
      <trkpt lat="47.639181017875671" lon="6.87084099277854">
        <ele>388.99000000000001</ele>
        <time>2025-04-23T10:05:01Z</time>
      </trkpt>
      <trkpt lat="47.639210019260645" lon="6.870683999732137">
        <ele>388.99000000000001</ele>
        <time>2025-04-23T10:05:02Z</time>
      </trkpt>
      <trkpt lat="47.639334993436933" lon="6.870216960087419">
        <ele>388.50999999999999</ele>
        <time>2025-04-23T10:05:05Z</time>
      </trkpt>
      <trkpt lat="47.639384027570486" lon="6.87006801366806">
        <ele>388.02999999999997</ele>
        <time>2025-04-23T10:05:06Z</time>
      </trkpt>
      <trkpt lat="47.639712011441588" lon="6.86907802708447">
        <ele>386.11000000000001</ele>
        <time>2025-04-23T10:05:14Z</time>
      </trkpt>
      <trkpt lat="47.63973799534142" lon="6.868997979909182">
        <ele>385.63</ele>
        <time>2025-04-23T10:05:15Z</time>
      </trkpt>
      <trkpt lat="47.639760039746761" lon="6.86893000267446">
        <ele>385.14999999999998</ele>
        <time>2025-04-23T10:05:16Z</time>
      </trkpt>
      <trkpt lat="47.639817958697677" lon="6.868747025728226">
        <ele>383.22000000000003</ele>
        <time>2025-04-23T10:05:25Z</time>
      </trkpt>
      <trkpt lat="47.639915021136403" lon="6.868509985506535">
        <ele>380.33999999999997</ele>
        <time>2025-04-23T10:05:47Z</time>
      </trkpt>
      <trkpt lat="47.639947040006518" lon="6.86843303963542">
        <ele>379.38</ele>
        <time>2025-04-23T10:05:48Z</time>
      </trkpt>
      <trkpt lat="47.640491025522351" lon="6.867476999759674">
        <ele>370.73000000000002</ele>
        <time>2025-04-23T10:05:59Z</time>
      </trkpt>
      <trkpt lat="47.640832001343369" lon="6.866945000365377">
        <ele>369.27999999999997</ele>
        <time>2025-04-23T10:06:04Z</time>
      </trkpt>
      <trkpt lat="47.640905007719994" lon="6.866833018139005">
        <ele>369.75999999999999</ele>
        <time>2025-04-23T10:06:05Z</time>
      </trkpt>
      <trkpt lat="47.641660971567035" lon="6.865738006308675">
        <ele>373.13</ele>
        <time>2025-04-23T10:06:15Z</time>
      </trkpt>
      <trkpt lat="47.64229497872293" lon="6.864647017791867">
        <ele>375.05000000000001</ele>
        <time>2025-04-23T10:06:25Z</time>
      </trkpt>
      <trkpt lat="47.642320040613413" lon="6.864527994766831">
        <ele>375.05000000000001</ele>
        <time>2025-04-23T10:06:26Z</time>
      </trkpt>
      <trkpt lat="47.642320040613413" lon="6.864263964816928">
        <ele>374.56999999999999</ele>
        <time>2025-04-23T10:06:28Z</time>
      </trkpt>
      <trkpt lat="47.642320040613413" lon="6.864135973155499">
        <ele>374.08999999999997</ele>
        <time>2025-04-23T10:06:29Z</time>
      </trkpt>
      <trkpt lat="47.642320040613413" lon="6.86400898732245">
        <ele>373.61000000000001</ele>
        <time>2025-04-23T10:06:30Z</time>
      </trkpt>
      <trkpt lat="47.642334960401058" lon="6.863868003711104">
        <ele>373.13</ele>
        <time>2025-04-23T10:06:31Z</time>
      </trkpt>
      <trkpt lat="47.642348958179355" lon="6.863742023706436">
        <ele>372.17000000000002</ele>
        <time>2025-04-23T10:06:32Z</time>
      </trkpt>
      <trkpt lat="47.642363039776683" lon="6.8636230006814">
        <ele>371.69</ele>
        <time>2025-04-23T10:06:33Z</time>
      </trkpt>
      <trkpt lat="47.642406038939953" lon="6.863502971827984">
        <ele>371.20999999999998</ele>
        <time>2025-04-23T10:06:34Z</time>
      </trkpt>
      <trkpt lat="47.64244400896132" lon="6.863399036228657">
        <ele>370.73000000000002</ele>
        <time>2025-04-23T10:06:35Z</time>
      </trkpt>
      <trkpt lat="47.642481978982687" lon="6.863294010981917">
        <ele>370.24000000000001</ele>
        <time>2025-04-23T10:06:36Z</time>
      </trkpt>
      <trkpt lat="47.642521038651466" lon="6.863185968250036">
        <ele>369.75999999999999</ele>
        <time>2025-04-23T10:06:37Z</time>
      </trkpt>
      <trkpt lat="47.642562026157975" lon="6.863073986023665">
        <ele>369.27999999999997</ele>
        <time>2025-04-23T10:06:38Z</time>
      </trkpt>
      <trkpt lat="47.642602007836103" lon="6.862964015454054">
        <ele>368.80000000000001</ele>
        <time>2025-04-23T10:06:39Z</time>
      </trkpt>
      <trkpt lat="47.642637966200709" lon="6.862856978550553">
        <ele>368.80000000000001</ele>
        <time>2025-04-23T10:06:40Z</time>
      </trkpt>
      <trkpt lat="47.642776016145945" lon="6.862463029101491">
        <ele>366.88</ele>
        <time>2025-04-23T10:06:45Z</time>
      </trkpt>
      <trkpt lat="47.642835024744272" lon="6.861971011385322">
        <ele>365.92000000000002</ele>
        <time>2025-04-23T10:06:49Z</time>
      </trkpt>
      <trkpt lat="47.64278800226748" lon="6.861901022493839">
        <ele>366.39999999999998</ele>
        <time>2025-04-23T10:06:50Z</time>
      </trkpt>
      <trkpt lat="47.642749026417732" lon="6.861842013895512">
        <ele>366.39999999999998</ele>
        <time>2025-04-23T10:06:51Z</time>
      </trkpt>
      <trkpt lat="47.642749026417732" lon="6.861842013895512">
        <ele>366.39999999999998</ele>
        <time>2025-04-23T10:06:52Z</time>
      </trkpt>
      <trkpt lat="47.642630003392696" lon="6.861768001690507">
        <ele>366.39999999999998</ele>
        <time>2025-04-23T10:06:53Z</time>
      </trkpt>
      <trkpt lat="47.642583986744285" lon="6.861696001142263">
        <ele>366.88</ele>
        <time>2025-04-23T10:06:54Z</time>
      </trkpt>
      <trkpt lat="47.642538975924253" lon="6.861625006422401">
        <ele>366.88</ele>
        <time>2025-04-23T10:06:55Z</time>
      </trkpt>
      <trkpt lat="47.642495976760983" lon="6.86155803501606">
        <ele>366.88</ele>
        <time>2025-04-23T10:06:56Z</time>
      </trkpt>
      <trkpt lat="47.642457000911236" lon="6.861496008932591">
        <ele>367.36000000000001</ele>
        <time>2025-04-23T10:06:57Z</time>
      </trkpt>
      <trkpt lat="47.642424982041121" lon="6.861444963142276">
        <ele>367.83999999999997</ele>
        <time>2025-04-23T10:06:58Z</time>
      </trkpt>
      <trkpt lat="47.642402015626431" lon="6.86140900477767">
        <ele>367.83999999999997</ele>
        <time>2025-04-23T10:06:59Z</time>
      </trkpt>
      <trkpt lat="47.642288021743298" lon="6.861229967325926">
        <ele>367.83999999999997</ele>
        <time>2025-04-23T10:07:07Z</time>
      </trkpt>
      <trkpt lat="47.642095992341638" lon="6.860929979011416">
        <ele>366.88</ele>
        <time>2025-04-23T10:07:13Z</time>
      </trkpt>
      <trkpt lat="47.641733977943659" lon="6.860606018453836">
        <ele>366.39999999999998</ele>
        <time>2025-04-23T10:07:19Z</time>
      </trkpt>
      <trkpt lat="47.641624007374048" lon="6.860524965450168">
        <ele>366.39999999999998</ele>
        <time>2025-04-23T10:07:21Z</time>
      </trkpt>
      <trkpt lat="47.641573967412114" lon="6.860488001257181">
        <ele>366.39999999999998</ele>
        <time>2025-04-23T10:07:22Z</time>
      </trkpt>
      <trkpt lat="47.641539014875889" lon="6.860462017357349">
        <ele>366.39999999999998</ele>
        <time>2025-04-23T10:07:23Z</time>
      </trkpt>
      <trkpt lat="47.641302980482578" lon="6.860287003219128">
        <ele>366.39999999999998</ele>
        <time>2025-04-23T10:07:33Z</time>
      </trkpt>
      <trkpt lat="47.641251012682915" lon="6.860224977135658">
        <ele>366.39999999999998</ele>
        <time>2025-04-23T10:08:08Z</time>
      </trkpt>
      <trkpt lat="47.641084967181087" lon="6.860025990754366">
        <ele>366.39999999999998</ele>
        <time>2025-04-23T10:08:12Z</time>
      </trkpt>
      <trkpt lat="47.641036016866565" lon="6.859965976327658">
        <ele>365.92000000000002</ele>
        <time>2025-04-23T10:08:13Z</time>
      </trkpt>
      <trkpt lat="47.640991006046534" lon="6.859913002699614">
        <ele>365.92000000000002</ele>
        <time>2025-04-23T10:08:14Z</time>
      </trkpt>
      <trkpt lat="47.640755977481604" lon="6.859621983021498">
        <ele>364.95999999999998</ele>
        <time>2025-04-23T10:08:21Z</time>
      </trkpt>
      <trkpt lat="47.640732005238533" lon="6.85958200134337">
        <ele>364.48000000000002</ele>
        <time>2025-04-23T10:08:22Z</time>
      </trkpt>
      <trkpt lat="47.640795959159732" lon="6.859459960833192">
        <ele>364.48000000000002</ele>
        <time>2025-04-23T10:08:23Z</time>
      </trkpt>
      <trkpt lat="47.640815991908312" lon="6.859429031610489">
        <ele>364</ele>
        <time>2025-04-23T10:08:24Z</time>
      </trkpt>
      <trkpt lat="47.640851028263569" lon="6.859373962506652">
        <ele>364</ele>
        <time>2025-04-23T10:08:25Z</time>
      </trkpt>
      <trkpt lat="47.640890004113317" lon="6.859313026070595">
        <ele>363.51999999999998</ele>
        <time>2025-04-23T10:08:26Z</time>
      </trkpt>
      <trkpt lat="47.641350002959371" lon="6.858523031696677">
        <ele>362.06999999999999</ele>
        <time>2025-04-23T10:08:36Z</time>
      </trkpt>
      <trkpt lat="47.641546977683902" lon="6.857690960168839">
        <ele>362.55000000000001</ele>
        <time>2025-04-23T10:08:45Z</time>
      </trkpt>
      <trkpt lat="47.641546977683902" lon="6.857690960168839">
        <ele>363.04000000000002</ele>
        <time>2025-04-23T10:08:59Z</time>
      </trkpt>
      <trkpt lat="47.641546977683902" lon="6.857680985704064">
        <ele>363.04000000000002</ele>
        <time>2025-04-23T10:09:33Z</time>
      </trkpt>
      <trkpt lat="47.641546977683902" lon="6.857492979615927">
        <ele>363.51999999999998</ele>
        <time>2025-04-23T10:09:36Z</time>
      </trkpt>
      <trkpt lat="47.641538009047508" lon="6.856483966112137">
        <ele>362.55000000000001</ele>
        <time>2025-04-23T10:09:43Z</time>
      </trkpt>
      <trkpt lat="47.641484029591084" lon="6.855084020644426">
        <ele>361.58999999999997</ele>
        <time>2025-04-23T10:09:51Z</time>
      </trkpt>
      <trkpt lat="47.641404988244176" lon="6.854152036830783">
        <ele>361.58999999999997</ele>
        <time>2025-04-23T10:09:58Z</time>
      </trkpt>
      <trkpt lat="47.641404988244176" lon="6.854152036830783">
        <ele>362.06999999999999</ele>
        <time>2025-04-23T10:10:08Z</time>
      </trkpt>
      <trkpt lat="47.641383027657866" lon="6.853945003822446">
        <ele>362.06999999999999</ele>
        <time>2025-04-23T10:10:36Z</time>
      </trkpt>
      <trkpt lat="47.641221005469561" lon="6.852653017267585">
        <ele>361.58999999999997</ele>
        <time>2025-04-23T10:10:44Z</time>
      </trkpt>
      <trkpt lat="47.641078010201454" lon="6.850654017180204">
        <ele>367.83999999999997</ele>
        <time>2025-04-23T10:10:55Z</time>
      </trkpt>
      <trkpt lat="47.640968039631844" lon="6.848168028518558">
        <ele>370.73000000000002</ele>
        <time>2025-04-23T10:11:09Z</time>
      </trkpt>
      <trkpt lat="47.640826972201467" lon="6.845878008753061">
        <ele>374.56999999999999</ele>
        <time>2025-04-23T10:11:22Z</time>
      </trkpt>
      <trkpt lat="47.640758994966745" lon="6.844773022457957">
        <ele>376.97000000000003</ele>
        <time>2025-04-23T10:11:30Z</time>
      </trkpt>
      <trkpt lat="47.640748014673591" lon="6.84462902136147">
        <ele>376.49000000000001</ele>
        <time>2025-04-23T10:11:38Z</time>
      </trkpt>
      <trkpt lat="47.640712978318334" lon="6.844145972281694">
        <ele>376.00999999999999</ele>
        <time>2025-04-23T10:11:45Z</time>
      </trkpt>
      <trkpt lat="47.640692023560405" lon="6.843841960653663">
        <ele>376.00999999999999</ele>
        <time>2025-04-23T10:11:49Z</time>
      </trkpt>
      <trkpt lat="47.640686994418502" lon="6.843777000904083">
        <ele>375.52999999999997</ele>
        <time>2025-04-23T10:11:50Z</time>
      </trkpt>
      <trkpt lat="47.640681965276599" lon="6.843711035326123">
        <ele>375.52999999999997</ele>
        <time>2025-04-23T10:11:51Z</time>
      </trkpt>
      <trkpt lat="47.640677019953728" lon="6.84363903477788">
        <ele>375.52999999999997</ele>
        <time>2025-04-23T10:11:52Z</time>
      </trkpt>
      <trkpt lat="47.640671990811825" lon="6.843568962067366">
        <ele>375.52999999999997</ele>
        <time>2025-04-23T10:11:53Z</time>
      </trkpt>
      <trkpt lat="47.640666961669922" lon="6.843499979004264">
        <ele>375.05000000000001</ele>
        <time>2025-04-23T10:11:54Z</time>
      </trkpt>
      <trkpt lat="47.640662016347051" lon="6.843429990112782">
        <ele>375.05000000000001</ele>
        <time>2025-04-23T10:11:55Z</time>
      </trkpt>
      <trkpt lat="47.640638966113329" lon="6.843109969049692">
        <ele>374.08999999999997</ele>
        <time>2025-04-23T10:12:05Z</time>
      </trkpt>
      <trkpt lat="47.640633014962077" lon="6.843023970723152">
        <ele>374.08999999999997</ele>
        <time>2025-04-23T10:12:29Z</time>
      </trkpt>
      <trkpt lat="47.640621028840542" lon="6.842858009040356">
        <ele>373.13</ele>
        <time>2025-04-23T10:12:31Z</time>
      </trkpt>
      <trkpt lat="47.640537964180112" lon="6.841733995825052">
        <ele>371.69</ele>
        <time>2025-04-23T10:12:42Z</time>
      </trkpt>
      <trkpt lat="47.640519021078944" lon="6.841611033305526">
        <ele>371.69</ele>
        <time>2025-04-23T10:12:43Z</time>
      </trkpt>
      <trkpt lat="47.6403590105474" lon="6.840821038931608">
        <ele>372.17000000000002</ele>
        <time>2025-04-23T10:12:49Z</time>
      </trkpt>
      <trkpt lat="47.640319028869271" lon="6.840685000643134">
        <ele>372.17000000000002</ele>
        <time>2025-04-23T10:12:50Z</time>
      </trkpt>
      <trkpt lat="47.639791974797845" lon="6.83942997828126">
        <ele>374.56999999999999</ele>
        <time>2025-04-23T10:12:59Z</time>
      </trkpt>
      <trkpt lat="47.63945996761322" lon="6.839026976376772">
        <ele>375.52999999999997</ele>
        <time>2025-04-23T10:13:03Z</time>
      </trkpt>
      <trkpt lat="47.639377992600203" lon="6.838943995535374">
        <ele>376.00999999999999</ele>
        <time>2025-04-23T10:13:04Z</time>
      </trkpt>
      <trkpt lat="47.639296017587185" lon="6.838863026350737">
        <ele>376.00999999999999</ele>
        <time>2025-04-23T10:13:05Z</time>
      </trkpt>
      <trkpt lat="47.63842798769474" lon="6.83850696310401">
        <ele>376.97000000000003</ele>
        <time>2025-04-23T10:13:14Z</time>
      </trkpt>
      <trkpt lat="47.637399025261402" lon="6.838271012529731">
        <ele>376.97000000000003</ele>
        <time>2025-04-23T10:13:24Z</time>
      </trkpt>
      <trkpt lat="47.636670973151922" lon="6.838154001161456">
        <ele>376.49000000000001</ele>
        <time>2025-04-23T10:13:33Z</time>
      </trkpt>
      <trkpt lat="47.636642977595329" lon="6.838150983676314">
        <ele>376.00999999999999</ele>
        <time>2025-04-23T10:13:41Z</time>
      </trkpt>
      <trkpt lat="47.636541975662112" lon="6.838135980069637">
        <ele>375.52999999999997</ele>
        <time>2025-04-23T10:14:06Z</time>
      </trkpt>
      <trkpt lat="47.636483972892165" lon="6.838128017261624">
        <ele>375.52999999999997</ele>
        <time>2025-04-23T10:14:07Z</time>
      </trkpt>
      <trkpt lat="47.636346006765962" lon="6.837996002286673">
        <ele>375.52999999999997</ele>
        <time>2025-04-23T10:14:08Z</time>
      </trkpt>
      <trkpt lat="47.636337960138917" lon="6.837890977039933">
        <ele>375.05000000000001</ele>
        <time>2025-04-23T10:14:09Z</time>
      </trkpt>
      <trkpt lat="47.636328991502523" lon="6.837761979550123">
        <ele>375.05000000000001</ele>
        <time>2025-04-23T10:14:10Z</time>
      </trkpt>
      <trkpt lat="47.636318011209369" lon="6.837622001767159">
        <ele>374.56999999999999</ele>
        <time>2025-04-23T10:14:11Z</time>
      </trkpt>
      <trkpt lat="47.636137967929244" lon="6.836107978597283">
        <ele>375.05000000000001</ele>
        <time>2025-04-23T10:14:21Z</time>
      </trkpt>
      <trkpt lat="47.635708982124925" lon="6.833642022684217">
        <ele>381.30000000000001</ele>
        <time>2025-04-23T10:14:34Z</time>
      </trkpt>
      <trkpt lat="47.635181006044149" lon="6.831614021211863">
        <ele>380.81999999999999</ele>
        <time>2025-04-23T10:14:46Z</time>
      </trkpt>
      <trkpt lat="47.634659986943007" lon="6.829608986154199">
        <ele>377.44999999999999</ele>
        <time>2025-04-23T10:14:59Z</time>
      </trkpt>
      <trkpt lat="47.634635008871555" lon="6.829514019191265">
        <ele>377.44999999999999</ele>
        <time>2025-04-23T10:15:00Z</time>
      </trkpt>
      <trkpt lat="47.634681025519967" lon="6.829398013651371">
        <ele>377.44999999999999</ele>
        <time>2025-04-23T10:15:01Z</time>
      </trkpt>
      <trkpt lat="47.634681025519967" lon="6.829329030588269">
        <ele>377.44999999999999</ele>
        <time>2025-04-23T10:15:02Z</time>
      </trkpt>
      <trkpt lat="47.634681025519967" lon="6.829239008948207">
        <ele>376.97000000000003</ele>
        <time>2025-04-23T10:15:03Z</time>
      </trkpt>
      <trkpt lat="47.634646994993091" lon="6.829128032550216">
        <ele>376.97000000000003</ele>
        <time>2025-04-23T10:15:04Z</time>
      </trkpt>
      <trkpt lat="47.634595027193427" lon="6.829075980931521">
        <ele>376.97000000000003</ele>
        <time>2025-04-23T10:15:05Z</time>
      </trkpt>
      <trkpt lat="47.634486984461546" lon="6.829034993425012">
        <ele>376.97000000000003</ele>
        <time>2025-04-23T10:15:06Z</time>
      </trkpt>
      <trkpt lat="47.634448008611798" lon="6.828929968178272">
        <ele>376.97000000000003</ele>
        <time>2025-04-23T10:15:07Z</time>
      </trkpt>
      <trkpt lat="47.634413978084922" lon="6.828808011487126">
        <ele>376.97000000000003</ele>
        <time>2025-04-23T10:15:08Z</time>
      </trkpt>
      <trkpt lat="47.634392017498612" lon="6.828681025654078">
        <ele>376.97000000000003</ele>
        <time>2025-04-23T10:15:09Z</time>
      </trkpt>
      <trkpt lat="47.634368967264891" lon="6.828551022335887">
        <ele>376.97000000000003</ele>
        <time>2025-04-23T10:15:10Z</time>
      </trkpt>
      <trkpt lat="47.634146008640528" lon="6.827189968898892">
        <ele>378.89999999999998</ele>
        <time>2025-04-23T10:15:21Z</time>
      </trkpt>
      <trkpt lat="47.633917015045881" lon="6.825780970975757">
        <ele>383.69999999999999</ele>
        <time>2025-04-23T10:15:32Z</time>
      </trkpt>
      <trkpt lat="47.63385197147727" lon="6.824730969965458">
        <ele>383.22000000000003</ele>
        <time>2025-04-23T10:15:41Z</time>
      </trkpt>
      <trkpt lat="47.633864963427186" lon="6.824291003867984">
        <ele>381.30000000000001</ele>
        <time>2025-04-23T10:15:45Z</time>
      </trkpt>
      <trkpt lat="47.633891031146049" lon="6.823818013072014">
        <ele>378.89999999999998</ele>
        <time>2025-04-23T10:15:49Z</time>
      </trkpt>
      <trkpt lat="47.634007036685944" lon="6.823046039789915">
        <ele>376.00999999999999</ele>
        <time>2025-04-23T10:15:55Z</time>
      </trkpt>
      <trkpt lat="47.634232006967068" lon="6.821389021351934">
        <ele>370.24000000000001</ele>
        <time>2025-04-23T10:16:07Z</time>
      </trkpt>
      <trkpt lat="47.634266037493944" lon="6.819569980725646">
        <ele>366.39999999999998</ele>
        <time>2025-04-23T10:16:19Z</time>
      </trkpt>
      <trkpt lat="47.634255979210138" lon="6.818168023601174">
        <ele>368.31999999999999</ele>
        <time>2025-04-23T10:16:29Z</time>
      </trkpt>
      <trkpt lat="47.634207028895617" lon="6.817212989553809">
        <ele>372.17000000000002</ele>
        <time>2025-04-23T10:16:36Z</time>
      </trkpt>
      <trkpt lat="47.634198982268572" lon="6.816802024841309">
        <ele>373.61000000000001</ele>
        <time>2025-04-23T10:16:39Z</time>
      </trkpt>
      <trkpt lat="47.634228989481926" lon="6.816690964624286">
        <ele>374.08999999999997</ele>
        <time>2025-04-23T10:16:40Z</time>
      </trkpt>
      <trkpt lat="47.634252039715648" lon="6.816608989611268">
        <ele>374.56999999999999</ele>
        <time>2025-04-23T10:16:41Z</time>
      </trkpt>
      <trkpt lat="47.634266959503293" lon="6.816515028476715">
        <ele>375.05000000000001</ele>
        <time>2025-04-23T10:16:42Z</time>
      </trkpt>
      <trkpt lat="47.634272994473577" lon="6.816479992121458">
        <ele>375.52999999999997</ele>
        <time>2025-04-23T10:16:43Z</time>
      </trkpt>
      <trkpt lat="47.634295038878918" lon="6.816309001296759">
        <ele>376.00999999999999</ele>
        <time>2025-04-23T10:16:44Z</time>
      </trkpt>
      <trkpt lat="47.634315993636847" lon="6.816157959401608">
        <ele>376.97000000000003</ele>
        <time>2025-04-23T10:16:45Z</time>
      </trkpt>
      <trkpt lat="47.634315993636847" lon="6.81614002212882">
        <ele>377.44999999999999</ele>
        <time>2025-04-23T10:16:46Z</time>
      </trkpt>
      <trkpt lat="47.634315993636847" lon="6.816026028245688">
        <ele>377.94</ele>
        <time>2025-04-23T10:16:47Z</time>
      </trkpt>
      <trkpt lat="47.634315993636847" lon="6.815879009664059">
        <ele>377.94</ele>
        <time>2025-04-23T10:16:48Z</time>
      </trkpt>
      <trkpt lat="47.634306019172072" lon="6.815784964710474">
        <ele>378.42000000000002</ele>
        <time>2025-04-23T10:16:49Z</time>
      </trkpt>
      <trkpt lat="47.63419303111732" lon="6.814972003921866">
        <ele>378.42000000000002</ele>
        <time>2025-04-23T10:16:55Z</time>
      </trkpt>
      <trkpt lat="47.634164029732347" lon="6.814832026138902">
        <ele>377.94</ele>
        <time>2025-04-23T10:16:56Z</time>
      </trkpt>
      <trkpt lat="47.634106026962399" lon="6.814551986753941">
        <ele>377.44999999999999</ele>
        <time>2025-04-23T10:16:58Z</time>
      </trkpt>
      <trkpt lat="47.63410896062851" lon="6.814416032284498">
        <ele>377.44999999999999</ele>
        <time>2025-04-23T10:16:59Z</time>
      </trkpt>
      <trkpt lat="47.634118013083935" lon="6.814265996217728">
        <ele>376.97000000000003</ele>
        <time>2025-04-23T10:17:00Z</time>
      </trkpt>
      <trkpt lat="47.634127987548709" lon="6.814114032313228">
        <ele>376.49000000000001</ele>
        <time>2025-04-23T10:17:01Z</time>
      </trkpt>
      <trkpt lat="47.634137962013483" lon="6.813959972932935">
        <ele>376.00999999999999</ele>
        <time>2025-04-23T10:17:02Z</time>
      </trkpt>
      <trkpt lat="47.634401991963387" lon="6.81276798248291">
        <ele>371.69</ele>
        <time>2025-04-23T10:17:10Z</time>
      </trkpt>
      <trkpt lat="47.634712038561702" lon="6.811917973682284">
        <ele>368.31999999999999</ele>
        <time>2025-04-23T10:17:16Z</time>
      </trkpt>
      <trkpt lat="47.634765012189746" lon="6.811772966757417">
        <ele>367.83999999999997</ele>
        <time>2025-04-23T10:17:17Z</time>
      </trkpt>
      <trkpt lat="47.634810023009777" lon="6.811613040044904">
        <ele>367.83999999999997</ele>
        <time>2025-04-23T10:17:18Z</time>
      </trkpt>
      <trkpt lat="47.634810023009777" lon="6.811443977057934">
        <ele>367.36000000000001</ele>
        <time>2025-04-23T10:17:19Z</time>
      </trkpt>
      <trkpt lat="47.6347950194031" lon="6.811268962919712">
        <ele>366.88</ele>
        <time>2025-04-23T10:17:20Z</time>
      </trkpt>
      <trkpt lat="47.634771969169378" lon="6.811100989580154">
        <ele>366.88</ele>
        <time>2025-04-23T10:17:21Z</time>
      </trkpt>
      <trkpt lat="47.634750008583069" lon="6.810934022068977">
        <ele>366.39999999999998</ele>
        <time>2025-04-23T10:17:22Z</time>
      </trkpt>
      <trkpt lat="47.634681025519967" lon="6.810140004381537">
        <ele>366.39999999999998</ele>
        <time>2025-04-23T10:17:27Z</time>
      </trkpt>
      <trkpt lat="47.634681025519967" lon="6.809982005506754">
        <ele>365.92000000000002</ele>
        <time>2025-04-23T10:17:28Z</time>
      </trkpt>
      <trkpt lat="47.634706003591418" lon="6.80984596721828">
        <ele>365.92000000000002</ele>
        <time>2025-04-23T10:17:29Z</time>
      </trkpt>
      <trkpt lat="47.634746991097927" lon="6.809700960293412">
        <ele>366.39999999999998</ele>
        <time>2025-04-23T10:17:30Z</time>
      </trkpt>
      <trkpt lat="47.634787978604436" lon="6.809553019702435">
        <ele>366.39999999999998</ele>
        <time>2025-04-23T10:17:31Z</time>
      </trkpt>
      <trkpt lat="47.634830977767706" lon="6.809398960322142">
        <ele>366.39999999999998</ele>
        <time>2025-04-23T10:17:32Z</time>
      </trkpt>
      <trkpt lat="47.635202966630459" lon="6.808591028675437">
        <ele>368.31999999999999</ele>
        <time>2025-04-23T10:17:40Z</time>
      </trkpt>
      <trkpt lat="47.635599011555314" lon="6.807842021808028">
        <ele>368.31999999999999</ele>
        <time>2025-04-23T10:17:49Z</time>
      </trkpt>
      <trkpt lat="47.636380037292838" lon="6.806511981412768">
        <ele>368.80000000000001</ele>
        <time>2025-04-23T10:18:02Z</time>
      </trkpt>
      <trkpt lat="47.637091996148229" lon="6.804949007928371">
        <ele>369.75999999999999</ele>
        <time>2025-04-23T10:18:13Z</time>
      </trkpt>
      <trkpt lat="47.637183023616672" lon="6.804828979074955">
        <ele>369.75999999999999</ele>
        <time>2025-04-23T10:18:14Z</time>
      </trkpt>
      <trkpt lat="47.638148032128811" lon="6.803790964186192">
        <ele>369.75999999999999</ele>
        <time>2025-04-23T10:18:24Z</time>
      </trkpt>
      <trkpt lat="47.638321034610271" lon="6.803574040532112">
        <ele>370.24000000000001</ele>
        <time>2025-04-23T10:18:26Z</time>
      </trkpt>
      <trkpt lat="47.63840502128005" lon="6.803447976708412">
        <ele>370.24000000000001</ele>
        <time>2025-04-23T10:18:27Z</time>
      </trkpt>
      <trkpt lat="47.639233991503716" lon="6.801829012110829">
        <ele>370.24000000000001</ele>
        <time>2025-04-23T10:18:39Z</time>
      </trkpt>
      <trkpt lat="47.639546971768141" lon="6.801095008850098">
        <ele>369.27999999999997</ele>
        <time>2025-04-23T10:18:44Z</time>
      </trkpt>
      <trkpt lat="47.63960799202323" lon="6.800952013581991">
        <ele>368.80000000000001</ele>
        <time>2025-04-23T10:18:45Z</time>
      </trkpt>
      <trkpt lat="47.640185002237558" lon="6.799561958760023">
        <ele>367.83999999999997</ele>
        <time>2025-04-23T10:18:55Z</time>
      </trkpt>
      <trkpt lat="47.640976002439857" lon="6.797608975321055">
        <ele>372.17000000000002</ele>
        <time>2025-04-23T10:19:08Z</time>
      </trkpt>
      <trkpt lat="47.641600035130978" lon="6.795589020475745">
        <ele>372.17000000000002</ele>
        <time>2025-04-23T10:19:19Z</time>
      </trkpt>
      <trkpt lat="47.641970012336969" lon="6.793996039777994">
        <ele>372.64999999999998</ele>
        <time>2025-04-23T10:19:28Z</time>
      </trkpt>
      <trkpt lat="47.642170004546642" lon="6.793090961873531">
        <ele>375.05000000000001</ele>
        <time>2025-04-23T10:19:36Z</time>
      </trkpt>
      <trkpt lat="47.64270200394094" lon="6.791071007028222">
        <ele>386.58999999999997</ele>
        <time>2025-04-23T10:19:50Z</time>
      </trkpt>
      <trkpt lat="47.643188992515206" lon="6.789336958900094">
        <ele>396.68000000000001</ele>
        <time>2025-04-23T10:20:01Z</time>
      </trkpt>
      <trkpt lat="47.643419997766614" lon="6.788276983425021">
        <ele>401.97000000000003</ele>
        <time>2025-04-23T10:20:07Z</time>
      </trkpt>
      <trkpt lat="47.643739013001323" lon="6.787098990753293">
        <ele>407.25999999999999</ele>
        <time>2025-04-23T10:20:14Z</time>
      </trkpt>
      <trkpt lat="47.643787041306496" lon="6.786933029070497">
        <ele>407.25999999999999</ele>
        <time>2025-04-23T10:20:15Z</time>
      </trkpt>
      <trkpt lat="47.644423982128501" lon="6.784790027886629">
        <ele>411.57999999999998</ele>
        <time>2025-04-23T10:20:28Z</time>
      </trkpt>
      <trkpt lat="47.645234009250998" lon="6.782100023701787">
        <ele>419.26999999999998</ele>
        <time>2025-04-23T10:20:43Z</time>
      </trkpt>
      <trkpt lat="47.645876985043287" lon="6.779998010024428">
        <ele>421.19</ele>
        <time>2025-04-23T10:20:53Z</time>
      </trkpt>
      <trkpt lat="47.646722970530391" lon="6.776791010051966">
        <ele>423.60000000000002</ele>
        <time>2025-04-23T10:21:05Z</time>
      </trkpt>
      <trkpt lat="47.647080039605498" lon="6.773054022341967">
        <ele>431.29000000000002</ele>
        <time>2025-04-23T10:21:17Z</time>
      </trkpt>
      <trkpt lat="47.647478012368083" lon="6.771510997787118">
        <ele>431.76999999999998</ele>
        <time>2025-04-23T10:21:22Z</time>
      </trkpt>
      <trkpt lat="47.647593012079597" lon="6.771215032786131">
        <ele>431.76999999999998</ele>
        <time>2025-04-23T10:21:23Z</time>
      </trkpt>
      <trkpt lat="47.648949958384037" lon="6.768609015271068">
        <ele>427.44</ele>
        <time>2025-04-23T10:21:33Z</time>
      </trkpt>
      <trkpt lat="47.649975987151265" lon="6.766156973317266">
        <ele>425.04000000000002</ele>
        <time>2025-04-23T10:21:42Z</time>
      </trkpt>
      <trkpt lat="47.65052399598062" lon="6.763137979432941">
        <ele>422.63999999999999</ele>
        <time>2025-04-23T10:21:52Z</time>
      </trkpt>
      <trkpt lat="47.651160014793277" lon="6.761106960475445">
        <ele>417.35000000000002</ele>
        <time>2025-04-23T10:21:59Z</time>
      </trkpt>
      <trkpt lat="47.651289012283087" lon="6.760867992416024">
        <ele>416.38999999999999</ele>
        <time>2025-04-23T10:22:00Z</time>
      </trkpt>
      <trkpt lat="47.651436030864716" lon="6.760659031569958">
        <ele>415.43000000000001</ele>
        <time>2025-04-23T10:22:01Z</time>
      </trkpt>
      <trkpt lat="47.651606015861034" lon="6.760461973026395">
        <ele>414.94999999999999</ele>
        <time>2025-04-23T10:22:02Z</time>
      </trkpt>
      <trkpt lat="47.651771977543831" lon="6.760269021615386">
        <ele>413.98000000000002</ele>
        <time>2025-04-23T10:22:03Z</time>
      </trkpt>
      <trkpt lat="47.651937017217278" lon="6.76008302718401">
        <ele>413.5</ele>
        <time>2025-04-23T10:22:04Z</time>
      </trkpt>
      <trkpt lat="47.653087014332414" lon="6.758862035349011">
        <ele>408.69999999999999</ele>
        <time>2025-04-23T10:22:12Z</time>
      </trkpt>
      <trkpt lat="47.654055962339044" lon="6.757548004388809">
        <ele>404.85000000000002</ele>
        <time>2025-04-23T10:22:21Z</time>
      </trkpt>
      <trkpt lat="47.654478996992111" lon="6.755916969850659">
        <ele>401.00999999999999</ele>
        <time>2025-04-23T10:22:29Z</time>
      </trkpt>
      <trkpt lat="47.654593996703625" lon="6.754108993336558">
        <ele>392.36000000000001</ele>
        <time>2025-04-23T10:22:39Z</time>
      </trkpt>
      <trkpt lat="47.654636995866895" lon="6.753009958192706">
        <ele>386.11000000000001</ele>
        <time>2025-04-23T10:22:45Z</time>
      </trkpt>
      <trkpt lat="47.65466901473701" lon="6.752834022045136">
        <ele>384.66000000000003</ele>
        <time>2025-04-23T10:22:46Z</time>
      </trkpt>
      <trkpt lat="47.654714025557041" lon="6.752654984593391">
        <ele>384.18000000000001</ele>
        <time>2025-04-23T10:22:47Z</time>
      </trkpt>
      <trkpt lat="47.654783008620143" lon="6.752506038174033">
        <ele>383.22000000000003</ele>
        <time>2025-04-23T10:22:48Z</time>
      </trkpt>
      <trkpt lat="47.654860038310289" lon="6.752360025420785">
        <ele>382.74000000000001</ele>
        <time>2025-04-23T10:22:49Z</time>
      </trkpt>
      <trkpt lat="47.654935978353024" lon="6.752214012667537">
        <ele>382.25999999999999</ele>
        <time>2025-04-23T10:22:50Z</time>
      </trkpt>
      <trkpt lat="47.655022982507944" lon="6.752099012956023">
        <ele>381.77999999999997</ele>
        <time>2025-04-23T10:22:51Z</time>
      </trkpt>
      <trkpt lat="47.655130019411445" lon="6.751977978274226">
        <ele>381.77999999999997</ele>
        <time>2025-04-23T10:22:52Z</time>
      </trkpt>
      <trkpt lat="47.655236972495914" lon="6.751892985776067">
        <ele>381.30000000000001</ele>
        <time>2025-04-23T10:22:53Z</time>
      </trkpt>
      <trkpt lat="47.655333029106259" lon="6.751830959692597">
        <ele>381.30000000000001</ele>
        <time>2025-04-23T10:22:54Z</time>
      </trkpt>
      <trkpt lat="47.65576402656734" lon="6.751524014398456">
        <ele>381.30000000000001</ele>
        <time>2025-04-23T10:22:58Z</time>
      </trkpt>
      <trkpt lat="47.656159987673163" lon="6.751140961423516">
        <ele>382.25999999999999</ele>
        <time>2025-04-23T10:23:02Z</time>
      </trkpt>
      <trkpt lat="47.656263001263142" lon="6.75103803165257">
        <ele>382.74000000000001</ele>
        <time>2025-04-23T10:23:03Z</time>
      </trkpt>
      <trkpt lat="47.657040003687143" lon="6.750110993161798">
        <ele>379.86000000000001</ele>
        <time>2025-04-23T10:23:12Z</time>
      </trkpt>
      <trkpt lat="47.657754980027676" lon="6.749437004327774">
        <ele>370.73000000000002</ele>
        <time>2025-04-23T10:23:22Z</time>
      </trkpt>
      <trkpt lat="47.6578279864043" lon="6.749367015436292">
        <ele>370.24000000000001</ele>
        <time>2025-04-23T10:23:23Z</time>
      </trkpt>
      <trkpt lat="47.657981039956212" lon="6.749223014339805">
        <ele>368.80000000000001</ele>
        <time>2025-04-23T10:23:25Z</time>
      </trkpt>
      <trkpt lat="47.65806301496923" lon="6.749144978821278">
        <ele>368.31999999999999</ele>
        <time>2025-04-23T10:23:26Z</time>
      </trkpt>
      <trkpt lat="47.658741027116776" lon="6.748175024986267">
        <ele>364</ele>
        <time>2025-04-23T10:23:35Z</time>
      </trkpt>
      <trkpt lat="47.659320970997214" lon="6.747091999277473">
        <ele>364</ele>
        <time>2025-04-23T10:23:44Z</time>
      </trkpt>
      <trkpt lat="47.660205010324717" lon="6.745736980810762">
        <ele>367.36000000000001</ele>
        <time>2025-04-23T10:23:56Z</time>
      </trkpt>
      <trkpt lat="47.661085026338696" lon="6.744614979252219">
        <ele>375.52999999999997</ele>
        <time>2025-04-23T10:24:06Z</time>
      </trkpt>
      <trkpt lat="47.661158032715321" lon="6.744506014510989">
        <ele>376.00999999999999</ele>
        <time>2025-04-23T10:24:07Z</time>
      </trkpt>
      <trkpt lat="47.661231961101294" lon="6.74438196234405">
        <ele>376.49000000000001</ele>
        <time>2025-04-23T10:24:08Z</time>
      </trkpt>
      <trkpt lat="47.661994965746999" lon="6.742841033264995">
        <ele>378.42000000000002</ele>
        <time>2025-04-23T10:24:19Z</time>
      </trkpt>
      <trkpt lat="47.662033019587398" lon="6.742682028561831">
        <ele>377.94</ele>
        <time>2025-04-23T10:24:20Z</time>
      </trkpt>
      <trkpt lat="47.662296965718269" lon="6.74098301678896">
        <ele>372.17000000000002</ele>
        <time>2025-04-23T10:24:30Z</time>
      </trkpt>
      <trkpt lat="47.662520008161664" lon="6.738957026973367">
        <ele>366.39999999999998</ele>
        <time>2025-04-23T10:24:42Z</time>
      </trkpt>
      <trkpt lat="47.662607012316585" lon="6.737692030146718">
        <ele>364.95999999999998</ele>
        <time>2025-04-23T10:24:51Z</time>
      </trkpt>
      <trkpt lat="47.662607012316585" lon="6.737692030146718">
        <ele>364.95999999999998</ele>
        <time>2025-04-23T10:25:00Z</time>
      </trkpt>
      <trkpt lat="47.662623021751642" lon="6.737617012113333">
        <ele>364.95999999999998</ele>
        <time>2025-04-23T10:25:11Z</time>
      </trkpt>
      <trkpt lat="47.662643976509571" lon="6.73752699047327">
        <ele>364.95999999999998</ele>
        <time>2025-04-23T10:25:12Z</time>
      </trkpt>
      <trkpt lat="47.663043038919568" lon="6.736581008881331">
        <ele>368.80000000000001</ele>
        <time>2025-04-23T10:25:20Z</time>
      </trkpt>
      <trkpt lat="47.663713004440069" lon="6.735189026221633">
        <ele>378.89999999999998</ele>
        <time>2025-04-23T10:25:30Z</time>
      </trkpt>
      <trkpt lat="47.664375007152557" lon="6.73355296254158">
        <ele>388.02999999999997</ele>
        <time>2025-04-23T10:25:40Z</time>
      </trkpt>
      <trkpt lat="47.665086966007948" lon="6.731536025181413">
        <ele>395.24000000000001</ele>
        <time>2025-04-23T10:25:49Z</time>
      </trkpt>
      <trkpt lat="47.666127998381853" lon="6.730129038915038">
        <ele>401.97000000000003</ele>
        <time>2025-04-23T10:25:56Z</time>
      </trkpt>
      <trkpt lat="47.666297983378172" lon="6.729930974543095">
        <ele>402.93000000000001</ele>
        <time>2025-04-23T10:25:57Z</time>
      </trkpt>
      <trkpt lat="47.667900016531348" lon="6.727868020534515">
        <ele>412.06</ele>
        <time>2025-04-23T10:26:06Z</time>
      </trkpt>
      <trkpt lat="47.668928978964686" lon="6.72592299990356">
        <ele>415.43000000000001</ele>
        <time>2025-04-23T10:26:13Z</time>
      </trkpt>
      <trkpt lat="47.670944994315505" lon="6.722223982214928">
        <ele>426</ele>
        <time>2025-04-23T10:26:28Z</time>
      </trkpt>
      <trkpt lat="47.672043023630977" lon="6.72108898870647">
        <ele>428.88999999999999</ele>
        <time>2025-04-23T10:26:34Z</time>
      </trkpt>
      <trkpt lat="47.673503989353776" lon="6.720365965738893">
        <ele>435.13</ele>
        <time>2025-04-23T10:26:41Z</time>
      </trkpt>
      <trkpt lat="47.674391968175769" lon="6.720125991851091">
        <ele>438.5</ele>
        <time>2025-04-23T10:26:45Z</time>
      </trkpt>
      <trkpt lat="47.674599001184106" lon="6.719990959390998">
        <ele>438.98000000000002</ele>
        <time>2025-04-23T10:26:46Z</time>
      </trkpt>
      <trkpt lat="47.674804022535682" lon="6.719856010749936">
        <ele>439.45999999999998</ele>
        <time>2025-04-23T10:26:47Z</time>
      </trkpt>
      <trkpt lat="47.675005020573735" lon="6.71971402131021">
        <ele>439.94</ele>
        <time>2025-04-23T10:26:48Z</time>
      </trkpt>
      <trkpt lat="47.675198977813125" lon="6.719540013000369">
        <ele>440.42000000000002</ele>
        <time>2025-04-23T10:26:49Z</time>
      </trkpt>
      <trkpt lat="47.675361000001431" lon="6.719316970556974">
        <ele>440.89999999999998</ele>
        <time>2025-04-23T10:26:50Z</time>
      </trkpt>
      <trkpt lat="47.675690995529294" lon="6.718865018337965">
        <ele>441.86000000000001</ele>
        <time>2025-04-23T10:26:52Z</time>
      </trkpt>
      <trkpt lat="47.676816014572978" lon="6.716737020760775">
        <ele>447.63</ele>
        <time>2025-04-23T10:27:01Z</time>
      </trkpt>
      <trkpt lat="47.67733502201736" lon="6.71573999337852">
        <ele>450.02999999999997</ele>
        <time>2025-04-23T10:27:06Z</time>
      </trkpt>
      <trkpt lat="47.677439041435719" lon="6.715540001168847">
        <ele>450.51999999999998</ele>
        <time>2025-04-23T10:27:07Z</time>
      </trkpt>
      <trkpt lat="47.677539959549904" lon="6.715345038101077">
        <ele>450.51999999999998</ele>
        <time>2025-04-23T10:27:08Z</time>
      </trkpt>
      <trkpt lat="47.678716024383903" lon="6.713851969689131">
        <ele>451</ele>
        <time>2025-04-23T10:27:17Z</time>
      </trkpt>
      <trkpt lat="47.68004497513175" lon="6.7123459931463">
        <ele>452.92000000000002</ele>
        <time>2025-04-23T10:27:26Z</time>
      </trkpt>
      <trkpt lat="47.680660961195827" lon="6.711477041244507">
        <ele>457.72000000000003</ele>
        <time>2025-04-23T10:27:33Z</time>
      </trkpt>
      <trkpt lat="47.681751027703285" lon="6.710004005581141">
        <ele>457.24000000000001</ele>
        <time>2025-04-23T10:27:46Z</time>
      </trkpt>
      <trkpt lat="47.682357961311936" lon="6.708759041503072">
        <ele>459.64999999999998</ele>
        <time>2025-04-23T10:27:55Z</time>
      </trkpt>
      <trkpt lat="47.682898007333279" lon="6.706852996721864">
        <ele>467.33999999999997</ele>
        <time>2025-04-23T10:28:07Z</time>
      </trkpt>
      <trkpt lat="47.683242000639439" lon="6.705941967666149">
        <ele>469.74000000000001</ele>
        <time>2025-04-23T10:28:13Z</time>
      </trkpt>
      <trkpt lat="47.683302015066147" lon="6.705802995711565">
        <ele>469.25999999999999</ele>
        <time>2025-04-23T10:28:14Z</time>
      </trkpt>
      <trkpt lat="47.684195023030043" lon="6.703754039481282">
        <ele>464.44999999999999</ele>
        <time>2025-04-23T10:28:28Z</time>
      </trkpt>
      <trkpt lat="47.685001026839018" lon="6.701683960855007">
        <ele>468.30000000000001</ele>
        <time>2025-04-23T10:28:42Z</time>
      </trkpt>
      <trkpt lat="47.685127006843686" lon="6.700664972886443">
        <ele>471.18000000000001</ele>
        <time>2025-04-23T10:28:48Z</time>
      </trkpt>
      <trkpt lat="47.685107979923487" lon="6.700495993718505">
        <ele>471.18000000000001</ele>
        <time>2025-04-23T10:28:49Z</time>
      </trkpt>
      <trkpt lat="47.685089036822319" lon="6.700325002893806">
        <ele>471.66000000000003</ele>
        <time>2025-04-23T10:28:50Z</time>
      </trkpt>
      <trkpt lat="47.684927014634013" lon="6.699493015184999">
        <ele>471.66000000000003</ele>
        <time>2025-04-23T10:28:55Z</time>
      </trkpt>
      <trkpt lat="47.684423010796309" lon="6.697979997843504">
        <ele>468.30000000000001</ele>
        <time>2025-04-23T10:29:04Z</time>
      </trkpt>
      <trkpt lat="47.684372970834374" lon="6.697752010077238">
        <ele>467.81999999999999</ele>
        <time>2025-04-23T10:29:05Z</time>
      </trkpt>
      <trkpt lat="47.684089997783303" lon="6.695592999458313">
        <ele>466.38</ele>
        <time>2025-04-23T10:29:13Z</time>
      </trkpt>
      <trkpt lat="47.683873996138573" lon="6.692895032465458">
        <ele>460.61000000000001</ele>
        <time>2025-04-23T10:29:22Z</time>
      </trkpt>
      <trkpt lat="47.683902997523546" lon="6.692604012787342">
        <ele>458.69</ele>
        <time>2025-04-23T10:29:24Z</time>
      </trkpt>
      <trkpt lat="47.68451102077961" lon="6.690521026030183">
        <ele>451.48000000000002</ele>
        <time>2025-04-23T10:29:31Z</time>
      </trkpt>
      <trkpt lat="47.68517998047173" lon="6.68883802369237">
        <ele>449.06999999999999</ele>
        <time>2025-04-23T10:29:39Z</time>
      </trkpt>
      <trkpt lat="47.685497989878058" lon="6.68821700848639">
        <ele>450.02999999999997</ele>
        <time>2025-04-23T10:29:42Z</time>
      </trkpt>
      <trkpt lat="47.685604020953178" lon="6.688000001013279">
        <ele>450.51999999999998</ele>
        <time>2025-04-23T10:29:43Z</time>
      </trkpt>
      <trkpt lat="47.68625102005899" lon="6.686194958165288">
        <ele>452.44</ele>
        <time>2025-04-23T10:29:51Z</time>
      </trkpt>
      <trkpt lat="47.686355961486697" lon="6.685985997319222">
        <ele>451.95999999999998</ele>
        <time>2025-04-23T10:29:52Z</time>
      </trkpt>
      <trkpt lat="47.686482025310397" lon="6.685782987624407">
        <ele>451.48000000000002</ele>
        <time>2025-04-23T10:29:53Z</time>
      </trkpt>
      <trkpt lat="47.686870023608208" lon="6.685194997116923">
        <ele>449.55000000000001</ele>
        <time>2025-04-23T10:29:56Z</time>
      </trkpt>
      <trkpt lat="47.686969013884664" lon="6.684976983815432">
        <ele>449.06999999999999</ele>
        <time>2025-04-23T10:29:57Z</time>
      </trkpt>
      <trkpt lat="47.687047971412539" lon="6.684731980785728">
        <ele>448.11000000000001</ele>
        <time>2025-04-23T10:29:58Z</time>
      </trkpt>
      <trkpt lat="47.687130030244589" lon="6.68447901494801">
        <ele>447.63</ele>
        <time>2025-04-23T10:29:59Z</time>
      </trkpt>
      <trkpt lat="47.687201024964452" lon="6.68422001414001">
        <ele>447.14999999999998</ele>
        <time>2025-04-23T10:30:00Z</time>
      </trkpt>
      <trkpt lat="47.687246035784483" lon="6.683951960876584">
        <ele>446.19</ele>
        <time>2025-04-23T10:30:01Z</time>
      </trkpt>
      <trkpt lat="47.687680972740054" lon="6.681621037423611">
        <ele>445.23000000000002</ele>
        <time>2025-04-23T10:30:11Z</time>
      </trkpt>
      <trkpt lat="47.687725983560085" lon="6.68140796944499">
        <ele>445.70999999999998</ele>
        <time>2025-04-23T10:30:12Z</time>
      </trkpt>
      <trkpt lat="47.687811981886625" lon="6.681229015812278">
        <ele>445.70999999999998</ele>
        <time>2025-04-23T10:30:13Z</time>
      </trkpt>
      <trkpt lat="47.687925975769758" lon="6.681074034422636">
        <ele>446.19</ele>
        <time>2025-04-23T10:30:14Z</time>
      </trkpt>
      <trkpt lat="47.688266029581428" lon="6.680612023919821">
        <ele>448.58999999999997</ele>
        <time>2025-04-23T10:30:17Z</time>
      </trkpt>
      <trkpt lat="47.688367031514645" lon="6.680430974811316">
        <ele>449.55000000000001</ele>
        <time>2025-04-23T10:30:18Z</time>
      </trkpt>
      <trkpt lat="47.688432997092605" lon="6.680199969559908">
        <ele>450.02999999999997</ele>
        <time>2025-04-23T10:30:19Z</time>
      </trkpt>
      <trkpt lat="47.688495023176074" lon="6.679940968751907">
        <ele>451</ele>
        <time>2025-04-23T10:30:20Z</time>
      </trkpt>
      <trkpt lat="47.688545985147357" lon="6.679648021236062">
        <ele>451.48000000000002</ele>
        <time>2025-04-23T10:30:21Z</time>
      </trkpt>
      <trkpt lat="47.688593007624149" lon="6.679335962980986">
        <ele>451.48000000000002</ele>
        <time>2025-04-23T10:30:22Z</time>
      </trkpt>
      <trkpt lat="47.688818983733654" lon="6.677447017282248">
        <ele>446.67000000000002</ele>
        <time>2025-04-23T10:30:28Z</time>
      </trkpt>
      <trkpt lat="47.688804985955358" lon="6.677138982340694">
        <ele>445.23000000000002</ele>
        <time>2025-04-23T10:30:29Z</time>
      </trkpt>
      <trkpt lat="47.688763998448849" lon="6.676826002076268">
        <ele>443.79000000000002</ele>
        <time>2025-04-23T10:30:30Z</time>
      </trkpt>
      <trkpt lat="47.688668025657535" lon="6.67588597163558">
        <ele>438.98000000000002</ele>
        <time>2025-04-23T10:30:33Z</time>
      </trkpt>
      <trkpt lat="47.688668025657535" lon="6.674940995872021">
        <ele>434.17000000000002</ele>
        <time>2025-04-23T10:30:36Z</time>
      </trkpt>
      <trkpt lat="47.688719993457198" lon="6.674656011164188">
        <ele>432.25</ele>
        <time>2025-04-23T10:30:37Z</time>
      </trkpt>
      <trkpt lat="47.688773972913623" lon="6.674374965950847">
        <ele>430.32999999999998</ele>
        <time>2025-04-23T10:30:38Z</time>
      </trkpt>
      <trkpt lat="47.688894001767039" lon="6.674140021204948">
        <ele>428.88999999999999</ele>
        <time>2025-04-23T10:30:39Z</time>
      </trkpt>
      <trkpt lat="47.689026016741991" lon="6.673916978761554">
        <ele>427.44</ele>
        <time>2025-04-23T10:30:40Z</time>
      </trkpt>
      <trkpt lat="47.689188038930297" lon="6.673726039007306">
        <ele>426</ele>
        <time>2025-04-23T10:30:41Z</time>
      </trkpt>
      <trkpt lat="47.689349977299571" lon="6.673534009605646">
        <ele>424.56</ele>
        <time>2025-04-23T10:30:42Z</time>
      </trkpt>
      <trkpt lat="47.689783992245793" lon="6.672909976914525">
        <ele>422.16000000000003</ele>
        <time>2025-04-23T10:30:45Z</time>
      </trkpt>
      <trkpt lat="47.689893040806055" lon="6.672674026340246">
        <ele>421.68000000000001</ele>
        <time>2025-04-23T10:30:46Z</time>
      </trkpt>
      <trkpt lat="47.68994802609086" lon="6.672398010268807">
        <ele>421.19</ele>
        <time>2025-04-23T10:30:47Z</time>
      </trkpt>
      <trkpt lat="47.689981972798705" lon="6.672096010297537">
        <ele>420.23000000000002</ele>
        <time>2025-04-23T10:30:48Z</time>
      </trkpt>
      <trkpt lat="47.690016003325582" lon="6.671776995062828">
        <ele>419.26999999999998</ele>
        <time>2025-04-23T10:30:49Z</time>
      </trkpt>
      <trkpt lat="47.690278021618724" lon="6.669173995032907">
        <ele>411.10000000000002</ele>
        <time>2025-04-23T10:30:57Z</time>
      </trkpt>
      <trkpt lat="47.690321020781994" lon="6.667144987732172">
        <ele>400.52999999999997</ele>
        <time>2025-04-23T10:31:04Z</time>
      </trkpt>
      <trkpt lat="47.690359996631742" lon="6.666718013584614">
        <ele>397.16000000000003</ele>
        <time>2025-04-23T10:31:06Z</time>
      </trkpt>
      <trkpt lat="47.690401989966631" lon="6.666527995839715">
        <ele>395.72000000000003</ele>
        <time>2025-04-23T10:31:07Z</time>
      </trkpt>
      <trkpt lat="47.690455969423056" lon="6.666346024721861">
        <ele>394.27999999999997</ele>
        <time>2025-04-23T10:31:08Z</time>
      </trkpt>
      <trkpt lat="47.691243030130863" lon="6.664136974141002">
        <ele>379.86000000000001</ele>
        <time>2025-04-23T10:31:21Z</time>
      </trkpt>
      <trkpt lat="47.692104019224644" lon="6.661698007956147">
        <ele>371.69</ele>
        <time>2025-04-23T10:31:33Z</time>
      </trkpt>
      <trkpt lat="47.693053018301725" lon="6.65878102183342">
        <ele>366.88</ele>
        <time>2025-04-23T10:31:46Z</time>
      </trkpt>
      <trkpt lat="47.694053985178471" lon="6.655269004404545">
        <ele>361.58999999999997</ele>
        <time>2025-04-23T10:32:02Z</time>
      </trkpt>
      <trkpt lat="47.694320026785135" lon="6.654181033372879">
        <ele>359.67000000000002</ele>
        <time>2025-04-23T10:32:10Z</time>
      </trkpt>
      <trkpt lat="47.694464027881622" lon="6.653627995401621">
        <ele>359.67000000000002</ele>
        <time>2025-04-23T10:32:19Z</time>
      </trkpt>
      <trkpt lat="47.694472996518016" lon="6.653592959046364">
        <ele>359.67000000000002</ele>
        <time>2025-04-23T10:32:28Z</time>
      </trkpt>
      <trkpt lat="47.694472996518016" lon="6.653592959046364">
        <ele>359.19</ele>
        <time>2025-04-23T10:33:20Z</time>
      </trkpt>
      <trkpt lat="47.694539967924356" lon="6.653304034844041">
        <ele>359.67000000000002</ele>
        <time>2025-04-23T10:33:29Z</time>
      </trkpt>
      <trkpt lat="47.694816989824176" lon="6.652196031063795">
        <ele>358.70999999999998</ele>
        <time>2025-04-23T10:33:36Z</time>
      </trkpt>
      <trkpt lat="47.695327028632164" lon="6.649922020733357">
        <ele>356.31</ele>
        <time>2025-04-23T10:33:48Z</time>
      </trkpt>
      <trkpt lat="47.695703040808439" lon="6.648237006738782">
        <ele>351.98000000000002</ele>
        <time>2025-04-23T10:33:58Z</time>
      </trkpt>
      <trkpt lat="47.696202015504241" lon="6.645942041650415">
        <ele>350.54000000000002</ele>
        <time>2025-04-23T10:34:10Z</time>
      </trkpt>
      <trkpt lat="47.696561012417078" lon="6.644323999062181">
        <ele>350.06</ele>
        <time>2025-04-23T10:34:20Z</time>
      </trkpt>
      <trkpt lat="47.697083037346601" lon="6.641848990693688">
        <ele>348.13</ele>
        <time>2025-04-23T10:34:35Z</time>
      </trkpt>
      <trkpt lat="47.697609001770616" lon="6.63938001729548">
        <ele>346.20999999999998</ele>
        <time>2025-04-23T10:34:50Z</time>
      </trkpt>
      <trkpt lat="47.698102025315166" lon="6.637070970609784">
        <ele>344.76999999999998</ele>
        <time>2025-04-23T10:35:04Z</time>
      </trkpt>
      <trkpt lat="47.698569986969233" lon="6.634924029931426">
        <ele>342.85000000000002</ele>
        <time>2025-04-23T10:35:17Z</time>
      </trkpt>
      <trkpt lat="47.698924038559198" lon="6.633487036451697">
        <ele>342.37</ele>
        <time>2025-04-23T10:35:26Z</time>
      </trkpt>
      <trkpt lat="47.699011964723468" lon="6.633387040346861">
        <ele>342.37</ele>
        <time>2025-04-23T10:35:27Z</time>
      </trkpt>
      <trkpt lat="47.699106009677052" lon="6.633292995393276">
        <ele>342.37</ele>
        <time>2025-04-23T10:35:28Z</time>
      </trkpt>
      <trkpt lat="47.699209023267031" lon="6.633200962096453">
        <ele>342.85000000000002</ele>
        <time>2025-04-23T10:35:29Z</time>
      </trkpt>
      <trkpt lat="47.699313964694738" lon="6.633136002346873">
        <ele>343.32999999999998</ele>
        <time>2025-04-23T10:35:30Z</time>
      </trkpt>
      <trkpt lat="47.699425024911761" lon="6.633083028718829">
        <ele>343.32999999999998</ele>
        <time>2025-04-23T10:35:31Z</time>
      </trkpt>
      <trkpt lat="47.699529966339469" lon="6.633032988756895">
        <ele>343.32999999999998</ele>
        <time>2025-04-23T10:35:32Z</time>
      </trkpt>
      <trkpt lat="47.699705986306071" lon="6.632955959066749">
        <ele>343.32999999999998</ele>
        <time>2025-04-23T10:35:34Z</time>
      </trkpt>
      <trkpt lat="47.700298000127077" lon="6.632745992392302">
        <ele>342.85000000000002</ele>
        <time>2025-04-23T10:35:42Z</time>
      </trkpt>
      <trkpt lat="47.700362959876657" lon="6.632716991007328">
        <ele>343.32999999999998</ele>
        <time>2025-04-23T10:35:43Z</time>
      </trkpt>
      <trkpt lat="47.700387015938759" lon="6.63265697658062">
        <ele>343.81</ele>
        <time>2025-04-23T10:35:44Z</time>
      </trkpt>
      <trkpt lat="47.700402019545436" lon="6.632565027102828">
        <ele>344.29000000000002</ele>
        <time>2025-04-23T10:35:45Z</time>
      </trkpt>
      <trkpt lat="47.70039196126163" lon="6.632452961057425">
        <ele>344.76999999999998</ele>
        <time>2025-04-23T10:35:46Z</time>
      </trkpt>
      <trkpt lat="47.700378969311714" lon="6.632336033508182">
        <ele>345.25</ele>
        <time>2025-04-23T10:35:47Z</time>
      </trkpt>
      <trkpt lat="47.700362037867308" lon="6.632210975512862">
        <ele>345.25</ele>
        <time>2025-04-23T10:35:48Z</time>
      </trkpt>
      <trkpt lat="47.700345022603869" lon="6.632082983851433">
        <ele>346.20999999999998</ele>
        <time>2025-04-23T10:35:49Z</time>
      </trkpt>
      <trkpt lat="47.700255000963807" lon="6.631016973406076">
        <ele>346.69</ele>
        <time>2025-04-23T10:35:58Z</time>
      </trkpt>
      <trkpt lat="47.700236979871988" lon="6.630539037287235">
        <ele>346.69</ele>
        <time>2025-04-23T10:36:02Z</time>
      </trkpt>
      <trkpt lat="47.700191969051957" lon="6.630324041470885">
        <ele>347.17000000000002</ele>
        <time>2025-04-23T10:36:04Z</time>
      </trkpt>
      <trkpt lat="47.699844958260655" lon="6.628987966105342">
        <ele>345.73000000000002</ele>
        <time>2025-04-23T10:36:14Z</time>
      </trkpt>
      <trkpt lat="47.699418989941478" lon="6.627180995419622">
        <ele>346.20999999999998</ele>
        <time>2025-04-23T10:36:25Z</time>
      </trkpt>
      <trkpt lat="47.698838962242007" lon="6.624916037544608">
        <ele>345.25</ele>
        <time>2025-04-23T10:36:39Z</time>
      </trkpt>
      <trkpt lat="47.698335964232683" lon="6.622860040515661">
        <ele>344.76999999999998</ele>
        <time>2025-04-23T10:36:50Z</time>
      </trkpt>
      <trkpt lat="47.697689970955253" lon="6.620245976373553">
        <ele>343.32999999999998</ele>
        <time>2025-04-23T10:37:01Z</time>
      </trkpt>
      <trkpt lat="47.697650995105505" lon="6.620017988607287">
        <ele>343.32999999999998</ele>
        <time>2025-04-23T10:37:02Z</time>
      </trkpt>
      <trkpt lat="47.6975769829005" lon="6.619539968669415">
        <ele>342.85000000000002</ele>
        <time>2025-04-23T10:37:04Z</time>
      </trkpt>
      <trkpt lat="47.697540018707514" lon="6.619303012266755">
        <ele>342.85000000000002</ele>
        <time>2025-04-23T10:37:05Z</time>
      </trkpt>
      <trkpt lat="47.697539012879133" lon="6.619075024500489">
        <ele>342.37</ele>
        <time>2025-04-23T10:37:06Z</time>
      </trkpt>
      <trkpt lat="47.697708997875452" lon="6.616963036358357">
        <ele>341.41000000000003</ele>
        <time>2025-04-23T10:37:15Z</time>
      </trkpt>
      <trkpt lat="47.697927011176944" lon="6.614613002166152">
        <ele>339.95999999999998</ele>
        <time>2025-04-23T10:37:25Z</time>
      </trkpt>
      <trkpt lat="47.698058020323515" lon="6.613196963444352">
        <ele>337.56</ele>
        <time>2025-04-23T10:37:33Z</time>
      </trkpt>
      <trkpt lat="47.69826496951282" lon="6.610952038317919">
        <ele>336.60000000000002</ele>
        <time>2025-04-23T10:37:46Z</time>
      </trkpt>
      <trkpt lat="47.698470996692777" lon="6.60943097434938">
        <ele>336.12</ele>
        <time>2025-04-23T10:37:55Z</time>
      </trkpt>
      <trkpt lat="47.699011964723468" lon="6.607441026717424">
        <ele>336.12</ele>
        <time>2025-04-23T10:38:07Z</time>
      </trkpt>
      <trkpt lat="47.699582017958164" lon="6.605519978329539">
        <ele>332.75</ele>
        <time>2025-04-23T10:38:17Z</time>
      </trkpt>
      <trkpt lat="47.699890974909067" lon="6.603451995179057">
        <ele>331.31</ele>
        <time>2025-04-23T10:38:25Z</time>
      </trkpt>
      <trkpt lat="47.699838001281023" lon="6.60294002853334">
        <ele>331.31</ele>
        <time>2025-04-23T10:38:27Z</time>
      </trkpt>
      <trkpt lat="47.69933600910008" lon="6.600205013528466">
        <ele>329.87</ele>
        <time>2025-04-23T10:38:38Z</time>
      </trkpt>
      <trkpt lat="47.699048006907105" lon="6.597879035398364">
        <ele>329.38999999999999</ele>
        <time>2025-04-23T10:38:47Z</time>
      </trkpt>
      <trkpt lat="47.699188990518451" lon="6.595452977344394">
        <ele>328.43000000000001</ele>
        <time>2025-04-23T10:38:56Z</time>
      </trkpt>
      <trkpt lat="47.699169963598251" lon="6.59486498683691">
        <ele>328.43000000000001</ele>
        <time>2025-04-23T10:38:58Z</time>
      </trkpt>
      <trkpt lat="47.699142973870039" lon="6.594574972987175">
        <ele>328.43000000000001</ele>
        <time>2025-04-23T10:38:59Z</time>
      </trkpt>
      <trkpt lat="47.699063010513783" lon="6.594295017421246">
        <ele>328.43000000000001</ele>
        <time>2025-04-23T10:39:00Z</time>
      </trkpt>
      <trkpt lat="47.698976006358862" lon="6.594014978036284">
        <ele>328.43000000000001</ele>
        <time>2025-04-23T10:39:01Z</time>
      </trkpt>
      <trkpt lat="47.698865029960871" lon="6.593738039955497">
        <ele>328.43000000000001</ele>
        <time>2025-04-23T10:39:02Z</time>
      </trkpt>
      <trkpt lat="47.697700029239058" lon="6.590836979448795">
        <ele>325.06</ele>
        <time>2025-04-23T10:39:12Z</time>
      </trkpt>
      <trkpt lat="47.697599027305841" lon="6.590521987527609">
        <ele>324.57999999999998</ele>
        <time>2025-04-23T10:39:13Z</time>
      </trkpt>
      <trkpt lat="47.697457959875464" lon="6.590237002819777">
        <ele>324.57999999999998</ele>
        <time>2025-04-23T10:39:14Z</time>
      </trkpt>
      <trkpt lat="47.697314964607358" lon="6.589949000626802">
        <ele>324.10000000000002</ele>
        <time>2025-04-23T10:39:15Z</time>
      </trkpt>
      <trkpt lat="47.696916991844773" lon="6.589098991826177">
        <ele>322.18000000000001</ele>
        <time>2025-04-23T10:39:18Z</time>
      </trkpt>
      <trkpt lat="47.69684599712491" lon="6.588781988248229">
        <ele>321.69999999999999</ele>
        <time>2025-04-23T10:39:19Z</time>
      </trkpt>
      <trkpt lat="47.696783971041441" lon="6.588458027690649">
        <ele>321.22000000000003</ele>
        <time>2025-04-23T10:39:20Z</time>
      </trkpt>
      <trkpt lat="47.696246020495892" lon="6.584859006106854">
        <ele>318.32999999999998</ele>
        <time>2025-04-23T10:39:31Z</time>
      </trkpt>
      <trkpt lat="47.696128003299236" lon="6.584275960922241">
        <ele>317.85000000000002</ele>
        <time>2025-04-23T10:39:33Z</time>
      </trkpt>
      <trkpt lat="47.696042004972696" lon="6.583999022841454">
        <ele>317.85000000000002</ele>
        <time>2025-04-23T10:39:34Z</time>
      </trkpt>
      <trkpt lat="47.695951983332634" lon="6.583724012598395">
        <ele>317.85000000000002</ele>
        <time>2025-04-23T10:39:35Z</time>
      </trkpt>
      <trkpt lat="47.694607023149729" lon="6.580757992342114">
        <ele>316.41000000000003</ele>
        <time>2025-04-23T10:39:46Z</time>
      </trkpt>
      <trkpt lat="47.693347977474332" lon="6.577965980395675">
        <ele>315.44999999999999</ele>
        <time>2025-04-23T10:39:57Z</time>
      </trkpt>
      <trkpt lat="47.692237962037325" lon="6.575406985357404">
        <ele>315.93000000000001</ele>
        <time>2025-04-23T10:40:09Z</time>
      </trkpt>
      <trkpt lat="47.691282005980611" lon="6.573021998628974">
        <ele>316.88999999999999</ele>
        <time>2025-04-23T10:40:21Z</time>
      </trkpt>
      <trkpt lat="47.69072100520134" lon="6.57131502404809">
        <ele>317.37</ele>
        <time>2025-04-23T10:40:32Z</time>
      </trkpt>
      <trkpt lat="47.690039975568652" lon="6.569518027827144">
        <ele>317.85000000000002</ele>
        <time>2025-04-23T10:40:44Z</time>
      </trkpt>
      <trkpt lat="47.689075972884893" lon="6.567541994154453">
        <ele>316.88999999999999</ele>
        <time>2025-04-23T10:40:58Z</time>
      </trkpt>
      <trkpt lat="47.688196040689945" lon="6.565675009042025">
        <ele>315.44999999999999</ele>
        <time>2025-04-23T10:41:10Z</time>
      </trkpt>
      <trkpt lat="47.687479974702001" lon="6.564176995307207">
        <ele>314.49000000000001</ele>
        <time>2025-04-23T10:41:18Z</time>
      </trkpt>
      <trkpt lat="47.686245990917087" lon="6.561599979177117">
        <ele>314.00999999999999</ele>
        <time>2025-04-23T10:41:28Z</time>
      </trkpt>
      <trkpt lat="47.684331983327866" lon="6.557571971789002">
        <ele>312.08999999999997</ele>
        <time>2025-04-23T10:41:43Z</time>
      </trkpt>
      <trkpt lat="47.682572035118937" lon="6.553671034052968">
        <ele>309.19999999999999</ele>
        <time>2025-04-23T10:41:57Z</time>
      </trkpt>
      <trkpt lat="47.680241027846932" lon="6.548463022336364">
        <ele>309.19999999999999</ele>
        <time>2025-04-23T10:42:16Z</time>
      </trkpt>
      <trkpt lat="47.679288005456328" lon="6.546200998127461">
        <ele>310.63999999999999</ele>
        <time>2025-04-23T10:42:25Z</time>
      </trkpt>
      <trkpt lat="47.678962033241987" lon="6.544928960502148">
        <ele>309.68000000000001</ele>
        <time>2025-04-23T10:42:32Z</time>
      </trkpt>
      <trkpt lat="47.678404971957207" lon="6.542106019333005">
        <ele>309.19999999999999</ele>
        <time>2025-04-23T10:42:49Z</time>
      </trkpt>
      <trkpt lat="47.67800398170948" lon="6.539396988227963">
        <ele>305.83999999999997</ele>
        <time>2025-04-23T10:43:05Z</time>
      </trkpt>
      <trkpt lat="47.677687983959913" lon="6.53738901950419">
        <ele>304.88</ele>
        <time>2025-04-23T10:43:17Z</time>
      </trkpt>
      <trkpt lat="47.677285987883806" lon="6.534518972039223">
        <ele>304.38999999999999</ele>
        <time>2025-04-23T10:43:34Z</time>
      </trkpt>
      <trkpt lat="47.676860019564629" lon="6.531639033928514">
        <ele>302.94999999999999</ele>
        <time>2025-04-23T10:43:51Z</time>
      </trkpt>
      <trkpt lat="47.676484007388353" lon="6.529108034446836">
        <ele>303.91000000000003</ele>
        <time>2025-04-23T10:44:06Z</time>
      </trkpt>
      <trkpt lat="47.675964999943972" lon="6.525560980662704">
        <ele>301.99000000000001</ele>
        <time>2025-04-23T10:44:27Z</time>
      </trkpt>
      <trkpt lat="47.675882019102573" lon="6.524693034589291">
        <ele>301.50999999999999</ele>
        <time>2025-04-23T10:44:32Z</time>
      </trkpt>
      <trkpt lat="47.675900962203741" lon="6.524526989087462">
        <ele>301.50999999999999</ele>
        <time>2025-04-23T10:44:33Z</time>
      </trkpt>
      <trkpt lat="47.675930969417095" lon="6.524363039061427">
        <ele>301.50999999999999</ele>
        <time>2025-04-23T10:44:34Z</time>
      </trkpt>
      <trkpt lat="47.67596198245883" lon="6.524195987731218">
        <ele>301.50999999999999</ele>
        <time>2025-04-23T10:44:35Z</time>
      </trkpt>
      <trkpt lat="47.675992995500565" lon="6.524028014391661">
        <ele>301.50999999999999</ele>
        <time>2025-04-23T10:44:36Z</time>
      </trkpt>
      <trkpt lat="47.676050998270512" lon="6.523712016642094">
        <ele>301.50999999999999</ele>
        <time>2025-04-23T10:44:38Z</time>
      </trkpt>
      <trkpt lat="47.676050998270512" lon="6.523529039695859">
        <ele>301.50999999999999</ele>
        <time>2025-04-23T10:44:39Z</time>
      </trkpt>
      <trkpt lat="47.676050998270512" lon="6.523357965052128">
        <ele>301.50999999999999</ele>
        <time>2025-04-23T10:44:40Z</time>
      </trkpt>
      <trkpt lat="47.676066001877189" lon="6.52293199673295">
        <ele>301.50999999999999</ele>
        <time>2025-04-23T10:44:43Z</time>
      </trkpt>
      <trkpt lat="47.676072958856821" lon="6.522789001464844">
        <ele>301.50999999999999</ele>
        <time>2025-04-23T10:44:44Z</time>
      </trkpt>
      <trkpt lat="47.676098020747304" lon="6.522738039493561">
        <ele>301.50999999999999</ele>
        <time>2025-04-23T10:44:45Z</time>
      </trkpt>
      <trkpt lat="47.676142025738955" lon="6.522642988711596">
        <ele>301.50999999999999</ele>
        <time>2025-04-23T10:44:46Z</time>
      </trkpt>
      <trkpt lat="47.676173960790038" lon="6.522533018141985">
        <ele>301.50999999999999</ele>
        <time>2025-04-23T10:44:47Z</time>
      </trkpt>
      <trkpt lat="47.676153006032109" lon="6.522388011217117">
        <ele>301.99000000000001</ele>
        <time>2025-04-23T10:44:48Z</time>
      </trkpt>
      <trkpt lat="47.676126016303897" lon="6.522273011505604">
        <ele>301.99000000000001</ele>
        <time>2025-04-23T10:44:49Z</time>
      </trkpt>
      <trkpt lat="47.676058961078525" lon="6.522174021229148">
        <ele>301.99000000000001</ele>
        <time>2025-04-23T10:44:50Z</time>
      </trkpt>
      <trkpt lat="47.675976986065507" lon="6.522113000974059">
        <ele>301.99000000000001</ele>
        <time>2025-04-23T10:44:51Z</time>
      </trkpt>
      <trkpt lat="47.675890987738967" lon="6.522085005417466">
        <ele>301.99000000000001</ele>
        <time>2025-04-23T10:44:52Z</time>
      </trkpt>
      <trkpt lat="47.675812030211091" lon="6.522140996530652">
        <ele>302.47000000000003</ele>
        <time>2025-04-23T10:44:53Z</time>
      </trkpt>
      <trkpt lat="47.675644978880882" lon="6.522188019007444">
        <ele>302.47000000000003</ele>
        <time>2025-04-23T10:44:54Z</time>
      </trkpt>
      <trkpt lat="47.675588987767696" lon="6.522102020680904">
        <ele>301.99000000000001</ele>
        <time>2025-04-23T10:44:55Z</time>
      </trkpt>
      <trkpt lat="47.675524028018117" lon="6.522002024576068">
        <ele>301.99000000000001</ele>
        <time>2025-04-23T10:44:56Z</time>
      </trkpt>
      <trkpt lat="47.675460996106267" lon="6.521904962137342">
        <ele>301.99000000000001</ele>
        <time>2025-04-23T10:44:57Z</time>
      </trkpt>
      <trkpt lat="47.675421014428139" lon="6.521789040416479">
        <ele>301.99000000000001</ele>
        <time>2025-04-23T10:44:58Z</time>
      </trkpt>
      <trkpt lat="47.675384972244501" lon="6.521669011563063">
        <ele>301.99000000000001</ele>
        <time>2025-04-23T10:44:59Z</time>
      </trkpt>
      <trkpt lat="47.675365023314953" lon="6.521565997973084">
        <ele>301.99000000000001</ele>
        <time>2025-04-23T10:45:00Z</time>
      </trkpt>
      <trkpt lat="47.675348008051515" lon="6.521403975784779">
        <ele>301.99000000000001</ele>
        <time>2025-04-23T10:45:01Z</time>
      </trkpt>
      <trkpt lat="47.675329986959696" lon="6.521256035193801">
        <ele>301.50999999999999</ele>
        <time>2025-04-23T10:45:02Z</time>
      </trkpt>
      <trkpt lat="47.675082972273231" lon="6.51955702342093">
        <ele>301.02999999999997</ele>
        <time>2025-04-23T10:45:12Z</time>
      </trkpt>
      <trkpt lat="47.674760017544031" lon="6.517354007810354">
        <ele>299.11000000000001</ele>
        <time>2025-04-23T10:45:25Z</time>
      </trkpt>
      <trkpt lat="47.674341006204486" lon="6.514489995315671">
        <ele>299.58999999999997</ele>
        <time>2025-04-23T10:45:42Z</time>
      </trkpt>
      <trkpt lat="47.674002964049578" lon="6.512139961123467">
        <ele>305.83999999999997</ele>
        <time>2025-04-23T10:45:56Z</time>
      </trkpt>
      <trkpt lat="47.673671040683985" lon="6.509878020733595">
        <ele>308.72000000000003</ele>
        <time>2025-04-23T10:46:10Z</time>
      </trkpt>
      <trkpt lat="47.673647990450263" lon="6.509721027687192">
        <ele>308.24000000000001</ele>
        <time>2025-04-23T10:46:11Z</time>
      </trkpt>
      <trkpt lat="47.673647990450263" lon="6.509656989946961">
        <ele>308.24000000000001</ele>
        <time>2025-04-23T10:46:12Z</time>
      </trkpt>
      <trkpt lat="47.673647990450263" lon="6.509656989946961">
        <ele>308.24000000000001</ele>
        <time>2025-04-23T10:46:13Z</time>
      </trkpt>
      <trkpt lat="47.673696018755436" lon="6.50937401689589">
        <ele>307.75999999999999</ele>
        <time>2025-04-23T10:46:14Z</time>
      </trkpt>
      <trkpt lat="47.673765001818538" lon="6.509271003305912">
        <ele>307.75999999999999</ele>
        <time>2025-04-23T10:46:15Z</time>
      </trkpt>
      <trkpt lat="47.673837002366781" lon="6.509165978059173">
        <ele>307.27999999999997</ele>
        <time>2025-04-23T10:46:16Z</time>
      </trkpt>
      <trkpt lat="47.673911014571786" lon="6.509056007489562">
        <ele>306.80000000000001</ele>
        <time>2025-04-23T10:46:17Z</time>
      </trkpt>
      <trkpt lat="47.674276968464255" lon="6.508518978953362">
        <ele>305.36000000000001</ele>
        <time>2025-04-23T10:46:22Z</time>
      </trkpt>
      <trkpt lat="47.674712995067239" lon="6.507942974567413">
        <ele>302.47000000000003</ele>
        <time>2025-04-23T10:46:30Z</time>
      </trkpt>
      <trkpt lat="47.674750965088606" lon="6.507790004834533">
        <ele>300.55000000000001</ele>
        <time>2025-04-23T10:46:37Z</time>
      </trkpt>
      <trkpt lat="47.674735961481929" lon="6.507696965709329">
        <ele>300.55000000000001</ele>
        <time>2025-04-23T10:46:38Z</time>
      </trkpt>
      <trkpt lat="47.674719030037522" lon="6.507588000968099">
        <ele>300.06999999999999</ele>
        <time>2025-04-23T10:46:39Z</time>
      </trkpt>
      <trkpt lat="47.674601012840867" lon="6.506815021857619">
        <ele>298.14999999999998</ele>
        <time>2025-04-23T10:46:44Z</time>
      </trkpt>
      <trkpt lat="47.674591960385442" lon="6.506645958870649">
        <ele>298.14999999999998</ele>
        <time>2025-04-23T10:46:45Z</time>
      </trkpt>
      <trkpt lat="47.674591960385442" lon="6.506468011066318">
        <ele>297.67000000000002</ele>
        <time>2025-04-23T10:46:46Z</time>
      </trkpt>
      <trkpt lat="47.674591960385442" lon="6.506296014413238">
        <ele>297.67000000000002</ele>
        <time>2025-04-23T10:46:47Z</time>
      </trkpt>
      <trkpt lat="47.674597995355725" lon="6.506129968911409">
        <ele>297.67000000000002</ele>
        <time>2025-04-23T10:46:48Z</time>
      </trkpt>
      <trkpt lat="47.674790024757385" lon="6.503890994936228">
        <ele>295.25999999999999</ele>
        <time>2025-04-23T10:47:01Z</time>
      </trkpt>
      <trkpt lat="47.674859007820487" lon="6.502522984519601">
        <ele>295.74000000000001</ele>
        <time>2025-04-23T10:47:09Z</time>
      </trkpt>
      <trkpt lat="47.674831012263894" lon="6.502360040321946">
        <ele>295.74000000000001</ele>
        <time>2025-04-23T10:47:10Z</time>
      </trkpt>
      <trkpt lat="47.674799999222159" lon="6.502202963456512">
        <ele>296.22000000000003</ele>
        <time>2025-04-23T10:47:11Z</time>
      </trkpt>
      <trkpt lat="47.674714000895619" lon="6.502097016200423">
        <ele>296.69999999999999</ele>
        <time>2025-04-23T10:47:12Z</time>
      </trkpt>
      <trkpt lat="47.674624985083938" lon="6.501986039802432">
        <ele>296.69999999999999</ele>
        <time>2025-04-23T10:47:13Z</time>
      </trkpt>
      <trkpt lat="47.674534041434526" lon="6.501874979585409">
        <ele>296.69999999999999</ele>
        <time>2025-04-23T10:47:14Z</time>
      </trkpt>
      <trkpt lat="47.673327969387174" lon="6.500386018306017">
        <ele>296.69999999999999</ele>
        <time>2025-04-23T10:47:27Z</time>
      </trkpt>
      <trkpt lat="47.672486007213593" lon="6.499332999810576">
        <ele>297.18000000000001</ele>
        <time>2025-04-23T10:47:33Z</time>
      </trkpt>
      <trkpt lat="47.670776015147567" lon="6.497581014409661">
        <ele>297.67000000000002</ele>
        <time>2025-04-23T10:47:43Z</time>
      </trkpt>
      <trkpt lat="47.667841007933021" lon="6.494814986363053">
        <ele>298.63</ele>
        <time>2025-04-23T10:48:00Z</time>
      </trkpt>
      <trkpt lat="47.666673995554447" lon="6.493606986477971">
        <ele>299.58999999999997</ele>
        <time>2025-04-23T10:48:07Z</time>
      </trkpt>
      <trkpt lat="47.665770007297397" lon="6.492064967751503">
        <ele>299.11000000000001</ele>
        <time>2025-04-23T10:48:14Z</time>
      </trkpt>
      <trkpt lat="47.664351034909487" lon="6.489614015445113">
        <ele>296.22000000000003</ele>
        <time>2025-04-23T10:48:27Z</time>
      </trkpt>
      <trkpt lat="47.662917980924249" lon="6.487103970721364">
        <ele>294.30000000000001</ele>
        <time>2025-04-23T10:48:40Z</time>
      </trkpt>
      <trkpt lat="47.661000033840537" lon="6.483705025166273">
        <ele>293.81999999999999</ele>
        <time>2025-04-23T10:48:57Z</time>
      </trkpt>
      <trkpt lat="47.659851964563131" lon="6.481232028454542">
        <ele>293.81999999999999</ele>
        <time>2025-04-23T10:49:09Z</time>
      </trkpt>
      <trkpt lat="47.659811982885003" lon="6.481049973517656">
        <ele>293.33999999999997</ele>
        <time>2025-04-23T10:49:10Z</time>
      </trkpt>
      <trkpt lat="47.659791028127074" lon="6.480897003784776">
        <ele>293.33999999999997</ele>
        <time>2025-04-23T10:49:11Z</time>
      </trkpt>
      <trkpt lat="47.659721961244941" lon="6.480774963274598">
        <ele>293.33999999999997</ele>
        <time>2025-04-23T10:49:12Z</time>
      </trkpt>
      <trkpt lat="47.65963202342391" lon="6.480705980211496">
        <ele>293.33999999999997</ele>
        <time>2025-04-23T10:49:13Z</time>
      </trkpt>
      <trkpt lat="47.659543007612228" lon="6.480616964399815">
        <ele>292.86000000000001</ele>
        <time>2025-04-23T10:49:15Z</time>
      </trkpt>
      <trkpt lat="47.658742032945156" lon="6.478995988145471">
        <ele>292.38</ele>
        <time>2025-04-23T10:49:23Z</time>
      </trkpt>
      <trkpt lat="47.657860005274415" lon="6.477119028568268">
        <ele>290.94</ele>
        <time>2025-04-23T10:49:34Z</time>
      </trkpt>
      <trkpt lat="47.656725011765957" lon="6.47474099881947">
        <ele>291.42000000000002</ele>
        <time>2025-04-23T10:49:48Z</time>
      </trkpt>
      <trkpt lat="47.655814988538623" lon="6.472824979573488">
        <ele>291.42000000000002</ele>
        <time>2025-04-23T10:49:59Z</time>
      </trkpt>
      <trkpt lat="47.654844028875232" lon="6.470759008079767">
        <ele>290.45999999999998</ele>
        <time>2025-04-23T10:50:08Z</time>
      </trkpt>
      <trkpt lat="47.654238017275929" lon="6.46883100271225">
        <ele>289.97000000000003</ele>
        <time>2025-04-23T10:50:15Z</time>
      </trkpt>
      <trkpt lat="47.654109019786119" lon="6.4666180126369">
        <ele>289.97000000000003</ele>
        <time>2025-04-23T10:50:22Z</time>
      </trkpt>
      <trkpt lat="47.654152018949389" lon="6.463080011308193">
        <ele>296.22000000000003</ele>
        <time>2025-04-23T10:50:33Z</time>
      </trkpt>
      <trkpt lat="47.653743987902999" lon="6.461417963728309">
        <ele>300.06999999999999</ele>
        <time>2025-04-23T10:50:39Z</time>
      </trkpt>
      <trkpt lat="47.653264962136745" lon="6.460237959399819">
        <ele>301.50999999999999</ele>
        <time>2025-04-23T10:50:46Z</time>
      </trkpt>
      <trkpt lat="47.652415037155151" lon="6.458403998985887">
        <ele>303.43000000000001</ele>
        <time>2025-04-23T10:50:59Z</time>
      </trkpt>
      <trkpt lat="47.651429995894432" lon="6.456247000023723">
        <ele>308.72000000000003</ele>
        <time>2025-04-23T10:51:14Z</time>
      </trkpt>
      <trkpt lat="47.650579987093806" lon="6.454400969669223">
        <ele>308.24000000000001</ele>
        <time>2025-04-23T10:51:27Z</time>
      </trkpt>
      <trkpt lat="47.649854030460119" lon="6.452837996184826">
        <ele>307.75999999999999</ele>
        <time>2025-04-23T10:51:38Z</time>
      </trkpt>
      <trkpt lat="47.648969991132617" lon="6.450948966667056">
        <ele>306.80000000000001</ele>
        <time>2025-04-23T10:51:51Z</time>
      </trkpt>
      <trkpt lat="47.648214027285576" lon="6.449307035654783">
        <ele>308.24000000000001</ele>
        <time>2025-04-23T10:52:02Z</time>
      </trkpt>
      <trkpt lat="47.647624025121331" lon="6.44811999052763">
        <ele>301.99000000000001</ele>
        <time>2025-04-23T10:52:11Z</time>
      </trkpt>
      <trkpt lat="47.647272991016507" lon="6.447371989488602">
        <ele>297.67000000000002</ele>
        <time>2025-04-23T10:52:19Z</time>
      </trkpt>
      <trkpt lat="47.647226974368095" lon="6.447283979505301">
        <ele>297.18000000000001</ele>
        <time>2025-04-23T10:52:20Z</time>
      </trkpt>
      <trkpt lat="47.647181041538715" lon="6.447197981178761">
        <ele>296.69999999999999</ele>
        <time>2025-04-23T10:52:21Z</time>
      </trkpt>
      <trkpt lat="47.646687012165785" lon="6.446299022063613">
        <ele>295.25999999999999</ele>
        <time>2025-04-23T10:52:31Z</time>
      </trkpt>
      <trkpt lat="47.646160963922739" lon="6.44541297107935">
        <ele>295.25999999999999</ele>
        <time>2025-04-23T10:52:40Z</time>
      </trkpt>
      <trkpt lat="47.646108996123075" lon="6.445342982187867">
        <ele>295.25999999999999</ele>
        <time>2025-04-23T10:52:41Z</time>
      </trkpt>
      <trkpt lat="47.645490998402238" lon="6.444605961441994">
        <ele>295.74000000000001</ele>
        <time>2025-04-23T10:52:49Z</time>
      </trkpt>
      <trkpt lat="47.645407011732459" lon="6.444515017792583">
        <ele>295.74000000000001</ele>
        <time>2025-04-23T10:52:50Z</time>
      </trkpt>
      <trkpt lat="47.645325036719441" lon="6.444426001980901">
        <ele>295.74000000000001</ele>
        <time>2025-04-23T10:52:51Z</time>
      </trkpt>
      <trkpt lat="47.645240966230631" lon="6.444334974512458">
        <ele>295.25999999999999</ele>
        <time>2025-04-23T10:52:52Z</time>
      </trkpt>
      <trkpt lat="47.645152034237981" lon="6.444239001721144">
        <ele>295.25999999999999</ele>
        <time>2025-04-23T10:52:53Z</time>
      </trkpt>
      <trkpt lat="47.64424704015255" lon="6.443351022899151">
        <ele>292.86000000000001</ele>
        <time>2025-04-23T10:53:02Z</time>
      </trkpt>
      <trkpt lat="47.643836997449398" lon="6.44298498518765">
        <ele>293.81999999999999</ele>
        <time>2025-04-23T10:53:06Z</time>
      </trkpt>
      <trkpt lat="47.643724009394646" lon="6.442927988246083">
        <ele>294.30000000000001</ele>
        <time>2025-04-23T10:53:07Z</time>
      </trkpt>
      <trkpt lat="47.643612027168274" lon="6.442871997132897">
        <ele>294.77999999999997</ele>
        <time>2025-04-23T10:53:08Z</time>
      </trkpt>
      <trkpt lat="47.643499039113522" lon="6.442816006019712">
        <ele>295.74000000000001</ele>
        <time>2025-04-23T10:53:09Z</time>
      </trkpt>
      <trkpt lat="47.643382027745247" lon="6.442776024341583">
        <ele>296.69999999999999</ele>
        <time>2025-04-23T10:53:10Z</time>
      </trkpt>
      <trkpt lat="47.641942016780376" lon="6.442434964701533">
        <ele>307.75999999999999</ele>
        <time>2025-04-23T10:53:22Z</time>
      </trkpt>
      <trkpt lat="47.640641983598471" lon="6.442189961671829">
        <ele>308.24000000000001</ele>
        <time>2025-04-23T10:53:32Z</time>
      </trkpt>
      <trkpt lat="47.639018995687366" lon="6.441925009712577">
        <ele>301.02999999999997</ele>
        <time>2025-04-23T10:53:40Z</time>
      </trkpt>
      <trkpt lat="47.635731026530266" lon="6.441386975347996">
        <ele>284.20999999999998</ele>
        <time>2025-04-23T10:53:54Z</time>
      </trkpt>
      <trkpt lat="47.633170019835234" lon="6.440880037844181">
        <ele>277.95999999999998</ele>
        <time>2025-04-23T10:54:06Z</time>
      </trkpt>
      <trkpt lat="47.631089966744184" lon="6.440522968769074">
        <ele>274.11000000000001</ele>
        <time>2025-04-23T10:54:16Z</time>
      </trkpt>
      <trkpt lat="47.628109026700258" lon="6.440072022378445">
        <ele>277.48000000000002</ele>
        <time>2025-04-23T10:54:30Z</time>
      </trkpt>
      <trkpt lat="47.624828014522791" lon="6.439575981348753">
        <ele>276.04000000000002</ele>
        <time>2025-04-23T10:54:45Z</time>
      </trkpt>
      <trkpt lat="47.624013964086771" lon="6.439453018829227">
        <ele>274.11000000000001</ele>
        <time>2025-04-23T10:54:51Z</time>
      </trkpt>
      <trkpt lat="47.623529992997646" lon="6.439346987754107">
        <ele>274.58999999999997</ele>
        <time>2025-04-23T10:54:55Z</time>
      </trkpt>
      <trkpt lat="47.623370988294482" lon="6.439292002469301">
        <ele>275.06999999999999</ele>
        <time>2025-04-23T10:54:56Z</time>
      </trkpt>
      <trkpt lat="47.621814971789718" lon="6.438422966748476">
        <ele>279.39999999999998</ele>
        <time>2025-04-23T10:55:05Z</time>
      </trkpt>
      <trkpt lat="47.620198018848896" lon="6.437018997967243">
        <ele>279.88</ele>
        <time>2025-04-23T10:55:14Z</time>
      </trkpt>
      <trkpt lat="47.618843000382185" lon="6.435951981693506">
        <ele>278.92000000000002</ele>
        <time>2025-04-23T10:55:22Z</time>
      </trkpt>
      <trkpt lat="47.616932010278106" lon="6.434856969863176">
        <ele>279.88</ele>
        <time>2025-04-23T10:55:31Z</time>
      </trkpt>
      <trkpt lat="47.615342969074845" lon="6.43370496109128">
        <ele>283.25</ele>
        <time>2025-04-23T10:55:39Z</time>
      </trkpt>
      <trkpt lat="47.613398032262921" lon="6.432399982586503">
        <ele>280.83999999999997</ele>
        <time>2025-04-23T10:55:48Z</time>
      </trkpt>
      <trkpt lat="47.610913971439004" lon="6.430856036022306">
        <ele>281.31999999999999</ele>
        <time>2025-04-23T10:56:00Z</time>
      </trkpt>
      <trkpt lat="47.608113996684551" lon="6.429092986509204">
        <ele>279.39999999999998</ele>
        <time>2025-04-23T10:56:13Z</time>
      </trkpt>
      <trkpt lat="47.606363017112017" lon="6.428794004023075">
        <ele>279.39999999999998</ele>
        <time>2025-04-23T10:56:20Z</time>
      </trkpt>
      <trkpt lat="47.604901967570186" lon="6.428957032039762">
        <ele>279.39999999999998</ele>
        <time>2025-04-23T10:56:26Z</time>
      </trkpt>
      <trkpt lat="47.603349974378943" lon="6.428659977391362">
        <ele>278.92000000000002</ele>
        <time>2025-04-23T10:56:33Z</time>
      </trkpt>
      <trkpt lat="47.60250398889184" lon="6.428598035126925">
        <ele>278.92000000000002</ele>
        <time>2025-04-23T10:56:37Z</time>
      </trkpt>
      <trkpt lat="47.602300979197025" lon="6.428672969341278">
        <ele>278.92000000000002</ele>
        <time>2025-04-23T10:56:38Z</time>
      </trkpt>
      <trkpt lat="47.602091012522578" lon="6.428802972659469">
        <ele>278.92000000000002</ele>
        <time>2025-04-23T10:56:39Z</time>
      </trkpt>
      <trkpt lat="47.60097797960043" lon="6.429437985643745">
        <ele>279.39999999999998</ele>
        <time>2025-04-23T10:56:44Z</time>
      </trkpt>
      <trkpt lat="47.60074102319777" lon="6.429491965100169">
        <ele>279.88</ele>
        <time>2025-04-23T10:56:45Z</time>
      </trkpt>
      <trkpt lat="47.60050599463284" lon="6.42951300367713">
        <ele>280.36000000000001</ele>
        <time>2025-04-23T10:56:46Z</time>
      </trkpt>
      <trkpt lat="47.600269038230181" lon="6.429484002292156">
        <ele>280.36000000000001</ele>
        <time>2025-04-23T10:56:47Z</time>
      </trkpt>
      <trkpt lat="47.600026968866587" lon="6.429416025057435">
        <ele>280.83999999999997</ele>
        <time>2025-04-23T10:56:48Z</time>
      </trkpt>
      <trkpt lat="47.599788000807166" lon="6.429344024509192">
        <ele>280.83999999999997</ele>
        <time>2025-04-23T10:56:49Z</time>
      </trkpt>
      <trkpt lat="47.597321961075068" lon="6.428339034318924">
        <ele>283.73000000000002</ele>
        <time>2025-04-23T10:57:00Z</time>
      </trkpt>
      <trkpt lat="47.595722023397684" lon="6.428095959126949">
        <ele>285.64999999999998</ele>
        <time>2025-04-23T10:57:07Z</time>
      </trkpt>
      <trkpt lat="47.593494029715657" lon="6.428499966859818">
        <ele>284.20999999999998</ele>
        <time>2025-04-23T10:57:17Z</time>
      </trkpt>
      <trkpt lat="47.592163989320397" lon="6.42899801954627">
        <ele>282.76999999999998</ele>
        <time>2025-04-23T10:57:23Z</time>
      </trkpt>
      <trkpt lat="47.591934995725751" lon="6.429007994011045">
        <ele>282.27999999999997</ele>
        <time>2025-04-23T10:57:24Z</time>
      </trkpt>
      <trkpt lat="47.591702984645963" lon="6.428993996232748">
        <ele>282.27999999999997</ele>
        <time>2025-04-23T10:57:25Z</time>
      </trkpt>
      <trkpt lat="47.591468039900064" lon="6.428978992626071">
        <ele>282.27999999999997</ele>
        <time>2025-04-23T10:57:26Z</time>
      </trkpt>
      <trkpt lat="47.591233011335135" lon="6.428929958492518">
        <ele>281.80000000000001</ele>
        <time>2025-04-23T10:57:27Z</time>
      </trkpt>
      <trkpt lat="47.589416988193989" lon="6.428892994299531">
        <ele>280.36000000000001</ele>
        <time>2025-04-23T10:57:35Z</time>
      </trkpt>
      <trkpt lat="47.58731103502214" lon="6.429375037550926">
        <ele>278.92000000000002</ele>
        <time>2025-04-23T10:57:45Z</time>
      </trkpt>
      <trkpt lat="47.586114015430212" lon="6.429044958204031">
        <ele>278.92000000000002</ele>
        <time>2025-04-23T10:57:51Z</time>
      </trkpt>
      <trkpt lat="47.585335001349449" lon="6.428780006244779">
        <ele>279.39999999999998</ele>
        <time>2025-04-23T10:57:55Z</time>
      </trkpt>
      <trkpt lat="47.585140960291028" lon="6.428741030395031">
        <ele>279.39999999999998</ele>
        <time>2025-04-23T10:57:56Z</time>
      </trkpt>
      <trkpt lat="47.584942979738116" lon="6.428800038993359">
        <ele>279.39999999999998</ele>
        <time>2025-04-23T10:57:57Z</time>
      </trkpt>
      <trkpt lat="47.584754973649979" lon="6.428873967379332">
        <ele>279.88</ele>
        <time>2025-04-23T10:57:58Z</time>
      </trkpt>
      <trkpt lat="47.584569985046983" lon="6.429005982354283">
        <ele>280.36000000000001</ele>
        <time>2025-04-23T10:57:59Z</time>
      </trkpt>
      <trkpt lat="47.584381978958845" lon="6.429140008985996">
        <ele>280.83999999999997</ele>
        <time>2025-04-23T10:58:00Z</time>
      </trkpt>
      <trkpt lat="47.584232026711106" lon="6.42934201285243">
        <ele>280.83999999999997</ele>
        <time>2025-04-23T10:58:01Z</time>
      </trkpt>
      <trkpt lat="47.584082996472716" lon="6.429575029760599">
        <ele>281.31999999999999</ele>
        <time>2025-04-23T10:58:02Z</time>
      </trkpt>
      <trkpt lat="47.583932960405946" lon="6.429811986163259">
        <ele>281.80000000000001</ele>
        <time>2025-04-23T10:58:03Z</time>
      </trkpt>
      <trkpt lat="47.583097033202648" lon="6.430942034348846">
        <ele>285.17000000000002</ele>
        <time>2025-04-23T10:58:08Z</time>
      </trkpt>
      <trkpt lat="47.582898968830705" lon="6.431107996031642">
        <ele>285.64999999999998</ele>
        <time>2025-04-23T10:58:09Z</time>
      </trkpt>
      <trkpt lat="47.582710040733218" lon="6.431229030713439">
        <ele>285.64999999999998</ele>
        <time>2025-04-23T10:58:10Z</time>
      </trkpt>
      <trkpt lat="47.582463026046753" lon="6.431323997676373">
        <ele>286.13</ele>
        <time>2025-04-23T10:58:11Z</time>
      </trkpt>
      <trkpt lat="47.582236966118217" lon="6.431409996002913">
        <ele>286.61000000000001</ele>
        <time>2025-04-23T10:58:12Z</time>
      </trkpt>
      <trkpt lat="47.580242995172739" lon="6.432194961234927">
        <ele>290.94</ele>
        <time>2025-04-23T10:58:21Z</time>
      </trkpt>
      <trkpt lat="47.578293029218912" lon="6.432977998629212">
        <ele>295.25999999999999</ele>
        <time>2025-04-23T10:58:30Z</time>
      </trkpt>
      <trkpt lat="47.575841993093491" lon="6.433963039889932">
        <ele>295.25999999999999</ele>
        <time>2025-04-23T10:58:41Z</time>
      </trkpt>
      <trkpt lat="47.573463963344693" lon="6.434918995946646">
        <ele>290.94</ele>
        <time>2025-04-23T10:58:52Z</time>
      </trkpt>
      <trkpt lat="47.572342967614532" lon="6.434925030916929">
        <ele>288.52999999999997</ele>
        <time>2025-04-23T10:58:57Z</time>
      </trkpt>
      <trkpt lat="47.569870976731181" lon="6.434100000187755">
        <ele>282.76999999999998</ele>
        <time>2025-04-23T10:59:08Z</time>
      </trkpt>
      <trkpt lat="47.568473964929581" lon="6.433019991964102">
        <ele>279.88</ele>
        <time>2025-04-23T10:59:15Z</time>
      </trkpt>
      <trkpt lat="47.56544197909534" lon="6.430384973064065">
        <ele>273.63</ele>
        <time>2025-04-23T10:59:31Z</time>
      </trkpt>
      <trkpt lat="47.563664009794593" lon="6.428483035415411">
        <ele>273.63</ele>
        <time>2025-04-23T10:59:41Z</time>
      </trkpt>
      <trkpt lat="47.561394022777677" lon="6.425728993490338">
        <ele>271.70999999999998</ele>
        <time>2025-04-23T10:59:54Z</time>
      </trkpt>
      <trkpt lat="47.560020983219147" lon="6.42409703694284">
        <ele>270.75</ele>
        <time>2025-04-23T11:00:03Z</time>
      </trkpt>
      <trkpt lat="47.558967964723706" lon="6.423207968473434">
        <ele>269.31</ele>
        <time>2025-04-23T11:00:11Z</time>
      </trkpt>
      <trkpt lat="47.55843797698617" lon="6.422789040952921">
        <ele>269.79000000000002</ele>
        <time>2025-04-23T11:00:16Z</time>
      </trkpt>
      <trkpt lat="47.558434037491679" lon="6.422584019601345">
        <ele>269.79000000000002</ele>
        <time>2025-04-23T11:00:17Z</time>
      </trkpt>
      <trkpt lat="47.558378968387842" lon="6.422386039048433">
        <ele>270.26999999999998</ele>
        <time>2025-04-23T11:00:18Z</time>
      </trkpt>
      <trkpt lat="47.558297999203205" lon="6.422291994094849">
        <ele>270.75</ele>
        <time>2025-04-23T11:00:19Z</time>
      </trkpt>
      <trkpt lat="47.55815701559186" lon="6.422245977446437">
        <ele>270.75</ele>
        <time>2025-04-23T11:00:20Z</time>
      </trkpt>
      <trkpt lat="47.558098006993532" lon="6.422238014638424">
        <ele>270.75</ele>
        <time>2025-04-23T11:00:21Z</time>
      </trkpt>
      <trkpt lat="47.557896003127098" lon="6.42216601409018">
        <ele>270.75</ele>
        <time>2025-04-23T11:00:22Z</time>
      </trkpt>
      <trkpt lat="47.5578130222857" lon="6.421988988295198">
        <ele>270.75</ele>
        <time>2025-04-23T11:00:23Z</time>
      </trkpt>
      <trkpt lat="47.557719983160496" lon="6.421792013570666">
        <ele>270.75</ele>
        <time>2025-04-23T11:00:25Z</time>
      </trkpt>
      <trkpt lat="47.556520029902458" lon="6.419339971616864">
        <ele>271.23000000000002</ele>
        <time>2025-04-23T11:00:34Z</time>
      </trkpt>
      <trkpt lat="47.554896958172321" lon="6.416284013539553">
        <ele>269.31</ele>
        <time>2025-04-23T11:00:46Z</time>
      </trkpt>
      <trkpt lat="47.553338008001447" lon="6.414504032582045">
        <ele>269.31</ele>
        <time>2025-04-23T11:00:55Z</time>
      </trkpt>
      <trkpt lat="47.551534976810217" lon="6.41331396996975">
        <ele>270.75</ele>
        <time>2025-04-23T11:01:04Z</time>
      </trkpt>
      <trkpt lat="47.549572018906474" lon="6.412827987223864">
        <ele>271.23000000000002</ele>
        <time>2025-04-23T11:01:13Z</time>
      </trkpt>
      <trkpt lat="47.547572012990713" lon="6.413070978596807">
        <ele>270.75</ele>
        <time>2025-04-23T11:01:22Z</time>
      </trkpt>
      <trkpt lat="47.545218961313367" lon="6.414003968238831">
        <ele>270.75</ele>
        <time>2025-04-23T11:01:33Z</time>
      </trkpt>
      <trkpt lat="47.542089996859431" lon="6.415239963680506">
        <ele>269.31</ele>
        <time>2025-04-23T11:01:47Z</time>
      </trkpt>
      <trkpt lat="47.539689000695944" lon="6.416188040748239">
        <ele>266.89999999999998</ele>
        <time>2025-04-23T11:01:58Z</time>
      </trkpt>
      <trkpt lat="47.536590965464711" lon="6.41743702813983">
        <ele>268.82999999999998</ele>
        <time>2025-04-23T11:02:13Z</time>
      </trkpt>
      <trkpt lat="47.534429021179676" lon="6.418303968384862">
        <ele>270.26999999999998</ele>
        <time>2025-04-23T11:02:24Z</time>
      </trkpt>
      <trkpt lat="47.5325489602983" lon="6.418795986101031">
        <ele>274.11000000000001</ele>
        <time>2025-04-23T11:02:33Z</time>
      </trkpt>
      <trkpt lat="47.530573010444641" lon="6.418800009414554">
        <ele>284.20999999999998</ele>
        <time>2025-04-23T11:02:42Z</time>
      </trkpt>
      <trkpt lat="47.527919970452785" lon="6.41872700303793">
        <ele>278.44</ele>
        <time>2025-04-23T11:02:54Z</time>
      </trkpt>
      <trkpt lat="47.525076996535063" lon="6.418613009154797">
        <ele>269.79000000000002</ele>
        <time>2025-04-23T11:03:07Z</time>
      </trkpt>
      <trkpt lat="47.522208960726857" lon="6.418485017493367">
        <ele>272.19</ele>
        <time>2025-04-23T11:03:20Z</time>
      </trkpt>
      <trkpt lat="47.520145000889897" lon="6.41836398281157">
        <ele>273.14999999999998</ele>
        <time>2025-04-23T11:03:30Z</time>
      </trkpt>
      <trkpt lat="47.517273025587201" lon="6.418244959786534">
        <ele>277.95999999999998</ele>
        <time>2025-04-23T11:03:43Z</time>
      </trkpt>
      <trkpt lat="47.515106974169612" lon="6.418183017522097">
        <ele>283.25</ele>
        <time>2025-04-23T11:03:53Z</time>
      </trkpt>
      <trkpt lat="47.512923991307616" lon="6.418374041095376">
        <ele>290.45999999999998</ele>
        <time>2025-04-23T11:04:03Z</time>
      </trkpt>
      <trkpt lat="47.510406989604235" lon="6.419004024937749">
        <ele>303.91000000000003</ele>
        <time>2025-04-23T11:04:15Z</time>
      </trkpt>
      <trkpt lat="47.50846398063004" lon="6.419205022975802">
        <ele>315.93000000000001</ele>
        <time>2025-04-23T11:04:24Z</time>
      </trkpt>
      <trkpt lat="47.507816981524229" lon="6.419017016887665">
        <ele>320.25999999999999</ele>
        <time>2025-04-23T11:04:27Z</time>
      </trkpt>
      <trkpt lat="47.505238959565759" lon="6.417876994237304">
        <ele>335.16000000000003</ele>
        <time>2025-04-23T11:04:39Z</time>
      </trkpt>
      <trkpt lat="47.503488985821605" lon="6.417109966278076">
        <ele>337.56</ele>
        <time>2025-04-23T11:04:47Z</time>
      </trkpt>
      <trkpt lat="47.502117035910487" lon="6.416083015501499">
        <ele>330.35000000000002</ele>
        <time>2025-04-23T11:04:54Z</time>
      </trkpt>
      <trkpt lat="47.501226961612701" lon="6.414629006758332">
        <ele>324.57999999999998</ele>
        <time>2025-04-23T11:05:00Z</time>
      </trkpt>
      <trkpt lat="47.500924039632082" lon="6.414134977385402">
        <ele>322.18000000000001</ele>
        <time>2025-04-23T11:05:02Z</time>
      </trkpt>
      <trkpt lat="47.500754976645112" lon="6.413924004882574">
        <ele>321.22000000000003</ele>
        <time>2025-04-23T11:05:03Z</time>
      </trkpt>
      <trkpt lat="47.499434994533658" lon="6.412645010277629">
        <ele>312.08999999999997</ele>
        <time>2025-04-23T11:05:10Z</time>
      </trkpt>
      <trkpt lat="47.498030019924045" lon="6.411162000149488">
        <ele>301.99000000000001</ele>
        <time>2025-04-23T11:05:19Z</time>
      </trkpt>
      <trkpt lat="47.497285958379507" lon="6.410278966650367">
        <ele>301.02999999999997</ele>
        <time>2025-04-23T11:05:26Z</time>
      </trkpt>
      <trkpt lat="47.496985970064998" lon="6.409759959205985">
        <ele>300.06999999999999</ele>
        <time>2025-04-23T11:05:30Z</time>
      </trkpt>
      <trkpt lat="47.496423041447997" lon="6.408722028136253">
        <ele>295.74000000000001</ele>
        <time>2025-04-23T11:05:38Z</time>
      </trkpt>
      <trkpt lat="47.495956001803279" lon="6.407923987135291">
        <ele>290.45999999999998</ele>
        <time>2025-04-23T11:05:48Z</time>
      </trkpt>
      <trkpt lat="47.495909985154867" lon="6.407832959666848">
        <ele>290.45999999999998</ele>
        <time>2025-04-23T11:05:49Z</time>
      </trkpt>
      <trkpt lat="47.495860029011965" lon="6.407736986875534">
        <ele>289.97000000000003</ele>
        <time>2025-04-23T11:05:50Z</time>
      </trkpt>
      <trkpt lat="47.495804037898779" lon="6.407651994377375">
        <ele>289.97000000000003</ele>
        <time>2025-04-23T11:05:51Z</time>
      </trkpt>
      <trkpt lat="47.495695995166898" lon="6.407487038522959">
        <ele>289.49000000000001</ele>
        <time>2025-04-23T11:05:53Z</time>
      </trkpt>
      <trkpt lat="47.495583007112145" lon="6.407313030213118">
        <ele>288.52999999999997</ele>
        <time>2025-04-23T11:05:55Z</time>
      </trkpt>
      <trkpt lat="47.494838023558259" lon="6.406386997550726">
        <ele>285.64999999999998</ele>
        <time>2025-04-23T11:06:06Z</time>
      </trkpt>
      <trkpt lat="47.494101002812386" lon="6.405765982344747">
        <ele>289.49000000000001</ele>
        <time>2025-04-23T11:06:16Z</time>
      </trkpt>
      <trkpt lat="47.494013998657465" lon="6.4057079795748">
        <ele>290.94</ele>
        <time>2025-04-23T11:06:17Z</time>
      </trkpt>
      <trkpt lat="47.493918025866151" lon="6.405657017603517">
        <ele>291.89999999999998</ele>
        <time>2025-04-23T11:06:18Z</time>
      </trkpt>
      <trkpt lat="47.492967015132308" lon="6.405304977670312">
        <ele>298.63</ele>
        <time>2025-04-23T11:06:25Z</time>
      </trkpt>
      <trkpt lat="47.491853982210159" lon="6.404792005196214">
        <ele>302.94999999999999</ele>
        <time>2025-04-23T11:06:31Z</time>
      </trkpt>
      <trkpt lat="47.490269970148802" lon="6.403361968696117">
        <ele>303.91000000000003</ele>
        <time>2025-04-23T11:06:39Z</time>
      </trkpt>
      <trkpt lat="47.488408014178276" lon="6.401601014658809">
        <ele>312.56999999999999</ele>
        <time>2025-04-23T11:06:49Z</time>
      </trkpt>
      <trkpt lat="47.486969009041786" lon="6.39966999180615">
        <ele>315.93000000000001</ele>
        <time>2025-04-23T11:06:58Z</time>
      </trkpt>
      <trkpt lat="47.485838960856199" lon="6.397171011194587">
        <ele>314.49000000000001</ele>
        <time>2025-04-23T11:07:07Z</time>
      </trkpt>
      <trkpt lat="47.484897002577782" lon="6.394586032256484">
        <ele>315.44999999999999</ele>
        <time>2025-04-23T11:07:16Z</time>
      </trkpt>
      <trkpt lat="47.484164005145431" lon="6.391916982829571">
        <ele>311.60000000000002</ele>
        <time>2025-04-23T11:07:25Z</time>
      </trkpt>
      <trkpt lat="47.483236966654658" lon="6.387956030666828">
        <ele>291.42000000000002</ele>
        <time>2025-04-23T11:07:38Z</time>
      </trkpt>
      <trkpt lat="47.482828013598919" lon="6.386238997802138">
        <ele>285.17000000000002</ele>
        <time>2025-04-23T11:07:45Z</time>
      </trkpt>
      <trkpt lat="47.482326021417975" lon="6.384262964129448">
        <ele>278.92000000000002</ele>
        <time>2025-04-23T11:07:55Z</time>
      </trkpt>
      <trkpt lat="47.481835009530187" lon="6.383125958964229">
        <ele>275.06999999999999</ele>
        <time>2025-04-23T11:08:04Z</time>
      </trkpt>
      <trkpt lat="47.48169201426208" lon="6.38278498314321">
        <ele>274.58999999999997</ele>
        <time>2025-04-23T11:08:07Z</time>
      </trkpt>
      <trkpt lat="47.481659995391965" lon="6.382665038108826">
        <ele>274.58999999999997</ele>
        <time>2025-04-23T11:08:08Z</time>
      </trkpt>
      <trkpt lat="47.481631999835372" lon="6.382541991770268">
        <ele>274.58999999999997</ele>
        <time>2025-04-23T11:08:09Z</time>
      </trkpt>
      <trkpt lat="47.481623031198978" lon="6.38239799067378">
        <ele>274.58999999999997</ele>
        <time>2025-04-23T11:08:10Z</time>
      </trkpt>
      <trkpt lat="47.481623031198978" lon="6.382232028990984">
        <ele>274.58999999999997</ele>
        <time>2025-04-23T11:08:11Z</time>
      </trkpt>
      <trkpt lat="47.481623031198978" lon="6.382090961560607">
        <ele>274.11000000000001</ele>
        <time>2025-04-23T11:08:12Z</time>
      </trkpt>
      <trkpt lat="47.481596963480115" lon="6.381889963522553">
        <ele>273.63</ele>
        <time>2025-04-23T11:08:13Z</time>
      </trkpt>
      <trkpt lat="47.481565028429031" lon="6.381716961041093">
        <ele>273.63</ele>
        <time>2025-04-23T11:08:14Z</time>
      </trkpt>
      <trkpt lat="47.481515994295478" lon="6.381554016843438">
        <ele>273.63</ele>
        <time>2025-04-23T11:08:15Z</time>
      </trkpt>
      <trkpt lat="47.481466038152575" lon="6.381388977169991">
        <ele>273.63</ele>
        <time>2025-04-23T11:08:16Z</time>
      </trkpt>
      <trkpt lat="47.481431001797318" lon="6.381214968860149">
        <ele>273.63</ele>
        <time>2025-04-23T11:08:17Z</time>
      </trkpt>
      <trkpt lat="47.481386996805668" lon="6.380954040214419">
        <ele>273.14999999999998</ele>
        <time>2025-04-23T11:08:18Z</time>
      </trkpt>
      <trkpt lat="47.481376016512513" lon="6.380851026624441">
        <ele>273.14999999999998</ele>
        <time>2025-04-23T11:08:19Z</time>
      </trkpt>
      <trkpt lat="47.481367969885468" lon="6.380661008879542">
        <ele>273.14999999999998</ele>
        <time>2025-04-23T11:08:20Z</time>
      </trkpt>
      <trkpt lat="47.481374004855752" lon="6.380461016669869">
        <ele>273.63</ele>
        <time>2025-04-23T11:08:21Z</time>
      </trkpt>
      <trkpt lat="47.481379033997655" lon="6.380251972004771">
        <ele>274.11000000000001</ele>
        <time>2025-04-23T11:08:22Z</time>
      </trkpt>
      <trkpt lat="47.481444999575615" lon="6.377761960029602">
        <ele>275.56</ele>
        <time>2025-04-23T11:08:32Z</time>
      </trkpt>
      <trkpt lat="47.481409041211009" lon="6.376965008676052">
        <ele>274.58999999999997</ele>
        <time>2025-04-23T11:08:35Z</time>
      </trkpt>
      <trkpt lat="47.481332011520863" lon="6.376712964847684">
        <ele>273.63</ele>
        <time>2025-04-23T11:08:36Z</time>
      </trkpt>
      <trkpt lat="47.481250958517194" lon="6.376450024545193">
        <ele>273.14999999999998</ele>
        <time>2025-04-23T11:08:37Z</time>
      </trkpt>
      <trkpt lat="47.480178996920586" lon="6.373668992891908">
        <ele>267.38</ele>
        <time>2025-04-23T11:08:47Z</time>
      </trkpt>
      <trkpt lat="47.479044003412127" lon="6.370802968740463">
        <ele>264.98000000000002</ele>
        <time>2025-04-23T11:08:57Z</time>
      </trkpt>
      <trkpt lat="47.478887010365725" lon="6.370232999324799">
        <ele>264.5</ele>
        <time>2025-04-23T11:08:59Z</time>
      </trkpt>
      <trkpt lat="47.478826995939016" lon="6.369940973818302">
        <ele>264.5</ele>
        <time>2025-04-23T11:09:00Z</time>
      </trkpt>
      <trkpt lat="47.478821966797113" lon="6.369648026302457">
        <ele>264.5</ele>
        <time>2025-04-23T11:09:01Z</time>
      </trkpt>
      <trkpt lat="47.478848034515977" lon="6.369368992745876">
        <ele>264.5</ele>
        <time>2025-04-23T11:09:02Z</time>
      </trkpt>
      <trkpt lat="47.478874018415809" lon="6.369093982502818">
        <ele>264.5</ele>
        <time>2025-04-23T11:09:03Z</time>
      </trkpt>
      <trkpt lat="47.478954987600446" lon="6.368837999179959">
        <ele>264.5</ele>
        <time>2025-04-23T11:09:04Z</time>
      </trkpt>
      <trkpt lat="47.479047020897269" lon="6.368568018078804">
        <ele>264.5</ele>
        <time>2025-04-23T11:09:05Z</time>
      </trkpt>
      <trkpt lat="47.479140982031822" lon="6.368294013664126">
        <ele>264.5</ele>
        <time>2025-04-23T11:09:06Z</time>
      </trkpt>
      <trkpt lat="47.479585977271199" lon="6.366659039631486">
        <ele>262.57999999999998</ele>
        <time>2025-04-23T11:09:12Z</time>
      </trkpt>
      <trkpt lat="47.479793010279536" lon="6.365499990060926">
        <ele>260.64999999999998</ele>
        <time>2025-04-23T11:09:16Z</time>
      </trkpt>
      <trkpt lat="47.47982301749289" lon="6.365213999524713">
        <ele>260.17000000000002</ele>
        <time>2025-04-23T11:09:17Z</time>
      </trkpt>
      <trkpt lat="47.479939023032784" lon="6.363480035215616">
        <ele>257.76999999999998</ele>
        <time>2025-04-23T11:09:24Z</time>
      </trkpt>
      <trkpt lat="47.479997025802732" lon="6.361849000677466">
        <ele>256.81</ele>
        <time>2025-04-23T11:09:33Z</time>
      </trkpt>
      <trkpt lat="47.480022003874183" lon="6.359349014237523">
        <ele>257.29000000000002</ele>
        <time>2025-04-23T11:09:47Z</time>
      </trkpt>
      <trkpt lat="47.479988979175687" lon="6.359180035069585">
        <ele>257.29000000000002</ele>
        <time>2025-04-23T11:09:48Z</time>
      </trkpt>
      <trkpt lat="47.479946985840797" lon="6.359013989567757">
        <ele>257.29000000000002</ele>
        <time>2025-04-23T11:09:49Z</time>
      </trkpt>
      <trkpt lat="47.479897029697895" lon="6.358852973207831">
        <ele>257.76999999999998</ele>
        <time>2025-04-23T11:09:50Z</time>
      </trkpt>
      <trkpt lat="47.479841038584709" lon="6.35869799181819">
        <ele>257.76999999999998</ele>
        <time>2025-04-23T11:09:51Z</time>
      </trkpt>
      <trkpt lat="47.479553958401084" lon="6.357812024652958">
        <ele>258.73000000000002</ele>
        <time>2025-04-23T11:09:58Z</time>
      </trkpt>
      <trkpt lat="47.479548007249832" lon="6.357728959992528">
        <ele>258.73000000000002</ele>
        <time>2025-04-23T11:09:59Z</time>
      </trkpt>
      <trkpt lat="47.479541972279549" lon="6.357651008293033">
        <ele>258.73000000000002</ele>
        <time>2025-04-23T11:10:00Z</time>
      </trkpt>
      <trkpt lat="47.479601986706257" lon="6.357510024681687">
        <ele>258.73000000000002</ele>
        <time>2025-04-23T11:10:01Z</time>
      </trkpt>
      <trkpt lat="47.479563010856509" lon="6.357393013313413">
        <ele>258.73000000000002</ele>
        <time>2025-04-23T11:10:02Z</time>
      </trkpt>
      <trkpt lat="47.479668958112597" lon="6.357447998598218">
        <ele>258.73000000000002</ele>
        <time>2025-04-23T11:10:03Z</time>
      </trkpt>
      <trkpt lat="47.479726038873196" lon="6.357381027191877">
        <ele>258.73000000000002</ele>
        <time>2025-04-23T11:10:04Z</time>
      </trkpt>
      <trkpt lat="47.479970036074519" lon="6.357095036655664">
        <ele>259.20999999999998</ele>
        <time>2025-04-23T11:10:08Z</time>
      </trkpt>
      <trkpt lat="47.480003982782364" lon="6.3569809589535">
        <ele>259.20999999999998</ele>
        <time>2025-04-23T11:10:09Z</time>
      </trkpt>
      <trkpt lat="47.480033989995718" lon="6.356878029182553">
        <ele>258.73000000000002</ele>
        <time>2025-04-23T11:10:10Z</time>
      </trkpt>
      <trkpt lat="47.480077994987369" lon="6.356727993115783">
        <ele>258.73000000000002</ele>
        <time>2025-04-23T11:10:11Z</time>
      </trkpt>
      <trkpt lat="47.480084029957652" lon="6.356664961203933">
        <ele>258.25</ele>
        <time>2025-04-23T11:10:12Z</time>
      </trkpt>
      <trkpt lat="47.480158964172006" lon="6.355908997356892">
        <ele>257.29000000000002</ele>
        <time>2025-04-23T11:10:19Z</time>
      </trkpt>
      <trkpt lat="47.48016701079905" lon="6.355820987373591">
        <ele>256.81</ele>
        <time>2025-04-23T11:10:20Z</time>
      </trkpt>
      <trkpt lat="47.480174973607063" lon="6.355744041502476">
        <ele>256.81</ele>
        <time>2025-04-23T11:10:21Z</time>
      </trkpt>
      <trkpt lat="47.480181008577347" lon="6.355587970465422">
        <ele>256.32999999999998</ele>
        <time>2025-04-23T11:10:23Z</time>
      </trkpt>
      <trkpt lat="47.480126023292542" lon="6.35498003102839">
        <ele>254.88999999999999</ele>
        <time>2025-04-23T11:10:34Z</time>
      </trkpt>
      <trkpt lat="47.480067014694214" lon="6.354800993576646">
        <ele>255.37</ele>
        <time>2025-04-23T11:10:39Z</time>
      </trkpt>
      <trkpt lat="47.480036001652479" lon="6.354750031605363">
        <ele>255.37</ele>
        <time>2025-04-23T11:10:40Z</time>
      </trkpt>
      <trkpt lat="47.480004988610744" lon="6.354698985815048">
        <ele>255.37</ele>
        <time>2025-04-23T11:10:41Z</time>
      </trkpt>
      <trkpt lat="47.479969030246139" lon="6.354640983045101">
        <ele>255.37</ele>
        <time>2025-04-23T11:10:42Z</time>
      </trkpt>
      <trkpt lat="47.479907004162669" lon="6.354538975283504">
        <ele>254.88999999999999</ele>
        <time>2025-04-23T11:10:43Z</time>
      </trkpt>
      <trkpt lat="47.479894012212753" lon="6.354533024132252">
        <ele>254.88999999999999</ele>
        <time>2025-04-23T11:10:44Z</time>
      </trkpt>
      <trkpt lat="47.479843972250819" lon="6.354507962241769">
        <ele>254.88999999999999</ele>
        <time>2025-04-23T11:10:45Z</time>
      </trkpt>
      <trkpt lat="47.479453962296247" lon="6.354312999173999">
        <ele>256.32999999999998</ele>
        <time>2025-04-23T11:10:53Z</time>
      </trkpt>
      <trkpt lat="47.479400988668203" lon="6.354287015274167">
        <ele>256.32999999999998</ele>
        <time>2025-04-23T11:10:54Z</time>
      </trkpt>
      <trkpt lat="47.47909102588892" lon="6.354132033884525">
        <ele>257.29000000000002</ele>
        <time>2025-04-23T11:11:00Z</time>
      </trkpt>
      <trkpt lat="47.479034028947353" lon="6.354106971994042">
        <ele>257.76999999999998</ele>
        <time>2025-04-23T11:11:01Z</time>
      </trkpt>
      <trkpt lat="47.478974014520645" lon="6.354081993922591">
        <ele>257.76999999999998</ele>
        <time>2025-04-23T11:11:02Z</time>
      </trkpt>
      <trkpt lat="47.478911988437176" lon="6.354055004194379">
        <ele>257.76999999999998</ele>
        <time>2025-04-23T11:11:03Z</time>
      </trkpt>
      <trkpt lat="47.478851974010468" lon="6.354029020294547">
        <ele>258.25</ele>
        <time>2025-04-23T11:11:04Z</time>
      </trkpt>
      <trkpt lat="47.478791959583759" lon="6.354003036394715">
        <ele>258.25</ele>
        <time>2025-04-23T11:11:05Z</time>
      </trkpt>
      <trkpt lat="47.478729011490941" lon="6.353976968675852">
        <ele>258.73000000000002</ele>
        <time>2025-04-23T11:11:06Z</time>
      </trkpt>
      <trkpt lat="47.47866497375071" lon="6.353948973119259">
        <ele>258.73000000000002</ele>
        <time>2025-04-23T11:11:07Z</time>
      </trkpt>
      <trkpt lat="47.478269012644887" lon="6.353747975081205">
        <ele>260.64999999999998</ele>
        <time>2025-04-23T11:11:13Z</time>
      </trkpt>
      <trkpt lat="47.478207992389798" lon="6.353695001453161">
        <ele>260.17000000000002</ele>
        <time>2025-04-23T11:11:14Z</time>
      </trkpt>
      <trkpt lat="47.478145966306329" lon="6.353642027825117">
        <ele>260.64999999999998</ele>
        <time>2025-04-23T11:11:15Z</time>
      </trkpt>
      <trkpt lat="47.477900963276625" lon="6.353414040058851">
        <ele>261.13999999999999</ele>
        <time>2025-04-23T11:11:19Z</time>
      </trkpt>
      <trkpt lat="47.47788998298347" lon="6.353401970118284">
        <ele>261.13999999999999</ele>
        <time>2025-04-23T11:11:20Z</time>
      </trkpt>
      <trkpt lat="47.477827034890652" lon="6.353266015648842">
        <ele>261.62</ele>
        <time>2025-04-23T11:11:21Z</time>
      </trkpt>
      <trkpt lat="47.477789986878633" lon="6.353185968473554">
        <ele>262.10000000000002</ele>
        <time>2025-04-23T11:11:22Z</time>
      </trkpt>
      <trkpt lat="47.477756040170789" lon="6.353103993460536">
        <ele>262.10000000000002</ele>
        <time>2025-04-23T11:11:23Z</time>
      </trkpt>
      <trkpt lat="47.477732989937067" lon="6.353011038154364">
        <ele>262.57999999999998</ele>
        <time>2025-04-23T11:11:24Z</time>
      </trkpt>
      <trkpt lat="47.477711029350758" lon="6.352910036221147">
        <ele>262.57999999999998</ele>
        <time>2025-04-23T11:11:25Z</time>
      </trkpt>
      <trkpt lat="47.477477006614208" lon="6.351700024679303">
        <ele>263.06</ele>
        <time>2025-04-23T11:11:34Z</time>
      </trkpt>
      <trkpt lat="47.477426966652274" lon="6.351540014147759">
        <ele>263.06</ele>
        <time>2025-04-23T11:11:35Z</time>
      </trkpt>
      <trkpt lat="47.476791031658649" lon="6.349991038441658">
        <ele>261.13999999999999</ele>
        <time>2025-04-23T11:11:45Z</time>
      </trkpt>
      <trkpt lat="47.476547034457326" lon="6.349440012127161">
        <ele>259.69</ele>
        <time>2025-04-23T11:11:49Z</time>
      </trkpt>
      <trkpt lat="47.476506968960166" lon="6.349342027679086">
        <ele>259.69</ele>
        <time>2025-04-23T11:11:50Z</time>
      </trkpt>
      <trkpt lat="47.475993996486068" lon="6.348121035844088">
        <ele>259.69</ele>
        <time>2025-04-23T11:12:01Z</time>
      </trkpt>
      <trkpt lat="47.475513964891434" lon="6.346985958516598">
        <ele>258.25</ele>
        <time>2025-04-23T11:12:09Z</time>
      </trkpt>
      <trkpt lat="47.474792031571269" lon="6.3451830111444">
        <ele>255.37</ele>
        <time>2025-04-23T11:12:20Z</time>
      </trkpt>
      <trkpt lat="47.473925007507205" lon="6.343033974990249">
        <ele>251.52000000000001</ele>
        <time>2025-04-23T11:12:29Z</time>
      </trkpt>
      <trkpt lat="47.472610976547003" lon="6.339754974469543">
        <ele>252.96000000000001</ele>
        <time>2025-04-23T11:12:41Z</time>
      </trkpt>
      <trkpt lat="47.471112962812185" lon="6.336099039763212">
        <ele>260.64999999999998</ele>
        <time>2025-04-23T11:12:55Z</time>
      </trkpt>
      <trkpt lat="47.469641016796231" lon="6.332494989037514">
        <ele>273.14999999999998</ele>
        <time>2025-04-23T11:13:08Z</time>
      </trkpt>
      <trkpt lat="47.468154989182949" lon="6.328798988834024">
        <ele>276.51999999999998</ele>
        <time>2025-04-23T11:13:21Z</time>
      </trkpt>
      <trkpt lat="47.466614982113242" lon="6.324968039989471">
        <ele>276.51999999999998</ele>
        <time>2025-04-23T11:13:35Z</time>
      </trkpt>
      <trkpt lat="47.465480994433165" lon="6.322269989177585">
        <ele>276.04000000000002</ele>
        <time>2025-04-23T11:13:45Z</time>
      </trkpt>
      <trkpt lat="47.465347973629832" lon="6.322029009461403">
        <ele>276.51999999999998</ele>
        <time>2025-04-23T11:13:46Z</time>
      </trkpt>
      <trkpt lat="47.465189974755049" lon="6.321825999766588">
        <ele>277</ele>
        <time>2025-04-23T11:13:47Z</time>
      </trkpt>
      <trkpt lat="47.465032981708646" lon="6.321630030870438">
        <ele>277</ele>
        <time>2025-04-23T11:13:48Z</time>
      </trkpt>
      <trkpt lat="47.464872971177101" lon="6.321430038660765">
        <ele>277.48000000000002</ele>
        <time>2025-04-23T11:13:49Z</time>
      </trkpt>
      <trkpt lat="47.463635969907045" lon="6.320130005478859">
        <ele>279.39999999999998</ele>
        <time>2025-04-23T11:13:56Z</time>
      </trkpt>
      <trkpt lat="47.46342902071774" lon="6.320027997717261">
        <ele>279.88</ele>
        <time>2025-04-23T11:13:57Z</time>
      </trkpt>
      <trkpt lat="47.463211007416248" lon="6.319936970248818">
        <ele>279.88</ele>
        <time>2025-04-23T11:13:58Z</time>
      </trkpt>
      <trkpt lat="47.462982013821602" lon="6.31989598274231">
        <ele>279.39999999999998</ele>
        <time>2025-04-23T11:13:59Z</time>
      </trkpt>
      <trkpt lat="47.46274396777153" lon="6.319859018549323">
        <ele>279.39999999999998</ele>
        <time>2025-04-23T11:14:00Z</time>
      </trkpt>
      <trkpt lat="47.461628001183271" lon="6.319586019963026">
        <ele>279.39999999999998</ele>
        <time>2025-04-23T11:14:05Z</time>
      </trkpt>
      <trkpt lat="47.461435971781611" lon="6.319430032745004">
        <ele>279.39999999999998</ele>
        <time>2025-04-23T11:14:06Z</time>
      </trkpt>
      <trkpt lat="47.461244026198983" lon="6.319273039698601">
        <ele>279.39999999999998</ele>
        <time>2025-04-23T11:14:07Z</time>
      </trkpt>
      <trkpt lat="47.461072029545903" lon="6.31908000446856">
        <ele>280.36000000000001</ele>
        <time>2025-04-23T11:14:08Z</time>
      </trkpt>
      <trkpt lat="47.46091403067112" lon="6.318846987560391">
        <ele>280.83999999999997</ele>
        <time>2025-04-23T11:14:09Z</time>
      </trkpt>
      <trkpt lat="47.460763994604349" lon="6.318605002015829">
        <ele>281.31999999999999</ele>
        <time>2025-04-23T11:14:10Z</time>
      </trkpt>
      <trkpt lat="47.460644971579313" lon="6.318323034793139">
        <ele>281.80000000000001</ele>
        <time>2025-04-23T11:14:11Z</time>
      </trkpt>
      <trkpt lat="47.460567019879818" lon="6.318024974316359">
        <ele>281.80000000000001</ele>
        <time>2025-04-23T11:14:12Z</time>
      </trkpt>
      <trkpt lat="47.460498958826065" lon="6.317714005708695">
        <ele>282.27999999999997</ele>
        <time>2025-04-23T11:14:13Z</time>
      </trkpt>
      <trkpt lat="47.460003001615405" lon="6.315515013411641">
        <ele>285.17000000000002</ele>
        <time>2025-04-23T11:14:20Z</time>
      </trkpt>
      <trkpt lat="47.459908034652472" lon="6.315228017047048">
        <ele>285.17000000000002</ele>
        <time>2025-04-23T11:14:21Z</time>
      </trkpt>
      <trkpt lat="47.459812983870506" lon="6.314942026510835">
        <ele>285.64999999999998</ele>
        <time>2025-04-23T11:14:22Z</time>
      </trkpt>
      <trkpt lat="47.459697984158993" lon="6.314688976854086">
        <ele>285.64999999999998</ele>
        <time>2025-04-23T11:14:23Z</time>
      </trkpt>
      <trkpt lat="47.459548031911254" lon="6.314464006572962">
        <ele>286.13</ele>
        <time>2025-04-23T11:14:24Z</time>
      </trkpt>
      <trkpt lat="47.459391038864851" lon="6.314239036291838">
        <ele>286.13</ele>
        <time>2025-04-23T11:14:25Z</time>
      </trkpt>
      <trkpt lat="47.459210995584726" lon="6.31405002437532">
        <ele>286.61000000000001</ele>
        <time>2025-04-23T11:14:26Z</time>
      </trkpt>
      <trkpt lat="47.457722034305334" lon="6.312494007870555">
        <ele>285.17000000000002</ele>
        <time>2025-04-23T11:14:34Z</time>
      </trkpt>
      <trkpt lat="47.456357963383198" lon="6.311122979968786">
        <ele>280.83999999999997</ele>
        <time>2025-04-23T11:14:42Z</time>
      </trkpt>
      <trkpt lat="47.456182027235627" lon="6.310981996357441">
        <ele>281.31999999999999</ele>
        <time>2025-04-23T11:14:43Z</time>
      </trkpt>
      <trkpt lat="47.455983962863684" lon="6.310897003859282">
        <ele>281.31999999999999</ele>
        <time>2025-04-23T11:14:44Z</time>
      </trkpt>
      <trkpt lat="47.455781036987901" lon="6.310821985825896">
        <ele>281.80000000000001</ele>
        <time>2025-04-23T11:14:45Z</time>
      </trkpt>
      <trkpt lat="47.45449298992753" lon="6.310575976967812">
        <ele>284.20999999999998</ele>
        <time>2025-04-23T11:14:51Z</time>
      </trkpt>
      <trkpt lat="47.454304983839393" lon="6.310456031933427">
        <ele>284.69</ele>
        <time>2025-04-23T11:14:52Z</time>
      </trkpt>
      <trkpt lat="47.454121001064777" lon="6.310324016958475">
        <ele>285.17000000000002</ele>
        <time>2025-04-23T11:14:53Z</time>
      </trkpt>
      <trkpt lat="47.453379034996033" lon="6.309804003685713">
        <ele>287.56999999999999</ele>
        <time>2025-04-23T11:14:57Z</time>
      </trkpt>
      <trkpt lat="47.453177031129599" lon="6.30973300896585">
        <ele>288.05000000000001</ele>
        <time>2025-04-23T11:14:58Z</time>
      </trkpt>
      <trkpt lat="47.45296698063612" lon="6.309685986489058">
        <ele>289.00999999999999</ele>
        <time>2025-04-23T11:14:59Z</time>
      </trkpt>
      <trkpt lat="47.452762965112925" lon="6.309670982882381">
        <ele>289.49000000000001</ele>
        <time>2025-04-23T11:15:00Z</time>
      </trkpt>
      <trkpt lat="47.452532965689898" lon="6.309720017015934">
        <ele>289.97000000000003</ele>
        <time>2025-04-23T11:15:01Z</time>
      </trkpt>
      <trkpt lat="47.452305983752012" lon="6.309775002300739">
        <ele>290.45999999999998</ele>
        <time>2025-04-23T11:15:02Z</time>
      </trkpt>
      <trkpt lat="47.452076990157366" lon="6.309854965656996">
        <ele>290.94</ele>
        <time>2025-04-23T11:15:03Z</time>
      </trkpt>
      <trkpt lat="47.4507109913975" lon="6.31014397367835">
        <ele>292.86000000000001</ele>
        <time>2025-04-23T11:15:09Z</time>
      </trkpt>
      <trkpt lat="47.449581027030945" lon="6.310178004205227">
        <ele>294.30000000000001</ele>
        <time>2025-04-23T11:15:14Z</time>
      </trkpt>
      <trkpt lat="47.449358990415931" lon="6.310245981439948">
        <ele>294.77999999999997</ele>
        <time>2025-04-23T11:15:15Z</time>
      </trkpt>
      <trkpt lat="47.44761697947979" lon="6.310672033578157">
        <ele>306.31999999999999</ele>
        <time>2025-04-23T11:15:23Z</time>
      </trkpt>
      <trkpt lat="47.446619030088186" lon="6.310783009976149">
        <ele>312.08999999999997</ele>
        <time>2025-04-23T11:15:28Z</time>
      </trkpt>
      <trkpt lat="47.446421971544623" lon="6.310749985277653">
        <ele>313.05000000000001</ele>
        <time>2025-04-23T11:15:29Z</time>
      </trkpt>
      <trkpt lat="47.446223990991712" lon="6.310677984729409">
        <ele>313.52999999999997</ele>
        <time>2025-04-23T11:15:30Z</time>
      </trkpt>
      <trkpt lat="47.446031039580703" lon="6.310590980574489">
        <ele>314.49000000000001</ele>
        <time>2025-04-23T11:15:31Z</time>
      </trkpt>
      <trkpt lat="47.445843033492565" lon="6.310467012226582">
        <ele>315.44999999999999</ele>
        <time>2025-04-23T11:15:32Z</time>
      </trkpt>
      <trkpt lat="47.445658966898918" lon="6.310344971716404">
        <ele>316.41000000000003</ele>
        <time>2025-04-23T11:15:33Z</time>
      </trkpt>
      <trkpt lat="47.442581970244646" lon="6.308243963867426">
        <ele>312.56999999999999</ele>
        <time>2025-04-23T11:15:49Z</time>
      </trkpt>
      <trkpt lat="47.441441025584936" lon="6.307379035279155">
        <ele>305.83999999999997</ele>
        <time>2025-04-23T11:15:55Z</time>
      </trkpt>
      <trkpt lat="47.441275985911489" lon="6.307178037241101">
        <ele>304.38999999999999</ele>
        <time>2025-04-23T11:15:56Z</time>
      </trkpt>
      <trkpt lat="47.441133996471763" lon="6.306930016726255">
        <ele>303.43000000000001</ele>
        <time>2025-04-23T11:15:57Z</time>
      </trkpt>
      <trkpt lat="47.440992007032037" lon="6.306672021746635">
        <ele>301.99000000000001</ele>
        <time>2025-04-23T11:15:58Z</time>
      </trkpt>
      <trkpt lat="47.44087197817862" lon="6.306388964876533">
        <ele>301.02999999999997</ele>
        <time>2025-04-23T11:15:59Z</time>
      </trkpt>
      <trkpt lat="47.440697969868779" lon="6.305766021832824">
        <ele>298.63</ele>
        <time>2025-04-23T11:16:01Z</time>
      </trkpt>
      <trkpt lat="47.440639967098832" lon="6.30543502047658">
        <ele>297.18000000000001</ele>
        <time>2025-04-23T11:16:02Z</time>
      </trkpt>
      <trkpt lat="47.440594034269452" lon="6.30511399358511">
        <ele>296.22000000000003</ele>
        <time>2025-04-23T11:16:03Z</time>
      </trkpt>
      <trkpt lat="47.440585987642407" lon="6.30479397252202">
        <ele>295.25999999999999</ele>
        <time>2025-04-23T11:16:04Z</time>
      </trkpt>
      <trkpt lat="47.440577019006014" lon="6.304479986429215">
        <ele>294.77999999999997</ele>
        <time>2025-04-23T11:16:05Z</time>
      </trkpt>
      <trkpt lat="47.440597973763943" lon="6.304179998114705">
        <ele>294.77999999999997</ele>
        <time>2025-04-23T11:16:06Z</time>
      </trkpt>
      <trkpt lat="47.440629992634058" lon="6.303879003971815">
        <ele>295.25999999999999</ele>
        <time>2025-04-23T11:16:07Z</time>
      </trkpt>
      <trkpt lat="47.440671985968947" lon="6.303591001778841">
        <ele>295.74000000000001</ele>
        <time>2025-04-23T11:16:08Z</time>
      </trkpt>
      <trkpt lat="47.441179007291794" lon="6.300417026504874">
        <ele>301.50999999999999</ele>
        <time>2025-04-23T11:16:19Z</time>
      </trkpt>
      <trkpt lat="47.441294007003307" lon="6.299471966922283">
        <ele>301.50999999999999</ele>
        <time>2025-04-23T11:16:22Z</time>
      </trkpt>
      <trkpt lat="47.441369025036693" lon="6.299160998314619">
        <ele>301.99000000000001</ele>
        <time>2025-04-23T11:16:23Z</time>
      </trkpt>
      <trkpt lat="47.441761968657374" lon="6.297457041218877">
        <ele>305.83999999999997</ele>
        <time>2025-04-23T11:16:29Z</time>
      </trkpt>
      <trkpt lat="47.441798010841012" lon="6.297196028754115">
        <ele>305.83999999999997</ele>
        <time>2025-04-23T11:16:30Z</time>
      </trkpt>
      <trkpt lat="47.441818965598941" lon="6.29690601490438">
        <ele>305.36000000000001</ele>
        <time>2025-04-23T11:16:31Z</time>
      </trkpt>
      <trkpt lat="47.441820977255702" lon="6.295072976499796">
        <ele>301.99000000000001</ele>
        <time>2025-04-23T11:16:37Z</time>
      </trkpt>
      <trkpt lat="47.441785018891096" lon="6.294784974306822">
        <ele>301.02999999999997</ele>
        <time>2025-04-23T11:16:38Z</time>
      </trkpt>
      <trkpt lat="47.441717963665724" lon="6.294497977942228">
        <ele>300.55000000000001</ele>
        <time>2025-04-23T11:16:39Z</time>
      </trkpt>
      <trkpt lat="47.441647974774241" lon="6.29420000128448">
        <ele>300.06999999999999</ele>
        <time>2025-04-23T11:16:40Z</time>
      </trkpt>
      <trkpt lat="47.441531969234347" lon="6.293960027396679">
        <ele>299.58999999999997</ele>
        <time>2025-04-23T11:16:41Z</time>
      </trkpt>
      <trkpt lat="47.44140800088644" lon="6.29370303824544">
        <ele>299.11000000000001</ele>
        <time>2025-04-23T11:16:42Z</time>
      </trkpt>
      <trkpt lat="47.441256958991289" lon="6.293486030772328">
        <ele>298.63</ele>
        <time>2025-04-23T11:16:43Z</time>
      </trkpt>
      <trkpt lat="47.441087979823351" lon="6.293282015249133">
        <ele>297.67000000000002</ele>
        <time>2025-04-23T11:16:44Z</time>
      </trkpt>
      <trkpt lat="47.440911959856749" lon="6.293098032474518">
        <ele>296.69999999999999</ele>
        <time>2025-04-23T11:16:45Z</time>
      </trkpt>
      <trkpt lat="47.440704004839063" lon="6.292972974479199">
        <ele>296.22000000000003</ele>
        <time>2025-04-23T11:16:46Z</time>
      </trkpt>
      <trkpt lat="47.440491020679474" lon="6.29284598864615">
        <ele>295.74000000000001</ele>
        <time>2025-04-23T11:16:47Z</time>
      </trkpt>
      <trkpt lat="47.440267978236079" lon="6.29278002306819">
        <ele>295.74000000000001</ele>
        <time>2025-04-23T11:16:48Z</time>
      </trkpt>
      <trkpt lat="47.440037978813052" lon="6.29274096339941">
        <ele>295.74000000000001</ele>
        <time>2025-04-23T11:16:49Z</time>
      </trkpt>
      <trkpt lat="47.439799010753632" lon="6.2927380297333">
        <ele>295.74000000000001</ele>
        <time>2025-04-23T11:16:50Z</time>
      </trkpt>
      <trkpt lat="47.436760989949107" lon="6.292680026963353">
        <ele>291.89999999999998</ele>
        <time>2025-04-23T11:17:04Z</time>
      </trkpt>
      <trkpt lat="47.436362011358142" lon="6.292626969516277">
        <ele>290.94</ele>
        <time>2025-04-23T11:17:05Z</time>
      </trkpt>
      <trkpt lat="47.436180040240288" lon="6.292547006160021">
        <ele>289.97000000000003</ele>
        <time>2025-04-23T11:17:06Z</time>
      </trkpt>
      <trkpt lat="47.435995973646641" lon="6.292466036975384">
        <ele>289.49000000000001</ele>
        <time>2025-04-23T11:17:07Z</time>
      </trkpt>
      <trkpt lat="47.4352209828794" lon="6.29213503561914">
        <ele>288.52999999999997</ele>
        <time>2025-04-23T11:17:11Z</time>
      </trkpt>
      <trkpt lat="47.435030965134501" lon="6.292102010920644">
        <ele>288.52999999999997</ele>
        <time>2025-04-23T11:17:12Z</time>
      </trkpt>
      <trkpt lat="47.434848994016647" lon="6.292069992050529">
        <ele>288.52999999999997</ele>
        <time>2025-04-23T11:17:13Z</time>
      </trkpt>
      <trkpt lat="47.43468496017158" lon="6.292068986222148">
        <ele>288.52999999999997</ele>
        <time>2025-04-23T11:17:14Z</time>
      </trkpt>
      <trkpt lat="47.434537019580603" lon="6.292096981778741">
        <ele>289.00999999999999</ele>
        <time>2025-04-23T11:17:15Z</time>
      </trkpt>
      <trkpt lat="47.434407016262412" lon="6.292121959850192">
        <ele>289.00999999999999</ele>
        <time>2025-04-23T11:17:16Z</time>
      </trkpt>
      <trkpt lat="47.434196965768933" lon="6.292164037004113">
        <ele>289.97000000000003</ele>
        <time>2025-04-23T11:17:18Z</time>
      </trkpt>
      <trkpt lat="47.433805027976632" lon="6.292327987030149">
        <ele>289.97000000000003</ele>
        <time>2025-04-23T11:17:22Z</time>
      </trkpt>
      <trkpt lat="47.43360998108983" lon="6.292390013113618">
        <ele>289.97000000000003</ele>
        <time>2025-04-23T11:17:24Z</time>
      </trkpt>
      <trkpt lat="47.43352297693491" lon="6.292378026992083">
        <ele>289.49000000000001</ele>
        <time>2025-04-23T11:17:25Z</time>
      </trkpt>
      <trkpt lat="47.433459023013711" lon="6.29230703227222">
        <ele>289.00999999999999</ele>
        <time>2025-04-23T11:17:26Z</time>
      </trkpt>
      <trkpt lat="47.433420969173312" lon="6.29222497344017">
        <ele>288.52999999999997</ele>
        <time>2025-04-23T11:17:27Z</time>
      </trkpt>
      <trkpt lat="47.43339498527348" lon="6.29209597595036">
        <ele>288.05000000000001</ele>
        <time>2025-04-23T11:17:28Z</time>
      </trkpt>
      <trkpt lat="47.433398002758622" lon="6.291978964582086">
        <ele>287.56999999999999</ele>
        <time>2025-04-23T11:17:29Z</time>
      </trkpt>
      <trkpt lat="47.433420969173312" lon="6.291820965707302">
        <ele>286.61000000000001</ele>
        <time>2025-04-23T11:17:30Z</time>
      </trkpt>
      <trkpt lat="47.433444019407034" lon="6.291667995974422">
        <ele>286.13</ele>
        <time>2025-04-23T11:17:31Z</time>
      </trkpt>
      <trkpt lat="47.433532029390335" lon="6.291076987981796">
        <ele>284.69</ele>
        <time>2025-04-23T11:17:35Z</time>
      </trkpt>
      <trkpt lat="47.433536974713206" lon="6.290939021855593">
        <ele>284.20999999999998</ele>
        <time>2025-04-23T11:17:36Z</time>
      </trkpt>
      <trkpt lat="47.433528006076813" lon="6.290766019374132">
        <ele>283.73000000000002</ele>
        <time>2025-04-23T11:17:37Z</time>
      </trkpt>
      <trkpt lat="47.433506967499852" lon="6.290598968043923">
        <ele>283.25</ele>
        <time>2025-04-23T11:17:38Z</time>
      </trkpt>
      <trkpt lat="47.433485006913543" lon="6.290428983047605">
        <ele>282.76999999999998</ele>
        <time>2025-04-23T11:17:39Z</time>
      </trkpt>
      <trkpt lat="47.4333939794451" lon="6.289711995050311">
        <ele>280.83999999999997</ele>
        <time>2025-04-23T11:17:43Z</time>
      </trkpt>
      <trkpt lat="47.433347962796688" lon="6.289549972862005">
        <ele>280.36000000000001</ele>
        <time>2025-04-23T11:17:44Z</time>
      </trkpt>
      <trkpt lat="47.433278979733586" lon="6.289372025057674">
        <ele>279.39999999999998</ele>
        <time>2025-04-23T11:17:45Z</time>
      </trkpt>
      <trkpt lat="47.433171020820737" lon="6.289231963455677">
        <ele>278.44</ele>
        <time>2025-04-23T11:17:46Z</time>
      </trkpt>
      <trkpt lat="47.433059038594365" lon="6.289086034521461">
        <ele>277.95999999999998</ele>
        <time>2025-04-23T11:17:47Z</time>
      </trkpt>
      <trkpt lat="47.432943033054471" lon="6.288933986797929">
        <ele>277.48000000000002</ele>
        <time>2025-04-23T11:17:48Z</time>
      </trkpt>
      <trkpt lat="47.431703014299273" lon="6.287297001108527">
        <ele>270.75</ele>
        <time>2025-04-23T11:17:57Z</time>
      </trkpt>
      <trkpt lat="47.430925006046891" lon="6.286134012043476">
        <ele>267.86000000000001</ele>
        <time>2025-04-23T11:18:02Z</time>
      </trkpt>
      <trkpt lat="47.430798020213842" lon="6.285856990143657">
        <ele>267.38</ele>
        <time>2025-04-23T11:18:03Z</time>
      </trkpt>
      <trkpt lat="47.430706992745399" lon="6.285560019314289">
        <ele>266.89999999999998</ele>
        <time>2025-04-23T11:18:04Z</time>
      </trkpt>
      <trkpt lat="47.430635998025537" lon="6.285235974937677">
        <ele>267.38</ele>
        <time>2025-04-23T11:18:05Z</time>
      </trkpt>
      <trkpt lat="47.430563997477293" lon="6.284904973581433">
        <ele>267.38</ele>
        <time>2025-04-23T11:18:06Z</time>
      </trkpt>
      <trkpt lat="47.429835023358464" lon="6.281551038846374">
        <ele>263.54000000000002</ele>
        <time>2025-04-23T11:18:16Z</time>
      </trkpt>
      <trkpt lat="47.429067995399237" lon="6.27799803391099">
        <ele>260.17000000000002</ele>
        <time>2025-04-23T11:18:27Z</time>
      </trkpt>
      <trkpt lat="47.428133999928832" lon="6.273602982982993">
        <ele>256.81</ele>
        <time>2025-04-23T11:18:41Z</time>
      </trkpt>
      <trkpt lat="47.427873993292451" lon="6.272270008921623">
        <ele>258.73000000000002</ele>
        <time>2025-04-23T11:18:47Z</time>
      </trkpt>
      <trkpt lat="47.42782898247242" lon="6.272034980356693">
        <ele>259.20999999999998</ele>
        <time>2025-04-23T11:18:48Z</time>
      </trkpt>
      <trkpt lat="47.427839962765574" lon="6.271873963996768">
        <ele>259.69</ele>
        <time>2025-04-23T11:18:49Z</time>
      </trkpt>
      <trkpt lat="47.427854966372252" lon="6.271654022857547">
        <ele>260.17000000000002</ele>
        <time>2025-04-23T11:18:50Z</time>
      </trkpt>
      <trkpt lat="47.427883967757225" lon="6.271225037053227">
        <ele>261.13999999999999</ele>
        <time>2025-04-23T11:18:52Z</time>
      </trkpt>
      <trkpt lat="47.427897965535522" lon="6.271015992388129">
        <ele>261.62</ele>
        <time>2025-04-23T11:18:53Z</time>
      </trkpt>
      <trkpt lat="47.42791498079896" lon="6.270768977701664">
        <ele>262.10000000000002</ele>
        <time>2025-04-23T11:18:54Z</time>
      </trkpt>
      <trkpt lat="47.427723035216331" lon="6.269403984770179">
        <ele>260.64999999999998</ele>
        <time>2025-04-23T11:19:02Z</time>
      </trkpt>
      <trkpt lat="47.427477026358247" lon="6.267749983817339">
        <ele>257.76999999999998</ele>
        <time>2025-04-23T11:19:12Z</time>
      </trkpt>
      <trkpt lat="47.427393039688468" lon="6.267285039648414">
        <ele>257.29000000000002</ele>
        <time>2025-04-23T11:19:15Z</time>
      </trkpt>
      <trkpt lat="47.427366971969604" lon="6.267143972218037">
        <ele>256.81</ele>
        <time>2025-04-23T11:19:16Z</time>
      </trkpt>
      <trkpt lat="47.427335036918521" lon="6.266970969736576">
        <ele>256.81</ele>
        <time>2025-04-23T11:19:17Z</time>
      </trkpt>
      <trkpt lat="47.427295977249742" lon="6.266883965581656">
        <ele>256.81</ele>
        <time>2025-04-23T11:19:18Z</time>
      </trkpt>
      <trkpt lat="47.427243003621697" lon="6.266767038032413">
        <ele>256.81</ele>
        <time>2025-04-23T11:19:19Z</time>
      </trkpt>
      <trkpt lat="47.427176032215357" lon="6.266684979200363">
        <ele>256.81</ele>
        <time>2025-04-23T11:19:20Z</time>
      </trkpt>
      <trkpt lat="47.427107971161604" lon="6.266620019450784">
        <ele>256.32999999999998</ele>
        <time>2025-04-23T11:19:21Z</time>
      </trkpt>
      <trkpt lat="47.427039993926883" lon="6.266554975882173">
        <ele>256.32999999999998</ele>
        <time>2025-04-23T11:19:22Z</time>
      </trkpt>
      <trkpt lat="47.426976040005684" lon="6.266494039446116">
        <ele>256.32999999999998</ele>
        <time>2025-04-23T11:19:23Z</time>
      </trkpt>
      <trkpt lat="47.426918037235737" lon="6.266437964513898">
        <ele>256.32999999999998</ele>
        <time>2025-04-23T11:19:24Z</time>
      </trkpt>
      <trkpt lat="47.42658301256597" lon="6.266231015324593">
        <ele>255.37</ele>
        <time>2025-04-23T11:19:29Z</time>
      </trkpt>
      <trkpt lat="47.42647698149085" lon="6.266197990626097">
        <ele>254.88999999999999</ele>
        <time>2025-04-23T11:19:30Z</time>
      </trkpt>
      <trkpt lat="47.426434988155961" lon="6.266193967312574">
        <ele>253.93000000000001</ele>
        <time>2025-04-23T11:19:31Z</time>
      </trkpt>
      <trkpt lat="47.426357958465815" lon="6.266186004504561">
        <ele>252.96000000000001</ele>
        <time>2025-04-23T11:19:32Z</time>
      </trkpt>
      <trkpt lat="47.426277995109558" lon="6.266178041696549">
        <ele>252</ele>
        <time>2025-04-23T11:19:33Z</time>
      </trkpt>
      <trkpt lat="47.426208006218076" lon="6.266128001734614">
        <ele>251.52000000000001</ele>
        <time>2025-04-23T11:19:34Z</time>
      </trkpt>
      <trkpt lat="47.426142040640116" lon="6.266067987307906">
        <ele>251.03999999999999</ele>
        <time>2025-04-23T11:19:35Z</time>
      </trkpt>
      <trkpt lat="47.426074985414743" lon="6.266006967052817">
        <ele>250.08000000000001</ele>
        <time>2025-04-23T11:19:36Z</time>
      </trkpt>
      <trkpt lat="47.426001979038119" lon="6.265941001474857">
        <ele>249.59999999999999</ele>
        <time>2025-04-23T11:19:37Z</time>
      </trkpt>
      <trkpt lat="47.425931990146637" lon="6.265877969563007">
        <ele>249.59999999999999</ele>
        <time>2025-04-23T11:19:38Z</time>
      </trkpt>
      <trkpt lat="47.425863007083535" lon="6.26581602729857">
        <ele>249.59999999999999</ele>
        <time>2025-04-23T11:19:39Z</time>
      </trkpt>
      <trkpt lat="47.425794024020433" lon="6.265746960416436">
        <ele>249.59999999999999</ele>
        <time>2025-04-23T11:19:40Z</time>
      </trkpt>
      <trkpt lat="47.425044011324644" lon="6.264826040714979">
        <ele>247.19999999999999</ele>
        <time>2025-04-23T11:19:51Z</time>
      </trkpt>
      <trkpt lat="47.424919037148356" lon="6.264629987999797">
        <ele>246.22999999999999</ele>
        <time>2025-04-23T11:19:53Z</time>
      </trkpt>
      <trkpt lat="47.424872014671564" lon="6.264513982459903">
        <ele>245.75</ele>
        <time>2025-04-23T11:19:54Z</time>
      </trkpt>
      <trkpt lat="47.424844019114971" lon="6.264379033818841">
        <ele>245.27000000000001</ele>
        <time>2025-04-23T11:19:55Z</time>
      </trkpt>
      <trkpt lat="47.424815017729998" lon="6.26422799192369">
        <ele>244.31</ele>
        <time>2025-04-23T11:19:56Z</time>
      </trkpt>
      <trkpt lat="47.424781993031502" lon="6.264051971957088">
        <ele>243.83000000000001</ele>
        <time>2025-04-23T11:19:57Z</time>
      </trkpt>
      <trkpt lat="47.42477604188025" lon="6.263911994174123">
        <ele>243.34999999999999</ele>
        <time>2025-04-23T11:19:58Z</time>
      </trkpt>
      <trkpt lat="47.424714015796781" lon="6.262329993769527">
        <ele>241.91</ele>
        <time>2025-04-23T11:20:07Z</time>
      </trkpt>
      <trkpt lat="47.424632040783763" lon="6.261113025248051">
        <ele>243.34999999999999</ele>
        <time>2025-04-23T11:20:13Z</time>
      </trkpt>
      <trkpt lat="47.424589041620493" lon="6.260898029431701">
        <ele>243.83000000000001</ele>
        <time>2025-04-23T11:20:14Z</time>
      </trkpt>
      <trkpt lat="47.424525003880262" lon="6.260690996423364">
        <ele>244.31</ele>
        <time>2025-04-23T11:20:15Z</time>
      </trkpt>
      <trkpt lat="47.424441017210484" lon="6.260495027527213">
        <ele>245.27000000000001</ele>
        <time>2025-04-23T11:20:16Z</time>
      </trkpt>
      <trkpt lat="47.424315037205815" lon="6.260353038087487">
        <ele>246.22999999999999</ele>
        <time>2025-04-23T11:20:17Z</time>
      </trkpt>
      <trkpt lat="47.424169024452567" lon="6.260238038375974">
        <ele>246.72</ele>
        <time>2025-04-23T11:20:18Z</time>
      </trkpt>
      <trkpt lat="47.424001973122358" lon="6.260153967887163">
        <ele>247.68000000000001</ele>
        <time>2025-04-23T11:20:19Z</time>
      </trkpt>
      <trkpt lat="47.423823019489646" lon="6.260065035894513">
        <ele>248.63999999999999</ele>
        <time>2025-04-23T11:20:20Z</time>
      </trkpt>
      <trkpt lat="47.423645993694663" lon="6.259954981505871">
        <ele>249.59999999999999</ele>
        <time>2025-04-23T11:20:21Z</time>
      </trkpt>
      <trkpt lat="47.423481959849596" lon="6.259792037308216">
        <ele>251.03999999999999</ele>
        <time>2025-04-23T11:20:22Z</time>
      </trkpt>
      <trkpt lat="47.423343993723392" lon="6.259581986814737">
        <ele>252</ele>
        <time>2025-04-23T11:20:23Z</time>
      </trkpt>
      <trkpt lat="47.423200998455286" lon="6.259343018755317">
        <ele>252.96000000000001</ele>
        <time>2025-04-23T11:20:24Z</time>
      </trkpt>
      <trkpt lat="47.423053979873657" lon="6.259099021553993">
        <ele>253.93000000000001</ele>
        <time>2025-04-23T11:20:25Z</time>
      </trkpt>
      <trkpt lat="47.422905033454299" lon="6.258851001039147">
        <ele>255.37</ele>
        <time>2025-04-23T11:20:26Z</time>
      </trkpt>
      <trkpt lat="47.421895014122128" lon="6.257457006722689">
        <ele>262.57999999999998</ele>
        <time>2025-04-23T11:20:32Z</time>
      </trkpt>
      <trkpt lat="47.421090016141534" lon="6.255900990217924">
        <ele>269.31</ele>
        <time>2025-04-23T11:20:38Z</time>
      </trkpt>
      <trkpt lat="47.420709980651736" lon="6.253922022879124">
        <ele>271.70999999999998</ele>
        <time>2025-04-23T11:20:44Z</time>
      </trkpt>
      <trkpt lat="47.420516023412347" lon="6.250317972153425">
        <ele>268.35000000000002</ele>
        <time>2025-04-23T11:20:54Z</time>
      </trkpt>
      <trkpt lat="47.420455003157258" lon="6.249697962775827">
        <ele>267.38</ele>
        <time>2025-04-23T11:20:56Z</time>
      </trkpt>
      <trkpt lat="47.420392977073789" lon="6.249380959197879">
        <ele>267.38</ele>
        <time>2025-04-23T11:20:57Z</time>
      </trkpt>
      <trkpt lat="47.420297004282475" lon="6.249055992811918">
        <ele>266.89999999999998</ele>
        <time>2025-04-23T11:20:58Z</time>
      </trkpt>
      <trkpt lat="47.419430986046791" lon="6.246232967823744">
        <ele>260.17000000000002</ele>
        <time>2025-04-23T11:21:07Z</time>
      </trkpt>
      <trkpt lat="47.41932101547718" lon="6.246047979220748">
        <ele>259.69</ele>
        <time>2025-04-23T11:21:08Z</time>
      </trkpt>
      <trkpt lat="47.419196963310242" lon="6.245868019759655">
        <ele>258.73000000000002</ele>
        <time>2025-04-23T11:21:09Z</time>
      </trkpt>
      <trkpt lat="47.419049022719264" lon="6.245719995349646">
        <ele>258.25</ele>
        <time>2025-04-23T11:21:10Z</time>
      </trkpt>
      <trkpt lat="47.418888006359339" lon="6.245584962889552">
        <ele>257.29000000000002</ele>
        <time>2025-04-23T11:21:11Z</time>
      </trkpt>
      <trkpt lat="47.418566979467869" lon="6.245369967073202">
        <ele>255.37</ele>
        <time>2025-04-23T11:21:13Z</time>
      </trkpt>
      <trkpt lat="47.418411998078227" lon="6.245311964303255">
        <ele>254.88999999999999</ele>
        <time>2025-04-23T11:21:14Z</time>
      </trkpt>
      <trkpt lat="47.418251987546682" lon="6.245292015373707">
        <ele>253.93000000000001</ele>
        <time>2025-04-23T11:21:15Z</time>
      </trkpt>
      <trkpt lat="47.417534999549389" lon="6.245267037302256">
        <ele>249.12</ele>
        <time>2025-04-23T11:21:21Z</time>
      </trkpt>
      <trkpt lat="47.417197041213512" lon="6.245258990675211">
        <ele>245.27000000000001</ele>
        <time>2025-04-23T11:21:27Z</time>
      </trkpt>
      <trkpt lat="47.417148007079959" lon="6.24525798484683">
        <ele>242.38999999999999</ele>
        <time>2025-04-23T11:21:33Z</time>
      </trkpt>
      <trkpt lat="47.417113976553082" lon="6.24525798484683">
        <ele>242.38999999999999</ele>
        <time>2025-04-23T11:21:34Z</time>
      </trkpt>
      <trkpt lat="47.417056979611516" lon="6.245193025097251">
        <ele>241.91</ele>
        <time>2025-04-23T11:21:35Z</time>
      </trkpt>
      <trkpt lat="47.416904009878635" lon="6.245263013988733">
        <ele>241.43000000000001</ele>
        <time>2025-04-23T11:21:37Z</time>
      </trkpt>
      <trkpt lat="47.416811976581812" lon="6.245268965139985">
        <ele>240.94999999999999</ele>
        <time>2025-04-23T11:21:38Z</time>
      </trkpt>
      <trkpt lat="47.416616007685661" lon="6.245282962918282">
        <ele>241.43000000000001</ele>
        <time>2025-04-23T11:21:40Z</time>
      </trkpt>
      <trkpt lat="47.415703972801566" lon="6.245350018143654">
        <ele>241.91</ele>
        <time>2025-04-23T11:21:47Z</time>
      </trkpt>
      <trkpt lat="47.414041003212333" lon="6.245502987876535">
        <ele>239.50999999999999</ele>
        <time>2025-04-23T11:21:55Z</time>
      </trkpt>
      <trkpt lat="47.413401966914535" lon="6.245483038946986">
        <ele>238.53999999999999</ele>
        <time>2025-04-23T11:21:58Z</time>
      </trkpt>
      <trkpt lat="47.4119290150702" lon="6.24474098905921">
        <ele>238.06</ele>
        <time>2025-04-23T11:22:05Z</time>
      </trkpt>
      <trkpt lat="47.41049000993371" lon="6.243051029741764">
        <ele>237.58000000000001</ele>
        <time>2025-04-23T11:22:13Z</time>
      </trkpt>
      <trkpt lat="47.409632038325071" lon="6.241872031241655">
        <ele>235.18000000000001</ele>
        <time>2025-04-23T11:22:19Z</time>
      </trkpt>
      <trkpt lat="47.409518966451287" lon="6.241727024316788">
        <ele>235.18000000000001</ele>
        <time>2025-04-23T11:22:20Z</time>
      </trkpt>
      <trkpt lat="47.409416036680341" lon="6.241595009341836">
        <ele>234.69999999999999</ele>
        <time>2025-04-23T11:22:21Z</time>
      </trkpt>
      <trkpt lat="47.409292990341783" lon="6.241522002965212">
        <ele>234.22</ele>
        <time>2025-04-23T11:22:22Z</time>
      </trkpt>
      <trkpt lat="47.409153012558818" lon="6.241484032943845">
        <ele>233.25999999999999</ele>
        <time>2025-04-23T11:22:23Z</time>
      </trkpt>
      <trkpt lat="47.409003982320428" lon="6.241457965224981">
        <ele>233.25999999999999</ele>
        <time>2025-04-23T11:22:24Z</time>
      </trkpt>
      <trkpt lat="47.408852018415928" lon="6.241465006023645">
        <ele>233.25999999999999</ele>
        <time>2025-04-23T11:22:25Z</time>
      </trkpt>
      <trkpt lat="47.407873012125492" lon="6.241641025990248">
        <ele>232.78</ele>
        <time>2025-04-23T11:22:33Z</time>
      </trkpt>
      <trkpt lat="47.406948991119862" lon="6.241808999329805">
        <ele>232.30000000000001</ele>
        <time>2025-04-23T11:22:44Z</time>
      </trkpt>
      <trkpt lat="47.406305009499192" lon="6.241868007928133">
        <ele>231.81</ele>
        <time>2025-04-23T11:22:52Z</time>
      </trkpt>
      <trkpt lat="47.406216999515891" lon="6.24181897379458">
        <ele>232.30000000000001</ele>
        <time>2025-04-23T11:22:53Z</time>
      </trkpt>
      <trkpt lat="47.406133012846112" lon="6.241762982681394">
        <ele>232.78</ele>
        <time>2025-04-23T11:22:54Z</time>
      </trkpt>
      <trkpt lat="47.406051037833095" lon="6.241706991568208">
        <ele>233.25999999999999</ele>
        <time>2025-04-23T11:22:55Z</time>
      </trkpt>
      <trkpt lat="47.405971996486187" lon="6.241654017940164">
        <ele>234.22</ele>
        <time>2025-04-23T11:22:56Z</time>
      </trkpt>
      <trkpt lat="47.405424993485212" lon="6.241284962743521">
        <ele>239.50999999999999</ele>
        <time>2025-04-23T11:23:03Z</time>
      </trkpt>
      <trkpt lat="47.404471971094608" lon="6.240548025816679">
        <ele>248.16</ele>
        <time>2025-04-23T11:23:11Z</time>
      </trkpt>
      <trkpt lat="47.403478967025876" lon="6.239737998694181">
        <ele>255.37</ele>
        <time>2025-04-23T11:23:17Z</time>
      </trkpt>
      <trkpt lat="47.401559008285403" lon="6.238401001319289">
        <ele>267.38</ele>
        <time>2025-04-23T11:23:26Z</time>
      </trkpt>
      <trkpt lat="47.399891009554267" lon="6.237487960606813">
        <ele>275.06999999999999</ele>
        <time>2025-04-23T11:23:34Z</time>
      </trkpt>
      <trkpt lat="47.399119958281517" lon="6.237183026969433">
        <ele>279.88</ele>
        <time>2025-04-23T11:23:38Z</time>
      </trkpt>
      <trkpt lat="47.398939998820424" lon="6.237111026421189">
        <ele>281.31999999999999</ele>
        <time>2025-04-23T11:23:39Z</time>
      </trkpt>
      <trkpt lat="47.397980019450188" lon="6.236730990931392">
        <ele>288.05000000000001</ele>
        <time>2025-04-23T11:23:46Z</time>
      </trkpt>
      <trkpt lat="47.397865019738674" lon="6.23668497428298">
        <ele>289.49000000000001</ele>
        <time>2025-04-23T11:23:48Z</time>
      </trkpt>
      <trkpt lat="47.397828977555037" lon="6.236670976504684">
        <ele>290.45999999999998</ele>
        <time>2025-04-23T11:23:49Z</time>
      </trkpt>
      <trkpt lat="47.397803999483585" lon="6.236661002039909">
        <ele>291.42000000000002</ele>
        <time>2025-04-23T11:23:50Z</time>
      </trkpt>
      <trkpt lat="47.397782038897276" lon="6.236653039231896">
        <ele>291.89999999999998</ele>
        <time>2025-04-23T11:23:51Z</time>
      </trkpt>
      <trkpt lat="47.397758988663554" lon="6.236643986776471">
        <ele>292.86000000000001</ele>
        <time>2025-04-23T11:23:52Z</time>
      </trkpt>
      <trkpt lat="47.397691011428833" lon="6.236612973734736">
        <ele>293.81999999999999</ele>
        <time>2025-04-23T11:23:56Z</time>
      </trkpt>
      <trkpt lat="47.397691011428833" lon="6.236612973734736">
        <ele>294.77999999999997</ele>
        <time>2025-04-23T11:24:07Z</time>
      </trkpt>
      <trkpt lat="47.39764197729528" lon="6.236541979014874">
        <ele>301.02999999999997</ele>
        <time>2025-04-23T11:28:08Z</time>
      </trkpt>
      <trkpt lat="47.397711966186762" lon="6.236610040068626">
        <ele>293.81999999999999</ele>
        <time>2025-04-23T11:28:35Z</time>
      </trkpt>
      <trkpt lat="47.397630997002125" lon="6.236583972349763">
        <ele>297.67000000000002</ele>
        <time>2025-04-23T11:28:39Z</time>
      </trkpt>
      <trkpt lat="47.397586992010474" lon="6.236563017591834">
        <ele>297.67000000000002</ele>
        <time>2025-04-23T11:28:40Z</time>
      </trkpt>
      <trkpt lat="47.397436033934355" lon="6.236487999558449">
        <ele>296.22000000000003</ele>
        <time>2025-04-23T11:28:41Z</time>
      </trkpt>
      <trkpt lat="47.397326985374093" lon="6.236435025930405">
        <ele>295.74000000000001</ele>
        <time>2025-04-23T11:28:42Z</time>
      </trkpt>
      <trkpt lat="47.396413022652268" lon="6.235985001549125">
        <ele>294.30000000000001</ele>
        <time>2025-04-23T11:28:48Z</time>
      </trkpt>
      <trkpt lat="47.394593982025981" lon="6.234841039404273">
        <ele>294.30000000000001</ele>
        <time>2025-04-23T11:28:59Z</time>
      </trkpt>
      <trkpt lat="47.393456976860762" lon="6.233303966000676">
        <ele>292.38</ele>
        <time>2025-04-23T11:29:07Z</time>
      </trkpt>
      <trkpt lat="47.39196902140975" lon="6.231149984523654">
        <ele>283.25</ele>
        <time>2025-04-23T11:29:16Z</time>
      </trkpt>
      <trkpt lat="47.390538984909654" lon="6.228975970298052">
        <ele>273.63</ele>
        <time>2025-04-23T11:29:25Z</time>
      </trkpt>
      <trkpt lat="47.38939099945128" lon="6.22695199213922">
        <ele>279.88</ele>
        <time>2025-04-23T11:29:34Z</time>
      </trkpt>
      <trkpt lat="47.389140967279673" lon="6.226394008845091">
        <ele>284.20999999999998</ele>
        <time>2025-04-23T11:29:39Z</time>
      </trkpt>
      <trkpt lat="47.389020016416907" lon="6.225857986137271">
        <ele>289.00999999999999</ele>
        <time>2025-04-23T11:29:47Z</time>
      </trkpt>
      <trkpt lat="47.388990009203553" lon="6.225728988647461">
        <ele>289.49000000000001</ele>
        <time>2025-04-23T11:29:48Z</time>
      </trkpt>
      <trkpt lat="47.388950027525425" lon="6.225510975345969">
        <ele>289.97000000000003</ele>
        <time>2025-04-23T11:29:50Z</time>
      </trkpt>
      <trkpt lat="47.38891800865531" lon="6.225393963977695">
        <ele>290.45999999999998</ele>
        <time>2025-04-23T11:29:51Z</time>
      </trkpt>
      <trkpt lat="47.388886995613575" lon="6.225281981751323">
        <ele>290.45999999999998</ele>
        <time>2025-04-23T11:29:52Z</time>
      </trkpt>
      <trkpt lat="47.388595975935459" lon="6.224673958495259">
        <ele>290.45999999999998</ele>
        <time>2025-04-23T11:29:58Z</time>
      </trkpt>
      <trkpt lat="47.388541996479034" lon="6.224568011239171">
        <ele>289.97000000000003</ele>
        <time>2025-04-23T11:29:59Z</time>
      </trkpt>
      <trkpt lat="47.387980995699763" lon="6.223535025492311">
        <ele>289.97000000000003</ele>
        <time>2025-04-23T11:30:08Z</time>
      </trkpt>
      <trkpt lat="47.387489983811975" lon="6.222629025578499">
        <ele>288.05000000000001</ele>
        <time>2025-04-23T11:30:16Z</time>
      </trkpt>
      <trkpt lat="47.387281022965908" lon="6.222058972343803">
        <ele>286.13</ele>
        <time>2025-04-23T11:30:22Z</time>
      </trkpt>
      <trkpt lat="47.387254033237696" lon="6.221958976238966">
        <ele>285.64999999999998</ele>
        <time>2025-04-23T11:30:23Z</time>
      </trkpt>
      <trkpt lat="47.387240035459399" lon="6.221851017326117">
        <ele>285.17000000000002</ele>
        <time>2025-04-23T11:30:24Z</time>
      </trkpt>
      <trkpt lat="47.387226959690452" lon="6.22175102122128">
        <ele>284.69</ele>
        <time>2025-04-23T11:30:25Z</time>
      </trkpt>
      <trkpt lat="47.387212961912155" lon="6.221639038994908">
        <ele>284.20999999999998</ele>
        <time>2025-04-23T11:30:26Z</time>
      </trkpt>
      <trkpt lat="47.38692102022469" lon="6.220018984749913">
        <ele>283.73000000000002</ele>
        <time>2025-04-23T11:30:38Z</time>
      </trkpt>
      <trkpt lat="47.386707030236721" lon="6.21829298324883">
        <ele>286.13</ele>
        <time>2025-04-23T11:30:47Z</time>
      </trkpt>
      <trkpt lat="47.386870980262756" lon="6.216513002291322">
        <ele>286.61000000000001</ele>
        <time>2025-04-23T11:30:53Z</time>
      </trkpt>
      <trkpt lat="47.387068960815668" lon="6.212908029556274">
        <ele>281.31999999999999</ele>
        <time>2025-04-23T11:31:04Z</time>
      </trkpt>
      <trkpt lat="47.387275993824005" lon="6.208655973896384">
        <ele>271.23000000000002</ele>
        <time>2025-04-23T11:31:17Z</time>
      </trkpt>
      <trkpt lat="47.387246992439032" lon="6.205692971125245">
        <ele>267.38</ele>
        <time>2025-04-23T11:31:26Z</time>
      </trkpt>
      <trkpt lat="47.387271970510483" lon="6.203387025743723">
        <ele>262.10000000000002</ele>
        <time>2025-04-23T11:31:33Z</time>
      </trkpt>
      <trkpt lat="47.387804975733161" lon="6.201283000409603">
        <ele>257.29000000000002</ele>
        <time>2025-04-23T11:31:40Z</time>
      </trkpt>
      <trkpt lat="47.388549037277699" lon="6.19852895848453">
        <ele>255.37</ele>
        <time>2025-04-23T11:31:49Z</time>
      </trkpt>
      <trkpt lat="47.388837961480021" lon="6.197345014661551">
        <ele>252</ele>
        <time>2025-04-23T11:31:54Z</time>
      </trkpt>
      <trkpt lat="47.388949021697044" lon="6.196687035262585">
        <ele>250.08000000000001</ele>
        <time>2025-04-23T11:31:58Z</time>
      </trkpt>
      <trkpt lat="47.388955978676677" lon="6.196523001417518">
        <ele>249.59999999999999</ele>
        <time>2025-04-23T11:31:59Z</time>
      </trkpt>
      <trkpt lat="47.38896201364696" lon="6.196358967572451">
        <ele>249.12</ele>
        <time>2025-04-23T11:32:00Z</time>
      </trkpt>
      <trkpt lat="47.388938963413239" lon="6.195679027587175">
        <ele>247.68000000000001</ele>
        <time>2025-04-23T11:32:04Z</time>
      </trkpt>
      <trkpt lat="47.388925971463323" lon="6.1954740062356">
        <ele>247.68000000000001</ele>
        <time>2025-04-23T11:32:05Z</time>
      </trkpt>
      <trkpt lat="47.388831004500389" lon="6.19461502879858">
        <ele>248.63999999999999</ele>
        <time>2025-04-23T11:32:10Z</time>
      </trkpt>
      <trkpt lat="47.388819018378854" lon="6.194438003003597">
        <ele>248.63999999999999</ele>
        <time>2025-04-23T11:32:11Z</time>
      </trkpt>
      <trkpt lat="47.388823041692376" lon="6.194262988865376">
        <ele>249.12</ele>
        <time>2025-04-23T11:32:12Z</time>
      </trkpt>
      <trkpt lat="47.38885598257184" lon="6.193554969504476">
        <ele>251.03999999999999</ele>
        <time>2025-04-23T11:32:16Z</time>
      </trkpt>
      <trkpt lat="47.388807032257318" lon="6.191408028826118">
        <ele>258.73000000000002</ele>
        <time>2025-04-23T11:32:28Z</time>
      </trkpt>
      <trkpt lat="47.388762021437287" lon="6.189871961250901">
        <ele>260.17000000000002</ele>
        <time>2025-04-23T11:32:35Z</time>
      </trkpt>
      <trkpt lat="47.388782976195216" lon="6.187905985862017">
        <ele>261.13999999999999</ele>
        <time>2025-04-23T11:32:41Z</time>
      </trkpt>
      <trkpt lat="47.388839973136783" lon="6.187533996999264">
        <ele>261.62</ele>
        <time>2025-04-23T11:32:42Z</time>
      </trkpt>
      <trkpt lat="47.388969976454973" lon="6.186592038720846">
        <ele>263.06</ele>
        <time>2025-04-23T11:32:45Z</time>
      </trkpt>
      <trkpt lat="47.388950027525425" lon="6.184331020340323">
        <ele>262.10000000000002</ele>
        <time>2025-04-23T11:32:52Z</time>
      </trkpt>
      <trkpt lat="47.388886995613575" lon="6.183779994025827">
        <ele>260.17000000000002</ele>
        <time>2025-04-23T11:32:54Z</time>
      </trkpt>
      <trkpt lat="47.388809965923429" lon="6.183537002652884">
        <ele>259.69</ele>
        <time>2025-04-23T11:32:55Z</time>
      </trkpt>
      <trkpt lat="47.388702007010579" lon="6.183284958824515">
        <ele>258.73000000000002</ele>
        <time>2025-04-23T11:32:56Z</time>
      </trkpt>
      <trkpt lat="47.388418028131127" lon="6.182706020772457">
        <ele>256.32999999999998</ele>
        <time>2025-04-23T11:32:58Z</time>
      </trkpt>
      <trkpt lat="47.388276038691401" lon="6.182415001094341">
        <ele>255.37</ele>
        <time>2025-04-23T11:32:59Z</time>
      </trkpt>
      <trkpt lat="47.387199969962239" lon="6.179698007181287">
        <ele>256.81</ele>
        <time>2025-04-23T11:33:08Z</time>
      </trkpt>
      <trkpt lat="47.386277038604021" lon="6.178578017279506">
        <ele>261.13999999999999</ele>
        <time>2025-04-23T11:33:13Z</time>
      </trkpt>
      <trkpt lat="47.38606003113091" lon="6.178463017567992">
        <ele>262.10000000000002</ele>
        <time>2025-04-23T11:33:14Z</time>
      </trkpt>
      <trkpt lat="47.384227998554707" lon="6.177801014855504">
        <ele>269.79000000000002</ele>
        <time>2025-04-23T11:33:22Z</time>
      </trkpt>
      <trkpt lat="47.384036974981427" lon="6.177823981270194">
        <ele>270.75</ele>
        <time>2025-04-23T11:33:23Z</time>
      </trkpt>
      <trkpt lat="47.383886016905308" lon="6.177878966554999">
        <ele>271.23000000000002</ele>
        <time>2025-04-23T11:33:24Z</time>
      </trkpt>
      <trkpt lat="47.383717959746718" lon="6.178000001236796">
        <ele>272.19</ele>
        <time>2025-04-23T11:33:25Z</time>
      </trkpt>
      <trkpt lat="47.383561972528696" lon="6.178136039525271">
        <ele>272.19</ele>
        <time>2025-04-23T11:33:26Z</time>
      </trkpt>
      <trkpt lat="47.383416965603828" lon="6.178335025906563">
        <ele>273.14999999999998</ele>
        <time>2025-04-23T11:33:27Z</time>
      </trkpt>
      <trkpt lat="47.383257960900664" lon="6.178553039208055">
        <ele>273.63</ele>
        <time>2025-04-23T11:33:28Z</time>
      </trkpt>
      <trkpt lat="47.38191501237452" lon="6.180197987705469">
        <ele>278.44</ele>
        <time>2025-04-23T11:33:36Z</time>
      </trkpt>
      <trkpt lat="47.381704961881042" lon="6.180334025993943">
        <ele>278.92000000000002</ele>
        <time>2025-04-23T11:33:37Z</time>
      </trkpt>
      <trkpt lat="47.381489966064692" lon="6.180438967421651">
        <ele>279.39999999999998</ele>
        <time>2025-04-23T11:33:38Z</time>
      </trkpt>
      <trkpt lat="47.38126901909709" lon="6.180503005161881">
        <ele>279.88</ele>
        <time>2025-04-23T11:33:39Z</time>
      </trkpt>
      <trkpt lat="47.381072966381907" lon="6.180561007931829">
        <ele>280.36000000000001</ele>
        <time>2025-04-23T11:33:40Z</time>
      </trkpt>
      <trkpt lat="47.38088303245604" lon="6.180494036525488">
        <ele>280.36000000000001</ele>
        <time>2025-04-23T11:33:41Z</time>
      </trkpt>
      <trkpt lat="47.380708018317819" lon="6.180432010442019">
        <ele>279.88</ele>
        <time>2025-04-23T11:33:42Z</time>
      </trkpt>
      <trkpt lat="47.380545996129513" lon="6.180298989638686">
        <ele>279.88</ele>
        <time>2025-04-23T11:33:43Z</time>
      </trkpt>
      <trkpt lat="47.380395038053393" lon="6.180116012692452">
        <ele>279.39999999999998</ele>
        <time>2025-04-23T11:33:44Z</time>
      </trkpt>
      <trkpt lat="47.380249025300145" lon="6.179881989955902">
        <ele>279.39999999999998</ele>
        <time>2025-04-23T11:33:45Z</time>
      </trkpt>
      <trkpt lat="47.380102006718516" lon="6.179646961390972">
        <ele>278.92000000000002</ele>
        <time>2025-04-23T11:33:46Z</time>
      </trkpt>
      <trkpt lat="47.379631027579308" lon="6.178930979222059">
        <ele>277.48000000000002</ele>
        <time>2025-04-23T11:33:49Z</time>
      </trkpt>
      <trkpt lat="47.379451990127563" lon="6.178703997284174">
        <ele>277</ele>
        <time>2025-04-23T11:33:50Z</time>
      </trkpt>
      <trkpt lat="47.379251997917891" lon="6.178521020337939">
        <ele>276.51999999999998</ele>
        <time>2025-04-23T11:33:51Z</time>
      </trkpt>
      <trkpt lat="47.379034990444779" lon="6.178387999534607">
        <ele>276.04000000000002</ele>
        <time>2025-04-23T11:33:52Z</time>
      </trkpt>
      <trkpt lat="47.378809014335275" lon="6.178283980116248">
        <ele>275.56</ele>
        <time>2025-04-23T11:33:53Z</time>
      </trkpt>
      <trkpt lat="47.378574991598725" lon="6.178234023973346">
        <ele>275.06999999999999</ele>
        <time>2025-04-23T11:33:54Z</time>
      </trkpt>
      <trkpt lat="47.378324037417769" lon="6.178240980952978">
        <ele>275.06999999999999</ele>
        <time>2025-04-23T11:33:55Z</time>
      </trkpt>
      <trkpt lat="47.378074005246162" lon="6.178268976509571">
        <ele>274.11000000000001</ele>
        <time>2025-04-23T11:33:56Z</time>
      </trkpt>
      <trkpt lat="47.377825984731317" lon="6.178337037563324">
        <ele>274.11000000000001</ele>
        <time>2025-04-23T11:33:57Z</time>
      </trkpt>
      <trkpt lat="47.376353032886982" lon="6.178972972556949">
        <ele>273.14999999999998</ele>
        <time>2025-04-23T11:34:03Z</time>
      </trkpt>
      <trkpt lat="47.375656999647617" lon="6.179192997515202">
        <ele>272.67000000000002</ele>
        <time>2025-04-23T11:34:06Z</time>
      </trkpt>
      <trkpt lat="47.373800994828343" lon="6.179460966959596">
        <ele>274.11000000000001</ele>
        <time>2025-04-23T11:34:14Z</time>
      </trkpt>
      <trkpt lat="47.373391035944223" lon="6.179562974721193">
        <ele>274.58999999999997</ele>
        <time>2025-04-23T11:34:16Z</time>
      </trkpt>
      <trkpt lat="47.372413035482168" lon="6.18009296245873">
        <ele>274.11000000000001</ele>
        <time>2025-04-23T11:34:21Z</time>
      </trkpt>
      <trkpt lat="47.370756017044187" lon="6.18114204145968">
        <ele>272.19</ele>
        <time>2025-04-23T11:34:29Z</time>
      </trkpt>
      <trkpt lat="47.369210980832577" lon="6.181784011423588">
        <ele>271.70999999999998</ele>
        <time>2025-04-23T11:34:36Z</time>
      </trkpt>
      <trkpt lat="47.368983998894691" lon="6.181858023628593">
        <ele>271.70999999999998</ele>
        <time>2025-04-23T11:34:37Z</time>
      </trkpt>
      <trkpt lat="47.368068024516106" lon="6.181955002248287">
        <ele>271.70999999999998</ele>
        <time>2025-04-23T11:34:41Z</time>
      </trkpt>
      <trkpt lat="47.366741001605988" lon="6.182163041085005">
        <ele>269.79000000000002</ele>
        <time>2025-04-23T11:34:47Z</time>
      </trkpt>
      <trkpt lat="47.366584008559585" lon="6.182311987504363">
        <ele>269.31</ele>
        <time>2025-04-23T11:34:48Z</time>
      </trkpt>
      <trkpt lat="47.366422992199659" lon="6.182483984157443">
        <ele>268.82999999999998</ele>
        <time>2025-04-23T11:34:49Z</time>
      </trkpt>
      <trkpt lat="47.366285026073456" lon="6.182709038257599">
        <ele>267.86000000000001</ele>
        <time>2025-04-23T11:34:50Z</time>
      </trkpt>
      <trkpt lat="47.366138007491827" lon="6.182969966903329">
        <ele>267.38</ele>
        <time>2025-04-23T11:34:51Z</time>
      </trkpt>
      <trkpt lat="47.365983026102185" lon="6.183236008509994">
        <ele>266.42000000000002</ele>
        <time>2025-04-23T11:34:52Z</time>
      </trkpt>
      <trkpt lat="47.365631991997361" lon="6.18370296433568">
        <ele>265.45999999999998</ele>
        <time>2025-04-23T11:34:54Z</time>
      </trkpt>
      <trkpt lat="47.365424958989024" lon="6.183888036757708">
        <ele>264.98000000000002</ele>
        <time>2025-04-23T11:34:55Z</time>
      </trkpt>
      <trkpt lat="47.365207029506564" lon="6.184063972905278">
        <ele>264.01999999999998</ele>
        <time>2025-04-23T11:34:56Z</time>
      </trkpt>
      <trkpt lat="47.364303041249514" lon="6.184590021148324">
        <ele>262.57999999999998</ele>
        <time>2025-04-23T11:35:00Z</time>
      </trkpt>
      <trkpt lat="47.364100031554699" lon="6.184766041114926">
        <ele>262.10000000000002</ele>
        <time>2025-04-23T11:35:01Z</time>
      </trkpt>
      <trkpt lat="47.363901967182755" lon="6.184938037768006">
        <ele>262.10000000000002</ele>
        <time>2025-04-23T11:35:02Z</time>
      </trkpt>
      <trkpt lat="47.36369501799345" lon="6.18509603664279">
        <ele>261.62</ele>
        <time>2025-04-23T11:35:03Z</time>
      </trkpt>
      <trkpt lat="47.363469041883945" lon="6.185228973627091">
        <ele>261.62</ele>
        <time>2025-04-23T11:35:04Z</time>
      </trkpt>
      <trkpt lat="47.363229990005493" lon="6.185321006923914">
        <ele>261.13999999999999</ele>
        <time>2025-04-23T11:35:05Z</time>
      </trkpt>
      <trkpt lat="47.362988004460931" lon="6.185413962230086">
        <ele>261.13999999999999</ele>
        <time>2025-04-23T11:35:06Z</time>
      </trkpt>
      <trkpt lat="47.361513040959835" lon="6.186143020167947">
        <ele>258.25</ele>
        <time>2025-04-23T11:35:13Z</time>
      </trkpt>
      <trkpt lat="47.361364010721445" lon="6.186233963817358">
        <ele>258.25</ele>
        <time>2025-04-23T11:35:14Z</time>
      </trkpt>
      <trkpt lat="47.361227972432971" lon="6.186317028477788">
        <ele>257.76999999999998</ele>
        <time>2025-04-23T11:35:15Z</time>
      </trkpt>
      <trkpt lat="47.360714999958873" lon="6.18655800819397">
        <ele>256.32999999999998</ele>
        <time>2025-04-23T11:35:20Z</time>
      </trkpt>
      <trkpt lat="47.360618021339178" lon="6.186582986265421">
        <ele>255.84999999999999</ele>
        <time>2025-04-23T11:35:21Z</time>
      </trkpt>
      <trkpt lat="47.359645972028375" lon="6.18647301569581">
        <ele>252.47999999999999</ele>
        <time>2025-04-23T11:35:30Z</time>
      </trkpt>
      <trkpt lat="47.358737038448453" lon="6.186132961884141">
        <ele>252</ele>
        <time>2025-04-23T11:35:38Z</time>
      </trkpt>
      <trkpt lat="47.358277961611748" lon="6.18593699298799">
        <ele>251.03999999999999</ele>
        <time>2025-04-23T11:35:42Z</time>
      </trkpt>
      <trkpt lat="47.358172014355659" lon="6.185896005481482">
        <ele>250.56</ele>
        <time>2025-04-23T11:35:43Z</time>
      </trkpt>
      <trkpt lat="47.358050979673862" lon="6.18584998883307">
        <ele>250.56</ele>
        <time>2025-04-23T11:35:44Z</time>
      </trkpt>
      <trkpt lat="47.357008019462228" lon="6.185447992756963">
        <ele>249.12</ele>
        <time>2025-04-23T11:35:50Z</time>
      </trkpt>
      <trkpt lat="47.355161989107728" lon="6.18520500138402">
        <ele>247.68000000000001</ele>
        <time>2025-04-23T11:35:58Z</time>
      </trkpt>
      <trkpt lat="47.353492984548211" lon="6.185112968087196">
        <ele>247.68000000000001</ele>
        <time>2025-04-23T11:36:05Z</time>
      </trkpt>
      <trkpt lat="47.353259967640042" lon="6.185010960325599">
        <ele>247.19999999999999</ele>
        <time>2025-04-23T11:36:06Z</time>
      </trkpt>
      <trkpt lat="47.353028962388635" lon="6.184910964220762">
        <ele>247.19999999999999</ele>
        <time>2025-04-23T11:36:07Z</time>
      </trkpt>
      <trkpt lat="47.352808015421033" lon="6.184752965345979">
        <ele>247.19999999999999</ele>
        <time>2025-04-23T11:36:08Z</time>
      </trkpt>
      <trkpt lat="47.352603999897838" lon="6.184567976742983">
        <ele>247.19999999999999</ele>
        <time>2025-04-23T11:36:09Z</time>
      </trkpt>
      <trkpt lat="47.350358990952373" lon="6.182502005249262">
        <ele>247.68000000000001</ele>
        <time>2025-04-23T11:36:21Z</time>
      </trkpt>
      <trkpt lat="47.350190011784434" lon="6.182378036901355">
        <ele>247.68000000000001</ele>
        <time>2025-04-23T11:36:22Z</time>
      </trkpt>
      <trkpt lat="47.350002005696297" lon="6.182280974462628">
        <ele>248.16</ele>
        <time>2025-04-23T11:36:23Z</time>
      </trkpt>
      <trkpt lat="47.349797990173101" lon="6.182221965864301">
        <ele>248.16</ele>
        <time>2025-04-23T11:36:24Z</time>
      </trkpt>
      <trkpt lat="47.34958098269999" lon="6.182223977521062">
        <ele>248.16</ele>
        <time>2025-04-23T11:36:25Z</time>
      </trkpt>
      <trkpt lat="47.349349977448583" lon="6.182254990562797">
        <ele>248.63999999999999</ele>
        <time>2025-04-23T11:36:26Z</time>
      </trkpt>
      <trkpt lat="47.349114026874304" lon="6.182323973625898">
        <ele>249.12</ele>
        <time>2025-04-23T11:36:27Z</time>
      </trkpt>
      <trkpt lat="47.348881009966135" lon="6.182391028851271">
        <ele>249.59999999999999</ele>
        <time>2025-04-23T11:36:28Z</time>
      </trkpt>
      <trkpt lat="47.348651010543108" lon="6.182456994429231">
        <ele>249.59999999999999</ele>
        <time>2025-04-23T11:36:29Z</time>
      </trkpt>
      <trkpt lat="47.348411958664656" lon="6.182439979165793">
        <ele>250.08000000000001</ele>
        <time>2025-04-23T11:36:30Z</time>
      </trkpt>
      <trkpt lat="47.34818497672677" lon="6.182406032457948">
        <ele>251.03999999999999</ele>
        <time>2025-04-23T11:36:31Z</time>
      </trkpt>
      <trkpt lat="47.34796897508204" lon="6.182315004989505">
        <ele>252</ele>
        <time>2025-04-23T11:36:32Z</time>
      </trkpt>
      <trkpt lat="47.347777029499412" lon="6.182148959487677">
        <ele>253.44</ele>
        <time>2025-04-23T11:36:33Z</time>
      </trkpt>
      <trkpt lat="47.347580976784229" lon="6.181979980319738">
        <ele>254.88999999999999</ele>
        <time>2025-04-23T11:36:34Z</time>
      </trkpt>
      <trkpt lat="47.347419038414955" lon="6.18172500282526">
        <ele>256.32999999999998</ele>
        <time>2025-04-23T11:36:35Z</time>
      </trkpt>
      <trkpt lat="47.34726196154952" lon="6.181476982310414">
        <ele>257.76999999999998</ele>
        <time>2025-04-23T11:36:36Z</time>
      </trkpt>
      <trkpt lat="47.346561988815665" lon="6.180291026830673">
        <ele>264.01999999999998</ele>
        <time>2025-04-23T11:36:41Z</time>
      </trkpt>
      <trkpt lat="47.346451012417674" lon="6.179980980232358">
        <ele>265.45999999999998</ele>
        <time>2025-04-23T11:36:42Z</time>
      </trkpt>
      <trkpt lat="47.346300976350904" lon="6.179341021925211">
        <ele>268.35000000000002</ele>
        <time>2025-04-23T11:36:44Z</time>
      </trkpt>
      <trkpt lat="47.345663029700518" lon="6.176290009170771">
        <ele>274.11000000000001</ele>
        <time>2025-04-23T11:36:53Z</time>
      </trkpt>
      <trkpt lat="47.344830958172679" lon="6.174228982999921">
        <ele>271.70999999999998</ele>
        <time>2025-04-23T11:37:00Z</time>
      </trkpt>
      <trkpt lat="47.343827979639173" lon="6.172712026163936">
        <ele>272.19</ele>
        <time>2025-04-23T11:37:06Z</time>
      </trkpt>
      <trkpt lat="47.342933965846896" lon="6.171360025182366">
        <ele>275.06999999999999</ele>
        <time>2025-04-23T11:37:12Z</time>
      </trkpt>
      <trkpt lat="47.342068031430244" lon="6.169654978439212">
        <ele>278.44</ele>
        <time>2025-04-23T11:37:19Z</time>
      </trkpt>
      <trkpt lat="47.341617001220584" lon="6.167456991970539">
        <ele>280.83999999999997</ele>
        <time>2025-04-23T11:37:26Z</time>
      </trkpt>
      <trkpt lat="47.341152979061007" lon="6.165411975234747">
        <ele>286.13</ele>
        <time>2025-04-23T11:37:34Z</time>
      </trkpt>
      <trkpt lat="47.340818038210273" lon="6.164621980860829">
        <ele>289.49000000000001</ele>
        <time>2025-04-23T11:37:39Z</time>
      </trkpt>
      <trkpt lat="47.340342029929161" lon="6.163197979331017">
        <ele>291.42000000000002</ele>
        <time>2025-04-23T11:37:49Z</time>
      </trkpt>
      <trkpt lat="47.340261982753873" lon="6.162760024890304">
        <ele>291.42000000000002</ele>
        <time>2025-04-23T11:37:53Z</time>
      </trkpt>
      <trkpt lat="47.340241027995944" lon="6.162501024082303">
        <ele>291.89999999999998</ele>
        <time>2025-04-23T11:37:55Z</time>
      </trkpt>
      <trkpt lat="47.340248990803957" lon="6.162354005500674">
        <ele>291.89999999999998</ele>
        <time>2025-04-23T11:37:56Z</time>
      </trkpt>
      <trkpt lat="47.340259971097112" lon="6.16146300919354">
        <ele>291.42000000000002</ele>
        <time>2025-04-23T11:38:04Z</time>
      </trkpt>
      <trkpt lat="47.340203979983926" lon="6.160851968452334">
        <ele>290.45999999999998</ele>
        <time>2025-04-23T11:38:11Z</time>
      </trkpt>
      <trkpt lat="47.340182019397616" lon="6.160763958469033">
        <ele>289.97000000000003</ele>
        <time>2025-04-23T11:38:12Z</time>
      </trkpt>
      <trkpt lat="47.340161986649036" lon="6.160682989284396">
        <ele>289.97000000000003</ele>
        <time>2025-04-23T11:38:13Z</time>
      </trkpt>
      <trkpt lat="47.340111024677753" lon="6.160521972924471">
        <ele>289.49000000000001</ele>
        <time>2025-04-23T11:38:15Z</time>
      </trkpt>
      <trkpt lat="47.340077999979258" lon="6.160423988476396">
        <ele>289.49000000000001</ele>
        <time>2025-04-23T11:38:16Z</time>
      </trkpt>
      <trkpt lat="47.339959982782602" lon="6.160071026533842">
        <ele>289.97000000000003</ele>
        <time>2025-04-23T11:38:19Z</time>
      </trkpt>
      <trkpt lat="47.339912038296461" lon="6.159927025437355">
        <ele>290.45999999999998</ele>
        <time>2025-04-23T11:38:20Z</time>
      </trkpt>
      <trkpt lat="47.339349025860429" lon="6.15830403752625">
        <ele>296.69999999999999</ele>
        <time>2025-04-23T11:38:29Z</time>
      </trkpt>
      <trkpt lat="47.338569005951285" lon="6.156074032187462">
        <ele>305.83999999999997</ele>
        <time>2025-04-23T11:38:39Z</time>
      </trkpt>
      <trkpt lat="47.337485980242491" lon="6.153377993032336">
        <ele>310.63999999999999</ele>
        <time>2025-04-23T11:38:50Z</time>
      </trkpt>
      <trkpt lat="47.336352998390794" lon="6.151943011209369">
        <ele>313.05000000000001</ele>
        <time>2025-04-23T11:38:58Z</time>
      </trkpt>
      <trkpt lat="47.33458399772644" lon="6.150007965043187">
        <ele>310.63999999999999</ele>
        <time>2025-04-23T11:39:10Z</time>
      </trkpt>
      <trkpt lat="47.333142980933189" lon="6.148490002378821">
        <ele>308.24000000000001</ele>
        <time>2025-04-23T11:39:20Z</time>
      </trkpt>
      <trkpt lat="47.332175960764289" lon="6.147421980276704">
        <ele>304.88</ele>
        <time>2025-04-23T11:39:29Z</time>
      </trkpt>
      <trkpt lat="47.332101026549935" lon="6.147313015535474">
        <ele>304.88</ele>
        <time>2025-04-23T11:39:30Z</time>
      </trkpt>
      <trkpt lat="47.332035982981324" lon="6.147183012217283">
        <ele>304.38999999999999</ele>
        <time>2025-04-23T11:39:31Z</time>
      </trkpt>
      <trkpt lat="47.331984015181661" lon="6.147036999464035">
        <ele>304.38999999999999</ele>
        <time>2025-04-23T11:39:32Z</time>
      </trkpt>
      <trkpt lat="47.331956019625068" lon="6.146889980882406">
        <ele>304.38999999999999</ele>
        <time>2025-04-23T11:39:33Z</time>
      </trkpt>
      <trkpt lat="47.331933975219727" lon="6.146726030856371">
        <ele>304.38999999999999</ele>
        <time>2025-04-23T11:39:34Z</time>
      </trkpt>
      <trkpt lat="47.331870021298528" lon="6.146614970639348">
        <ele>304.38999999999999</ele>
        <time>2025-04-23T11:39:35Z</time>
      </trkpt>
      <trkpt lat="47.331887958571315" lon="6.146464012563229">
        <ele>304.88</ele>
        <time>2025-04-23T11:39:36Z</time>
      </trkpt>
      <trkpt lat="47.331905979663134" lon="6.146299978718162">
        <ele>304.88</ele>
        <time>2025-04-23T11:39:37Z</time>
      </trkpt>
      <trkpt lat="47.331929029896855" lon="6.146105015650392">
        <ele>304.88</ele>
        <time>2025-04-23T11:39:38Z</time>
      </trkpt>
      <trkpt lat="47.332023996859789" lon="6.145213013514876">
        <ele>305.83999999999997</ele>
        <time>2025-04-23T11:39:42Z</time>
      </trkpt>
      <trkpt lat="47.332034977152944" lon="6.144991982728243">
        <ele>305.83999999999997</ele>
        <time>2025-04-23T11:39:43Z</time>
      </trkpt>
      <trkpt lat="47.331740017980337" lon="6.143299005925655">
        <ele>308.72000000000003</ele>
        <time>2025-04-23T11:39:51Z</time>
      </trkpt>
      <trkpt lat="47.3311220202595" lon="6.14096799865365">
        <ele>311.60000000000002</ele>
        <time>2025-04-23T11:40:01Z</time>
      </trkpt>
      <trkpt lat="47.330468986183405" lon="6.138636991381645">
        <ele>313.05000000000001</ele>
        <time>2025-04-23T11:40:09Z</time>
      </trkpt>
      <trkpt lat="47.329843025654554" lon="6.136472029611468">
        <ele>312.56999999999999</ele>
        <time>2025-04-23T11:40:15Z</time>
      </trkpt>
      <trkpt lat="47.328681964427233" lon="6.133193029090762">
        <ele>309.19999999999999</ele>
        <time>2025-04-23T11:40:26Z</time>
      </trkpt>
      <trkpt lat="47.327033998444676" lon="6.129389991983771">
        <ele>312.08999999999997</ele>
        <time>2025-04-23T11:40:40Z</time>
      </trkpt>
      <trkpt lat="47.325976034626365" lon="6.12635700032115">
        <ele>313.52999999999997</ele>
        <time>2025-04-23T11:40:50Z</time>
      </trkpt>
      <trkpt lat="47.325358958914876" lon="6.123487958684564">
        <ele>314.97000000000003</ele>
        <time>2025-04-23T11:40:59Z</time>
      </trkpt>
      <trkpt lat="47.324745990335941" lon="6.120382966473699">
        <ele>317.85000000000002</ele>
        <time>2025-04-23T11:41:09Z</time>
      </trkpt>
      <trkpt lat="47.323787016794086" lon="6.117802010849118">
        <ele>317.85000000000002</ele>
        <time>2025-04-23T11:41:18Z</time>
      </trkpt>
      <trkpt lat="47.322437027469277" lon="6.11550897359848">
        <ele>319.30000000000001</ele>
        <time>2025-04-23T11:41:27Z</time>
      </trkpt>
      <trkpt lat="47.321104975417256" lon="6.113349962979555">
        <ele>320.74000000000001</ele>
        <time>2025-04-23T11:41:36Z</time>
      </trkpt>
      <trkpt lat="47.319959001615644" lon="6.11067496240139">
        <ele>324.10000000000002</ele>
        <time>2025-04-23T11:41:46Z</time>
      </trkpt>
      <trkpt lat="47.318248003721237" lon="6.10631201416254">
        <ele>329.87</ele>
        <time>2025-04-23T11:42:01Z</time>
      </trkpt>
      <trkpt lat="47.316978983581066" lon="6.104221986606717">
        <ele>336.12</ele>
        <time>2025-04-23T11:42:09Z</time>
      </trkpt>
      <trkpt lat="47.315390026196837" lon="6.102770995348692">
        <ele>344.29000000000002</ele>
        <time>2025-04-23T11:42:17Z</time>
      </trkpt>
      <trkpt lat="47.313638040795922" lon="6.101252026855946">
        <ele>349.57999999999998</ele>
        <time>2025-04-23T11:42:26Z</time>
      </trkpt>
      <trkpt lat="47.312114965170622" lon="6.099287979304791">
        <ele>351.5</ele>
        <time>2025-04-23T11:42:35Z</time>
      </trkpt>
      <trkpt lat="47.31069004163146" lon="6.097103990614414">
        <ele>352.94</ele>
        <time>2025-04-23T11:42:45Z</time>
      </trkpt>
      <trkpt lat="47.309936005622149" lon="6.095541017130017">
        <ele>356.79000000000002</ele>
        <time>2025-04-23T11:42:54Z</time>
      </trkpt>
      <trkpt lat="47.30938296765089" lon="6.094021964818239">
        <ele>359.67000000000002</ele>
        <time>2025-04-23T11:43:03Z</time>
      </trkpt>
      <trkpt lat="47.308699004352093" lon="6.092099994421005">
        <ele>359.19</ele>
        <time>2025-04-23T11:43:15Z</time>
      </trkpt>
      <trkpt lat="47.30800699442625" lon="6.090206019580364">
        <ele>354.38</ele>
        <time>2025-04-23T11:43:27Z</time>
      </trkpt>
      <trkpt lat="47.307929964736104" lon="6.090043997392058">
        <ele>354.38</ele>
        <time>2025-04-23T11:43:28Z</time>
      </trkpt>
      <trkpt lat="47.307822005823255" lon="6.089904019609094">
        <ele>353.89999999999998</ele>
        <time>2025-04-23T11:43:29Z</time>
      </trkpt>
      <trkpt lat="47.307708011940122" lon="6.089772004634142">
        <ele>353.89999999999998</ele>
        <time>2025-04-23T11:43:30Z</time>
      </trkpt>
      <trkpt lat="47.307582031935453" lon="6.089637978002429">
        <ele>353.42000000000002</ele>
        <time>2025-04-23T11:43:31Z</time>
      </trkpt>
      <trkpt lat="47.307454040274024" lon="6.089500011876226">
        <ele>353.42000000000002</ele>
        <time>2025-04-23T11:43:32Z</time>
      </trkpt>
      <trkpt lat="47.307310039177537" lon="6.089371014386416">
        <ele>353.42000000000002</ele>
        <time>2025-04-23T11:43:33Z</time>
      </trkpt>
      <trkpt lat="47.305868016555905" lon="6.088302992284298">
        <ele>353.42000000000002</ele>
        <time>2025-04-23T11:43:41Z</time>
      </trkpt>
      <trkpt lat="47.3042450286448" lon="6.086862981319428">
        <ele>355.33999999999997</ele>
        <time>2025-04-23T11:43:50Z</time>
      </trkpt>
      <trkpt lat="47.303145993500948" lon="6.085618017241359">
        <ele>352.94</ele>
        <time>2025-04-23T11:43:56Z</time>
      </trkpt>
      <trkpt lat="47.302946001291275" lon="6.085419030860066">
        <ele>352.45999999999998</ele>
        <time>2025-04-23T11:43:57Z</time>
      </trkpt>
      <trkpt lat="47.302157012745738" lon="6.084759961813688">
        <ele>349.57999999999998</ele>
        <time>2025-04-23T11:44:01Z</time>
      </trkpt>
      <trkpt lat="47.301980992779136" lon="6.08454798348248">
        <ele>349.10000000000002</ele>
        <time>2025-04-23T11:44:02Z</time>
      </trkpt>
      <trkpt lat="47.301822993904352" lon="6.084298035129905">
        <ele>348.13</ele>
        <time>2025-04-23T11:44:03Z</time>
      </trkpt>
      <trkpt lat="47.300306037068367" lon="6.081770975142717">
        <ele>338.04000000000002</ele>
        <time>2025-04-23T11:44:13Z</time>
      </trkpt>
      <trkpt lat="47.298696963116527" lon="6.079022968187928">
        <ele>326.99000000000001</ele>
        <time>2025-04-23T11:44:24Z</time>
      </trkpt>
      <trkpt lat="47.298469981178641" lon="6.078441012650728">
        <ele>325.54000000000002</ele>
        <time>2025-04-23T11:44:26Z</time>
      </trkpt>
      <trkpt lat="47.298390017822385" lon="6.078130966052413">
        <ele>325.06</ele>
        <time>2025-04-23T11:44:27Z</time>
      </trkpt>
      <trkpt lat="47.298317011445761" lon="6.077817985787988">
        <ele>324.57999999999998</ele>
        <time>2025-04-23T11:44:28Z</time>
      </trkpt>
      <trkpt lat="47.298264959827065" lon="6.077497964724898">
        <ele>324.57999999999998</ele>
        <time>2025-04-23T11:44:29Z</time>
      </trkpt>
      <trkpt lat="47.298212992027402" lon="6.077179033309221">
        <ele>324.57999999999998</ele>
        <time>2025-04-23T11:44:30Z</time>
      </trkpt>
      <trkpt lat="47.297749975696206" lon="6.075080959126353">
        <ele>324.10000000000002</ele>
        <time>2025-04-23T11:44:37Z</time>
      </trkpt>
      <trkpt lat="47.297433977946639" lon="6.074248971417546">
        <ele>324.10000000000002</ele>
        <time>2025-04-23T11:44:40Z</time>
      </trkpt>
      <trkpt lat="47.297286037355661" lon="6.074016960337758">
        <ele>324.57999999999998</ele>
        <time>2025-04-23T11:44:41Z</time>
      </trkpt>
      <trkpt lat="47.297127032652497" lon="6.073786038905382">
        <ele>324.57999999999998</ele>
        <time>2025-04-23T11:44:42Z</time>
      </trkpt>
      <trkpt lat="47.296966016292572" lon="6.073560984805226">
        <ele>324.57999999999998</ele>
        <time>2025-04-23T11:44:43Z</time>
      </trkpt>
      <trkpt lat="47.296772981062531" lon="6.073402985930443">
        <ele>324.57999999999998</ele>
        <time>2025-04-23T11:44:44Z</time>
      </trkpt>
      <trkpt lat="47.296580029651523" lon="6.073243981227279">
        <ele>325.06</ele>
        <time>2025-04-23T11:44:45Z</time>
      </trkpt>
      <trkpt lat="47.295018984004855" lon="6.071961969137192">
        <ele>328.43000000000001</ele>
        <time>2025-04-23T11:44:53Z</time>
      </trkpt>
      <trkpt lat="47.292867014184594" lon="6.0701949801296">
        <ele>329.87</ele>
        <time>2025-04-23T11:45:04Z</time>
      </trkpt>
      <trkpt lat="47.291099019348621" lon="6.068741977214813">
        <ele>327.47000000000003</ele>
        <time>2025-04-23T11:45:13Z</time>
      </trkpt>
      <trkpt lat="47.290128981694579" lon="6.067944020032883">
        <ele>324.57999999999998</ele>
        <time>2025-04-23T11:45:18Z</time>
      </trkpt>
      <trkpt lat="47.28920697234571" lon="6.066681034862995">
        <ele>320.74000000000001</ele>
        <time>2025-04-23T11:45:24Z</time>
      </trkpt>
      <trkpt lat="47.288097040727735" lon="6.065381001681089">
        <ele>317.37</ele>
        <time>2025-04-23T11:45:31Z</time>
      </trkpt>
      <trkpt lat="47.286657029762864" lon="6.064590001478791">
        <ele>311.60000000000002</ele>
        <time>2025-04-23T11:45:38Z</time>
      </trkpt>
      <trkpt lat="47.284467006102204" lon="6.063344031572342">
        <ele>306.80000000000001</ele>
        <time>2025-04-23T11:45:48Z</time>
      </trkpt>
      <trkpt lat="47.28385797701776" lon="6.062885960564017">
        <ele>307.27999999999997</ele>
        <time>2025-04-23T11:45:51Z</time>
      </trkpt>
      <trkpt lat="47.282486027106643" lon="6.061639990657568">
        <ele>309.68000000000001</ele>
        <time>2025-04-23T11:45:58Z</time>
      </trkpt>
      <trkpt lat="47.280538994818926" lon="6.06056802906096">
        <ele>312.08999999999997</ele>
        <time>2025-04-23T11:46:07Z</time>
      </trkpt>
      <trkpt lat="47.277971031144261" lon="6.05960201472044">
        <ele>318.32999999999998</ele>
        <time>2025-04-23T11:46:19Z</time>
      </trkpt>
      <trkpt lat="47.276012012735009" lon="6.059166993945837">
        <ele>322.18000000000001</ele>
        <time>2025-04-23T11:46:28Z</time>
      </trkpt>
      <trkpt lat="47.273899018764496" lon="6.058380017057061">
        <ele>327.47000000000003</ele>
        <time>2025-04-23T11:46:38Z</time>
      </trkpt>
      <trkpt lat="47.272522961720824" lon="6.057655988261104">
        <ele>329.87</ele>
        <time>2025-04-23T11:46:46Z</time>
      </trkpt>
      <trkpt lat="47.271616961807013" lon="6.057189032435417">
        <ele>334.19999999999999</ele>
        <time>2025-04-23T11:46:55Z</time>
      </trkpt>
      <trkpt lat="47.270598979666829" lon="6.05663800612092">
        <ele>337.07999999999998</ele>
        <time>2025-04-23T11:47:07Z</time>
      </trkpt>
      <trkpt lat="47.269016979262233" lon="6.055801995098591">
        <ele>332.26999999999998</ele>
        <time>2025-04-23T11:47:21Z</time>
      </trkpt>
      <trkpt lat="47.268105028197169" lon="6.055321963503957">
        <ele>327.47000000000003</ele>
        <time>2025-04-23T11:47:29Z</time>
      </trkpt>
      <trkpt lat="47.267989022657275" lon="6.0552610270679">
        <ele>326.99000000000001</ele>
        <time>2025-04-23T11:47:30Z</time>
      </trkpt>
      <trkpt lat="47.266394030302763" lon="6.054405989125371">
        <ele>322.66000000000003</ele>
        <time>2025-04-23T11:47:44Z</time>
      </trkpt>
      <trkpt lat="47.265028031542897" lon="6.053652036935091">
        <ele>319.30000000000001</ele>
        <time>2025-04-23T11:47:56Z</time>
      </trkpt>
      <trkpt lat="47.264049025252461" lon="6.052626008167863">
        <ele>317.85000000000002</ele>
        <time>2025-04-23T11:48:06Z</time>
      </trkpt>
      <trkpt lat="47.263579973950982" lon="6.052075987681747">
        <ele>314.97000000000003</ele>
        <time>2025-04-23T11:48:13Z</time>
      </trkpt>
      <trkpt lat="47.263351986184716" lon="6.05191295966506">
        <ele>312.08999999999997</ele>
        <time>2025-04-23T11:48:22Z</time>
      </trkpt>
      <trkpt lat="47.26323296315968" lon="6.051843976601958">
        <ele>311.60000000000002</ele>
        <time>2025-04-23T11:48:35Z</time>
      </trkpt>
      <trkpt lat="47.263098014518619" lon="6.05148003436625">
        <ele>311.12</ele>
        <time>2025-04-23T11:48:45Z</time>
      </trkpt>
      <trkpt lat="47.263061972334981" lon="6.051457989960909">
        <ele>311.60000000000002</ele>
        <time>2025-04-23T11:48:46Z</time>
      </trkpt>
      <trkpt lat="47.263012016192079" lon="6.051427982747555">
        <ele>311.60000000000002</ele>
        <time>2025-04-23T11:48:48Z</time>
      </trkpt>
      <trkpt lat="47.262878995388746" lon="6.051354976370931">
        <ele>311.60000000000002</ele>
        <time>2025-04-23T11:48:49Z</time>
      </trkpt>
      <trkpt lat="47.262861980125308" lon="6.051291022449732">
        <ele>311.60000000000002</ele>
        <time>2025-04-23T11:48:50Z</time>
      </trkpt>
      <trkpt lat="47.262785034254193" lon="6.05100997723639">
        <ele>312.08999999999997</ele>
        <time>2025-04-23T11:48:54Z</time>
      </trkpt>
      <trkpt lat="47.262742035090923" lon="6.050849966704845">
        <ele>313.52999999999997</ele>
        <time>2025-04-23T11:49:02Z</time>
      </trkpt>
      <trkpt lat="47.262631980702281" lon="6.050571016967297">
        <ele>314.49000000000001</ele>
        <time>2025-04-23T11:49:12Z</time>
      </trkpt>
      <trkpt lat="47.262499965727329" lon="6.050287038087845">
        <ele>315.93000000000001</ele>
        <time>2025-04-23T11:49:16Z</time>
      </trkpt>
      <trkpt lat="47.262430982664227" lon="6.050139013677836">
        <ele>316.41000000000003</ele>
        <time>2025-04-23T11:49:18Z</time>
      </trkpt>
      <trkpt lat="47.26241203956306" lon="6.050098026171327">
        <ele>316.88999999999999</ele>
        <time>2025-04-23T11:49:19Z</time>
      </trkpt>
      <trkpt lat="47.262380020692945" lon="6.050046980381012">
        <ele>316.88999999999999</ele>
        <time>2025-04-23T11:49:20Z</time>
      </trkpt>
      <trkpt lat="47.262355964630842" lon="6.050008004531264">
        <ele>316.88999999999999</ele>
        <time>2025-04-23T11:49:21Z</time>
      </trkpt>
      <trkpt lat="47.262336015701294" lon="6.049974979832768">
        <ele>317.37</ele>
        <time>2025-04-23T11:49:22Z</time>
      </trkpt>
      <trkpt lat="47.262312965467572" lon="6.049937009811401">
        <ele>317.37</ele>
        <time>2025-04-23T11:49:23Z</time>
      </trkpt>
      <trkpt lat="47.262239959090948" lon="6.049818992614746">
        <ele>317.37</ele>
        <time>2025-04-23T11:49:24Z</time>
      </trkpt>
      <trkpt lat="47.262239959090948" lon="6.049743974581361">
        <ele>317.85000000000002</ele>
        <time>2025-04-23T11:49:25Z</time>
      </trkpt>
      <trkpt lat="47.262239959090948" lon="6.049648001790047">
        <ele>317.85000000000002</ele>
        <time>2025-04-23T11:49:26Z</time>
      </trkpt>
      <trkpt lat="47.262239959090948" lon="6.049562003463507">
        <ele>318.32999999999998</ele>
        <time>2025-04-23T11:49:27Z</time>
      </trkpt>
      <trkpt lat="47.262206012383103" lon="6.04950500652194">
        <ele>318.32999999999998</ele>
        <time>2025-04-23T11:49:28Z</time>
      </trkpt>
      <trkpt lat="47.262128982692957" lon="6.049473993480206">
        <ele>318.32999999999998</ele>
        <time>2025-04-23T11:49:29Z</time>
      </trkpt>
      <trkpt lat="47.262068968266249" lon="6.049499977380037">
        <ele>318.32999999999998</ele>
        <time>2025-04-23T11:49:30Z</time>
      </trkpt>
      <trkpt lat="47.262024963274598" lon="6.049519004300237">
        <ele>318.32999999999998</ele>
        <time>2025-04-23T11:49:31Z</time>
      </trkpt>
      <trkpt lat="47.261999985203147" lon="6.049594022333622">
        <ele>318.32999999999998</ele>
        <time>2025-04-23T11:49:32Z</time>
      </trkpt>
      <trkpt lat="47.261976012960076" lon="6.049666022881866">
        <ele>318.32999999999998</ele>
        <time>2025-04-23T11:49:33Z</time>
      </trkpt>
      <trkpt lat="47.261961009353399" lon="6.049712039530277">
        <ele>318.32999999999998</ele>
        <time>2025-04-23T11:49:34Z</time>
      </trkpt>
      <trkpt lat="47.261892026290298" lon="6.049767024815083">
        <ele>318.81</ele>
        <time>2025-04-23T11:49:35Z</time>
      </trkpt>
      <trkpt lat="47.26185698993504" lon="6.049795020371676">
        <ele>318.81</ele>
        <time>2025-04-23T11:49:36Z</time>
      </trkpt>
      <trkpt lat="47.261816002428532" lon="6.04982796125114">
        <ele>318.81</ele>
        <time>2025-04-23T11:49:37Z</time>
      </trkpt>
      <trkpt lat="47.261767974123359" lon="6.049866015091538">
        <ele>319.30000000000001</ele>
        <time>2025-04-23T11:49:38Z</time>
      </trkpt>
      <trkpt lat="47.261680969968438" lon="6.049974979832768">
        <ele>319.77999999999997</ele>
        <time>2025-04-23T11:49:40Z</time>
      </trkpt>
      <trkpt lat="47.261595977470279" lon="6.050076987594366">
        <ele>319.77999999999997</ele>
        <time>2025-04-23T11:49:41Z</time>
      </trkpt>
      <trkpt lat="47.261578962206841" lon="6.05010699480772">
        <ele>320.25999999999999</ele>
        <time>2025-04-23T11:49:42Z</time>
      </trkpt>
      <trkpt lat="47.261454993858933" lon="6.050328025594354">
        <ele>320.25999999999999</ele>
        <time>2025-04-23T11:49:45Z</time>
      </trkpt>
      <trkpt lat="47.261423980817199" lon="6.050382005050778">
        <ele>320.25999999999999</ele>
        <time>2025-04-23T11:49:46Z</time>
      </trkpt>
      <trkpt lat="47.261338988319039" lon="6.050356021150947">
        <ele>320.25999999999999</ele>
        <time>2025-04-23T11:49:47Z</time>
      </trkpt>
      <trkpt lat="47.260758960619569" lon="6.050270022824407">
        <ele>320.25999999999999</ele>
        <time>2025-04-23T11:49:54Z</time>
      </trkpt>
      <trkpt lat="47.25985798984766" lon="6.050313021987677">
        <ele>317.85000000000002</ele>
        <time>2025-04-23T11:50:03Z</time>
      </trkpt>
      <trkpt lat="47.259784983471036" lon="6.050230963155627">
        <ele>317.37</ele>
        <time>2025-04-23T11:50:04Z</time>
      </trkpt>
      <trkpt lat="47.25975195877254" lon="6.05019299313426">
        <ele>317.37</ele>
        <time>2025-04-23T11:50:05Z</time>
      </trkpt>
      <trkpt lat="47.259725974872708" lon="6.050163991749287">
        <ele>316.88999999999999</ele>
        <time>2025-04-23T11:50:06Z</time>
      </trkpt>
      <trkpt lat="47.259676018729806" lon="6.050124010071158">
        <ele>316.41000000000003</ele>
        <time>2025-04-23T11:50:07Z</time>
      </trkpt>
      <trkpt lat="47.259632013738155" lon="6.050141025334597">
        <ele>316.41000000000003</ele>
        <time>2025-04-23T11:50:08Z</time>
      </trkpt>
      <trkpt lat="47.259581973776221" lon="6.050160974264145">
        <ele>315.44999999999999</ele>
        <time>2025-04-23T11:50:09Z</time>
      </trkpt>
      <trkpt lat="47.259524976834655" lon="6.050184024497867">
        <ele>314.97000000000003</ele>
        <time>2025-04-23T11:50:10Z</time>
      </trkpt>
      <trkpt lat="47.259459011256695" lon="6.050210008397698">
        <ele>314.00999999999999</ele>
        <time>2025-04-23T11:50:11Z</time>
      </trkpt>
      <trkpt lat="47.258721990510821" lon="6.050419975072146">
        <ele>310.63999999999999</ele>
        <time>2025-04-23T11:50:19Z</time>
      </trkpt>
      <trkpt lat="47.257661009207368" lon="6.050305981189013">
        <ele>306.31999999999999</ele>
        <time>2025-04-23T11:50:30Z</time>
      </trkpt>
      <trkpt lat="47.257461016997695" lon="6.050246972590685">
        <ele>304.38999999999999</ele>
        <time>2025-04-23T11:50:33Z</time>
      </trkpt>
      <trkpt lat="47.257405025884509" lon="6.050230963155627">
        <ele>303.91000000000003</ele>
        <time>2025-04-23T11:50:34Z</time>
      </trkpt>
      <trkpt lat="47.257333025336266" lon="6.050281003117561">
        <ele>303.43000000000001</ele>
        <time>2025-04-23T11:50:35Z</time>
      </trkpt>
      <trkpt lat="47.257266975939274" lon="6.05034101754427">
        <ele>302.94999999999999</ele>
        <time>2025-04-23T11:50:36Z</time>
      </trkpt>
      <trkpt lat="47.25719396956265" lon="6.050408994778991">
        <ele>302.94999999999999</ele>
        <time>2025-04-23T11:50:37Z</time>
      </trkpt>
      <trkpt lat="47.257110988721251" lon="6.050486024469137">
        <ele>302.47000000000003</ele>
        <time>2025-04-23T11:50:38Z</time>
      </trkpt>
      <trkpt lat="47.256659036502242" lon="6.05085700750351">
        <ele>301.99000000000001</ele>
        <time>2025-04-23T11:50:43Z</time>
      </trkpt>
      <trkpt lat="47.256488967686892" lon="6.050980975851417">
        <ele>301.99000000000001</ele>
        <time>2025-04-23T11:50:45Z</time>
      </trkpt>
      <trkpt lat="47.256399029865861" lon="6.050994973629713">
        <ele>302.47000000000003</ele>
        <time>2025-04-23T11:50:46Z</time>
      </trkpt>
      <trkpt lat="47.256310014054179" lon="6.051007965579629">
        <ele>302.94999999999999</ele>
        <time>2025-04-23T11:50:47Z</time>
      </trkpt>
      <trkpt lat="47.256232984364033" lon="6.051020035520196">
        <ele>302.94999999999999</ele>
        <time>2025-04-23T11:50:48Z</time>
      </trkpt>
      <trkpt lat="47.256166012957692" lon="6.051086001098156">
        <ele>302.94999999999999</ele>
        <time>2025-04-23T11:50:49Z</time>
      </trkpt>
      <trkpt lat="47.256126031279564" lon="6.051191026344895">
        <ele>302.47000000000003</ele>
        <time>2025-04-23T11:50:50Z</time>
      </trkpt>
      <trkpt lat="47.256098035722971" lon="6.051306026056409">
        <ele>302.47000000000003</ele>
        <time>2025-04-23T11:50:51Z</time>
      </trkpt>
      <trkpt lat="47.256066016852856" lon="6.051438041031361">
        <ele>301.99000000000001</ele>
        <time>2025-04-23T11:50:52Z</time>
      </trkpt>
      <trkpt lat="47.25588396191597" lon="6.052194004878402">
        <ele>302.47000000000003</ele>
        <time>2025-04-23T11:50:57Z</time>
      </trkpt>
      <trkpt lat="47.255867030471563" lon="6.052264999598265">
        <ele>302.47000000000003</ele>
        <time>2025-04-23T11:50:58Z</time>
      </trkpt>
      <trkpt lat="47.255811039358377" lon="6.05234001763165">
        <ele>302.94999999999999</ele>
        <time>2025-04-23T11:50:59Z</time>
      </trkpt>
      <trkpt lat="47.255802992731333" lon="6.052350997924805">
        <ele>302.94999999999999</ele>
        <time>2025-04-23T11:51:00Z</time>
      </trkpt>
      <trkpt lat="47.255802992731333" lon="6.052350997924805">
        <ele>302.94999999999999</ele>
        <time>2025-04-23T11:51:01Z</time>
      </trkpt>
      <trkpt lat="47.255759993568063" lon="6.052375975996256">
        <ele>302.94999999999999</ele>
        <time>2025-04-23T11:51:02Z</time>
      </trkpt>
      <trkpt lat="47.255653040483594" lon="6.052436996251345">
        <ele>303.43000000000001</ele>
        <time>2025-04-23T11:51:03Z</time>
      </trkpt>
      <trkpt lat="47.255653040483594" lon="6.052436996251345">
        <ele>303.43000000000001</ele>
        <time>2025-04-23T11:51:04Z</time>
      </trkpt>
      <trkpt lat="47.255651028826833" lon="6.052435990422964">
        <ele>303.91000000000003</ele>
        <time>2025-04-23T11:51:05Z</time>
      </trkpt>
      <trkpt lat="47.255578022450209" lon="6.052403971552849">
        <ele>303.91000000000003</ele>
        <time>2025-04-23T11:51:06Z</time>
      </trkpt>
      <trkpt lat="47.254778975620866" lon="6.052157962694764">
        <ele>300.55000000000001</ele>
        <time>2025-04-23T11:51:14Z</time>
      </trkpt>
      <trkpt lat="47.253743978217244" lon="6.052129967138171">
        <ele>297.18000000000001</ele>
        <time>2025-04-23T11:51:24Z</time>
      </trkpt>
      <trkpt lat="47.252779975533485" lon="6.052118986845017">
        <ele>292.86000000000001</ele>
        <time>2025-04-23T11:51:34Z</time>
      </trkpt>
      <trkpt lat="47.252693977206945" lon="6.052094008773565">
        <ele>292.38</ele>
        <time>2025-04-23T11:51:35Z</time>
      </trkpt>
      <trkpt lat="47.252612002193928" lon="6.052070958539844">
        <ele>291.89999999999998</ele>
        <time>2025-04-23T11:51:36Z</time>
      </trkpt>
      <trkpt lat="47.251762999221683" lon="6.051817992702127">
        <ele>284.20999999999998</ele>
        <time>2025-04-23T11:51:46Z</time>
      </trkpt>
      <trkpt lat="47.251203004270792" lon="6.051639039069414">
        <ele>279.88</ele>
        <time>2025-04-23T11:51:52Z</time>
      </trkpt>
      <trkpt lat="47.250845013186336" lon="6.05146000161767">
        <ele>277.95999999999998</ele>
        <time>2025-04-23T11:51:56Z</time>
      </trkpt>
      <trkpt lat="47.250765971839428" lon="6.051388001069427">
        <ele>277.48000000000002</ele>
        <time>2025-04-23T11:51:57Z</time>
      </trkpt>
      <trkpt lat="47.25070402957499" lon="6.051290016621351">
        <ele>277.48000000000002</ele>
        <time>2025-04-23T11:51:58Z</time>
      </trkpt>
      <trkpt lat="47.250646026805043" lon="6.051164036616683">
        <ele>277</ele>
        <time>2025-04-23T11:51:59Z</time>
      </trkpt>
      <trkpt lat="47.250595986843109" lon="6.051038978621364">
        <ele>276.51999999999998</ele>
        <time>2025-04-23T11:52:00Z</time>
      </trkpt>
      <trkpt lat="47.250557010993361" lon="6.050917021930218">
        <ele>276.51999999999998</ele>
        <time>2025-04-23T11:52:01Z</time>
      </trkpt>
      <trkpt lat="47.250466989353299" lon="6.05060001835227">
        <ele>276.51999999999998</ele>
        <time>2025-04-23T11:52:04Z</time>
      </trkpt>
      <trkpt lat="47.250337991863489" lon="6.049755960702896">
        <ele>277.48000000000002</ele>
        <time>2025-04-23T11:52:11Z</time>
      </trkpt>
      <trkpt lat="47.25031703710556" lon="6.049400987103581">
        <ele>276.51999999999998</ele>
        <time>2025-04-23T11:52:14Z</time>
      </trkpt>
      <trkpt lat="47.250299016013741" lon="6.04909404180944">
        <ele>275.56</ele>
        <time>2025-04-23T11:52:17Z</time>
      </trkpt>
      <trkpt lat="47.250292981043458" lon="6.049005025997758">
        <ele>275.56</ele>
        <time>2025-04-23T11:52:18Z</time>
      </trkpt>
      <trkpt lat="47.250288035720587" lon="6.048918021842837">
        <ele>275.06999999999999</ele>
        <time>2025-04-23T11:52:19Z</time>
      </trkpt>
      <trkpt lat="47.250246964395046" lon="6.048835963010788">
        <ele>275.06999999999999</ele>
        <time>2025-04-23T11:52:20Z</time>
      </trkpt>
      <trkpt lat="47.250202037394047" lon="6.048745019361377">
        <ele>274.58999999999997</ele>
        <time>2025-04-23T11:52:21Z</time>
      </trkpt>
      <trkpt lat="47.250165995210409" lon="6.048647034913302">
        <ele>274.58999999999997</ele>
        <time>2025-04-23T11:52:22Z</time>
      </trkpt>
      <trkpt lat="47.250131964683533" lon="6.048526000231504">
        <ele>274.58999999999997</ele>
        <time>2025-04-23T11:52:23Z</time>
      </trkpt>
      <trkpt lat="47.249842034652829" lon="6.047370973974466">
        <ele>271.23000000000002</ele>
        <time>2025-04-23T11:52:32Z</time>
      </trkpt>
      <trkpt lat="47.249816972762346" lon="6.047220015898347">
        <ele>270.75</ele>
        <time>2025-04-23T11:52:33Z</time>
      </trkpt>
      <trkpt lat="47.249837005510926" lon="6.045297961682081">
        <ele>268.35000000000002</ele>
        <time>2025-04-23T11:52:47Z</time>
      </trkpt>
      <trkpt lat="47.249837005510926" lon="6.044872999191284">
        <ele>268.35000000000002</ele>
        <time>2025-04-23T11:52:50Z</time>
      </trkpt>
      <trkpt lat="47.249847985804081" lon="6.0447340272367">
        <ele>267.86000000000001</ele>
        <time>2025-04-23T11:52:51Z</time>
      </trkpt>
      <trkpt lat="47.249923003837466" lon="6.04428299702704">
        <ele>266.89999999999998</ele>
        <time>2025-04-23T11:52:54Z</time>
      </trkpt>
      <trkpt lat="47.250127019360662" lon="6.043486967682838">
        <ele>264.5</ele>
        <time>2025-04-23T11:53:00Z</time>
      </trkpt>
      <trkpt lat="47.250153003260493" lon="6.043383032083511">
        <ele>264.5</ele>
        <time>2025-04-23T11:53:01Z</time>
      </trkpt>
      <trkpt lat="47.250329023227096" lon="6.043180022388697">
        <ele>264.98000000000002</ele>
        <time>2025-04-23T11:53:08Z</time>
      </trkpt>
      <trkpt lat="47.250389037653804" lon="6.0431660246104">
        <ele>266.42000000000002</ele>
        <time>2025-04-23T11:53:16Z</time>
      </trkpt>
      <trkpt lat="47.250389037653804" lon="6.0431660246104">
        <ele>267.86000000000001</ele>
        <time>2025-04-23T11:53:28Z</time>
      </trkpt>
      <trkpt lat="47.250324999913573" lon="6.043041972443461">
        <ele>267.38</ele>
        <time>2025-04-23T11:53:29Z</time>
      </trkpt>
      <trkpt lat="47.250294992700219" lon="6.043022023513913">
        <ele>266.89999999999998</ele>
        <time>2025-04-23T11:53:30Z</time>
      </trkpt>
      <trkpt lat="47.250001039355993" lon="6.04278196580708">
        <ele>266.42000000000002</ele>
        <time>2025-04-23T11:53:35Z</time>
      </trkpt>
      <trkpt lat="47.249933984130621" lon="6.042741984128952">
        <ele>265.94</ele>
        <time>2025-04-23T11:53:36Z</time>
      </trkpt>
      <trkpt lat="47.249865001067519" lon="6.042702002450824">
        <ele>265.45999999999998</ele>
        <time>2025-04-23T11:53:37Z</time>
      </trkpt>
      <trkpt lat="47.249815966933966" lon="6.042674006894231">
        <ele>264.98000000000002</ele>
        <time>2025-04-23T11:53:38Z</time>
      </trkpt>
      <trkpt lat="47.249750001356006" lon="6.042621033266187">
        <ele>264.5</ele>
        <time>2025-04-23T11:53:39Z</time>
      </trkpt>
      <trkpt lat="47.249709013849497" lon="6.042588008567691">
        <ele>264.01999999999998</ele>
        <time>2025-04-23T11:53:40Z</time>
      </trkpt>
      <trkpt lat="47.249670960009098" lon="6.042511984705925">
        <ele>263.54000000000002</ele>
        <time>2025-04-23T11:53:41Z</time>
      </trkpt>
      <trkpt lat="47.249645981937647" lon="6.042463034391403">
        <ele>263.06</ele>
        <time>2025-04-23T11:53:42Z</time>
      </trkpt>
      <trkpt lat="47.249624021351337" lon="6.042419029399753">
        <ele>262.57999999999998</ele>
        <time>2025-04-23T11:53:43Z</time>
      </trkpt>
      <trkpt lat="47.249542968347669" lon="6.042395979166031">
        <ele>262.57999999999998</ele>
        <time>2025-04-23T11:53:44Z</time>
      </trkpt>
      <trkpt lat="47.249484965577722" lon="6.042421041056514">
        <ele>262.10000000000002</ele>
        <time>2025-04-23T11:53:45Z</time>
      </trkpt>
      <trkpt lat="47.249420005828142" lon="6.042449958622456">
        <ele>261.62</ele>
        <time>2025-04-23T11:53:46Z</time>
      </trkpt>
      <trkpt lat="47.248548036441207" lon="6.042811973020434">
        <ele>259.69</ele>
        <time>2025-04-23T11:53:57Z</time>
      </trkpt>
      <trkpt lat="47.248261040076613" lon="6.042936025187373">
        <ele>261.13999999999999</ele>
        <time>2025-04-23T11:54:02Z</time>
      </trkpt>
      <trkpt lat="47.248218040913343" lon="6.042915992438793">
        <ele>261.62</ele>
        <time>2025-04-23T11:54:03Z</time>
      </trkpt>
      <trkpt lat="47.248203959316015" lon="6.04286503046751">
        <ele>262.10000000000002</ele>
        <time>2025-04-23T11:54:04Z</time>
      </trkpt>
      <trkpt lat="47.248186022043228" lon="6.042796969413757">
        <ele>262.57999999999998</ele>
        <time>2025-04-23T11:54:05Z</time>
      </trkpt>
      <trkpt lat="47.248163977637887" lon="6.042717006057501">
        <ele>262.57999999999998</ele>
        <time>2025-04-23T11:54:06Z</time>
      </trkpt>
      <trkpt lat="47.248042020946741" lon="6.042109988629818">
        <ele>263.54000000000002</ele>
        <time>2025-04-23T11:54:12Z</time>
      </trkpt>
      <trkpt lat="47.248034980148077" lon="6.04200404137373">
        <ele>264.01999999999998</ele>
        <time>2025-04-23T11:54:13Z</time>
      </trkpt>
      <trkpt lat="47.248014025390148" lon="6.041664993390441">
        <ele>263.54000000000002</ele>
        <time>2025-04-23T11:54:16Z</time>
      </trkpt>
      <trkpt lat="47.248002961277962" lon="6.041573965921998">
        <ele>264.01999999999998</ele>
        <time>2025-04-23T11:54:17Z</time>
      </trkpt>
      <trkpt lat="47.247990975156426" lon="6.041458966210485">
        <ele>264.98000000000002</ele>
        <time>2025-04-23T11:54:18Z</time>
      </trkpt>
      <trkpt lat="47.247977983206511" lon="6.04134296067059">
        <ele>265.45999999999998</ele>
        <time>2025-04-23T11:54:19Z</time>
      </trkpt>
      <trkpt lat="47.247963985428214" lon="6.041223015636206">
        <ele>265.45999999999998</ele>
        <time>2025-04-23T11:54:20Z</time>
      </trkpt>
      <trkpt lat="47.247948981821537" lon="6.041085971519351">
        <ele>265.45999999999998</ele>
        <time>2025-04-23T11:54:21Z</time>
      </trkpt>
      <trkpt lat="47.247900031507015" lon="6.040857983753085">
        <ele>266.42000000000002</ele>
        <time>2025-04-23T11:54:23Z</time>
      </trkpt>
      <trkpt lat="47.247801963239908" lon="6.04048197157681">
        <ele>267.38</ele>
        <time>2025-04-23T11:54:26Z</time>
      </trkpt>
      <trkpt lat="47.247716970741749" lon="6.040249038487673">
        <ele>268.82999999999998</ele>
        <time>2025-04-23T11:54:28Z</time>
      </trkpt>
      <trkpt lat="47.247426034882665" lon="6.039444962516427">
        <ele>268.82999999999998</ele>
        <time>2025-04-23T11:54:34Z</time>
      </trkpt>
      <trkpt lat="47.247364008799195" lon="6.039202976971865">
        <ele>268.35000000000002</ele>
        <time>2025-04-23T11:54:36Z</time>
      </trkpt>
      <trkpt lat="47.24735202267766" lon="6.039086971431971">
        <ele>267.86000000000001</ele>
        <time>2025-04-23T11:54:37Z</time>
      </trkpt>
      <trkpt lat="47.247373983263969" lon="6.038978006690741">
        <ele>267.86000000000001</ele>
        <time>2025-04-23T11:54:38Z</time>
      </trkpt>
      <trkpt lat="47.247410025447607" lon="6.038878010585904">
        <ele>267.86000000000001</ele>
        <time>2025-04-23T11:54:39Z</time>
      </trkpt>
      <trkpt lat="47.247450007125735" lon="6.038787988945842">
        <ele>267.86000000000001</ele>
        <time>2025-04-23T11:54:40Z</time>
      </trkpt>
      <trkpt lat="47.247509015724063" lon="6.03869897313416">
        <ele>267.86000000000001</ele>
        <time>2025-04-23T11:54:41Z</time>
      </trkpt>
      <trkpt lat="47.247572969645262" lon="6.038603000342846">
        <ele>267.86000000000001</ele>
        <time>2025-04-23T11:54:42Z</time>
      </trkpt>
      <trkpt lat="47.247634995728731" lon="6.038509961217642">
        <ele>267.38</ele>
        <time>2025-04-23T11:54:43Z</time>
      </trkpt>
      <trkpt lat="47.247637007385492" lon="6.038343999534845">
        <ele>266.89999999999998</ele>
        <time>2025-04-23T11:54:44Z</time>
      </trkpt>
      <trkpt lat="47.247618986293674" lon="6.038207039237022">
        <ele>265.94</ele>
        <time>2025-04-23T11:54:45Z</time>
      </trkpt>
      <trkpt lat="47.247580010443926" lon="6.038089022040367">
        <ele>264.98000000000002</ele>
        <time>2025-04-23T11:54:46Z</time>
      </trkpt>
      <trkpt lat="47.247542040422559" lon="6.037972010672092">
        <ele>264.5</ele>
        <time>2025-04-23T11:54:47Z</time>
      </trkpt>
      <trkpt lat="47.247508009895682" lon="6.037863967940211">
        <ele>264.01999999999998</ele>
        <time>2025-04-23T11:54:48Z</time>
      </trkpt>
      <trkpt lat="47.247476996853948" lon="6.037767995148897">
        <ele>263.54000000000002</ele>
        <time>2025-04-23T11:54:49Z</time>
      </trkpt>
      <trkpt lat="47.247451012954116" lon="6.037683002650738">
        <ele>263.54000000000002</ele>
        <time>2025-04-23T11:54:50Z</time>
      </trkpt>
      <trkpt lat="47.247427040711045" lon="6.037604967132211">
        <ele>263.06</ele>
        <time>2025-04-23T11:54:51Z</time>
      </trkpt>
      <trkpt lat="47.247408013790846" lon="6.037531960755587">
        <ele>263.06</ele>
        <time>2025-04-23T11:54:52Z</time>
      </trkpt>
      <trkpt lat="47.247384963557124" lon="6.037443028762937">
        <ele>262.57999999999998</ele>
        <time>2025-04-23T11:54:59Z</time>
      </trkpt>
      <trkpt lat="47.247337019070983" lon="6.037258040159941">
        <ele>262.10000000000002</ele>
        <time>2025-04-23T11:55:34Z</time>
      </trkpt>
      <trkpt lat="47.247289996594191" lon="6.037077996879816">
        <ele>262.10000000000002</ele>
        <time>2025-04-23T11:55:36Z</time>
      </trkpt>
      <trkpt lat="47.247273987159133" lon="6.036993004381657">
        <ele>261.62</ele>
        <time>2025-04-23T11:55:37Z</time>
      </trkpt>
      <trkpt lat="47.247263006865978" lon="6.036925027146936">
        <ele>261.62</ele>
        <time>2025-04-23T11:55:38Z</time>
      </trkpt>
      <trkpt lat="47.247244985774159" lon="6.03687196969986">
        <ele>261.62</ele>
        <time>2025-04-23T11:55:39Z</time>
      </trkpt>
      <trkpt lat="47.247216990217566" lon="6.036813966929913">
        <ele>261.13999999999999</ele>
        <time>2025-04-23T11:55:40Z</time>
      </trkpt>
      <trkpt lat="47.247172985225916" lon="6.036736015230417">
        <ele>261.13999999999999</ele>
        <time>2025-04-23T11:55:41Z</time>
      </trkpt>
      <trkpt lat="47.247127974405885" lon="6.036654962226749">
        <ele>261.62</ele>
        <time>2025-04-23T11:55:42Z</time>
      </trkpt>
      <trkpt lat="47.247081035748124" lon="6.036569969728589">
        <ele>262.10000000000002</ele>
        <time>2025-04-23T11:55:43Z</time>
      </trkpt>
      <trkpt lat="47.247026972472668" lon="6.036471985280514">
        <ele>262.10000000000002</ele>
        <time>2025-04-23T11:55:44Z</time>
      </trkpt>
      <trkpt lat="47.246400006115437" lon="6.035728007555008">
        <ele>261.13999999999999</ele>
        <time>2025-04-23T11:55:54Z</time>
      </trkpt>
      <trkpt lat="47.246340997517109" lon="6.035651983693242">
        <ele>260.64999999999998</ele>
        <time>2025-04-23T11:55:55Z</time>
      </trkpt>
      <trkpt lat="47.245901031419635" lon="6.035331040620804">
        <ele>253.93000000000001</ele>
        <time>2025-04-23T11:56:04Z</time>
      </trkpt>
      <trkpt lat="47.245725011453032" lon="6.035242024809122">
        <ele>251.03999999999999</ele>
        <time>2025-04-23T11:56:12Z</time>
      </trkpt>
      <trkpt lat="47.2455919906497" lon="6.035212017595768">
        <ele>250.08000000000001</ele>
        <time>2025-04-23T11:56:14Z</time>
      </trkpt>
      <trkpt lat="47.245514038950205" lon="6.035200031474233">
        <ele>249.59999999999999</ele>
        <time>2025-04-23T11:56:15Z</time>
      </trkpt>
      <trkpt lat="47.245432985946536" lon="6.035187039524317">
        <ele>249.12</ele>
        <time>2025-04-23T11:56:16Z</time>
      </trkpt>
      <trkpt lat="47.245347993448377" lon="6.035168012604117">
        <ele>248.63999999999999</ele>
        <time>2025-04-23T11:56:17Z</time>
      </trkpt>
      <trkpt lat="47.245258977636695" lon="6.035144962370396">
        <ele>248.16</ele>
        <time>2025-04-23T11:56:18Z</time>
      </trkpt>
      <trkpt lat="47.244078973308206" lon="6.034640958532691">
        <ele>247.68000000000001</ele>
        <time>2025-04-23T11:56:31Z</time>
      </trkpt>
      <trkpt lat="47.24378895945847" lon="6.034490000456572">
        <ele>249.12</ele>
        <time>2025-04-23T11:56:34Z</time>
      </trkpt>
      <trkpt lat="47.242762008681893" lon="6.033848030492663">
        <ele>250.56</ele>
        <time>2025-04-23T11:56:45Z</time>
      </trkpt>
      <trkpt lat="47.242693025618792" lon="6.033796984702349">
        <ele>250.56</ele>
        <time>2025-04-23T11:56:46Z</time>
      </trkpt>
      <trkpt lat="47.242630999535322" lon="6.033749962225556">
        <ele>250.56</ele>
        <time>2025-04-23T11:56:47Z</time>
      </trkpt>
      <trkpt lat="47.242577020078897" lon="6.033708974719048">
        <ele>250.56</ele>
        <time>2025-04-23T11:56:48Z</time>
      </trkpt>
      <trkpt lat="47.2424559853971" lon="6.033618031069636">
        <ele>250.56</ele>
        <time>2025-04-23T11:56:55Z</time>
      </trkpt>
      <trkpt lat="47.242241995409131" lon="6.033443016931415">
        <ele>251.03999999999999</ele>
        <time>2025-04-23T11:57:07Z</time>
      </trkpt>
      <trkpt lat="47.242118027061224" lon="6.033345032483339">
        <ele>251.52000000000001</ele>
        <time>2025-04-23T11:57:09Z</time>
      </trkpt>
      <trkpt lat="47.241669008508325" lon="6.032877992838621">
        <ele>251.52000000000001</ele>
        <time>2025-04-23T11:57:17Z</time>
      </trkpt>
      <trkpt lat="47.241633972153068" lon="6.032840022817254">
        <ele>251.52000000000001</ele>
        <time>2025-04-23T11:57:18Z</time>
      </trkpt>
      <trkpt lat="47.241605976596475" lon="6.032808003947139">
        <ele>252</ele>
        <time>2025-04-23T11:57:19Z</time>
      </trkpt>
      <trkpt lat="47.241589967161417" lon="6.032788977026939">
        <ele>251.52000000000001</ele>
        <time>2025-04-23T11:57:20Z</time>
      </trkpt>
      <trkpt lat="47.241589967161417" lon="6.032788977026939">
        <ele>252</ele>
        <time>2025-04-23T11:57:33Z</time>
      </trkpt>
      <trkpt lat="47.241524001583457" lon="6.032694010064006">
        <ele>254.41</ele>
        <time>2025-04-23T11:57:51Z</time>
      </trkpt>
      <trkpt lat="47.241598013788462" lon="6.032481025904417">
        <ele>254.88999999999999</ele>
        <time>2025-04-23T11:57:52Z</time>
      </trkpt>
      <trkpt lat="47.241617040708661" lon="6.032442972064018">
        <ele>255.37</ele>
        <time>2025-04-23T11:57:53Z</time>
      </trkpt>
      <trkpt lat="47.241741009056568" lon="6.032195035368204">
        <ele>255.37</ele>
        <time>2025-04-23T11:57:56Z</time>
      </trkpt>
      <trkpt lat="47.242116015404463" lon="6.031333040446043">
        <ele>254.41</ele>
        <time>2025-04-23T11:58:05Z</time>
      </trkpt>
      <trkpt lat="47.242221962660551" lon="6.031016958877444">
        <ele>253.93000000000001</ele>
        <time>2025-04-23T11:58:08Z</time>
      </trkpt>
      <trkpt lat="47.242286000400782" lon="6.030813027173281">
        <ele>253.44</ele>
        <time>2025-04-23T11:58:10Z</time>
      </trkpt>
      <trkpt lat="47.242316007614136" lon="6.030714958906174">
        <ele>253.44</ele>
        <time>2025-04-23T11:58:11Z</time>
      </trkpt>
      <trkpt lat="47.242345008999109" lon="6.030612029135227">
        <ele>253.44</ele>
        <time>2025-04-23T11:58:12Z</time>
      </trkpt>
      <trkpt lat="47.242421032860875" lon="6.030217995867133">
        <ele>254.41</ele>
        <time>2025-04-23T11:58:16Z</time>
      </trkpt>
      <trkpt lat="47.242477023974061" lon="6.029778029769659">
        <ele>254.88999999999999</ele>
        <time>2025-04-23T11:58:24Z</time>
      </trkpt>
      <trkpt lat="47.242477023974061" lon="6.029778029769659">
        <ele>254.88999999999999</ele>
        <time>2025-04-23T11:58:46Z</time>
      </trkpt>
      <trkpt lat="47.242508959025145" lon="6.029328005388379">
        <ele>256.32999999999998</ele>
        <time>2025-04-23T11:58:52Z</time>
      </trkpt>
      <trkpt lat="47.242512982338667" lon="6.029236977919936">
        <ele>256.32999999999998</ele>
        <time>2025-04-23T11:58:53Z</time>
      </trkpt>
      <trkpt lat="47.242537038400769" lon="6.02877102792263">
        <ele>256.81</ele>
        <time>2025-04-23T11:58:58Z</time>
      </trkpt>
      <trkpt lat="47.242542989552021" lon="6.02866499684751">
        <ele>256.81</ele>
        <time>2025-04-23T11:58:59Z</time>
      </trkpt>
      <trkpt lat="47.242548018693924" lon="6.028562989085913">
        <ele>256.81</ele>
        <time>2025-04-23T11:59:00Z</time>
      </trkpt>
      <trkpt lat="47.242630999535322" lon="6.027309978380799">
        <ele>254.41</ele>
        <time>2025-04-23T11:59:10Z</time>
      </trkpt>
      <trkpt lat="47.242661006748676" lon="6.026960033923388">
        <ele>253.44</ele>
        <time>2025-04-23T11:59:13Z</time>
      </trkpt>
      <trkpt lat="47.24266997538507" lon="6.02685802616179">
        <ele>253.44</ele>
        <time>2025-04-23T11:59:14Z</time>
      </trkpt>
      <trkpt lat="47.24271004088223" lon="6.026356033980846">
        <ele>251.03999999999999</ele>
        <time>2025-04-23T11:59:19Z</time>
      </trkpt>
      <trkpt lat="47.242719009518623" lon="6.026186970993877">
        <ele>250.08000000000001</ele>
        <time>2025-04-23T11:59:25Z</time>
      </trkpt>
      <trkpt lat="47.242720015347004" lon="6.026159981265664">
        <ele>250.08000000000001</ele>
        <time>2025-04-23T11:59:54Z</time>
      </trkpt>
      <trkpt lat="47.242916990071535" lon="6.025991002097726">
        <ele>250.08000000000001</ele>
        <time>2025-04-23T11:59:55Z</time>
      </trkpt>
      <trkpt lat="47.242959989234805" lon="6.026028972119093">
        <ele>249.59999999999999</ele>
        <time>2025-04-23T11:59:56Z</time>
      </trkpt>
      <trkpt lat="47.243018997833133" lon="6.026082029566169">
        <ele>248.63999999999999</ele>
        <time>2025-04-23T11:59:57Z</time>
      </trkpt>
      <trkpt lat="47.243085969239473" lon="6.026141038164496">
        <ele>248.16</ele>
        <time>2025-04-23T11:59:58Z</time>
      </trkpt>
      <trkpt lat="47.243909994140267" lon="6.026874035596848">
        <ele>243.83000000000001</ele>
        <time>2025-04-23T12:00:09Z</time>
      </trkpt>
      <trkpt lat="47.24398098886013" lon="6.026936983689666">
        <ele>243.83000000000001</ele>
        <time>2025-04-23T12:00:10Z</time>
      </trkpt>
      <trkpt lat="47.244118032976985" lon="6.027061035856605">
        <ele>243.83000000000001</ele>
        <time>2025-04-23T12:00:12Z</time>
      </trkpt>
      <trkpt lat="47.244189027696848" lon="6.027131024748087">
        <ele>244.31</ele>
        <time>2025-04-23T12:00:13Z</time>
      </trkpt>
      <trkpt lat="47.244261028245091" lon="6.027201013639569">
        <ele>244.31</ele>
        <time>2025-04-23T12:00:14Z</time>
      </trkpt>
      <trkpt lat="47.244330011308193" lon="6.027268990874291">
        <ele>244.78999999999999</ele>
        <time>2025-04-23T12:00:15Z</time>
      </trkpt>
      <trkpt lat="47.244402011856437" lon="6.027337973937392">
        <ele>245.27000000000001</ele>
        <time>2025-04-23T12:00:16Z</time>
      </trkpt>
      <trkpt lat="47.2444730065763" lon="6.027407962828875">
        <ele>246.22999999999999</ele>
        <time>2025-04-23T12:00:17Z</time>
      </trkpt>
      <trkpt lat="47.244824040681124" lon="6.027750028297305">
        <ele>248.16</ele>
        <time>2025-04-23T12:00:22Z</time>
      </trkpt>
      <trkpt lat="47.244884977117181" lon="6.027809958904982">
        <ele>248.63999999999999</ele>
        <time>2025-04-23T12:00:23Z</time>
      </trkpt>
      <trkpt lat="47.244943985715508" lon="6.027867961674929">
        <ele>249.12</ele>
        <time>2025-04-23T12:00:24Z</time>
      </trkpt>
      <trkpt lat="47.24500902928412" lon="6.027925964444876">
        <ele>249.12</ele>
        <time>2025-04-23T12:00:25Z</time>
      </trkpt>
      <trkpt lat="47.245073989033699" lon="6.027974998578429">
        <ele>249.59999999999999</ele>
        <time>2025-04-23T12:00:26Z</time>
      </trkpt>
      <trkpt lat="47.245120005682111" lon="6.028014980256558">
        <ele>249.59999999999999</ele>
        <time>2025-04-23T12:00:27Z</time>
      </trkpt>
      <trkpt lat="47.245169039815664" lon="6.028056973591447">
        <ele>250.08000000000001</ele>
        <time>2025-04-23T12:00:28Z</time>
      </trkpt>
      <trkpt lat="47.245213966816664" lon="6.028095027431846">
        <ele>250.08000000000001</ele>
        <time>2025-04-23T12:00:29Z</time>
      </trkpt>
      <trkpt lat="47.24527096375823" lon="6.028185971081257">
        <ele>251.03999999999999</ele>
        <time>2025-04-23T12:00:36Z</time>
      </trkpt>
      <trkpt lat="47.24535402841866" lon="6.028331983834505">
        <ele>252.96000000000001</ele>
        <time>2025-04-23T12:00:57Z</time>
      </trkpt>
      <trkpt lat="47.245384035632014" lon="6.02838302962482">
        <ele>253.44</ele>
        <time>2025-04-23T12:00:58Z</time>
      </trkpt>
      <trkpt lat="47.245446983724833" lon="6.028397027403116">
        <ele>253.93000000000001</ele>
        <time>2025-04-23T12:00:59Z</time>
      </trkpt>
      <trkpt lat="47.24548202008009" lon="6.028391998261213">
        <ele>253.93000000000001</ele>
        <time>2025-04-23T12:01:00Z</time>
      </trkpt>
      <trkpt lat="47.245522001758218" lon="6.02838596329093">
        <ele>253.93000000000001</ele>
        <time>2025-04-23T12:01:01Z</time>
      </trkpt>
      <trkpt lat="47.245557960122824" lon="6.028375988826156">
        <ele>253.93000000000001</ele>
        <time>2025-04-23T12:01:02Z</time>
      </trkpt>
      <trkpt lat="47.245596013963223" lon="6.028353022411466">
        <ele>253.93000000000001</ele>
        <time>2025-04-23T12:01:03Z</time>
      </trkpt>
      <trkpt lat="47.24563398398459" lon="6.028329972177744">
        <ele>253.93000000000001</ele>
        <time>2025-04-23T12:01:04Z</time>
      </trkpt>
      <trkpt lat="47.245671031996608" lon="6.028308011591435">
        <ele>253.93000000000001</ele>
        <time>2025-04-23T12:01:05Z</time>
      </trkpt>
      <trkpt lat="47.24595601670444" lon="6.028165016323328">
        <ele>254.88999999999999</ele>
        <time>2025-04-23T12:01:11Z</time>
      </trkpt>
      <trkpt lat="47.246767971664667" lon="6.02808203548193">
        <ele>255.37</ele>
        <time>2025-04-23T12:01:21Z</time>
      </trkpt>
      <trkpt lat="47.247065026313066" lon="6.028166022151709">
        <ele>255.37</ele>
        <time>2025-04-23T12:01:25Z</time>
      </trkpt>
      <trkpt lat="47.247129986062646" lon="6.028198041021824">
        <ele>255.37</ele>
        <time>2025-04-23T12:01:26Z</time>
      </trkpt>
      <trkpt lat="47.247194023802876" lon="6.028229976072907">
        <ele>254.88999999999999</ele>
        <time>2025-04-23T12:01:27Z</time>
      </trkpt>
      <trkpt lat="47.247489988803864" lon="6.028354028239846">
        <ele>254.41</ele>
        <time>2025-04-23T12:01:36Z</time>
      </trkpt>
      <trkpt lat="47.247513039037585" lon="6.028348999097943">
        <ele>254.88999999999999</ele>
        <time>2025-04-23T12:01:47Z</time>
      </trkpt>
      <trkpt lat="47.247544974088669" lon="6.028341958299279">
        <ele>255.84999999999999</ele>
        <time>2025-04-23T12:01:48Z</time>
      </trkpt>
      <trkpt lat="47.247584033757448" lon="6.028332989662886">
        <ele>257.29000000000002</ele>
        <time>2025-04-23T12:01:49Z</time>
      </trkpt>
      <trkpt lat="47.247603982686996" lon="6.028220001608133">
        <ele>258.25</ele>
        <time>2025-04-23T12:01:50Z</time>
      </trkpt>
      <trkpt lat="47.247586967423558" lon="6.028183959424496">
        <ele>259.20999999999998</ele>
        <time>2025-04-23T12:01:51Z</time>
      </trkpt>
      <trkpt lat="47.247564001008868" lon="6.028132997453213">
        <ele>259.69</ele>
        <time>2025-04-23T12:01:52Z</time>
      </trkpt>
      <trkpt lat="47.247539022937417" lon="6.028080023825169">
        <ele>259.69</ele>
        <time>2025-04-23T12:01:53Z</time>
      </trkpt>
      <trkpt lat="47.247514966875315" lon="6.028026966378093">
        <ele>259.69</ele>
        <time>2025-04-23T12:01:54Z</time>
      </trkpt>
      <trkpt lat="47.247493006289005" lon="6.027979021891952">
        <ele>259.69</ele>
        <time>2025-04-23T12:01:55Z</time>
      </trkpt>
      <trkpt lat="47.247423017397523" lon="6.027825968340039">
        <ele>259.20999999999998</ele>
        <time>2025-04-23T12:02:05Z</time>
      </trkpt>
      <trkpt lat="47.247423017397523" lon="6.027825968340039">
        <ele>259.20999999999998</ele>
        <time>2025-04-23T12:02:46Z</time>
      </trkpt>
      <trkpt lat="47.247423017397523" lon="6.027825968340039">
        <ele>259.20999999999998</ele>
        <time>2025-04-23T12:03:28Z</time>
      </trkpt>
      <trkpt lat="47.247423017397523" lon="6.027825968340039">
        <ele>259.69</ele>
        <time>2025-04-23T12:04:03Z</time>
      </trkpt>
      <trkpt lat="47.247423017397523" lon="6.027825968340039">
        <ele>260.17000000000002</ele>
        <time>2025-04-23T12:04:48Z</time>
      </trkpt>
      <trkpt lat="47.247423017397523" lon="6.027825968340039">
        <ele>261.62</ele>
        <time>2025-04-23T12:05:30Z</time>
      </trkpt>
      <trkpt lat="47.247423017397523" lon="6.027825968340039">
        <ele>262.10000000000002</ele>
        <time>2025-04-23T12:06:05Z</time>
      </trkpt>
      <trkpt lat="47.247397033497691" lon="6.027768971398473">
        <ele>262.57999999999998</ele>
        <time>2025-04-23T12:06:42Z</time>
      </trkpt>
      <trkpt lat="47.247293014079332" lon="6.027544001117349">
        <ele>264.5</ele>
        <time>2025-04-23T12:06:47Z</time>
      </trkpt>
      <trkpt lat="47.247172985225916" lon="6.027283994480968">
        <ele>264.5</ele>
        <time>2025-04-23T12:06:51Z</time>
      </trkpt>
      <trkpt lat="47.247140966355801" lon="6.027215011417866">
        <ele>264.01999999999998</ele>
        <time>2025-04-23T12:06:52Z</time>
      </trkpt>
      <trkpt lat="47.247108025476336" lon="6.027142005041242">
        <ele>264.01999999999998</ele>
        <time>2025-04-23T12:06:53Z</time>
      </trkpt>
      <trkpt lat="47.24707399494946" lon="6.027068998664618">
        <ele>263.54000000000002</ele>
        <time>2025-04-23T12:06:54Z</time>
      </trkpt>
      <trkpt lat="47.247037030756474" lon="6.026988029479981">
        <ele>263.54000000000002</ele>
        <time>2025-04-23T12:06:55Z</time>
      </trkpt>
      <trkpt lat="47.246910966932774" lon="6.026714025065303">
        <ele>262.10000000000002</ele>
        <time>2025-04-23T12:06:58Z</time>
      </trkpt>
      <trkpt lat="47.246723966673017" lon="6.026341030374169">
        <ele>260.64999999999998</ele>
        <time>2025-04-23T12:07:02Z</time>
      </trkpt>
      <trkpt lat="47.246367987245321" lon="6.025694031268358">
        <ele>259.69</ele>
        <time>2025-04-23T12:07:10Z</time>
      </trkpt>
      <trkpt lat="47.245902959257364" lon="6.024680994451046">
        <ele>264.5</ele>
        <time>2025-04-23T12:07:21Z</time>
      </trkpt>
      <trkpt lat="47.245815033093095" lon="6.024468010291457">
        <ele>266.42000000000002</ele>
        <time>2025-04-23T12:07:24Z</time>
      </trkpt>
      <trkpt lat="47.245789971202612" lon="6.024335995316505">
        <ele>267.86000000000001</ele>
        <time>2025-04-23T12:07:30Z</time>
      </trkpt>
      <trkpt lat="47.245768010616302" lon="6.024218983948231">
        <ele>268.82999999999998</ele>
        <time>2025-04-23T12:07:33Z</time>
      </trkpt>
      <trkpt lat="47.245760969817638" lon="6.024176990613341">
        <ele>268.82999999999998</ele>
        <time>2025-04-23T12:07:34Z</time>
      </trkpt>
      <trkpt lat="47.245696010068059" lon="6.024027038365603">
        <ele>269.31</ele>
        <time>2025-04-23T12:07:35Z</time>
      </trkpt>
      <trkpt lat="47.245696010068059" lon="6.023855041712523">
        <ele>269.79000000000002</ele>
        <time>2025-04-23T12:07:36Z</time>
      </trkpt>
      <trkpt lat="47.245671031996608" lon="6.023789998143911">
        <ele>270.26999999999998</ele>
        <time>2025-04-23T12:07:37Z</time>
      </trkpt>
      <trkpt lat="47.245599031448364" lon="6.023771977052093">
        <ele>270.26999999999998</ele>
        <time>2025-04-23T12:07:38Z</time>
      </trkpt>
      <trkpt lat="47.245588973164558" lon="6.023768959566951">
        <ele>270.26999999999998</ele>
        <time>2025-04-23T12:07:39Z</time>
      </trkpt>
      <trkpt lat="47.24541999399662" lon="6.023883959278464">
        <ele>269.79000000000002</ele>
        <time>2025-04-23T12:07:40Z</time>
      </trkpt>
      <trkpt lat="47.245340030640364" lon="6.023839032277465">
        <ele>269.79000000000002</ele>
        <time>2025-04-23T12:07:41Z</time>
      </trkpt>
      <trkpt lat="47.245256965979934" lon="6.02374498732388">
        <ele>269.31</ele>
        <time>2025-04-23T12:07:42Z</time>
      </trkpt>
      <trkpt lat="47.2451810259372" lon="6.023653037846088">
        <ele>269.31</ele>
        <time>2025-04-23T12:07:43Z</time>
      </trkpt>
      <trkpt lat="47.245101984590292" lon="6.023515993729234">
        <ele>269.31</ele>
        <time>2025-04-23T12:07:44Z</time>
      </trkpt>
      <trkpt lat="47.245066026225686" lon="6.023374004289508">
        <ele>268.82999999999998</ele>
        <time>2025-04-23T12:07:45Z</time>
      </trkpt>
      <trkpt lat="47.245029984042048" lon="6.023234026506543">
        <ele>268.35000000000002</ele>
        <time>2025-04-23T12:07:46Z</time>
      </trkpt>
      <trkpt lat="47.244657995179296" lon="6.021870039403439">
        <ele>263.54000000000002</ele>
        <time>2025-04-23T12:07:57Z</time>
      </trkpt>
      <trkpt lat="47.244631005451083" lon="6.021763002499938">
        <ele>263.06</ele>
        <time>2025-04-23T12:07:59Z</time>
      </trkpt>
      <trkpt lat="47.244613990187645" lon="6.021697958931327">
        <ele>263.06</ele>
        <time>2025-04-23T12:08:00Z</time>
      </trkpt>
      <trkpt lat="47.24453997798264" lon="6.021741963922977">
        <ele>262.57999999999998</ele>
        <time>2025-04-23T12:08:01Z</time>
      </trkpt>
      <trkpt lat="47.244490021839738" lon="6.021749004721642">
        <ele>262.57999999999998</ele>
        <time>2025-04-23T12:08:02Z</time>
      </trkpt>
      <trkpt lat="47.244446016848087" lon="6.021754033863545">
        <ele>262.57999999999998</ele>
        <time>2025-04-23T12:08:03Z</time>
      </trkpt>
      <trkpt lat="47.244417015463114" lon="6.021757973358035">
        <ele>262.10000000000002</ele>
        <time>2025-04-23T12:08:04Z</time>
      </trkpt>
      <trkpt lat="47.244396982714534" lon="6.021760990843177">
        <ele>262.10000000000002</ele>
        <time>2025-04-23T12:08:05Z</time>
      </trkpt>
      <trkpt lat="47.244382984936237" lon="6.021763002499938">
        <ele>261.62</ele>
        <time>2025-04-23T12:08:07Z</time>
      </trkpt>
      <trkpt lat="47.244382984936237" lon="6.021763002499938">
        <ele>262.10000000000002</ele>
        <time>2025-04-23T12:08:25Z</time>
      </trkpt>
      <trkpt lat="47.244236972182989" lon="6.021730983629823">
        <ele>265.45999999999998</ele>
        <time>2025-04-23T12:08:42Z</time>
      </trkpt>
      <trkpt lat="47.24430100992322" lon="6.021881019696593">
        <ele>265.94</ele>
        <time>2025-04-23T12:08:43Z</time>
      </trkpt>
      <trkpt lat="47.24430100992322" lon="6.021773982793093">
        <ele>265.94</ele>
        <time>2025-04-23T12:08:44Z</time>
      </trkpt>
      <trkpt lat="47.24430100992322" lon="6.021773982793093">
        <ele>266.42000000000002</ele>
        <time>2025-04-23T12:08:45Z</time>
      </trkpt>
      <trkpt lat="47.24430100992322" lon="6.021773982793093">
        <ele>266.42000000000002</ele>
        <time>2025-04-23T12:08:59Z</time>
      </trkpt>
      <trkpt lat="47.24436697550118" lon="6.021765014156699">
        <ele>266.89999999999998</ele>
        <time>2025-04-23T12:09:28Z</time>
      </trkpt>
      <trkpt lat="47.244439981877804" lon="6.021755039691925">
        <ele>266.89999999999998</ele>
        <time>2025-04-23T12:09:30Z</time>
      </trkpt>
      <trkpt lat="47.244493961334229" lon="6.021747998893261">
        <ele>266.89999999999998</ele>
        <time>2025-04-23T12:09:31Z</time>
      </trkpt>
      <trkpt lat="47.244494967162609" lon="6.021967018023133">
        <ele>266.89999999999998</ele>
        <time>2025-04-23T12:09:32Z</time>
      </trkpt>
      <trkpt lat="47.244666963815689" lon="6.021903986111283">
        <ele>267.38</ele>
        <time>2025-04-23T12:09:33Z</time>
      </trkpt>
      <trkpt lat="47.24466604180634" lon="6.021902980282903">
        <ele>267.38</ele>
        <time>2025-04-23T12:09:34Z</time>
      </trkpt>
      <trkpt lat="47.244725972414017" lon="6.022126022726297">
        <ele>267.38</ele>
        <time>2025-04-23T12:09:35Z</time>
      </trkpt>
      <trkpt lat="47.244766959920526" lon="6.022258037701249">
        <ele>267.86000000000001</ele>
        <time>2025-04-23T12:09:36Z</time>
      </trkpt>
      <trkpt lat="47.244809959083796" lon="6.022393992170692">
        <ele>267.86000000000001</ele>
        <time>2025-04-23T12:09:37Z</time>
      </trkpt>
      <trkpt lat="47.24501196295023" lon="6.02316596545279">
        <ele>268.35000000000002</ele>
        <time>2025-04-23T12:09:45Z</time>
      </trkpt>
      <trkpt lat="47.245019003748894" lon="6.023191027343273">
        <ele>267.86000000000001</ele>
        <time>2025-04-23T12:09:56Z</time>
      </trkpt>
      <trkpt lat="47.245050016790628" lon="6.023339973762631">
        <ele>267.86000000000001</ele>
        <time>2025-04-23T12:10:06Z</time>
      </trkpt>
      <trkpt lat="47.245014980435371" lon="6.023514987900853">
        <ele>268.35000000000002</ele>
        <time>2025-04-23T12:10:07Z</time>
      </trkpt>
      <trkpt lat="47.244964018464088" lon="6.023591011762619">
        <ele>267.86000000000001</ele>
        <time>2025-04-23T12:10:08Z</time>
      </trkpt>
      <trkpt lat="47.244835020974278" lon="6.02363602258265">
        <ele>267.86000000000001</ele>
        <time>2025-04-23T12:10:09Z</time>
      </trkpt>
      <trkpt lat="47.244737958535552" lon="6.023650020360947">
        <ele>267.38</ele>
        <time>2025-04-23T12:10:10Z</time>
      </trkpt>
      <trkpt lat="47.244626982137561" lon="6.023667035624385">
        <ele>267.38</ele>
        <time>2025-04-23T12:10:11Z</time>
      </trkpt>
      <trkpt lat="47.243488971143961" lon="6.023883037269115">
        <ele>263.54000000000002</ele>
        <time>2025-04-23T12:10:20Z</time>
      </trkpt>
      <trkpt lat="47.243392998352647" lon="6.023920001462102">
        <ele>262.57999999999998</ele>
        <time>2025-04-23T12:10:21Z</time>
      </trkpt>
      <trkpt lat="47.243295013904572" lon="6.023993007838726">
        <ele>262.10000000000002</ele>
        <time>2025-04-23T12:10:22Z</time>
      </trkpt>
      <trkpt lat="47.24320599809289" lon="6.024074982851744">
        <ele>260.64999999999998</ele>
        <time>2025-04-23T12:10:23Z</time>
      </trkpt>
      <trkpt lat="47.243124023079872" lon="6.024167016148567">
        <ele>258.73000000000002</ele>
        <time>2025-04-23T12:10:24Z</time>
      </trkpt>
      <trkpt lat="47.243050010874867" lon="6.024258965626359">
        <ele>257.29000000000002</ele>
        <time>2025-04-23T12:10:25Z</time>
      </trkpt>
      <trkpt lat="47.243006005883217" lon="6.024372959509492">
        <ele>255.37</ele>
        <time>2025-04-23T12:10:26Z</time>
      </trkpt>
      <trkpt lat="47.24297096952796" lon="6.024463986977935">
        <ele>254.41</ele>
        <time>2025-04-23T12:10:27Z</time>
      </trkpt>
      <trkpt lat="47.242950014770031" lon="6.024519978091121">
        <ele>252.96000000000001</ele>
        <time>2025-04-23T12:10:28Z</time>
      </trkpt>
      <trkpt lat="47.242882959544659" lon="6.024763975292444">
        <ele>246.22999999999999</ele>
        <time>2025-04-23T12:10:36Z</time>
      </trkpt>
      <trkpt lat="47.242882959544659" lon="6.024763975292444">
        <ele>245.27000000000001</ele>
        <time>2025-04-23T12:11:21Z</time>
      </trkpt>
      <trkpt lat="47.242868039757013" lon="6.02481996640563">
        <ele>244.78999999999999</ele>
        <time>2025-04-23T12:11:34Z</time>
      </trkpt>
      <trkpt lat="47.242785980924964" lon="6.02533302269876">
        <ele>242.87</ele>
        <time>2025-04-23T12:11:41Z</time>
      </trkpt>
      <trkpt lat="47.242769971489906" lon="6.02548398077488">
        <ele>242.38999999999999</ele>
        <time>2025-04-23T12:11:43Z</time>
      </trkpt>
      <trkpt lat="47.242762008681893" lon="6.025565033778548">
        <ele>242.87</ele>
        <time>2025-04-23T12:11:44Z</time>
      </trkpt>
      <trkpt lat="47.242753962054849" lon="6.025640973821282">
        <ele>243.34999999999999</ele>
        <time>2025-04-23T12:11:45Z</time>
      </trkpt>
      <trkpt lat="47.242619013413787" lon="6.025780029594898">
        <ele>243.83000000000001</ele>
        <time>2025-04-23T12:11:46Z</time>
      </trkpt>
      <trkpt lat="47.24256201647222" lon="6.025755973532796">
        <ele>244.31</ele>
        <time>2025-04-23T12:11:47Z</time>
      </trkpt>
      <trkpt lat="47.242477023974061" lon="6.025722026824951">
        <ele>244.78999999999999</ele>
        <time>2025-04-23T12:11:48Z</time>
      </trkpt>
      <trkpt lat="47.242430001497269" lon="6.025710040703416">
        <ele>245.27000000000001</ele>
        <time>2025-04-23T12:11:49Z</time>
      </trkpt>
      <trkpt lat="47.241813009604812" lon="6.025554975494742">
        <ele>249.59999999999999</ele>
        <time>2025-04-23T12:11:59Z</time>
      </trkpt>
      <trkpt lat="47.241761041805148" lon="6.025550030171871">
        <ele>249.59999999999999</ele>
        <time>2025-04-23T12:12:00Z</time>
      </trkpt>
      <trkpt lat="47.241713013499975" lon="6.025547012686729">
        <ele>249.59999999999999</ele>
        <time>2025-04-23T12:12:01Z</time>
      </trkpt>
      <trkpt lat="47.241623997688293" lon="6.02552697993815">
        <ele>250.08000000000001</ele>
        <time>2025-04-23T12:12:09Z</time>
      </trkpt>
      <trkpt lat="47.241513021290302" lon="6.025509964674711">
        <ele>250.56</ele>
        <time>2025-04-23T12:12:15Z</time>
      </trkpt>
      <trkpt lat="47.241460969671607" lon="6.025502001866698">
        <ele>251.03999999999999</ele>
        <time>2025-04-23T12:12:16Z</time>
      </trkpt>
      <trkpt lat="47.241272963583469" lon="6.025474006310105">
        <ele>250.56</ele>
        <time>2025-04-23T12:12:22Z</time>
      </trkpt>
      <trkpt lat="47.241234993562102" lon="6.025335034355521">
        <ele>250.08000000000001</ele>
        <time>2025-04-23T12:12:23Z</time>
      </trkpt>
      <trkpt lat="47.241240022704005" lon="6.025307038798928">
        <ele>249.59999999999999</ele>
        <time>2025-04-23T12:12:24Z</time>
      </trkpt>
      <trkpt lat="47.241246979683638" lon="6.025272002443671">
        <ele>249.12</ele>
        <time>2025-04-23T12:12:25Z</time>
      </trkpt>
      <trkpt lat="47.241256032139063" lon="6.025219028815627">
        <ele>248.16</ele>
        <time>2025-04-23T12:12:26Z</time>
      </trkpt>
      <trkpt lat="47.241267012432218" lon="6.025159014388919">
        <ele>247.68000000000001</ele>
        <time>2025-04-23T12:12:27Z</time>
      </trkpt>
      <trkpt lat="47.241286039352417" lon="6.025056000798941">
        <ele>245.75</ele>
        <time>2025-04-23T12:12:36Z</time>
      </trkpt>
      <trkpt lat="47.241343958303332" lon="6.024712007492781">
        <ele>243.34999999999999</ele>
        <time>2025-04-23T12:12:51Z</time>
      </trkpt>
      <trkpt lat="47.241355022415519" lon="6.024576975032687">
        <ele>242.38999999999999</ele>
        <time>2025-04-23T12:12:57Z</time>
      </trkpt>
      <trkpt lat="47.241355022415519" lon="6.024576975032687">
        <ele>242.38999999999999</ele>
        <time>2025-04-23T12:13:37Z</time>
      </trkpt>
      <trkpt lat="47.241355022415519" lon="6.024576975032687">
        <ele>241.91</ele>
        <time>2025-04-23T12:14:34Z</time>
      </trkpt>
      <trkpt lat="47.241355022415519" lon="6.024576975032687">
        <ele>242.38999999999999</ele>
        <time>2025-04-23T12:15:39Z</time>
      </trkpt>
      <trkpt lat="47.241355022415519" lon="6.024576975032687">
        <ele>242.38999999999999</ele>
        <time>2025-04-23T12:16:06Z</time>
      </trkpt>
      <trkpt lat="47.241355022415519" lon="6.024576975032687">
        <ele>242.38999999999999</ele>
        <time>2025-04-23T12:16:07Z</time>
      </trkpt>
      <trkpt lat="47.241355022415519" lon="6.024576975032687">
        <ele>242.38999999999999</ele>
        <time>2025-04-23T12:16:08Z</time>
      </trkpt>
      <trkpt lat="47.241356028243899" lon="6.024572029709816">
        <ele>242.87</ele>
        <time>2025-04-23T12:16:10Z</time>
      </trkpt>
      <trkpt lat="47.241352004930377" lon="6.024612011387944">
        <ele>243.34999999999999</ele>
        <time>2025-04-23T12:16:11Z</time>
      </trkpt>
      <trkpt lat="47.241274975240231" lon="6.02511702105403">
        <ele>247.19999999999999</ele>
        <time>2025-04-23T12:16:21Z</time>
      </trkpt>
      <trkpt lat="47.241274975240231" lon="6.02511702105403">
        <ele>247.68000000000001</ele>
        <time>2025-04-23T12:16:32Z</time>
      </trkpt>
      <trkpt lat="47.241274975240231" lon="6.02511702105403">
        <ele>248.16</ele>
        <time>2025-04-23T12:16:47Z</time>
      </trkpt>
      <trkpt lat="47.241257037967443" lon="6.025215005502105">
        <ele>249.12</ele>
        <time>2025-04-23T12:17:05Z</time>
      </trkpt>
      <trkpt lat="47.241161987185478" lon="6.02578598074615">
        <ele>249.59999999999999</ele>
        <time>2025-04-23T12:17:13Z</time>
      </trkpt>
      <trkpt lat="47.241119993850589" lon="6.026055961847305">
        <ele>248.63999999999999</ele>
        <time>2025-04-23T12:17:16Z</time>
      </trkpt>
      <trkpt lat="47.241009017452598" lon="6.026744032278657">
        <ele>245.75</ele>
        <time>2025-04-23T12:17:24Z</time>
      </trkpt>
      <trkpt lat="47.240998037159443" lon="6.026809997856617">
        <ele>245.75</ele>
        <time>2025-04-23T12:17:25Z</time>
      </trkpt>
      <trkpt lat="47.240941962227225" lon="6.027082996442914">
        <ele>245.75</ele>
        <time>2025-04-23T12:17:33Z</time>
      </trkpt>
      <trkpt lat="47.240908015519381" lon="6.027249963954091">
        <ele>246.72</ele>
        <time>2025-04-23T12:18:06Z</time>
      </trkpt>
      <trkpt lat="47.240797039121389" lon="6.027736030519009">
        <ele>248.63999999999999</ele>
        <time>2025-04-23T12:18:15Z</time>
      </trkpt>
      <trkpt lat="47.240779018029571" lon="6.027801996096969">
        <ele>248.63999999999999</ele>
        <time>2025-04-23T12:18:16Z</time>
      </trkpt>
      <trkpt lat="47.240766026079655" lon="6.027853041887283">
        <ele>248.63999999999999</ele>
        <time>2025-04-23T12:18:17Z</time>
      </trkpt>
      <trkpt lat="47.240739036351442" lon="6.027953960001469">
        <ele>248.63999999999999</ele>
        <time>2025-04-23T12:18:18Z</time>
      </trkpt>
      <trkpt lat="47.240730989724398" lon="6.027972986921668">
        <ele>249.12</ele>
        <time>2025-04-23T12:18:19Z</time>
      </trkpt>
      <trkpt lat="47.240664018318057" lon="6.028129979968071">
        <ele>249.12</ele>
        <time>2025-04-23T12:18:21Z</time>
      </trkpt>
      <trkpt lat="47.240623030811548" lon="6.028224024921656">
        <ele>249.12</ele>
        <time>2025-04-23T12:18:22Z</time>
      </trkpt>
      <trkpt lat="47.240577014163136" lon="6.028332989662886">
        <ele>249.59999999999999</ele>
        <time>2025-04-23T12:18:23Z</time>
      </trkpt>
      <trkpt lat="47.240526974201202" lon="6.028451006859541">
        <ele>249.59999999999999</ele>
        <time>2025-04-23T12:18:24Z</time>
      </trkpt>
      <trkpt lat="47.240472994744778" lon="6.028573969379067">
        <ele>249.59999999999999</ele>
        <time>2025-04-23T12:18:25Z</time>
      </trkpt>
      <trkpt lat="47.239794982597232" lon="6.029967963695526">
        <ele>253.44</ele>
        <time>2025-04-23T12:18:36Z</time>
      </trkpt>
      <trkpt lat="47.239540005102754" lon="6.03031899780035">
        <ele>254.88999999999999</ele>
        <time>2025-04-23T12:18:41Z</time>
      </trkpt>
      <trkpt lat="47.239518966525793" lon="6.030346993356943">
        <ele>255.37</ele>
        <time>2025-04-23T12:18:42Z</time>
      </trkpt>
      <trkpt lat="47.239503040909767" lon="6.030369959771633">
        <ele>255.37</ele>
        <time>2025-04-23T12:18:43Z</time>
      </trkpt>
      <trkpt lat="47.239503040909767" lon="6.030369959771633">
        <ele>255.84999999999999</ele>
        <time>2025-04-23T12:18:52Z</time>
      </trkpt>
      <trkpt lat="47.239250997081399" lon="6.030689980834723">
        <ele>257.76999999999998</ele>
        <time>2025-04-23T12:18:59Z</time>
      </trkpt>
      <trkpt lat="47.238441975787282" lon="6.031531020998955">
        <ele>259.69</ele>
        <time>2025-04-23T12:19:09Z</time>
      </trkpt>
      <trkpt lat="47.238375004380941" lon="6.031600004062057">
        <ele>259.69</ele>
        <time>2025-04-23T12:19:10Z</time>
      </trkpt>
      <trkpt lat="47.23807199858129" lon="6.031905021518469">
        <ele>259.69</ele>
        <time>2025-04-23T12:19:16Z</time>
      </trkpt>
      <trkpt lat="47.238040985539556" lon="6.031932011246681">
        <ele>259.20999999999998</ele>
        <time>2025-04-23T12:19:17Z</time>
      </trkpt>
      <trkpt lat="47.238012989982963" lon="6.031955983489752">
        <ele>259.20999999999998</ele>
        <time>2025-04-23T12:19:18Z</time>
      </trkpt>
      <trkpt lat="47.237994968891144" lon="6.03197199292481">
        <ele>259.20999999999998</ele>
        <time>2025-04-23T12:19:19Z</time>
      </trkpt>
      <trkpt lat="47.237994968891144" lon="6.03197199292481">
        <ele>258.73000000000002</ele>
        <time>2025-04-23T12:19:33Z</time>
      </trkpt>
      <trkpt lat="47.237889021635056" lon="6.032065032050014">
        <ele>256.32999999999998</ele>
        <time>2025-04-23T12:19:42Z</time>
      </trkpt>
      <trkpt lat="47.237844010815024" lon="6.032104007899761">
        <ele>255.84999999999999</ele>
        <time>2025-04-23T12:19:43Z</time>
      </trkpt>
      <trkpt lat="47.237796988338232" lon="6.032146001234651">
        <ele>254.88999999999999</ele>
        <time>2025-04-23T12:19:44Z</time>
      </trkpt>
      <trkpt lat="47.237649969756603" lon="6.032193023711443">
        <ele>253.93000000000001</ele>
        <time>2025-04-23T12:19:46Z</time>
      </trkpt>
      <trkpt lat="47.237563971430063" lon="6.032201992347837">
        <ele>253.93000000000001</ele>
        <time>2025-04-23T12:19:47Z</time>
      </trkpt>
      <trkpt lat="47.23669602535665" lon="6.032854020595551">
        <ele>251.52000000000001</ele>
        <time>2025-04-23T12:19:58Z</time>
      </trkpt>
      <trkpt lat="47.235910976305604" lon="6.033317958936095">
        <ele>252.96000000000001</ele>
        <time>2025-04-23T12:20:07Z</time>
      </trkpt>
      <trkpt lat="47.235474027693272" lon="6.033587018027902">
        <ele>252.96000000000001</ele>
        <time>2025-04-23T12:20:13Z</time>
      </trkpt>
      <trkpt lat="47.235389035195112" lon="6.033638985827565">
        <ele>252.96000000000001</ele>
        <time>2025-04-23T12:20:14Z</time>
      </trkpt>
      <trkpt lat="47.235306976363063" lon="6.03369003161788">
        <ele>252.96000000000001</ele>
        <time>2025-04-23T12:20:15Z</time>
      </trkpt>
      <trkpt lat="47.235226007178426" lon="6.033739987760782">
        <ele>252.96000000000001</ele>
        <time>2025-04-23T12:20:16Z</time>
      </trkpt>
      <trkpt lat="47.235145037993789" lon="6.033789021894336">
        <ele>253.44</ele>
        <time>2025-04-23T12:20:17Z</time>
      </trkpt>
      <trkpt lat="47.234604991972446" lon="6.034113988280296">
        <ele>252.47999999999999</ele>
        <time>2025-04-23T12:20:24Z</time>
      </trkpt>
      <trkpt lat="47.234528968110681" lon="6.034158999100328">
        <ele>252.47999999999999</ele>
        <time>2025-04-23T12:20:25Z</time>
      </trkpt>
      <trkpt lat="47.234182041138411" lon="6.034367959946394">
        <ele>252.47999999999999</ele>
        <time>2025-04-23T12:20:30Z</time>
      </trkpt>
      <trkpt lat="47.234130995348096" lon="6.034399978816509">
        <ele>252.47999999999999</ele>
        <time>2025-04-23T12:20:31Z</time>
      </trkpt>
      <trkpt lat="47.2340979706496" lon="6.03442101739347">
        <ele>252.47999999999999</ele>
        <time>2025-04-23T12:20:32Z</time>
      </trkpt>
      <trkpt lat="47.234076010063291" lon="6.034435015171766">
        <ele>252.47999999999999</ele>
        <time>2025-04-23T12:20:33Z</time>
      </trkpt>
      <trkpt lat="47.234057988971472" lon="6.034447001293302">
        <ele>252.96000000000001</ele>
        <time>2025-04-23T12:20:34Z</time>
      </trkpt>
      <trkpt lat="47.234001997858286" lon="6.034348011016846">
        <ele>252.96000000000001</ele>
        <time>2025-04-23T12:20:35Z</time>
      </trkpt>
      <trkpt lat="47.233983976766467" lon="6.034303000196815">
        <ele>252.96000000000001</ele>
        <time>2025-04-23T12:20:36Z</time>
      </trkpt>
      <trkpt lat="47.233847016468644" lon="6.033910978585482">
        <ele>252</ele>
        <time>2025-04-23T12:20:46Z</time>
      </trkpt>
      <trkpt lat="47.233826983720064" lon="6.033869991078973">
        <ele>252</ele>
        <time>2025-04-23T12:20:50Z</time>
      </trkpt>
      <trkpt lat="47.233809968456626" lon="6.033835960552096">
        <ele>251.52000000000001</ele>
        <time>2025-04-23T12:20:51Z</time>
      </trkpt>
      <trkpt lat="47.233809968456626" lon="6.033835960552096">
        <ele>251.03999999999999</ele>
        <time>2025-04-23T12:21:03Z</time>
      </trkpt>
      <trkpt lat="47.233788007870317" lon="6.033792039379478">
        <ele>250.56</ele>
        <time>2025-04-23T12:21:05Z</time>
      </trkpt>
      <trkpt lat="47.233789013698697" lon="6.033794973045588">
        <ele>250.08000000000001</ele>
        <time>2025-04-23T12:21:06Z</time>
      </trkpt>
      <trkpt lat="47.233851961791515" lon="6.033639991655946">
        <ele>249.59999999999999</ele>
        <time>2025-04-23T12:21:07Z</time>
      </trkpt>
      <trkpt lat="47.233890015631914" lon="6.033613001927733">
        <ele>249.12</ele>
        <time>2025-04-23T12:21:08Z</time>
      </trkpt>
      <trkpt lat="47.233952041715384" lon="6.033568996936083">
        <ele>248.16</ele>
        <time>2025-04-23T12:21:09Z</time>
      </trkpt>
      <trkpt lat="47.23409503698349" lon="6.033467995002866">
        <ele>247.19999999999999</ele>
        <time>2025-04-23T12:21:11Z</time>
      </trkpt>
      <trkpt lat="47.234215987846255" lon="6.033381996676326">
        <ele>246.22999999999999</ele>
        <time>2025-04-23T12:21:12Z</time>
      </trkpt>
      <trkpt lat="47.2343759983778" lon="6.033239001408219">
        <ele>244.78999999999999</ele>
        <time>2025-04-23T12:21:15Z</time>
      </trkpt>
      <trkpt lat="47.234502984210849" lon="6.033106986433268">
        <ele>243.83000000000001</ele>
        <time>2025-04-23T12:21:17Z</time>
      </trkpt>
      <trkpt lat="47.234554030001163" lon="6.033048983663321">
        <ele>243.83000000000001</ele>
        <time>2025-04-23T12:21:18Z</time>
      </trkpt>
      <trkpt lat="47.234599040821195" lon="6.032972959801555">
        <ele>243.34999999999999</ele>
        <time>2025-04-23T12:21:19Z</time>
      </trkpt>
      <trkpt lat="47.234624018892646" lon="6.032910011708736">
        <ele>242.87</ele>
        <time>2025-04-23T12:21:20Z</time>
      </trkpt>
      <trkpt lat="47.234651008620858" lon="6.032843040302396">
        <ele>242.38999999999999</ele>
        <time>2025-04-23T12:21:21Z</time>
      </trkpt>
      <trkpt lat="47.234683027490973" lon="6.032763998955488">
        <ele>242.38999999999999</ele>
        <time>2025-04-23T12:21:22Z</time>
      </trkpt>
      <trkpt lat="47.234751004725695" lon="6.032584961503744">
        <ele>242.38999999999999</ele>
        <time>2025-04-23T12:21:24Z</time>
      </trkpt>
      <trkpt lat="47.235117964446545" lon="6.031814999878407">
        <ele>239.50999999999999</ele>
        <time>2025-04-23T12:21:34Z</time>
      </trkpt>
      <trkpt lat="47.235153000801802" lon="6.031763032078743">
        <ele>239.50999999999999</ele>
        <time>2025-04-23T12:21:35Z</time>
      </trkpt>
      <trkpt lat="47.235184013843536" lon="6.031716009601951">
        <ele>239.02000000000001</ele>
        <time>2025-04-23T12:21:36Z</time>
      </trkpt>
      <trkpt lat="47.235211003571749" lon="6.031676027923822">
        <ele>238.53999999999999</ele>
        <time>2025-04-23T12:21:37Z</time>
      </trkpt>
      <trkpt lat="47.2352359816432" lon="6.031637974083424">
        <ele>238.06</ele>
        <time>2025-04-23T12:21:38Z</time>
      </trkpt>
      <trkpt lat="47.235260959714651" lon="6.031600004062057">
        <ele>237.58000000000001</ele>
        <time>2025-04-23T12:21:39Z</time>
      </trkpt>
      <trkpt lat="47.235290966928005" lon="6.031557004898787">
        <ele>237.09999999999999</ele>
        <time>2025-04-23T12:21:40Z</time>
      </trkpt>
      <trkpt lat="47.235289039090276" lon="6.031559016555548">
        <ele>237.09999999999999</ele>
        <time>2025-04-23T12:21:41Z</time>
      </trkpt>
      <trkpt lat="47.235289039090276" lon="6.031450973823667">
        <ele>236.62</ele>
        <time>2025-04-23T12:21:42Z</time>
      </trkpt>
      <trkpt lat="47.235284009948373" lon="6.031434964388609">
        <ele>236.13999999999999</ele>
        <time>2025-04-23T12:21:43Z</time>
      </trkpt>
      <trkpt lat="47.23525601439178" lon="6.031342009082437">
        <ele>235.66</ele>
        <time>2025-04-23T12:21:44Z</time>
      </trkpt>
      <trkpt lat="47.235227013006806" lon="6.031246036291122">
        <ele>235.18000000000001</ele>
        <time>2025-04-23T12:21:45Z</time>
      </trkpt>
      <trkpt lat="47.235199017450213" lon="6.031154002994299">
        <ele>234.69999999999999</ele>
        <time>2025-04-23T12:21:46Z</time>
      </trkpt>
      <trkpt lat="47.235143026337028" lon="6.030969014391303">
        <ele>234.69999999999999</ele>
        <time>2025-04-23T12:21:48Z</time>
      </trkpt>
      <trkpt lat="47.235114024952054" lon="6.030874969437718">
        <ele>234.22</ele>
        <time>2025-04-23T12:21:49Z</time>
      </trkpt>
      <trkpt lat="47.235074965283275" lon="6.030743038281798">
        <ele>233.74000000000001</ele>
        <time>2025-04-23T12:21:50Z</time>
      </trkpt>
      <trkpt lat="47.235070019960403" lon="6.030676988884807">
        <ele>233.74000000000001</ele>
        <time>2025-04-23T12:21:51Z</time>
      </trkpt>
      <trkpt lat="47.23506398499012" lon="6.030590990558267">
        <ele>233.25999999999999</ele>
        <time>2025-04-23T12:21:52Z</time>
      </trkpt>
      <trkpt lat="47.235059039667249" lon="6.030514966696501">
        <ele>233.25999999999999</ele>
        <time>2025-04-23T12:21:53Z</time>
      </trkpt>
      <trkpt lat="47.235055016353726" lon="6.030445983633399">
        <ele>232.78</ele>
        <time>2025-04-23T12:21:54Z</time>
      </trkpt>
      <trkpt lat="47.235050993040204" lon="6.030390998348594">
        <ele>232.30000000000001</ele>
        <time>2025-04-23T12:21:55Z</time>
      </trkpt>
      <trkpt lat="47.235047975555062" lon="6.030344981700182">
        <ele>232.30000000000001</ele>
        <time>2025-04-23T12:21:56Z</time>
      </trkpt>
      <trkpt lat="47.235045963898301" lon="6.030314974486828">
        <ele>231.81</ele>
        <time>2025-04-23T12:21:57Z</time>
      </trkpt>
      <trkpt lat="47.234931970015168" lon="6.030184971168637">
        <ele>231.81</ele>
        <time>2025-04-23T12:21:58Z</time>
      </trkpt>
      <trkpt lat="47.234881008043885" lon="6.030227970331907">
        <ele>231.81</ele>
        <time>2025-04-23T12:21:59Z</time>
      </trkpt>
      <trkpt lat="47.234846977517009" lon="6.030262000858784">
        <ele>231.81</ele>
        <time>2025-04-23T12:22:00Z</time>
      </trkpt>
      <trkpt lat="47.2348059900105" lon="6.030303994193673">
        <ele>231.81</ele>
        <time>2025-04-23T12:22:01Z</time>
      </trkpt>
      <trkpt lat="47.23476299084723" lon="6.030346993356943">
        <ele>231.33000000000001</ele>
        <time>2025-04-23T12:22:02Z</time>
      </trkpt>
      <trkpt lat="47.234717980027199" lon="6.030392004176974">
        <ele>231.33000000000001</ele>
        <time>2025-04-23T12:22:03Z</time>
      </trkpt>
      <trkpt lat="47.234710017219186" lon="6.030399966984987">
        <ele>231.33000000000001</ele>
        <time>2025-04-23T12:22:04Z</time>
      </trkpt>
      <trkpt lat="47.234634999185801" lon="6.030399966984987">
        <ele>231.33000000000001</ele>
        <time>2025-04-23T12:22:05Z</time>
      </trkpt>
      <trkpt lat="47.234602980315685" lon="6.030399966984987">
        <ele>231.33000000000001</ele>
        <time>2025-04-23T12:22:06Z</time>
      </trkpt>
      <trkpt lat="47.234572973102331" lon="6.03036199696362">
        <ele>230.84999999999999</ele>
        <time>2025-04-23T12:22:07Z</time>
      </trkpt>
      <trkpt lat="47.234532991424203" lon="6.030312962830067">
        <ele>230.84999999999999</ele>
        <time>2025-04-23T12:22:08Z</time>
      </trkpt>
      <trkpt lat="47.234516981989145" lon="6.030293013900518">
        <ele>230.37</ele>
        <time>2025-04-23T12:22:10Z</time>
      </trkpt>
      <trkpt lat="47.234412040561438" lon="6.030053040012717">
        <ele>230.84999999999999</ele>
        <time>2025-04-23T12:22:14Z</time>
      </trkpt>
      <trkpt lat="47.234366023913026" lon="6.029949020594358">
        <ele>230.84999999999999</ele>
        <time>2025-04-23T12:22:15Z</time>
      </trkpt>
      <trkpt lat="47.234366023913026" lon="6.029949020594358">
        <ele>231.81</ele>
        <time>2025-04-23T12:22:16Z</time>
      </trkpt>
      <trkpt lat="47.23443903028965" lon="6.029839972034097">
        <ele>232.30000000000001</ele>
        <time>2025-04-23T12:22:18Z</time>
      </trkpt>
      <trkpt lat="47.234479011967778" lon="6.02978004142642">
        <ele>232.78</ele>
        <time>2025-04-23T12:22:19Z</time>
      </trkpt>
      <trkpt lat="47.234642039984465" lon="6.02950100786984">
        <ele>233.25999999999999</ele>
        <time>2025-04-23T12:22:28Z</time>
      </trkpt>
      <trkpt lat="47.234667018055916" lon="6.029455997049809">
        <ele>233.25999999999999</ele>
        <time>2025-04-23T12:22:36Z</time>
      </trkpt>
      <trkpt lat="47.234843038022518" lon="6.02960703894496">
        <ele>231.81</ele>
        <time>2025-04-23T12:22:40Z</time>
      </trkpt>
      <trkpt lat="47.235031966120005" lon="6.02990903891623">
        <ele>232.30000000000001</ele>
        <time>2025-04-23T12:22:52Z</time>
      </trkpt>
      <trkpt lat="47.235031966120005" lon="6.02990903891623">
        <ele>232.30000000000001</ele>
        <time>2025-04-23T12:23:11Z</time>
      </trkpt>
      <trkpt lat="47.235031966120005" lon="6.029942985624075">
        <ele>232.30000000000001</ele>
        <time>2025-04-23T12:23:20Z</time>
      </trkpt>
      <trkpt lat="47.234933981671929" lon="6.030182959511876">
        <ele>232.30000000000001</ele>
        <time>2025-04-23T12:23:25Z</time>
      </trkpt>
      <trkpt lat="47.234790986403823" lon="6.03031899780035">
        <ele>232.78</ele>
        <time>2025-04-23T12:23:28Z</time>
      </trkpt>
      <trkpt lat="47.234710017219186" lon="6.030399966984987">
        <ele>232.78</ele>
        <time>2025-04-23T12:23:29Z</time>
      </trkpt>
      <trkpt lat="47.234642961993814" lon="6.030399966984987">
        <ele>232.78</ele>
        <time>2025-04-23T12:23:30Z</time>
      </trkpt>
      <trkpt lat="47.234543971717358" lon="6.030326960608363">
        <ele>232.78</ele>
        <time>2025-04-23T12:23:31Z</time>
      </trkpt>
      <trkpt lat="47.234516981989145" lon="6.030293013900518">
        <ele>232.30000000000001</ele>
        <time>2025-04-23T12:23:32Z</time>
      </trkpt>
      <trkpt lat="47.234469959512353" lon="6.030184971168637">
        <ele>232.30000000000001</ele>
        <time>2025-04-23T12:23:33Z</time>
      </trkpt>
      <trkpt lat="47.23444196395576" lon="6.030121017247438">
        <ele>231.33000000000001</ele>
        <time>2025-04-23T12:23:39Z</time>
      </trkpt>
      <trkpt lat="47.234424026682973" lon="6.03008103556931">
        <ele>232.78</ele>
        <time>2025-04-23T12:23:45Z</time>
      </trkpt>
      <trkpt lat="47.234408017247915" lon="6.030042981728911">
        <ele>233.74000000000001</ele>
        <time>2025-04-23T12:23:46Z</time>
      </trkpt>
      <trkpt lat="47.234367029741406" lon="6.029948014765978">
        <ele>234.22</ele>
        <time>2025-04-23T12:23:47Z</time>
      </trkpt>
      <trkpt lat="47.234619995579123" lon="6.029541995376349">
        <ele>236.13999999999999</ele>
        <time>2025-04-23T12:24:01Z</time>
      </trkpt>
      <trkpt lat="47.234667018055916" lon="6.029455997049809">
        <ele>238.53999999999999</ele>
        <time>2025-04-23T12:24:15Z</time>
      </trkpt>
      <trkpt lat="47.234667018055916" lon="6.029455997049809">
        <ele>238.53999999999999</ele>
        <time>2025-04-23T12:24:32Z</time>
      </trkpt>
      <trkpt lat="47.234915038570762" lon="6.029469994828105">
        <ele>261.13999999999999</ele>
        <time>2025-04-23T13:11:33Z</time>
      </trkpt>
      <trkpt lat="47.234911015257239" lon="6.029476029798389">
        <ele>261.13999999999999</ele>
        <time>2025-04-23T13:12:31Z</time>
      </trkpt>
      <trkpt lat="47.234911015257239" lon="6.029464965686202">
        <ele>262.10000000000002</ele>
        <time>2025-04-23T13:13:23Z</time>
      </trkpt>
      <trkpt lat="47.234920989722013" lon="6.029454991221428">
        <ele>262.57999999999998</ele>
        <time>2025-04-23T13:14:02Z</time>
      </trkpt>
      <trkpt lat="47.234910009428859" lon="6.029457002878189">
        <ele>263.54000000000002</ele>
        <time>2025-04-23T13:14:52Z</time>
      </trkpt>
      <trkpt lat="47.234913026914001" lon="6.029451973736286">
        <ele>264.01999999999998</ele>
        <time>2025-04-23T13:15:46Z</time>
      </trkpt>
      <trkpt lat="47.234918978065252" lon="6.02945901453495">
        <ele>264.01999999999998</ele>
        <time>2025-04-23T13:16:30Z</time>
      </trkpt>
      <trkpt lat="47.23491202108562" lon="6.029460020363331">
        <ele>264.98000000000002</ele>
        <time>2025-04-23T13:17:58Z</time>
      </trkpt>
      <trkpt lat="47.23491202108562" lon="6.029460020363331">
        <ele>264.98000000000002</ele>
        <time>2025-04-23T13:18:33Z</time>
      </trkpt>
      <trkpt lat="47.234893999993801" lon="6.029536966234446">
        <ele>265.45999999999998</ele>
        <time>2025-04-23T13:18:36Z</time>
      </trkpt>
      <trkpt lat="47.234917972236872" lon="6.029578959569335">
        <ele>265.45999999999998</ele>
        <time>2025-04-23T13:18:37Z</time>
      </trkpt>
      <trkpt lat="47.234945967793465" lon="6.029627993702889">
        <ele>265.45999999999998</ele>
        <time>2025-04-23T13:18:38Z</time>
      </trkpt>
      <trkpt lat="47.234975975006819" lon="6.029679961502552">
        <ele>265.45999999999998</ele>
        <time>2025-04-23T13:18:39Z</time>
      </trkpt>
      <trkpt lat="47.235005982220173" lon="6.029732013121247">
        <ele>265.45999999999998</ele>
        <time>2025-04-23T13:18:40Z</time>
      </trkpt>
      <trkpt lat="47.235031966120005" lon="6.029778029769659">
        <ele>265.45999999999998</ele>
        <time>2025-04-23T13:18:42Z</time>
      </trkpt>
      <trkpt lat="47.235031966120005" lon="6.029884982854128">
        <ele>265.94</ele>
        <time>2025-04-23T13:18:43Z</time>
      </trkpt>
      <trkpt lat="47.235031966120005" lon="6.029958995059133">
        <ele>265.45999999999998</ele>
        <time>2025-04-23T13:18:44Z</time>
      </trkpt>
      <trkpt lat="47.235031966120005" lon="6.030024960637093">
        <ele>265.45999999999998</ele>
        <time>2025-04-23T13:18:45Z</time>
      </trkpt>
      <trkpt lat="47.235031966120005" lon="6.030071983113885">
        <ele>265.45999999999998</ele>
        <time>2025-04-23T13:18:46Z</time>
      </trkpt>
      <trkpt lat="47.23512701690197" lon="6.03008002974093">
        <ele>265.45999999999998</ele>
        <time>2025-04-23T13:18:47Z</time>
      </trkpt>
      <trkpt lat="47.235139003023505" lon="6.030078018084168">
        <ele>264.98000000000002</ele>
        <time>2025-04-23T13:18:48Z</time>
      </trkpt>
      <trkpt lat="47.235179990530014" lon="6.030047005042434">
        <ele>264.98000000000002</ele>
        <time>2025-04-23T13:18:49Z</time>
      </trkpt>
      <trkpt lat="47.235229024663568" lon="6.030009035021067">
        <ele>264.98000000000002</ele>
        <time>2025-04-23T13:18:50Z</time>
      </trkpt>
      <trkpt lat="47.235280992463231" lon="6.029968969523907">
        <ele>264.5</ele>
        <time>2025-04-23T13:18:51Z</time>
      </trkpt>
      <trkpt lat="47.235330026596785" lon="6.02993200533092">
        <ele>264.5</ele>
        <time>2025-04-23T13:18:52Z</time>
      </trkpt>
      <trkpt lat="47.235377971082926" lon="6.029895963147283">
        <ele>264.5</ele>
        <time>2025-04-23T13:18:53Z</time>
      </trkpt>
      <trkpt lat="47.235503029078245" lon="6.029799990355969">
        <ele>263.54000000000002</ele>
        <time>2025-04-23T13:18:56Z</time>
      </trkpt>
      <trkpt lat="47.235551979392767" lon="6.029749028384686">
        <ele>263.06</ele>
        <time>2025-04-23T13:18:57Z</time>
      </trkpt>
      <trkpt lat="47.235603025183082" lon="6.02969697676599">
        <ele>262.57999999999998</ele>
        <time>2025-04-23T13:18:58Z</time>
      </trkpt>
      <trkpt lat="47.235768986865878" lon="6.02952397428453">
        <ele>261.13999999999999</ele>
        <time>2025-04-23T13:19:01Z</time>
      </trkpt>
      <trkpt lat="47.236046008765697" lon="6.029236977919936">
        <ele>259.20999999999998</ele>
        <time>2025-04-23T13:19:06Z</time>
      </trkpt>
      <trkpt lat="47.236082972958684" lon="6.029198002070189">
        <ele>259.20999999999998</ele>
        <time>2025-04-23T13:19:07Z</time>
      </trkpt>
      <trkpt lat="47.236123038455844" lon="6.02922398597002">
        <ele>259.20999999999998</ele>
        <time>2025-04-23T13:19:08Z</time>
      </trkpt>
      <trkpt lat="47.23615899682045" lon="6.029248964041472">
        <ele>259.20999999999998</ele>
        <time>2025-04-23T13:19:09Z</time>
      </trkpt>
      <trkpt lat="47.236192021518946" lon="6.029271008446813">
        <ele>259.20999999999998</ele>
        <time>2025-04-23T13:19:10Z</time>
      </trkpt>
      <trkpt lat="47.236206019297242" lon="6.029313001781702">
        <ele>259.20999999999998</ele>
        <time>2025-04-23T13:19:11Z</time>
      </trkpt>
      <trkpt lat="47.236193027347326" lon="6.029371004551649">
        <ele>259.20999999999998</ele>
        <time>2025-04-23T13:19:12Z</time>
      </trkpt>
      <trkpt lat="47.23617902956903" lon="6.029435964301229">
        <ele>258.73000000000002</ele>
        <time>2025-04-23T13:19:13Z</time>
      </trkpt>
      <trkpt lat="47.236164025962353" lon="6.029506959021092">
        <ele>258.73000000000002</ele>
        <time>2025-04-23T13:19:14Z</time>
      </trkpt>
      <trkpt lat="47.236148016527295" lon="6.029581977054477">
        <ele>258.73000000000002</ele>
        <time>2025-04-23T13:19:15Z</time>
      </trkpt>
      <trkpt lat="47.23611599765718" lon="6.029733018949628">
        <ele>258.73000000000002</ele>
        <time>2025-04-23T13:19:17Z</time>
      </trkpt>
      <trkpt lat="47.236099988222122" lon="6.029807031154633">
        <ele>259.20999999999998</ele>
        <time>2025-04-23T13:19:18Z</time>
      </trkpt>
      <trkpt lat="47.236081967130303" lon="6.02988800033927">
        <ele>259.20999999999998</ele>
        <time>2025-04-23T13:19:19Z</time>
      </trkpt>
      <trkpt lat="47.235993035137653" lon="6.030228976160288">
        <ele>259.20999999999998</ele>
        <time>2025-04-23T13:19:23Z</time>
      </trkpt>
      <trkpt lat="47.235970990732312" lon="6.030309023335576">
        <ele>259.20999999999998</ele>
        <time>2025-04-23T13:19:24Z</time>
      </trkpt>
      <trkpt lat="47.23590100184083" lon="6.03057598695159">
        <ele>259.69</ele>
        <time>2025-04-23T13:19:27Z</time>
      </trkpt>
      <trkpt lat="47.235847022384405" lon="6.03074798360467">
        <ele>260.17000000000002</ele>
        <time>2025-04-23T13:19:29Z</time>
      </trkpt>
      <trkpt lat="47.235807962715626" lon="6.03083498775959">
        <ele>260.17000000000002</ele>
        <time>2025-04-23T13:19:30Z</time>
      </trkpt>
      <trkpt lat="47.235770998522639" lon="6.030916040763259">
        <ele>260.17000000000002</ele>
        <time>2025-04-23T13:19:31Z</time>
      </trkpt>
      <trkpt lat="47.235734034329653" lon="6.030999021604657">
        <ele>260.17000000000002</ele>
        <time>2025-04-23T13:19:32Z</time>
      </trkpt>
      <trkpt lat="47.235696986317635" lon="6.031082002446055">
        <ele>259.69</ele>
        <time>2025-04-23T13:19:33Z</time>
      </trkpt>
      <trkpt lat="47.23564401268959" lon="6.031164983287454">
        <ele>259.69</ele>
        <time>2025-04-23T13:19:34Z</time>
      </trkpt>
      <trkpt lat="47.235289039090276" lon="6.031559016555548">
        <ele>258.25</ele>
        <time>2025-04-23T13:19:40Z</time>
      </trkpt>
      <trkpt lat="47.235289039090276" lon="6.031559016555548">
        <ele>258.25</ele>
        <time>2025-04-23T13:19:41Z</time>
      </trkpt>
      <trkpt lat="47.235269006341696" lon="6.031589023768902">
        <ele>258.25</ele>
        <time>2025-04-23T13:19:42Z</time>
      </trkpt>
      <trkpt lat="47.235248973593116" lon="6.031619030982256">
        <ele>258.25</ele>
        <time>2025-04-23T13:19:43Z</time>
      </trkpt>
      <trkpt lat="47.235222989693284" lon="6.031658006832004">
        <ele>258.25</ele>
        <time>2025-04-23T13:19:44Z</time>
      </trkpt>
      <trkpt lat="47.235183008015156" lon="6.031718021258712">
        <ele>259.20999999999998</ele>
        <time>2025-04-23T13:19:45Z</time>
      </trkpt>
      <trkpt lat="47.235136991366744" lon="6.031787004321814">
        <ele>259.69</ele>
        <time>2025-04-23T13:19:46Z</time>
      </trkpt>
      <trkpt lat="47.234773971140385" lon="6.032524025067687">
        <ele>261.13999999999999</ele>
        <time>2025-04-23T13:19:57Z</time>
      </trkpt>
      <trkpt lat="47.234670035541058" lon="6.032794006168842">
        <ele>261.13999999999999</ele>
        <time>2025-04-23T13:20:01Z</time>
      </trkpt>
      <trkpt lat="47.234638016670942" lon="6.032874975353479">
        <ele>261.13999999999999</ele>
        <time>2025-04-23T13:20:02Z</time>
      </trkpt>
      <trkpt lat="47.234607003629208" lon="6.032952005043626">
        <ele>261.13999999999999</ele>
        <time>2025-04-23T13:20:03Z</time>
      </trkpt>
      <trkpt lat="47.234502984210849" lon="6.033106986433268">
        <ele>259.20999999999998</ele>
        <time>2025-04-23T13:20:05Z</time>
      </trkpt>
      <trkpt lat="47.234469959512353" lon="6.033145040273666">
        <ele>258.25</ele>
        <time>2025-04-23T13:20:06Z</time>
      </trkpt>
      <trkpt lat="47.23435596562922" lon="6.033257022500038">
        <ele>256.81</ele>
        <time>2025-04-23T13:20:10Z</time>
      </trkpt>
      <trkpt lat="47.234317995607853" lon="6.033290969207883">
        <ele>256.32999999999998</ele>
        <time>2025-04-23T13:20:11Z</time>
      </trkpt>
      <trkpt lat="47.234080033376813" lon="6.033478975296021">
        <ele>254.88999999999999</ele>
        <time>2025-04-23T13:20:16Z</time>
      </trkpt>
      <trkpt lat="47.233752971515059" lon="6.033699000254273">
        <ele>252</ele>
        <time>2025-04-23T13:20:25Z</time>
      </trkpt>
      <trkpt lat="47.233744002878666" lon="6.033704029396176">
        <ele>249.12</ele>
        <time>2025-04-23T13:20:29Z</time>
      </trkpt>
      <trkpt lat="47.233744002878666" lon="6.033704029396176">
        <ele>247.68000000000001</ele>
        <time>2025-04-23T13:20:42Z</time>
      </trkpt>
      <trkpt lat="47.233744002878666" lon="6.033704029396176">
        <ele>249.12</ele>
        <time>2025-04-23T13:21:33Z</time>
      </trkpt>
      <trkpt lat="47.233744002878666" lon="6.033704029396176">
        <ele>248.16</ele>
        <time>2025-04-23T13:22:05Z</time>
      </trkpt>
      <trkpt lat="47.233851961791515" lon="6.033919025212526">
        <ele>245.75</ele>
        <time>2025-04-23T13:22:10Z</time>
      </trkpt>
      <trkpt lat="47.233850033953786" lon="6.033915001899004">
        <ele>246.22999999999999</ele>
        <time>2025-04-23T13:22:11Z</time>
      </trkpt>
      <trkpt lat="47.233870988711715" lon="6.033982979133725">
        <ele>246.22999999999999</ele>
        <time>2025-04-23T13:22:12Z</time>
      </trkpt>
      <trkpt lat="47.233949024230242" lon="6.034217001870275">
        <ele>246.72</ele>
        <time>2025-04-23T13:22:15Z</time>
      </trkpt>
      <trkpt lat="47.233991017565131" lon="6.034322027117014">
        <ele>246.72</ele>
        <time>2025-04-23T13:22:17Z</time>
      </trkpt>
      <trkpt lat="47.233984982594848" lon="6.034496035426855">
        <ele>246.72</ele>
        <time>2025-04-23T13:22:18Z</time>
      </trkpt>
      <trkpt lat="47.233834024518728" lon="6.034599971026182">
        <ele>246.72</ele>
        <time>2025-04-23T13:22:27Z</time>
      </trkpt>
      <trkpt lat="47.233701003715396" lon="6.034690998494625">
        <ele>246.72</ele>
        <time>2025-04-23T13:22:29Z</time>
      </trkpt>
      <trkpt lat="47.233607964590192" lon="6.034729974344373">
        <ele>246.72</ele>
        <time>2025-04-23T13:22:30Z</time>
      </trkpt>
      <trkpt lat="47.233528001233935" lon="6.034764004871249">
        <ele>246.72</ele>
        <time>2025-04-23T13:22:31Z</time>
      </trkpt>
      <trkpt lat="47.233444014564157" lon="6.034799041226506">
        <ele>246.72</ele>
        <time>2025-04-23T13:22:32Z</time>
      </trkpt>
      <trkpt lat="47.233373019844294" lon="6.034833993762732">
        <ele>246.72</ele>
        <time>2025-04-23T13:22:33Z</time>
      </trkpt>
      <trkpt lat="47.232985021546483" lon="6.034953016787767">
        <ele>246.22999999999999</ele>
        <time>2025-04-23T13:22:38Z</time>
      </trkpt>
      <trkpt lat="47.232929030433297" lon="6.035077990964055">
        <ele>246.22999999999999</ele>
        <time>2025-04-23T13:22:39Z</time>
      </trkpt>
      <trkpt lat="47.232887959107757" lon="6.035125013440847">
        <ele>246.22999999999999</ele>
        <time>2025-04-23T13:22:40Z</time>
      </trkpt>
      <trkpt lat="47.232830040156841" lon="6.035191984847188">
        <ele>246.72</ele>
        <time>2025-04-23T13:22:41Z</time>
      </trkpt>
      <trkpt lat="47.23276399075985" lon="6.035268008708954">
        <ele>246.22999999999999</ele>
        <time>2025-04-23T13:22:42Z</time>
      </trkpt>
      <trkpt lat="47.232688972726464" lon="6.035354007035494">
        <ele>246.22999999999999</ele>
        <time>2025-04-23T13:22:43Z</time>
      </trkpt>
      <trkpt lat="47.232597023248672" lon="6.035434976220131">
        <ele>246.22999999999999</ele>
        <time>2025-04-23T13:22:44Z</time>
      </trkpt>
      <trkpt lat="47.232312960550189" lon="6.035618958994746">
        <ele>246.22999999999999</ele>
        <time>2025-04-23T13:22:47Z</time>
      </trkpt>
      <trkpt lat="47.232196033000946" lon="6.035675033926964">
        <ele>246.22999999999999</ele>
        <time>2025-04-23T13:22:48Z</time>
      </trkpt>
      <trkpt lat="47.232092013582587" lon="6.035658018663526">
        <ele>246.22999999999999</ele>
        <time>2025-04-23T13:22:49Z</time>
      </trkpt>
      <trkpt lat="47.231992017477751" lon="6.035642009228468">
        <ele>246.22999999999999</ele>
        <time>2025-04-23T13:22:50Z</time>
      </trkpt>
      <trkpt lat="47.231897972524166" lon="6.035627005621791">
        <ele>246.22999999999999</ele>
        <time>2025-04-23T13:22:51Z</time>
      </trkpt>
      <trkpt lat="47.231812980026007" lon="6.035614013671875">
        <ele>246.72</ele>
        <time>2025-04-23T13:22:52Z</time>
      </trkpt>
      <trkpt lat="47.231728993356228" lon="6.035614013671875">
        <ele>246.72</ele>
        <time>2025-04-23T13:22:53Z</time>
      </trkpt>
      <trkpt lat="47.231653975322843" lon="6.035643015056849">
        <ele>247.19999999999999</ele>
        <time>2025-04-23T13:22:54Z</time>
      </trkpt>
      <trkpt lat="47.231572000309825" lon="6.035686014220119">
        <ele>247.19999999999999</ele>
        <time>2025-04-23T13:22:55Z</time>
      </trkpt>
      <trkpt lat="47.231483990326524" lon="6.035737982019782">
        <ele>247.19999999999999</ele>
        <time>2025-04-23T13:22:56Z</time>
      </trkpt>
      <trkpt lat="47.231401009485126" lon="6.035790033638477">
        <ele>247.19999999999999</ele>
        <time>2025-04-23T13:22:57Z</time>
      </trkpt>
      <trkpt lat="47.230898011475801" lon="6.03624701499939">
        <ele>247.19999999999999</ele>
        <time>2025-04-23T13:23:03Z</time>
      </trkpt>
      <trkpt lat="47.230441030114889" lon="6.03663400746882">
        <ele>247.19999999999999</ele>
        <time>2025-04-23T13:23:08Z</time>
      </trkpt>
      <trkpt lat="47.230351008474827" lon="6.036707013845444">
        <ele>247.19999999999999</ele>
        <time>2025-04-23T13:23:09Z</time>
      </trkpt>
      <trkpt lat="47.230265010148287" lon="6.036779014393687">
        <ele>247.19999999999999</ele>
        <time>2025-04-23T13:23:10Z</time>
      </trkpt>
      <trkpt lat="47.230174988508224" lon="6.036859983578324">
        <ele>247.19999999999999</ele>
        <time>2025-04-23T13:23:11Z</time>
      </trkpt>
      <trkpt lat="47.230085972696543" lon="6.036941036581993">
        <ele>247.19999999999999</ele>
        <time>2025-04-23T13:23:12Z</time>
      </trkpt>
      <trkpt lat="47.229997962713242" lon="6.03702200576663">
        <ele>246.72</ele>
        <time>2025-04-23T13:23:13Z</time>
      </trkpt>
      <trkpt lat="47.229909030720592" lon="6.037104986608028">
        <ele>246.72</ele>
        <time>2025-04-23T13:23:14Z</time>
      </trkpt>
      <trkpt lat="47.228891970589757" lon="6.03801098652184">
        <ele>248.16</ele>
        <time>2025-04-23T13:23:25Z</time>
      </trkpt>
      <trkpt lat="47.228711005300283" lon="6.03813897818327">
        <ele>249.59999999999999</ele>
        <time>2025-04-23T13:23:27Z</time>
      </trkpt>
      <trkpt lat="47.22857303917408" lon="6.038232017308474">
        <ele>251.52000000000001</ele>
        <time>2025-04-23T13:23:29Z</time>
      </trkpt>
      <trkpt lat="47.228433983400464" lon="6.038266969844699">
        <ele>252</ele>
        <time>2025-04-23T13:23:30Z</time>
      </trkpt>
      <trkpt lat="47.228325018659234" lon="6.038293959572911">
        <ele>252.96000000000001</ele>
        <time>2025-04-23T13:23:31Z</time>
      </trkpt>
      <trkpt lat="47.227815985679626" lon="6.038409965112805">
        <ele>255.84999999999999</ele>
        <time>2025-04-23T13:23:36Z</time>
      </trkpt>
      <trkpt lat="47.227747002616525" lon="6.038489006459713">
        <ele>256.32999999999998</ele>
        <time>2025-04-23T13:23:37Z</time>
      </trkpt>
      <trkpt lat="47.227682964876294" lon="6.038563018664718">
        <ele>256.81</ele>
        <time>2025-04-23T13:23:38Z</time>
      </trkpt>
      <trkpt lat="47.227624040096998" lon="6.038629990071058">
        <ele>257.29000000000002</ele>
        <time>2025-04-23T13:23:39Z</time>
      </trkpt>
      <trkpt lat="47.227575005963445" lon="6.038685981184244">
        <ele>258.25</ele>
        <time>2025-04-23T13:23:40Z</time>
      </trkpt>
      <trkpt lat="47.227541981264949" lon="6.038723029196262">
        <ele>258.73000000000002</ele>
        <time>2025-04-23T13:23:41Z</time>
      </trkpt>
      <trkpt lat="47.22752102650702" lon="6.038747001439333">
        <ele>259.20999999999998</ele>
        <time>2025-04-23T13:23:42Z</time>
      </trkpt>
      <trkpt lat="47.22752102650702" lon="6.038747001439333">
        <ele>260.17000000000002</ele>
        <time>2025-04-23T13:23:44Z</time>
      </trkpt>
      <trkpt lat="47.227479033172131" lon="6.038653962314129">
        <ele>260.64999999999998</ele>
        <time>2025-04-23T13:23:45Z</time>
      </trkpt>
      <trkpt lat="47.227463023737073" lon="6.038621021434665">
        <ele>260.64999999999998</ele>
        <time>2025-04-23T13:23:46Z</time>
      </trkpt>
      <trkpt lat="47.227393034845591" lon="6.038467967882752">
        <ele>261.13999999999999</ele>
        <time>2025-04-23T13:23:47Z</time>
      </trkpt>
      <trkpt lat="47.227393034845591" lon="6.038466040045023">
        <ele>261.62</ele>
        <time>2025-04-23T13:23:48Z</time>
      </trkpt>
      <trkpt lat="47.227409966289997" lon="6.038381969556212">
        <ele>262.10000000000002</ele>
        <time>2025-04-23T13:23:49Z</time>
      </trkpt>
      <trkpt lat="47.227542987093329" lon="6.038279039785266">
        <ele>262.57999999999998</ele>
        <time>2025-04-23T13:23:50Z</time>
      </trkpt>
      <trkpt lat="47.227600989863276" lon="6.038242997601628">
        <ele>263.06</ele>
        <time>2025-04-23T13:23:51Z</time>
      </trkpt>
      <trkpt lat="47.227768963202834" lon="6.038136966526508">
        <ele>264.98000000000002</ele>
        <time>2025-04-23T13:23:54Z</time>
      </trkpt>
      <trkpt lat="47.227815985679626" lon="6.038106959313154">
        <ele>265.45999999999998</ele>
        <time>2025-04-23T13:23:55Z</time>
      </trkpt>
      <trkpt lat="47.227842975407839" lon="6.038038982078433">
        <ele>266.42000000000002</ele>
        <time>2025-04-23T13:23:56Z</time>
      </trkpt>
      <trkpt lat="47.227828977629542" lon="6.037936974316835">
        <ele>267.38</ele>
        <time>2025-04-23T13:23:57Z</time>
      </trkpt>
      <trkpt lat="47.22782202064991" lon="6.037889029830694">
        <ele>268.35000000000002</ele>
        <time>2025-04-23T13:23:58Z</time>
      </trkpt>
      <trkpt lat="47.22782202064991" lon="6.037889029830694">
        <ele>269.31</ele>
        <time>2025-04-23T13:23:59Z</time>
      </trkpt>
      <trkpt lat="47.22782202064991" lon="6.037889029830694">
        <ele>270.75</ele>
        <time>2025-04-23T13:24:01Z</time>
      </trkpt>
      <trkpt lat="47.227786984294653" lon="6.03785902261734">
        <ele>271.70999999999998</ele>
        <time>2025-04-23T13:24:02Z</time>
      </trkpt>
      <trkpt lat="47.227749014273286" lon="6.037828009575605">
        <ele>272.19</ele>
        <time>2025-04-23T13:24:03Z</time>
      </trkpt>
      <trkpt lat="47.22767299041152" lon="6.037790039554238">
        <ele>273.14999999999998</ele>
        <time>2025-04-23T13:24:04Z</time>
      </trkpt>
      <trkpt lat="47.227610964328051" lon="6.037817029282451">
        <ele>274.11000000000001</ele>
        <time>2025-04-23T13:24:05Z</time>
      </trkpt>
      <trkpt lat="47.227485990151763" lon="6.037870002910495">
        <ele>276.04000000000002</ele>
        <time>2025-04-23T13:24:08Z</time>
      </trkpt>
      <trkpt lat="47.227390017360449" lon="6.037892969325185">
        <ele>276.51999999999998</ele>
        <time>2025-04-23T13:24:09Z</time>
      </trkpt>
      <trkpt lat="47.227379959076643" lon="6.037834966555238">
        <ele>277.48000000000002</ele>
        <time>2025-04-23T13:24:10Z</time>
      </trkpt>
      <trkpt lat="47.227370990440249" lon="6.037780987098813">
        <ele>277.95999999999998</ele>
        <time>2025-04-23T13:24:11Z</time>
      </trkpt>
      <trkpt lat="47.227417007088661" lon="6.037734970450401">
        <ele>278.92000000000002</ele>
        <time>2025-04-23T13:24:12Z</time>
      </trkpt>
      <trkpt lat="47.227455982938409" lon="6.037697000429034">
        <ele>279.39999999999998</ele>
        <time>2025-04-23T13:24:13Z</time>
      </trkpt>
      <trkpt lat="47.227506022900343" lon="6.037646038457751">
        <ele>279.88</ele>
        <time>2025-04-23T13:24:14Z</time>
      </trkpt>
      <trkpt lat="47.227552961558104" lon="6.03760002180934">
        <ele>280.36000000000001</ele>
        <time>2025-04-23T13:24:15Z</time>
      </trkpt>
      <trkpt lat="47.227593027055264" lon="6.037559034302831">
        <ele>281.31999999999999</ele>
        <time>2025-04-23T13:24:16Z</time>
      </trkpt>
      <trkpt lat="47.227630997076631" lon="6.037521986290813">
        <ele>281.80000000000001</ele>
        <time>2025-04-23T13:24:17Z</time>
      </trkpt>
      <trkpt lat="47.22765002399683" lon="6.037502037361264">
        <ele>282.27999999999997</ele>
        <time>2025-04-23T13:24:18Z</time>
      </trkpt>
      <trkpt lat="47.227615993469954" lon="6.037433976307511">
        <ele>283.25</ele>
        <time>2025-04-23T13:24:19Z</time>
      </trkpt>
      <trkpt lat="47.227598978206515" lon="6.037400029599667">
        <ele>283.73000000000002</ele>
        <time>2025-04-23T13:24:20Z</time>
      </trkpt>
      <trkpt lat="47.227581962943077" lon="6.037374967709184">
        <ele>284.69</ele>
        <time>2025-04-23T13:24:21Z</time>
      </trkpt>
      <trkpt lat="47.227523038163781" lon="6.03738896548748">
        <ele>285.17000000000002</ele>
        <time>2025-04-23T13:24:22Z</time>
      </trkpt>
      <trkpt lat="47.227463023737073" lon="6.037403969094157">
        <ele>286.13</ele>
        <time>2025-04-23T13:24:23Z</time>
      </trkpt>
      <trkpt lat="47.227408038452268" lon="6.037417966872454">
        <ele>286.61000000000001</ele>
        <time>2025-04-23T13:24:24Z</time>
      </trkpt>
      <trkpt lat="47.227327991276979" lon="6.037437999621034">
        <ele>288.52999999999997</ele>
        <time>2025-04-23T13:24:27Z</time>
      </trkpt>
      <trkpt lat="47.227283986285329" lon="6.037392988801003">
        <ele>289.00999999999999</ele>
        <time>2025-04-23T13:24:28Z</time>
      </trkpt>
      <trkpt lat="47.227240987122059" lon="6.037350995466113">
        <ele>289.49000000000001</ele>
        <time>2025-04-23T13:24:29Z</time>
      </trkpt>
      <trkpt lat="47.22719999961555" lon="6.037309002131224">
        <ele>289.97000000000003</ele>
        <time>2025-04-23T13:24:30Z</time>
      </trkpt>
      <trkpt lat="47.22719999961555" lon="6.037309002131224">
        <ele>289.49000000000001</ele>
        <time>2025-04-23T13:24:31Z</time>
      </trkpt>
      <trkpt lat="47.22719999961555" lon="6.037309002131224">
        <ele>288.52999999999997</ele>
        <time>2025-04-23T13:24:32Z</time>
      </trkpt>
      <trkpt lat="47.22719999961555" lon="6.037309002131224">
        <ele>288.05000000000001</ele>
        <time>2025-04-23T13:24:33Z</time>
      </trkpt>
      <trkpt lat="47.227248027920723" lon="6.037247981876135">
        <ele>288.05000000000001</ele>
        <time>2025-04-23T13:24:34Z</time>
      </trkpt>
      <trkpt lat="47.22730603069067" lon="6.037175981327891">
        <ele>287.56999999999999</ele>
        <time>2025-04-23T13:24:35Z</time>
      </trkpt>
      <trkpt lat="47.227356992661953" lon="6.037113033235073">
        <ele>288.05000000000001</ele>
        <time>2025-04-23T13:24:36Z</time>
      </trkpt>
      <trkpt lat="47.227456988766789" lon="6.036866018548608">
        <ele>288.05000000000001</ele>
        <time>2025-04-23T13:24:37Z</time>
      </trkpt>
      <trkpt lat="47.227374007925391" lon="6.036626966670156">
        <ele>288.05000000000001</ele>
        <time>2025-04-23T13:24:40Z</time>
      </trkpt>
      <trkpt lat="47.227370990440249" lon="6.036623027175665">
        <ele>288.05000000000001</ele>
        <time>2025-04-23T13:24:41Z</time>
      </trkpt>
      <trkpt lat="47.227370990440249" lon="6.036623027175665">
        <ele>288.05000000000001</ele>
        <time>2025-04-23T13:24:42Z</time>
      </trkpt>
      <trkpt lat="47.227131016552448" lon="6.03654901497066">
        <ele>288.05000000000001</ele>
        <time>2025-04-23T13:24:45Z</time>
      </trkpt>
      <trkpt lat="47.227092040702701" lon="6.036537028849125">
        <ele>288.05000000000001</ele>
        <time>2025-04-23T13:24:46Z</time>
      </trkpt>
      <trkpt lat="47.226963965222239" lon="6.036408031359315">
        <ele>288.05000000000001</ele>
        <time>2025-04-23T13:24:47Z</time>
      </trkpt>
      <trkpt lat="47.226884001865983" lon="6.036367965862155">
        <ele>288.52999999999997</ele>
        <time>2025-04-23T13:24:49Z</time>
      </trkpt>
      <trkpt lat="47.226812001317739" lon="6.036315998062491">
        <ele>289.00999999999999</ele>
        <time>2025-04-23T13:24:50Z</time>
      </trkpt>
      <trkpt lat="47.226559035480022" lon="6.036016009747982">
        <ele>290.94</ele>
        <time>2025-04-23T13:24:54Z</time>
      </trkpt>
      <trkpt lat="47.226499021053314" lon="6.035944009199739">
        <ele>291.89999999999998</ele>
        <time>2025-04-23T13:24:55Z</time>
      </trkpt>
      <trkpt lat="47.226384021341801" lon="6.035806965082884">
        <ele>292.38</ele>
        <time>2025-04-23T13:24:56Z</time>
      </trkpt>
      <trkpt lat="47.226342028006911" lon="6.035799002274871">
        <ele>293.33999999999997</ele>
        <time>2025-04-23T13:24:57Z</time>
      </trkpt>
      <trkpt lat="47.226257035508752" lon="6.035782992839813">
        <ele>293.81999999999999</ele>
        <time>2025-04-23T13:24:58Z</time>
      </trkpt>
      <trkpt lat="47.226163996383548" lon="6.035764971747994">
        <ele>294.30000000000001</ele>
        <time>2025-04-23T13:24:59Z</time>
      </trkpt>
      <trkpt lat="47.225617999210954" lon="6.035631028935313">
        <ele>302.94999999999999</ele>
        <time>2025-04-23T13:25:05Z</time>
      </trkpt>
      <trkpt lat="47.225542981177568" lon="6.035609990358353">
        <ele>303.91000000000003</ele>
        <time>2025-04-23T13:25:06Z</time>
      </trkpt>
      <trkpt lat="47.225450025871396" lon="6.035608984529972">
        <ele>305.36000000000001</ele>
        <time>2025-04-23T13:25:07Z</time>
      </trkpt>
      <trkpt lat="47.22535396926105" lon="6.035657012835145">
        <ele>306.31999999999999</ele>
        <time>2025-04-23T13:25:08Z</time>
      </trkpt>
      <trkpt lat="47.225297978147864" lon="6.035716021433473">
        <ele>307.75999999999999</ele>
        <time>2025-04-23T13:25:09Z</time>
      </trkpt>
      <trkpt lat="47.225226983428001" lon="6.035790033638477">
        <ele>309.19999999999999</ele>
        <time>2025-04-23T13:25:10Z</time>
      </trkpt>
      <trkpt lat="47.225148025900126" lon="6.035871002823114">
        <ele>310.16000000000003</ele>
        <time>2025-04-23T13:25:11Z</time>
      </trkpt>
      <trkpt lat="47.22507300786674" lon="6.03594996035099">
        <ele>311.60000000000002</ele>
        <time>2025-04-23T13:25:12Z</time>
      </trkpt>
      <trkpt lat="47.224997989833355" lon="6.036027995869517">
        <ele>312.56999999999999</ele>
        <time>2025-04-23T13:25:13Z</time>
      </trkpt>
      <trkpt lat="47.224925989285111" lon="6.036103013902903">
        <ele>314.00999999999999</ele>
        <time>2025-04-23T13:25:14Z</time>
      </trkpt>
      <trkpt lat="47.224838985130191" lon="6.036193035542965">
        <ele>314.97000000000003</ele>
        <time>2025-04-23T13:25:15Z</time>
      </trkpt>
      <trkpt lat="47.224768996238708" lon="6.036217007786036">
        <ele>315.93000000000001</ele>
        <time>2025-04-23T13:25:16Z</time>
      </trkpt>
      <trkpt lat="47.224677968770266" lon="6.036229999735951">
        <ele>316.88999999999999</ele>
        <time>2025-04-23T13:25:17Z</time>
      </trkpt>
      <trkpt lat="47.224587025120854" lon="6.036211978644133">
        <ele>318.32999999999998</ele>
        <time>2025-04-23T13:25:18Z</time>
      </trkpt>
      <trkpt lat="47.224503960460424" lon="6.036194963380694">
        <ele>319.30000000000001</ele>
        <time>2025-04-23T13:25:19Z</time>
      </trkpt>
      <trkpt lat="47.22442701458931" lon="6.036179959774017">
        <ele>320.25999999999999</ele>
        <time>2025-04-23T13:25:20Z</time>
      </trkpt>
      <trkpt lat="47.224356019869447" lon="6.036165039986372">
        <ele>321.22000000000003</ele>
        <time>2025-04-23T13:25:21Z</time>
      </trkpt>
      <trkpt lat="47.224281001836061" lon="6.036150958389044">
        <ele>321.69999999999999</ele>
        <time>2025-04-23T13:25:22Z</time>
      </trkpt>
      <trkpt lat="47.224229034036398" lon="6.036174008622766">
        <ele>322.66000000000003</ele>
        <time>2025-04-23T13:25:23Z</time>
      </trkpt>
      <trkpt lat="47.224160972982645" lon="6.03620401583612">
        <ele>323.13999999999999</ele>
        <time>2025-04-23T13:25:24Z</time>
      </trkpt>
      <trkpt lat="47.224077992141247" lon="6.036261012777686">
        <ele>323.62</ele>
        <time>2025-04-23T13:25:25Z</time>
      </trkpt>
      <trkpt lat="47.224038010463119" lon="6.03635597974062">
        <ele>323.62</ele>
        <time>2025-04-23T13:25:26Z</time>
      </trkpt>
      <trkpt lat="47.223981013521552" lon="6.036496963351965">
        <ele>324.10000000000002</ele>
        <time>2025-04-23T13:25:27Z</time>
      </trkpt>
      <trkpt lat="47.223981013521552" lon="6.036616992205381">
        <ele>324.57999999999998</ele>
        <time>2025-04-23T13:25:28Z</time>
      </trkpt>
      <trkpt lat="47.223981013521552" lon="6.036686981096864">
        <ele>325.54000000000002</ele>
        <time>2025-04-23T13:25:29Z</time>
      </trkpt>
      <trkpt lat="47.223952012136579" lon="6.036804998293519">
        <ele>326.01999999999998</ele>
        <time>2025-04-23T13:25:30Z</time>
      </trkpt>
      <trkpt lat="47.223928961902857" lon="6.03689300827682">
        <ele>326.99000000000001</ele>
        <time>2025-04-23T13:25:31Z</time>
      </trkpt>
      <trkpt lat="47.223913036286831" lon="6.03695897385478">
        <ele>327.47000000000003</ele>
        <time>2025-04-23T13:25:32Z</time>
      </trkpt>
      <trkpt lat="47.223895015195012" lon="6.037029968574643">
        <ele>328.43000000000001</ele>
        <time>2025-04-23T13:25:33Z</time>
      </trkpt>
      <trkpt lat="47.223856961354613" lon="6.037085959687829">
        <ele>328.43000000000001</ele>
        <time>2025-04-23T13:25:34Z</time>
      </trkpt>
      <trkpt lat="47.223793007433414" lon="6.037180004641414">
        <ele>328.43000000000001</ele>
        <time>2025-04-23T13:25:35Z</time>
      </trkpt>
      <trkpt lat="47.22371899522841" lon="6.037287963554263">
        <ele>328.91000000000003</ele>
        <time>2025-04-23T13:25:36Z</time>
      </trkpt>
      <trkpt lat="47.223404003307223" lon="6.037827003747225">
        <ele>328.43000000000001</ele>
        <time>2025-04-23T13:25:41Z</time>
      </trkpt>
      <trkpt lat="47.22335496917367" lon="6.037921970710158">
        <ele>327.94999999999999</ele>
        <time>2025-04-23T13:25:42Z</time>
      </trkpt>
      <trkpt lat="47.223293026909232" lon="6.038063960149884">
        <ele>327.94999999999999</ele>
        <time>2025-04-23T13:25:43Z</time>
      </trkpt>
      <trkpt lat="47.223287997767329" lon="6.038172002881765">
        <ele>327.47000000000003</ele>
        <time>2025-04-23T13:25:44Z</time>
      </trkpt>
      <trkpt lat="47.223282968625426" lon="6.03828901425004">
        <ele>326.99000000000001</ele>
        <time>2025-04-23T13:25:45Z</time>
      </trkpt>
      <trkpt lat="47.223278023302555" lon="6.038408959284425">
        <ele>326.99000000000001</ele>
        <time>2025-04-23T13:25:46Z</time>
      </trkpt>
      <trkpt lat="47.223279029130936" lon="6.038554972037673">
        <ele>326.99000000000001</ele>
        <time>2025-04-23T13:25:47Z</time>
      </trkpt>
      <trkpt lat="47.223392017185688" lon="6.039434988051653">
        <ele>326.99000000000001</ele>
        <time>2025-04-23T13:25:53Z</time>
      </trkpt>
      <trkpt lat="47.223362009972334" lon="6.039573960006237">
        <ele>327.47000000000003</ele>
        <time>2025-04-23T13:25:54Z</time>
      </trkpt>
      <trkpt lat="47.223326973617077" lon="6.039712009951472">
        <ele>327.47000000000003</ele>
        <time>2025-04-23T13:25:55Z</time>
      </trkpt>
      <trkpt lat="47.223266959190369" lon="6.039831032976508">
        <ele>327.47000000000003</ele>
        <time>2025-04-23T13:25:56Z</time>
      </trkpt>
      <trkpt lat="47.223207028582692" lon="6.039951983839274">
        <ele>327.94999999999999</ele>
        <time>2025-04-23T13:25:57Z</time>
      </trkpt>
      <trkpt lat="47.223151959478855" lon="6.040081987157464">
        <ele>328.43000000000001</ele>
        <time>2025-04-23T13:25:58Z</time>
      </trkpt>
      <trkpt lat="47.223080964758992" lon="6.040399996563792">
        <ele>330.35000000000002</ele>
        <time>2025-04-23T13:26:00Z</time>
      </trkpt>
      <trkpt lat="47.223084988072515" lon="6.040564030408859">
        <ele>331.31</ele>
        <time>2025-04-23T13:26:01Z</time>
      </trkpt>
      <trkpt lat="47.223088005557656" lon="6.040728986263275">
        <ele>332.26999999999998</ele>
        <time>2025-04-23T13:26:02Z</time>
      </trkpt>
      <trkpt lat="47.223094962537289" lon="6.041053030639887">
        <ele>334.19999999999999</ele>
        <time>2025-04-23T13:26:04Z</time>
      </trkpt>
      <trkpt lat="47.223098985850811" lon="6.041215974837542">
        <ele>335.16000000000003</ele>
        <time>2025-04-23T13:26:05Z</time>
      </trkpt>
      <trkpt lat="47.223092028871179" lon="6.041372967883945">
        <ele>336.60000000000002</ele>
        <time>2025-04-23T13:26:06Z</time>
      </trkpt>
      <trkpt lat="47.223065039142966" lon="6.041530966758728">
        <ele>337.56</ele>
        <time>2025-04-23T13:26:07Z</time>
      </trkpt>
      <trkpt lat="47.223037965595722" lon="6.041685026139021">
        <ele>338.51999999999998</ele>
        <time>2025-04-23T13:26:08Z</time>
      </trkpt>
      <trkpt lat="47.223009970039129" lon="6.041830033063889">
        <ele>339.48000000000002</ele>
        <time>2025-04-23T13:26:09Z</time>
      </trkpt>
      <trkpt lat="47.222959008067846" lon="6.041960036382079">
        <ele>340.44</ele>
        <time>2025-04-23T13:26:10Z</time>
      </trkpt>
      <trkpt lat="47.222590036690235" lon="6.042850026860833">
        <ele>353.89999999999998</ele>
        <time>2025-04-23T13:26:17Z</time>
      </trkpt>
      <trkpt lat="47.222523987293243" lon="6.042967960238457">
        <ele>355.33999999999997</ele>
        <time>2025-04-23T13:26:18Z</time>
      </trkpt>
      <trkpt lat="47.222464978694916" lon="6.043012971058488">
        <ele>357.26999999999998</ele>
        <time>2025-04-23T13:26:19Z</time>
      </trkpt>
      <trkpt lat="47.222417034208775" lon="6.043051024898887">
        <ele>358.70999999999998</ele>
        <time>2025-04-23T13:26:20Z</time>
      </trkpt>
      <trkpt lat="47.222287030890584" lon="6.042982041835785">
        <ele>360.14999999999998</ele>
        <time>2025-04-23T13:26:21Z</time>
      </trkpt>
      <trkpt lat="47.222239002585411" lon="6.042892020195723">
        <ele>361.58999999999997</ele>
        <time>2025-04-23T13:26:22Z</time>
      </trkpt>
      <trkpt lat="47.222187034785748" lon="6.042792024090886">
        <ele>363.04000000000002</ele>
        <time>2025-04-23T13:26:23Z</time>
      </trkpt>
      <trkpt lat="47.2221290320158" lon="6.042685993015766">
        <ele>364</ele>
        <time>2025-04-23T13:26:24Z</time>
      </trkpt>
      <trkpt lat="47.221990982070565" lon="6.042481977492571">
        <ele>366.88</ele>
        <time>2025-04-23T13:26:26Z</time>
      </trkpt>
      <trkpt lat="47.221771962940693" lon="6.042159022763372">
        <ele>375.05000000000001</ele>
        <time>2025-04-23T13:26:32Z</time>
      </trkpt>
      <trkpt lat="47.221728041768074" lon="6.04209397919476">
        <ele>376.00999999999999</ele>
        <time>2025-04-23T13:26:33Z</time>
      </trkpt>
      <trkpt lat="47.221681019291282" lon="6.04207101278007">
        <ele>377.44999999999999</ele>
        <time>2025-04-23T13:26:34Z</time>
      </trkpt>
      <trkpt lat="47.221535006538033" lon="6.041998006403446">
        <ele>379.38</ele>
        <time>2025-04-23T13:26:36Z</time>
      </trkpt>
      <trkpt lat="47.221450014039874" lon="6.041955007240176">
        <ele>380.33999999999997</ele>
        <time>2025-04-23T13:26:37Z</time>
      </trkpt>
      <trkpt lat="47.22135697491467" lon="6.041908990591765">
        <ele>381.30000000000001</ele>
        <time>2025-04-23T13:26:38Z</time>
      </trkpt>
      <trkpt lat="47.221258990466595" lon="6.041872026398778">
        <ele>382.25999999999999</ele>
        <time>2025-04-23T13:26:39Z</time>
      </trkpt>
      <trkpt lat="47.221148014068604" lon="6.041831960901618">
        <ele>383.22000000000003</ele>
        <time>2025-04-23T13:26:40Z</time>
      </trkpt>
      <trkpt lat="47.221035026013851" lon="6.041789967566729">
        <ele>384.18000000000001</ele>
        <time>2025-04-23T13:26:41Z</time>
      </trkpt>
      <trkpt lat="47.220935029909015" lon="6.041736993938685">
        <ele>385.14999999999998</ele>
        <time>2025-04-23T13:26:42Z</time>
      </trkpt>
      <trkpt lat="47.220726991072297" lon="6.041626017540693">
        <ele>387.55000000000001</ele>
        <time>2025-04-23T13:26:44Z</time>
      </trkpt>
      <trkpt lat="47.220621965825558" lon="6.041570026427507">
        <ele>388.99000000000001</ele>
        <time>2025-04-23T13:26:45Z</time>
      </trkpt>
      <trkpt lat="47.220004973933101" lon="6.041416972875595">
        <ele>396.19999999999999</ele>
        <time>2025-04-23T13:26:51Z</time>
      </trkpt>
      <trkpt lat="47.219903971999884" lon="6.041408004239202">
        <ele>396.68000000000001</ele>
        <time>2025-04-23T13:26:52Z</time>
      </trkpt>
      <trkpt lat="47.219806993380189" lon="6.041473969817162">
        <ele>397.16000000000003</ele>
        <time>2025-04-23T13:26:53Z</time>
      </trkpt>
      <trkpt lat="47.219711020588875" lon="6.041540019214153">
        <ele>397.16000000000003</ele>
        <time>2025-04-23T13:26:54Z</time>
      </trkpt>
      <trkpt lat="47.219617981463671" lon="6.041602967306972">
        <ele>397.63999999999999</ele>
        <time>2025-04-23T13:26:55Z</time>
      </trkpt>
      <trkpt lat="47.219521002843976" lon="6.041670022532344">
        <ele>398.60000000000002</ele>
        <time>2025-04-23T13:26:56Z</time>
      </trkpt>
      <trkpt lat="47.21942100673914" lon="6.041737999767065">
        <ele>399.07999999999998</ele>
        <time>2025-04-23T13:26:57Z</time>
      </trkpt>
      <trkpt lat="47.219326039776206" lon="6.041802959516645">
        <ele>399.56999999999999</ele>
        <time>2025-04-23T13:26:58Z</time>
      </trkpt>
      <trkpt lat="47.21899101510644" lon="6.041969005018473">
        <ele>403.41000000000003</ele>
        <time>2025-04-23T13:27:02Z</time>
      </trkpt>
      <trkpt lat="47.218894036486745" lon="6.041972022503614">
        <ele>403.88999999999999</ele>
        <time>2025-04-23T13:27:03Z</time>
      </trkpt>
      <trkpt lat="47.218682980164886" lon="6.041977973654866">
        <ele>404.37</ele>
        <time>2025-04-23T13:27:05Z</time>
      </trkpt>
      <trkpt lat="47.218575021252036" lon="6.041981996968389">
        <ele>404.85000000000002</ele>
        <time>2025-04-23T13:27:06Z</time>
      </trkpt>
      <trkpt lat="47.218422973528504" lon="6.041987026110292">
        <ele>404.85000000000002</ele>
        <time>2025-04-23T13:27:08Z</time>
      </trkpt>
      <trkpt lat="47.218316020444036" lon="6.041937991976738">
        <ele>404.85000000000002</ele>
        <time>2025-04-23T13:27:09Z</time>
      </trkpt>
      <trkpt lat="47.218233961611986" lon="6.041901027783752">
        <ele>404.37</ele>
        <time>2025-04-23T13:27:10Z</time>
      </trkpt>
      <trkpt lat="47.218187022954226" lon="6.041879989206791">
        <ele>403.88999999999999</ele>
        <time>2025-04-23T13:27:11Z</time>
      </trkpt>
      <trkpt lat="47.218187022954226" lon="6.041879989206791">
        <ele>403.41000000000003</ele>
        <time>2025-04-23T13:27:12Z</time>
      </trkpt>
      <trkpt lat="47.218103036284447" lon="6.0417499858886">
        <ele>402.93000000000001</ele>
        <time>2025-04-23T13:27:13Z</time>
      </trkpt>
      <trkpt lat="47.218056013807654" lon="6.041676979511976">
        <ele>401.97000000000003</ele>
        <time>2025-04-23T13:27:14Z</time>
      </trkpt>
      <trkpt lat="47.218016032129526" lon="6.041615037247539">
        <ele>401.49000000000001</ele>
        <time>2025-04-23T13:27:15Z</time>
      </trkpt>
      <trkpt lat="47.217973032966256" lon="6.041548987850547">
        <ele>401.00999999999999</ele>
        <time>2025-04-23T13:27:16Z</time>
      </trkpt>
      <trkpt lat="47.217930033802986" lon="6.041484028100967">
        <ele>400.05000000000001</ele>
        <time>2025-04-23T13:27:17Z</time>
      </trkpt>
      <trkpt lat="47.217907989397645" lon="6.041451003402472">
        <ele>399.07999999999998</ele>
        <time>2025-04-23T13:27:18Z</time>
      </trkpt>
      <trkpt lat="47.217822996899486" lon="6.041451003402472">
        <ele>397.63999999999999</ele>
        <time>2025-04-23T13:27:19Z</time>
      </trkpt>
      <trkpt lat="47.217822996899486" lon="6.041451003402472">
        <ele>396.68000000000001</ele>
        <time>2025-04-23T13:27:20Z</time>
      </trkpt>
      <trkpt lat="47.217822996899486" lon="6.041451003402472">
        <ele>395.72000000000003</ele>
        <time>2025-04-23T13:27:21Z</time>
      </trkpt>
      <trkpt lat="47.217822996899486" lon="6.041451003402472">
        <ele>394.27999999999997</ele>
        <time>2025-04-23T13:27:22Z</time>
      </trkpt>
      <trkpt lat="47.217824002727866" lon="6.041462989524007">
        <ele>393.80000000000001</ele>
        <time>2025-04-23T13:27:23Z</time>
      </trkpt>
      <trkpt lat="47.217829031869769" lon="6.04153499007225">
        <ele>393.80000000000001</ele>
        <time>2025-04-23T13:27:24Z</time>
      </trkpt>
      <trkpt lat="47.217836994677782" lon="6.041630962863565">
        <ele>393.80000000000001</ele>
        <time>2025-04-23T13:27:25Z</time>
      </trkpt>
      <trkpt lat="47.217879993841052" lon="6.042170003056526">
        <ele>394.27999999999997</ele>
        <time>2025-04-23T13:27:29Z</time>
      </trkpt>
      <trkpt lat="47.217931039631367" lon="6.04280099272728">
        <ele>395.24000000000001</ele>
        <time>2025-04-23T13:27:33Z</time>
      </trkpt>
      <trkpt lat="47.217943025752902" lon="6.04295396246016">
        <ele>395.72000000000003</ele>
        <time>2025-04-23T13:27:34Z</time>
      </trkpt>
      <trkpt lat="47.217955011874437" lon="6.04310198687017">
        <ele>395.72000000000003</ele>
        <time>2025-04-23T13:27:35Z</time>
      </trkpt>
      <trkpt lat="47.217978984117508" lon="6.043393006548286">
        <ele>396.19999999999999</ele>
        <time>2025-04-23T13:27:37Z</time>
      </trkpt>
      <trkpt lat="47.218001028522849" lon="6.043670028448105">
        <ele>396.68000000000001</ele>
        <time>2025-04-23T13:27:39Z</time>
      </trkpt>
      <trkpt lat="47.218012008816004" lon="6.043812017887831">
        <ele>397.16000000000003</ele>
        <time>2025-04-23T13:27:40Z</time>
      </trkpt>
      <trkpt lat="47.218034975230694" lon="6.043945960700512">
        <ele>397.63999999999999</ele>
        <time>2025-04-23T13:27:41Z</time>
      </trkpt>
      <trkpt lat="47.218100018799305" lon="6.044246032834053">
        <ele>399.07999999999998</ele>
        <time>2025-04-23T13:27:43Z</time>
      </trkpt>
      <trkpt lat="47.218142012134194" lon="6.044566975906491">
        <ele>401.00999999999999</ele>
        <time>2025-04-23T13:27:45Z</time>
      </trkpt>
      <trkpt lat="47.218135977163911" lon="6.045488985255361">
        <ele>406.76999999999998</ele>
        <time>2025-04-23T13:27:51Z</time>
      </trkpt>
      <trkpt lat="47.218143017962575" lon="6.04561697691679">
        <ele>407.74000000000001</ele>
        <time>2025-04-23T13:27:52Z</time>
      </trkpt>
      <trkpt lat="47.218144023790956" lon="6.045733988285065">
        <ele>408.69999999999999</ele>
        <time>2025-04-23T13:27:53Z</time>
      </trkpt>
      <trkpt lat="47.218144023790956" lon="6.04591503739357">
        <ele>411.57999999999998</ele>
        <time>2025-04-23T13:27:55Z</time>
      </trkpt>
      <trkpt lat="47.218144023790956" lon="6.045990977436304">
        <ele>412.54000000000002</ele>
        <time>2025-04-23T13:27:56Z</time>
      </trkpt>
      <trkpt lat="47.218144023790956" lon="6.046059038490057">
        <ele>413.5</ele>
        <time>2025-04-23T13:27:57Z</time>
      </trkpt>
      <trkpt lat="47.218144023790956" lon="6.046127015724778">
        <ele>414.47000000000003</ele>
        <time>2025-04-23T13:27:58Z</time>
      </trkpt>
      <trkpt lat="47.218142012134194" lon="6.046202033758164">
        <ele>415.43000000000001</ele>
        <time>2025-04-23T13:27:59Z</time>
      </trkpt>
      <trkpt lat="47.218138994649053" lon="6.046274034306407">
        <ele>416.38999999999999</ele>
        <time>2025-04-23T13:28:00Z</time>
      </trkpt>
      <trkpt lat="47.21813497133553" lon="6.046343017369509">
        <ele>416.87</ele>
        <time>2025-04-23T13:28:01Z</time>
      </trkpt>
      <trkpt lat="47.21813203766942" lon="6.046404037624598">
        <ele>417.35000000000002</ele>
        <time>2025-04-23T13:28:02Z</time>
      </trkpt>
      <trkpt lat="47.218129020184278" lon="6.046471009030938">
        <ele>418.31</ele>
        <time>2025-04-23T13:28:03Z</time>
      </trkpt>
      <trkpt lat="47.218124996870756" lon="6.046548960730434">
        <ele>418.79000000000002</ele>
        <time>2025-04-23T13:28:04Z</time>
      </trkpt>
      <trkpt lat="47.218117034062743" lon="6.046792035922408">
        <ele>421.19</ele>
        <time>2025-04-23T13:28:07Z</time>
      </trkpt>
      <trkpt lat="47.218115022405982" lon="6.046847021207213">
        <ele>422.63999999999999</ele>
        <time>2025-04-23T13:28:08Z</time>
      </trkpt>
      <trkpt lat="47.218113010749221" lon="6.046898989006877">
        <ele>425.51999999999998</ele>
        <time>2025-04-23T13:28:09Z</time>
      </trkpt>
      <trkpt lat="47.21811099909246" lon="6.046973001211882">
        <ele>426.95999999999998</ele>
        <time>2025-04-23T13:28:10Z</time>
      </trkpt>
      <trkpt lat="47.218107981607318" lon="6.047069979831576">
        <ele>428.88999999999999</ele>
        <time>2025-04-23T13:28:11Z</time>
      </trkpt>
      <trkpt lat="47.218103958293796" lon="6.047181962057948">
        <ele>429.85000000000002</ele>
        <time>2025-04-23T13:28:12Z</time>
      </trkpt>
      <trkpt lat="47.218101024627686" lon="6.04729101061821">
        <ele>430.81</ele>
        <time>2025-04-23T13:28:13Z</time>
      </trkpt>
      <trkpt lat="47.218097001314163" lon="6.04739997535944">
        <ele>431.76999999999998</ele>
        <time>2025-04-23T13:28:14Z</time>
      </trkpt>
      <trkpt lat="47.218093983829021" lon="6.048345034942031">
        <ele>435.13</ele>
        <time>2025-04-23T13:28:22Z</time>
      </trkpt>
      <trkpt lat="47.218102030456066" lon="6.048575034365058">
        <ele>436.10000000000002</ele>
        <time>2025-04-23T13:28:25Z</time>
      </trkpt>
      <trkpt lat="47.218059031292796" lon="6.048682993277907">
        <ele>436.57999999999998</ele>
        <time>2025-04-23T13:28:26Z</time>
      </trkpt>
      <trkpt lat="47.218019971624017" lon="6.048785001039505">
        <ele>437.06</ele>
        <time>2025-04-23T13:28:27Z</time>
      </trkpt>
      <trkpt lat="47.217873958870769" lon="6.049133017659187">
        <ele>438.01999999999998</ele>
        <time>2025-04-23T13:28:30Z</time>
      </trkpt>
      <trkpt lat="47.217541029676795" lon="6.049683960154653">
        <ele>440.42000000000002</ele>
        <time>2025-04-23T13:28:35Z</time>
      </trkpt>
      <trkpt lat="47.217471962794662" lon="6.049786973744631">
        <ele>440.42000000000002</ele>
        <time>2025-04-23T13:28:36Z</time>
      </trkpt>
      <trkpt lat="47.217351011931896" lon="6.049969028681517">
        <ele>440.42000000000002</ele>
        <time>2025-04-23T13:28:37Z</time>
      </trkpt>
      <trkpt lat="47.217351011931896" lon="6.050029965117574">
        <ele>440.89999999999998</ele>
        <time>2025-04-23T13:28:38Z</time>
      </trkpt>
      <trkpt lat="47.217351011931896" lon="6.050181007012725">
        <ele>441.38</ele>
        <time>2025-04-23T13:28:39Z</time>
      </trkpt>
      <trkpt lat="47.217366015538573" lon="6.050362978130579">
        <ele>442.81999999999999</ele>
        <time>2025-04-23T13:28:40Z</time>
      </trkpt>
      <trkpt lat="47.217410020530224" lon="6.050503961741924">
        <ele>443.79000000000002</ele>
        <time>2025-04-23T13:28:41Z</time>
      </trkpt>
      <trkpt lat="47.217626022174954" lon="6.051263026893139">
        <ele>447.63</ele>
        <time>2025-04-23T13:28:46Z</time>
      </trkpt>
      <trkpt lat="47.217667009681463" lon="6.051429994404316">
        <ele>448.11000000000001</ele>
        <time>2025-04-23T13:28:47Z</time>
      </trkpt>
      <trkpt lat="47.217667009681463" lon="6.051594028249383">
        <ele>448.58999999999997</ele>
        <time>2025-04-23T13:28:48Z</time>
      </trkpt>
      <trkpt lat="47.21766097471118" lon="6.051765019074082">
        <ele>448.58999999999997</ele>
        <time>2025-04-23T13:28:49Z</time>
      </trkpt>
      <trkpt lat="47.217655023559928" lon="6.051939027383924">
        <ele>448.58999999999997</ele>
        <time>2025-04-23T13:28:50Z</time>
      </trkpt>
      <trkpt lat="47.217634990811348" lon="6.052103983238339">
        <ele>448.58999999999997</ele>
        <time>2025-04-23T13:28:51Z</time>
      </trkpt>
      <trkpt lat="47.217583023011684" lon="6.052277991548181">
        <ele>448.58999999999997</ele>
        <time>2025-04-23T13:28:52Z</time>
      </trkpt>
      <trkpt lat="47.217529965564609" lon="6.052454011514783">
        <ele>448.58999999999997</ele>
        <time>2025-04-23T13:28:53Z</time>
      </trkpt>
      <trkpt lat="47.217479003593326" lon="6.052623996511102">
        <ele>448.11000000000001</ele>
        <time>2025-04-23T13:28:54Z</time>
      </trkpt>
      <trkpt lat="47.217414965853095" lon="6.052767997607589">
        <ele>448.11000000000001</ele>
        <time>2025-04-23T13:28:55Z</time>
      </trkpt>
      <trkpt lat="47.217333996668458" lon="6.052905963733792">
        <ele>447.63</ele>
        <time>2025-04-23T13:28:56Z</time>
      </trkpt>
      <trkpt lat="47.21723198890686" lon="6.053000008687377">
        <ele>447.63</ele>
        <time>2025-04-23T13:28:57Z</time>
      </trkpt>
      <trkpt lat="47.217117995023727" lon="6.053072009235621">
        <ele>447.14999999999998</ele>
        <time>2025-04-23T13:28:58Z</time>
      </trkpt>
      <trkpt lat="47.217005006968975" lon="6.053106039762497">
        <ele>446.67000000000002</ele>
        <time>2025-04-23T13:28:59Z</time>
      </trkpt>
      <trkpt lat="47.216883972287178" lon="6.05311400257051">
        <ele>446.19</ele>
        <time>2025-04-23T13:29:00Z</time>
      </trkpt>
      <trkpt lat="47.216770984232426" lon="6.053121965378523">
        <ele>446.19</ele>
        <time>2025-04-23T13:29:01Z</time>
      </trkpt>
      <trkpt lat="47.21667199395597" lon="6.053206035867333">
        <ele>445.23000000000002</ele>
        <time>2025-04-23T13:29:02Z</time>
      </trkpt>
      <trkpt lat="47.21658700145781" lon="6.053294967859983">
        <ele>444.75</ele>
        <time>2025-04-23T13:29:03Z</time>
      </trkpt>
      <trkpt lat="47.216494968160987" lon="6.053393036127091">
        <ele>444.26999999999998</ele>
        <time>2025-04-23T13:29:04Z</time>
      </trkpt>
      <trkpt lat="47.216384997591376" lon="6.053509963676333">
        <ele>443.79000000000002</ele>
        <time>2025-04-23T13:29:05Z</time>
      </trkpt>
      <trkpt lat="47.216324983164668" lon="6.053619012236595">
        <ele>443.31</ele>
        <time>2025-04-23T13:29:06Z</time>
      </trkpt>
      <trkpt lat="47.216249965131283" lon="6.053755972534418">
        <ele>442.81999999999999</ele>
        <time>2025-04-23T13:29:07Z</time>
      </trkpt>
      <trkpt lat="47.216174025088549" lon="6.053897039964795">
        <ele>442.33999999999997</ele>
        <time>2025-04-23T13:29:08Z</time>
      </trkpt>
      <trkpt lat="47.216095989570022" lon="6.054040035232902">
        <ele>442.33999999999997</ele>
        <time>2025-04-23T13:29:09Z</time>
      </trkpt>
      <trkpt lat="47.215629033744335" lon="6.05489800684154">
        <ele>440.42000000000002</ele>
        <time>2025-04-23T13:29:15Z</time>
      </trkpt>
      <trkpt lat="47.215561978518963" lon="6.055061034858227">
        <ele>440.42000000000002</ele>
        <time>2025-04-23T13:29:16Z</time>
      </trkpt>
      <trkpt lat="47.215256961062551" lon="6.05637900531292">
        <ele>443.79000000000002</ele>
        <time>2025-04-23T13:29:24Z</time>
      </trkpt>
      <trkpt lat="47.215257966890931" lon="6.056670024991036">
        <ele>446.19</ele>
        <time>2025-04-23T13:29:27Z</time>
      </trkpt>
      <trkpt lat="47.215261990204453" lon="6.05674596503377">
        <ele>447.14999999999998</ele>
        <time>2025-04-23T13:29:28Z</time>
      </trkpt>
      <trkpt lat="47.215265007689595" lon="6.05680899694562">
        <ele>447.63</ele>
        <time>2025-04-23T13:29:29Z</time>
      </trkpt>
      <trkpt lat="47.215123018249869" lon="6.056971019133925">
        <ele>448.11000000000001</ele>
        <time>2025-04-23T13:29:30Z</time>
      </trkpt>
      <trkpt lat="47.215069960802794" lon="6.056965989992023">
        <ele>449.06999999999999</ele>
        <time>2025-04-23T13:29:31Z</time>
      </trkpt>
      <trkpt lat="47.215008018538356" lon="6.056960038840771">
        <ele>449.55000000000001</ele>
        <time>2025-04-23T13:29:32Z</time>
      </trkpt>
      <trkpt lat="47.21493199467659" lon="6.056951992213726">
        <ele>450.02999999999997</ele>
        <time>2025-04-23T13:29:33Z</time>
      </trkpt>
      <trkpt lat="47.214837027713656" lon="6.056942017748952">
        <ele>450.02999999999997</ele>
        <time>2025-04-23T13:29:34Z</time>
      </trkpt>
      <trkpt lat="47.213792977854609" lon="6.056563993915916">
        <ele>446.67000000000002</ele>
        <time>2025-04-23T13:29:43Z</time>
      </trkpt>
      <trkpt lat="47.213564990088344" lon="6.056388979777694">
        <ele>445.70999999999998</ele>
        <time>2025-04-23T13:29:45Z</time>
      </trkpt>
      <trkpt lat="47.213450996205211" lon="6.056284960359335">
        <ele>445.70999999999998</ele>
        <time>2025-04-23T13:29:46Z</time>
      </trkpt>
      <trkpt lat="47.212438965216279" lon="6.055188020691276">
        <ele>446.67000000000002</ele>
        <time>2025-04-23T13:29:56Z</time>
      </trkpt>
      <trkpt lat="47.212337963283062" lon="6.055064974352717">
        <ele>446.67000000000002</ele>
        <time>2025-04-23T13:29:57Z</time>
      </trkpt>
      <trkpt lat="47.211969997733831" lon="6.054698014631867">
        <ele>449.06999999999999</ele>
        <time>2025-04-23T13:30:02Z</time>
      </trkpt>
      <trkpt lat="47.211922975257039" lon="6.054689968004823">
        <ele>449.55000000000001</ele>
        <time>2025-04-23T13:30:03Z</time>
      </trkpt>
      <trkpt lat="47.211879976093769" lon="6.054719975218177">
        <ele>450.02999999999997</ele>
        <time>2025-04-23T13:30:04Z</time>
      </trkpt>
      <trkpt lat="47.211819039657712" lon="6.054762974381447">
        <ele>450.51999999999998</ele>
        <time>2025-04-23T13:30:05Z</time>
      </trkpt>
      <trkpt lat="47.211749972775578" lon="6.054817959666252">
        <ele>451</ele>
        <time>2025-04-23T13:30:06Z</time>
      </trkpt>
      <trkpt lat="47.21168601885438" lon="6.054881997406483">
        <ele>451</ele>
        <time>2025-04-23T13:30:07Z</time>
      </trkpt>
      <trkpt lat="47.21162399277091" lon="6.054930025711656">
        <ele>451.48000000000002</ele>
        <time>2025-04-23T13:30:08Z</time>
      </trkpt>
      <trkpt lat="47.211560038849711" lon="6.054942011833191">
        <ele>451.48000000000002</ele>
        <time>2025-04-23T13:30:09Z</time>
      </trkpt>
      <trkpt lat="47.211535982787609" lon="6.054947040975094">
        <ele>451.95999999999998</ele>
        <time>2025-04-23T13:30:10Z</time>
      </trkpt>
      <trkpt lat="47.211447972804308" lon="6.054904041811824">
        <ele>452.44</ele>
        <time>2025-04-23T13:30:11Z</time>
      </trkpt>
      <trkpt lat="47.211369015276432" lon="6.054863976314664">
        <ele>452.44</ele>
        <time>2025-04-23T13:30:12Z</time>
      </trkpt>
      <trkpt lat="47.21127899363637" lon="6.054818965494633">
        <ele>452.44</ele>
        <time>2025-04-23T13:30:13Z</time>
      </trkpt>
      <trkpt lat="47.211186038330197" lon="6.05476800352335">
        <ele>452.44</ele>
        <time>2025-04-23T13:30:14Z</time>
      </trkpt>
      <trkpt lat="47.211101967841387" lon="6.05465903878212">
        <ele>451.95999999999998</ele>
        <time>2025-04-23T13:30:15Z</time>
      </trkpt>
      <trkpt lat="47.210924020037055" lon="6.054428033530712">
        <ele>451</ele>
        <time>2025-04-23T13:30:17Z</time>
      </trkpt>
      <trkpt lat="47.210102006793022" lon="6.053362023085356">
        <ele>443.31</ele>
        <time>2025-04-23T13:30:25Z</time>
      </trkpt>
      <trkpt lat="47.209746027365327" lon="6.052843015640974">
        <ele>439.45999999999998</ele>
        <time>2025-04-23T13:30:29Z</time>
      </trkpt>
      <trkpt lat="47.209679977968335" lon="6.052704965695739">
        <ele>438.5</ele>
        <time>2025-04-23T13:30:30Z</time>
      </trkpt>
      <trkpt lat="47.209620969370008" lon="6.052580997347832">
        <ele>437.06</ele>
        <time>2025-04-23T13:30:31Z</time>
      </trkpt>
      <trkpt lat="47.209569001570344" lon="6.052473038434982">
        <ele>436.10000000000002</ele>
        <time>2025-04-23T13:30:32Z</time>
      </trkpt>
      <trkpt lat="47.20951896160841" lon="6.052373964339495">
        <ele>435.13</ele>
        <time>2025-04-23T13:30:33Z</time>
      </trkpt>
      <trkpt lat="47.2094970010221" lon="6.052329959347844">
        <ele>434.17000000000002</ele>
        <time>2025-04-23T13:30:34Z</time>
      </trkpt>
      <trkpt lat="47.209440004080534" lon="6.052284026518464">
        <ele>432.73000000000002</ele>
        <time>2025-04-23T13:30:35Z</time>
      </trkpt>
      <trkpt lat="47.2093899641186" lon="6.052243961021304">
        <ele>431.76999999999998</ele>
        <time>2025-04-23T13:30:36Z</time>
      </trkpt>
      <trkpt lat="47.209342019632459" lon="6.052272040396929">
        <ele>431.29000000000002</ele>
        <time>2025-04-23T13:30:37Z</time>
      </trkpt>
      <trkpt lat="47.20928200520575" lon="6.052307998761535">
        <ele>430.32999999999998</ele>
        <time>2025-04-23T13:30:38Z</time>
      </trkpt>
      <trkpt lat="47.209272030740976" lon="6.052378993481398">
        <ele>429.85000000000002</ele>
        <time>2025-04-23T13:30:39Z</time>
      </trkpt>
      <trkpt lat="47.20926197245717" lon="6.052460968494415">
        <ele>428.88999999999999</ele>
        <time>2025-04-23T13:30:40Z</time>
      </trkpt>
      <trkpt lat="47.209284016862512" lon="6.052540009841323">
        <ele>428.39999999999998</ele>
        <time>2025-04-23T13:30:41Z</time>
      </trkpt>
      <trkpt lat="47.209320981055498" lon="6.052632965147495">
        <ele>427.44</ele>
        <time>2025-04-23T13:30:42Z</time>
      </trkpt>
      <trkpt lat="47.209377977997065" lon="6.052713012322784">
        <ele>426.48000000000002</ele>
        <time>2025-04-23T13:30:43Z</time>
      </trkpt>
      <trkpt lat="47.209435980767012" lon="6.052794987335801">
        <ele>425.51999999999998</ele>
        <time>2025-04-23T13:30:44Z</time>
      </trkpt>
      <trkpt lat="47.209492977708578" lon="6.052875034511089">
        <ele>424.56</ele>
        <time>2025-04-23T13:30:45Z</time>
      </trkpt>
      <trkpt lat="47.209647037088871" lon="6.053092963993549">
        <ele>422.63999999999999</ele>
        <time>2025-04-23T13:30:48Z</time>
      </trkpt>
      <trkpt lat="47.209672015160322" lon="6.053159013390541">
        <ele>422.16000000000003</ele>
        <time>2025-04-23T13:30:49Z</time>
      </trkpt>
      <trkpt lat="47.209678972139955" lon="6.053232019767165">
        <ele>421.68000000000001</ele>
        <time>2025-04-23T13:30:50Z</time>
      </trkpt>
      <trkpt lat="47.209690036252141" lon="6.053360011428595">
        <ele>421.19</ele>
        <time>2025-04-23T13:30:51Z</time>
      </trkpt>
      <trkpt lat="47.209643013775349" lon="6.0534149967134">
        <ele>420.70999999999998</ele>
        <time>2025-04-23T13:30:52Z</time>
      </trkpt>
      <trkpt lat="47.209561038762331" lon="6.053509963676333">
        <ele>419.75</ele>
        <time>2025-04-23T13:30:53Z</time>
      </trkpt>
      <trkpt lat="47.209512004628778" lon="6.053538965061307">
        <ele>419.26999999999998</ele>
        <time>2025-04-23T13:30:54Z</time>
      </trkpt>
      <trkpt lat="47.209168011322618" lon="6.053690006956458">
        <ele>416.38999999999999</ele>
        <time>2025-04-23T13:30:58Z</time>
      </trkpt>
      <trkpt lat="47.209083018824458" lon="6.05369595810771">
        <ele>415.91000000000003</ele>
        <time>2025-04-23T13:30:59Z</time>
      </trkpt>
      <trkpt lat="47.209003977477551" lon="6.053675003349781">
        <ele>415.91000000000003</ele>
        <time>2025-04-23T13:31:00Z</time>
      </trkpt>
      <trkpt lat="47.208868023008108" lon="6.053638039156795">
        <ele>416.38999999999999</ele>
        <time>2025-04-23T13:31:02Z</time>
      </trkpt>
      <trkpt lat="47.208813959732652" lon="6.053624041378498">
        <ele>416.38999999999999</ele>
        <time>2025-04-23T13:31:03Z</time>
      </trkpt>
      <trkpt lat="47.208781018853188" lon="6.053622029721737">
        <ele>416.38999999999999</ele>
        <time>2025-04-23T13:31:04Z</time>
      </trkpt>
      <trkpt lat="47.208750005811453" lon="6.053639966994524">
        <ele>416.87</ele>
        <time>2025-04-23T13:31:05Z</time>
      </trkpt>
      <trkpt lat="47.208750005811453" lon="6.053639966994524">
        <ele>417.35000000000002</ele>
        <time>2025-04-23T13:31:15Z</time>
      </trkpt>
      <trkpt lat="47.208607010543346" lon="6.053725965321064">
        <ele>418.79000000000002</ele>
        <time>2025-04-23T13:31:27Z</time>
      </trkpt>
      <trkpt lat="47.208526963368058" lon="6.053734011948109">
        <ele>418.79000000000002</ele>
        <time>2025-04-23T13:31:28Z</time>
      </trkpt>
      <trkpt lat="47.208440965041518" lon="6.053712973371148">
        <ele>419.26999999999998</ele>
        <time>2025-04-23T13:31:29Z</time>
      </trkpt>
      <trkpt lat="47.208341974765062" lon="6.053661005571485">
        <ele>419.75</ele>
        <time>2025-04-23T13:31:30Z</time>
      </trkpt>
      <trkpt lat="47.208237033337355" lon="6.053589005023241">
        <ele>420.23000000000002</ele>
        <time>2025-04-23T13:31:31Z</time>
      </trkpt>
      <trkpt lat="47.207082007080317" lon="6.052715023979545">
        <ele>425.51999999999998</ele>
        <time>2025-04-23T13:31:40Z</time>
      </trkpt>
      <trkpt lat="47.20680900849402" lon="6.052536992356181">
        <ele>425.51999999999998</ele>
        <time>2025-04-23T13:31:42Z</time>
      </trkpt>
      <trkpt lat="47.206679005175829" lon="6.052505979314446">
        <ele>425.51999999999998</ele>
        <time>2025-04-23T13:31:43Z</time>
      </trkpt>
      <trkpt lat="47.206568028777838" lon="6.052516959607601">
        <ele>425.04000000000002</ele>
        <time>2025-04-23T13:31:44Z</time>
      </trkpt>
      <trkpt lat="47.206470966339111" lon="6.052565993741155">
        <ele>425.04000000000002</ele>
        <time>2025-04-23T13:31:45Z</time>
      </trkpt>
      <trkpt lat="47.206383040174842" lon="6.052654003724456">
        <ele>425.04000000000002</ele>
        <time>2025-04-23T13:31:46Z</time>
      </trkpt>
      <trkpt lat="47.206299975514412" lon="6.052775960415602">
        <ele>424.56</ele>
        <time>2025-04-23T13:31:47Z</time>
      </trkpt>
      <trkpt lat="47.206242978572845" lon="6.052941000089049">
        <ele>424.07999999999998</ele>
        <time>2025-04-23T13:31:48Z</time>
      </trkpt>
      <trkpt lat="47.206179024651647" lon="6.053122971206904">
        <ele>423.60000000000002</ele>
        <time>2025-04-23T13:31:49Z</time>
      </trkpt>
      <trkpt lat="47.206145999953151" lon="6.053336039185524">
        <ele>423.12</ele>
        <time>2025-04-23T13:31:50Z</time>
      </trkpt>
      <trkpt lat="47.206116998568177" lon="6.053553968667984">
        <ele>422.63999999999999</ele>
        <time>2025-04-23T13:31:51Z</time>
      </trkpt>
      <trkpt lat="47.206084979698062" lon="6.053788997232914">
        <ele>422.16000000000003</ele>
        <time>2025-04-23T13:31:52Z</time>
      </trkpt>
      <trkpt lat="47.206066036596894" lon="6.054601036012173">
        <ele>420.23000000000002</ele>
        <time>2025-04-23T13:31:56Z</time>
      </trkpt>
      <trkpt lat="47.206047009676695" lon="6.054764986038208">
        <ele>419.26999999999998</ele>
        <time>2025-04-23T13:31:57Z</time>
      </trkpt>
      <trkpt lat="47.206021025776863" lon="6.054883003234863">
        <ele>418.79000000000002</ele>
        <time>2025-04-23T13:31:58Z</time>
      </trkpt>
      <trkpt lat="47.205927986651659" lon="6.054993979632855">
        <ele>417.82999999999998</ele>
        <time>2025-04-23T13:31:59Z</time>
      </trkpt>
      <trkpt lat="47.205861015245318" lon="6.055076038464904">
        <ele>417.35000000000002</ele>
        <time>2025-04-23T13:32:00Z</time>
      </trkpt>
      <trkpt lat="47.205806029960513" lon="6.055140998214483">
        <ele>416.87</ele>
        <time>2025-04-23T13:32:01Z</time>
      </trkpt>
      <trkpt lat="47.205695975571871" lon="6.055159019306302">
        <ele>415.91000000000003</ele>
        <time>2025-04-23T13:32:02Z</time>
      </trkpt>
      <trkpt lat="47.205600002780557" lon="6.05517502874136">
        <ele>415.43000000000001</ele>
        <time>2025-04-23T13:32:03Z</time>
      </trkpt>
      <trkpt lat="47.205506963655353" lon="6.05515499599278">
        <ele>414.94999999999999</ele>
        <time>2025-04-23T13:32:04Z</time>
      </trkpt>
      <trkpt lat="47.2054130025208" lon="6.05508903041482">
        <ele>414.94999999999999</ele>
        <time>2025-04-23T13:32:05Z</time>
      </trkpt>
      <trkpt lat="47.205313006415963" lon="6.055019963532686">
        <ele>414.47000000000003</ele>
        <time>2025-04-23T13:32:06Z</time>
      </trkpt>
      <trkpt lat="47.205195995047688" lon="6.054938994348049">
        <ele>413.98000000000002</ele>
        <time>2025-04-23T13:32:07Z</time>
      </trkpt>
      <trkpt lat="47.205060962587595" lon="6.054845033213496">
        <ele>413.01999999999998</ele>
        <time>2025-04-23T13:32:08Z</time>
      </trkpt>
      <trkpt lat="47.20492098480463" lon="6.054746964946389">
        <ele>412.06</ele>
        <time>2025-04-23T13:32:09Z</time>
      </trkpt>
      <trkpt lat="47.204766003414989" lon="6.054645963013172">
        <ele>411.57999999999998</ele>
        <time>2025-04-23T13:32:10Z</time>
      </trkpt>
      <trkpt lat="47.204609010368586" lon="6.054626014083624">
        <ele>410.62</ele>
        <time>2025-04-23T13:32:11Z</time>
      </trkpt>
      <trkpt lat="47.204448999837041" lon="6.054604975506663">
        <ele>409.66000000000003</ele>
        <time>2025-04-23T13:32:12Z</time>
      </trkpt>
      <trkpt lat="47.204287983477116" lon="6.054585026577115">
        <ele>408.69999999999999</ele>
        <time>2025-04-23T13:32:13Z</time>
      </trkpt>
      <trkpt lat="47.203818010166287" lon="6.054487964138389">
        <ele>406.29000000000002</ele>
        <time>2025-04-23T13:32:16Z</time>
      </trkpt>
      <trkpt lat="47.203667974099517" lon="6.05442401021719">
        <ele>405.32999999999998</ele>
        <time>2025-04-23T13:32:17Z</time>
      </trkpt>
      <trkpt lat="47.202486963942647" lon="6.05347802862525">
        <ele>397.16000000000003</ele>
        <time>2025-04-23T13:32:26Z</time>
      </trkpt>
      <trkpt lat="47.202292000874877" lon="6.053260015323758">
        <ele>395.24000000000001</ele>
        <time>2025-04-23T13:32:28Z</time>
      </trkpt>
      <trkpt lat="47.202173983678222" lon="6.053166976198554">
        <ele>394.75999999999999</ele>
        <time>2025-04-23T13:32:29Z</time>
      </trkpt>
      <trkpt lat="47.202052026987076" lon="6.053082989528775">
        <ele>393.80000000000001</ele>
        <time>2025-04-23T13:32:30Z</time>
      </trkpt>
      <trkpt lat="47.201928980648518" lon="6.052997997030616">
        <ele>393.31999999999999</ele>
        <time>2025-04-23T13:32:31Z</time>
      </trkpt>
      <trkpt lat="47.201812975108624" lon="6.052917027845979">
        <ele>392.83999999999997</ele>
        <time>2025-04-23T13:32:32Z</time>
      </trkpt>
      <trkpt lat="47.201695963740349" lon="6.052824994549155">
        <ele>392.36000000000001</ele>
        <time>2025-04-23T13:32:33Z</time>
      </trkpt>
      <trkpt lat="47.201610971242189" lon="6.052687028422952">
        <ele>391.38999999999999</ele>
        <time>2025-04-23T13:32:34Z</time>
      </trkpt>
      <trkpt lat="47.201522961258888" lon="6.052532969042659">
        <ele>391.38999999999999</ele>
        <time>2025-04-23T13:32:35Z</time>
      </trkpt>
      <trkpt lat="47.201450960710645" lon="6.052359966561198">
        <ele>390.91000000000003</ele>
        <time>2025-04-23T13:32:36Z</time>
      </trkpt>
      <trkpt lat="47.201378038153052" lon="6.052185036242008">
        <ele>390.43000000000001</ele>
        <time>2025-04-23T13:32:37Z</time>
      </trkpt>
      <trkpt lat="47.201305031776428" lon="6.052013039588928">
        <ele>389.94999999999999</ele>
        <time>2025-04-23T13:32:38Z</time>
      </trkpt>
      <trkpt lat="47.201087018474936" lon="6.05152202770114">
        <ele>389.47000000000003</ele>
        <time>2025-04-23T13:32:41Z</time>
      </trkpt>
      <trkpt lat="47.200927007943392" lon="6.051217010244727">
        <ele>388.99000000000001</ele>
        <time>2025-04-23T13:32:43Z</time>
      </trkpt>
      <trkpt lat="47.200823994353414" lon="6.051091030240059">
        <ele>388.50999999999999</ele>
        <time>2025-04-23T13:32:44Z</time>
      </trkpt>
      <trkpt lat="47.200437001883984" lon="6.050677970051765">
        <ele>385.14999999999998</ele>
        <time>2025-04-23T13:32:48Z</time>
      </trkpt>
      <trkpt lat="47.200359972193837" lon="6.050616027787328">
        <ele>384.18000000000001</ele>
        <time>2025-04-23T13:32:49Z</time>
      </trkpt>
      <trkpt lat="47.200288977473974" lon="6.050628013908863">
        <ele>383.69999999999999</ele>
        <time>2025-04-23T13:32:50Z</time>
      </trkpt>
      <trkpt lat="47.200213959440589" lon="6.050644023343921">
        <ele>383.69999999999999</ele>
        <time>2025-04-23T13:32:51Z</time>
      </trkpt>
      <trkpt lat="47.200140031054616" lon="6.050693979486823">
        <ele>383.22000000000003</ele>
        <time>2025-04-23T13:32:52Z</time>
      </trkpt>
      <trkpt lat="47.200073981657624" lon="6.050805039703846">
        <ele>382.74000000000001</ele>
        <time>2025-04-23T13:32:53Z</time>
      </trkpt>
      <trkpt lat="47.19999804161489" lon="6.050931019708514">
        <ele>382.25999999999999</ele>
        <time>2025-04-23T13:32:54Z</time>
      </trkpt>
      <trkpt lat="47.199842976406217" lon="6.051188008859754">
        <ele>381.77999999999997</ele>
        <time>2025-04-23T13:32:56Z</time>
      </trkpt>
      <trkpt lat="47.199755972251296" lon="6.0512650385499">
        <ele>381.30000000000001</ele>
        <time>2025-04-23T13:32:57Z</time>
      </trkpt>
      <trkpt lat="47.199668968096375" lon="6.051321029663086">
        <ele>381.30000000000001</ele>
        <time>2025-04-23T13:32:58Z</time>
      </trkpt>
      <trkpt lat="47.19956997781992" lon="6.051321029663086">
        <ele>381.30000000000001</ele>
        <time>2025-04-23T13:32:59Z</time>
      </trkpt>
      <trkpt lat="47.199457995593548" lon="6.051321029663086">
        <ele>380.81999999999999</ele>
        <time>2025-04-23T13:33:00Z</time>
      </trkpt>
      <trkpt lat="47.199342995882034" lon="6.051289010792971">
        <ele>380.81999999999999</ele>
        <time>2025-04-23T13:33:01Z</time>
      </trkpt>
      <trkpt lat="47.199221961200237" lon="6.051247017458081">
        <ele>380.81999999999999</ele>
        <time>2025-04-23T13:33:02Z</time>
      </trkpt>
      <trkpt lat="47.199095981195569" lon="6.05120200663805">
        <ele>380.81999999999999</ele>
        <time>2025-04-23T13:33:03Z</time>
      </trkpt>
      <trkpt lat="47.198978969827294" lon="6.051121959462762">
        <ele>380.81999999999999</ele>
        <time>2025-04-23T13:33:04Z</time>
      </trkpt>
      <trkpt lat="47.1988629642874" lon="6.05103000998497">
        <ele>380.81999999999999</ele>
        <time>2025-04-23T13:33:05Z</time>
      </trkpt>
      <trkpt lat="47.198057966306806" lon="6.050547966733575">
        <ele>385.14999999999998</ele>
        <time>2025-04-23T13:33:12Z</time>
      </trkpt>
      <trkpt lat="47.19793600961566" lon="6.050530029460788">
        <ele>386.11000000000001</ele>
        <time>2025-04-23T13:33:13Z</time>
      </trkpt>
      <trkpt lat="47.197809023782611" lon="6.050509996712208">
        <ele>386.58999999999997</ele>
        <time>2025-04-23T13:33:14Z</time>
      </trkpt>
      <trkpt lat="47.196951974183321" lon="6.050572022795677">
        <ele>387.06999999999999</ele>
        <time>2025-04-23T13:33:20Z</time>
      </trkpt>
      <trkpt lat="47.196805039420724" lon="6.050563976168633">
        <ele>387.06999999999999</ele>
        <time>2025-04-23T13:33:21Z</time>
      </trkpt>
      <trkpt lat="47.196662966161966" lon="6.05055601336062">
        <ele>387.06999999999999</ele>
        <time>2025-04-23T13:33:22Z</time>
      </trkpt>
      <trkpt lat="47.196531035006046" lon="6.050550984218717">
        <ele>387.55000000000001</ele>
        <time>2025-04-23T13:33:23Z</time>
      </trkpt>
      <trkpt lat="47.196402959525585" lon="6.050603035837412">
        <ele>387.55000000000001</ele>
        <time>2025-04-23T13:33:24Z</time>
      </trkpt>
      <trkpt lat="47.196267005056143" lon="6.050658021122217">
        <ele>387.55000000000001</ele>
        <time>2025-04-23T13:33:25Z</time>
      </trkpt>
      <trkpt lat="47.196124009788036" lon="6.050716023892164">
        <ele>387.06999999999999</ele>
        <time>2025-04-23T13:33:26Z</time>
      </trkpt>
      <trkpt lat="47.195534007623792" lon="6.050926996394992">
        <ele>384.66000000000003</ele>
        <time>2025-04-23T13:33:30Z</time>
      </trkpt>
      <trkpt lat="47.195391012355685" lon="6.050946023315191">
        <ele>384.18000000000001</ele>
        <time>2025-04-23T13:33:31Z</time>
      </trkpt>
      <trkpt lat="47.195255979895592" lon="6.050934959203005">
        <ele>384.18000000000001</ele>
        <time>2025-04-23T13:33:32Z</time>
      </trkpt>
      <trkpt lat="47.195117007941008" lon="6.050882991403341">
        <ele>384.18000000000001</ele>
        <time>2025-04-23T13:33:33Z</time>
      </trkpt>
      <trkpt lat="47.194977030158043" lon="6.050831023603678">
        <ele>384.18000000000001</ele>
        <time>2025-04-23T13:33:34Z</time>
      </trkpt>
      <trkpt lat="47.19422098249197" lon="6.050548972561956">
        <ele>383.22000000000003</ele>
        <time>2025-04-23T13:33:39Z</time>
      </trkpt>
      <trkpt lat="47.194078993052244" lon="6.050461968407035">
        <ele>383.22000000000003</ele>
        <time>2025-04-23T13:33:40Z</time>
      </trkpt>
      <trkpt lat="47.193372985348105" lon="6.050027031451464">
        <ele>381.30000000000001</ele>
        <time>2025-04-23T13:33:45Z</time>
      </trkpt>
      <trkpt lat="47.193238036707044" lon="6.049943966791034">
        <ele>380.81999999999999</ele>
        <time>2025-04-23T13:33:46Z</time>
      </trkpt>
      <trkpt lat="47.193095963448286" lon="6.049917982891202">
        <ele>380.81999999999999</ele>
        <time>2025-04-23T13:33:47Z</time>
      </trkpt>
      <trkpt lat="47.192956991493702" lon="6.049907002598047">
        <ele>380.33999999999997</ele>
        <time>2025-04-23T13:33:48Z</time>
      </trkpt>
      <trkpt lat="47.19282497651875" lon="6.049967017024756">
        <ele>380.33999999999997</ele>
        <time>2025-04-23T13:33:49Z</time>
      </trkpt>
      <trkpt lat="47.192700002342463" lon="6.05004002340138">
        <ele>379.86000000000001</ele>
        <time>2025-04-23T13:33:50Z</time>
      </trkpt>
      <trkpt lat="47.192572010681033" lon="6.050115041434765">
        <ele>379.86000000000001</ele>
        <time>2025-04-23T13:33:51Z</time>
      </trkpt>
      <trkpt lat="47.192447036504745" lon="6.050187963992357">
        <ele>379.38</ele>
        <time>2025-04-23T13:33:52Z</time>
      </trkpt>
      <trkpt lat="47.192317033186555" lon="6.05021202005446">
        <ele>379.38</ele>
        <time>2025-04-23T13:33:53Z</time>
      </trkpt>
      <trkpt lat="47.192186024039984" lon="6.050221994519234">
        <ele>379.38</ele>
        <time>2025-04-23T13:33:54Z</time>
      </trkpt>
      <trkpt lat="47.192060966044664" lon="6.05019198730588">
        <ele>378.89999999999998</ele>
        <time>2025-04-23T13:33:55Z</time>
      </trkpt>
      <trkpt lat="47.191932974383235" lon="6.050112023949623">
        <ele>378.89999999999998</ele>
        <time>2025-04-23T13:33:56Z</time>
      </trkpt>
      <trkpt lat="47.191798025742173" lon="6.050028037279844">
        <ele>378.42000000000002</ele>
        <time>2025-04-23T13:33:57Z</time>
      </trkpt>
      <trkpt lat="47.191658969968557" lon="6.049941033124924">
        <ele>377.94</ele>
        <time>2025-04-23T13:33:58Z</time>
      </trkpt>
      <trkpt lat="47.19140499830246" lon="6.049685971811414">
        <ele>376.97000000000003</ele>
        <time>2025-04-23T13:34:00Z</time>
      </trkpt>
      <trkpt lat="47.191283041611314" lon="6.049549011513591">
        <ele>376.97000000000003</ele>
        <time>2025-04-23T13:34:01Z</time>
      </trkpt>
      <trkpt lat="47.191163012757897" lon="6.049415990710259">
        <ele>376.49000000000001</ele>
        <time>2025-04-23T13:34:02Z</time>
      </trkpt>
      <trkpt lat="47.191043989732862" lon="6.049282969906926">
        <ele>376.00999999999999</ele>
        <time>2025-04-23T13:34:03Z</time>
      </trkpt>
      <trkpt lat="47.190902000293136" lon="6.049188002943993">
        <ele>376.00999999999999</ele>
        <time>2025-04-23T13:34:04Z</time>
      </trkpt>
      <trkpt lat="47.190751964226365" lon="6.049098987132311">
        <ele>376.00999999999999</ele>
        <time>2025-04-23T13:34:05Z</time>
      </trkpt>
      <trkpt lat="47.190593965351582" lon="6.049044001847506">
        <ele>375.52999999999997</ele>
        <time>2025-04-23T13:34:06Z</time>
      </trkpt>
      <trkpt lat="47.190434960648417" lon="6.0489890165627">
        <ele>375.05000000000001</ele>
        <time>2025-04-23T13:34:07Z</time>
      </trkpt>
      <trkpt lat="47.189102992415428" lon="6.048751976341009">
        <ele>373.13</ele>
        <time>2025-04-23T13:34:16Z</time>
      </trkpt>
      <trkpt lat="47.188779031857848" lon="6.048717023804784">
        <ele>372.64999999999998</ele>
        <time>2025-04-23T13:34:20Z</time>
      </trkpt>
      <trkpt lat="47.188738966360688" lon="6.048705037683249">
        <ele>372.64999999999998</ele>
        <time>2025-04-23T13:34:21Z</time>
      </trkpt>
      <trkpt lat="47.188706025481224" lon="6.048694979399443">
        <ele>372.17000000000002</ele>
        <time>2025-04-23T13:34:22Z</time>
      </trkpt>
      <trkpt lat="47.188677024096251" lon="6.048610992729664">
        <ele>372.17000000000002</ele>
        <time>2025-04-23T13:34:23Z</time>
      </trkpt>
      <trkpt lat="47.188694039359689" lon="6.048535974696279">
        <ele>371.69</ele>
        <time>2025-04-23T13:34:24Z</time>
      </trkpt>
      <trkpt lat="47.188717005774379" lon="6.048433966934681">
        <ele>371.69</ele>
        <time>2025-04-23T13:34:25Z</time>
      </trkpt>
      <trkpt lat="47.188747012987733" lon="6.048296000808477">
        <ele>371.20999999999998</ele>
        <time>2025-04-23T13:34:26Z</time>
      </trkpt>
      <trkpt lat="47.188770985230803" lon="6.048175971955061">
        <ele>371.20999999999998</ele>
        <time>2025-04-23T13:34:27Z</time>
      </trkpt>
      <trkpt lat="47.189060999080539" lon="6.047099987044931">
        <ele>369.75999999999999</ele>
        <time>2025-04-23T13:34:35Z</time>
      </trkpt>
      <trkpt lat="47.189121013507247" lon="6.046994961798191">
        <ele>369.75999999999999</ele>
        <time>2025-04-23T13:34:36Z</time>
      </trkpt>
      <trkpt lat="47.189457966014743" lon="6.046415017917752">
        <ele>368.31999999999999</ele>
        <time>2025-04-23T13:34:41Z</time>
      </trkpt>
      <trkpt lat="47.18953600153327" lon="6.046280991286039">
        <ele>367.83999999999997</ele>
        <time>2025-04-23T13:34:42Z</time>
      </trkpt>
      <trkpt lat="47.189770024269819" lon="6.045858962461352">
        <ele>367.36000000000001</ele>
        <time>2025-04-23T13:34:45Z</time>
      </trkpt>
      <trkpt lat="47.190089039504528" lon="6.044888002797961">
        <ele>365.44</ele>
        <time>2025-04-23T13:34:51Z</time>
      </trkpt>
      <trkpt lat="47.190141007304192" lon="6.044723968952894">
        <ele>364.95999999999998</ele>
        <time>2025-04-23T13:34:52Z</time>
      </trkpt>
      <trkpt lat="47.190258018672466" lon="6.044406965374947">
        <ele>364.95999999999998</ele>
        <time>2025-04-23T13:34:54Z</time>
      </trkpt>
      <trkpt lat="47.190318033099174" lon="6.04426103644073">
        <ele>364.48000000000002</ele>
        <time>2025-04-23T13:34:55Z</time>
      </trkpt>
      <trkpt lat="47.190436972305179" lon="6.043972028419375">
        <ele>363.51999999999998</ele>
        <time>2025-04-23T13:34:57Z</time>
      </trkpt>
      <trkpt lat="47.190492963418365" lon="6.043822998180986">
        <ele>363.04000000000002</ele>
        <time>2025-04-23T13:34:58Z</time>
      </trkpt>
      <trkpt lat="47.190535040572286" lon="6.043651001527906">
        <ele>362.55000000000001</ele>
        <time>2025-04-23T13:34:59Z</time>
      </trkpt>
      <trkpt lat="47.190578039735556" lon="6.043476993218064">
        <ele>362.06999999999999</ele>
        <time>2025-04-23T13:35:00Z</time>
      </trkpt>
      <trkpt lat="47.190621038898826" lon="6.043300973251462">
        <ele>361.58999999999997</ele>
        <time>2025-04-23T13:35:01Z</time>
      </trkpt>
      <trkpt lat="47.190701002255082" lon="6.042967038229108">
        <ele>361.11000000000001</ele>
        <time>2025-04-23T13:35:03Z</time>
      </trkpt>
      <trkpt lat="47.190713994204998" lon="6.042785989120603">
        <ele>360.63</ele>
        <time>2025-04-23T13:35:04Z</time>
      </trkpt>
      <trkpt lat="47.190755987539887" lon="6.042210990563035">
        <ele>359.67000000000002</ele>
        <time>2025-04-23T13:35:07Z</time>
      </trkpt>
      <trkpt lat="47.190792029723525" lon="6.042021978646517">
        <ele>359.67000000000002</ele>
        <time>2025-04-23T13:35:08Z</time>
      </trkpt>
      <trkpt lat="47.190856989473104" lon="6.04185601696372">
        <ele>359.19</ele>
        <time>2025-04-23T13:35:09Z</time>
      </trkpt>
      <trkpt lat="47.190923960879445" lon="6.041685026139021">
        <ele>358.70999999999998</ele>
        <time>2025-04-23T13:35:10Z</time>
      </trkpt>
      <trkpt lat="47.190994033589959" lon="6.041505988687277">
        <ele>358.70999999999998</ele>
        <time>2025-04-23T13:35:11Z</time>
      </trkpt>
      <trkpt lat="47.191291004419327" lon="6.040644999593496">
        <ele>357.75</ele>
        <time>2025-04-23T13:35:16Z</time>
      </trkpt>
      <trkpt lat="47.191323023289442" lon="6.040469985455275">
        <ele>357.75</ele>
        <time>2025-04-23T13:35:17Z</time>
      </trkpt>
      <trkpt lat="47.191351018846035" lon="6.040301006287336">
        <ele>357.75</ele>
        <time>2025-04-23T13:35:18Z</time>
      </trkpt>
      <trkpt lat="47.191367028281093" lon="6.040139989927411">
        <ele>358.23000000000002</ele>
        <time>2025-04-23T13:35:19Z</time>
      </trkpt>
      <trkpt lat="47.191373985260725" lon="6.039990037679672">
        <ele>358.23000000000002</ele>
        <time>2025-04-23T13:35:20Z</time>
      </trkpt>
      <trkpt lat="47.191383959725499" lon="6.03975098580122">
        <ele>358.70999999999998</ele>
        <time>2025-04-23T13:35:22Z</time>
      </trkpt>
      <trkpt lat="47.191386977210641" lon="6.039690971374512">
        <ele>358.70999999999998</ele>
        <time>2025-04-23T13:35:23Z</time>
      </trkpt>
      <trkpt lat="47.191446991637349" lon="6.039671022444964">
        <ele>359.19</ele>
        <time>2025-04-23T13:35:24Z</time>
      </trkpt>
      <trkpt lat="47.191502982750535" lon="6.039651995524764">
        <ele>359.19</ele>
        <time>2025-04-23T13:35:25Z</time>
      </trkpt>
      <trkpt lat="47.191540030762553" lon="6.039677979424596">
        <ele>359.67000000000002</ele>
        <time>2025-04-23T13:35:26Z</time>
      </trkpt>
      <trkpt lat="47.1915980335325" lon="6.03975098580122">
        <ele>360.14999999999998</ele>
        <time>2025-04-23T13:35:27Z</time>
      </trkpt>
      <trkpt lat="47.191670034080744" lon="6.039833966642618">
        <ele>360.14999999999998</ele>
        <time>2025-04-23T13:35:28Z</time>
      </trkpt>
      <trkpt lat="47.191752009093761" lon="6.039927005767822">
        <ele>360.63</ele>
        <time>2025-04-23T13:35:29Z</time>
      </trkpt>
      <trkpt lat="47.191828032955527" lon="6.040014009922743">
        <ele>360.63</ele>
        <time>2025-04-23T13:35:30Z</time>
      </trkpt>
      <trkpt lat="47.191909002140164" lon="6.040093973278999">
        <ele>361.11000000000001</ele>
        <time>2025-04-23T13:35:31Z</time>
      </trkpt>
      <trkpt lat="47.191953007131815" lon="6.040067989379168">
        <ele>360.63</ele>
        <time>2025-04-23T13:35:32Z</time>
      </trkpt>
      <trkpt lat="47.191989971324801" lon="6.040046028792858">
        <ele>360.63</ele>
        <time>2025-04-23T13:35:33Z</time>
      </trkpt>
      <trkpt lat="47.191990977153182" lon="6.039931029081345">
        <ele>360.63</ele>
        <time>2025-04-23T13:35:34Z</time>
      </trkpt>
      <trkpt lat="47.191975973546505" lon="6.039846036583185">
        <ele>360.63</ele>
        <time>2025-04-23T13:35:35Z</time>
      </trkpt>
      <trkpt lat="47.191958958283067" lon="6.039744028821588">
        <ele>360.63</ele>
        <time>2025-04-23T13:35:36Z</time>
      </trkpt>
      <trkpt lat="47.191939009353518" lon="6.039631040766835">
        <ele>361.11000000000001</ele>
        <time>2025-04-23T13:35:37Z</time>
      </trkpt>
      <trkpt lat="47.191947977989912" lon="6.039471030235291">
        <ele>361.58999999999997</ele>
        <time>2025-04-23T13:35:38Z</time>
      </trkpt>
      <trkpt lat="47.191989971324801" lon="6.039352007210255">
        <ele>362.55000000000001</ele>
        <time>2025-04-23T13:35:39Z</time>
      </trkpt>
      <trkpt lat="47.192035987973213" lon="6.039224015548825">
        <ele>363.51999999999998</ele>
        <time>2025-04-23T13:35:40Z</time>
      </trkpt>
      <trkpt lat="47.192083010450006" lon="6.039092000573874">
        <ele>364.95999999999998</ele>
        <time>2025-04-23T13:35:41Z</time>
      </trkpt>
      <trkpt lat="47.192127015441656" lon="6.038969038054347">
        <ele>365.92000000000002</ele>
        <time>2025-04-23T13:35:42Z</time>
      </trkpt>
      <trkpt lat="47.192150987684727" lon="6.038839034736157">
        <ele>366.88</ele>
        <time>2025-04-23T13:35:43Z</time>
      </trkpt>
      <trkpt lat="47.192169008776546" lon="6.038701990619302">
        <ele>367.83999999999997</ele>
        <time>2025-04-23T13:35:44Z</time>
      </trkpt>
      <trkpt lat="47.192174959927797" lon="6.038567963987589">
        <ele>368.80000000000001</ele>
        <time>2025-04-23T13:35:45Z</time>
      </trkpt>
      <trkpt lat="47.192158028483391" lon="6.038425974547863">
        <ele>369.75999999999999</ele>
        <time>2025-04-23T13:35:46Z</time>
      </trkpt>
      <trkpt lat="47.192141013219953" lon="6.038281973451376">
        <ele>371.20999999999998</ele>
        <time>2025-04-23T13:35:47Z</time>
      </trkpt>
      <trkpt lat="47.192147970199585" lon="6.038141995668411">
        <ele>372.64999999999998</ele>
        <time>2025-04-23T13:35:48Z</time>
      </trkpt>
      <trkpt lat="47.192162973806262" lon="6.038006963208318">
        <ele>374.08999999999997</ele>
        <time>2025-04-23T13:35:49Z</time>
      </trkpt>
      <trkpt lat="47.192207984626293" lon="6.037891963496804">
        <ele>375.05000000000001</ele>
        <time>2025-04-23T13:35:50Z</time>
      </trkpt>
      <trkpt lat="47.192254001274705" lon="6.037771012634039">
        <ele>376.00999999999999</ele>
        <time>2025-04-23T13:35:51Z</time>
      </trkpt>
      <trkpt lat="47.192301023751497" lon="6.037647966295481">
        <ele>376.97000000000003</ele>
        <time>2025-04-23T13:35:52Z</time>
      </trkpt>
      <trkpt lat="47.192347040399909" lon="6.037529027089477">
        <ele>377.44999999999999</ele>
        <time>2025-04-23T13:35:53Z</time>
      </trkpt>
      <trkpt lat="47.192407976835966" lon="6.037306990474463">
        <ele>378.42000000000002</ele>
        <time>2025-04-23T13:35:55Z</time>
      </trkpt>
      <trkpt lat="47.192677035927773" lon="6.036416999995709">
        <ele>381.77999999999997</ele>
        <time>2025-04-23T13:36:02Z</time>
      </trkpt>
      <trkpt lat="47.192747024819255" lon="6.036268975585699">
        <ele>382.25999999999999</ele>
        <time>2025-04-23T13:36:03Z</time>
      </trkpt>
      <trkpt lat="47.19282397069037" lon="6.036107959225774">
        <ele>382.74000000000001</ele>
        <time>2025-04-23T13:36:04Z</time>
      </trkpt>
      <trkpt lat="47.193276006728411" lon="6.03545299731195">
        <ele>385.14999999999998</ele>
        <time>2025-04-23T13:36:09Z</time>
      </trkpt>
      <trkpt lat="47.193910013884306" lon="6.034522019326687">
        <ele>385.63</ele>
        <time>2025-04-23T13:36:15Z</time>
      </trkpt>
      <trkpt lat="47.193985031917691" lon="6.034354967996478">
        <ele>385.63</ele>
        <time>2025-04-23T13:36:16Z</time>
      </trkpt>
      <trkpt lat="47.194043034687638" lon="6.034178026020527">
        <ele>386.11000000000001</ele>
        <time>2025-04-23T13:36:17Z</time>
      </trkpt>
      <trkpt lat="47.194083016365767" lon="6.033979039639235">
        <ele>386.58999999999997</ele>
        <time>2025-04-23T13:36:18Z</time>
      </trkpt>
      <trkpt lat="47.19411201775074" lon="6.033766977488995">
        <ele>387.06999999999999</ele>
        <time>2025-04-23T13:36:19Z</time>
      </trkpt>
      <trkpt lat="47.19411201775074" lon="6.033549970015883">
        <ele>387.06999999999999</ele>
        <time>2025-04-23T13:36:20Z</time>
      </trkpt>
      <trkpt lat="47.19411201775074" lon="6.033342014998198">
        <ele>388.02999999999997</ele>
        <time>2025-04-23T13:36:21Z</time>
      </trkpt>
      <trkpt lat="47.19411201775074" lon="6.03315400891006">
        <ele>388.50999999999999</ele>
        <time>2025-04-23T13:36:22Z</time>
      </trkpt>
      <trkpt lat="47.19411201775074" lon="6.032991986721754">
        <ele>388.99000000000001</ele>
        <time>2025-04-23T13:36:23Z</time>
      </trkpt>
      <trkpt lat="47.194157028570771" lon="6.032838011160493">
        <ele>389.94999999999999</ele>
        <time>2025-04-23T13:36:24Z</time>
      </trkpt>
      <trkpt lat="47.194221988320351" lon="6.032700967043638">
        <ele>390.43000000000001</ele>
        <time>2025-04-23T13:36:25Z</time>
      </trkpt>
      <trkpt lat="47.194288959726691" lon="6.032558977603912">
        <ele>391.38999999999999</ele>
        <time>2025-04-23T13:36:26Z</time>
      </trkpt>
      <trkpt lat="47.194375041872263" lon="6.032428974285722">
        <ele>392.36000000000001</ele>
        <time>2025-04-23T13:36:27Z</time>
      </trkpt>
      <trkpt lat="47.194471014663577" lon="6.032325038686395">
        <ele>393.31999999999999</ele>
        <time>2025-04-23T13:36:28Z</time>
      </trkpt>
      <trkpt lat="47.194565981626511" lon="6.032221019268036">
        <ele>393.80000000000001</ele>
        <time>2025-04-23T13:36:29Z</time>
      </trkpt>
      <trkpt lat="47.194662038236856" lon="6.032118005678058">
        <ele>394.27999999999997</ele>
        <time>2025-04-23T13:36:30Z</time>
      </trkpt>
      <trkpt lat="47.194759016856551" lon="6.032011974602938">
        <ele>394.75999999999999</ele>
        <time>2025-04-23T13:36:31Z</time>
      </trkpt>
      <trkpt lat="47.194840991869569" lon="6.031922958791256">
        <ele>395.24000000000001</ele>
        <time>2025-04-23T13:36:32Z</time>
      </trkpt>
      <trkpt lat="47.194925984367728" lon="6.031790021806955">
        <ele>395.72000000000003</ele>
        <time>2025-04-23T13:36:33Z</time>
      </trkpt>
      <trkpt lat="47.19499203376472" lon="6.031687008216977">
        <ele>396.68000000000001</ele>
        <time>2025-04-23T13:36:34Z</time>
      </trkpt>
      <trkpt lat="47.19499203376472" lon="6.031532026827335">
        <ele>397.16000000000003</ele>
        <time>2025-04-23T13:36:35Z</time>
      </trkpt>
      <trkpt lat="47.19499203376472" lon="6.031384002417326">
        <ele>397.16000000000003</ele>
        <time>2025-04-23T13:36:36Z</time>
      </trkpt>
      <trkpt lat="47.194991027936339" lon="6.031235978007317">
        <ele>398.12</ele>
        <time>2025-04-23T13:36:37Z</time>
      </trkpt>
      <trkpt lat="47.194935958832502" lon="6.031074039638042">
        <ele>398.60000000000002</ele>
        <time>2025-04-23T13:36:38Z</time>
      </trkpt>
      <trkpt lat="47.194875022396445" lon="6.030895002186298">
        <ele>399.07999999999998</ele>
        <time>2025-04-23T13:36:39Z</time>
      </trkpt>
      <trkpt lat="47.194809978827834" lon="6.030703978613019">
        <ele>399.56999999999999</ele>
        <time>2025-04-23T13:36:40Z</time>
      </trkpt>
      <trkpt lat="47.194744013249874" lon="6.030513038858771">
        <ele>400.05000000000001</ele>
        <time>2025-04-23T13:36:41Z</time>
      </trkpt>
      <trkpt lat="47.19460504129529" lon="6.030013980343938">
        <ele>400.52999999999997</ele>
        <time>2025-04-23T13:36:44Z</time>
      </trkpt>
      <trkpt lat="47.194590959697962" lon="6.029774006456137">
        <ele>401.00999999999999</ele>
        <time>2025-04-23T13:36:45Z</time>
      </trkpt>
      <trkpt lat="47.194596994668245" lon="6.029636040329933">
        <ele>401.49000000000001</ele>
        <time>2025-04-23T13:36:46Z</time>
      </trkpt>
      <trkpt lat="47.194640999659896" lon="6.029522968456149">
        <ele>401.97000000000003</ele>
        <time>2025-04-23T13:36:47Z</time>
      </trkpt>
      <trkpt lat="47.194685004651546" lon="6.029407968744636">
        <ele>401.97000000000003</ele>
        <time>2025-04-23T13:36:48Z</time>
      </trkpt>
      <trkpt lat="47.194763040170074" lon="6.029343008995056">
        <ele>402.44999999999999</ele>
        <time>2025-04-23T13:36:49Z</time>
      </trkpt>
      <trkpt lat="47.194859012961388" lon="6.029279977083206">
        <ele>402.93000000000001</ele>
        <time>2025-04-23T13:36:50Z</time>
      </trkpt>
      <trkpt lat="47.194963032379746" lon="6.029209988191724">
        <ele>402.93000000000001</ele>
        <time>2025-04-23T13:36:51Z</time>
      </trkpt>
      <trkpt lat="47.195592010393739" lon="6.028875969350338">
        <ele>401.97000000000003</ele>
        <time>2025-04-23T13:36:57Z</time>
      </trkpt>
      <trkpt lat="47.195630986243486" lon="6.028745966032147">
        <ele>401.49000000000001</ele>
        <time>2025-04-23T13:36:58Z</time>
      </trkpt>
      <trkpt lat="47.195656970143318" lon="6.028661979362369">
        <ele>401.00999999999999</ele>
        <time>2025-04-23T13:36:59Z</time>
      </trkpt>
      <trkpt lat="47.195630986243486" lon="6.028588972985745">
        <ele>400.52999999999997</ele>
        <time>2025-04-23T13:37:00Z</time>
      </trkpt>
      <trkpt lat="47.195591004565358" lon="6.028479002416134">
        <ele>399.56999999999999</ele>
        <time>2025-04-23T13:37:01Z</time>
      </trkpt>
      <trkpt lat="47.195546999573708" lon="6.028357967734337">
        <ele>398.60000000000002</ele>
        <time>2025-04-23T13:37:02Z</time>
      </trkpt>
      <trkpt lat="47.195469969883561" lon="6.028251014649868">
        <ele>397.63999999999999</ele>
        <time>2025-04-23T13:37:03Z</time>
      </trkpt>
      <trkpt lat="47.195396963506937" lon="6.028151018545032">
        <ele>396.68000000000001</ele>
        <time>2025-04-23T13:37:04Z</time>
      </trkpt>
      <trkpt lat="47.195330997928977" lon="6.028058985248208">
        <ele>395.72000000000003</ele>
        <time>2025-04-23T13:37:05Z</time>
      </trkpt>
      <trkpt lat="47.195275006815791" lon="6.027981033548713">
        <ele>394.27999999999997</ele>
        <time>2025-04-23T13:37:06Z</time>
      </trkpt>
      <trkpt lat="47.195258997380733" lon="6.027893023565412">
        <ele>393.31999999999999</ele>
        <time>2025-04-23T13:37:07Z</time>
      </trkpt>
      <trkpt lat="47.19525002874434" lon="6.027822028845549">
        <ele>392.36000000000001</ele>
        <time>2025-04-23T13:37:08Z</time>
      </trkpt>
      <trkpt lat="47.19527299515903" lon="6.027765031903982">
        <ele>391.38999999999999</ele>
        <time>2025-04-23T13:37:09Z</time>
      </trkpt>
      <trkpt lat="47.195314988493919" lon="6.02769797667861">
        <ele>390.43000000000001</ele>
        <time>2025-04-23T13:37:10Z</time>
      </trkpt>
      <trkpt lat="47.195382965728641" lon="6.027639973908663">
        <ele>389.47000000000003</ele>
        <time>2025-04-23T13:37:11Z</time>
      </trkpt>
      <trkpt lat="47.195466030389071" lon="6.027567973360419">
        <ele>388.50999999999999</ele>
        <time>2025-04-23T13:37:12Z</time>
      </trkpt>
      <trkpt lat="47.195557979866862" lon="6.027490021660924">
        <ele>387.55000000000001</ele>
        <time>2025-04-23T13:37:13Z</time>
      </trkpt>
      <trkpt lat="47.195635009557009" lon="6.027379967272282">
        <ele>387.06999999999999</ele>
        <time>2025-04-23T13:37:14Z</time>
      </trkpt>
      <trkpt lat="47.195701980963349" lon="6.027253987267613">
        <ele>386.58999999999997</ele>
        <time>2025-04-23T13:37:15Z</time>
      </trkpt>
      <trkpt lat="47.195769958198071" lon="6.027119038626552">
        <ele>385.63</ele>
        <time>2025-04-23T13:37:16Z</time>
      </trkpt>
      <trkpt lat="47.195818992331624" lon="6.026969002559781">
        <ele>385.14999999999998</ele>
        <time>2025-04-23T13:37:17Z</time>
      </trkpt>
      <trkpt lat="47.196017978712916" lon="6.026382017880678">
        <ele>383.69999999999999</ele>
        <time>2025-04-23T13:37:21Z</time>
      </trkpt>
      <trkpt lat="47.196088973432779" lon="6.026275986805558">
        <ele>383.69999999999999</ele>
        <time>2025-04-23T13:37:22Z</time>
      </trkpt>
      <trkpt lat="47.196158040314913" lon="6.02617297321558">
        <ele>383.22000000000003</ele>
        <time>2025-04-23T13:37:23Z</time>
      </trkpt>
      <trkpt lat="47.196244960650802" lon="6.026114970445633">
        <ele>383.22000000000003</ele>
        <time>2025-04-23T13:37:24Z</time>
      </trkpt>
      <trkpt lat="47.196332970634103" lon="6.026070965453982">
        <ele>383.22000000000003</ele>
        <time>2025-04-23T13:37:25Z</time>
      </trkpt>
      <trkpt lat="47.196420980617404" lon="6.026052022352815">
        <ele>383.69999999999999</ele>
        <time>2025-04-23T13:37:26Z</time>
      </trkpt>
      <trkpt lat="47.196501027792692" lon="6.026070965453982">
        <ele>384.18000000000001</ele>
        <time>2025-04-23T13:37:27Z</time>
      </trkpt>
      <trkpt lat="47.196570010855794" lon="6.026087980717421">
        <ele>385.14999999999998</ele>
        <time>2025-04-23T13:37:28Z</time>
      </trkpt>
      <trkpt lat="47.196676963940263" lon="6.026112958788872">
        <ele>386.11000000000001</ele>
        <time>2025-04-23T13:37:30Z</time>
      </trkpt>
      <trkpt lat="47.196715017780662" lon="6.026122011244297">
        <ele>386.58999999999997</ele>
        <time>2025-04-23T13:37:31Z</time>
      </trkpt>
      <trkpt lat="47.196744019165635" lon="6.026128968223929">
        <ele>387.06999999999999</ele>
        <time>2025-04-23T13:37:32Z</time>
      </trkpt>
      <trkpt lat="47.196765979751945" lon="6.026133997365832">
        <ele>387.55000000000001</ele>
        <time>2025-04-23T13:37:33Z</time>
      </trkpt>
      <trkpt lat="47.196816019713879" lon="6.026104995980859">
        <ele>388.50999999999999</ele>
        <time>2025-04-23T13:37:40Z</time>
      </trkpt>
      <trkpt lat="47.196762962266803" lon="6.025986978784204">
        <ele>389.47000000000003</ele>
        <time>2025-04-23T13:37:43Z</time>
      </trkpt>
      <trkpt lat="47.196731027215719" lon="6.02591497823596">
        <ele>389.94999999999999</ele>
        <time>2025-04-23T13:37:44Z</time>
      </trkpt>
      <trkpt lat="47.196380998939276" lon="6.02501199580729">
        <ele>391.38999999999999</ele>
        <time>2025-04-23T13:37:51Z</time>
      </trkpt>
      <trkpt lat="47.195856040343642" lon="6.023522028699517">
        <ele>392.83999999999997</ele>
        <time>2025-04-23T13:37:59Z</time>
      </trkpt>
      <trkpt lat="47.194835962727666" lon="6.021286994218826">
        <ele>395.24000000000001</ele>
        <time>2025-04-23T13:38:10Z</time>
      </trkpt>
      <trkpt lat="47.193711027503014" lon="6.019861986860633">
        <ele>396.19999999999999</ele>
        <time>2025-04-23T13:38:18Z</time>
      </trkpt>
      <trkpt lat="47.193472981452942" lon="6.019425960257649">
        <ele>396.68000000000001</ele>
        <time>2025-04-23T13:38:20Z</time>
      </trkpt>
      <trkpt lat="47.192494980990887" lon="6.018100026994944">
        <ele>398.12</ele>
        <time>2025-04-23T13:38:27Z</time>
      </trkpt>
      <trkpt lat="47.190548032522202" lon="6.016217032447457">
        <ele>391.38999999999999</ele>
        <time>2025-04-23T13:38:38Z</time>
      </trkpt>
      <trkpt lat="47.188669983297586" lon="6.014147959649563">
        <ele>384.66000000000003</ele>
        <time>2025-04-23T13:38:49Z</time>
      </trkpt>
      <trkpt lat="47.187202982604504" lon="6.012350041419268">
        <ele>381.77999999999997</ele>
        <time>2025-04-23T13:38:58Z</time>
      </trkpt>
      <trkpt lat="47.185934968292713" lon="6.010527983307838">
        <ele>384.66000000000003</ele>
        <time>2025-04-23T13:39:08Z</time>
      </trkpt>
      <trkpt lat="47.185849975794554" lon="6.010308964177966">
        <ele>385.14999999999998</ele>
        <time>2025-04-23T13:39:09Z</time>
      </trkpt>
      <trkpt lat="47.185462983325124" lon="6.009190985932946">
        <ele>387.55000000000001</ele>
        <time>2025-04-23T13:39:14Z</time>
      </trkpt>
      <trkpt lat="47.185377990826964" lon="6.008989987894893">
        <ele>388.02999999999997</ele>
        <time>2025-04-23T13:39:15Z</time>
      </trkpt>
      <trkpt lat="47.185271037742496" lon="6.00881296209991">
        <ele>388.02999999999997</ele>
        <time>2025-04-23T13:39:16Z</time>
      </trkpt>
      <trkpt lat="47.185142040252686" lon="6.008672984316945">
        <ele>388.02999999999997</ele>
        <time>2025-04-23T13:39:17Z</time>
      </trkpt>
      <trkpt lat="47.185013964772224" lon="6.008535018190742">
        <ele>388.02999999999997</ele>
        <time>2025-04-23T13:39:18Z</time>
      </trkpt>
      <trkpt lat="47.184865018352866" lon="6.008454971015453">
        <ele>387.55000000000001</ele>
        <time>2025-04-23T13:39:19Z</time>
      </trkpt>
      <trkpt lat="47.184714982286096" lon="6.008376013487577">
        <ele>387.55000000000001</ele>
        <time>2025-04-23T13:39:20Z</time>
      </trkpt>
      <trkpt lat="47.184567963704467" lon="6.00829797796905">
        <ele>387.55000000000001</ele>
        <time>2025-04-23T13:39:21Z</time>
      </trkpt>
      <trkpt lat="47.184158004820347" lon="6.007988015189767">
        <ele>387.55000000000001</ele>
        <time>2025-04-23T13:39:24Z</time>
      </trkpt>
      <trkpt lat="47.184031018987298" lon="6.007836973294616">
        <ele>387.06999999999999</ele>
        <time>2025-04-23T13:39:25Z</time>
      </trkpt>
      <trkpt lat="47.18298202380538" lon="6.006185989826918">
        <ele>388.02999999999997</ele>
        <time>2025-04-23T13:39:34Z</time>
      </trkpt>
      <trkpt lat="47.181779975071549" lon="6.004782021045685">
        <ele>384.18000000000001</ele>
        <time>2025-04-23T13:39:42Z</time>
      </trkpt>
      <trkpt lat="47.180497040972114" lon="6.0031199734658">
        <ele>375.05000000000001</ele>
        <time>2025-04-23T13:39:51Z</time>
      </trkpt>
      <trkpt lat="47.179834032431245" lon="6.001393971964717">
        <ele>370.73000000000002</ele>
        <time>2025-04-23T13:39:58Z</time>
      </trkpt>
      <trkpt lat="47.178926020860672" lon="5.997666958719492">
        <ele>370.24000000000001</ele>
        <time>2025-04-23T13:40:12Z</time>
      </trkpt>
      <trkpt lat="47.178271980956197" lon="5.995279038324952">
        <ele>375.05000000000001</ele>
        <time>2025-04-23T13:40:23Z</time>
      </trkpt>
      <trkpt lat="47.177725983783603" lon="5.992752984166145">
        <ele>377.94</ele>
        <time>2025-04-23T13:40:34Z</time>
      </trkpt>
      <trkpt lat="47.177163977175951" lon="5.990369003266096">
        <ele>381.30000000000001</ele>
        <time>2025-04-23T13:40:44Z</time>
      </trkpt>
      <trkpt lat="47.176598031073809" lon="5.986615000292659">
        <ele>381.77999999999997</ele>
        <time>2025-04-23T13:40:58Z</time>
      </trkpt>
      <trkpt lat="47.176445983350277" lon="5.984685989096761">
        <ele>380.81999999999999</ele>
        <time>2025-04-23T13:41:06Z</time>
      </trkpt>
      <trkpt lat="47.176417987793684" lon="5.984186008572578">
        <ele>381.30000000000001</ele>
        <time>2025-04-23T13:41:08Z</time>
      </trkpt>
      <trkpt lat="47.176396027207375" lon="5.98393396474421">
        <ele>381.30000000000001</ele>
        <time>2025-04-23T13:41:09Z</time>
      </trkpt>
      <trkpt lat="47.176347998902202" lon="5.98369600251317">
        <ele>381.77999999999997</ele>
        <time>2025-04-23T13:41:10Z</time>
      </trkpt>
      <trkpt lat="47.17628002166748" lon="5.983453011140227">
        <ele>381.77999999999997</ele>
        <time>2025-04-23T13:41:11Z</time>
      </trkpt>
      <trkpt lat="47.176211038604379" lon="5.983208008110523">
        <ele>381.77999999999997</ele>
        <time>2025-04-23T13:41:12Z</time>
      </trkpt>
      <trkpt lat="47.175458008423448" lon="5.981122003868222">
        <ele>381.30000000000001</ele>
        <time>2025-04-23T13:41:21Z</time>
      </trkpt>
      <trkpt lat="47.174383029341698" lon="5.978025980293751">
        <ele>387.55000000000001</ele>
        <time>2025-04-23T13:41:34Z</time>
      </trkpt>
      <trkpt lat="47.173551041632891" lon="5.975578967481852">
        <ele>389.94999999999999</ele>
        <time>2025-04-23T13:41:45Z</time>
      </trkpt>
      <trkpt lat="47.17353000305593" lon="5.975394984707236">
        <ele>389.94999999999999</ele>
        <time>2025-04-23T13:41:46Z</time>
      </trkpt>
      <trkpt lat="47.17350896447897" lon="5.975217958912253">
        <ele>390.43000000000001</ele>
        <time>2025-04-23T13:41:47Z</time>
      </trkpt>
      <trkpt lat="47.173491027206182" lon="5.97506096586585">
        <ele>390.43000000000001</ele>
        <time>2025-04-23T13:41:48Z</time>
      </trkpt>
      <trkpt lat="47.173510976135731" lon="5.974877988919616">
        <ele>390.43000000000001</ele>
        <time>2025-04-23T13:41:49Z</time>
      </trkpt>
      <trkpt lat="47.17352899722755" lon="5.974705992266536">
        <ele>390.43000000000001</ele>
        <time>2025-04-23T13:41:50Z</time>
      </trkpt>
      <trkpt lat="47.173547018319368" lon="5.974540030583739">
        <ele>389.94999999999999</ele>
        <time>2025-04-23T13:41:51Z</time>
      </trkpt>
      <trkpt lat="47.173594040796161" lon="5.974382031708956">
        <ele>389.94999999999999</ele>
        <time>2025-04-23T13:41:52Z</time>
      </trkpt>
      <trkpt lat="47.173663023859262" lon="5.974244987592101">
        <ele>389.94999999999999</ele>
        <time>2025-04-23T13:41:53Z</time>
      </trkpt>
      <trkpt lat="47.173751033842564" lon="5.974123030900955">
        <ele>389.94999999999999</ele>
        <time>2025-04-23T13:41:54Z</time>
      </trkpt>
      <trkpt lat="47.173859998583794" lon="5.974037032574415">
        <ele>389.47000000000003</ele>
        <time>2025-04-23T13:41:55Z</time>
      </trkpt>
      <trkpt lat="47.173965023830533" lon="5.973953967913985">
        <ele>388.99000000000001</ele>
        <time>2025-04-23T13:41:56Z</time>
      </trkpt>
      <trkpt lat="47.174806986004114" lon="5.973471002653241">
        <ele>384.18000000000001</ele>
        <time>2025-04-23T13:42:03Z</time>
      </trkpt>
      <trkpt lat="47.175460020080209" lon="5.973098007962108">
        <ele>379.38</ele>
        <time>2025-04-23T13:42:08Z</time>
      </trkpt>
      <trkpt lat="47.17559102922678" lon="5.97297496162355">
        <ele>378.42000000000002</ele>
        <time>2025-04-23T13:42:09Z</time>
      </trkpt>
      <trkpt lat="47.17572002671659" lon="5.972842024639249">
        <ele>377.44999999999999</ele>
        <time>2025-04-23T13:42:10Z</time>
      </trkpt>
      <trkpt lat="47.175833014771342" lon="5.972667010501027">
        <ele>376.49000000000001</ele>
        <time>2025-04-23T13:42:11Z</time>
      </trkpt>
      <trkpt lat="47.175926975905895" lon="5.972483027726412">
        <ele>375.05000000000001</ele>
        <time>2025-04-23T13:42:12Z</time>
      </trkpt>
      <trkpt lat="47.176001993939281" lon="5.972273983061314">
        <ele>374.08999999999997</ele>
        <time>2025-04-23T13:42:13Z</time>
      </trkpt>
      <trkpt lat="47.176073994487524" lon="5.972065022215247">
        <ele>372.64999999999998</ele>
        <time>2025-04-23T13:42:14Z</time>
      </trkpt>
      <trkpt lat="47.176131997257471" lon="5.971825970336795">
        <ele>372.17000000000002</ele>
        <time>2025-04-23T13:42:15Z</time>
      </trkpt>
      <trkpt lat="47.176801040768623" lon="5.968972016125917">
        <ele>369.75999999999999</ele>
        <time>2025-04-23T13:42:27Z</time>
      </trkpt>
      <trkpt lat="47.177031962200999" lon="5.966321993619204">
        <ele>364.48000000000002</ele>
        <time>2025-04-23T13:42:38Z</time>
      </trkpt>
      <trkpt lat="47.177031962200999" lon="5.966112026944757">
        <ele>364</ele>
        <time>2025-04-23T13:42:39Z</time>
      </trkpt>
      <trkpt lat="47.177031962200999" lon="5.965910023078322">
        <ele>363.51999999999998</ele>
        <time>2025-04-23T13:42:40Z</time>
      </trkpt>
      <trkpt lat="47.17701100744307" lon="5.965723022818565">
        <ele>363.04000000000002</ele>
        <time>2025-04-23T13:42:41Z</time>
      </trkpt>
      <trkpt lat="47.176959961652756" lon="5.965557983145118">
        <ele>362.55000000000001</ele>
        <time>2025-04-23T13:42:42Z</time>
      </trkpt>
      <trkpt lat="47.176896007731557" lon="5.965420017018914">
        <ele>362.06999999999999</ele>
        <time>2025-04-23T13:42:43Z</time>
      </trkpt>
      <trkpt lat="47.176829958334565" lon="5.965297976508737">
        <ele>361.58999999999997</ele>
        <time>2025-04-23T13:42:44Z</time>
      </trkpt>
      <trkpt lat="47.176758041605353" lon="5.965194962918758">
        <ele>361.11000000000001</ele>
        <time>2025-04-23T13:42:45Z</time>
      </trkpt>
      <trkpt lat="47.176672965288162" lon="5.965109970420599">
        <ele>360.63</ele>
        <time>2025-04-23T13:42:46Z</time>
      </trkpt>
      <trkpt lat="47.176585961133242" lon="5.965022966265678">
        <ele>360.14999999999998</ele>
        <time>2025-04-23T13:42:47Z</time>
      </trkpt>
      <trkpt lat="47.176499040797353" lon="5.964935962110758">
        <ele>359.67000000000002</ele>
        <time>2025-04-23T13:42:48Z</time>
      </trkpt>
      <trkpt lat="47.176205003634095" lon="5.964604960754514">
        <ele>358.23000000000002</ele>
        <time>2025-04-23T13:42:52Z</time>
      </trkpt>
      <trkpt lat="47.176156975328922" lon="5.96453296020627">
        <ele>357.75</ele>
        <time>2025-04-23T13:42:53Z</time>
      </trkpt>
      <trkpt lat="47.176152030006051" lon="5.964492978528142">
        <ele>357.26999999999998</ele>
        <time>2025-04-23T13:42:54Z</time>
      </trkpt>
      <trkpt lat="47.176152030006051" lon="5.964440004900098">
        <ele>357.26999999999998</ele>
        <time>2025-04-23T13:42:55Z</time>
      </trkpt>
      <trkpt lat="47.176152030006051" lon="5.964398011565208">
        <ele>356.79000000000002</ele>
        <time>2025-04-23T13:42:56Z</time>
      </trkpt>
      <trkpt lat="47.176152030006051" lon="5.964374961331487">
        <ele>356.79000000000002</ele>
        <time>2025-04-23T13:42:57Z</time>
      </trkpt>
      <trkpt lat="47.176157981157303" lon="5.964362975209951">
        <ele>356.31</ele>
        <time>2025-04-23T13:42:58Z</time>
      </trkpt>
      <trkpt lat="47.176157981157303" lon="5.964362975209951">
        <ele>356.31</ele>
        <time>2025-04-23T13:42:59Z</time>
      </trkpt>
      <trkpt lat="47.17628002166748" lon="5.964160971343517">
        <ele>355.82999999999998</ele>
        <time>2025-04-23T13:43:08Z</time>
      </trkpt>
      <trkpt lat="47.17630198225379" lon="5.964054018259049">
        <ele>355.82999999999998</ele>
        <time>2025-04-23T13:43:09Z</time>
      </trkpt>
      <trkpt lat="47.176278010010719" lon="5.963979000225663">
        <ele>355.82999999999998</ele>
        <time>2025-04-23T13:43:10Z</time>
      </trkpt>
      <trkpt lat="47.176255965605378" lon="5.963914962485433">
        <ele>355.82999999999998</ele>
        <time>2025-04-23T13:43:11Z</time>
      </trkpt>
      <trkpt lat="47.176222018897533" lon="5.963859977200627">
        <ele>355.82999999999998</ele>
        <time>2025-04-23T13:43:12Z</time>
      </trkpt>
      <trkpt lat="47.176152030006051" lon="5.963859977200627">
        <ele>355.82999999999998</ele>
        <time>2025-04-23T13:43:13Z</time>
      </trkpt>
      <trkpt lat="47.176077011972666" lon="5.963859977200627">
        <ele>355.82999999999998</ele>
        <time>2025-04-23T13:43:14Z</time>
      </trkpt>
      <trkpt lat="47.175996964797378" lon="5.963985035195947">
        <ele>355.82999999999998</ele>
        <time>2025-04-23T13:43:15Z</time>
      </trkpt>
      <trkpt lat="47.175920018926263" lon="5.96397397108376">
        <ele>356.31</ele>
        <time>2025-04-23T13:43:16Z</time>
      </trkpt>
      <trkpt lat="47.175836032256484" lon="5.963961984962225">
        <ele>356.31</ele>
        <time>2025-04-23T13:43:17Z</time>
      </trkpt>
      <trkpt lat="47.175740981474519" lon="5.963947987183929">
        <ele>356.79000000000002</ele>
        <time>2025-04-23T13:43:18Z</time>
      </trkpt>
      <trkpt lat="47.174531975761056" lon="5.963751012459397">
        <ele>362.55000000000001</ele>
        <time>2025-04-23T13:43:28Z</time>
      </trkpt>
      <trkpt lat="47.17286397702992" lon="5.963511960580945">
        <ele>369.27999999999997</ele>
        <time>2025-04-23T13:43:38Z</time>
      </trkpt>
      <trkpt lat="47.170974025502801" lon="5.96306998282671">
        <ele>372.17000000000002</ele>
        <time>2025-04-23T13:43:48Z</time>
      </trkpt>
      <trkpt lat="47.169725960120559" lon="5.962153002619743">
        <ele>373.13</ele>
        <time>2025-04-23T13:43:55Z</time>
      </trkpt>
      <trkpt lat="47.168827001005411" lon="5.96085699275136">
        <ele>374.08999999999997</ele>
        <time>2025-04-23T13:44:01Z</time>
      </trkpt>
      <trkpt lat="47.167971041053534" lon="5.959187988191843">
        <ele>374.08999999999997</ele>
        <time>2025-04-23T13:44:08Z</time>
      </trkpt>
      <trkpt lat="47.167031010612845" lon="5.957243973389268">
        <ele>374.56999999999999</ele>
        <time>2025-04-23T13:44:17Z</time>
      </trkpt>
      <trkpt lat="47.165956031531096" lon="5.956221967935562">
        <ele>374.56999999999999</ele>
        <time>2025-04-23T13:44:24Z</time>
      </trkpt>
      <trkpt lat="47.164447959512472" lon="5.955229969695211">
        <ele>375.05000000000001</ele>
        <time>2025-04-23T13:44:33Z</time>
      </trkpt>
      <trkpt lat="47.16310802847147" lon="5.95438901335001">
        <ele>374.08999999999997</ele>
        <time>2025-04-23T13:44:41Z</time>
      </trkpt>
      <trkpt lat="47.161744963377714" lon="5.953008010983467">
        <ele>371.69</ele>
        <time>2025-04-23T13:44:50Z</time>
      </trkpt>
      <trkpt lat="47.159872027114034" lon="5.951217971742153">
        <ele>369.27999999999997</ele>
        <time>2025-04-23T13:45:02Z</time>
      </trkpt>
      <trkpt lat="47.15932896360755" lon="5.950420014560223">
        <ele>369.75999999999999</ele>
        <time>2025-04-23T13:45:06Z</time>
      </trkpt>
      <trkpt lat="47.158353980630636" lon="5.948561998084188">
        <ele>368.80000000000001</ele>
        <time>2025-04-23T13:45:15Z</time>
      </trkpt>
      <trkpt lat="47.157312026247382" lon="5.946886958554387">
        <ele>368.31999999999999</ele>
        <time>2025-04-23T13:45:24Z</time>
      </trkpt>
      <trkpt lat="47.156180972233415" lon="5.945372013375163">
        <ele>366.88</ele>
        <time>2025-04-23T13:45:33Z</time>
      </trkpt>
      <trkpt lat="47.155502960085869" lon="5.944625018164516">
        <ele>364.48000000000002</ele>
        <time>2025-04-23T13:45:38Z</time>
      </trkpt>
      <trkpt lat="47.155368011444807" lon="5.944475987926126">
        <ele>364</ele>
        <time>2025-04-23T13:45:39Z</time>
      </trkpt>
      <trkpt lat="47.153987009078264" lon="5.942553011700511">
        <ele>361.58999999999997</ele>
        <time>2025-04-23T13:45:50Z</time>
      </trkpt>
      <trkpt lat="47.153343027457595" lon="5.941479960456491">
        <ele>361.11000000000001</ele>
        <time>2025-04-23T13:45:56Z</time>
      </trkpt>
      <trkpt lat="47.153260968625546" lon="5.941274017095566">
        <ele>361.11000000000001</ele>
        <time>2025-04-23T13:45:57Z</time>
      </trkpt>
      <trkpt lat="47.153178993612528" lon="5.941066984087229">
        <ele>361.11000000000001</ele>
        <time>2025-04-23T13:45:58Z</time>
      </trkpt>
      <trkpt lat="47.152847992256284" lon="5.940233990550041">
        <ele>359.67000000000002</ele>
        <time>2025-04-23T13:46:02Z</time>
      </trkpt>
      <trkpt lat="47.152762999758124" lon="5.940020000562072">
        <ele>359.19</ele>
        <time>2025-04-23T13:46:03Z</time>
      </trkpt>
      <trkpt lat="47.15264699421823" lon="5.939825037494302">
        <ele>359.19</ele>
        <time>2025-04-23T13:46:04Z</time>
      </trkpt>
      <trkpt lat="47.152531994506717" lon="5.939630996435881">
        <ele>358.70999999999998</ele>
        <time>2025-04-23T13:46:05Z</time>
      </trkpt>
      <trkpt lat="47.152414983138442" lon="5.93943502753973">
        <ele>358.23000000000002</ele>
        <time>2025-04-23T13:46:06Z</time>
      </trkpt>
      <trkpt lat="47.152273999527097" lon="5.93928499147296">
        <ele>357.75</ele>
        <time>2025-04-23T13:46:07Z</time>
      </trkpt>
      <trkpt lat="47.150310035794973" lon="5.937294038012624">
        <ele>354.38</ele>
        <time>2025-04-23T13:46:21Z</time>
      </trkpt>
      <trkpt lat="47.148343976587057" lon="5.935819996520877">
        <ele>351.98000000000002</ele>
        <time>2025-04-23T13:46:33Z</time>
      </trkpt>
      <trkpt lat="47.145953960716724" lon="5.934427008032799">
        <ele>348.62</ele>
        <time>2025-04-23T13:46:47Z</time>
      </trkpt>
      <trkpt lat="47.143466966226697" lon="5.93275398015976">
        <ele>346.20999999999998</ele>
        <time>2025-04-23T13:47:02Z</time>
      </trkpt>
      <trkpt lat="47.141973981633782" lon="5.93157397583127">
        <ele>344.76999999999998</ele>
        <time>2025-04-23T13:47:11Z</time>
      </trkpt>
      <trkpt lat="47.1399250254035" lon="5.930109992623329">
        <ele>341.88999999999999</ele>
        <time>2025-04-23T13:47:23Z</time>
      </trkpt>
      <trkpt lat="47.13853295892477" lon="5.929114976897836">
        <ele>340.92000000000002</ele>
        <time>2025-04-23T13:47:31Z</time>
      </trkpt>
      <trkpt lat="47.136636972427368" lon="5.927633978426457">
        <ele>338.51999999999998</ele>
        <time>2025-04-23T13:47:42Z</time>
      </trkpt>
      <trkpt lat="47.135068969801068" lon="5.925661968067288">
        <ele>337.07999999999998</ele>
        <time>2025-04-23T13:47:52Z</time>
      </trkpt>
      <trkpt lat="47.133891982957721" lon="5.923649976029992">
        <ele>333.70999999999998</ele>
        <time>2025-04-23T13:48:01Z</time>
      </trkpt>
      <trkpt lat="47.133209025487304" lon="5.92257097363472">
        <ele>332.75</ele>
        <time>2025-04-23T13:48:06Z</time>
      </trkpt>
      <trkpt lat="47.131717968732119" lon="5.921071032062173">
        <ele>331.31</ele>
        <time>2025-04-23T13:48:15Z</time>
      </trkpt>
      <trkpt lat="47.130757989361882" lon="5.920235021039844">
        <ele>330.82999999999998</ele>
        <time>2025-04-23T13:48:21Z</time>
      </trkpt>
      <trkpt lat="47.129595000296831" lon="5.918947979807854">
        <ele>329.87</ele>
        <time>2025-04-23T13:48:28Z</time>
      </trkpt>
      <trkpt lat="47.128077037632465" lon="5.917718019336462">
        <ele>328.43000000000001</ele>
        <time>2025-04-23T13:48:34Z</time>
      </trkpt>
      <trkpt lat="47.126279035583138" lon="5.916439024731517">
        <ele>326.5</ele>
        <time>2025-04-23T13:48:42Z</time>
      </trkpt>
      <trkpt lat="47.124749002978206" lon="5.915202023461461">
        <ele>323.13999999999999</ele>
        <time>2025-04-23T13:48:50Z</time>
      </trkpt>
      <trkpt lat="47.123296000063419" lon="5.913816997781396">
        <ele>322.18000000000001</ele>
        <time>2025-04-23T13:48:58Z</time>
      </trkpt>
      <trkpt lat="47.121593970805407" lon="5.912554012611508">
        <ele>320.74000000000001</ele>
        <time>2025-04-23T13:49:07Z</time>
      </trkpt>
      <trkpt lat="47.119506960734725" lon="5.911291027441621">
        <ele>317.85000000000002</ele>
        <time>2025-04-23T13:49:18Z</time>
      </trkpt>
      <trkpt lat="47.118187984451652" lon="5.910347979515791">
        <ele>313.05000000000001</ele>
        <time>2025-04-23T13:49:25Z</time>
      </trkpt>
      <trkpt lat="47.116058981046081" lon="5.908752987161279">
        <ele>306.80000000000001</ele>
        <time>2025-04-23T13:49:36Z</time>
      </trkpt>
      <trkpt lat="47.114104991778731" lon="5.907797031104565">
        <ele>301.02999999999997</ele>
        <time>2025-04-23T13:49:46Z</time>
      </trkpt>
      <trkpt lat="47.111529987305403" lon="5.90630597434938">
        <ele>295.25999999999999</ele>
        <time>2025-04-23T13:50:00Z</time>
      </trkpt>
      <trkpt lat="47.110495995730162" lon="5.905247004702687">
        <ele>291.89999999999998</ele>
        <time>2025-04-23T13:50:07Z</time>
      </trkpt>
      <trkpt lat="47.109204009175301" lon="5.904191974550486">
        <ele>287.08999999999997</ele>
        <time>2025-04-23T13:50:15Z</time>
      </trkpt>
      <trkpt lat="47.10763399489224" lon="5.90364002622664">
        <ele>285.64999999999998</ele>
        <time>2025-04-23T13:50:23Z</time>
      </trkpt>
      <trkpt lat="47.105052033439279" lon="5.902888001874089">
        <ele>290.45999999999998</ele>
        <time>2025-04-23T13:50:36Z</time>
      </trkpt>
      <trkpt lat="47.104222979396582" lon="5.902487011626363">
        <ele>292.38</ele>
        <time>2025-04-23T13:50:40Z</time>
      </trkpt>
      <trkpt lat="47.102970974519849" lon="5.901302983984351">
        <ele>297.18000000000001</ele>
        <time>2025-04-23T13:50:47Z</time>
      </trkpt>
      <trkpt lat="47.102321041747928" lon="5.900092972442508">
        <ele>300.06999999999999</ele>
        <time>2025-04-23T13:50:52Z</time>
      </trkpt>
      <trkpt lat="47.101402971893549" lon="5.897692982107401">
        <ele>307.27999999999997</ele>
        <time>2025-04-23T13:51:01Z</time>
      </trkpt>
      <trkpt lat="47.100292034447193" lon="5.896216006949544">
        <ele>309.68000000000001</ele>
        <time>2025-04-23T13:51:08Z</time>
      </trkpt>
      <trkpt lat="47.098797960206866" lon="5.895361974835396">
        <ele>308.72000000000003</ele>
        <time>2025-04-23T13:51:15Z</time>
      </trkpt>
      <trkpt lat="47.096867021173239" lon="5.894678011536598">
        <ele>302.47000000000003</ele>
        <time>2025-04-23T13:51:24Z</time>
      </trkpt>
      <trkpt lat="47.09499903023243" lon="5.893972003832459">
        <ele>294.30000000000001</ele>
        <time>2025-04-23T13:51:33Z</time>
      </trkpt>
      <trkpt lat="47.09326003678143" lon="5.892741037532687">
        <ele>284.69</ele>
        <time>2025-04-23T13:51:42Z</time>
      </trkpt>
      <trkpt lat="47.091936031356454" lon="5.891145039349794">
        <ele>278.44</ele>
        <time>2025-04-23T13:51:50Z</time>
      </trkpt>
      <trkpt lat="47.090571038424969" lon="5.888948980718851">
        <ele>276.04000000000002</ele>
        <time>2025-04-23T13:51:59Z</time>
      </trkpt>
      <trkpt lat="47.089375024661422" lon="5.88699096813798">
        <ele>275.56</ele>
        <time>2025-04-23T13:52:07Z</time>
      </trkpt>
      <trkpt lat="47.088111033663154" lon="5.885265972465277">
        <ele>278.92000000000002</ele>
        <time>2025-04-23T13:52:15Z</time>
      </trkpt>
      <trkpt lat="47.086608996614814" lon="5.884060990065336">
        <ele>285.17000000000002</ele>
        <time>2025-04-23T13:52:23Z</time>
      </trkpt>
      <trkpt lat="47.084936974570155" lon="5.883512981235981">
        <ele>296.69999999999999</ele>
        <time>2025-04-23T13:52:31Z</time>
      </trkpt>
      <trkpt lat="47.082875026389956" lon="5.88331600651145">
        <ele>307.75999999999999</ele>
        <time>2025-04-23T13:52:41Z</time>
      </trkpt>
      <trkpt lat="47.08024000748992" lon="5.8830819837749">
        <ele>313.52999999999997</ele>
        <time>2025-04-23T13:52:54Z</time>
      </trkpt>
      <trkpt lat="47.077965997159481" lon="5.882871011272073">
        <ele>314.49000000000001</ele>
        <time>2025-04-23T13:53:05Z</time>
      </trkpt>
      <trkpt lat="47.076250975951552" lon="5.882553001865745">
        <ele>316.41000000000003</ele>
        <time>2025-04-23T13:53:14Z</time>
      </trkpt>
      <trkpt lat="47.073960034176707" lon="5.882393997162581">
        <ele>324.57999999999998</ele>
        <time>2025-04-23T13:53:26Z</time>
      </trkpt>
      <trkpt lat="47.072303015738726" lon="5.882144970819354">
        <ele>327.47000000000003</ele>
        <time>2025-04-23T13:53:35Z</time>
      </trkpt>
      <trkpt lat="47.071065008640289" lon="5.881793014705181">
        <ele>323.13999999999999</ele>
        <time>2025-04-23T13:53:44Z</time>
      </trkpt>
      <trkpt lat="47.070167977362871" lon="5.881553962826729">
        <ele>318.81</ele>
        <time>2025-04-23T13:53:51Z</time>
      </trkpt>
      <trkpt lat="47.070045014843345" lon="5.881524039432406">
        <ele>317.37</ele>
        <time>2025-04-23T13:53:52Z</time>
      </trkpt>
      <trkpt lat="47.069916017353535" lon="5.881516998633742">
        <ele>316.41000000000003</ele>
        <time>2025-04-23T13:53:53Z</time>
      </trkpt>
      <trkpt lat="47.068632999435067" lon="5.881483973935247">
        <ele>307.75999999999999</ele>
        <time>2025-04-23T13:54:02Z</time>
      </trkpt>
      <trkpt lat="47.067147977650166" lon="5.881575001403689">
        <ele>302.94999999999999</ele>
        <time>2025-04-23T13:54:11Z</time>
      </trkpt>
      <trkpt lat="47.064975975081325" lon="5.881950007751584">
        <ele>302.47000000000003</ele>
        <time>2025-04-23T13:54:22Z</time>
      </trkpt>
      <trkpt lat="47.061683982610703" lon="5.88265098631382">
        <ele>298.14999999999998</ele>
        <time>2025-04-23T13:54:38Z</time>
      </trkpt>
      <trkpt lat="47.059772992506623" lon="5.882553001865745">
        <ele>294.30000000000001</ele>
        <time>2025-04-23T13:54:47Z</time>
      </trkpt>
      <trkpt lat="47.057954035699368" lon="5.881800977513194">
        <ele>296.69999999999999</ele>
        <time>2025-04-23T13:54:56Z</time>
      </trkpt>
      <trkpt lat="47.056094007566571" lon="5.880791964009404">
        <ele>307.27999999999997</ele>
        <time>2025-04-23T13:55:06Z</time>
      </trkpt>
      <trkpt lat="47.054880978539586" lon="5.880133984610438">
        <ele>311.60000000000002</ele>
        <time>2025-04-23T13:55:14Z</time>
      </trkpt>
      <trkpt lat="47.054287036880851" lon="5.879755960777402">
        <ele>310.16000000000003</ele>
        <time>2025-04-23T13:55:21Z</time>
      </trkpt>
      <trkpt lat="47.053419006988406" lon="5.879317000508308">
        <ele>308.24000000000001</ele>
        <time>2025-04-23T13:55:30Z</time>
      </trkpt>
      <trkpt lat="47.053033020347357" lon="5.879198983311653">
        <ele>309.19999999999999</ele>
        <time>2025-04-23T13:55:34Z</time>
      </trkpt>
      <trkpt lat="47.051901966333389" lon="5.878733033314347">
        <ele>316.41000000000003</ele>
        <time>2025-04-23T13:55:45Z</time>
      </trkpt>
      <trkpt lat="47.050448963418603" lon="5.878255013376474">
        <ele>319.30000000000001</ele>
        <time>2025-04-23T13:55:56Z</time>
      </trkpt>
      <trkpt lat="47.048812983557582" lon="5.87751698680222">
        <ele>314.49000000000001</ele>
        <time>2025-04-23T13:56:06Z</time>
      </trkpt>
      <trkpt lat="47.046795040369034" lon="5.87674199603498">
        <ele>303.91000000000003</ele>
        <time>2025-04-23T13:56:17Z</time>
      </trkpt>
      <trkpt lat="47.044765027239919" lon="5.875855023041368">
        <ele>307.27999999999997</ele>
        <time>2025-04-23T13:56:28Z</time>
      </trkpt>
      <trkpt lat="47.042150963097811" lon="5.875036027282476">
        <ele>298.63</ele>
        <time>2025-04-23T13:56:42Z</time>
      </trkpt>
      <trkpt lat="47.039542011916637" lon="5.874242009595037">
        <ele>297.67000000000002</ele>
        <time>2025-04-23T13:56:56Z</time>
      </trkpt>
      <trkpt lat="47.037533037364483" lon="5.873859040439129">
        <ele>293.33999999999997</ele>
        <time>2025-04-23T13:57:06Z</time>
      </trkpt>
      <trkpt lat="47.034931965172291" lon="5.873242970556021">
        <ele>296.22000000000003</ele>
        <time>2025-04-23T13:57:19Z</time>
      </trkpt>
      <trkpt lat="47.032639011740685" lon="5.872566970065236">
        <ele>302.47000000000003</ele>
        <time>2025-04-23T13:57:31Z</time>
      </trkpt>
      <trkpt lat="47.030125027522445" lon="5.871312031522393">
        <ele>306.80000000000001</ele>
        <time>2025-04-23T13:57:45Z</time>
      </trkpt>
      <trkpt lat="47.028364995494485" lon="5.870568975806236">
        <ele>303.43000000000001</ele>
        <time>2025-04-23T13:57:54Z</time>
      </trkpt>
      <trkpt lat="47.025997024029493" lon="5.869607990607619">
        <ele>299.58999999999997</ele>
        <time>2025-04-23T13:58:06Z</time>
      </trkpt>
      <trkpt lat="47.022568993270397" lon="5.868049040436745">
        <ele>295.74000000000001</ele>
        <time>2025-04-23T13:58:23Z</time>
      </trkpt>
      <trkpt lat="47.021081959828734" lon="5.86707103997469">
        <ele>292.38</ele>
        <time>2025-04-23T13:58:31Z</time>
      </trkpt>
      <trkpt lat="47.019707998260856" lon="5.865098023787141">
        <ele>287.08999999999997</ele>
        <time>2025-04-23T13:58:40Z</time>
      </trkpt>
      <trkpt lat="47.018285002559423" lon="5.863000033423305">
        <ele>280.36000000000001</ele>
        <time>2025-04-23T13:58:50Z</time>
      </trkpt>
      <trkpt lat="47.01649596914649" lon="5.8603909984231">
        <ele>270.26999999999998</ele>
        <time>2025-04-23T13:59:03Z</time>
      </trkpt>
      <trkpt lat="47.014523958787322" lon="5.857501002028585">
        <ele>258.25</ele>
        <time>2025-04-23T13:59:17Z</time>
      </trkpt>
      <trkpt lat="47.012721011415124" lon="5.854910993948579">
        <ele>254.88999999999999</ele>
        <time>2025-04-23T13:59:30Z</time>
      </trkpt>
      <trkpt lat="47.012020032852888" lon="5.854046987369657">
        <ele>254.88999999999999</ele>
        <time>2025-04-23T13:59:36Z</time>
      </trkpt>
      <trkpt lat="47.010933989658952" lon="5.853127995505929">
        <ele>257.29000000000002</ele>
        <time>2025-04-23T13:59:47Z</time>
      </trkpt>
      <trkpt lat="47.009920030832291" lon="5.852015968412161">
        <ele>255.84999999999999</ele>
        <time>2025-04-23T13:59:56Z</time>
      </trkpt>
      <trkpt lat="47.008290002122521" lon="5.849900040775538">
        <ele>249.12</ele>
        <time>2025-04-23T14:00:08Z</time>
      </trkpt>
      <trkpt lat="47.007968975231051" lon="5.84919897839427">
        <ele>249.12</ele>
        <time>2025-04-23T14:00:11Z</time>
      </trkpt>
      <trkpt lat="47.007891023531556" lon="5.848934026435018">
        <ele>248.63999999999999</ele>
        <time>2025-04-23T14:00:12Z</time>
      </trkpt>
      <trkpt lat="47.007812988013029" lon="5.848665973171592">
        <ele>248.63999999999999</ele>
        <time>2025-04-23T14:00:13Z</time>
      </trkpt>
      <trkpt lat="47.007265985012054" lon="5.846424987539649">
        <ele>250.08000000000001</ele>
        <time>2025-04-23T14:00:21Z</time>
      </trkpt>
      <trkpt lat="47.007173029705882" lon="5.846165986731648">
        <ele>250.56</ele>
        <time>2025-04-23T14:00:22Z</time>
      </trkpt>
      <trkpt lat="47.006899025291204" lon="5.845732977613807">
        <ele>251.03999999999999</ele>
        <time>2025-04-23T14:00:24Z</time>
      </trkpt>
      <trkpt lat="47.00676298700273" lon="5.845517981797457">
        <ele>251.52000000000001</ele>
        <time>2025-04-23T14:00:25Z</time>
      </trkpt>
      <trkpt lat="47.006614962592721" lon="5.845284964889288">
        <ele>251.52000000000001</ele>
        <time>2025-04-23T14:00:26Z</time>
      </trkpt>
      <trkpt lat="47.006453024223447" lon="5.84513601846993">
        <ele>251.52000000000001</ele>
        <time>2025-04-23T14:00:27Z</time>
      </trkpt>
      <trkpt lat="47.006274992600083" lon="5.844982964918017">
        <ele>252</ele>
        <time>2025-04-23T14:00:28Z</time>
      </trkpt>
      <trkpt lat="47.00609696097672" lon="5.844828989356756">
        <ele>252.96000000000001</ele>
        <time>2025-04-23T14:00:29Z</time>
      </trkpt>
      <trkpt lat="47.004615962505341" lon="5.843860963359475">
        <ele>255.84999999999999</ele>
        <time>2025-04-23T14:00:38Z</time>
      </trkpt>
      <trkpt lat="47.002903036773205" lon="5.84285999648273">
        <ele>256.81</ele>
        <time>2025-04-23T14:00:50Z</time>
      </trkpt>
      <trkpt lat="47.001238977536559" lon="5.841942010447383">
        <ele>258.25</ele>
        <time>2025-04-23T14:01:02Z</time>
      </trkpt>
      <trkpt lat="46.999799972400069" lon="5.840986976400018">
        <ele>257.29000000000002</ele>
        <time>2025-04-23T14:01:12Z</time>
      </trkpt>
      <trkpt lat="46.997724026441574" lon="5.839545959606767">
        <ele>252.96000000000001</ele>
        <time>2025-04-23T14:01:25Z</time>
      </trkpt>
      <trkpt lat="46.99593398720026" lon="5.837926995009184">
        <ele>252.47999999999999</ele>
        <time>2025-04-23T14:01:36Z</time>
      </trkpt>
      <trkpt lat="46.995066963136196" lon="5.836253967136145">
        <ele>252</ele>
        <time>2025-04-23T14:01:43Z</time>
      </trkpt>
      <trkpt lat="46.994333965703845" lon="5.834622010588646">
        <ele>251.52000000000001</ele>
        <time>2025-04-23T14:01:50Z</time>
      </trkpt>
      <trkpt lat="46.993244988843799" lon="5.83259099163115">
        <ele>250.08000000000001</ele>
        <time>2025-04-23T14:01:59Z</time>
      </trkpt>
      <trkpt lat="46.991750998422503" lon="5.830126963555813">
        <ele>250.56</ele>
        <time>2025-04-23T14:02:11Z</time>
      </trkpt>
      <trkpt lat="46.990451971068978" lon="5.827917996793985">
        <ele>250.56</ele>
        <time>2025-04-23T14:02:22Z</time>
      </trkpt>
      <trkpt lat="46.988724041730165" lon="5.8250040281564">
        <ele>255.84999999999999</ele>
        <time>2025-04-23T14:02:37Z</time>
      </trkpt>
      <trkpt lat="46.987105999141932" lon="5.822278987616301">
        <ele>256.81</ele>
        <time>2025-04-23T14:02:51Z</time>
      </trkpt>
      <trkpt lat="46.98544898070395" lon="5.819481024518609">
        <ele>261.62</ele>
        <time>2025-04-23T14:03:05Z</time>
      </trkpt>
      <trkpt lat="46.984326979145408" lon="5.817576991394162">
        <ele>265.45999999999998</ele>
        <time>2025-04-23T14:03:14Z</time>
      </trkpt>
      <trkpt lat="46.982788983732462" lon="5.814979020506144">
        <ele>269.79000000000002</ele>
        <time>2025-04-23T14:03:27Z</time>
      </trkpt>
      <trkpt lat="46.981478976085782" lon="5.813002986833453">
        <ele>270.75</ele>
        <time>2025-04-23T14:03:36Z</time>
      </trkpt>
      <trkpt lat="46.980014992877841" lon="5.81157797947526">
        <ele>270.75</ele>
        <time>2025-04-23T14:03:44Z</time>
      </trkpt>
      <trkpt lat="46.978049017488956" lon="5.809911992400885">
        <ele>277.48000000000002</ele>
        <time>2025-04-23T14:03:54Z</time>
      </trkpt>
      <trkpt lat="46.976647982373834" lon="5.808192025870085">
        <ele>285.64999999999998</ele>
        <time>2025-04-23T14:04:02Z</time>
      </trkpt>
      <trkpt lat="46.975491028279066" lon="5.806071991100907">
        <ele>294.77999999999997</ele>
        <time>2025-04-23T14:04:10Z</time>
      </trkpt>
      <trkpt lat="46.974429041147232" lon="5.804252028465271">
        <ele>300.55000000000001</ele>
        <time>2025-04-23T14:04:17Z</time>
      </trkpt>
      <trkpt lat="46.972784008830786" lon="5.802892986685038">
        <ele>304.38999999999999</ele>
        <time>2025-04-23T14:04:25Z</time>
      </trkpt>
      <trkpt lat="46.971120033413172" lon="5.801815995946527">
        <ele>304.38999999999999</ele>
        <time>2025-04-23T14:04:33Z</time>
      </trkpt>
      <trkpt lat="46.969260005280375" lon="5.800634985789657">
        <ele>302.47000000000003</ele>
        <time>2025-04-23T14:04:42Z</time>
      </trkpt>
      <trkpt lat="46.967799961566925" lon="5.799569981172681">
        <ele>299.58999999999997</ele>
        <time>2025-04-23T14:04:50Z</time>
      </trkpt>
      <trkpt lat="46.966510992497206" lon="5.797958979383111">
        <ele>296.69999999999999</ele>
        <time>2025-04-23T14:04:59Z</time>
      </trkpt>
      <trkpt lat="46.965452022850513" lon="5.796166006475687">
        <ele>297.67000000000002</ele>
        <time>2025-04-23T14:05:08Z</time>
      </trkpt>
      <trkpt lat="46.964389029890299" lon="5.794779974967241">
        <ele>300.06999999999999</ele>
        <time>2025-04-23T14:05:16Z</time>
      </trkpt>
      <trkpt lat="46.963042980059981" lon="5.793523024767637">
        <ele>300.55000000000001</ele>
        <time>2025-04-23T14:05:25Z</time>
      </trkpt>
      <trkpt lat="46.961458967998624" lon="5.792099023237824">
        <ele>300.06999999999999</ele>
        <time>2025-04-23T14:05:35Z</time>
      </trkpt>
      <trkpt lat="46.959929019212723" lon="5.79108196310699">
        <ele>298.63</ele>
        <time>2025-04-23T14:05:44Z</time>
      </trkpt>
      <trkpt lat="46.95833302102983" lon="5.790310995653272">
        <ele>296.22000000000003</ele>
        <time>2025-04-23T14:05:53Z</time>
      </trkpt>
      <trkpt lat="46.957262987270951" lon="5.789827024564147">
        <ele>293.33999999999997</ele>
        <time>2025-04-23T14:05:59Z</time>
      </trkpt>
      <trkpt lat="46.955698002129793" lon="5.788872996345162">
        <ele>287.08999999999997</ele>
        <time>2025-04-23T14:06:08Z</time>
      </trkpt>
      <trkpt lat="46.954191019758582" lon="5.787204997614026">
        <ele>282.76999999999998</ele>
        <time>2025-04-23T14:06:18Z</time>
      </trkpt>
      <trkpt lat="46.953255012631416" lon="5.785955004394054">
        <ele>282.76999999999998</ele>
        <time>2025-04-23T14:06:25Z</time>
      </trkpt>
      <trkpt lat="46.952372984960675" lon="5.784911038354039">
        <ele>284.69</ele>
        <time>2025-04-23T14:06:31Z</time>
      </trkpt>
      <trkpt lat="46.950877988710999" lon="5.783678982406855">
        <ele>287.56999999999999</ele>
        <time>2025-04-23T14:06:41Z</time>
      </trkpt>
      <trkpt lat="46.948908995836973" lon="5.782640967518091">
        <ele>292.86000000000001</ele>
        <time>2025-04-23T14:06:53Z</time>
      </trkpt>
      <trkpt lat="46.947320038452744" lon="5.781845021992922">
        <ele>299.58999999999997</ele>
        <time>2025-04-23T14:07:04Z</time>
      </trkpt>
      <trkpt lat="46.945540979504585" lon="5.780975986272097">
        <ele>297.67000000000002</ele>
        <time>2025-04-23T14:07:16Z</time>
      </trkpt>
      <trkpt lat="46.94344500079751" lon="5.779947023838759">
        <ele>301.99000000000001</ele>
        <time>2025-04-23T14:07:29Z</time>
      </trkpt>
      <trkpt lat="46.941663008183241" lon="5.779074970632792">
        <ele>306.80000000000001</ele>
        <time>2025-04-23T14:07:40Z</time>
      </trkpt>
      <trkpt lat="46.940043037757277" lon="5.77849100343883">
        <ele>310.16000000000003</ele>
        <time>2025-04-23T14:07:50Z</time>
      </trkpt>
      <trkpt lat="46.937894001603127" lon="5.777765968814492">
        <ele>310.16000000000003</ele>
        <time>2025-04-23T14:08:03Z</time>
      </trkpt>
      <trkpt lat="46.93642096593976" lon="5.777263976633549">
        <ele>312.56999999999999</ele>
        <time>2025-04-23T14:08:11Z</time>
      </trkpt>
      <trkpt lat="46.934194983914495" lon="5.776476999744773">
        <ele>323.13999999999999</ele>
        <time>2025-04-23T14:08:24Z</time>
      </trkpt>
      <trkpt lat="46.932965023443103" lon="5.776111967861652">
        <ele>331.79000000000002</ele>
        <time>2025-04-23T14:08:32Z</time>
      </trkpt>
      <trkpt lat="46.932223979383707" lon="5.776032004505396">
        <ele>339.95999999999998</ele>
        <time>2025-04-23T14:08:40Z</time>
      </trkpt>
      <trkpt lat="46.930949008092284" lon="5.775915998965502">
        <ele>351.98000000000002</ele>
        <time>2025-04-23T14:08:53Z</time>
      </trkpt>
      <trkpt lat="46.929496005177498" lon="5.775805022567511">
        <ele>353.89999999999998</ele>
        <time>2025-04-23T14:09:06Z</time>
      </trkpt>
      <trkpt lat="46.927978964522481" lon="5.775645012035966">
        <ele>350.06</ele>
        <time>2025-04-23T14:09:17Z</time>
      </trkpt>
      <trkpt lat="46.92617098800838" lon="5.775076970458031">
        <ele>339.48000000000002</ele>
        <time>2025-04-23T14:09:29Z</time>
      </trkpt>
      <trkpt lat="46.924223033711314" lon="5.774266021326184">
        <ele>321.69999999999999</ele>
        <time>2025-04-23T14:09:43Z</time>
      </trkpt>
      <trkpt lat="46.922337021678686" lon="5.773265976458788">
        <ele>303.43000000000001</ele>
        <time>2025-04-23T14:09:56Z</time>
      </trkpt>
      <trkpt lat="46.920559974387288" lon="5.77264797873795">
        <ele>296.69999999999999</ele>
        <time>2025-04-23T14:10:08Z</time>
      </trkpt>
      <trkpt lat="46.918763983994722" lon="5.772215975448489">
        <ele>289.97000000000003</ele>
        <time>2025-04-23T14:10:22Z</time>
      </trkpt>
      <trkpt lat="46.917257001623511" lon="5.771713983267546">
        <ele>290.45999999999998</ele>
        <time>2025-04-23T14:10:36Z</time>
      </trkpt>
      <trkpt lat="46.915955040603876" lon="5.771239986643195">
        <ele>291.89999999999998</ele>
        <time>2025-04-23T14:10:47Z</time>
      </trkpt>
      <trkpt lat="46.91551499068737" lon="5.771072013303638">
        <ele>291.89999999999998</ele>
        <time>2025-04-23T14:10:51Z</time>
      </trkpt>
      <trkpt lat="46.915421029552817" lon="5.771033959463239">
        <ele>291.89999999999998</ele>
        <time>2025-04-23T14:10:52Z</time>
      </trkpt>
      <trkpt lat="46.915016015991569" lon="5.770866991952062">
        <ele>291.89999999999998</ele>
        <time>2025-04-23T14:10:56Z</time>
      </trkpt>
      <trkpt lat="46.914909984916449" lon="5.770808989182115">
        <ele>291.89999999999998</ele>
        <time>2025-04-23T14:10:57Z</time>
      </trkpt>
      <trkpt lat="46.913682036101818" lon="5.769823025912046">
        <ele>286.61000000000001</ele>
        <time>2025-04-23T14:11:09Z</time>
      </trkpt>
      <trkpt lat="46.912419972941279" lon="5.768385026603937">
        <ele>278.44</ele>
        <time>2025-04-23T14:11:21Z</time>
      </trkpt>
      <trkpt lat="46.910835960879922" lon="5.766987008973956">
        <ele>278.44</ele>
        <time>2025-04-23T14:11:33Z</time>
      </trkpt>
      <trkpt lat="46.909278016537428" lon="5.765929967164993">
        <ele>286.61000000000001</ele>
        <time>2025-04-23T14:11:44Z</time>
      </trkpt>
      <trkpt lat="46.908108992502093" lon="5.765566024929285">
        <ele>292.86000000000001</ele>
        <time>2025-04-23T14:11:52Z</time>
      </trkpt>
      <trkpt lat="46.906158020719886" lon="5.765329990535975">
        <ele>302.94999999999999</ele>
        <time>2025-04-23T14:12:02Z</time>
      </trkpt>
      <trkpt lat="46.904583983123302" lon="5.764821041375399">
        <ele>305.83999999999997</ele>
        <time>2025-04-23T14:12:10Z</time>
      </trkpt>
      <trkpt lat="46.903285961598158" lon="5.763658974319696">
        <ele>308.72000000000003</ele>
        <time>2025-04-23T14:12:17Z</time>
      </trkpt>
      <trkpt lat="46.902457997202873" lon="5.762178981676698">
        <ele>314.00999999999999</ele>
        <time>2025-04-23T14:12:23Z</time>
      </trkpt>
      <trkpt lat="46.901873024180532" lon="5.759974038228393">
        <ele>322.66000000000003</ele>
        <time>2025-04-23T14:12:30Z</time>
      </trkpt>
      <trkpt lat="46.901389975100756" lon="5.756968036293984">
        <ele>329.87</ele>
        <time>2025-04-23T14:12:39Z</time>
      </trkpt>
      <trkpt lat="46.90081799402833" lon="5.753790959715843">
        <ele>330.82999999999998</ele>
        <time>2025-04-23T14:12:50Z</time>
      </trkpt>
      <trkpt lat="46.900043003261089" lon="5.750273996964097">
        <ele>327.94999999999999</ele>
        <time>2025-04-23T14:13:03Z</time>
      </trkpt>
      <trkpt lat="46.89918402582407" lon="5.746902963146567">
        <ele>319.30000000000001</ele>
        <time>2025-04-23T14:13:15Z</time>
      </trkpt>
      <trkpt lat="46.898387996479869" lon="5.74385697953403">
        <ele>309.68000000000001</ele>
        <time>2025-04-23T14:13:26Z</time>
      </trkpt>
      <trkpt lat="46.897383006289601" lon="5.740060983225703">
        <ele>303.91000000000003</ele>
        <time>2025-04-23T14:13:40Z</time>
      </trkpt>
      <trkpt lat="46.896484969183803" lon="5.737442979589105">
        <ele>298.14999999999998</ele>
        <time>2025-04-23T14:13:50Z</time>
      </trkpt>
      <trkpt lat="46.894411034882069" lon="5.733014987781644">
        <ele>286.61000000000001</ele>
        <time>2025-04-23T14:14:08Z</time>
      </trkpt>
      <trkpt lat="46.893418030813336" lon="5.731528960168362">
        <ele>286.61000000000001</ele>
        <time>2025-04-23T14:14:15Z</time>
      </trkpt>
      <trkpt lat="46.892182035371661" lon="5.730723962187767">
        <ele>288.52999999999997</ele>
        <time>2025-04-23T14:14:22Z</time>
      </trkpt>
      <trkpt lat="46.890385961160064" lon="5.729985013604164">
        <ele>293.33999999999997</ele>
        <time>2025-04-23T14:14:33Z</time>
      </trkpt>
      <trkpt lat="46.888236002996564" lon="5.729106003418565">
        <ele>298.63</ele>
        <time>2025-04-23T14:14:46Z</time>
      </trkpt>
      <trkpt lat="46.886022007092834" lon="5.727930022403598">
        <ele>307.75999999999999</ele>
        <time>2025-04-23T14:14:59Z</time>
      </trkpt>
      <trkpt lat="46.884908974170685" lon="5.727002983912826">
        <ele>314.97000000000003</ele>
        <time>2025-04-23T14:15:07Z</time>
      </trkpt>
      <trkpt lat="46.884796991944313" lon="5.726835010573268">
        <ele>315.93000000000001</ele>
        <time>2025-04-23T14:15:08Z</time>
      </trkpt>
      <trkpt lat="46.884692972525954" lon="5.726655973121524">
        <ele>317.37</ele>
        <time>2025-04-23T14:15:09Z</time>
      </trkpt>
      <trkpt lat="46.884608985856175" lon="5.726448018103838">
        <ele>318.32999999999998</ele>
        <time>2025-04-23T14:15:10Z</time>
      </trkpt>
      <trkpt lat="46.8845300283283" lon="5.726236961781979">
        <ele>319.30000000000001</ele>
        <time>2025-04-23T14:15:11Z</time>
      </trkpt>
      <trkpt lat="46.884469008073211" lon="5.726006962358952">
        <ele>319.77999999999997</ele>
        <time>2025-04-23T14:15:12Z</time>
      </trkpt>
      <trkpt lat="46.884406981989741" lon="5.725777968764305">
        <ele>320.74000000000001</ele>
        <time>2025-04-23T14:15:13Z</time>
      </trkpt>
      <trkpt lat="46.884346967563033" lon="5.725554004311562">
        <ele>321.69999999999999</ele>
        <time>2025-04-23T14:15:14Z</time>
      </trkpt>
      <trkpt lat="46.884276978671551" lon="5.725338002666831">
        <ele>322.18000000000001</ele>
        <time>2025-04-23T14:15:15Z</time>
      </trkpt>
      <trkpt lat="46.884183017536998" lon="5.725134992972016">
        <ele>322.66000000000003</ele>
        <time>2025-04-23T14:15:16Z</time>
      </trkpt>
      <trkpt lat="46.884061982855201" lon="5.724977999925613">
        <ele>323.13999999999999</ele>
        <time>2025-04-23T14:15:17Z</time>
      </trkpt>
      <trkpt lat="46.883937008678913" lon="5.724821006879211">
        <ele>323.62</ele>
        <time>2025-04-23T14:15:18Z</time>
      </trkpt>
      <trkpt lat="46.883787978440523" lon="5.724721010774374">
        <ele>324.57999999999998</ele>
        <time>2025-04-23T14:15:19Z</time>
      </trkpt>
      <trkpt lat="46.883635008707643" lon="5.724628977477551">
        <ele>325.06</ele>
        <time>2025-04-23T14:15:20Z</time>
      </trkpt>
      <trkpt lat="46.88332898542285" lon="5.724444994702935">
        <ele>326.99000000000001</ele>
        <time>2025-04-23T14:15:22Z</time>
      </trkpt>
      <trkpt lat="46.883183978497982" lon="5.724339969456196">
        <ele>328.43000000000001</ele>
        <time>2025-04-23T14:15:23Z</time>
      </trkpt>
      <trkpt lat="46.883040983229876" lon="5.724225975573063">
        <ele>329.38999999999999</ele>
        <time>2025-04-23T14:15:24Z</time>
      </trkpt>
      <trkpt lat="46.882892036810517" lon="5.724106030538678">
        <ele>330.35000000000002</ele>
        <time>2025-04-23T14:15:25Z</time>
      </trkpt>
      <trkpt lat="46.882773013785481" lon="5.723940990865231">
        <ele>331.31</ele>
        <time>2025-04-23T14:15:26Z</time>
      </trkpt>
      <trkpt lat="46.882658014073968" lon="5.723743010312319">
        <ele>331.79000000000002</ele>
        <time>2025-04-23T14:15:27Z</time>
      </trkpt>
      <trkpt lat="46.882542008534074" lon="5.723542012274265">
        <ele>332.75</ele>
        <time>2025-04-23T14:15:28Z</time>
      </trkpt>
      <trkpt lat="46.882424997165799" lon="5.723340008407831">
        <ele>333.23000000000002</ele>
        <time>2025-04-23T14:15:29Z</time>
      </trkpt>
      <trkpt lat="46.882138000801206" lon="5.722709018737078">
        <ele>335.63999999999999</ele>
        <time>2025-04-23T14:15:32Z</time>
      </trkpt>
      <trkpt lat="46.882054014131427" lon="5.722489999607205">
        <ele>336.12</ele>
        <time>2025-04-23T14:15:33Z</time>
      </trkpt>
      <trkpt lat="46.881993999704719" lon="5.722252959385514">
        <ele>336.60000000000002</ele>
        <time>2025-04-23T14:15:34Z</time>
      </trkpt>
      <trkpt lat="46.881958963349462" lon="5.721993958577514">
        <ele>337.07999999999998</ele>
        <time>2025-04-23T14:15:35Z</time>
      </trkpt>
      <trkpt lat="46.881923004984856" lon="5.721730012446642">
        <ele>337.56</ele>
        <time>2025-04-23T14:15:36Z</time>
      </trkpt>
      <trkpt lat="46.881483038887382" lon="5.719956988468766">
        <ele>340.44</ele>
        <time>2025-04-23T14:15:43Z</time>
      </trkpt>
      <trkpt lat="46.881242981180549" lon="5.719352988526225">
        <ele>341.41000000000003</ele>
        <time>2025-04-23T14:15:46Z</time>
      </trkpt>
      <trkpt lat="46.881143990904093" lon="5.7191919721663">
        <ele>341.88999999999999</ele>
        <time>2025-04-23T14:15:47Z</time>
      </trkpt>
      <trkpt lat="46.881032008677721" lon="5.719064986333251">
        <ele>342.37</ele>
        <time>2025-04-23T14:15:48Z</time>
      </trkpt>
      <trkpt lat="46.880905022844672" lon="5.718948980793357">
        <ele>342.85000000000002</ele>
        <time>2025-04-23T14:15:49Z</time>
      </trkpt>
      <trkpt lat="46.880763033404946" lon="5.718862982466817">
        <ele>342.85000000000002</ele>
        <time>2025-04-23T14:15:50Z</time>
      </trkpt>
      <trkpt lat="46.880610985681415" lon="5.71878301911056">
        <ele>343.32999999999998</ele>
        <time>2025-04-23T14:15:51Z</time>
      </trkpt>
      <trkpt lat="46.879465011879802" lon="5.71835202164948">
        <ele>345.73000000000002</ele>
        <time>2025-04-23T14:15:58Z</time>
      </trkpt>
      <trkpt lat="46.87931003049016" lon="5.71824599057436">
        <ele>346.20999999999998</ele>
        <time>2025-04-23T14:15:59Z</time>
      </trkpt>
      <trkpt lat="46.879159994423389" lon="5.718133002519608">
        <ele>347.17000000000002</ele>
        <time>2025-04-23T14:16:00Z</time>
      </trkpt>
      <trkpt lat="46.87901197001338" lon="5.718021020293236">
        <ele>347.64999999999998</ele>
        <time>2025-04-23T14:16:01Z</time>
      </trkpt>
      <trkpt lat="46.878865035250783" lon="5.717909960076213">
        <ele>348.62</ele>
        <time>2025-04-23T14:16:02Z</time>
      </trkpt>
      <trkpt lat="46.878719022497535" lon="5.717798983678222">
        <ele>349.57999999999998</ele>
        <time>2025-04-23T14:16:03Z</time>
      </trkpt>
      <trkpt lat="46.878566974774003" lon="5.717722959816456">
        <ele>350.06</ele>
        <time>2025-04-23T14:16:04Z</time>
      </trkpt>
      <trkpt lat="46.8784099817276" lon="5.717684989795089">
        <ele>351.01999999999998</ele>
        <time>2025-04-23T14:16:05Z</time>
      </trkpt>
      <trkpt lat="46.878250977024436" lon="5.717647019773722">
        <ele>351.5</ele>
        <time>2025-04-23T14:16:06Z</time>
      </trkpt>
      <trkpt lat="46.877947971224785" lon="5.717518022283912">
        <ele>352.94</ele>
        <time>2025-04-23T14:16:08Z</time>
      </trkpt>
      <trkpt lat="46.877783015370369" lon="5.717439986765385">
        <ele>353.89999999999998</ele>
        <time>2025-04-23T14:16:09Z</time>
      </trkpt>
      <trkpt lat="46.87765896320343" lon="5.717326998710632">
        <ele>354.86000000000001</ele>
        <time>2025-04-23T14:16:10Z</time>
      </trkpt>
      <trkpt lat="46.877516973763704" lon="5.717196995392442">
        <ele>355.33999999999997</ele>
        <time>2025-04-23T14:16:11Z</time>
      </trkpt>
      <trkpt lat="46.877371966838837" lon="5.717062968760729">
        <ele>356.31</ele>
        <time>2025-04-23T14:16:12Z</time>
      </trkpt>
      <trkpt lat="46.876172013580799" lon="5.716142971068621">
        <ele>362.06999999999999</ele>
        <time>2025-04-23T14:16:20Z</time>
      </trkpt>
      <trkpt lat="46.876006973907351" lon="5.716102989390492">
        <ele>362.55000000000001</ele>
        <time>2025-04-23T14:16:21Z</time>
      </trkpt>
      <trkpt lat="46.875841012224555" lon="5.716070970520377">
        <ele>363.04000000000002</ele>
        <time>2025-04-23T14:16:22Z</time>
      </trkpt>
      <trkpt lat="46.875669015571475" lon="5.716050015762448">
        <ele>363.51999999999998</ele>
        <time>2025-04-23T14:16:23Z</time>
      </trkpt>
      <trkpt lat="46.875494001433253" lon="5.716078011319041">
        <ele>364.48000000000002</ele>
        <time>2025-04-23T14:16:24Z</time>
      </trkpt>
      <trkpt lat="46.87531596980989" lon="5.716106006875634">
        <ele>365.44</ele>
        <time>2025-04-23T14:16:25Z</time>
      </trkpt>
      <trkpt lat="46.875138022005558" lon="5.716145988553762">
        <ele>365.92000000000002</ele>
        <time>2025-04-23T14:16:26Z</time>
      </trkpt>
      <trkpt lat="46.873382013291121" lon="5.716345980763435">
        <ele>373.61000000000001</ele>
        <time>2025-04-23T14:16:36Z</time>
      </trkpt>
      <trkpt lat="46.87110498547554" lon="5.71639996021986">
        <ele>378.42000000000002</ele>
        <time>2025-04-23T14:16:49Z</time>
      </trkpt>
      <trkpt lat="46.869564978405833" lon="5.716430973261595">
        <ele>380.33999999999997</ele>
        <time>2025-04-23T14:17:00Z</time>
      </trkpt>
      <trkpt lat="46.868337029591203" lon="5.716430973261595">
        <ele>380.33999999999997</ele>
        <time>2025-04-23T14:17:11Z</time>
      </trkpt>
      <trkpt lat="46.868129996582866" lon="5.716404989361763">
        <ele>379.38</ele>
        <time>2025-04-23T14:17:13Z</time>
      </trkpt>
      <trkpt lat="46.868033017963171" lon="5.716387974098325">
        <ele>379.38</ele>
        <time>2025-04-23T14:17:14Z</time>
      </trkpt>
      <trkpt lat="46.866955021396279" lon="5.716082034632564">
        <ele>375.05000000000001</ele>
        <time>2025-04-23T14:17:23Z</time>
      </trkpt>
      <trkpt lat="46.865351982414722" lon="5.715167988091707">
        <ele>369.27999999999997</ele>
        <time>2025-04-23T14:17:34Z</time>
      </trkpt>
      <trkpt lat="46.86489500105381" lon="5.714883003383875">
        <ele>367.83999999999997</ele>
        <time>2025-04-23T14:17:37Z</time>
      </trkpt>
      <trkpt lat="46.864727027714252" lon="5.71482902392745">
        <ele>366.88</ele>
        <time>2025-04-23T14:17:38Z</time>
      </trkpt>
      <trkpt lat="46.864557964727283" lon="5.714774960651994">
        <ele>366.39999999999998</ele>
        <time>2025-04-23T14:17:39Z</time>
      </trkpt>
      <trkpt lat="46.864048009738326" lon="5.714611010625958">
        <ele>364.48000000000002</ele>
        <time>2025-04-23T14:17:42Z</time>
      </trkpt>
      <trkpt lat="46.862404989078641" lon="5.713839959353209">
        <ele>357.26999999999998</ele>
        <time>2025-04-23T14:17:51Z</time>
      </trkpt>
      <trkpt lat="46.860087979584932" lon="5.712688034400344">
        <ele>348.13</ele>
        <time>2025-04-23T14:18:03Z</time>
      </trkpt>
      <trkpt lat="46.858229963108897" lon="5.712203979492188">
        <ele>339.48000000000002</ele>
        <time>2025-04-23T14:18:12Z</time>
      </trkpt>
      <trkpt lat="46.856712000444531" lon="5.712429033592343">
        <ele>332.75</ele>
        <time>2025-04-23T14:18:19Z</time>
      </trkpt>
      <trkpt lat="46.855228990316391" lon="5.712334988638759">
        <ele>326.5</ele>
        <time>2025-04-23T14:18:26Z</time>
      </trkpt>
      <trkpt lat="46.853680014610291" lon="5.711607020348311">
        <ele>320.25999999999999</ele>
        <time>2025-04-23T14:18:34Z</time>
      </trkpt>
      <trkpt lat="46.852061972022057" lon="5.710722981020808">
        <ele>313.05000000000001</ele>
        <time>2025-04-23T14:18:44Z</time>
      </trkpt>
      <trkpt lat="46.851383959874511" lon="5.710348980501294">
        <ele>309.68000000000001</ele>
        <time>2025-04-23T14:18:49Z</time>
      </trkpt>
      <trkpt lat="46.851090006530285" lon="5.710080005228519">
        <ele>307.75999999999999</ele>
        <time>2025-04-23T14:18:52Z</time>
      </trkpt>
      <trkpt lat="46.851010965183377" lon="5.709958970546722">
        <ele>307.75999999999999</ele>
        <time>2025-04-23T14:18:53Z</time>
      </trkpt>
      <trkpt lat="46.850078981369734" lon="5.708514014258981">
        <ele>305.36000000000001</ele>
        <time>2025-04-23T14:19:03Z</time>
      </trkpt>
      <trkpt lat="46.84942502528429" lon="5.707445992156863">
        <ele>307.27999999999997</ele>
        <time>2025-04-23T14:19:09Z</time>
      </trkpt>
      <trkpt lat="46.848642993718386" lon="5.706207985058427">
        <ele>308.72000000000003</ele>
        <time>2025-04-23T14:19:16Z</time>
      </trkpt>
      <trkpt lat="46.847156966105103" lon="5.704262964427471">
        <ele>308.24000000000001</ele>
        <time>2025-04-23T14:19:28Z</time>
      </trkpt>
      <trkpt lat="46.846279967576265" lon="5.703581012785435">
        <ele>310.16000000000003</ele>
        <time>2025-04-23T14:19:34Z</time>
      </trkpt>
      <trkpt lat="46.844507027417421" lon="5.702222976833582">
        <ele>314.00999999999999</ele>
        <time>2025-04-23T14:19:46Z</time>
      </trkpt>
      <trkpt lat="46.842490006238222" lon="5.700535029172897">
        <ele>309.68000000000001</ele>
        <time>2025-04-23T14:19:59Z</time>
      </trkpt>
      <trkpt lat="46.840933989733458" lon="5.69938201457262">
        <ele>310.16000000000003</ele>
        <time>2025-04-23T14:20:08Z</time>
      </trkpt>
      <trkpt lat="46.838794006034732" lon="5.697742011398077">
        <ele>310.16000000000003</ele>
        <time>2025-04-23T14:20:20Z</time>
      </trkpt>
      <trkpt lat="46.837696982547641" lon="5.696455975994468">
        <ele>306.80000000000001</ele>
        <time>2025-04-23T14:20:27Z</time>
      </trkpt>
      <trkpt lat="46.836928026750684" lon="5.694480026140809">
        <ele>303.43000000000001</ele>
        <time>2025-04-23T14:20:35Z</time>
      </trkpt>
      <trkpt lat="46.836714036762714" lon="5.692354962229729">
        <ele>296.69999999999999</ele>
        <time>2025-04-23T14:20:43Z</time>
      </trkpt>
      <trkpt lat="46.836924003437161" lon="5.690408013761044">
        <ele>292.38</ele>
        <time>2025-04-23T14:20:51Z</time>
      </trkpt>
      <trkpt lat="46.837015030905604" lon="5.689708963036537">
        <ele>291.89999999999998</ele>
        <time>2025-04-23T14:20:55Z</time>
      </trkpt>
      <trkpt lat="46.837036991491914" lon="5.68960796110332">
        <ele>291.89999999999998</ele>
        <time>2025-04-23T14:20:56Z</time>
      </trkpt>
      <trkpt lat="46.837056018412113" lon="5.689524980261922">
        <ele>291.89999999999998</ele>
        <time>2025-04-23T14:20:57Z</time>
      </trkpt>
      <trkpt lat="46.837064987048507" lon="5.68945599719882">
        <ele>292.38</ele>
        <time>2025-04-23T14:20:58Z</time>
      </trkpt>
      <trkpt lat="46.837074039503932" lon="5.689377961680293">
        <ele>291.89999999999998</ele>
        <time>2025-04-23T14:20:59Z</time>
      </trkpt>
      <trkpt lat="46.837228015065193" lon="5.689308978617191">
        <ele>292.38</ele>
        <time>2025-04-23T14:21:00Z</time>
      </trkpt>
      <trkpt lat="46.837260033935308" lon="5.689178975299001">
        <ele>292.38</ele>
        <time>2025-04-23T14:21:02Z</time>
      </trkpt>
      <trkpt lat="46.837284006178379" lon="5.689083002507687">
        <ele>292.38</ele>
        <time>2025-04-23T14:21:03Z</time>
      </trkpt>
      <trkpt lat="46.83726598508656" lon="5.688971020281315">
        <ele>291.89999999999998</ele>
        <time>2025-04-23T14:21:04Z</time>
      </trkpt>
      <trkpt lat="46.837231032550335" lon="5.688868006691337">
        <ele>291.89999999999998</ele>
        <time>2025-04-23T14:21:05Z</time>
      </trkpt>
      <trkpt lat="46.837228015065193" lon="5.688858032226563">
        <ele>292.38</ele>
        <time>2025-04-23T14:21:06Z</time>
      </trkpt>
      <trkpt lat="46.837120978161693" lon="5.68863901309669">
        <ele>292.38</ele>
        <time>2025-04-23T14:21:07Z</time>
      </trkpt>
      <trkpt lat="46.837120978161693" lon="5.688500963151455">
        <ele>292.38</ele>
        <time>2025-04-23T14:21:08Z</time>
      </trkpt>
      <trkpt lat="46.837123995646834" lon="5.688346987590194">
        <ele>292.38</ele>
        <time>2025-04-23T14:21:09Z</time>
      </trkpt>
      <trkpt lat="46.837177975103259" lon="5.686700027436018">
        <ele>290.94</ele>
        <time>2025-04-23T14:21:17Z</time>
      </trkpt>
      <trkpt lat="46.837248969823122" lon="5.683803996071219">
        <ele>292.86000000000001</ele>
        <time>2025-04-23T14:21:28Z</time>
      </trkpt>
      <trkpt lat="46.837289035320282" lon="5.680791959166527">
        <ele>295.74000000000001</ele>
        <time>2025-04-23T14:21:39Z</time>
      </trkpt>
      <trkpt lat="46.837721038609743" lon="5.678450977429748">
        <ele>294.30000000000001</ele>
        <time>2025-04-23T14:21:47Z</time>
      </trkpt>
      <trkpt lat="46.838542968034744" lon="5.67650000564754">
        <ele>292.86000000000001</ele>
        <time>2025-04-23T14:21:54Z</time>
      </trkpt>
      <trkpt lat="46.839938974007964" lon="5.673732971772552">
        <ele>296.69999999999999</ele>
        <time>2025-04-23T14:22:05Z</time>
      </trkpt>
      <trkpt lat="46.840630983933806" lon="5.671316972002387">
        <ele>301.50999999999999</ele>
        <time>2025-04-23T14:22:13Z</time>
      </trkpt>
      <trkpt lat="46.841208999976516" lon="5.667895982041955">
        <ele>300.06999999999999</ele>
        <time>2025-04-23T14:22:23Z</time>
      </trkpt>
      <trkpt lat="46.842187000438571" lon="5.662024961784482">
        <ele>288.52999999999997</ele>
        <time>2025-04-23T14:22:40Z</time>
      </trkpt>
      <trkpt lat="46.84278798289597" lon="5.658283028751612">
        <ele>287.08999999999997</ele>
        <time>2025-04-23T14:22:51Z</time>
      </trkpt>
      <trkpt lat="46.843369016423821" lon="5.655020959675312">
        <ele>282.27999999999997</ele>
        <time>2025-04-23T14:23:02Z</time>
      </trkpt>
      <trkpt lat="46.844230005517602" lon="5.651578009128571">
        <ele>270.75</ele>
        <time>2025-04-23T14:23:14Z</time>
      </trkpt>
      <trkpt lat="46.844893014058471" lon="5.648304959759116">
        <ele>262.57999999999998</ele>
        <time>2025-04-23T14:23:25Z</time>
      </trkpt>
      <trkpt lat="46.845095017924905" lon="5.645144982263446">
        <ele>257.76999999999998</ele>
        <time>2025-04-23T14:23:35Z</time>
      </trkpt>
      <trkpt lat="46.845263997092843" lon="5.639675036072731">
        <ele>253.44</ele>
        <time>2025-04-23T14:23:52Z</time>
      </trkpt>
      <trkpt lat="46.845411015674472" lon="5.635761022567749">
        <ele>246.22999999999999</ele>
        <time>2025-04-23T14:24:05Z</time>
      </trkpt>
      <trkpt lat="46.8454509973526" lon="5.632966998964548">
        <ele>241.91</ele>
        <time>2025-04-23T14:24:14Z</time>
      </trkpt>
      <trkpt lat="46.845444962382317" lon="5.632652007043362">
        <ele>241.43000000000001</ele>
        <time>2025-04-23T14:24:15Z</time>
      </trkpt>
      <trkpt lat="46.845098035410047" lon="5.630045989528298">
        <ele>239.02000000000001</ele>
        <time>2025-04-23T14:24:24Z</time>
      </trkpt>
      <trkpt lat="46.844529993832111" lon="5.626574959605932">
        <ele>248.63999999999999</ele>
        <time>2025-04-23T14:24:36Z</time>
      </trkpt>
      <trkpt lat="46.844450030475855" lon="5.626313025131822">
        <ele>249.59999999999999</ele>
        <time>2025-04-23T14:24:37Z</time>
      </trkpt>
      <trkpt lat="46.843550987541676" lon="5.624267002567649">
        <ele>259.69</ele>
        <time>2025-04-23T14:24:46Z</time>
      </trkpt>
      <trkpt lat="46.842544991523027" lon="5.622603027150035">
        <ele>266.89999999999998</ele>
        <time>2025-04-23T14:24:54Z</time>
      </trkpt>
      <trkpt lat="46.8417779635638" lon="5.621750000864267">
        <ele>268.35000000000002</ele>
        <time>2025-04-23T14:25:01Z</time>
      </trkpt>
      <trkpt lat="46.841558022424579" lon="5.621440038084984">
        <ele>268.35000000000002</ele>
        <time>2025-04-23T14:25:04Z</time>
      </trkpt>
      <trkpt lat="46.841490967199206" lon="5.621331995353103">
        <ele>268.35000000000002</ele>
        <time>2025-04-23T14:25:05Z</time>
      </trkpt>
      <trkpt lat="46.841414021328092" lon="5.621083974838257">
        <ele>268.35000000000002</ele>
        <time>2025-04-23T14:25:07Z</time>
      </trkpt>
      <trkpt lat="46.841331962496042" lon="5.621000993996859">
        <ele>268.35000000000002</ele>
        <time>2025-04-23T14:25:08Z</time>
      </trkpt>
      <trkpt lat="46.84126197360456" lon="5.620966041460633">
        <ele>268.35000000000002</ele>
        <time>2025-04-23T14:25:09Z</time>
      </trkpt>
      <trkpt lat="46.841144040226936" lon="5.621005017310381">
        <ele>267.86000000000001</ele>
        <time>2025-04-23T14:25:10Z</time>
      </trkpt>
      <trkpt lat="46.841034991666675" lon="5.620962018147111">
        <ele>267.86000000000001</ele>
        <time>2025-04-23T14:25:11Z</time>
      </trkpt>
      <trkpt lat="46.840920997783542" lon="5.620908038690686">
        <ele>267.86000000000001</ele>
        <time>2025-04-23T14:25:12Z</time>
      </trkpt>
      <trkpt lat="46.840795017778873" lon="5.620848024263978">
        <ele>267.86000000000001</ele>
        <time>2025-04-23T14:25:13Z</time>
      </trkpt>
      <trkpt lat="46.84065998531878" lon="5.620777029544115">
        <ele>267.38</ele>
        <time>2025-04-23T14:25:14Z</time>
      </trkpt>
      <trkpt lat="46.840520007535815" lon="5.620668986812234">
        <ele>267.38</ele>
        <time>2025-04-23T14:25:15Z</time>
      </trkpt>
      <trkpt lat="46.839265991002321" lon="5.619593001902103">
        <ele>264.98000000000002</ele>
        <time>2025-04-23T14:25:23Z</time>
      </trkpt>
      <trkpt lat="46.839121989905834" lon="5.619355039671063">
        <ele>264.5</ele>
        <time>2025-04-23T14:25:24Z</time>
      </trkpt>
      <trkpt lat="46.838987041264772" lon="5.619131997227669">
        <ele>264.5</ele>
        <time>2025-04-23T14:25:25Z</time>
      </trkpt>
      <trkpt lat="46.837466983124614" lon="5.616603009402752">
        <ele>259.69</ele>
        <time>2025-04-23T14:25:36Z</time>
      </trkpt>
      <trkpt lat="46.835714997723699" lon="5.613702032715082">
        <ele>257.76999999999998</ele>
        <time>2025-04-23T14:25:48Z</time>
      </trkpt>
      <trkpt lat="46.833713985979557" lon="5.610440969467163">
        <ele>261.62</ele>
        <time>2025-04-23T14:26:02Z</time>
      </trkpt>
      <trkpt lat="46.832489976659417" lon="5.608316995203495">
        <ele>267.38</ele>
        <time>2025-04-23T14:26:11Z</time>
      </trkpt>
      <trkpt lat="46.832399033010006" lon="5.608046008273959">
        <ele>268.35000000000002</ele>
        <time>2025-04-23T14:26:12Z</time>
      </trkpt>
      <trkpt lat="46.832329966127872" lon="5.60776999220252">
        <ele>268.82999999999998</ele>
        <time>2025-04-23T14:26:13Z</time>
      </trkpt>
      <trkpt lat="46.831821016967297" lon="5.605980958789587">
        <ele>273.14999999999998</ele>
        <time>2025-04-23T14:26:20Z</time>
      </trkpt>
      <trkpt lat="46.831723032519221" lon="5.605752971023321">
        <ele>273.63</ele>
        <time>2025-04-23T14:26:21Z</time>
      </trkpt>
      <trkpt lat="46.830530958250165" lon="5.603524977341294">
        <ele>272.67000000000002</ele>
        <time>2025-04-23T14:26:31Z</time>
      </trkpt>
      <trkpt lat="46.829870967194438" lon="5.601364960893989">
        <ele>267.38</ele>
        <time>2025-04-23T14:26:39Z</time>
      </trkpt>
      <trkpt lat="46.828815015032887" lon="5.599524965509772">
        <ele>263.54000000000002</ele>
        <time>2025-04-23T14:26:47Z</time>
      </trkpt>
      <trkpt lat="46.827135030180216" lon="5.597783960402012">
        <ele>261.62</ele>
        <time>2025-04-23T14:26:57Z</time>
      </trkpt>
      <trkpt lat="46.824455000460148" lon="5.595296965911984">
        <ele>259.69</ele>
        <time>2025-04-23T14:27:12Z</time>
      </trkpt>
      <trkpt lat="46.822643000632524" lon="5.594627000391483">
        <ele>258.73000000000002</ele>
        <time>2025-04-23T14:27:21Z</time>
      </trkpt>
      <trkpt lat="46.819547982886434" lon="5.593599965795875">
        <ele>254.88999999999999</ele>
        <time>2025-04-23T14:27:36Z</time>
      </trkpt>
      <trkpt lat="46.81739098392427" lon="5.592836039140821">
        <ele>251.03999999999999</ele>
        <time>2025-04-23T14:27:47Z</time>
      </trkpt>
      <trkpt lat="46.817075992003083" lon="5.592592963948846">
        <ele>250.56</ele>
        <time>2025-04-23T14:27:49Z</time>
      </trkpt>
      <trkpt lat="46.816921010613441" lon="5.592453991994262">
        <ele>250.08000000000001</ele>
        <time>2025-04-23T14:27:50Z</time>
      </trkpt>
      <trkpt lat="46.81676996871829" lon="5.592292975634337">
        <ele>249.59999999999999</ele>
        <time>2025-04-23T14:27:51Z</time>
      </trkpt>
      <trkpt lat="46.815434983000159" lon="5.590607039630413">
        <ele>246.22999999999999</ele>
        <time>2025-04-23T14:28:00Z</time>
      </trkpt>
      <trkpt lat="46.813785005360842" lon="5.58853997848928">
        <ele>239.50999999999999</ele>
        <time>2025-04-23T14:28:11Z</time>
      </trkpt>
      <trkpt lat="46.812152964994311" lon="5.586603004485369">
        <ele>239.02000000000001</ele>
        <time>2025-04-23T14:28:22Z</time>
      </trkpt>
      <trkpt lat="46.811391972005367" lon="5.585843017324805">
        <ele>240.94999999999999</ele>
        <time>2025-04-23T14:28:30Z</time>
      </trkpt>
      <trkpt lat="46.811343021690845" lon="5.585756013169885">
        <ele>241.43000000000001</ele>
        <time>2025-04-23T14:28:31Z</time>
      </trkpt>
      <trkpt lat="46.811293987557292" lon="5.585669009014964">
        <ele>241.91</ele>
        <time>2025-04-23T14:28:32Z</time>
      </trkpt>
      <trkpt lat="46.8112469650805" lon="5.585585022345185">
        <ele>241.91</ele>
        <time>2025-04-23T14:28:33Z</time>
      </trkpt>
      <trkpt lat="46.811220981180668" lon="5.585474967956543">
        <ele>241.91</ele>
        <time>2025-04-23T14:28:34Z</time>
      </trkpt>
      <trkpt lat="46.811194997280836" lon="5.585380000993609">
        <ele>241.91</ele>
        <time>2025-04-23T14:28:35Z</time>
      </trkpt>
      <trkpt lat="46.811157027259469" lon="5.585239017382264">
        <ele>241.91</ele>
        <time>2025-04-23T14:28:36Z</time>
      </trkpt>
      <trkpt lat="46.811100030317903" lon="5.585182020440698">
        <ele>241.91</ele>
        <time>2025-04-23T14:28:37Z</time>
      </trkpt>
      <trkpt lat="46.811004979535937" lon="5.58514497242868">
        <ele>241.91</ele>
        <time>2025-04-23T14:28:38Z</time>
      </trkpt>
      <trkpt lat="46.81092300452292" lon="5.585170034319162">
        <ele>242.38999999999999</ele>
        <time>2025-04-23T14:28:39Z</time>
      </trkpt>
      <trkpt lat="46.810836000367999" lon="5.585196018218994">
        <ele>242.38999999999999</ele>
        <time>2025-04-23T14:28:40Z</time>
      </trkpt>
      <trkpt lat="46.810744972899556" lon="5.585105996578932">
        <ele>242.38999999999999</ele>
        <time>2025-04-23T14:28:41Z</time>
      </trkpt>
      <trkpt lat="46.810668027028441" lon="5.585028966888785">
        <ele>242.38999999999999</ele>
        <time>2025-04-23T14:28:42Z</time>
      </trkpt>
      <trkpt lat="46.81057901121676" lon="5.584940034896135">
        <ele>242.38999999999999</ele>
        <time>2025-04-23T14:28:43Z</time>
      </trkpt>
      <trkpt lat="46.809466984122992" lon="5.583805963397026">
        <ele>241.91</ele>
        <time>2025-04-23T14:28:53Z</time>
      </trkpt>
      <trkpt lat="46.807778030633926" lon="5.58194300159812">
        <ele>240.94999999999999</ele>
        <time>2025-04-23T14:29:06Z</time>
      </trkpt>
      <trkpt lat="46.807319037616253" lon="5.581253003329039">
        <ele>242.38999999999999</ele>
        <time>2025-04-23T14:29:10Z</time>
      </trkpt>
      <trkpt lat="46.806251015514135" lon="5.579332038760185">
        <ele>244.78999999999999</ele>
        <time>2025-04-23T14:29:20Z</time>
      </trkpt>
      <trkpt lat="46.805132031440735" lon="5.578210037201643">
        <ele>248.63999999999999</ele>
        <time>2025-04-23T14:29:27Z</time>
      </trkpt>
      <trkpt lat="46.803843984380364" lon="5.577456001192331">
        <ele>254.41</ele>
        <time>2025-04-23T14:29:34Z</time>
      </trkpt>
      <trkpt lat="46.802405985072255" lon="5.576160997152329">
        <ele>263.06</ele>
        <time>2025-04-23T14:29:42Z</time>
      </trkpt>
      <trkpt lat="46.800919035449624" lon="5.574214970692992">
        <ele>273.14999999999998</ele>
        <time>2025-04-23T14:29:51Z</time>
      </trkpt>
      <trkpt lat="46.799473995342851" lon="5.572031987830997">
        <ele>282.27999999999997</ele>
        <time>2025-04-23T14:30:00Z</time>
      </trkpt>
      <trkpt lat="46.7981400154531" lon="5.571077959612012">
        <ele>289.97000000000003</ele>
        <time>2025-04-23T14:30:07Z</time>
      </trkpt>
      <trkpt lat="46.796215027570724" lon="5.570533974096179">
        <ele>300.55000000000001</ele>
        <time>2025-04-23T14:30:16Z</time>
      </trkpt>
      <trkpt lat="46.79498003795743" lon="5.569832995533943">
        <ele>306.80000000000001</ele>
        <time>2025-04-23T14:30:22Z</time>
      </trkpt>
      <trkpt lat="46.793686961755157" lon="5.568562969565392">
        <ele>313.05000000000001</ele>
        <time>2025-04-23T14:30:29Z</time>
      </trkpt>
      <trkpt lat="46.791871022433043" lon="5.567497964948416">
        <ele>315.93000000000001</ele>
        <time>2025-04-23T14:30:38Z</time>
      </trkpt>
      <trkpt lat="46.789510007947683" lon="5.566541003063321">
        <ele>310.63999999999999</ele>
        <time>2025-04-23T14:30:49Z</time>
      </trkpt>
      <trkpt lat="46.787536991760135" lon="5.565567025914788">
        <ele>306.80000000000001</ele>
        <time>2025-04-23T14:30:59Z</time>
      </trkpt>
      <trkpt lat="46.786642977967858" lon="5.56497098878026">
        <ele>305.83999999999997</ele>
        <time>2025-04-23T14:31:04Z</time>
      </trkpt>
      <trkpt lat="46.786497971042991" lon="5.564802009612322">
        <ele>305.36000000000001</ele>
        <time>2025-04-23T14:31:05Z</time>
      </trkpt>
      <trkpt lat="46.786352964118123" lon="5.564628001302481">
        <ele>304.88</ele>
        <time>2025-04-23T14:31:06Z</time>
      </trkpt>
      <trkpt lat="46.78621499799192" lon="5.564444018527865">
        <ele>304.88</ele>
        <time>2025-04-23T14:31:07Z</time>
      </trkpt>
      <trkpt lat="46.786081977188587" lon="5.564251989126205">
        <ele>304.88</ele>
        <time>2025-04-23T14:31:08Z</time>
      </trkpt>
      <trkpt lat="46.785965971648693" lon="5.564028024673462">
        <ele>303.91000000000003</ele>
        <time>2025-04-23T14:31:09Z</time>
      </trkpt>
      <trkpt lat="46.78585197776556" lon="5.56381001137197">
        <ele>303.43000000000001</ele>
        <time>2025-04-23T14:31:10Z</time>
      </trkpt>
      <trkpt lat="46.784995011985302" lon="5.561921987682581">
        <ele>301.02999999999997</ele>
        <time>2025-04-23T14:31:18Z</time>
      </trkpt>
      <trkpt lat="46.784853022545576" lon="5.561732975766063">
        <ele>300.55000000000001</ele>
        <time>2025-04-23T14:31:19Z</time>
      </trkpt>
      <trkpt lat="46.784701980650425" lon="5.561558967456222">
        <ele>300.55000000000001</ele>
        <time>2025-04-23T14:31:20Z</time>
      </trkpt>
      <trkpt lat="46.784524032846093" lon="5.561440028250217">
        <ele>300.06999999999999</ele>
        <time>2025-04-23T14:31:21Z</time>
      </trkpt>
      <trkpt lat="46.784339966252446" lon="5.56133802048862">
        <ele>299.11000000000001</ele>
        <time>2025-04-23T14:31:22Z</time>
      </trkpt>
      <trkpt lat="46.784147014841437" lon="5.561241041868925">
        <ele>298.63</ele>
        <time>2025-04-23T14:31:23Z</time>
      </trkpt>
      <trkpt lat="46.783948028460145" lon="5.561141967773438">
        <ele>298.14999999999998</ele>
        <time>2025-04-23T14:31:24Z</time>
      </trkpt>
      <trkpt lat="46.783746024593711" lon="5.56112595833838">
        <ele>297.67000000000002</ele>
        <time>2025-04-23T14:31:25Z</time>
      </trkpt>
      <trkpt lat="46.783531028777361" lon="5.561108021065593">
        <ele>296.69999999999999</ele>
        <time>2025-04-23T14:31:26Z</time>
      </trkpt>
      <trkpt lat="46.780905984342098" lon="5.560838961973786">
        <ele>287.56999999999999</ele>
        <time>2025-04-23T14:31:38Z</time>
      </trkpt>
      <trkpt lat="46.779142012819648" lon="5.560291958972812">
        <ele>281.31999999999999</ele>
        <time>2025-04-23T14:31:46Z</time>
      </trkpt>
      <trkpt lat="46.77676398307085" lon="5.559120001271367">
        <ele>270.26999999999998</ele>
        <time>2025-04-23T14:31:56Z</time>
      </trkpt>
      <trkpt lat="46.774421995505691" lon="5.557847041636705">
        <ele>257.76999999999998</ele>
        <time>2025-04-23T14:32:06Z</time>
      </trkpt>
      <trkpt lat="46.772259967401624" lon="5.557022010907531">
        <ele>248.16</ele>
        <time>2025-04-23T14:32:15Z</time>
      </trkpt>
      <trkpt lat="46.770388036966324" lon="5.556374005973339">
        <ele>239.99000000000001</ele>
        <time>2025-04-23T14:32:23Z</time>
      </trkpt>
      <trkpt lat="46.767878998070955" lon="5.555272037163377">
        <ele>233.74000000000001</ele>
        <time>2025-04-23T14:32:34Z</time>
      </trkpt>
      <trkpt lat="46.765945963561535" lon="5.555127030238509">
        <ele>232.78</ele>
        <time>2025-04-23T14:32:42Z</time>
      </trkpt>
      <trkpt lat="46.763765998184681" lon="5.555617958307266">
        <ele>234.22</ele>
        <time>2025-04-23T14:32:51Z</time>
      </trkpt>
      <trkpt lat="46.761770015582442" lon="5.556120034307241">
        <ele>235.18000000000001</ele>
        <time>2025-04-23T14:33:01Z</time>
      </trkpt>
      <trkpt lat="46.759484019130468" lon="5.556357996538281">
        <ele>241.43000000000001</ele>
        <time>2025-04-23T14:33:12Z</time>
      </trkpt>
      <trkpt lat="46.75740203820169" lon="5.556595036759973">
        <ele>249.59999999999999</ele>
        <time>2025-04-23T14:33:22Z</time>
      </trkpt>
      <trkpt lat="46.75519198179245" lon="5.557338008657098">
        <ele>259.69</ele>
        <time>2025-04-23T14:33:32Z</time>
      </trkpt>
      <trkpt lat="46.752778999507427" lon="5.558093972504139">
        <ele>268.82999999999998</ele>
        <time>2025-04-23T14:33:42Z</time>
      </trkpt>
      <trkpt lat="46.751143019646406" lon="5.557918958365917">
        <ele>280.36000000000001</ele>
        <time>2025-04-23T14:33:49Z</time>
      </trkpt>
      <trkpt lat="46.749334037303925" lon="5.557205993682146">
        <ele>289.49000000000001</ele>
        <time>2025-04-23T14:33:57Z</time>
      </trkpt>
      <trkpt lat="46.746429037302732" lon="5.556047027930617">
        <ele>291.42000000000002</ele>
        <time>2025-04-23T14:34:10Z</time>
      </trkpt>
      <trkpt lat="46.743639037013054" lon="5.555632039904594">
        <ele>288.05000000000001</ele>
        <time>2025-04-23T14:34:22Z</time>
      </trkpt>
      <trkpt lat="46.740979962050915" lon="5.555456019937992">
        <ele>290.94</ele>
        <time>2025-04-23T14:34:33Z</time>
      </trkpt>
      <trkpt lat="46.738545019179583" lon="5.556024983525276">
        <ele>299.58999999999997</ele>
        <time>2025-04-23T14:34:43Z</time>
      </trkpt>
      <trkpt lat="46.735927015542984" lon="5.557354018092156">
        <ele>303.91000000000003</ele>
        <time>2025-04-23T14:34:54Z</time>
      </trkpt>
      <trkpt lat="46.734055001288652" lon="5.558093972504139">
        <ele>300.06999999999999</ele>
        <time>2025-04-23T14:35:02Z</time>
      </trkpt>
      <trkpt lat="46.73233000561595" lon="5.55841701105237">
        <ele>297.18000000000001</ele>
        <time>2025-04-23T14:35:10Z</time>
      </trkpt>
      <trkpt lat="46.72990595921874" lon="5.558225987479091">
        <ele>295.25999999999999</ele>
        <time>2025-04-23T14:35:21Z</time>
      </trkpt>
      <trkpt lat="46.727034989744425" lon="5.557749979197979">
        <ele>301.02999999999997</ele>
        <time>2025-04-23T14:35:34Z</time>
      </trkpt>
      <trkpt lat="46.723936032503843" lon="5.557473041117191">
        <ele>311.12</ele>
        <time>2025-04-23T14:35:48Z</time>
      </trkpt>
      <trkpt lat="46.721575018018484" lon="5.557405985891819">
        <ele>319.77999999999997</ele>
        <time>2025-04-23T14:35:58Z</time>
      </trkpt>
      <trkpt lat="46.71984700486064" lon="5.556993009522557">
        <ele>325.54000000000002</ele>
        <time>2025-04-23T14:36:06Z</time>
      </trkpt>
      <trkpt lat="46.717546004801989" lon="5.556180970743299">
        <ele>328.43000000000001</ele>
        <time>2025-04-23T14:36:17Z</time>
      </trkpt>
      <trkpt lat="46.715628979727626" lon="5.555184027180076">
        <ele>324.57999999999998</ele>
        <time>2025-04-23T14:36:26Z</time>
      </trkpt>
      <trkpt lat="46.713535012677312" lon="5.55360596626997">
        <ele>315.93000000000001</ele>
        <time>2025-04-23T14:36:37Z</time>
      </trkpt>
      <trkpt lat="46.711564008146524" lon="5.552095966413617">
        <ele>308.24000000000001</ele>
        <time>2025-04-23T14:36:47Z</time>
      </trkpt>
      <trkpt lat="46.709718983620405" lon="5.550804985687137">
        <ele>301.50999999999999</ele>
        <time>2025-04-23T14:36:56Z</time>
      </trkpt>
      <trkpt lat="46.708279978483915" lon="5.549753978848457">
        <ele>296.69999999999999</ele>
        <time>2025-04-23T14:37:04Z</time>
      </trkpt>
      <trkpt lat="46.707840012386441" lon="5.5494340416044">
        <ele>293.81999999999999</ele>
        <time>2025-04-23T14:37:09Z</time>
      </trkpt>
      <trkpt lat="46.70772903598845" lon="5.549353994429112">
        <ele>290.94</ele>
        <time>2025-04-23T14:37:17Z</time>
      </trkpt>
      <trkpt lat="46.70760196633637" lon="5.549253998324275">
        <ele>288.05000000000001</ele>
        <time>2025-04-23T14:37:26Z</time>
      </trkpt>
      <trkpt lat="46.707510016858578" lon="5.548877986148">
        <ele>286.61000000000001</ele>
        <time>2025-04-23T14:37:31Z</time>
      </trkpt>
      <trkpt lat="46.707495013251901" lon="5.548846973106265">
        <ele>286.61000000000001</ele>
        <time>2025-04-23T14:37:32Z</time>
      </trkpt>
      <trkpt lat="46.707401974126697" lon="5.548830041661859">
        <ele>286.13</ele>
        <time>2025-04-23T14:37:33Z</time>
      </trkpt>
      <trkpt lat="46.707345983013511" lon="5.548819983378053">
        <ele>286.13</ele>
        <time>2025-04-23T14:37:34Z</time>
      </trkpt>
      <trkpt lat="46.707283034920692" lon="5.548807997256517">
        <ele>286.13</ele>
        <time>2025-04-23T14:37:35Z</time>
      </trkpt>
      <trkpt lat="46.707209022715688" lon="5.54872996173799">
        <ele>286.13</ele>
        <time>2025-04-23T14:37:36Z</time>
      </trkpt>
      <trkpt lat="46.707164011895657" lon="5.548661984503269">
        <ele>286.13</ele>
        <time>2025-04-23T14:37:37Z</time>
      </trkpt>
      <trkpt lat="46.707112966105342" lon="5.548585038632155">
        <ele>285.64999999999998</ele>
        <time>2025-04-23T14:37:38Z</time>
      </trkpt>
      <trkpt lat="46.707055969163775" lon="5.548499040305615">
        <ele>285.64999999999998</ele>
        <time>2025-04-23T14:37:39Z</time>
      </trkpt>
      <trkpt lat="46.706995032727718" lon="5.548408012837172">
        <ele>285.64999999999998</ele>
        <time>2025-04-23T14:37:40Z</time>
      </trkpt>
      <trkpt lat="46.70693501830101" lon="5.548301981762052">
        <ele>286.13</ele>
        <time>2025-04-23T14:37:41Z</time>
      </trkpt>
      <trkpt lat="46.706349961459637" lon="5.547023992985487">
        <ele>286.61000000000001</ele>
        <time>2025-04-23T14:37:51Z</time>
      </trkpt>
      <trkpt lat="46.705634985119104" lon="5.545507958158851">
        <ele>285.17000000000002</ele>
        <time>2025-04-23T14:38:00Z</time>
      </trkpt>
      <trkpt lat="46.704969964921474" lon="5.543511975556612">
        <ele>278.44</ele>
        <time>2025-04-23T14:38:10Z</time>
      </trkpt>
      <trkpt lat="46.70442002825439" lon="5.540526006370783">
        <ele>276.04000000000002</ele>
        <time>2025-04-23T14:38:22Z</time>
      </trkpt>
      <trkpt lat="46.703578988090158" lon="5.538375964388251">
        <ele>274.11000000000001</ele>
        <time>2025-04-23T14:38:31Z</time>
      </trkpt>
      <trkpt lat="46.702423039823771" lon="5.536623978987336">
        <ele>274.11000000000001</ele>
        <time>2025-04-23T14:38:39Z</time>
      </trkpt>
      <trkpt lat="46.699762959033251" lon="5.533947972580791">
        <ele>263.06</ele>
        <time>2025-04-23T14:38:53Z</time>
      </trkpt>
      <trkpt lat="46.697435975074768" lon="5.531613025814295">
        <ele>269.31</ele>
        <time>2025-04-23T14:39:05Z</time>
      </trkpt>
      <trkpt lat="46.695818016305566" lon="5.53012004122138">
        <ele>276.51999999999998</ele>
        <time>2025-04-23T14:39:12Z</time>
      </trkpt>
      <trkpt lat="46.693843994289637" lon="5.528485989198089">
        <ele>282.27999999999997</ele>
        <time>2025-04-23T14:39:21Z</time>
      </trkpt>
      <trkpt lat="46.691835019737482" lon="5.526931984350085">
        <ele>278.92000000000002</ele>
        <time>2025-04-23T14:39:31Z</time>
      </trkpt>
      <trkpt lat="46.689741974696517" lon="5.524829970672727">
        <ele>267.38</ele>
        <time>2025-04-23T14:39:42Z</time>
      </trkpt>
      <trkpt lat="46.688032988458872" lon="5.522158993408084">
        <ele>256.32999999999998</ele>
        <time>2025-04-23T14:39:52Z</time>
      </trkpt>
      <trkpt lat="46.686578979715705" lon="5.519796973094344">
        <ele>255.37</ele>
        <time>2025-04-23T14:40:01Z</time>
      </trkpt>
      <trkpt lat="46.685706004500389" lon="5.51836702041328">
        <ele>258.73000000000002</ele>
        <time>2025-04-23T14:40:08Z</time>
      </trkpt>
      <trkpt lat="46.684639994055033" lon="5.516602965071797">
        <ele>261.62</ele>
        <time>2025-04-23T14:40:19Z</time>
      </trkpt>
      <trkpt lat="46.683419002220035" lon="5.514625003561378">
        <ele>256.81</ele>
        <time>2025-04-23T14:40:33Z</time>
      </trkpt>
      <trkpt lat="46.683189002797008" lon="5.514241028577089">
        <ele>255.37</ele>
        <time>2025-04-23T14:40:39Z</time>
      </trkpt>
      <trkpt lat="46.68297803029418" lon="5.513887982815504">
        <ele>253.44</ele>
        <time>2025-04-23T14:40:49Z</time>
      </trkpt>
      <trkpt lat="46.682882979512215" lon="5.513695031404495">
        <ele>252.96000000000001</ele>
        <time>2025-04-23T14:40:51Z</time>
      </trkpt>
      <trkpt lat="46.682798992842436" lon="5.513424966484308">
        <ele>252.47999999999999</ele>
        <time>2025-04-23T14:40:53Z</time>
      </trkpt>
      <trkpt lat="46.682756999507546" lon="5.513149034231901">
        <ele>252</ele>
        <time>2025-04-23T14:40:55Z</time>
      </trkpt>
      <trkpt lat="46.682707965373993" lon="5.513080973178148">
        <ele>252</ele>
        <time>2025-04-23T14:40:56Z</time>
      </trkpt>
      <trkpt lat="46.682648034766316" lon="5.513068987056613">
        <ele>252</ele>
        <time>2025-04-23T14:40:57Z</time>
      </trkpt>
      <trkpt lat="46.682590031996369" lon="5.513089019805193">
        <ele>252</ele>
        <time>2025-04-23T14:40:58Z</time>
      </trkpt>
      <trkpt lat="46.682525994256139" lon="5.513109974563122">
        <ele>251.52000000000001</ele>
        <time>2025-04-23T14:40:59Z</time>
      </trkpt>
      <trkpt lat="46.682496992871165" lon="5.513120032846928">
        <ele>251.52000000000001</ele>
        <time>2025-04-23T14:41:00Z</time>
      </trkpt>
      <trkpt lat="46.682393979281187" lon="5.513095976784825">
        <ele>251.52000000000001</ele>
        <time>2025-04-23T14:41:01Z</time>
      </trkpt>
      <trkpt lat="46.682324996218085" lon="5.513079967349768">
        <ele>251.52000000000001</ele>
        <time>2025-04-23T14:41:02Z</time>
      </trkpt>
      <trkpt lat="46.682241009548306" lon="5.5130610242486">
        <ele>251.03999999999999</ele>
        <time>2025-04-23T14:41:03Z</time>
      </trkpt>
      <trkpt lat="46.682147970423102" lon="5.513010984286666">
        <ele>250.56</ele>
        <time>2025-04-23T14:41:04Z</time>
      </trkpt>
      <trkpt lat="46.681039966642857" lon="5.512317968532443">
        <ele>248.16</ele>
        <time>2025-04-23T14:41:14Z</time>
      </trkpt>
      <trkpt lat="46.679386971518397" lon="5.511306021362543">
        <ele>241.43000000000001</ele>
        <time>2025-04-23T14:41:28Z</time>
      </trkpt>
      <trkpt lat="46.678476026281714" lon="5.510734962299466">
        <ele>236.62</ele>
        <time>2025-04-23T14:41:38Z</time>
      </trkpt>
      <trkpt lat="46.677965987473726" lon="5.510432040318847">
        <ele>235.18000000000001</ele>
        <time>2025-04-23T14:41:45Z</time>
      </trkpt>
      <trkpt lat="46.677947966381907" lon="5.51015904173255">
        <ele>235.18000000000001</ele>
        <time>2025-04-23T14:41:46Z</time>
      </trkpt>
      <trkpt lat="46.67788602411747" lon="5.510035995393992">
        <ele>235.18000000000001</ele>
        <time>2025-04-23T14:41:48Z</time>
      </trkpt>
      <trkpt lat="46.677804971113801" lon="5.509929964318872">
        <ele>235.18000000000001</ele>
        <time>2025-04-23T14:41:49Z</time>
      </trkpt>
      <trkpt lat="46.677735988050699" lon="5.509901968762279">
        <ele>235.18000000000001</ele>
        <time>2025-04-23T14:41:50Z</time>
      </trkpt>
      <trkpt lat="46.677646972239017" lon="5.509913032874465">
        <ele>235.18000000000001</ele>
        <time>2025-04-23T14:41:51Z</time>
      </trkpt>
      <trkpt lat="46.677583018317819" lon="5.509923007339239">
        <ele>235.18000000000001</ele>
        <time>2025-04-23T14:41:52Z</time>
      </trkpt>
      <trkpt lat="46.677509006112814" lon="5.510071031749249">
        <ele>235.66</ele>
        <time>2025-04-23T14:41:53Z</time>
      </trkpt>
      <trkpt lat="46.677497019991279" lon="5.510093998163939">
        <ele>235.66</ele>
        <time>2025-04-23T14:41:54Z</time>
      </trkpt>
      <trkpt lat="46.677368022501469" lon="5.510330032557249">
        <ele>235.66</ele>
        <time>2025-04-23T14:41:55Z</time>
      </trkpt>
      <trkpt lat="46.677260985597968" lon="5.510351993143559">
        <ele>235.66</ele>
        <time>2025-04-23T14:41:56Z</time>
      </trkpt>
      <trkpt lat="46.67715503834188" lon="5.510384012013674">
        <ele>235.66</ele>
        <time>2025-04-23T14:41:57Z</time>
      </trkpt>
      <trkpt lat="46.67702897451818" lon="5.510422987863421">
        <ele>235.66</ele>
        <time>2025-04-23T14:41:58Z</time>
      </trkpt>
      <trkpt lat="46.675727013498545" lon="5.510795982554555">
        <ele>237.09999999999999</ele>
        <time>2025-04-23T14:42:06Z</time>
      </trkpt>
      <trkpt lat="46.67410402558744" lon="5.5112149938941">
        <ele>243.83000000000001</ele>
        <time>2025-04-23T14:42:14Z</time>
      </trkpt>
      <trkpt lat="46.672740038484335" lon="5.511038973927498">
        <ele>250.56</ele>
        <time>2025-04-23T14:42:20Z</time>
      </trkpt>
      <trkpt lat="46.67148401029408" lon="5.510210003703833">
        <ele>257.76999999999998</ele>
        <time>2025-04-23T14:42:26Z</time>
      </trkpt>
      <trkpt lat="46.669789021834731" lon="5.508207986131311">
        <ele>262.57999999999998</ele>
        <time>2025-04-23T14:42:35Z</time>
      </trkpt>
      <trkpt lat="46.667586006224155" lon="5.505570033565164">
        <ele>263.54000000000002</ele>
        <time>2025-04-23T14:42:47Z</time>
      </trkpt>
      <trkpt lat="46.66611397638917" lon="5.504398997873068">
        <ele>264.5</ele>
        <time>2025-04-23T14:42:54Z</time>
      </trkpt>
      <trkpt lat="46.664647981524467" lon="5.504225995391607">
        <ele>261.62</ele>
        <time>2025-04-23T14:43:00Z</time>
      </trkpt>
      <trkpt lat="46.663368986919522" lon="5.504825972020626">
        <ele>257.29000000000002</ele>
        <time>2025-04-23T14:43:06Z</time>
      </trkpt>
      <trkpt lat="46.661895029246807" lon="5.506275035440922">
        <ele>248.63999999999999</ele>
        <time>2025-04-23T14:43:15Z</time>
      </trkpt>
      <trkpt lat="46.661335034295917" lon="5.506836958229542">
        <ele>244.78999999999999</ele>
        <time>2025-04-23T14:43:20Z</time>
      </trkpt>
      <trkpt lat="46.661282982677221" lon="5.506889009848237">
        <ele>243.83000000000001</ele>
        <time>2025-04-23T14:43:21Z</time>
      </trkpt>
      <trkpt lat="46.660959022119641" lon="5.506954975426197">
        <ele>241.91</ele>
        <time>2025-04-23T14:43:25Z</time>
      </trkpt>
      <trkpt lat="46.660932032391429" lon="5.50698297098279">
        <ele>241.43000000000001</ele>
        <time>2025-04-23T14:43:26Z</time>
      </trkpt>
      <trkpt lat="46.660692980512977" lon="5.507253035902977">
        <ele>240.94999999999999</ele>
        <time>2025-04-23T14:43:28Z</time>
      </trkpt>
      <trkpt lat="46.660559037700295" lon="5.507299974560738">
        <ele>240.47</ele>
        <time>2025-04-23T14:43:29Z</time>
      </trkpt>
      <trkpt lat="46.660407995805144" lon="5.507350014522672">
        <ele>239.99000000000001</ele>
        <time>2025-04-23T14:43:30Z</time>
      </trkpt>
      <trkpt lat="46.658954992890358" lon="5.507851000875235">
        <ele>235.66</ele>
        <time>2025-04-23T14:43:38Z</time>
      </trkpt>
      <trkpt lat="46.658192994073033" lon="5.508042024448514">
        <ele>234.22</ele>
        <time>2025-04-23T14:43:42Z</time>
      </trkpt>
      <trkpt lat="46.657996019348502" lon="5.508070020005107">
        <ele>234.22</ele>
        <time>2025-04-23T14:43:43Z</time>
      </trkpt>
      <trkpt lat="46.6578009724617" lon="5.508067002519965">
        <ele>234.22</ele>
        <time>2025-04-23T14:43:44Z</time>
      </trkpt>
      <trkpt lat="46.657607015222311" lon="5.508020985871553">
        <ele>234.22</ele>
        <time>2025-04-23T14:43:45Z</time>
      </trkpt>
      <trkpt lat="46.657414985820651" lon="5.507975975051522">
        <ele>234.22</ele>
        <time>2025-04-23T14:43:46Z</time>
      </trkpt>
      <trkpt lat="46.657225973904133" lon="5.507884025573731">
        <ele>234.69999999999999</ele>
        <time>2025-04-23T14:43:47Z</time>
      </trkpt>
      <trkpt lat="46.657039979472756" lon="5.507786041125655">
        <ele>235.18000000000001</ele>
        <time>2025-04-23T14:43:48Z</time>
      </trkpt>
      <trkpt lat="46.656249985098839" lon="5.507450010627508">
        <ele>238.06</ele>
        <time>2025-04-23T14:43:52Z</time>
      </trkpt>
      <trkpt lat="46.65603700093925" lon="5.507449004799128">
        <ele>239.02000000000001</ele>
        <time>2025-04-23T14:43:53Z</time>
      </trkpt>
      <trkpt lat="46.655825022608042" lon="5.507469959557056">
        <ele>239.99000000000001</ele>
        <time>2025-04-23T14:43:54Z</time>
      </trkpt>
      <trkpt lat="46.655609020963311" lon="5.507490998134017">
        <ele>240.94999999999999</ele>
        <time>2025-04-23T14:43:55Z</time>
      </trkpt>
      <trkpt lat="46.6553920134902" lon="5.507564004510641">
        <ele>241.91</ele>
        <time>2025-04-23T14:43:56Z</time>
      </trkpt>
      <trkpt lat="46.655181040987372" lon="5.507656037807465">
        <ele>242.87</ele>
        <time>2025-04-23T14:43:57Z</time>
      </trkpt>
      <trkpt lat="46.654974007979035" lon="5.507768020033836">
        <ele>244.31</ele>
        <time>2025-04-23T14:43:58Z</time>
      </trkpt>
      <trkpt lat="46.654775021597743" lon="5.507912021130323">
        <ele>245.27000000000001</ele>
        <time>2025-04-23T14:43:59Z</time>
      </trkpt>
      <trkpt lat="46.654576035216451" lon="5.50805501639843">
        <ele>246.22999999999999</ele>
        <time>2025-04-23T14:44:00Z</time>
      </trkpt>
      <trkpt lat="46.65322101674974" lon="5.509027987718582">
        <ele>252.96000000000001</ele>
        <time>2025-04-23T14:44:08Z</time>
      </trkpt>
      <trkpt lat="46.65294298902154" lon="5.50919696688652">
        <ele>254.88999999999999</ele>
        <time>2025-04-23T14:44:11Z</time>
      </trkpt>
      <trkpt lat="46.652871994301677" lon="5.509243989363313">
        <ele>255.37</ele>
        <time>2025-04-23T14:44:12Z</time>
      </trkpt>
      <trkpt lat="46.652755988761783" lon="5.509224040433765">
        <ele>255.37</ele>
        <time>2025-04-23T14:44:13Z</time>
      </trkpt>
      <trkpt lat="46.652669990435243" lon="5.50915002822876">
        <ele>255.37</ele>
        <time>2025-04-23T14:44:14Z</time>
      </trkpt>
      <trkpt lat="46.65257602930069" lon="5.50917400047183">
        <ele>255.84999999999999</ele>
        <time>2025-04-23T14:44:15Z</time>
      </trkpt>
      <trkpt lat="46.652498999610543" lon="5.50919302739203">
        <ele>256.32999999999998</ele>
        <time>2025-04-23T14:44:16Z</time>
      </trkpt>
      <trkpt lat="46.652337983250618" lon="5.509291011840105">
        <ele>256.32999999999998</ele>
        <time>2025-04-23T14:44:17Z</time>
      </trkpt>
      <trkpt lat="46.652233963832259" lon="5.509218005463481">
        <ele>256.32999999999998</ele>
        <time>2025-04-23T14:44:18Z</time>
      </trkpt>
      <trkpt lat="46.652111001312733" lon="5.509138964116573">
        <ele>256.81</ele>
        <time>2025-04-23T14:44:19Z</time>
      </trkpt>
      <trkpt lat="46.650967039167881" lon="5.508431028574705">
        <ele>256.81</ele>
        <time>2025-04-23T14:44:26Z</time>
      </trkpt>
      <trkpt lat="46.64922796189785" lon="5.50732403062284">
        <ele>261.62</ele>
        <time>2025-04-23T14:44:37Z</time>
      </trkpt>
      <trkpt lat="46.647477988153696" lon="5.506017040461302">
        <ele>263.54000000000002</ele>
        <time>2025-04-23T14:44:49Z</time>
      </trkpt>
      <trkpt lat="46.645966982468963" lon="5.504837036132813">
        <ele>260.64999999999998</ele>
        <time>2025-04-23T14:45:01Z</time>
      </trkpt>
      <trkpt lat="46.644753031432629" lon="5.503883007913828">
        <ele>257.29000000000002</ele>
        <time>2025-04-23T14:45:13Z</time>
      </trkpt>
      <trkpt lat="46.644473997876048" lon="5.503663988783956">
        <ele>256.81</ele>
        <time>2025-04-23T14:45:16Z</time>
      </trkpt>
      <trkpt lat="46.644430998712778" lon="5.503377998247743">
        <ele>256.81</ele>
        <time>2025-04-23T14:45:17Z</time>
      </trkpt>
      <trkpt lat="46.644401997327805" lon="5.503339022397995">
        <ele>256.32999999999998</ele>
        <time>2025-04-23T14:45:18Z</time>
      </trkpt>
      <trkpt lat="46.644315999001265" lon="5.503278002142906">
        <ele>256.32999999999998</ele>
        <time>2025-04-23T14:45:19Z</time>
      </trkpt>
      <trkpt lat="46.644234023988247" lon="5.503254029899836">
        <ele>256.81</ele>
        <time>2025-04-23T14:45:20Z</time>
      </trkpt>
      <trkpt lat="46.644216002896428" lon="5.503249000757933">
        <ele>256.32999999999998</ele>
        <time>2025-04-23T14:45:21Z</time>
      </trkpt>
      <trkpt lat="46.644019028171897" lon="5.503302980214357">
        <ele>256.32999999999998</ele>
        <time>2025-04-23T14:45:22Z</time>
      </trkpt>
      <trkpt lat="46.643932024016976" lon="5.503229973837733">
        <ele>256.32999999999998</ele>
        <time>2025-04-23T14:45:23Z</time>
      </trkpt>
      <trkpt lat="46.643839990720153" lon="5.503153027966619">
        <ele>256.32999999999998</ele>
        <time>2025-04-23T14:45:24Z</time>
      </trkpt>
      <trkpt lat="46.643745023757219" lon="5.50306904129684">
        <ele>256.32999999999998</ele>
        <time>2025-04-23T14:45:25Z</time>
      </trkpt>
      <trkpt lat="46.643651984632015" lon="5.50298698246479">
        <ele>256.32999999999998</ele>
        <time>2025-04-23T14:45:26Z</time>
      </trkpt>
      <trkpt lat="46.642741039395332" lon="5.502266976982355">
        <ele>256.32999999999998</ele>
        <time>2025-04-23T14:45:37Z</time>
      </trkpt>
      <trkpt lat="46.641519963741302" lon="5.501302974298596">
        <ele>257.76999999999998</ele>
        <time>2025-04-23T14:45:52Z</time>
      </trkpt>
      <trkpt lat="46.641433965414762" lon="5.501233991235495">
        <ele>257.76999999999998</ele>
        <time>2025-04-23T14:45:53Z</time>
      </trkpt>
      <trkpt lat="46.640263013541698" lon="5.500262025743723">
        <ele>257.29000000000002</ele>
        <time>2025-04-23T14:46:06Z</time>
      </trkpt>
      <trkpt lat="46.639989009127021" lon="5.499988021329045">
        <ele>257.29000000000002</ele>
        <time>2025-04-23T14:46:09Z</time>
      </trkpt>
      <trkpt lat="46.639908039942384" lon="5.499906968325377">
        <ele>257.76999999999998</ele>
        <time>2025-04-23T14:46:10Z</time>
      </trkpt>
      <trkpt lat="46.638918975368142" lon="5.498868031427264">
        <ele>257.29000000000002</ele>
        <time>2025-04-23T14:46:20Z</time>
      </trkpt>
      <trkpt lat="46.637705024331808" lon="5.497596999630332">
        <ele>255.37</ele>
        <time>2025-04-23T14:46:28Z</time>
      </trkpt>
      <trkpt lat="46.636493001133204" lon="5.496371984481812">
        <ele>255.84999999999999</ele>
        <time>2025-04-23T14:46:36Z</time>
      </trkpt>
      <trkpt lat="46.634993981570005" lon="5.494786966592073">
        <ele>257.76999999999998</ele>
        <time>2025-04-23T14:46:46Z</time>
      </trkpt>
      <trkpt lat="46.633494039997458" lon="5.493016038089991">
        <ele>257.29000000000002</ele>
        <time>2025-04-23T14:46:56Z</time>
      </trkpt>
      <trkpt lat="46.632387964054942" lon="5.492110960185528">
        <ele>258.73000000000002</ele>
        <time>2025-04-23T14:47:03Z</time>
      </trkpt>
      <trkpt lat="46.630430035293102" lon="5.490943025797606">
        <ele>254.41</ele>
        <time>2025-04-23T14:47:14Z</time>
      </trkpt>
      <trkpt lat="46.628670003265142" lon="5.489942980930209">
        <ele>253.44</ele>
        <time>2025-04-23T14:47:24Z</time>
      </trkpt>
      <trkpt lat="46.626518033444881" lon="5.488717965781689">
        <ele>254.41</ele>
        <time>2025-04-23T14:47:38Z</time>
      </trkpt>
      <trkpt lat="46.624578963965178" lon="5.487524969503284">
        <ele>253.44</ele>
        <time>2025-04-23T14:47:50Z</time>
      </trkpt>
      <trkpt lat="46.622987994924188" lon="5.486172968521714">
        <ele>247.19999999999999</ele>
        <time>2025-04-23T14:47:59Z</time>
      </trkpt>
      <trkpt lat="46.620915988460183" lon="5.484176985919476">
        <ele>236.62</ele>
        <time>2025-04-23T14:48:12Z</time>
      </trkpt>
      <trkpt lat="46.619429038837552" lon="5.482717026025057">
        <ele>233.74000000000001</ele>
        <time>2025-04-23T14:48:21Z</time>
      </trkpt>
      <trkpt lat="46.617054026573896" lon="5.480377972126007">
        <ele>231.33000000000001</ele>
        <time>2025-04-23T14:48:35Z</time>
      </trkpt>
      <trkpt lat="46.615153010934591" lon="5.478520961478353">
        <ele>230.37</ele>
        <time>2025-04-23T14:48:48Z</time>
      </trkpt>
      <trkpt lat="46.613270016387105" lon="5.476871989667416">
        <ele>231.33000000000001</ele>
        <time>2025-04-23T14:49:01Z</time>
      </trkpt>
      <trkpt lat="46.611588019877672" lon="5.47550699673593">
        <ele>228.93000000000001</ele>
        <time>2025-04-23T14:49:12Z</time>
      </trkpt>
      <trkpt lat="46.610527960583568" lon="5.474283993244171">
        <ele>228.44999999999999</ele>
        <time>2025-04-23T14:49:21Z</time>
      </trkpt>
      <trkpt lat="46.609276039525867" lon="5.472828978672624">
        <ele>225.56999999999999</ele>
        <time>2025-04-23T14:49:32Z</time>
      </trkpt>
      <trkpt lat="46.607754975557327" lon="5.470947995781899">
        <ele>218.36000000000001</ele>
        <time>2025-04-23T14:49:42Z</time>
      </trkpt>
      <trkpt lat="46.60638302564621" lon="5.469133984297514">
        <ele>212.59</ele>
        <time>2025-04-23T14:49:51Z</time>
      </trkpt>
      <trkpt lat="46.604630034416914" lon="5.466961981728673">
        <ele>207.78</ele>
        <time>2025-04-23T14:50:03Z</time>
      </trkpt>
      <trkpt lat="46.602854998782277" lon="5.464760977774859">
        <ele>208.74000000000001</ele>
        <time>2025-04-23T14:50:15Z</time>
      </trkpt>
      <trkpt lat="46.601181970909238" lon="5.462644966319203">
        <ele>207.78</ele>
        <time>2025-04-23T14:50:27Z</time>
      </trkpt>
      <trkpt lat="46.599941030144691" lon="5.461081992834806">
        <ele>210.66999999999999</ele>
        <time>2025-04-23T14:50:37Z</time>
      </trkpt>
      <trkpt lat="46.599335018545389" lon="5.460345977917314">
        <ele>212.59</ele>
        <time>2025-04-23T14:50:45Z</time>
      </trkpt>
      <trkpt lat="46.598289040848613" lon="5.459294971078634">
        <ele>213.06999999999999</ele>
        <time>2025-04-23T14:50:59Z</time>
      </trkpt>
      <trkpt lat="46.597351022064686" lon="5.458276988938451">
        <ele>212.59</ele>
        <time>2025-04-23T14:51:10Z</time>
      </trkpt>
      <trkpt lat="46.596277970820665" lon="5.457084998488426">
        <ele>213.55000000000001</ele>
        <time>2025-04-23T14:51:21Z</time>
      </trkpt>
      <trkpt lat="46.594808958470821" lon="5.455292025581002">
        <ele>214.99000000000001</ele>
        <time>2025-04-23T14:51:33Z</time>
      </trkpt>
      <trkpt lat="46.592986984178424" lon="5.453028995543718">
        <ele>211.15000000000001</ele>
        <time>2025-04-23T14:51:47Z</time>
      </trkpt>
      <trkpt lat="46.591017991304398" lon="5.450548036023974">
        <ele>213.06999999999999</ele>
        <time>2025-04-23T14:52:00Z</time>
      </trkpt>
      <trkpt lat="46.588752027601004" lon="5.447686035186052">
        <ele>220.75999999999999</ele>
        <time>2025-04-23T14:52:14Z</time>
      </trkpt>
      <trkpt lat="46.587484013289213" lon="5.446380972862244">
        <ele>220.28</ele>
        <time>2025-04-23T14:52:22Z</time>
      </trkpt>
      <trkpt lat="46.584615977481008" lon="5.444483980536461">
        <ele>220.75999999999999</ele>
        <time>2025-04-23T14:52:39Z</time>
      </trkpt>
      <trkpt lat="46.583097008988261" lon="5.44349298812449">
        <ele>220.75999999999999</ele>
        <time>2025-04-23T14:52:49Z</time>
      </trkpt>
      <trkpt lat="46.58088200725615" lon="5.442061023786664">
        <ele>223.63999999999999</ele>
        <time>2025-04-23T14:53:03Z</time>
      </trkpt>
      <trkpt lat="46.579132033511996" lon="5.440952014178038">
        <ele>231.33000000000001</ele>
        <time>2025-04-23T14:53:14Z</time>
      </trkpt>
      <trkpt lat="46.578171970322728" lon="5.440328987315297">
        <ele>236.13999999999999</ele>
        <time>2025-04-23T14:53:21Z</time>
      </trkpt>
      <trkpt lat="46.576887024566531" lon="5.439417958259583">
        <ele>239.99000000000001</ele>
        <time>2025-04-23T14:53:32Z</time>
      </trkpt>
      <trkpt lat="46.576317977160215" lon="5.438709016889334">
        <ele>243.34999999999999</ele>
        <time>2025-04-23T14:53:40Z</time>
      </trkpt>
      <trkpt lat="46.576042966917157" lon="5.43831598944962">
        <ele>247.19999999999999</ele>
        <time>2025-04-23T14:53:46Z</time>
      </trkpt>
      <trkpt lat="46.5758749935776" lon="5.438050031661987">
        <ele>248.63999999999999</ele>
        <time>2025-04-23T14:53:50Z</time>
      </trkpt>
      <trkpt lat="46.575830988585949" lon="5.437976019456983">
        <ele>249.12</ele>
        <time>2025-04-23T14:53:51Z</time>
      </trkpt>
      <trkpt lat="46.575626973062754" lon="5.437704026699066">
        <ele>250.56</ele>
        <time>2025-04-23T14:53:55Z</time>
      </trkpt>
      <trkpt lat="46.575522031635046" lon="5.43754200451076">
        <ele>250.56</ele>
        <time>2025-04-23T14:53:57Z</time>
      </trkpt>
      <trkpt lat="46.575151970610023" lon="5.436892993748188">
        <ele>250.56</ele>
        <time>2025-04-23T14:54:06Z</time>
      </trkpt>
      <trkpt lat="46.575074018910527" lon="5.436769025400281">
        <ele>251.03999999999999</ele>
        <time>2025-04-23T14:54:08Z</time>
      </trkpt>
      <trkpt lat="46.574880983680487" lon="5.436441963538528">
        <ele>251.52000000000001</ele>
        <time>2025-04-23T14:54:13Z</time>
      </trkpt>
      <trkpt lat="46.574838990345597" lon="5.436375997960568">
        <ele>251.52000000000001</ele>
        <time>2025-04-23T14:54:14Z</time>
      </trkpt>
      <trkpt lat="46.5744140278548" lon="5.435658004134893">
        <ele>251.52000000000001</ele>
        <time>2025-04-23T14:54:24Z</time>
      </trkpt>
      <trkpt lat="46.574369017034769" lon="5.435566976666451">
        <ele>252</ele>
        <time>2025-04-23T14:54:25Z</time>
      </trkpt>
      <trkpt lat="46.574324006214738" lon="5.435478966683149">
        <ele>252</ele>
        <time>2025-04-23T14:54:26Z</time>
      </trkpt>
      <trkpt lat="46.574280001223087" lon="5.43539397418499">
        <ele>252</ele>
        <time>2025-04-23T14:54:27Z</time>
      </trkpt>
      <trkpt lat="46.574232978746295" lon="5.435305964201689">
        <ele>252</ele>
        <time>2025-04-23T14:54:28Z</time>
      </trkpt>
      <trkpt lat="46.574140023440123" lon="5.435127010568976">
        <ele>253.44</ele>
        <time>2025-04-23T14:54:30Z</time>
      </trkpt>
      <trkpt lat="46.573954029008746" lon="5.434771031141281">
        <ele>254.88999999999999</ele>
        <time>2025-04-23T14:54:34Z</time>
      </trkpt>
      <trkpt lat="46.573731992393732" lon="5.434299968183041">
        <ele>252.96000000000001</ele>
        <time>2025-04-23T14:54:42Z</time>
      </trkpt>
      <trkpt lat="46.573695028200746" lon="5.434215981513262">
        <ele>252.47999999999999</ele>
        <time>2025-04-23T14:54:46Z</time>
      </trkpt>
      <trkpt lat="46.573692010715604" lon="5.434209024533629">
        <ele>252.47999999999999</ele>
        <time>2025-04-23T14:54:47Z</time>
      </trkpt>
      <trkpt lat="46.573676001280546" lon="5.434171976521611">
        <ele>252</ele>
        <time>2025-04-23T14:54:50Z</time>
      </trkpt>
      <trkpt lat="46.573676001280546" lon="5.434171976521611">
        <ele>249.59999999999999</ele>
        <time>2025-04-23T14:55:00Z</time>
      </trkpt>
      <trkpt lat="46.573676001280546" lon="5.434171976521611">
        <ele>247.19999999999999</ele>
        <time>2025-04-23T14:55:15Z</time>
      </trkpt>
      <trkpt lat="46.573676001280546" lon="5.434171976521611">
        <ele>246.72</ele>
        <time>2025-04-23T14:55:34Z</time>
      </trkpt>
      <trkpt lat="46.573644988238811" lon="5.434099975973368">
        <ele>245.75</ele>
        <time>2025-04-23T14:55:39Z</time>
      </trkpt>
      <trkpt lat="46.573639959096909" lon="5.434088995680213">
        <ele>245.75</ele>
        <time>2025-04-23T14:55:40Z</time>
      </trkpt>
      <trkpt lat="46.573639959096909" lon="5.434088995680213">
        <ele>245.75</ele>
        <time>2025-04-23T14:55:42Z</time>
      </trkpt>
      <trkpt lat="46.573639959096909" lon="5.434088995680213">
        <ele>245.27000000000001</ele>
        <time>2025-04-23T14:55:43Z</time>
      </trkpt>
      <trkpt lat="46.573639959096909" lon="5.434088995680213">
        <ele>244.31</ele>
        <time>2025-04-23T14:55:56Z</time>
      </trkpt>
      <trkpt lat="46.573612969368696" lon="5.434027975425124">
        <ele>244.31</ele>
        <time>2025-04-23T14:56:00Z</time>
      </trkpt>
      <trkpt lat="46.573601989075541" lon="5.434004003182054">
        <ele>244.31</ele>
        <time>2025-04-23T14:56:01Z</time>
      </trkpt>
      <trkpt lat="46.573588997125626" lon="5.4339739959687">
        <ele>243.83000000000001</ele>
        <time>2025-04-23T14:56:02Z</time>
      </trkpt>
      <trkpt lat="46.57357701100409" lon="5.433946000412107">
        <ele>243.83000000000001</ele>
        <time>2025-04-23T14:56:03Z</time>
      </trkpt>
      <trkpt lat="46.57357701100409" lon="5.433946000412107">
        <ele>243.34999999999999</ele>
        <time>2025-04-23T14:56:04Z</time>
      </trkpt>
      <trkpt lat="46.57355597242713" lon="5.433897972106934">
        <ele>242.87</ele>
        <time>2025-04-23T14:56:16Z</time>
      </trkpt>
      <trkpt lat="46.573521019890904" lon="5.433814991265535">
        <ele>242.38999999999999</ele>
        <time>2025-04-23T14:56:21Z</time>
      </trkpt>
      <trkpt lat="46.573502998799086" lon="5.433774003759027">
        <ele>242.87</ele>
        <time>2025-04-23T14:56:22Z</time>
      </trkpt>
      <trkpt lat="46.573473997414112" lon="5.433710971847177">
        <ele>242.87</ele>
        <time>2025-04-23T14:56:23Z</time>
      </trkpt>
      <trkpt lat="46.573055991902947" lon="5.432840008288622">
        <ele>242.87</ele>
        <time>2025-04-23T14:56:30Z</time>
      </trkpt>
      <trkpt lat="46.572378985583782" lon="5.431130016222596">
        <ele>242.87</ele>
        <time>2025-04-23T14:56:38Z</time>
      </trkpt>
      <trkpt lat="46.571405008435249" lon="5.428478987887502">
        <ele>246.22999999999999</ele>
        <time>2025-04-23T14:56:48Z</time>
      </trkpt>
      <trkpt lat="46.569848991930485" lon="5.424508983269334">
        <ele>252.96000000000001</ele>
        <time>2025-04-23T14:57:02Z</time>
      </trkpt>
      <trkpt lat="46.568631017580628" lon="5.42179299518466">
        <ele>256.32999999999998</ele>
        <time>2025-04-23T14:57:12Z</time>
      </trkpt>
      <trkpt lat="46.566319037228823" lon="5.417386963963509">
        <ele>241.43000000000001</ele>
        <time>2025-04-23T14:57:29Z</time>
      </trkpt>
      <trkpt lat="46.564738964661956" lon="5.414369981735945">
        <ele>235.18000000000001</ele>
        <time>2025-04-23T14:57:41Z</time>
      </trkpt>
      <trkpt lat="46.563425017520785" lon="5.412558987736702">
        <ele>237.09999999999999</ele>
        <time>2025-04-23T14:57:49Z</time>
      </trkpt>
      <trkpt lat="46.563213961198926" lon="5.412396965548396">
        <ele>237.09999999999999</ele>
        <time>2025-04-23T14:57:50Z</time>
      </trkpt>
      <trkpt lat="46.561340019106865" lon="5.411058040335774">
        <ele>237.58000000000001</ele>
        <time>2025-04-23T14:57:59Z</time>
      </trkpt>
      <trkpt lat="46.559148989617825" lon="5.409292979165912">
        <ele>241.43000000000001</ele>
        <time>2025-04-23T14:58:11Z</time>
      </trkpt>
      <trkpt lat="46.557089975103736" lon="5.407867971807718">
        <ele>242.87</ele>
        <time>2025-04-23T14:58:22Z</time>
      </trkpt>
      <trkpt lat="46.555577963590622" lon="5.406787963584065">
        <ele>239.02000000000001</ele>
        <time>2025-04-23T14:58:30Z</time>
      </trkpt>
      <trkpt lat="46.554115992039442" lon="5.405149972066283">
        <ele>232.78</ele>
        <time>2025-04-23T14:58:38Z</time>
      </trkpt>
      <trkpt lat="46.552577996626496" lon="5.403936021029949">
        <ele>237.09999999999999</ele>
        <time>2025-04-23T14:58:45Z</time>
      </trkpt>
      <trkpt lat="46.550379004329443" lon="5.403048964217305">
        <ele>252.47999999999999</ele>
        <time>2025-04-23T14:58:54Z</time>
      </trkpt>
      <trkpt lat="46.548170959576964" lon="5.401673996821046">
        <ele>264.01999999999998</ele>
        <time>2025-04-23T14:59:03Z</time>
      </trkpt>
      <trkpt lat="46.546260975301266" lon="5.400286037474871">
        <ele>267.86000000000001</ele>
        <time>2025-04-23T14:59:11Z</time>
      </trkpt>
      <trkpt lat="46.543552028015256" lon="5.398598005995154">
        <ele>265.94</ele>
        <time>2025-04-23T14:59:23Z</time>
      </trkpt>
      <trkpt lat="46.541395029053092" lon="5.397737016901374">
        <ele>261.62</ele>
        <time>2025-04-23T14:59:33Z</time>
      </trkpt>
      <trkpt lat="46.538631012663245" lon="5.397239970043302">
        <ele>258.25</ele>
        <time>2025-04-23T14:59:46Z</time>
      </trkpt>
      <trkpt lat="46.534393038600683" lon="5.396722974255681">
        <ele>252</ele>
        <time>2025-04-23T15:00:05Z</time>
      </trkpt>
      <trkpt lat="46.531180003657937" lon="5.396300023421645">
        <ele>245.75</ele>
        <time>2025-04-23T15:00:19Z</time>
      </trkpt>
      <trkpt lat="46.528770038858056" lon="5.395842958241701">
        <ele>243.34999999999999</ele>
        <time>2025-04-23T15:00:30Z</time>
      </trkpt>
      <trkpt lat="46.527107991278172" lon="5.394866969436407">
        <ele>241.43000000000001</ele>
        <time>2025-04-23T15:00:38Z</time>
      </trkpt>
      <trkpt lat="46.525704022496939" lon="5.393233001232147">
        <ele>241.91</ele>
        <time>2025-04-23T15:00:46Z</time>
      </trkpt>
      <trkpt lat="46.523695969954133" lon="5.390491029247642">
        <ele>247.19999999999999</ele>
        <time>2025-04-23T15:00:58Z</time>
      </trkpt>
      <trkpt lat="46.52205403894186" lon="5.389228966087103">
        <ele>249.12</ele>
        <time>2025-04-23T15:01:06Z</time>
      </trkpt>
      <trkpt lat="46.520234998315573" lon="5.388730997219682">
        <ele>251.52000000000001</ele>
        <time>2025-04-23T15:01:14Z</time>
      </trkpt>
      <trkpt lat="46.517471987754107" lon="5.388600993901491">
        <ele>254.41</ele>
        <time>2025-04-23T15:01:26Z</time>
      </trkpt>
      <trkpt lat="46.515191020444036" lon="5.388431008905172">
        <ele>258.73000000000002</ele>
        <time>2025-04-23T15:01:36Z</time>
      </trkpt>
      <trkpt lat="46.511824009940028" lon="5.388233028352261">
        <ele>260.64999999999998</ele>
        <time>2025-04-23T15:01:51Z</time>
      </trkpt>
      <trkpt lat="46.508848015218973" lon="5.387633973732591">
        <ele>257.29000000000002</ele>
        <time>2025-04-23T15:02:04Z</time>
      </trkpt>
      <trkpt lat="46.505819968879223" lon="5.386928971856833">
        <ele>258.25</ele>
        <time>2025-04-23T15:02:18Z</time>
      </trkpt>
      <trkpt lat="46.50379297323525" lon="5.385972009971738">
        <ele>258.73000000000002</ele>
        <time>2025-04-23T15:02:28Z</time>
      </trkpt>
      <trkpt lat="46.501850970089436" lon="5.384509032592177">
        <ele>259.69</ele>
        <time>2025-04-23T15:02:38Z</time>
      </trkpt>
      <trkpt lat="46.500378018245101" lon="5.382821001112461">
        <ele>262.10000000000002</ele>
        <time>2025-04-23T15:02:46Z</time>
      </trkpt>
      <trkpt lat="46.498454958200455" lon="5.380618991330266">
        <ele>261.62</ele>
        <time>2025-04-23T15:02:56Z</time>
      </trkpt>
      <trkpt lat="46.496587973088026" lon="5.379108991473913">
        <ele>260.17000000000002</ele>
        <time>2025-04-23T15:03:04Z</time>
      </trkpt>
      <trkpt lat="46.494609005749226" lon="5.378099977970123">
        <ele>257.29000000000002</ele>
        <time>2025-04-23T15:03:12Z</time>
      </trkpt>
      <trkpt lat="46.492431974038482" lon="5.37736002355814">
        <ele>252.47999999999999</ele>
        <time>2025-04-23T15:03:21Z</time>
      </trkpt>
      <trkpt lat="46.490117982029915" lon="5.376111036166549">
        <ele>248.16</ele>
        <time>2025-04-23T15:03:31Z</time>
      </trkpt>
      <trkpt lat="46.488192994147539" lon="5.374342035502195">
        <ele>246.22999999999999</ele>
        <time>2025-04-23T15:03:40Z</time>
      </trkpt>
      <trkpt lat="46.486508985981345" lon="5.372430961579084">
        <ele>249.59999999999999</ele>
        <time>2025-04-23T15:03:49Z</time>
      </trkpt>
      <trkpt lat="46.484726993367076" lon="5.370209002867341">
        <ele>255.37</ele>
        <time>2025-04-23T15:04:00Z</time>
      </trkpt>
      <trkpt lat="46.482923962175846" lon="5.368019985035062">
        <ele>258.73000000000002</ele>
        <time>2025-04-23T15:04:11Z</time>
      </trkpt>
      <trkpt lat="46.479779994115233" lon="5.364360027015209">
        <ele>252.47999999999999</ele>
        <time>2025-04-23T15:04:29Z</time>
      </trkpt>
      <trkpt lat="46.478393962606788" lon="5.363239031285048">
        <ele>253.93000000000001</ele>
        <time>2025-04-23T15:04:36Z</time>
      </trkpt>
      <trkpt lat="46.476791007444263" lon="5.36266696639359">
        <ele>258.25</ele>
        <time>2025-04-23T15:04:43Z</time>
      </trkpt>
      <trkpt lat="46.474417001008987" lon="5.36180698312819">
        <ele>265.45999999999998</ele>
        <time>2025-04-23T15:04:54Z</time>
      </trkpt>
      <trkpt lat="46.471922965720296" lon="5.360717000439763">
        <ele>266.42000000000002</ele>
        <time>2025-04-23T15:05:06Z</time>
      </trkpt>
      <trkpt lat="46.470385976135731" lon="5.360045023262501">
        <ele>264.98000000000002</ele>
        <time>2025-04-23T15:05:15Z</time>
      </trkpt>
      <trkpt lat="46.470064027234912" lon="5.359900016337633">
        <ele>265.45999999999998</ele>
        <time>2025-04-23T15:05:18Z</time>
      </trkpt>
      <trkpt lat="46.469981968402863" lon="5.359859028831124">
        <ele>265.45999999999998</ele>
        <time>2025-04-23T15:05:19Z</time>
      </trkpt>
      <trkpt lat="46.469893958419561" lon="5.359654007479549">
        <ele>265.94</ele>
        <time>2025-04-23T15:05:20Z</time>
      </trkpt>
      <trkpt lat="46.46980301477015" lon="5.359576977789402">
        <ele>265.94</ele>
        <time>2025-04-23T15:05:22Z</time>
      </trkpt>
      <trkpt lat="46.469722967594862" lon="5.359530039131641">
        <ele>265.94</ele>
        <time>2025-04-23T15:05:23Z</time>
      </trkpt>
      <trkpt lat="46.469641998410225" lon="5.359545964747667">
        <ele>266.42000000000002</ele>
        <time>2025-04-23T15:05:24Z</time>
      </trkpt>
      <trkpt lat="46.469421973451972" lon="5.359612014144659">
        <ele>265.94</ele>
        <time>2025-04-23T15:05:26Z</time>
      </trkpt>
      <trkpt lat="46.469312002882361" lon="5.359579995274544">
        <ele>265.45999999999998</ele>
        <time>2025-04-23T15:05:27Z</time>
      </trkpt>
      <trkpt lat="46.468296032398939" lon="5.359135000035167">
        <ele>264.01999999999998</ele>
        <time>2025-04-23T15:05:36Z</time>
      </trkpt>
      <trkpt lat="46.467027012258768" lon="5.358589002862573">
        <ele>258.25</ele>
        <time>2025-04-23T15:05:47Z</time>
      </trkpt>
      <trkpt lat="46.466036019846797" lon="5.35815498791635">
        <ele>253.93000000000001</ele>
        <time>2025-04-23T15:05:55Z</time>
      </trkpt>
      <trkpt lat="46.464681001380086" lon="5.357695994898677">
        <ele>256.32999999999998</ele>
        <time>2025-04-23T15:06:03Z</time>
      </trkpt>
      <trkpt lat="46.46249801851809" lon="5.357445040717721">
        <ele>254.41</ele>
        <time>2025-04-23T15:06:13Z</time>
      </trkpt>
      <trkpt lat="46.461232015863061" lon="5.356719000265002">
        <ele>252</ele>
        <time>2025-04-23T15:06:19Z</time>
      </trkpt>
      <trkpt lat="46.459595030173659" lon="5.355507982894778">
        <ele>253.93000000000001</ele>
        <time>2025-04-23T15:06:28Z</time>
      </trkpt>
      <trkpt lat="46.458672014996409" lon="5.354817984625697">
        <ele>254.88999999999999</ele>
        <time>2025-04-23T15:06:35Z</time>
      </trkpt>
      <trkpt lat="46.457723015919328" lon="5.354053974151611">
        <ele>249.59999999999999</ele>
        <time>2025-04-23T15:06:44Z</time>
      </trkpt>
      <trkpt lat="46.456681983545423" lon="5.353027023375034">
        <ele>246.22999999999999</ele>
        <time>2025-04-23T15:06:53Z</time>
      </trkpt>
      <trkpt lat="46.455483036115766" lon="5.351478969678283">
        <ele>238.53999999999999</ele>
        <time>2025-04-23T15:07:03Z</time>
      </trkpt>
      <trkpt lat="46.454405039548874" lon="5.349981039762497">
        <ele>233.74000000000001</ele>
        <time>2025-04-23T15:07:13Z</time>
      </trkpt>
      <trkpt lat="46.454059034585953" lon="5.349613996222615">
        <ele>233.25999999999999</ele>
        <time>2025-04-23T15:07:17Z</time>
      </trkpt>
      <trkpt lat="46.454047970473766" lon="5.349453985691071">
        <ele>232.78</ele>
        <time>2025-04-23T15:07:18Z</time>
      </trkpt>
      <trkpt lat="46.454039001837373" lon="5.349310990422964">
        <ele>232.78</ele>
        <time>2025-04-23T15:07:19Z</time>
      </trkpt>
      <trkpt lat="46.453983010724187" lon="5.349246030673385">
        <ele>232.78</ele>
        <time>2025-04-23T15:07:20Z</time>
      </trkpt>
      <trkpt lat="46.453929031267762" lon="5.349182998761535">
        <ele>232.30000000000001</ele>
        <time>2025-04-23T15:07:21Z</time>
      </trkpt>
      <trkpt lat="46.453817971050739" lon="5.349238989874721">
        <ele>232.30000000000001</ele>
        <time>2025-04-23T15:07:22Z</time>
      </trkpt>
      <trkpt lat="46.453801039606333" lon="5.349247958511114">
        <ele>232.78</ele>
        <time>2025-04-23T15:07:23Z</time>
      </trkpt>
      <trkpt lat="46.45362501963973" lon="5.349356001242995">
        <ele>232.78</ele>
        <time>2025-04-23T15:07:24Z</time>
      </trkpt>
      <trkpt lat="46.453532986342907" lon="5.349314007908106">
        <ele>232.30000000000001</ele>
        <time>2025-04-23T15:07:25Z</time>
      </trkpt>
      <trkpt lat="46.453423015773296" lon="5.349263967946172">
        <ele>232.30000000000001</ele>
        <time>2025-04-23T15:07:26Z</time>
      </trkpt>
      <trkpt lat="46.45330298691988" lon="5.349207976832986">
        <ele>232.30000000000001</ele>
        <time>2025-04-23T15:07:27Z</time>
      </trkpt>
      <trkpt lat="46.452477034181356" lon="5.348856020718813">
        <ele>231.33000000000001</ele>
        <time>2025-04-23T15:07:34Z</time>
      </trkpt>
      <trkpt lat="46.452402016147971" lon="5.348826013505459">
        <ele>230.84999999999999</ele>
        <time>2025-04-23T15:07:35Z</time>
      </trkpt>
      <trkpt lat="46.452232031151652" lon="5.348761975765228">
        <ele>230.37</ele>
        <time>2025-04-23T15:07:39Z</time>
      </trkpt>
      <trkpt lat="46.452208980917931" lon="5.348755018785596">
        <ele>230.37</ele>
        <time>2025-04-23T15:07:40Z</time>
      </trkpt>
      <trkpt lat="46.452190037816763" lon="5.348748983815312">
        <ele>230.84999999999999</ele>
        <time>2025-04-23T15:07:41Z</time>
      </trkpt>
      <trkpt lat="46.452198000624776" lon="5.348752001300454">
        <ele>230.84999999999999</ele>
        <time>2025-04-23T15:07:43Z</time>
      </trkpt>
      <trkpt lat="46.452276958152652" lon="5.348774967715144">
        <ele>231.33000000000001</ele>
        <time>2025-04-23T15:07:44Z</time>
      </trkpt>
      <trkpt lat="46.452276958152652" lon="5.348774967715144">
        <ele>231.81</ele>
        <time>2025-04-23T15:07:45Z</time>
      </trkpt>
      <trkpt lat="46.452331021428108" lon="5.348797012120485">
        <ele>231.81</ele>
        <time>2025-04-23T15:07:46Z</time>
      </trkpt>
      <trkpt lat="46.452404027804732" lon="5.348826013505459">
        <ele>232.30000000000001</ele>
        <time>2025-04-23T15:07:47Z</time>
      </trkpt>
      <trkpt lat="46.452488014474511" lon="5.348859960213304">
        <ele>232.30000000000001</ele>
        <time>2025-04-23T15:07:48Z</time>
      </trkpt>
      <trkpt lat="46.453047003597021" lon="5.349090965464711">
        <ele>233.74000000000001</ele>
        <time>2025-04-23T15:07:53Z</time>
      </trkpt>
      <trkpt lat="46.453563999384642" lon="5.349328005686402">
        <ele>234.22</ele>
        <time>2025-04-23T15:07:59Z</time>
      </trkpt>
      <trkpt lat="46.453642034903169" lon="5.349363964051008">
        <ele>234.22</ele>
        <time>2025-04-23T15:08:00Z</time>
      </trkpt>
      <trkpt lat="46.453762985765934" lon="5.349574014544487">
        <ele>234.69999999999999</ele>
        <time>2025-04-23T15:08:02Z</time>
      </trkpt>
      <trkpt lat="46.4538199827075" lon="5.349631011486054">
        <ele>235.18000000000001</ele>
        <time>2025-04-23T15:08:03Z</time>
      </trkpt>
      <trkpt lat="46.453902963548899" lon="5.349658001214266">
        <ele>235.66</ele>
        <time>2025-04-23T15:08:04Z</time>
      </trkpt>
      <trkpt lat="46.45396800711751" lon="5.34962497651577">
        <ele>236.62</ele>
        <time>2025-04-23T15:08:05Z</time>
      </trkpt>
      <trkpt lat="46.454045036807656" lon="5.34949597902596">
        <ele>236.62</ele>
        <time>2025-04-23T15:08:06Z</time>
      </trkpt>
      <trkpt lat="46.454052999615669" lon="5.349395982921124">
        <ele>237.09999999999999</ele>
        <time>2025-04-23T15:08:07Z</time>
      </trkpt>
      <trkpt lat="46.454001031816006" lon="5.349266985431314">
        <ele>237.09999999999999</ele>
        <time>2025-04-23T15:08:08Z</time>
      </trkpt>
      <trkpt lat="46.453931964933872" lon="5.349147040396929">
        <ele>237.58000000000001</ele>
        <time>2025-04-23T15:08:09Z</time>
      </trkpt>
      <trkpt lat="46.453940011560917" lon="5.349014019593597">
        <ele>237.58000000000001</ele>
        <time>2025-04-23T15:08:10Z</time>
      </trkpt>
      <trkpt lat="46.45394898019731" lon="5.348868006840348">
        <ele>237.58000000000001</ele>
        <time>2025-04-23T15:08:11Z</time>
      </trkpt>
      <trkpt lat="46.453917967155576" lon="5.348724005743861">
        <ele>237.09999999999999</ele>
        <time>2025-04-23T15:08:12Z</time>
      </trkpt>
      <trkpt lat="46.453874967992306" lon="5.348573969677091">
        <ele>237.09999999999999</ele>
        <time>2025-04-23T15:08:13Z</time>
      </trkpt>
      <trkpt lat="46.453810008242726" lon="5.348437009379268">
        <ele>236.62</ele>
        <time>2025-04-23T15:08:14Z</time>
      </trkpt>
      <trkpt lat="46.452930998057127" lon="5.347257005050778">
        <ele>236.13999999999999</ele>
        <time>2025-04-23T15:08:24Z</time>
      </trkpt>
      <trkpt lat="46.452061040326953" lon="5.346539011225104">
        <ele>236.62</ele>
        <time>2025-04-23T15:08:33Z</time>
      </trkpt>
      <trkpt lat="46.450781961902976" lon="5.345753040164709">
        <ele>239.02000000000001</ele>
        <time>2025-04-23T15:08:44Z</time>
      </trkpt>
      <trkpt lat="46.449248995631933" lon="5.344813009724021">
        <ele>239.50999999999999</ele>
        <time>2025-04-23T15:08:55Z</time>
      </trkpt>
      <trkpt lat="46.447793981060386" lon="5.343864010646939">
        <ele>237.09999999999999</ele>
        <time>2025-04-23T15:09:06Z</time>
      </trkpt>
      <trkpt lat="46.446611965075135" lon="5.343089019879699">
        <ele>234.22</ele>
        <time>2025-04-23T15:09:15Z</time>
      </trkpt>
      <trkpt lat="46.445774026215076" lon="5.342551991343498">
        <ele>232.30000000000001</ele>
        <time>2025-04-23T15:09:23Z</time>
      </trkpt>
      <trkpt lat="46.445536985993385" lon="5.342473033815622">
        <ele>231.33000000000001</ele>
        <time>2025-04-23T15:09:26Z</time>
      </trkpt>
      <trkpt lat="46.445448976010084" lon="5.342343030497432">
        <ele>230.84999999999999</ele>
        <time>2025-04-23T15:09:27Z</time>
      </trkpt>
      <trkpt lat="46.445445036515594" lon="5.342246973887086">
        <ele>230.37</ele>
        <time>2025-04-23T15:09:28Z</time>
      </trkpt>
      <trkpt lat="46.44543900154531" lon="5.342126023024321">
        <ele>230.37</ele>
        <time>2025-04-23T15:09:29Z</time>
      </trkpt>
      <trkpt lat="46.445431960746646" lon="5.341972969472408">
        <ele>229.88999999999999</ele>
        <time>2025-04-23T15:09:30Z</time>
      </trkpt>
      <trkpt lat="46.445425003767014" lon="5.341841038316488">
        <ele>229.88999999999999</ele>
        <time>2025-04-23T15:09:31Z</time>
      </trkpt>
      <trkpt lat="46.445387033745646" lon="5.341504001989961">
        <ele>228.44999999999999</ele>
        <time>2025-04-23T15:09:33Z</time>
      </trkpt>
      <trkpt lat="46.445340011268854" lon="5.341338040307164">
        <ele>227.97</ele>
        <time>2025-04-23T15:09:34Z</time>
      </trkpt>
      <trkpt lat="46.44528997130692" lon="5.341164031997323">
        <ele>227.49000000000001</ele>
        <time>2025-04-23T15:09:35Z</time>
      </trkpt>
      <trkpt lat="46.444986965507269" lon="5.340312011539936">
        <ele>225.56999999999999</ele>
        <time>2025-04-23T15:09:40Z</time>
      </trkpt>
      <trkpt lat="46.444829972460866" lon="5.340035995468497">
        <ele>225.09</ele>
        <time>2025-04-23T15:09:42Z</time>
      </trkpt>
      <trkpt lat="46.444741040468216" lon="5.339930970221758">
        <ele>224.61000000000001</ele>
        <time>2025-04-23T15:09:43Z</time>
      </trkpt>
      <trkpt lat="46.444654958322644" lon="5.33982896246016">
        <ele>224.61000000000001</ele>
        <time>2025-04-23T15:09:44Z</time>
      </trkpt>
      <trkpt lat="46.443930007517338" lon="5.339205013588071">
        <ele>224.12</ele>
        <time>2025-04-23T15:09:52Z</time>
      </trkpt>
      <trkpt lat="46.44309701398015" lon="5.338170016184449">
        <ele>223.63999999999999</ele>
        <time>2025-04-23T15:10:02Z</time>
      </trkpt>
      <trkpt lat="46.442747991532087" lon="5.337857035920024">
        <ele>223.63999999999999</ele>
        <time>2025-04-23T15:10:07Z</time>
      </trkpt>
      <trkpt lat="46.442711027339101" lon="5.337685039266944">
        <ele>223.63999999999999</ele>
        <time>2025-04-23T15:10:08Z</time>
      </trkpt>
      <trkpt lat="46.442742040380836" lon="5.33761496655643">
        <ele>223.63999999999999</ele>
        <time>2025-04-23T15:10:09Z</time>
      </trkpt>
      <trkpt lat="46.442788979038596" lon="5.337512036785483">
        <ele>223.63999999999999</ele>
        <time>2025-04-23T15:10:10Z</time>
      </trkpt>
      <trkpt lat="46.442842958495021" lon="5.337391002103686">
        <ele>223.63999999999999</ele>
        <time>2025-04-23T15:10:11Z</time>
      </trkpt>
      <trkpt lat="46.44290397875011" lon="5.337253035977483">
        <ele>223.63999999999999</ele>
        <time>2025-04-23T15:10:12Z</time>
      </trkpt>
      <trkpt lat="46.442976985126734" lon="5.337107023224235">
        <ele>223.16</ele>
        <time>2025-04-23T15:10:13Z</time>
      </trkpt>
      <trkpt lat="46.443301029503345" lon="5.336467986926436">
        <ele>223.16</ele>
        <time>2025-04-23T15:10:17Z</time>
      </trkpt>
      <trkpt lat="46.443358026444912" lon="5.336277969181538">
        <ele>223.63999999999999</ele>
        <time>2025-04-23T15:10:18Z</time>
      </trkpt>
      <trkpt lat="46.443399013951421" lon="5.336080994457007">
        <ele>224.12</ele>
        <time>2025-04-23T15:10:19Z</time>
      </trkpt>
      <trkpt lat="46.443414017558098" lon="5.335869016125798">
        <ele>224.12</ele>
        <time>2025-04-23T15:10:20Z</time>
      </trkpt>
      <trkpt lat="46.443429021164775" lon="5.335651002824307">
        <ele>224.61000000000001</ele>
        <time>2025-04-23T15:10:21Z</time>
      </trkpt>
      <trkpt lat="46.443409994244576" lon="5.335428966209292">
        <ele>225.09</ele>
        <time>2025-04-23T15:10:22Z</time>
      </trkpt>
      <trkpt lat="46.443357020616531" lon="5.335215982049704">
        <ele>225.56999999999999</ele>
        <time>2025-04-23T15:10:23Z</time>
      </trkpt>
      <trkpt lat="46.443285020068288" lon="5.335023030638695">
        <ele>226.05000000000001</ele>
        <time>2025-04-23T15:10:24Z</time>
      </trkpt>
      <trkpt lat="46.44320597872138" lon="5.334823038429022">
        <ele>226.53</ele>
        <time>2025-04-23T15:10:25Z</time>
      </trkpt>
      <trkpt lat="46.443114029243588" lon="5.334636038169265">
        <ele>226.53</ele>
        <time>2025-04-23T15:10:26Z</time>
      </trkpt>
      <trkpt lat="46.442994000390172" lon="5.334463035687804">
        <ele>227.00999999999999</ele>
        <time>2025-04-23T15:10:27Z</time>
      </trkpt>
      <trkpt lat="46.442873971536756" lon="5.334289027377963">
        <ele>227.49000000000001</ele>
        <time>2025-04-23T15:10:28Z</time>
      </trkpt>
      <trkpt lat="46.442204006016254" lon="5.333499033004046">
        <ele>231.81</ele>
        <time>2025-04-23T15:10:33Z</time>
      </trkpt>
      <trkpt lat="46.441725986078382" lon="5.333044985309243">
        <ele>233.74000000000001</ele>
        <time>2025-04-23T15:10:37Z</time>
      </trkpt>
      <trkpt lat="46.441635964438319" lon="5.332910036668181">
        <ele>233.74000000000001</ele>
        <time>2025-04-23T15:10:38Z</time>
      </trkpt>
      <trkpt lat="46.441547032445669" lon="5.332776010036469">
        <ele>234.22</ele>
        <time>2025-04-23T15:10:39Z</time>
      </trkpt>
      <trkpt lat="46.441488023847342" lon="5.332619016990066">
        <ele>234.69999999999999</ele>
        <time>2025-04-23T15:10:40Z</time>
      </trkpt>
      <trkpt lat="46.441438989713788" lon="5.332460012286902">
        <ele>234.69999999999999</ele>
        <time>2025-04-23T15:10:41Z</time>
      </trkpt>
      <trkpt lat="46.441389033570886" lon="5.33230503089726">
        <ele>234.69999999999999</ele>
        <time>2025-04-23T15:10:42Z</time>
      </trkpt>
      <trkpt lat="46.441303035244346" lon="5.332038989290595">
        <ele>234.22</ele>
        <time>2025-04-23T15:10:44Z</time>
      </trkpt>
      <trkpt lat="46.441273028030992" lon="5.331945028156042">
        <ele>234.22</ele>
        <time>2025-04-23T15:10:45Z</time>
      </trkpt>
      <trkpt lat="46.44116397947073" lon="5.33191803842783">
        <ele>234.22</ele>
        <time>2025-04-23T15:10:46Z</time>
      </trkpt>
      <trkpt lat="46.441088961437345" lon="5.331962965428829">
        <ele>234.22</ele>
        <time>2025-04-23T15:10:47Z</time>
      </trkpt>
      <trkpt lat="46.440997011959553" lon="5.332018034532666">
        <ele>234.22</ele>
        <time>2025-04-23T15:10:48Z</time>
      </trkpt>
      <trkpt lat="46.440891986712813" lon="5.332081988453865">
        <ele>234.69999999999999</ele>
        <time>2025-04-23T15:10:49Z</time>
      </trkpt>
      <trkpt lat="46.440065028145909" lon="5.332518015056849">
        <ele>235.18000000000001</ele>
        <time>2025-04-23T15:10:56Z</time>
      </trkpt>
      <trkpt lat="46.439922032877803" lon="5.33254399895668">
        <ele>235.18000000000001</ele>
        <time>2025-04-23T15:10:57Z</time>
      </trkpt>
      <trkpt lat="46.439768979325891" lon="5.332539975643158">
        <ele>235.18000000000001</ele>
        <time>2025-04-23T15:10:58Z</time>
      </trkpt>
      <trkpt lat="46.438356041908264" lon="5.33241500146687">
        <ele>235.18000000000001</ele>
        <time>2025-04-23T15:11:07Z</time>
      </trkpt>
      <trkpt lat="46.43770300783217" lon="5.332461018115282">
        <ele>235.18000000000001</ele>
        <time>2025-04-23T15:11:13Z</time>
      </trkpt>
      <trkpt lat="46.437622038647532" lon="5.332467975094914">
        <ele>235.18000000000001</ele>
        <time>2025-04-23T15:11:14Z</time>
      </trkpt>
      <trkpt lat="46.437536962330341" lon="5.332489013671875">
        <ele>235.18000000000001</ele>
        <time>2025-04-23T15:11:15Z</time>
      </trkpt>
      <trkpt lat="46.437452975660563" lon="5.332559002563357">
        <ele>234.69999999999999</ele>
        <time>2025-04-23T15:11:16Z</time>
      </trkpt>
      <trkpt lat="46.437355997040868" lon="5.332638965919614">
        <ele>234.69999999999999</ele>
        <time>2025-04-23T15:11:17Z</time>
      </trkpt>
      <trkpt lat="46.43725298345089" lon="5.332726975902915">
        <ele>234.69999999999999</ele>
        <time>2025-04-23T15:11:18Z</time>
      </trkpt>
      <trkpt lat="46.436772029846907" lon="5.333100976422429">
        <ele>233.25999999999999</ele>
        <time>2025-04-23T15:11:22Z</time>
      </trkpt>
      <trkpt lat="46.436627022922039" lon="5.333180017769337">
        <ele>232.78</ele>
        <time>2025-04-23T15:11:23Z</time>
      </trkpt>
      <trkpt lat="46.436485033482313" lon="5.333256963640451">
        <ele>232.30000000000001</ele>
        <time>2025-04-23T15:11:24Z</time>
      </trkpt>
      <trkpt lat="46.436237012967467" lon="5.333271967247129">
        <ele>230.84999999999999</ele>
        <time>2025-04-23T15:11:26Z</time>
      </trkpt>
      <trkpt lat="46.436139028519392" lon="5.33325201831758">
        <ele>230.37</ele>
        <time>2025-04-23T15:11:27Z</time>
      </trkpt>
      <trkpt lat="46.436039032414556" lon="5.33316501416266">
        <ele>229.88999999999999</ele>
        <time>2025-04-23T15:11:28Z</time>
      </trkpt>
      <trkpt lat="46.43598304130137" lon="5.333053031936288">
        <ele>229.41</ele>
        <time>2025-04-23T15:11:29Z</time>
      </trkpt>
      <trkpt lat="46.435938030481339" lon="5.332914981991053">
        <ele>228.93000000000001</ele>
        <time>2025-04-23T15:11:30Z</time>
      </trkpt>
      <trkpt lat="46.435912968590856" lon="5.332752037793398">
        <ele>228.44999999999999</ele>
        <time>2025-04-23T15:11:31Z</time>
      </trkpt>
      <trkpt lat="46.43592000938952" lon="5.332569982856512">
        <ele>228.44999999999999</ele>
        <time>2025-04-23T15:11:32Z</time>
      </trkpt>
      <trkpt lat="46.43594297580421" lon="5.332378037273884">
        <ele>228.44999999999999</ele>
        <time>2025-04-23T15:11:33Z</time>
      </trkpt>
      <trkpt lat="46.436012964695692" lon="5.331322001293302">
        <ele>229.41</ele>
        <time>2025-04-23T15:11:38Z</time>
      </trkpt>
      <trkpt lat="46.435998966917396" lon="5.331135001033545">
        <ele>229.41</ele>
        <time>2025-04-23T15:11:39Z</time>
      </trkpt>
      <trkpt lat="46.435969965532422" lon="5.330945989117026">
        <ele>229.41</ele>
        <time>2025-04-23T15:11:40Z</time>
      </trkpt>
      <trkpt lat="46.435924032703042" lon="5.330762006342411">
        <ele>229.88999999999999</ele>
        <time>2025-04-23T15:11:41Z</time>
      </trkpt>
      <trkpt lat="46.435863012447953" lon="5.330570982769132">
        <ele>230.37</ele>
        <time>2025-04-23T15:11:42Z</time>
      </trkpt>
      <trkpt lat="46.435793023556471" lon="5.330379037186503">
        <ele>230.37</ele>
        <time>2025-04-23T15:11:43Z</time>
      </trkpt>
      <trkpt lat="46.435377029702067" lon="5.329037010669708">
        <ele>230.84999999999999</ele>
        <time>2025-04-23T15:11:50Z</time>
      </trkpt>
      <trkpt lat="46.435327995568514" lon="5.328835006803274">
        <ele>229.88999999999999</ele>
        <time>2025-04-23T15:11:51Z</time>
      </trkpt>
      <trkpt lat="46.435283990576863" lon="5.328627973794937">
        <ele>229.41</ele>
        <time>2025-04-23T15:11:52Z</time>
      </trkpt>
      <trkpt lat="46.434834972023964" lon="5.326395034790039">
        <ele>224.12</ele>
        <time>2025-04-23T15:12:02Z</time>
      </trkpt>
      <trkpt lat="46.434784010052681" lon="5.326136033982039">
        <ele>223.63999999999999</ele>
        <time>2025-04-23T15:12:03Z</time>
      </trkpt>
      <trkpt lat="46.434731036424637" lon="5.325869992375374">
        <ele>223.16</ele>
        <time>2025-04-23T15:12:04Z</time>
      </trkpt>
      <trkpt lat="46.434643026441336" lon="5.324240969493985">
        <ele>222.19999999999999</ele>
        <time>2025-04-23T15:12:10Z</time>
      </trkpt>
      <trkpt lat="46.434677978977561" lon="5.323980962857604">
        <ele>222.19999999999999</ele>
        <time>2025-04-23T15:12:11Z</time>
      </trkpt>
      <trkpt lat="46.434746040031314" lon="5.323723973706365">
        <ele>222.19999999999999</ele>
        <time>2025-04-23T15:12:12Z</time>
      </trkpt>
      <trkpt lat="46.435437966138124" lon="5.321301016956568">
        <ele>214.99000000000001</ele>
        <time>2025-04-23T15:12:21Z</time>
      </trkpt>
      <trkpt lat="46.436014976352453" lon="5.317894024774432">
        <ele>204.90000000000001</ele>
        <time>2025-04-23T15:12:33Z</time>
      </trkpt>
      <trkpt lat="46.436122013255954" lon="5.316517967730761">
        <ele>205.86000000000001</ele>
        <time>2025-04-23T15:12:40Z</time>
      </trkpt>
      <trkpt lat="46.436446979641914" lon="5.315524963662028">
        <ele>209.22</ele>
        <time>2025-04-23T15:12:45Z</time>
      </trkpt>
      <trkpt lat="46.437131026759744" lon="5.313860988244414">
        <ele>214.50999999999999</ele>
        <time>2025-04-23T15:12:52Z</time>
      </trkpt>
      <trkpt lat="46.438294015824795" lon="5.311324037611485">
        <ele>217.40000000000001</ele>
        <time>2025-04-23T15:13:02Z</time>
      </trkpt>
      <trkpt lat="46.438421001657844" lon="5.311094960197806">
        <ele>218.36000000000001</ele>
        <time>2025-04-23T15:13:03Z</time>
      </trkpt>
      <trkpt lat="46.438562991097569" lon="5.310878036543727">
        <ele>219.31999999999999</ele>
        <time>2025-04-23T15:13:04Z</time>
      </trkpt>
      <trkpt lat="46.439710976555943" lon="5.309182964265347">
        <ele>222.68000000000001</ele>
        <time>2025-04-23T15:13:12Z</time>
      </trkpt>
      <trkpt lat="46.439814995974302" lon="5.309004010632634">
        <ele>223.16</ele>
        <time>2025-04-23T15:13:13Z</time>
      </trkpt>
      <trkpt lat="46.439897976815701" lon="5.30884400010109">
        <ele>223.16</ele>
        <time>2025-04-23T15:13:14Z</time>
      </trkpt>
      <trkpt lat="46.439914992079139" lon="5.308665968477726">
        <ele>223.63999999999999</ele>
        <time>2025-04-23T15:13:15Z</time>
      </trkpt>
      <trkpt lat="46.439932007342577" lon="5.308486009016633">
        <ele>224.12</ele>
        <time>2025-04-23T15:13:16Z</time>
      </trkpt>
      <trkpt lat="46.439923038706183" lon="5.30826598405838">
        <ele>224.12</ele>
        <time>2025-04-23T15:13:17Z</time>
      </trkpt>
      <trkpt lat="46.439814995974302" lon="5.307251019403338">
        <ele>224.61000000000001</ele>
        <time>2025-04-23T15:13:21Z</time>
      </trkpt>
      <trkpt lat="46.439822036772966" lon="5.30697600916028">
        <ele>225.09</ele>
        <time>2025-04-23T15:13:22Z</time>
      </trkpt>
      <trkpt lat="46.439840979874134" lon="5.306689012795687">
        <ele>225.56999999999999</ele>
        <time>2025-04-23T15:13:23Z</time>
      </trkpt>
      <trkpt lat="46.439929995685816" lon="5.305804973468185">
        <ele>226.05000000000001</ele>
        <time>2025-04-23T15:13:26Z</time>
      </trkpt>
      <trkpt lat="46.439918009564281" lon="5.305504985153675">
        <ele>226.05000000000001</ele>
        <time>2025-04-23T15:13:27Z</time>
      </trkpt>
      <trkpt lat="46.439692033454776" lon="5.30342903919518">
        <ele>225.56999999999999</ele>
        <time>2025-04-23T15:13:35Z</time>
      </trkpt>
      <trkpt lat="46.439527999609709" lon="5.302523961290717">
        <ele>224.12</ele>
        <time>2025-04-23T15:13:39Z</time>
      </trkpt>
      <trkpt lat="46.438953001052141" lon="5.300687989220023">
        <ele>222.19999999999999</ele>
        <time>2025-04-23T15:13:47Z</time>
      </trkpt>
      <trkpt lat="46.438874965533614" lon="5.300503000617027">
        <ele>221.72</ele>
        <time>2025-04-23T15:13:48Z</time>
      </trkpt>
      <trkpt lat="46.438766000792384" lon="5.300352964550257">
        <ele>221.72</ele>
        <time>2025-04-23T15:13:49Z</time>
      </trkpt>
      <trkpt lat="46.438642032444477" lon="5.300227990373969">
        <ele>221.24000000000001</ele>
        <time>2025-04-23T15:13:50Z</time>
      </trkpt>
      <trkpt lat="46.438505994156003" lon="5.300103016197681">
        <ele>221.24000000000001</ele>
        <time>2025-04-23T15:13:51Z</time>
      </trkpt>
      <trkpt lat="46.438352018594742" lon="5.299990028142929">
        <ele>220.75999999999999</ele>
        <time>2025-04-23T15:13:52Z</time>
      </trkpt>
      <trkpt lat="46.436961041763425" lon="5.298847993835807">
        <ele>221.24000000000001</ele>
        <time>2025-04-23T15:14:01Z</time>
      </trkpt>
      <trkpt lat="46.436722995713353" lon="5.298565020784736">
        <ele>220.28</ele>
        <time>2025-04-23T15:14:03Z</time>
      </trkpt>
      <trkpt lat="46.436624005436897" lon="5.298435017466545">
        <ele>220.28</ele>
        <time>2025-04-23T15:14:04Z</time>
      </trkpt>
      <trkpt lat="46.436572959646583" lon="5.298292022198439">
        <ele>219.80000000000001</ele>
        <time>2025-04-23T15:14:05Z</time>
      </trkpt>
      <trkpt lat="46.436541024595499" lon="5.298123965039849">
        <ele>219.80000000000001</ele>
        <time>2025-04-23T15:14:06Z</time>
      </trkpt>
      <trkpt lat="46.436539012938738" lon="5.297951968386769">
        <ele>219.80000000000001</ele>
        <time>2025-04-23T15:14:07Z</time>
      </trkpt>
      <trkpt lat="46.436563991010189" lon="5.297753987833858">
        <ele>219.80000000000001</ele>
        <time>2025-04-23T15:14:08Z</time>
      </trkpt>
      <trkpt lat="46.436602966859937" lon="5.297556007280946">
        <ele>220.28</ele>
        <time>2025-04-23T15:14:09Z</time>
      </trkpt>
      <trkpt lat="46.436647977679968" lon="5.297346040606499">
        <ele>219.80000000000001</ele>
        <time>2025-04-23T15:14:10Z</time>
      </trkpt>
      <trkpt lat="46.437085010111332" lon="5.295381993055344">
        <ele>223.16</ele>
        <time>2025-04-23T15:14:20Z</time>
      </trkpt>
      <trkpt lat="46.437363959848881" lon="5.293751964345574">
        <ele>221.72</ele>
        <time>2025-04-23T15:14:29Z</time>
      </trkpt>
      <trkpt lat="46.437363959848881" lon="5.293543003499508">
        <ele>221.72</ele>
        <time>2025-04-23T15:14:30Z</time>
      </trkpt>
      <trkpt lat="46.437341999262571" lon="5.293330019339919">
        <ele>221.72</ele>
        <time>2025-04-23T15:14:31Z</time>
      </trkpt>
      <trkpt lat="46.436834977939725" lon="5.291015021502972">
        <ele>219.80000000000001</ele>
        <time>2025-04-23T15:14:41Z</time>
      </trkpt>
      <trkpt lat="46.436678990721703" lon="5.290379002690315">
        <ele>218.84</ele>
        <time>2025-04-23T15:14:44Z</time>
      </trkpt>
      <trkpt lat="46.43662802875042" lon="5.290171969681978">
        <ele>218.36000000000001</ele>
        <time>2025-04-23T15:14:45Z</time>
      </trkpt>
      <trkpt lat="46.436605984345078" lon="5.289951022714376">
        <ele>218.36000000000001</ele>
        <time>2025-04-23T15:14:46Z</time>
      </trkpt>
      <trkpt lat="46.436593998223543" lon="5.289709037169814">
        <ele>217.88</ele>
        <time>2025-04-23T15:14:47Z</time>
      </trkpt>
      <trkpt lat="46.436604978516698" lon="5.289456993341446">
        <ele>217.40000000000001</ele>
        <time>2025-04-23T15:14:48Z</time>
      </trkpt>
      <trkpt lat="46.436622999608517" lon="5.289192041382194">
        <ele>216.43000000000001</ele>
        <time>2025-04-23T15:14:49Z</time>
      </trkpt>
      <trkpt lat="46.436648983508348" lon="5.288921976462007">
        <ele>215.47</ele>
        <time>2025-04-23T15:14:50Z</time>
      </trkpt>
      <trkpt lat="46.437006974592805" lon="5.287249032407999">
        <ele>212.59</ele>
        <time>2025-04-23T15:14:57Z</time>
      </trkpt>
      <trkpt lat="46.437057014554739" lon="5.287090027704835">
        <ele>212.11000000000001</ele>
        <time>2025-04-23T15:14:58Z</time>
      </trkpt>
      <trkpt lat="46.43714502453804" lon="5.286774029955268">
        <ele>211.63</ele>
        <time>2025-04-23T15:15:00Z</time>
      </trkpt>
      <trkpt lat="46.43718701787293" lon="5.286601027473807">
        <ele>211.15000000000001</ele>
        <time>2025-04-23T15:15:01Z</time>
      </trkpt>
      <trkpt lat="46.437232028692961" lon="5.286415033042431">
        <ele>210.66999999999999</ele>
        <time>2025-04-23T15:15:02Z</time>
      </trkpt>
      <trkpt lat="46.437495974823833" lon="5.284643014892936">
        <ele>202.49000000000001</ele>
        <time>2025-04-23T15:15:09Z</time>
      </trkpt>
      <trkpt lat="46.437595970928669" lon="5.284139011055231">
        <ele>200.09</ele>
        <time>2025-04-23T15:15:11Z</time>
      </trkpt>
      <trkpt lat="46.437671994790435" lon="5.28390197083354">
        <ele>199.61000000000001</ele>
        <time>2025-04-23T15:15:12Z</time>
      </trkpt>
      <trkpt lat="46.437782971188426" lon="5.283711031079292">
        <ele>198.65000000000001</ele>
        <time>2025-04-23T15:15:13Z</time>
      </trkpt>
      <trkpt lat="46.437896965071559" lon="5.283513972535729">
        <ele>198.16999999999999</ele>
        <time>2025-04-23T15:15:14Z</time>
      </trkpt>
      <trkpt lat="46.438013976439834" lon="5.283312974497676">
        <ele>197.69</ele>
        <time>2025-04-23T15:15:15Z</time>
      </trkpt>
      <trkpt lat="46.438125958666205" lon="5.283118011429906">
        <ele>197.21000000000001</ele>
        <time>2025-04-23T15:15:16Z</time>
      </trkpt>
      <trkpt lat="46.438302984461188" lon="5.282735964283347">
        <ele>196.25</ele>
        <time>2025-04-23T15:15:18Z</time>
      </trkpt>
      <trkpt lat="46.438374985009432" lon="5.282562039792538">
        <ele>196.25</ele>
        <time>2025-04-23T15:15:19Z</time>
      </trkpt>
      <trkpt lat="46.438401974737644" lon="5.282378979027271">
        <ele>195.77000000000001</ele>
        <time>2025-04-23T15:15:20Z</time>
      </trkpt>
      <trkpt lat="46.438413960859179" lon="5.282183010131121">
        <ele>194.80000000000001</ele>
        <time>2025-04-23T15:15:21Z</time>
      </trkpt>
      <trkpt lat="46.438395017758012" lon="5.281963991001248">
        <ele>194.31999999999999</ele>
        <time>2025-04-23T15:15:22Z</time>
      </trkpt>
      <trkpt lat="46.438367022201419" lon="5.281722005456686">
        <ele>193.84</ele>
        <time>2025-04-23T15:15:23Z</time>
      </trkpt>
      <trkpt lat="46.438015988096595" lon="5.279735997319222">
        <ele>190.96000000000001</ele>
        <time>2025-04-23T15:15:30Z</time>
      </trkpt>
      <trkpt lat="46.437505027279258" lon="5.27582198381424">
        <ele>190.47999999999999</ele>
        <time>2025-04-23T15:15:44Z</time>
      </trkpt>
      <trkpt lat="46.437507038936019" lon="5.275528030470014">
        <ele>190.96000000000001</ele>
        <time>2025-04-23T15:15:45Z</time>
      </trkpt>
      <trkpt lat="46.437533022835851" lon="5.275230975821614">
        <ele>190.96000000000001</ele>
        <time>2025-04-23T15:15:46Z</time>
      </trkpt>
      <trkpt lat="46.437585996463895" lon="5.27494196780026">
        <ele>190.96000000000001</ele>
        <time>2025-04-23T15:15:47Z</time>
      </trkpt>
      <trkpt lat="46.437641987577081" lon="5.274652959778905">
        <ele>191.44</ele>
        <time>2025-04-23T15:15:48Z</time>
      </trkpt>
      <trkpt lat="46.438458971679211" lon="5.271053016185761">
        <ele>201.05000000000001</ele>
        <time>2025-04-23T15:16:01Z</time>
      </trkpt>
      <trkpt lat="46.439037993550301" lon="5.26890498585999">
        <ele>199.61000000000001</ele>
        <time>2025-04-23T15:16:11Z</time>
      </trkpt>
      <trkpt lat="46.439146958291531" lon="5.268636010587215">
        <ele>199.13</ele>
        <time>2025-04-23T15:16:13Z</time>
      </trkpt>
      <trkpt lat="46.439209990203381" lon="5.26853802613914">
        <ele>199.13</ele>
        <time>2025-04-23T15:16:14Z</time>
      </trkpt>
      <trkpt lat="46.439268998801708" lon="5.268446998670697">
        <ele>198.65000000000001</ele>
        <time>2025-04-23T15:16:15Z</time>
      </trkpt>
      <trkpt lat="46.439317027106881" lon="5.268373992294073">
        <ele>198.16999999999999</ele>
        <time>2025-04-23T15:16:16Z</time>
      </trkpt>
      <trkpt lat="46.439362037926912" lon="5.268351025879383">
        <ele>198.16999999999999</ele>
        <time>2025-04-23T15:16:17Z</time>
      </trkpt>
      <trkpt lat="46.439394978806376" lon="5.268334010615945">
        <ele>197.69</ele>
        <time>2025-04-23T15:16:18Z</time>
      </trkpt>
      <trkpt lat="46.439437977969646" lon="5.26828296482563">
        <ele>197.69</ele>
        <time>2025-04-23T15:16:19Z</time>
      </trkpt>
      <trkpt lat="46.439483994618058" lon="5.268222028389573">
        <ele>197.21000000000001</ele>
        <time>2025-04-23T15:16:20Z</time>
      </trkpt>
      <trkpt lat="46.439537974074483" lon="5.26810803450644">
        <ele>197.69</ele>
        <time>2025-04-23T15:16:21Z</time>
      </trkpt>
      <trkpt lat="46.439551971852779" lon="5.267975013703108">
        <ele>197.69</ele>
        <time>2025-04-23T15:16:22Z</time>
      </trkpt>
      <trkpt lat="46.439539985731244" lon="5.267846016213298">
        <ele>197.69</ele>
        <time>2025-04-23T15:16:23Z</time>
      </trkpt>
      <trkpt lat="46.439488017931581" lon="5.267707966268063">
        <ele>197.69</ele>
        <time>2025-04-23T15:16:24Z</time>
      </trkpt>
      <trkpt lat="46.439446024596691" lon="5.267536975443363">
        <ele>197.21000000000001</ele>
        <time>2025-04-23T15:16:25Z</time>
      </trkpt>
      <trkpt lat="46.439455999061465" lon="5.267423987388611">
        <ele>197.21000000000001</ele>
        <time>2025-04-23T15:16:26Z</time>
      </trkpt>
      <trkpt lat="46.439477959647775" lon="5.267260037362576">
        <ele>197.21000000000001</ele>
        <time>2025-04-23T15:16:27Z</time>
      </trkpt>
      <trkpt lat="46.439915997907519" lon="5.265690023079515">
        <ele>196.72999999999999</ele>
        <time>2025-04-23T15:16:35Z</time>
      </trkpt>
      <trkpt lat="46.440502982586622" lon="5.263682976365089">
        <ele>201.53</ele>
        <time>2025-04-23T15:16:43Z</time>
      </trkpt>
      <trkpt lat="46.441338993608952" lon="5.261634020134807">
        <ele>210.19</ele>
        <time>2025-04-23T15:16:52Z</time>
      </trkpt>
      <trkpt lat="46.441936958581209" lon="5.260232985019684">
        <ele>212.59</ele>
        <time>2025-04-23T15:16:58Z</time>
      </trkpt>
      <trkpt lat="46.442133011296391" lon="5.259416000917554">
        <ele>211.15000000000001</ele>
        <time>2025-04-23T15:17:01Z</time>
      </trkpt>
      <trkpt lat="46.442483961582184" lon="5.256634969264269">
        <ele>202.97999999999999</ele>
        <time>2025-04-23T15:17:10Z</time>
      </trkpt>
      <trkpt lat="46.442727958783507" lon="5.254498003050685">
        <ele>205.86000000000001</ele>
        <time>2025-04-23T15:17:18Z</time>
      </trkpt>
      <trkpt lat="46.442825021222234" lon="5.251743039116263">
        <ele>213.06999999999999</ele>
        <time>2025-04-23T15:17:29Z</time>
      </trkpt>
      <trkpt lat="46.442374996840954" lon="5.24900701828301">
        <ele>208.74000000000001</ele>
        <time>2025-04-23T15:17:38Z</time>
      </trkpt>
      <trkpt lat="46.44240802153945" lon="5.246834009885788">
        <ele>204.41999999999999</ele>
        <time>2025-04-23T15:17:45Z</time>
      </trkpt>
      <trkpt lat="46.442971033975482" lon="5.244756974279881">
        <ele>195.28</ele>
        <time>2025-04-23T15:17:52Z</time>
      </trkpt>
      <trkpt lat="46.443422986194491" lon="5.242524035274983">
        <ele>188.56</ele>
        <time>2025-04-23T15:18:00Z</time>
      </trkpt>
      <trkpt lat="46.443909974768758" lon="5.241090981289744">
        <ele>187.59</ele>
        <time>2025-04-23T15:18:07Z</time>
      </trkpt>
      <trkpt lat="46.44453601911664" lon="5.239521972835064">
        <ele>188.08000000000001</ele>
        <time>2025-04-23T15:18:15Z</time>
      </trkpt>
      <trkpt lat="46.445033987984061" lon="5.237275036051869">
        <ele>187.11000000000001</ele>
        <time>2025-04-23T15:18:25Z</time>
      </trkpt>
      <trkpt lat="46.445581996813416" lon="5.235689012333751">
        <ele>187.11000000000001</ele>
        <time>2025-04-23T15:18:32Z</time>
      </trkpt>
      <trkpt lat="46.446451032534242" lon="5.233769975602627">
        <ele>192.40000000000001</ele>
        <time>2025-04-23T15:18:42Z</time>
      </trkpt>
      <trkpt lat="46.44662101753056" lon="5.233188020065427">
        <ele>195.28</ele>
        <time>2025-04-23T15:18:47Z</time>
      </trkpt>
      <trkpt lat="46.446634009480476" lon="5.233139991760254">
        <ele>195.28</ele>
        <time>2025-04-23T15:18:48Z</time>
      </trkpt>
      <trkpt lat="46.446783961728215" lon="5.233076037839055">
        <ele>195.77000000000001</ele>
        <time>2025-04-23T15:18:49Z</time>
      </trkpt>
      <trkpt lat="46.446801982820034" lon="5.232995990663767">
        <ele>196.25</ele>
        <time>2025-04-23T15:18:50Z</time>
      </trkpt>
      <trkpt lat="46.446806006133556" lon="5.232840003445745">
        <ele>196.72999999999999</ele>
        <time>2025-04-23T15:18:51Z</time>
      </trkpt>
      <trkpt lat="46.446785973384976" lon="5.23278996348381">
        <ele>196.72999999999999</ele>
        <time>2025-04-23T15:18:52Z</time>
      </trkpt>
      <trkpt lat="46.446763006970286" lon="5.232731960713863">
        <ele>197.21000000000001</ele>
        <time>2025-04-23T15:18:53Z</time>
      </trkpt>
      <trkpt lat="46.446708021685481" lon="5.232602041214705">
        <ele>197.21000000000001</ele>
        <time>2025-04-23T15:18:54Z</time>
      </trkpt>
      <trkpt lat="46.446725036948919" lon="5.232462985441089">
        <ele>197.69</ele>
        <time>2025-04-23T15:18:55Z</time>
      </trkpt>
      <trkpt lat="46.446742974221706" lon="5.232310015708208">
        <ele>198.16999999999999</ele>
        <time>2025-04-23T15:18:56Z</time>
      </trkpt>
      <trkpt lat="46.446847999468446" lon="5.230678981170058">
        <ele>204.41999999999999</ele>
        <time>2025-04-23T15:19:04Z</time>
      </trkpt>
      <trkpt lat="46.446826960891485" lon="5.228633964434266">
        <ele>212.59</ele>
        <time>2025-04-23T15:19:13Z</time>
      </trkpt>
      <trkpt lat="46.446755966171622" lon="5.226699002087116">
        <ele>214.03</ele>
        <time>2025-04-23T15:19:21Z</time>
      </trkpt>
      <trkpt lat="46.446634009480476" lon="5.223321011289954">
        <ele>210.19</ele>
        <time>2025-04-23T15:19:33Z</time>
      </trkpt>
      <trkpt lat="46.446653958410025" lon="5.218958985060453">
        <ele>212.11000000000001</ele>
        <time>2025-04-23T15:19:47Z</time>
      </trkpt>
      <trkpt lat="46.446757977828383" lon="5.215458031743765">
        <ele>200.56999999999999</ele>
        <time>2025-04-23T15:19:58Z</time>
      </trkpt>
      <trkpt lat="46.44685504026711" lon="5.212150029838085">
        <ele>206.81999999999999</ele>
        <time>2025-04-23T15:20:10Z</time>
      </trkpt>
      <trkpt lat="46.446947995573282" lon="5.20930202677846">
        <ele>213.55000000000001</ele>
        <time>2025-04-23T15:20:21Z</time>
      </trkpt>
      <trkpt lat="46.447128038853407" lon="5.206706989556551">
        <ele>204.90000000000001</ele>
        <time>2025-04-23T15:20:31Z</time>
      </trkpt>
      <trkpt lat="46.447170032188296" lon="5.206450000405312">
        <ele>203.94</ele>
        <time>2025-04-23T15:20:32Z</time>
      </trkpt>
      <trkpt lat="46.447229040786624" lon="5.206202985718846">
        <ele>203.46000000000001</ele>
        <time>2025-04-23T15:20:33Z</time>
      </trkpt>
      <trkpt lat="46.448030015453696" lon="5.203779023140669">
        <ele>208.25999999999999</ele>
        <time>2025-04-23T15:20:44Z</time>
      </trkpt>
      <trkpt lat="46.449012961238623" lon="5.200851978734136">
        <ele>207.30000000000001</ele>
        <time>2025-04-23T15:20:57Z</time>
      </trkpt>
      <trkpt lat="46.450020968914032" lon="5.19757297821343">
        <ele>203.46000000000001</ele>
        <time>2025-04-23T15:21:10Z</time>
      </trkpt>
      <trkpt lat="46.451013972982764" lon="5.194319039583206">
        <ele>203.94</ele>
        <time>2025-04-23T15:21:22Z</time>
      </trkpt>
      <trkpt lat="46.451843027025461" lon="5.191547982394695">
        <ele>209.22</ele>
        <time>2025-04-23T15:21:34Z</time>
      </trkpt>
      <trkpt lat="46.452419031411409" lon="5.189564991742373">
        <ele>205.86000000000001</ele>
        <time>2025-04-23T15:21:44Z</time>
      </trkpt>
      <trkpt lat="46.453111041337252" lon="5.187173970043659">
        <ele>198.65000000000001</ele>
        <time>2025-04-23T15:21:55Z</time>
      </trkpt>
      <trkpt lat="46.453413041308522" lon="5.186095973476768">
        <ele>199.61000000000001</ele>
        <time>2025-04-23T15:22:00Z</time>
      </trkpt>
      <trkpt lat="46.453906986862421" lon="5.183862028643489">
        <ele>197.21000000000001</ele>
        <time>2025-04-23T15:22:09Z</time>
      </trkpt>
      <trkpt lat="46.454530013725162" lon="5.180948982015252">
        <ele>197.69</ele>
        <time>2025-04-23T15:22:20Z</time>
      </trkpt>
      <trkpt lat="46.455213977023959" lon="5.177794033661485">
        <ele>202.00999999999999</ele>
        <time>2025-04-23T15:22:31Z</time>
      </trkpt>
      <trkpt lat="46.456034984439611" lon="5.174074983224273">
        <ele>204.41999999999999</ele>
        <time>2025-04-23T15:22:44Z</time>
      </trkpt>
      <trkpt lat="46.456221984699368" lon="5.173216005787253">
        <ele>205.38</ele>
        <time>2025-04-23T15:22:47Z</time>
      </trkpt>
      <trkpt lat="46.456285016611218" lon="5.172926997765899">
        <ele>205.38</ele>
        <time>2025-04-23T15:22:48Z</time>
      </trkpt>
      <trkpt lat="46.456349976360798" lon="5.172624997794628">
        <ele>205.86000000000001</ele>
        <time>2025-04-23T15:22:49Z</time>
      </trkpt>
      <trkpt lat="46.456965962424874" lon="5.169797027483583">
        <ele>202.97999999999999</ele>
        <time>2025-04-23T15:22:59Z</time>
      </trkpt>
      <trkpt lat="46.457675993442535" lon="5.16654996201396">
        <ele>207.30000000000001</ele>
        <time>2025-04-23T15:23:11Z</time>
      </trkpt>
      <trkpt lat="46.458275970071554" lon="5.163359977304936">
        <ele>207.30000000000001</ele>
        <time>2025-04-23T15:23:22Z</time>
      </trkpt>
      <trkpt lat="46.458710990846157" lon="5.16094003804028">
        <ele>209.69999999999999</ele>
        <time>2025-04-23T15:23:31Z</time>
      </trkpt>
      <trkpt lat="46.459164032712579" lon="5.157777965068817">
        <ele>207.30000000000001</ele>
        <time>2025-04-23T15:23:43Z</time>
      </trkpt>
      <trkpt lat="46.459364024922252" lon="5.156670967116952">
        <ele>204.41999999999999</ele>
        <time>2025-04-23T15:23:48Z</time>
      </trkpt>
      <trkpt lat="46.459723021835089" lon="5.154552021995187">
        <ele>197.69</ele>
        <time>2025-04-23T15:23:58Z</time>
      </trkpt>
      <trkpt lat="46.45994103513658" lon="5.153342010453343">
        <ele>199.13</ele>
        <time>2025-04-23T15:24:06Z</time>
      </trkpt>
      <trkpt lat="46.459970036521554" lon="5.153125002980232">
        <ele>199.61000000000001</ele>
        <time>2025-04-23T15:24:08Z</time>
      </trkpt>
      <trkpt lat="46.459981016814709" lon="5.152996005490422">
        <ele>200.56999999999999</ele>
        <time>2025-04-23T15:24:09Z</time>
      </trkpt>
      <trkpt lat="46.460000965744257" lon="5.152890980243683">
        <ele>201.05000000000001</ele>
        <time>2025-04-23T15:24:10Z</time>
      </trkpt>
      <trkpt lat="46.460151001811028" lon="5.151983974501491">
        <ele>204.41999999999999</ele>
        <time>2025-04-23T15:24:17Z</time>
      </trkpt>
      <trkpt lat="46.460167011246085" lon="5.151875009760261">
        <ele>205.38</ele>
        <time>2025-04-23T15:24:18Z</time>
      </trkpt>
      <trkpt lat="46.460216967388988" lon="5.151300011202693">
        <ele>208.74000000000001</ele>
        <time>2025-04-23T15:24:22Z</time>
      </trkpt>
      <trkpt lat="46.460152007639408" lon="5.150548992678523">
        <ele>212.59</ele>
        <time>2025-04-23T15:24:32Z</time>
      </trkpt>
      <trkpt lat="46.46017899736762" lon="5.150399040430784">
        <ele>212.59</ele>
        <time>2025-04-23T15:24:33Z</time>
      </trkpt>
      <trkpt lat="46.460192995145917" lon="5.150288986042142">
        <ele>213.06999999999999</ele>
        <time>2025-04-23T15:24:34Z</time>
      </trkpt>
      <trkpt lat="46.460224008187652" lon="5.150191001594067">
        <ele>213.06999999999999</ele>
        <time>2025-04-23T15:24:35Z</time>
      </trkpt>
      <trkpt lat="46.460260972380638" lon="5.15008999966085">
        <ele>213.55000000000001</ele>
        <time>2025-04-23T15:24:36Z</time>
      </trkpt>
      <trkpt lat="46.460295002907515" lon="5.149988997727633">
        <ele>213.55000000000001</ele>
        <time>2025-04-23T15:24:37Z</time>
      </trkpt>
      <trkpt lat="46.46032702177763" lon="5.149886989966035">
        <ele>213.55000000000001</ele>
        <time>2025-04-23T15:24:38Z</time>
      </trkpt>
      <trkpt lat="46.460358034819365" lon="5.149787999689579">
        <ele>213.55000000000001</ele>
        <time>2025-04-23T15:24:39Z</time>
      </trkpt>
      <trkpt lat="46.460389969870448" lon="5.149686997756362">
        <ele>213.55000000000001</ele>
        <time>2025-04-23T15:24:40Z</time>
      </trkpt>
      <trkpt lat="46.460788026452065" lon="5.148442033678293">
        <ele>210.66999999999999</ele>
        <time>2025-04-23T15:24:50Z</time>
      </trkpt>
      <trkpt lat="46.461460003629327" lon="5.146798007190228">
        <ele>209.69999999999999</ele>
        <time>2025-04-23T15:25:01Z</time>
      </trkpt>
      <trkpt lat="46.462381007149816" lon="5.144796995446086">
        <ele>203.46000000000001</ele>
        <time>2025-04-23T15:25:11Z</time>
      </trkpt>
      <trkpt lat="46.463482975959778" lon="5.142403962090612">
        <ele>196.25</ele>
        <time>2025-04-23T15:25:22Z</time>
      </trkpt>
      <trkpt lat="46.464099967852235" lon="5.140389036387205">
        <ele>192.40000000000001</ele>
        <time>2025-04-23T15:25:30Z</time>
      </trkpt>
      <trkpt lat="46.464672032743692" lon="5.136904008686543">
        <ele>199.13</ele>
        <time>2025-04-23T15:25:42Z</time>
      </trkpt>
      <trkpt lat="46.464932039380074" lon="5.133792981505394">
        <ele>192.88</ele>
        <time>2025-04-23T15:25:52Z</time>
      </trkpt>
      <trkpt lat="46.465027006343007" lon="5.1309899892658">
        <ele>195.28</ele>
        <time>2025-04-23T15:26:02Z</time>
      </trkpt>
      <trkpt lat="46.46507503464818" lon="5.13053996488452">
        <ele>196.72999999999999</ele>
        <time>2025-04-23T15:26:04Z</time>
      </trkpt>
      <trkpt lat="46.46511803381145" lon="5.130320023745298">
        <ele>197.21000000000001</ele>
        <time>2025-04-23T15:26:05Z</time>
      </trkpt>
      <trkpt lat="46.465709963813424" lon="5.128597961738706">
        <ele>196.72999999999999</ele>
        <time>2025-04-23T15:26:12Z</time>
      </trkpt>
      <trkpt lat="46.46707302890718" lon="5.124668022617698">
        <ele>195.77000000000001</ele>
        <time>2025-04-23T15:26:26Z</time>
      </trkpt>
      <trkpt lat="46.468360992148519" lon="5.120934974402189">
        <ele>197.69</ele>
        <time>2025-04-23T15:26:41Z</time>
      </trkpt>
      <trkpt lat="46.468547992408276" lon="5.120433988049626">
        <ele>199.61000000000001</ele>
        <time>2025-04-23T15:26:44Z</time>
      </trkpt>
      <trkpt lat="46.468607001006603" lon="5.120337009429932">
        <ele>200.09</ele>
        <time>2025-04-23T15:26:45Z</time>
      </trkpt>
      <trkpt lat="46.468659974634647" lon="5.120217986404896">
        <ele>201.05000000000001</ele>
        <time>2025-04-23T15:26:46Z</time>
      </trkpt>
      <trkpt lat="46.468840017914772" lon="5.120155038312078">
        <ele>201.53</ele>
        <time>2025-04-23T15:26:48Z</time>
      </trkpt>
      <trkpt lat="46.468901038169861" lon="5.120021011680365">
        <ele>202.00999999999999</ele>
        <time>2025-04-23T15:26:49Z</time>
      </trkpt>
      <trkpt lat="46.468892991542816" lon="5.119914980605245">
        <ele>202.97999999999999</ele>
        <time>2025-04-23T15:26:50Z</time>
      </trkpt>
      <trkpt lat="46.468887040391564" lon="5.119789000600576">
        <ele>203.46000000000001</ele>
        <time>2025-04-23T15:26:51Z</time>
      </trkpt>
      <trkpt lat="46.468892991542816" lon="5.119639970362186">
        <ele>203.46000000000001</ele>
        <time>2025-04-23T15:26:52Z</time>
      </trkpt>
      <trkpt lat="46.468906989321113" lon="5.119289020076394">
        <ele>204.41999999999999</ele>
        <time>2025-04-23T15:26:54Z</time>
      </trkpt>
      <trkpt lat="46.468869019299746" lon="5.11908701620996">
        <ele>204.90000000000001</ele>
        <time>2025-04-23T15:26:55Z</time>
      </trkpt>
      <trkpt lat="46.468445984646678" lon="5.116710998117924">
        <ele>207.30000000000001</ele>
        <time>2025-04-23T15:27:05Z</time>
      </trkpt>
      <trkpt lat="46.467821029946208" lon="5.113238962367177">
        <ele>205.38</ele>
        <time>2025-04-23T15:27:17Z</time>
      </trkpt>
      <trkpt lat="46.467212000861764" lon="5.109249008819461">
        <ele>207.78</ele>
        <time>2025-04-23T15:27:30Z</time>
      </trkpt>
      <trkpt lat="46.466921987012029" lon="5.106916995719075">
        <ele>208.74000000000001</ele>
        <time>2025-04-23T15:27:38Z</time>
      </trkpt>
      <trkpt lat="46.466641025617719" lon="5.104684978723526">
        <ele>208.74000000000001</ele>
        <time>2025-04-23T15:27:47Z</time>
      </trkpt>
      <trkpt lat="46.466390993446112" lon="5.102711962535977">
        <ele>207.78</ele>
        <time>2025-04-23T15:27:57Z</time>
      </trkpt>
      <trkpt lat="46.466239029541612" lon="5.101840998977423">
        <ele>209.69999999999999</ele>
        <time>2025-04-23T15:28:01Z</time>
      </trkpt>
      <trkpt lat="46.465537967160344" lon="5.099516026675701">
        <ele>209.22</ele>
        <time>2025-04-23T15:28:11Z</time>
      </trkpt>
      <trkpt lat="46.464642025530338" lon="5.09678503498435">
        <ele>210.66999999999999</ele>
        <time>2025-04-23T15:28:22Z</time>
      </trkpt>
      <trkpt lat="46.463467972353101" lon="5.093125998973846">
        <ele>208.25999999999999</ele>
        <time>2025-04-23T15:28:35Z</time>
      </trkpt>
      <trkpt lat="46.462431969121099" lon="5.089939031749964">
        <ele>211.63</ele>
        <time>2025-04-23T15:28:47Z</time>
      </trkpt>
      <trkpt lat="46.461954033002257" lon="5.088458033278585">
        <ele>212.59</ele>
        <time>2025-04-23T15:28:54Z</time>
      </trkpt>
      <trkpt lat="46.461408035829663" lon="5.086791040375829">
        <ele>211.63</ele>
        <time>2025-04-23T15:29:04Z</time>
      </trkpt>
      <trkpt lat="46.460853992030025" lon="5.085052968934178">
        <ele>209.69999999999999</ele>
        <time>2025-04-23T15:29:15Z</time>
      </trkpt>
      <trkpt lat="46.460633967071772" lon="5.084357019513845">
        <ele>208.74000000000001</ele>
        <time>2025-04-23T15:29:20Z</time>
      </trkpt>
      <trkpt lat="46.460407990962267" lon="5.08372200652957">
        <ele>206.81999999999999</ele>
        <time>2025-04-23T15:29:26Z</time>
      </trkpt>
      <trkpt lat="46.460385024547577" lon="5.08363600820303">
        <ele>206.34</ele>
        <time>2025-04-23T15:29:27Z</time>
      </trkpt>
      <trkpt lat="46.460365997627378" lon="5.083564007654786">
        <ele>205.86000000000001</ele>
        <time>2025-04-23T15:29:28Z</time>
      </trkpt>
      <trkpt lat="46.4603509940207" lon="5.083511034026742">
        <ele>205.38</ele>
        <time>2025-04-23T15:29:29Z</time>
      </trkpt>
      <trkpt lat="46.460340013727546" lon="5.083468034863472">
        <ele>204.90000000000001</ele>
        <time>2025-04-23T15:29:30Z</time>
      </trkpt>
      <trkpt lat="46.460335990414023" lon="5.083387987688184">
        <ele>204.41999999999999</ele>
        <time>2025-04-23T15:29:31Z</time>
      </trkpt>
      <trkpt lat="46.460347976535559" lon="5.083367032930255">
        <ele>203.94</ele>
        <time>2025-04-23T15:29:32Z</time>
      </trkpt>
      <trkpt lat="46.460410002619028" lon="5.083257984369993">
        <ele>203.46000000000001</ele>
        <time>2025-04-23T15:29:34Z</time>
      </trkpt>
      <trkpt lat="46.460396004840732" lon="5.083201993256807">
        <ele>203.46000000000001</ele>
        <time>2025-04-23T15:29:35Z</time>
      </trkpt>
      <trkpt lat="46.460354011505842" lon="5.083128986880183">
        <ele>203.46000000000001</ele>
        <time>2025-04-23T15:29:36Z</time>
      </trkpt>
      <trkpt lat="46.460316041484475" lon="5.083081964403391">
        <ele>202.97999999999999</ele>
        <time>2025-04-23T15:29:37Z</time>
      </trkpt>
      <trkpt lat="46.460301959887147" lon="5.083065032958984">
        <ele>202.97999999999999</ele>
        <time>2025-04-23T15:29:38Z</time>
      </trkpt>
      <trkpt lat="46.460184026509523" lon="5.083065032958984">
        <ele>202.97999999999999</ele>
        <time>2025-04-23T15:29:39Z</time>
      </trkpt>
      <trkpt lat="46.460152007639408" lon="5.083000995218754">
        <ele>202.49000000000001</ele>
        <time>2025-04-23T15:29:40Z</time>
      </trkpt>
      <trkpt lat="46.460130969062448" lon="5.082893036305904">
        <ele>202.49000000000001</ele>
        <time>2025-04-23T15:29:41Z</time>
      </trkpt>
      <trkpt lat="46.460079001262784" lon="5.08284199051559">
        <ele>202.49000000000001</ele>
        <time>2025-04-23T15:29:42Z</time>
      </trkpt>
      <trkpt lat="46.46002896130085" lon="5.082792034372687">
        <ele>202.00999999999999</ele>
        <time>2025-04-23T15:29:43Z</time>
      </trkpt>
      <trkpt lat="46.459981016814709" lon="5.082744006067514">
        <ele>201.53</ele>
        <time>2025-04-23T15:29:44Z</time>
      </trkpt>
      <trkpt lat="46.459924019873142" lon="5.082706036046147">
        <ele>201.53</ele>
        <time>2025-04-23T15:29:45Z</time>
      </trkpt>
      <trkpt lat="46.459873979911208" lon="5.082682985812426">
        <ele>201.53</ele>
        <time>2025-04-23T15:29:46Z</time>
      </trkpt>
      <trkpt lat="46.459824023768306" lon="5.082660019397736">
        <ele>201.05000000000001</ele>
        <time>2025-04-23T15:29:47Z</time>
      </trkpt>
      <trkpt lat="46.459769960492849" lon="5.082635963335633">
        <ele>201.05000000000001</ele>
        <time>2025-04-23T15:29:48Z</time>
      </trkpt>
      <trkpt lat="46.459715981036425" lon="5.082610985264182">
        <ele>201.05000000000001</ele>
        <time>2025-04-23T15:29:49Z</time>
      </trkpt>
      <trkpt lat="46.459481036290526" lon="5.082479976117611">
        <ele>201.05000000000001</ele>
        <time>2025-04-23T15:29:54Z</time>
      </trkpt>
      <trkpt lat="46.459456980228424" lon="5.082463966682553">
        <ele>201.05000000000001</ele>
        <time>2025-04-23T15:29:55Z</time>
      </trkpt>
      <trkpt lat="46.459438037127256" lon="5.082451980561018">
        <ele>201.05000000000001</ele>
        <time>2025-04-23T15:29:56Z</time>
      </trkpt>
      <trkpt lat="46.459423033520579" lon="5.082443011924624">
        <ele>201.05000000000001</ele>
        <time>2025-04-23T15:29:57Z</time>
      </trkpt>
      <trkpt lat="46.459401994943619" lon="5.082459021359682">
        <ele>201.05000000000001</ele>
        <time>2025-04-23T15:29:58Z</time>
      </trkpt>
      <trkpt lat="46.459373999387026" lon="5.082479976117611">
        <ele>201.05000000000001</ele>
        <time>2025-04-23T15:29:59Z</time>
      </trkpt>
      <trkpt lat="46.459337035194039" lon="5.082508977502585">
        <ele>201.05000000000001</ele>
        <time>2025-04-23T15:30:00Z</time>
      </trkpt>
      <trkpt lat="46.459285989403725" lon="5.082548037171364">
        <ele>200.56999999999999</ele>
        <time>2025-04-23T15:30:01Z</time>
      </trkpt>
      <trkpt lat="46.459228992462158" lon="5.082591958343983">
        <ele>200.56999999999999</ele>
        <time>2025-04-23T15:30:02Z</time>
      </trkpt>
      <trkpt lat="46.459015002474189" lon="5.082721961662173">
        <ele>200.56999999999999</ele>
        <time>2025-04-23T15:30:05Z</time>
      </trkpt>
      <trkpt lat="46.458940990269184" lon="5.082763032987714">
        <ele>200.56999999999999</ele>
        <time>2025-04-23T15:30:06Z</time>
      </trkpt>
      <trkpt lat="46.458026021718979" lon="5.083237029612064">
        <ele>200.09</ele>
        <time>2025-04-23T15:30:17Z</time>
      </trkpt>
      <trkpt lat="46.457760985940695" lon="5.083369966596365">
        <ele>201.53</ele>
        <time>2025-04-23T15:30:21Z</time>
      </trkpt>
      <trkpt lat="46.457646992057562" lon="5.083423024043441">
        <ele>202.00999999999999</ele>
        <time>2025-04-23T15:30:24Z</time>
      </trkpt>
      <trkpt lat="46.457641962915659" lon="5.083537017926574">
        <ele>202.49000000000001</ele>
        <time>2025-04-23T15:30:25Z</time>
      </trkpt>
      <trkpt lat="46.457612961530685" lon="5.083498964086175">
        <ele>202.97999999999999</ele>
        <time>2025-04-23T15:30:26Z</time>
      </trkpt>
      <trkpt lat="46.457646992057562" lon="5.083424029871821">
        <ele>203.46000000000001</ele>
        <time>2025-04-23T15:30:27Z</time>
      </trkpt>
      <trkpt lat="46.457654032856226" lon="5.08342101238668">
        <ele>203.94</ele>
        <time>2025-04-23T15:30:28Z</time>
      </trkpt>
      <trkpt lat="46.457664007321" lon="5.083416989073157">
        <ele>204.41999999999999</ele>
        <time>2025-04-23T15:30:29Z</time>
      </trkpt>
      <trkpt lat="46.457684962078929" lon="5.083408020436764">
        <ele>204.90000000000001</ele>
        <time>2025-04-23T15:30:30Z</time>
      </trkpt>
      <trkpt lat="46.457696026191115" lon="5.08340198546648">
        <ele>204.90000000000001</ele>
        <time>2025-04-23T15:30:31Z</time>
      </trkpt>
      <trkpt lat="46.457726033404469" lon="5.083387987688184">
        <ele>204.90000000000001</ele>
        <time>2025-04-23T15:30:32Z</time>
      </trkpt>
      <trkpt lat="46.457766015082598" lon="5.083368038758636">
        <ele>204.90000000000001</ele>
        <time>2025-04-23T15:30:33Z</time>
      </trkpt>
      <trkpt lat="46.45781496539712" lon="5.083342976868153">
        <ele>204.41999999999999</ele>
        <time>2025-04-23T15:30:34Z</time>
      </trkpt>
      <trkpt lat="46.457866011187434" lon="5.083317998796701">
        <ele>204.90000000000001</ele>
        <time>2025-04-23T15:30:35Z</time>
      </trkpt>
      <trkpt lat="46.457926025614142" lon="5.083287991583347">
        <ele>204.90000000000001</ele>
        <time>2025-04-23T15:30:36Z</time>
      </trkpt>
      <trkpt lat="46.457989979535341" lon="5.083255972713232">
        <ele>204.90000000000001</ele>
        <time>2025-04-23T15:30:37Z</time>
      </trkpt>
      <trkpt lat="46.45865298807621" lon="5.082922959700227">
        <ele>205.86000000000001</ele>
        <time>2025-04-23T15:30:46Z</time>
      </trkpt>
      <trkpt lat="46.459143999963999" lon="5.082657001912594">
        <ele>205.38</ele>
        <time>2025-04-23T15:30:53Z</time>
      </trkpt>
      <trkpt lat="46.459223963320255" lon="5.082595981657505">
        <ele>205.86000000000001</ele>
        <time>2025-04-23T15:30:55Z</time>
      </trkpt>
      <trkpt lat="46.459367964416742" lon="5.082485005259514">
        <ele>206.81999999999999</ele>
        <time>2025-04-23T15:31:00Z</time>
      </trkpt>
      <trkpt lat="46.459423033520579" lon="5.082437982782722">
        <ele>207.30000000000001</ele>
        <time>2025-04-23T15:31:01Z</time>
      </trkpt>
      <trkpt lat="46.45942403934896" lon="5.082403030246496">
        <ele>207.78</ele>
        <time>2025-04-23T15:31:02Z</time>
      </trkpt>
      <trkpt lat="46.459424961358309" lon="5.082362964749336">
        <ele>207.78</ele>
        <time>2025-04-23T15:31:03Z</time>
      </trkpt>
      <trkpt lat="46.45942697301507" lon="5.082322983071208">
        <ele>207.78</ele>
        <time>2025-04-23T15:31:04Z</time>
      </trkpt>
      <trkpt lat="46.459442982450128" lon="5.081837000325322">
        <ele>206.81999999999999</ele>
        <time>2025-04-23T15:31:14Z</time>
      </trkpt>
      <trkpt lat="46.459450023248792" lon="5.081723006442189">
        <ele>207.30000000000001</ele>
        <time>2025-04-23T15:31:16Z</time>
      </trkpt>
      <trkpt lat="46.459459997713566" lon="5.081593003123999">
        <ele>207.30000000000001</ele>
        <time>2025-04-23T15:31:18Z</time>
      </trkpt>
      <trkpt lat="46.459465026855469" lon="5.081527959555388">
        <ele>207.30000000000001</ele>
        <time>2025-04-23T15:31:19Z</time>
      </trkpt>
      <trkpt lat="46.459470978006721" lon="5.081454031169415">
        <ele>207.30000000000001</ele>
        <time>2025-04-23T15:31:20Z</time>
      </trkpt>
      <trkpt lat="46.459483969956636" lon="5.081292008981109">
        <ele>207.78</ele>
        <time>2025-04-23T15:31:22Z</time>
      </trkpt>
      <trkpt lat="46.459491010755301" lon="5.081203998997808">
        <ele>207.78</ele>
        <time>2025-04-23T15:31:23Z</time>
      </trkpt>
      <trkpt lat="46.459515988826752" lon="5.080881966277957">
        <ele>207.78</ele>
        <time>2025-04-23T15:31:27Z</time>
      </trkpt>
      <trkpt lat="46.459529986605048" lon="5.080705024302006">
        <ele>207.78</ele>
        <time>2025-04-23T15:31:28Z</time>
      </trkpt>
      <trkpt lat="46.459544990211725" lon="5.080642998218536">
        <ele>207.78</ele>
        <time>2025-04-23T15:31:30Z</time>
      </trkpt>
      <trkpt lat="46.459617996588349" lon="5.079975966364145">
        <ele>207.78</ele>
        <time>2025-04-23T15:31:37Z</time>
      </trkpt>
      <trkpt lat="46.459628976881504" lon="5.079872030764818">
        <ele>207.78</ele>
        <time>2025-04-23T15:31:38Z</time>
      </trkpt>
      <trkpt lat="46.459674993529916" lon="5.079396022483707">
        <ele>208.74000000000001</ele>
        <time>2025-04-23T15:31:43Z</time>
      </trkpt>
      <trkpt lat="46.459694020450115" lon="5.079192006960511">
        <ele>207.78</ele>
        <time>2025-04-23T15:31:46Z</time>
      </trkpt>
      <trkpt lat="46.459700977429748" lon="5.079126041382551">
        <ele>207.78</ele>
        <time>2025-04-23T15:31:47Z</time>
      </trkpt>
      <trkpt lat="46.459744982421398" lon="5.079010035842657">
        <ele>207.78</ele>
        <time>2025-04-23T15:31:48Z</time>
      </trkpt>
      <trkpt lat="46.459732996299863" lon="5.078985979780555">
        <ele>207.78</ele>
        <time>2025-04-23T15:31:49Z</time>
      </trkpt>
      <trkpt lat="46.459701983258128" lon="5.078924037516117">
        <ele>207.78</ele>
        <time>2025-04-23T15:31:50Z</time>
      </trkpt>
      <trkpt lat="46.459599975496531" lon="5.078900987282395">
        <ele>207.78</ele>
        <time>2025-04-23T15:31:51Z</time>
      </trkpt>
      <trkpt lat="46.459569968283176" lon="5.078815994784236">
        <ele>207.78</ele>
        <time>2025-04-23T15:31:52Z</time>
      </trkpt>
      <trkpt lat="46.459538033232093" lon="5.078723039478064">
        <ele>207.78</ele>
        <time>2025-04-23T15:31:53Z</time>
      </trkpt>
      <trkpt lat="46.459504002705216" lon="5.078626982867718">
        <ele>207.78</ele>
        <time>2025-04-23T15:31:54Z</time>
      </trkpt>
      <trkpt lat="46.459449017420411" lon="5.078421039506793">
        <ele>207.78</ele>
        <time>2025-04-23T15:31:56Z</time>
      </trkpt>
      <trkpt lat="46.459429990500212" lon="5.078306961804628">
        <ele>207.78</ele>
        <time>2025-04-23T15:31:57Z</time>
      </trkpt>
      <trkpt lat="46.459136959165335" lon="5.076618008315563">
        <ele>205.86000000000001</ele>
        <time>2025-04-23T15:32:10Z</time>
      </trkpt>
      <trkpt lat="46.458909977227449" lon="5.075300959870219">
        <ele>206.34</ele>
        <time>2025-04-23T15:32:19Z</time>
      </trkpt>
      <trkpt lat="46.458877036347985" lon="5.0751309748739">
        <ele>206.34</ele>
        <time>2025-04-23T15:32:20Z</time>
      </trkpt>
      <trkpt lat="46.458559026941657" lon="5.073256026953459">
        <ele>206.34</ele>
        <time>2025-04-23T15:32:30Z</time>
      </trkpt>
      <trkpt lat="46.458176979795098" lon="5.071128029376268">
        <ele>206.34</ele>
        <time>2025-04-23T15:32:41Z</time>
      </trkpt>
      <trkpt lat="46.457876991480589" lon="5.069381995126605">
        <ele>206.34</ele>
        <time>2025-04-23T15:32:50Z</time>
      </trkpt>
      <trkpt lat="46.45774899981916" lon="5.068634999915958">
        <ele>207.30000000000001</ele>
        <time>2025-04-23T15:32:55Z</time>
      </trkpt>
      <trkpt lat="46.457731984555721" lon="5.068541038781405">
        <ele>207.30000000000001</ele>
        <time>2025-04-23T15:32:56Z</time>
      </trkpt>
      <trkpt lat="46.457774983718991" lon="5.068355966359377">
        <ele>207.78</ele>
        <time>2025-04-23T15:32:57Z</time>
      </trkpt>
      <trkpt lat="46.457827035337687" lon="5.068331994116306">
        <ele>207.78</ele>
        <time>2025-04-23T15:32:58Z</time>
      </trkpt>
      <trkpt lat="46.457887971773744" lon="5.068302992731333">
        <ele>208.25999999999999</ele>
        <time>2025-04-23T15:32:59Z</time>
      </trkpt>
      <trkpt lat="46.457951003685594" lon="5.068273991346359">
        <ele>208.25999999999999</ele>
        <time>2025-04-23T15:33:00Z</time>
      </trkpt>
      <trkpt lat="46.458009006455541" lon="5.068248007446528">
        <ele>207.78</ele>
        <time>2025-04-23T15:33:01Z</time>
      </trkpt>
      <trkpt lat="46.458059968426824" lon="5.068224035203457">
        <ele>207.78</ele>
        <time>2025-04-23T15:33:02Z</time>
      </trkpt>
      <trkpt lat="46.458101961761713" lon="5.068204002454877">
        <ele>208.25999999999999</ele>
        <time>2025-04-23T15:33:03Z</time>
      </trkpt>
      <trkpt lat="46.458178991451859" lon="5.068167960271239">
        <ele>208.25999999999999</ele>
        <time>2025-04-23T15:33:05Z</time>
      </trkpt>
      <trkpt lat="46.458216961473227" lon="5.068151028826833">
        <ele>208.74000000000001</ele>
        <time>2025-04-23T15:33:06Z</time>
      </trkpt>
      <trkpt lat="46.458316035568714" lon="5.068149017170072">
        <ele>209.22</ele>
        <time>2025-04-23T15:33:07Z</time>
      </trkpt>
      <trkpt lat="46.45832902751863" lon="5.068206014111638">
        <ele>209.69999999999999</ele>
        <time>2025-04-23T15:33:08Z</time>
      </trkpt>
      <trkpt lat="46.458345958963037" lon="5.068277008831501">
        <ele>209.69999999999999</ele>
        <time>2025-04-23T15:33:09Z</time>
      </trkpt>
      <trkpt lat="46.458363980054855" lon="5.068354038521648">
        <ele>210.19</ele>
        <time>2025-04-23T15:33:10Z</time>
      </trkpt>
      <trkpt lat="46.458379989489913" lon="5.068423021584749">
        <ele>210.66999999999999</ele>
        <time>2025-04-23T15:33:11Z</time>
      </trkpt>
      <trkpt lat="46.458393987268209" lon="5.068482030183077">
        <ele>210.66999999999999</ele>
        <time>2025-04-23T15:33:12Z</time>
      </trkpt>
      <trkpt lat="46.458405973389745" lon="5.068535003811121">
        <ele>211.15000000000001</ele>
        <time>2025-04-23T15:33:13Z</time>
      </trkpt>
      <trkpt lat="46.458416031673551" lon="5.068578002974391">
        <ele>211.15000000000001</ele>
        <time>2025-04-23T15:33:14Z</time>
      </trkpt>
      <trkpt lat="46.458330033347011" lon="5.068657966330648">
        <ele>211.15000000000001</ele>
        <time>2025-04-23T15:33:15Z</time>
      </trkpt>
      <trkpt lat="46.458201035857201" lon="5.0688970182091">
        <ele>211.15000000000001</ele>
        <time>2025-04-23T15:33:23Z</time>
      </trkpt>
      <trkpt lat="46.458210004493594" lon="5.068969018757343">
        <ele>211.15000000000001</ele>
        <time>2025-04-23T15:33:38Z</time>
      </trkpt>
      <trkpt lat="46.458203969523311" lon="5.068977987393737">
        <ele>211.15000000000001</ele>
        <time>2025-04-23T15:34:20Z</time>
      </trkpt>
      <trkpt lat="46.458173962309957" lon="5.068956026807427">
        <ele>208.74000000000001</ele>
        <time>2025-04-23T15:40:58Z</time>
      </trkpt>
      <trkpt lat="46.458204975351691" lon="5.06896298378706">
        <ele>219.80000000000001</ele>
        <time>2025-04-23T15:41:14Z</time>
      </trkpt>
      <trkpt lat="46.458332967013121" lon="5.069045964628458">
        <ele>219.31999999999999</ele>
        <time>2025-04-23T15:41:53Z</time>
      </trkpt>
      <trkpt lat="46.458379989489913" lon="5.06902601569891">
        <ele>228.44999999999999</ele>
        <time>2025-04-23T15:42:39Z</time>
      </trkpt>
      <trkpt lat="46.458379989489913" lon="5.069029033184052">
        <ele>228.44999999999999</ele>
        <time>2025-04-23T15:43:22Z</time>
      </trkpt>
      <trkpt lat="46.458379989489913" lon="5.069029033184052">
        <ele>228.44999999999999</ele>
        <time>2025-04-23T15:43:52Z</time>
      </trkpt>
      <trkpt lat="46.458328021690249" lon="5.069117965176702">
        <ele>227.97</ele>
        <time>2025-04-23T15:43:58Z</time>
      </trkpt>
      <trkpt lat="46.458520973101258" lon="5.069031966850162">
        <ele>221.24000000000001</ele>
        <time>2025-04-23T15:44:06Z</time>
      </trkpt>
      <trkpt lat="46.458520973101258" lon="5.069028027355671">
        <ele>220.28</ele>
        <time>2025-04-23T15:44:07Z</time>
      </trkpt>
      <trkpt lat="46.458506975322962" lon="5.068968012928963">
        <ele>218.84</ele>
        <time>2025-04-23T15:44:08Z</time>
      </trkpt>
      <trkpt lat="46.458491971716285" lon="5.068904981017113">
        <ele>217.88</ele>
        <time>2025-04-23T15:44:09Z</time>
      </trkpt>
      <trkpt lat="46.458476968109608" lon="5.068842032924295">
        <ele>216.91</ele>
        <time>2025-04-23T15:44:10Z</time>
      </trkpt>
      <trkpt lat="46.458462970331311" lon="5.068779001012445">
        <ele>216.43000000000001</ele>
        <time>2025-04-23T15:44:11Z</time>
      </trkpt>
      <trkpt lat="46.458369009196758" lon="5.068377004936338">
        <ele>214.99000000000001</ele>
        <time>2025-04-23T15:44:17Z</time>
      </trkpt>
      <trkpt lat="46.458359034731984" lon="5.068330988287926">
        <ele>214.99000000000001</ele>
        <time>2025-04-23T15:44:18Z</time>
      </trkpt>
      <trkpt lat="46.458306983113289" lon="5.068109035491943">
        <ele>214.50999999999999</ele>
        <time>2025-04-23T15:44:19Z</time>
      </trkpt>
      <trkpt lat="46.458306983113289" lon="5.068109035491943">
        <ele>214.03</ele>
        <time>2025-04-23T15:44:20Z</time>
      </trkpt>
      <trkpt lat="46.458303965628147" lon="5.068110963329673">
        <ele>213.55000000000001</ele>
        <time>2025-04-23T15:44:21Z</time>
      </trkpt>
      <trkpt lat="46.458330033347011" lon="5.068208025768399">
        <ele>213.55000000000001</ele>
        <time>2025-04-23T15:44:22Z</time>
      </trkpt>
      <trkpt lat="46.458247974514961" lon="5.068136025220156">
        <ele>213.06999999999999</ele>
        <time>2025-04-23T15:44:23Z</time>
      </trkpt>
      <trkpt lat="46.458211010321975" lon="5.068153040483594">
        <ele>212.59</ele>
        <time>2025-04-23T15:44:24Z</time>
      </trkpt>
      <trkpt lat="46.458162982016802" lon="5.068176006898284">
        <ele>212.59</ele>
        <time>2025-04-23T15:44:25Z</time>
      </trkpt>
      <trkpt lat="46.458102967590094" lon="5.068204002454877">
        <ele>212.11000000000001</ele>
        <time>2025-04-23T15:44:26Z</time>
      </trkpt>
      <trkpt lat="46.457789987325668" lon="5.068349009379745">
        <ele>213.55000000000001</ele>
        <time>2025-04-23T15:44:31Z</time>
      </trkpt>
      <trkpt lat="46.457752017304301" lon="5.068366024643183">
        <ele>213.55000000000001</ele>
        <time>2025-04-23T15:44:32Z</time>
      </trkpt>
      <trkpt lat="46.457680016756058" lon="5.068239960819483">
        <ele>214.03</ele>
        <time>2025-04-23T15:44:33Z</time>
      </trkpt>
      <trkpt lat="46.457666018977761" lon="5.068162009119988">
        <ele>214.50999999999999</ele>
        <time>2025-04-23T15:44:34Z</time>
      </trkpt>
      <trkpt lat="46.457626037299633" lon="5.067938966676593">
        <ele>214.50999999999999</ele>
        <time>2025-04-23T15:44:36Z</time>
      </trkpt>
      <trkpt lat="46.45759996958077" lon="5.067794965580106">
        <ele>214.99000000000001</ele>
        <time>2025-04-23T15:44:37Z</time>
      </trkpt>
      <trkpt lat="46.457286989316344" lon="5.066082961857319">
        <ele>214.99000000000001</ele>
        <time>2025-04-23T15:44:46Z</time>
      </trkpt>
      <trkpt lat="46.456903014332056" lon="5.063856979832053">
        <ele>213.55000000000001</ele>
        <time>2025-04-23T15:44:55Z</time>
      </trkpt>
      <trkpt lat="46.456191977486014" lon="5.059801982715726">
        <ele>210.66999999999999</ele>
        <time>2025-04-23T15:45:09Z</time>
      </trkpt>
      <trkpt lat="46.455565011128783" lon="5.056254006922245">
        <ele>210.66999999999999</ele>
        <time>2025-04-23T15:45:21Z</time>
      </trkpt>
      <trkpt lat="46.45474299788475" lon="5.051519991829991">
        <ele>210.66999999999999</ele>
        <time>2025-04-23T15:45:37Z</time>
      </trkpt>
      <trkpt lat="46.454025004059076" lon="5.047540012747049">
        <ele>210.19</ele>
        <time>2025-04-23T15:45:50Z</time>
      </trkpt>
      <trkpt lat="46.453292006626725" lon="5.043302038684487">
        <ele>208.74000000000001</ele>
        <time>2025-04-23T15:46:04Z</time>
      </trkpt>
      <trkpt lat="46.452580969780684" lon="5.039265984669328">
        <ele>206.81999999999999</ele>
        <time>2025-04-23T15:46:18Z</time>
      </trkpt>
      <trkpt lat="46.452003959566355" lon="5.03600399941206">
        <ele>206.81999999999999</ele>
        <time>2025-04-23T15:46:29Z</time>
      </trkpt>
      <trkpt lat="46.451535997912288" lon="5.033307038247585">
        <ele>213.06999999999999</ele>
        <time>2025-04-23T15:46:38Z</time>
      </trkpt>
      <trkpt lat="46.450842982158065" lon="5.029332004487515">
        <ele>213.06999999999999</ele>
        <time>2025-04-23T15:46:51Z</time>
      </trkpt>
      <trkpt lat="46.450206963345408" lon="5.025787968188524">
        <ele>214.03</ele>
        <time>2025-04-23T15:47:03Z</time>
      </trkpt>
      <trkpt lat="46.449492992833257" lon="5.021646972745657">
        <ele>215.94999999999999</ele>
        <time>2025-04-23T15:47:18Z</time>
      </trkpt>
      <trkpt lat="46.448767958208919" lon="5.017539002001286">
        <ele>214.99000000000001</ele>
        <time>2025-04-23T15:47:32Z</time>
      </trkpt>
      <trkpt lat="46.448117019608617" lon="5.013836966827512">
        <ele>214.99000000000001</ele>
        <time>2025-04-23T15:47:44Z</time>
      </trkpt>
      <trkpt lat="46.44737396389246" lon="5.009652972221375">
        <ele>213.06999999999999</ele>
        <time>2025-04-23T15:47:58Z</time>
      </trkpt>
      <trkpt lat="46.446773987263441" lon="5.006166016682982">
        <ele>213.06999999999999</ele>
        <time>2025-04-23T15:48:10Z</time>
      </trkpt>
      <trkpt lat="46.446092035621405" lon="5.00231402926147">
        <ele>214.99000000000001</ele>
        <time>2025-04-23T15:48:23Z</time>
      </trkpt>
      <trkpt lat="46.445314027369022" lon="4.997816970571876">
        <ele>214.50999999999999</ele>
        <time>2025-04-23T15:48:38Z</time>
      </trkpt>
      <trkpt lat="46.444583963602781" lon="4.99367798678577">
        <ele>213.06999999999999</ele>
        <time>2025-04-23T15:48:53Z</time>
      </trkpt>
      <trkpt lat="46.443903017789125" lon="4.989858018234372">
        <ele>208.74000000000001</ele>
        <time>2025-04-23T15:49:05Z</time>
      </trkpt>
      <trkpt lat="46.443485012277961" lon="4.987444030120969">
        <ele>207.30000000000001</ele>
        <time>2025-04-23T15:49:14Z</time>
      </trkpt>
      <trkpt lat="46.44296801649034" lon="4.984479015693069">
        <ele>207.78</ele>
        <time>2025-04-23T15:49:25Z</time>
      </trkpt>
      <trkpt lat="46.442472981289029" lon="4.981763027608395">
        <ele>211.63</ele>
        <time>2025-04-23T15:49:35Z</time>
      </trkpt>
      <trkpt lat="46.441848026588559" lon="4.978259978815913">
        <ele>214.50999999999999</ele>
        <time>2025-04-23T15:49:48Z</time>
      </trkpt>
      <trkpt lat="46.441395990550518" lon="4.975693020969629">
        <ele>215.94999999999999</ele>
        <time>2025-04-23T15:49:58Z</time>
      </trkpt>
      <trkpt lat="46.441048979759216" lon="4.973778007552028">
        <ele>214.99000000000001</ele>
        <time>2025-04-23T15:50:08Z</time>
      </trkpt>
      <trkpt lat="46.440644972026348" lon="4.971501985564828">
        <ele>213.06999999999999</ele>
        <time>2025-04-23T15:50:18Z</time>
      </trkpt>
      <trkpt lat="46.440280023962259" lon="4.96942101046443">
        <ele>212.11000000000001</ele>
        <time>2025-04-23T15:50:27Z</time>
      </trkpt>
      <trkpt lat="46.440069973468781" lon="4.968234971165657">
        <ele>212.11000000000001</ele>
        <time>2025-04-23T15:50:35Z</time>
      </trkpt>
      <trkpt lat="46.439822036772966" lon="4.96690702624619">
        <ele>213.06999999999999</ele>
        <time>2025-04-23T15:50:46Z</time>
      </trkpt>
      <trkpt lat="46.439549038186669" lon="4.965390991419554">
        <ele>210.19</ele>
        <time>2025-04-23T15:50:56Z</time>
      </trkpt>
      <trkpt lat="46.439277967438102" lon="4.963895995169878">
        <ele>210.19</ele>
        <time>2025-04-23T15:51:04Z</time>
      </trkpt>
      <trkpt lat="46.438873959705234" lon="4.961598012596369">
        <ele>211.63</ele>
        <time>2025-04-23T15:51:15Z</time>
      </trkpt>
      <trkpt lat="46.438484033569694" lon="4.959320984780788">
        <ele>207.30000000000001</ele>
        <time>2025-04-23T15:51:24Z</time>
      </trkpt>
      <trkpt lat="46.438031997531652" lon="4.956741034984589">
        <ele>204.90000000000001</ele>
        <time>2025-04-23T15:51:34Z</time>
      </trkpt>
      <trkpt lat="46.437525982037187" lon="4.953885991126299">
        <ele>205.38</ele>
        <time>2025-04-23T15:51:46Z</time>
      </trkpt>
      <trkpt lat="46.437439983710647" lon="4.953301018103957">
        <ele>204.90000000000001</ele>
        <time>2025-04-23T15:51:51Z</time>
      </trkpt>
      <trkpt lat="46.437493041157722" lon="4.953138995915651">
        <ele>204.41999999999999</ele>
        <time>2025-04-23T15:51:52Z</time>
      </trkpt>
      <trkpt lat="46.437495974823833" lon="4.953111000359058">
        <ele>204.41999999999999</ele>
        <time>2025-04-23T15:51:53Z</time>
      </trkpt>
      <trkpt lat="46.437504021450877" lon="4.953034976497293">
        <ele>203.94</ele>
        <time>2025-04-23T15:51:54Z</time>
      </trkpt>
      <trkpt lat="46.437472002580762" lon="4.952916037291288">
        <ele>203.46000000000001</ele>
        <time>2025-04-23T15:51:55Z</time>
      </trkpt>
      <trkpt lat="46.437423974275589" lon="4.952881000936031">
        <ele>203.46000000000001</ele>
        <time>2025-04-23T15:51:56Z</time>
      </trkpt>
      <trkpt lat="46.437357002869248" lon="4.952799025923014">
        <ele>203.46000000000001</ele>
        <time>2025-04-23T15:51:57Z</time>
      </trkpt>
      <trkpt lat="46.437334036454558" lon="4.9526840262115">
        <ele>203.46000000000001</ele>
        <time>2025-04-23T15:51:58Z</time>
      </trkpt>
      <trkpt lat="46.437308974564075" lon="4.952552011236548">
        <ele>203.46000000000001</ele>
        <time>2025-04-23T15:51:59Z</time>
      </trkpt>
      <trkpt lat="46.437280979007483" lon="4.952408010140061">
        <ele>203.94</ele>
        <time>2025-04-23T15:52:00Z</time>
      </trkpt>
      <trkpt lat="46.437251977622509" lon="4.952258979901671">
        <ele>203.94</ele>
        <time>2025-04-23T15:52:01Z</time>
      </trkpt>
      <trkpt lat="46.436928017064929" lon="4.950368022546172">
        <ele>202.00999999999999</ele>
        <time>2025-04-23T15:52:12Z</time>
      </trkpt>
      <trkpt lat="46.436555022373796" lon="4.948241030797362">
        <ele>197.69</ele>
        <time>2025-04-23T15:52:23Z</time>
      </trkpt>
      <trkpt lat="46.436262996867299" lon="4.946614019572735">
        <ele>192.40000000000001</ele>
        <time>2025-04-23T15:52:32Z</time>
      </trkpt>
      <trkpt lat="46.435926966369152" lon="4.944657012820244">
        <ele>185.66999999999999</ele>
        <time>2025-04-23T15:52:44Z</time>
      </trkpt>
      <trkpt lat="46.435562018305063" lon="4.942487021908164">
        <ele>183.27000000000001</ele>
        <time>2025-04-23T15:52:57Z</time>
      </trkpt>
      <trkpt lat="46.4352320227772" lon="4.940659012645483">
        <ele>178.94</ele>
        <time>2025-04-23T15:53:08Z</time>
      </trkpt>
      <trkpt lat="46.435142001137137" lon="4.940076973289251">
        <ele>176.06</ele>
        <time>2025-04-23T15:53:14Z</time>
      </trkpt>
      <trkpt lat="46.435134038329124" lon="4.940023999661207">
        <ele>175.09999999999999</ele>
        <time>2025-04-23T15:53:15Z</time>
      </trkpt>
      <trkpt lat="46.435129009187222" lon="4.939987035468221">
        <ele>174.62</ele>
        <time>2025-04-23T15:53:16Z</time>
      </trkpt>
      <trkpt lat="46.435122974216938" lon="4.939944036304951">
        <ele>174.13999999999999</ele>
        <time>2025-04-23T15:53:17Z</time>
      </trkpt>
      <trkpt lat="46.435218024998903" lon="4.939834987744689">
        <ele>173.66</ele>
        <time>2025-04-23T15:53:18Z</time>
      </trkpt>
      <trkpt lat="46.435220958665013" lon="4.939807998016477">
        <ele>173.16999999999999</ele>
        <time>2025-04-23T15:53:19Z</time>
      </trkpt>
      <trkpt lat="46.435229005292058" lon="4.939743038266897">
        <ele>173.16999999999999</ele>
        <time>2025-04-23T15:53:20Z</time>
      </trkpt>
      <trkpt lat="46.435177959501743" lon="4.939606999978423">
        <ele>173.16999999999999</ele>
        <time>2025-04-23T15:53:21Z</time>
      </trkpt>
      <trkpt lat="46.435124985873699" lon="4.93957799859345">
        <ele>173.16999999999999</ele>
        <time>2025-04-23T15:53:22Z</time>
      </trkpt>
      <trkpt lat="46.435047034174204" lon="4.93953499943018">
        <ele>173.16999999999999</ele>
        <time>2025-04-23T15:53:23Z</time>
      </trkpt>
      <trkpt lat="46.435000011697412" lon="4.939499963074923">
        <ele>173.16999999999999</ele>
        <time>2025-04-23T15:53:24Z</time>
      </trkpt>
      <trkpt lat="46.434196019545197" lon="4.938938040286303">
        <ele>173.66</ele>
        <time>2025-04-23T15:53:36Z</time>
      </trkpt>
      <trkpt lat="46.433413987979293" lon="4.938346026465297">
        <ele>170.77000000000001</ele>
        <time>2025-04-23T15:53:48Z</time>
      </trkpt>
      <trkpt lat="46.433324972167611" lon="4.93824795819819">
        <ele>170.77000000000001</ele>
        <time>2025-04-23T15:53:50Z</time>
      </trkpt>
      <trkpt lat="46.433285996317863" lon="4.93820495903492">
        <ele>170.77000000000001</ele>
        <time>2025-04-23T15:53:51Z</time>
      </trkpt>
      <trkpt lat="46.433265963569283" lon="4.938122984021902">
        <ele>170.77000000000001</ele>
        <time>2025-04-23T15:53:52Z</time>
      </trkpt>
      <trkpt lat="46.433265963569283" lon="4.938067998737097">
        <ele>170.77000000000001</ele>
        <time>2025-04-23T15:53:53Z</time>
      </trkpt>
      <trkpt lat="46.433265963569283" lon="4.938003960996866">
        <ele>170.28999999999999</ele>
        <time>2025-04-23T15:53:54Z</time>
      </trkpt>
      <trkpt lat="46.433265963569283" lon="4.937917040660977">
        <ele>170.28999999999999</ele>
        <time>2025-04-23T15:53:55Z</time>
      </trkpt>
      <trkpt lat="46.433276021853089" lon="4.937799023464322">
        <ele>169.81</ele>
        <time>2025-04-23T15:53:56Z</time>
      </trkpt>
      <trkpt lat="46.433508032932878" lon="4.937316980212927">
        <ele>168.37</ele>
        <time>2025-04-23T15:54:01Z</time>
      </trkpt>
      <trkpt lat="46.433553965762258" lon="4.937212960794568">
        <ele>167.88999999999999</ele>
        <time>2025-04-23T15:54:02Z</time>
      </trkpt>
      <trkpt lat="46.433602999895811" lon="4.937102990224958">
        <ele>167.88999999999999</ele>
        <time>2025-04-23T15:54:03Z</time>
      </trkpt>
      <trkpt lat="46.433914974331856" lon="4.936323976144195">
        <ele>165.47999999999999</ele>
        <time>2025-04-23T15:54:10Z</time>
      </trkpt>
      <trkpt lat="46.433964008465409" lon="4.936201013624668">
        <ele>164.52000000000001</ele>
        <time>2025-04-23T15:54:11Z</time>
      </trkpt>
      <trkpt lat="46.433974988758564" lon="4.935886021703482">
        <ele>162.12</ele>
        <time>2025-04-23T15:54:13Z</time>
      </trkpt>
      <trkpt lat="46.43448201008141" lon="4.934978010132909">
        <ele>156.83000000000001</ele>
        <time>2025-04-23T15:54:19Z</time>
      </trkpt>
      <trkpt lat="46.435159016400576" lon="4.933573035523295">
        <ele>154.91</ele>
        <time>2025-04-23T15:54:29Z</time>
      </trkpt>
      <trkpt lat="46.435816995799541" lon="4.932748004794121">
        <ele>158.75</ele>
        <time>2025-04-23T15:54:39Z</time>
      </trkpt>
      <trkpt lat="46.436762977391481" lon="4.931954992935062">
        <ele>162.59999999999999</ele>
        <time>2025-04-23T15:54:48Z</time>
      </trkpt>
      <trkpt lat="46.437842985615134" lon="4.93115502409637">
        <ele>164.03999999999999</ele>
        <time>2025-04-23T15:54:54Z</time>
      </trkpt>
      <trkpt lat="46.439574016258121" lon="4.929849039763212">
        <ele>164.52000000000001</ele>
        <time>2025-04-23T15:55:03Z</time>
      </trkpt>
      <trkpt lat="46.441087033599615" lon="4.928564010187984">
        <ele>166.44999999999999</ele>
        <time>2025-04-23T15:55:12Z</time>
      </trkpt>
      <trkpt lat="46.441505961120129" lon="4.928057994693518">
        <ele>166.44999999999999</ele>
        <time>2025-04-23T15:55:15Z</time>
      </trkpt>
      <trkpt lat="46.442694012075663" lon="4.926120014861226">
        <ele>166.93000000000001</ele>
        <time>2025-04-23T15:55:25Z</time>
      </trkpt>
      <trkpt lat="46.443427009508014" lon="4.924320001155138">
        <ele>167.41</ele>
        <time>2025-04-23T15:55:33Z</time>
      </trkpt>
      <trkpt lat="46.443792963400483" lon="4.922511018812656">
        <ele>165.47999999999999</ele>
        <time>2025-04-23T15:55:39Z</time>
      </trkpt>
      <trkpt lat="46.444159001111984" lon="4.920088984072208">
        <ele>164.03999999999999</ele>
        <time>2025-04-23T15:55:46Z</time>
      </trkpt>
      <trkpt lat="46.444572983309627" lon="4.917343994602561">
        <ele>168.37</ele>
        <time>2025-04-23T15:55:55Z</time>
      </trkpt>
      <trkpt lat="46.445002974942327" lon="4.914493979886174">
        <ele>168.37</ele>
        <time>2025-04-23T15:56:05Z</time>
      </trkpt>
      <trkpt lat="46.445595994591713" lon="4.910540990531445">
        <ele>168.37</ele>
        <time>2025-04-23T15:56:19Z</time>
      </trkpt>
      <trkpt lat="46.445925990119576" lon="4.908337974920869">
        <ele>169.33000000000001</ele>
        <time>2025-04-23T15:56:27Z</time>
      </trkpt>
      <trkpt lat="46.446295967325568" lon="4.905870007351041">
        <ele>169.81</ele>
        <time>2025-04-23T15:56:36Z</time>
      </trkpt>
      <trkpt lat="46.446737023070455" lon="4.902929970994592">
        <ele>169.33000000000001</ele>
        <time>2025-04-23T15:56:47Z</time>
      </trkpt>
      <trkpt lat="46.447077998891473" lon="4.900655960664153">
        <ele>165.47999999999999</ele>
        <time>2025-04-23T15:56:56Z</time>
      </trkpt>
      <trkpt lat="46.447238009423018" lon="4.899542005732656">
        <ele>163.08000000000001</ele>
        <time>2025-04-23T15:57:02Z</time>
      </trkpt>
      <trkpt lat="46.447291988879442" lon="4.899226007983089">
        <ele>162.12</ele>
        <time>2025-04-23T15:57:05Z</time>
      </trkpt>
      <trkpt lat="46.447382010519505" lon="4.898549001663923">
        <ele>161.16</ele>
        <time>2025-04-23T15:57:15Z</time>
      </trkpt>
      <trkpt lat="46.447455016896129" lon="4.89811297506094">
        <ele>161.63999999999999</ele>
        <time>2025-04-23T15:57:24Z</time>
      </trkpt>
      <trkpt lat="46.447476977482438" lon="4.897966040298343">
        <ele>162.59999999999999</ele>
        <time>2025-04-23T15:57:51Z</time>
      </trkpt>
      <trkpt lat="46.447634976357222" lon="4.896950991824269">
        <ele>166.44999999999999</ele>
        <time>2025-04-23T15:58:02Z</time>
      </trkpt>
      <trkpt lat="46.447831029072404" lon="4.895673003047705">
        <ele>169.81</ele>
        <time>2025-04-23T15:58:10Z</time>
      </trkpt>
      <trkpt lat="46.44808198325336" lon="4.894041968509555">
        <ele>170.28999999999999</ele>
        <time>2025-04-23T15:58:19Z</time>
      </trkpt>
      <trkpt lat="46.448424970731139" lon="4.891792014241219">
        <ele>168.37</ele>
        <time>2025-04-23T15:58:29Z</time>
      </trkpt>
      <trkpt lat="46.448827972635627" lon="4.889210974797607">
        <ele>165</ele>
        <time>2025-04-23T15:58:40Z</time>
      </trkpt>
      <trkpt lat="46.449065012857318" lon="4.887683959677815">
        <ele>165.96000000000001</ele>
        <time>2025-04-23T15:58:48Z</time>
      </trkpt>
      <trkpt lat="46.449187975376844" lon="4.886869993060827">
        <ele>166.93000000000001</ele>
        <time>2025-04-23T15:58:54Z</time>
      </trkpt>
      <trkpt lat="46.449338011443615" lon="4.88670595921576">
        <ele>166.93000000000001</ele>
        <time>2025-04-23T15:58:55Z</time>
      </trkpt>
      <trkpt lat="46.449426021426916" lon="4.886618033051491">
        <ele>167.41</ele>
        <time>2025-04-23T15:58:57Z</time>
      </trkpt>
      <trkpt lat="46.44945896230638" lon="4.886504039168358">
        <ele>167.41</ele>
        <time>2025-04-23T15:58:58Z</time>
      </trkpt>
      <trkpt lat="46.449476983398199" lon="4.886391973122954">
        <ele>167.88999999999999</ele>
        <time>2025-04-23T15:58:59Z</time>
      </trkpt>
      <trkpt lat="46.44945896230638" lon="4.886271022260189">
        <ele>168.37</ele>
        <time>2025-04-23T15:59:00Z</time>
      </trkpt>
      <trkpt lat="46.449410011991858" lon="4.88618602976203">
        <ele>168.84999999999999</ele>
        <time>2025-04-23T15:59:01Z</time>
      </trkpt>
      <trkpt lat="46.449338011443615" lon="4.886061977595091">
        <ele>169.33000000000001</ele>
        <time>2025-04-23T15:59:02Z</time>
      </trkpt>
      <trkpt lat="46.449267016723752" lon="4.886047979816794">
        <ele>169.33000000000001</ele>
        <time>2025-04-23T15:59:03Z</time>
      </trkpt>
      <trkpt lat="46.449170960113406" lon="4.886063989251852">
        <ele>169.81</ele>
        <time>2025-04-23T15:59:04Z</time>
      </trkpt>
      <trkpt lat="46.449075993150473" lon="4.886087961494923">
        <ele>170.28999999999999</ele>
        <time>2025-04-23T15:59:05Z</time>
      </trkpt>
      <trkpt lat="46.448970967903733" lon="4.886099025607109">
        <ele>170.77000000000001</ele>
        <time>2025-04-23T15:59:06Z</time>
      </trkpt>
      <trkpt lat="46.448859991505742" lon="4.886082010343671">
        <ele>171.25</ele>
        <time>2025-04-23T15:59:07Z</time>
      </trkpt>
      <trkpt lat="46.448736023157835" lon="4.886023001745343">
        <ele>171.72999999999999</ele>
        <time>2025-04-23T15:59:08Z</time>
      </trkpt>
      <trkpt lat="46.447208002209663" lon="4.885320011526346">
        <ele>174.13999999999999</ele>
        <time>2025-04-23T15:59:18Z</time>
      </trkpt>
      <trkpt lat="46.445008004084229" lon="4.884302029386163">
        <ele>175.58000000000001</ele>
        <time>2025-04-23T15:59:31Z</time>
      </trkpt>
      <trkpt lat="46.444033021107316" lon="4.883820991963148">
        <ele>175.58000000000001</ele>
        <time>2025-04-23T15:59:38Z</time>
      </trkpt>
      <trkpt lat="46.443844009190798" lon="4.883701968938112">
        <ele>175.58000000000001</ele>
        <time>2025-04-23T15:59:40Z</time>
      </trkpt>
      <trkpt lat="46.44378500059247" lon="4.883632985875011">
        <ele>175.09999999999999</ele>
        <time>2025-04-23T15:59:41Z</time>
      </trkpt>
      <trkpt lat="46.443704031407833" lon="4.883556040003896">
        <ele>175.09999999999999</ele>
        <time>2025-04-23T15:59:42Z</time>
      </trkpt>
      <trkpt lat="46.44361300393939" lon="4.883585963398218">
        <ele>175.58000000000001</ele>
        <time>2025-04-23T15:59:43Z</time>
      </trkpt>
      <trkpt lat="46.44350697286427" lon="4.883579006418586">
        <ele>175.58000000000001</ele>
        <time>2025-04-23T15:59:44Z</time>
      </trkpt>
      <trkpt lat="46.443392978981137" lon="4.883556040003896">
        <ele>176.06</ele>
        <time>2025-04-23T15:59:45Z</time>
      </trkpt>
      <trkpt lat="46.443275967612863" lon="4.883496025577188">
        <ele>176.06</ele>
        <time>2025-04-23T15:59:46Z</time>
      </trkpt>
      <trkpt lat="46.443148981779814" lon="4.883423019200563">
        <ele>176.53999999999999</ele>
        <time>2025-04-23T15:59:47Z</time>
      </trkpt>
      <trkpt lat="46.442062016576529" lon="4.882952962070704">
        <ele>177.5</ele>
        <time>2025-04-23T15:59:53Z</time>
      </trkpt>
      <trkpt lat="46.439741989597678" lon="4.881821991875768">
        <ele>177.5</ele>
        <time>2025-04-23T16:00:03Z</time>
      </trkpt>
      <trkpt lat="46.438145991414785" lon="4.881069967523217">
        <ele>178.94</ele>
        <time>2025-04-23T16:00:09Z</time>
      </trkpt>
      <trkpt lat="46.435056002810597" lon="4.879600033164024">
        <ele>178.94</ele>
        <time>2025-04-23T16:00:23Z</time>
      </trkpt>
      <trkpt lat="46.432382008060813" lon="4.878350039944053">
        <ele>179.41999999999999</ele>
        <time>2025-04-23T16:00:36Z</time>
      </trkpt>
      <trkpt lat="46.431267969310284" lon="4.877832038328052">
        <ele>179.90000000000001</ele>
        <time>2025-04-23T16:00:43Z</time>
      </trkpt>
      <trkpt lat="46.431162022054195" lon="4.877778980880976">
        <ele>179.90000000000001</ele>
        <time>2025-04-23T16:00:44Z</time>
      </trkpt>
      <trkpt lat="46.431144000962377" lon="4.877510005608201">
        <ele>179.90000000000001</ele>
        <time>2025-04-23T16:00:45Z</time>
      </trkpt>
      <trkpt lat="46.431034030392766" lon="4.877349995076656">
        <ele>179.41999999999999</ele>
        <time>2025-04-23T16:00:46Z</time>
      </trkpt>
      <trkpt lat="46.43102103844285" lon="4.877276988700032">
        <ele>179.41999999999999</ele>
        <time>2025-04-23T16:00:47Z</time>
      </trkpt>
      <trkpt lat="46.430991031229496" lon="4.877113960683346">
        <ele>179.41999999999999</ele>
        <time>2025-04-23T16:00:48Z</time>
      </trkpt>
      <trkpt lat="46.430596997961402" lon="4.875373039394617">
        <ele>181.83000000000001</ele>
        <time>2025-04-23T16:00:56Z</time>
      </trkpt>
      <trkpt lat="46.430201958864927" lon="4.873610995709896">
        <ele>188.56</ele>
        <time>2025-04-23T16:01:04Z</time>
      </trkpt>
      <trkpt lat="46.430175974965096" lon="4.873080002143979">
        <ele>189.03999999999999</ele>
        <time>2025-04-23T16:01:07Z</time>
      </trkpt>
      <trkpt lat="46.430175974965096" lon="4.872920997440815">
        <ele>189.03999999999999</ele>
        <time>2025-04-23T16:01:08Z</time>
      </trkpt>
      <trkpt lat="46.430175974965096" lon="4.872765010222793">
        <ele>188.56</ele>
        <time>2025-04-23T16:01:09Z</time>
      </trkpt>
      <trkpt lat="46.430211011320353" lon="4.872597036883235">
        <ele>188.08000000000001</ele>
        <time>2025-04-23T16:01:10Z</time>
      </trkpt>
      <trkpt lat="46.430273959413171" lon="4.872433003038168">
        <ele>187.11000000000001</ele>
        <time>2025-04-23T16:01:11Z</time>
      </trkpt>
      <trkpt lat="46.430354006588459" lon="4.872273998335004">
        <ele>186.63</ele>
        <time>2025-04-23T16:01:12Z</time>
      </trkpt>
      <trkpt lat="46.430462971329689" lon="4.872127985581756">
        <ele>185.66999999999999</ele>
        <time>2025-04-23T16:01:13Z</time>
      </trkpt>
      <trkpt lat="46.430590962991118" lon="4.871991025283933">
        <ele>184.71000000000001</ele>
        <time>2025-04-23T16:01:14Z</time>
      </trkpt>
      <trkpt lat="46.430736975744367" lon="4.871906032785773">
        <ele>184.22999999999999</ele>
        <time>2025-04-23T16:01:15Z</time>
      </trkpt>
      <trkpt lat="46.430887011811137" lon="4.871819028630853">
        <ele>183.27000000000001</ele>
        <time>2025-04-23T16:01:16Z</time>
      </trkpt>
      <trkpt lat="46.431047022342682" lon="4.871743004769087">
        <ele>182.78999999999999</ele>
        <time>2025-04-23T16:01:17Z</time>
      </trkpt>
      <trkpt lat="46.432837983593345" lon="4.871104974299669">
        <ele>180.38</ele>
        <time>2025-04-23T16:01:28Z</time>
      </trkpt>
      <trkpt lat="46.433547008782625" lon="4.870789982378483">
        <ele>181.34999999999999</ele>
        <time>2025-04-23T16:01:33Z</time>
      </trkpt>
      <trkpt lat="46.433685980737209" lon="4.870708007365465">
        <ele>181.83000000000001</ele>
        <time>2025-04-23T16:01:34Z</time>
      </trkpt>
      <trkpt lat="46.433807015419006" lon="4.870578004047275">
        <ele>181.83000000000001</ele>
        <time>2025-04-23T16:01:35Z</time>
      </trkpt>
      <trkpt lat="46.433909023180604" lon="4.870412964373827">
        <ele>182.78999999999999</ele>
        <time>2025-04-23T16:01:36Z</time>
      </trkpt>
      <trkpt lat="46.433992004022002" lon="4.870222024619579">
        <ele>183.27000000000001</ele>
        <time>2025-04-23T16:01:37Z</time>
      </trkpt>
      <trkpt lat="46.43456700257957" lon="4.868854014202952">
        <ele>185.66999999999999</ele>
        <time>2025-04-23T16:01:44Z</time>
      </trkpt>
      <trkpt lat="46.435421034693718" lon="4.867272013798356">
        <ele>185.66999999999999</ele>
        <time>2025-04-23T16:01:52Z</time>
      </trkpt>
      <trkpt lat="46.435701996088028" lon="4.866768009960651">
        <ele>186.15000000000001</ele>
        <time>2025-04-23T16:01:55Z</time>
      </trkpt>
      <trkpt lat="46.435754969716072" lon="4.866580003872514">
        <ele>186.63</ele>
        <time>2025-04-23T16:01:56Z</time>
      </trkpt>
      <trkpt lat="46.435798974707723" lon="4.866381017491221">
        <ele>187.11000000000001</ele>
        <time>2025-04-23T16:01:57Z</time>
      </trkpt>
      <trkpt lat="46.435808027163148" lon="4.86616401001811">
        <ele>188.08000000000001</ele>
        <time>2025-04-23T16:01:58Z</time>
      </trkpt>
      <trkpt lat="46.435818001627922" lon="4.865947002544999">
        <ele>189.03999999999999</ele>
        <time>2025-04-23T16:01:59Z</time>
      </trkpt>
      <trkpt lat="46.435826970264316" lon="4.865729995071888">
        <ele>189.52000000000001</ele>
        <time>2025-04-23T16:02:00Z</time>
      </trkpt>
      <trkpt lat="46.435858989134431" lon="4.865294974297285">
        <ele>190.47999999999999</ele>
        <time>2025-04-23T16:02:02Z</time>
      </trkpt>
      <trkpt lat="46.435888996347785" lon="4.865084001794457">
        <ele>190.47999999999999</ele>
        <time>2025-04-23T16:02:03Z</time>
      </trkpt>
      <trkpt lat="46.435938030481339" lon="4.864879986271262">
        <ele>190.96000000000001</ele>
        <time>2025-04-23T16:02:04Z</time>
      </trkpt>
      <trkpt lat="46.436384031549096" lon="4.863653965294361">
        <ele>192.40000000000001</ele>
        <time>2025-04-23T16:02:11Z</time>
      </trkpt>
      <trkpt lat="46.43686599098146" lon="4.86240497790277">
        <ele>193.36000000000001</ele>
        <time>2025-04-23T16:02:18Z</time>
      </trkpt>
      <trkpt lat="46.436974033713341" lon="4.862272040918469">
        <ele>193.36000000000001</ele>
        <time>2025-04-23T16:02:19Z</time>
      </trkpt>
      <trkpt lat="46.43708098679781" lon="4.86214597709477">
        <ele>193.84</ele>
        <time>2025-04-23T16:02:20Z</time>
      </trkpt>
      <trkpt lat="46.437197998166084" lon="4.862029971554875">
        <ele>193.84</ele>
        <time>2025-04-23T16:02:21Z</time>
      </trkpt>
      <trkpt lat="46.437324983999133" lon="4.861912038177252">
        <ele>193.84</ele>
        <time>2025-04-23T16:02:22Z</time>
      </trkpt>
      <trkpt lat="46.437464961782098" lon="4.861781029030681">
        <ele>194.31999999999999</ele>
        <time>2025-04-23T16:02:23Z</time>
      </trkpt>
      <trkpt lat="46.438354030251503" lon="4.861024981364608">
        <ele>195.28</ele>
        <time>2025-04-23T16:02:28Z</time>
      </trkpt>
      <trkpt lat="46.439475025981665" lon="4.86029801890254">
        <ele>196.72999999999999</ele>
        <time>2025-04-23T16:02:34Z</time>
      </trkpt>
      <trkpt lat="46.439668983221054" lon="4.860226018354297">
        <ele>197.21000000000001</ele>
        <time>2025-04-23T16:02:35Z</time>
      </trkpt>
      <trkpt lat="46.439868975430727" lon="4.860189976170659">
        <ele>197.69</ele>
        <time>2025-04-23T16:02:36Z</time>
      </trkpt>
      <trkpt lat="46.440817974507809" lon="4.860056033357978">
        <ele>199.13</ele>
        <time>2025-04-23T16:02:41Z</time>
      </trkpt>
      <trkpt lat="46.440961975604296" lon="4.859984032809734">
        <ele>199.13</ele>
        <time>2025-04-23T16:02:42Z</time>
      </trkpt>
      <trkpt lat="46.441079992800951" lon="4.859856963157654">
        <ele>198.65000000000001</ele>
        <time>2025-04-23T16:02:43Z</time>
      </trkpt>
      <trkpt lat="46.441201027482748" lon="4.859704999253154">
        <ele>198.65000000000001</ele>
        <time>2025-04-23T16:02:44Z</time>
      </trkpt>
      <trkpt lat="46.441315021365881" lon="4.859560998156667">
        <ele>198.65000000000001</ele>
        <time>2025-04-23T16:02:45Z</time>
      </trkpt>
      <trkpt lat="46.44142298027873" lon="4.859424037858844">
        <ele>198.65000000000001</ele>
        <time>2025-04-23T16:02:46Z</time>
      </trkpt>
      <trkpt lat="46.441538985818624" lon="4.859301997348666">
        <ele>198.65000000000001</ele>
        <time>2025-04-23T16:02:47Z</time>
      </trkpt>
      <trkpt lat="46.441681981086731" lon="4.859217004850507">
        <ele>198.16999999999999</ele>
        <time>2025-04-23T16:02:48Z</time>
      </trkpt>
      <trkpt lat="46.441844003275037" lon="4.859163025394082">
        <ele>198.65000000000001</ele>
        <time>2025-04-23T16:02:49Z</time>
      </trkpt>
      <trkpt lat="46.4420220348984" lon="4.859108040109277">
        <ele>198.65000000000001</ele>
        <time>2025-04-23T16:02:50Z</time>
      </trkpt>
      <trkpt lat="46.442214986309409" lon="4.859081972390413">
        <ele>198.65000000000001</ele>
        <time>2025-04-23T16:02:51Z</time>
      </trkpt>
      <trkpt lat="46.443125009536743" lon="4.858956998214126">
        <ele>199.13</ele>
        <time>2025-04-23T16:02:56Z</time>
      </trkpt>
      <trkpt lat="46.443274961784482" lon="4.858887009322643">
        <ele>199.61000000000001</ele>
        <time>2025-04-23T16:02:57Z</time>
      </trkpt>
      <trkpt lat="46.443409994244576" lon="4.85881601460278">
        <ele>200.09</ele>
        <time>2025-04-23T16:02:58Z</time>
      </trkpt>
      <trkpt lat="46.443509990349412" lon="4.858716018497944">
        <ele>200.09</ele>
        <time>2025-04-23T16:02:59Z</time>
      </trkpt>
      <trkpt lat="46.443599006161094" lon="4.858627002686262">
        <ele>200.56999999999999</ele>
        <time>2025-04-23T16:03:00Z</time>
      </trkpt>
      <trkpt lat="46.443686010316014" lon="4.858528012409806">
        <ele>200.56999999999999</ele>
        <time>2025-04-23T16:03:01Z</time>
      </trkpt>
      <trkpt lat="46.443760022521019" lon="4.858393985778093">
        <ele>201.05000000000001</ele>
        <time>2025-04-23T16:03:02Z</time>
      </trkpt>
      <trkpt lat="46.443836968392134" lon="4.858255013823509">
        <ele>201.05000000000001</ele>
        <time>2025-04-23T16:03:03Z</time>
      </trkpt>
      <trkpt lat="46.4446019846946" lon="4.857008038088679">
        <ele>195.77000000000001</ele>
        <time>2025-04-23T16:03:11Z</time>
      </trkpt>
      <trkpt lat="46.444702986627817" lon="4.856858002021909">
        <ele>195.28</ele>
        <time>2025-04-23T16:03:12Z</time>
      </trkpt>
      <trkpt lat="46.444780016317964" lon="4.856682987883687">
        <ele>194.31999999999999</ele>
        <time>2025-04-23T16:03:13Z</time>
      </trkpt>
      <trkpt lat="46.444934997707605" lon="4.856334971264005">
        <ele>192.88</ele>
        <time>2025-04-23T16:03:15Z</time>
      </trkpt>
      <trkpt lat="46.445001969113946" lon="4.85615199431777">
        <ele>192.40000000000001</ele>
        <time>2025-04-23T16:03:16Z</time>
      </trkpt>
      <trkpt lat="46.445062989369035" lon="4.855971029028297">
        <ele>191.91999999999999</ele>
        <time>2025-04-23T16:03:17Z</time>
      </trkpt>
      <trkpt lat="46.445118980482221" lon="4.855800960212946">
        <ele>191.44</ele>
        <time>2025-04-23T16:03:18Z</time>
      </trkpt>
      <trkpt lat="46.445173965767026" lon="4.855637010186911">
        <ele>191.44</ele>
        <time>2025-04-23T16:03:19Z</time>
      </trkpt>
      <trkpt lat="46.445401031523943" lon="4.85490401275456">
        <ele>189.52000000000001</ele>
        <time>2025-04-23T16:03:24Z</time>
      </trkpt>
      <trkpt lat="46.445451993495226" lon="4.854802004992962">
        <ele>189.03999999999999</ele>
        <time>2025-04-23T16:03:25Z</time>
      </trkpt>
      <trkpt lat="46.445516031235456" lon="4.854725981131196">
        <ele>189.52000000000001</ele>
        <time>2025-04-23T16:03:26Z</time>
      </trkpt>
      <trkpt lat="46.4455880317837" lon="4.854675019159913">
        <ele>189.52000000000001</ele>
        <time>2025-04-23T16:03:27Z</time>
      </trkpt>
      <trkpt lat="46.445682998746634" lon="4.854651968926191">
        <ele>189.52000000000001</ele>
        <time>2025-04-23T16:03:28Z</time>
      </trkpt>
      <trkpt lat="46.445784000679851" lon="4.854659009724855">
        <ele>190</ele>
        <time>2025-04-23T16:03:29Z</time>
      </trkpt>
      <trkpt lat="46.445893971249461" lon="4.854665966704488">
        <ele>190</ele>
        <time>2025-04-23T16:03:30Z</time>
      </trkpt>
      <trkpt lat="46.446009976789355" lon="4.854677030816674">
        <ele>190.47999999999999</ele>
        <time>2025-04-23T16:03:31Z</time>
      </trkpt>
      <trkpt lat="46.446475004777312" lon="4.854805022478104">
        <ele>191.44</ele>
        <time>2025-04-23T16:03:35Z</time>
      </trkpt>
      <trkpt lat="46.446573995053768" lon="4.85488498583436">
        <ele>192.40000000000001</ele>
        <time>2025-04-23T16:03:36Z</time>
      </trkpt>
      <trkpt lat="46.446670973673463" lon="4.854964027181268">
        <ele>192.88</ele>
        <time>2025-04-23T16:03:37Z</time>
      </trkpt>
      <trkpt lat="46.446783961728215" lon="4.85505597665906">
        <ele>192.88</ele>
        <time>2025-04-23T16:03:38Z</time>
      </trkpt>
      <trkpt lat="46.44685797393322" lon="4.855150021612644">
        <ele>192.88</ele>
        <time>2025-04-23T16:03:39Z</time>
      </trkpt>
      <trkpt lat="46.446942966431379" lon="4.855257980525494">
        <ele>192.40000000000001</ele>
        <time>2025-04-23T16:03:40Z</time>
      </trkpt>
      <trkpt lat="46.447018990293145" lon="4.85535403713584">
        <ele>191.91999999999999</ele>
        <time>2025-04-23T16:03:41Z</time>
      </trkpt>
      <trkpt lat="46.447081016376615" lon="4.855434000492096">
        <ele>191.44</ele>
        <time>2025-04-23T16:03:42Z</time>
      </trkpt>
      <trkpt lat="46.447138013318181" lon="4.85550600104034">
        <ele>190.96000000000001</ele>
        <time>2025-04-23T16:03:43Z</time>
      </trkpt>
      <trkpt lat="46.447184029966593" lon="4.855565009638667">
        <ele>190.96000000000001</ele>
        <time>2025-04-23T16:03:44Z</time>
      </trkpt>
      <trkpt lat="46.447214959189296" lon="4.855603985488415">
        <ele>190.47999999999999</ele>
        <time>2025-04-23T16:03:45Z</time>
      </trkpt>
      <trkpt lat="46.447256030514836" lon="4.855656959116459">
        <ele>190.47999999999999</ele>
        <time>2025-04-23T16:03:46Z</time>
      </trkpt>
      <trkpt lat="46.447256030514836" lon="4.855656959116459">
        <ele>190</ele>
        <time>2025-04-23T16:03:47Z</time>
      </trkpt>
      <trkpt lat="46.447256030514836" lon="4.855656959116459">
        <ele>190</ele>
        <time>2025-04-23T16:03:48Z</time>
      </trkpt>
      <trkpt lat="46.447256030514836" lon="4.855656959116459">
        <ele>190</ele>
        <time>2025-04-23T16:03:49Z</time>
      </trkpt>
      <trkpt lat="46.44735099747777" lon="4.855553023517132">
        <ele>190</ele>
        <time>2025-04-23T16:03:50Z</time>
      </trkpt>
      <trkpt lat="46.447368012741208" lon="4.855458978563547">
        <ele>190</ele>
        <time>2025-04-23T16:03:51Z</time>
      </trkpt>
      <trkpt lat="46.447387039661407" lon="4.855353031307459">
        <ele>189.52000000000001</ele>
        <time>2025-04-23T16:03:52Z</time>
      </trkpt>
      <trkpt lat="46.447590971365571" lon="4.854223988950253">
        <ele>192.88</ele>
        <time>2025-04-23T16:03:59Z</time>
      </trkpt>
      <trkpt lat="46.447872016578913" lon="4.852506034076214">
        <ele>200.09</ele>
        <time>2025-04-23T16:04:09Z</time>
      </trkpt>
      <trkpt lat="46.448015011847019" lon="4.851932041347027">
        <ele>202.97999999999999</ele>
        <time>2025-04-23T16:04:13Z</time>
      </trkpt>
      <trkpt lat="46.448064967989922" lon="4.851787034422159">
        <ele>203.46000000000001</ele>
        <time>2025-04-23T16:04:14Z</time>
      </trkpt>
      <trkpt lat="46.4482750184834" lon="4.851350001990795">
        <ele>204.90000000000001</ele>
        <time>2025-04-23T16:04:17Z</time>
      </trkpt>
      <trkpt lat="46.44851197488606" lon="4.850917998701334">
        <ele>205.38</ele>
        <time>2025-04-23T16:04:20Z</time>
      </trkpt>
      <trkpt lat="46.448589004576206" lon="4.850776009261608">
        <ele>204.90000000000001</ele>
        <time>2025-04-23T16:04:21Z</time>
      </trkpt>
      <trkpt lat="46.448854962363839" lon="4.850172009319067">
        <ele>203.46000000000001</ele>
        <time>2025-04-23T16:04:25Z</time>
      </trkpt>
      <trkpt lat="46.448892010375857" lon="4.850011998787522">
        <ele>202.97999999999999</ele>
        <time>2025-04-23T16:04:26Z</time>
      </trkpt>
      <trkpt lat="46.448924029245973" lon="4.849848970770836">
        <ele>202.97999999999999</ele>
        <time>2025-04-23T16:04:27Z</time>
      </trkpt>
      <trkpt lat="46.448953030630946" lon="4.849687032401562">
        <ele>202.49000000000001</ele>
        <time>2025-04-23T16:04:28Z</time>
      </trkpt>
      <trkpt lat="46.44896199926734" lon="4.849515035748482">
        <ele>202.00999999999999</ele>
        <time>2025-04-23T16:04:29Z</time>
      </trkpt>
      <trkpt lat="46.448970967903733" lon="4.849345972761512">
        <ele>202.00999999999999</ele>
        <time>2025-04-23T16:04:30Z</time>
      </trkpt>
      <trkpt lat="46.448937021195889" lon="4.849180011078715">
        <ele>201.53</ele>
        <time>2025-04-23T16:04:31Z</time>
      </trkpt>
      <trkpt lat="46.448886981233954" lon="4.849004996940494">
        <ele>201.53</ele>
        <time>2025-04-23T16:04:32Z</time>
      </trkpt>
      <trkpt lat="46.448826966807246" lon="4.848883962258697">
        <ele>201.53</ele>
        <time>2025-04-23T16:04:33Z</time>
      </trkpt>
      <trkpt lat="46.448758989572525" lon="4.848748007789254">
        <ele>201.53</ele>
        <time>2025-04-23T16:04:34Z</time>
      </trkpt>
      <trkpt lat="46.448411978781223" lon="4.848054992035031">
        <ele>202.00999999999999</ele>
        <time>2025-04-23T16:04:39Z</time>
      </trkpt>
      <trkpt lat="46.448333021253347" lon="4.847916020080447">
        <ele>202.00999999999999</ele>
        <time>2025-04-23T16:04:40Z</time>
      </trkpt>
      <trkpt lat="46.448236964643002" lon="4.847823986783624">
        <ele>202.00999999999999</ele>
        <time>2025-04-23T16:04:41Z</time>
      </trkpt>
      <trkpt lat="46.448141997680068" lon="4.847733965143561">
        <ele>202.49000000000001</ele>
        <time>2025-04-23T16:04:42Z</time>
      </trkpt>
      <trkpt lat="46.448043007403612" lon="4.847640004009008">
        <ele>202.49000000000001</ele>
        <time>2025-04-23T16:04:43Z</time>
      </trkpt>
      <trkpt lat="46.447454011067748" lon="4.847066011279821">
        <ele>206.34</ele>
        <time>2025-04-23T16:04:49Z</time>
      </trkpt>
      <trkpt lat="46.447362983599305" lon="4.846943970769644">
        <ele>206.81999999999999</ele>
        <time>2025-04-23T16:04:50Z</time>
      </trkpt>
      <trkpt lat="46.44730900414288" lon="4.846792006865144">
        <ele>207.30000000000001</ele>
        <time>2025-04-23T16:04:51Z</time>
      </trkpt>
      <trkpt lat="46.447256030514836" lon="4.846643982455134">
        <ele>207.78</ele>
        <time>2025-04-23T16:04:52Z</time>
      </trkpt>
      <trkpt lat="46.447247983887792" lon="4.846454970538616">
        <ele>208.25999999999999</ele>
        <time>2025-04-23T16:04:53Z</time>
      </trkpt>
      <trkpt lat="46.447241026908159" lon="4.846283979713917">
        <ele>208.25999999999999</ele>
        <time>2025-04-23T16:04:54Z</time>
      </trkpt>
      <trkpt lat="46.447243960574269" lon="4.846101002767682">
        <ele>208.74000000000001</ele>
        <time>2025-04-23T16:04:55Z</time>
      </trkpt>
      <trkpt lat="46.447291988879442" lon="4.84594602137804">
        <ele>208.74000000000001</ele>
        <time>2025-04-23T16:04:56Z</time>
      </trkpt>
      <trkpt lat="46.447340017184615" lon="4.845789028331637">
        <ele>209.22</ele>
        <time>2025-04-23T16:04:57Z</time>
      </trkpt>
      <trkpt lat="46.447980981320143" lon="4.843708975240588">
        <ele>214.99000000000001</ele>
        <time>2025-04-23T16:05:10Z</time>
      </trkpt>
      <trkpt lat="46.448029009625316" lon="4.843554999679327">
        <ele>214.50999999999999</ele>
        <time>2025-04-23T16:05:11Z</time>
      </trkpt>
      <trkpt lat="46.448029009625316" lon="4.843391971662641">
        <ele>214.50999999999999</ele>
        <time>2025-04-23T16:05:12Z</time>
      </trkpt>
      <trkpt lat="46.448029009625316" lon="4.843233972787857">
        <ele>214.03</ele>
        <time>2025-04-23T16:05:13Z</time>
      </trkpt>
      <trkpt lat="46.447990033775568" lon="4.843108998611569">
        <ele>213.55000000000001</ele>
        <time>2025-04-23T16:05:14Z</time>
      </trkpt>
      <trkpt lat="46.447934964671731" lon="4.842992993071675">
        <ele>213.55000000000001</ele>
        <time>2025-04-23T16:05:15Z</time>
      </trkpt>
      <trkpt lat="46.447861958295107" lon="4.842875981703401">
        <ele>213.06999999999999</ele>
        <time>2025-04-23T16:05:16Z</time>
      </trkpt>
      <trkpt lat="46.447784006595612" lon="4.842751007527113">
        <ele>213.55000000000001</ele>
        <time>2025-04-23T16:05:17Z</time>
      </trkpt>
      <trkpt lat="46.447702031582594" lon="4.842621004208922">
        <ele>213.55000000000001</ele>
        <time>2025-04-23T16:05:18Z</time>
      </trkpt>
      <trkpt lat="46.447626007720828" lon="4.842463005334139">
        <ele>214.03</ele>
        <time>2025-04-23T16:05:19Z</time>
      </trkpt>
      <trkpt lat="46.447582002729177" lon="4.84229201450944">
        <ele>214.50999999999999</ele>
        <time>2025-04-23T16:05:20Z</time>
      </trkpt>
      <trkpt lat="46.447205990552902" lon="4.840844962745905">
        <ele>219.80000000000001</ele>
        <time>2025-04-23T16:05:29Z</time>
      </trkpt>
      <trkpt lat="46.446641972288489" lon="4.838758036494255">
        <ele>229.41</ele>
        <time>2025-04-23T16:05:42Z</time>
      </trkpt>
      <trkpt lat="46.445839991793036" lon="4.837272008880973">
        <ele>235.66</ele>
        <time>2025-04-23T16:05:53Z</time>
      </trkpt>
      <trkpt lat="46.445145970210433" lon="4.836588967591524">
        <ele>238.53999999999999</ele>
        <time>2025-04-23T16:06:00Z</time>
      </trkpt>
      <trkpt lat="46.443921038880944" lon="4.835981028154492">
        <ele>245.27000000000001</ele>
        <time>2025-04-23T16:06:11Z</time>
      </trkpt>
      <trkpt lat="46.442773975431919" lon="4.835474006831646">
        <ele>248.16</ele>
        <time>2025-04-23T16:06:22Z</time>
      </trkpt>
      <trkpt lat="46.442004013806581" lon="4.835058012977243">
        <ele>249.12</ele>
        <time>2025-04-23T16:06:31Z</time>
      </trkpt>
      <trkpt lat="46.441911980509758" lon="4.834991041570902">
        <ele>249.12</ele>
        <time>2025-04-23T16:06:32Z</time>
      </trkpt>
      <trkpt lat="46.441821958869696" lon="4.834918035194278">
        <ele>249.12</ele>
        <time>2025-04-23T16:06:33Z</time>
      </trkpt>
      <trkpt lat="46.441692039370537" lon="4.834679989144206">
        <ele>249.12</ele>
        <time>2025-04-23T16:06:35Z</time>
      </trkpt>
      <trkpt lat="46.441441001370549" lon="4.834219990298152">
        <ele>249.59999999999999</ele>
        <time>2025-04-23T16:06:39Z</time>
      </trkpt>
      <trkpt lat="46.441332036629319" lon="4.83413097448647">
        <ele>249.59999999999999</ele>
        <time>2025-04-23T16:06:40Z</time>
      </trkpt>
      <trkpt lat="46.441233968362212" lon="4.834050005301833">
        <ele>249.59999999999999</ele>
        <time>2025-04-23T16:06:41Z</time>
      </trkpt>
      <trkpt lat="46.441134978085756" lon="4.833969036117196">
        <ele>249.59999999999999</ele>
        <time>2025-04-23T16:06:42Z</time>
      </trkpt>
      <trkpt lat="46.441030036658049" lon="4.833909021690488">
        <ele>250.08000000000001</ele>
        <time>2025-04-23T16:06:43Z</time>
      </trkpt>
      <trkpt lat="46.440904978662729" lon="4.833877002820373">
        <ele>250.08000000000001</ele>
        <time>2025-04-23T16:06:44Z</time>
      </trkpt>
      <trkpt lat="46.440801965072751" lon="4.833861999213696">
        <ele>250.56</ele>
        <time>2025-04-23T16:06:45Z</time>
      </trkpt>
      <trkpt lat="46.440685959532857" lon="4.833879014477134">
        <ele>251.03999999999999</ele>
        <time>2025-04-23T16:06:46Z</time>
      </trkpt>
      <trkpt lat="46.440572971478105" lon="4.833918996155262">
        <ele>251.03999999999999</ele>
        <time>2025-04-23T16:06:47Z</time>
      </trkpt>
      <trkpt lat="46.44045696593821" lon="4.83395897783339">
        <ele>251.03999999999999</ele>
        <time>2025-04-23T16:06:48Z</time>
      </trkpt>
      <trkpt lat="46.440342972055078" lon="4.833998959511519">
        <ele>251.03999999999999</ele>
        <time>2025-04-23T16:06:49Z</time>
      </trkpt>
      <trkpt lat="46.439652973785996" lon="4.834177996963263">
        <ele>252.47999999999999</ele>
        <time>2025-04-23T16:06:55Z</time>
      </trkpt>
      <trkpt lat="46.439537974074483" lon="4.834137009456754">
        <ele>252.47999999999999</ele>
        <time>2025-04-23T16:06:56Z</time>
      </trkpt>
      <trkpt lat="46.439436972141266" lon="4.834067020565271">
        <ele>252.96000000000001</ele>
        <time>2025-04-23T16:06:57Z</time>
      </trkpt>
      <trkpt lat="46.43933798186481" lon="4.833941040560603">
        <ele>253.44</ele>
        <time>2025-04-23T16:06:58Z</time>
      </trkpt>
      <trkpt lat="46.439276961609721" lon="4.833774995058775">
        <ele>253.93000000000001</ele>
        <time>2025-04-23T16:06:59Z</time>
      </trkpt>
      <trkpt lat="46.439236979931593" lon="4.833602998405695">
        <ele>254.41</ele>
        <time>2025-04-23T16:07:00Z</time>
      </trkpt>
      <trkpt lat="46.439231028780341" lon="4.83339998871088">
        <ele>255.37</ele>
        <time>2025-04-23T16:07:01Z</time>
      </trkpt>
      <trkpt lat="46.439231028780341" lon="4.83320795930922">
        <ele>256.32999999999998</ele>
        <time>2025-04-23T16:07:02Z</time>
      </trkpt>
      <trkpt lat="46.439217031002045" lon="4.832799006253481">
        <ele>257.76999999999998</ele>
        <time>2025-04-23T16:07:04Z</time>
      </trkpt>
      <trkpt lat="46.43918601796031" lon="4.832590967416763">
        <ele>258.73000000000002</ele>
        <time>2025-04-23T16:07:05Z</time>
      </trkpt>
      <trkpt lat="46.439146958291531" lon="4.832382006570697">
        <ele>259.20999999999998</ele>
        <time>2025-04-23T16:07:06Z</time>
      </trkpt>
      <trkpt lat="46.438657036051154" lon="4.830378983169794">
        <ele>267.38</ele>
        <time>2025-04-23T16:07:15Z</time>
      </trkpt>
      <trkpt lat="46.438547987490892" lon="4.830164993181825">
        <ele>268.35000000000002</ele>
        <time>2025-04-23T16:07:16Z</time>
      </trkpt>
      <trkpt lat="46.438407003879547" lon="4.829991990700364">
        <ele>268.82999999999998</ele>
        <time>2025-04-23T16:07:17Z</time>
      </trkpt>
      <trkpt lat="46.43824003636837" lon="4.829839020967484">
        <ele>269.79000000000002</ele>
        <time>2025-04-23T16:07:18Z</time>
      </trkpt>
      <trkpt lat="46.438064016401768" lon="4.829676998779178">
        <ele>270.75</ele>
        <time>2025-04-23T16:07:19Z</time>
      </trkpt>
      <trkpt lat="46.43649903126061" lon="4.828601013869047">
        <ele>278.44</ele>
        <time>2025-04-23T16:07:27Z</time>
      </trkpt>
      <trkpt lat="46.434978973120451" lon="4.827757040038705">
        <ele>288.52999999999997</ele>
        <time>2025-04-23T16:07:35Z</time>
      </trkpt>
      <trkpt lat="46.434851987287402" lon="4.827566016465426">
        <ele>289.97000000000003</ele>
        <time>2025-04-23T16:07:36Z</time>
      </trkpt>
      <trkpt lat="46.434722989797592" lon="4.827359989285469">
        <ele>290.94</ele>
        <time>2025-04-23T16:07:37Z</time>
      </trkpt>
      <trkpt lat="46.434185961261392" lon="4.826457006856799">
        <ele>296.69999999999999</ele>
        <time>2025-04-23T16:07:42Z</time>
      </trkpt>
      <trkpt lat="46.434134999290109" lon="4.826303031295538">
        <ele>297.67000000000002</ele>
        <time>2025-04-23T16:07:43Z</time>
      </trkpt>
      <trkpt lat="46.434151008725166" lon="4.826128017157316">
        <ele>298.63</ele>
        <time>2025-04-23T16:07:44Z</time>
      </trkpt>
      <trkpt lat="46.434210017323494" lon="4.825937999412417">
        <ele>299.58999999999997</ele>
        <time>2025-04-23T16:07:45Z</time>
      </trkpt>
      <trkpt lat="46.434294003993273" lon="4.8258369974792">
        <ele>300.06999999999999</ele>
        <time>2025-04-23T16:07:46Z</time>
      </trkpt>
      <trkpt lat="46.434399029240012" lon="4.825711017474532">
        <ele>300.55000000000001</ele>
        <time>2025-04-23T16:07:47Z</time>
      </trkpt>
      <trkpt lat="46.434531966224313" lon="4.825552012771368">
        <ele>301.50999999999999</ele>
        <time>2025-04-23T16:07:48Z</time>
      </trkpt>
      <trkpt lat="46.434604972600937" lon="4.825372975319624">
        <ele>302.47000000000003</ele>
        <time>2025-04-23T16:07:49Z</time>
      </trkpt>
      <trkpt lat="46.434945026412606" lon="4.824564959853888">
        <ele>306.31999999999999</ele>
        <time>2025-04-23T16:07:53Z</time>
      </trkpt>
      <trkpt lat="46.435038987547159" lon="4.82441701926291">
        <ele>307.27999999999997</ele>
        <time>2025-04-23T16:07:54Z</time>
      </trkpt>
      <trkpt lat="46.435162033885717" lon="4.824293972924352">
        <ele>308.24000000000001</ele>
        <time>2025-04-23T16:07:55Z</time>
      </trkpt>
      <trkpt lat="46.435304023325443" lon="4.824177967384458">
        <ele>309.19999999999999</ele>
        <time>2025-04-23T16:07:56Z</time>
      </trkpt>
      <trkpt lat="46.435465961694717" lon="4.824131028726697">
        <ele>309.68000000000001</ele>
        <time>2025-04-23T16:07:57Z</time>
      </trkpt>
      <trkpt lat="46.435646004974842" lon="4.824077971279621">
        <ele>310.16000000000003</ele>
        <time>2025-04-23T16:07:58Z</time>
      </trkpt>
      <trkpt lat="46.435837028548121" lon="4.824064979329705">
        <ele>310.63999999999999</ele>
        <time>2025-04-23T16:07:59Z</time>
      </trkpt>
      <trkpt lat="46.436186973005533" lon="4.824051987379789">
        <ele>310.63999999999999</ele>
        <time>2025-04-23T16:08:01Z</time>
      </trkpt>
      <trkpt lat="46.436339020729065" lon="4.824123987928033">
        <ele>310.63999999999999</ele>
        <time>2025-04-23T16:08:02Z</time>
      </trkpt>
      <trkpt lat="46.436474975198507" lon="4.824236975982785">
        <ele>310.63999999999999</ele>
        <time>2025-04-23T16:08:03Z</time>
      </trkpt>
      <trkpt lat="46.436614030972123" lon="4.824351975694299">
        <ele>311.12</ele>
        <time>2025-04-23T16:08:04Z</time>
      </trkpt>
      <trkpt lat="46.436747973784804" lon="4.824463035911322">
        <ele>311.12</ele>
        <time>2025-04-23T16:08:05Z</time>
      </trkpt>
      <trkpt lat="46.43686699680984" lon="4.824561020359397">
        <ele>310.63999999999999</ele>
        <time>2025-04-23T16:08:06Z</time>
      </trkpt>
      <trkpt lat="46.436997000128031" lon="4.824535036459565">
        <ele>310.16000000000003</ele>
        <time>2025-04-23T16:08:07Z</time>
      </trkpt>
      <trkpt lat="46.437125997617841" lon="4.824506035074592">
        <ele>309.19999999999999</ele>
        <time>2025-04-23T16:08:08Z</time>
      </trkpt>
      <trkpt lat="46.437210990116" lon="4.824386006221175">
        <ele>307.75999999999999</ele>
        <time>2025-04-23T16:08:09Z</time>
      </trkpt>
      <trkpt lat="46.437285002321005" lon="4.824248962104321">
        <ele>306.80000000000001</ele>
        <time>2025-04-23T16:08:10Z</time>
      </trkpt>
      <trkpt lat="46.437288019806147" lon="4.824067996814847">
        <ele>305.83999999999997</ele>
        <time>2025-04-23T16:08:11Z</time>
      </trkpt>
      <trkpt lat="46.437250971794128" lon="4.823896000161767">
        <ele>304.88</ele>
        <time>2025-04-23T16:08:12Z</time>
      </trkpt>
      <trkpt lat="46.437162039801478" lon="4.823744036257267">
        <ele>303.91000000000003</ele>
        <time>2025-04-23T16:08:13Z</time>
      </trkpt>
      <trkpt lat="46.43705802038312" lon="4.823564998805523">
        <ele>302.94999999999999</ele>
        <time>2025-04-23T16:08:14Z</time>
      </trkpt>
      <trkpt lat="46.436534989625216" lon="4.822710966691375">
        <ele>299.58999999999997</ele>
        <time>2025-04-23T16:08:18Z</time>
      </trkpt>
      <trkpt lat="46.43637397326529" lon="4.822522960603237">
        <ele>298.63</ele>
        <time>2025-04-23T16:08:19Z</time>
      </trkpt>
      <trkpt lat="46.436034003272653" lon="4.8221829906106">
        <ele>296.22000000000003</ele>
        <time>2025-04-23T16:08:21Z</time>
      </trkpt>
      <trkpt lat="46.43590098246932" lon="4.821935975924134">
        <ele>294.77999999999997</ele>
        <time>2025-04-23T16:08:22Z</time>
      </trkpt>
      <trkpt lat="46.43564198166132" lon="4.82145200483501">
        <ele>291.89999999999998</ele>
        <time>2025-04-23T16:08:24Z</time>
      </trkpt>
      <trkpt lat="46.435401001945138" lon="4.820995023474097">
        <ele>289.49000000000001</ele>
        <time>2025-04-23T16:08:26Z</time>
      </trkpt>
      <trkpt lat="46.435310980305076" lon="4.820750020444393">
        <ele>288.05000000000001</ele>
        <time>2025-04-23T16:08:27Z</time>
      </trkpt>
      <trkpt lat="46.435248032212257" lon="4.820479033514857">
        <ele>286.61000000000001</ele>
        <time>2025-04-23T16:08:28Z</time>
      </trkpt>
      <trkpt lat="46.435220036655664" lon="4.820178961381316">
        <ele>285.17000000000002</ele>
        <time>2025-04-23T16:08:29Z</time>
      </trkpt>
      <trkpt lat="46.435191035270691" lon="4.8198620416224">
        <ele>283.25</ele>
        <time>2025-04-23T16:08:30Z</time>
      </trkpt>
      <trkpt lat="46.435161028057337" lon="4.819544032216072">
        <ele>281.80000000000001</ele>
        <time>2025-04-23T16:08:31Z</time>
      </trkpt>
      <trkpt lat="46.434843018651009" lon="4.817144963890314">
        <ele>270.75</ele>
        <time>2025-04-23T16:08:39Z</time>
      </trkpt>
      <trkpt lat="46.43461000174284" lon="4.815484005957842">
        <ele>264.01999999999998</ele>
        <time>2025-04-23T16:08:46Z</time>
      </trkpt>
      <trkpt lat="46.434520985931158" lon="4.813605034723878">
        <ele>257.76999999999998</ele>
        <time>2025-04-23T16:08:54Z</time>
      </trkpt>
      <trkpt lat="46.43480597063899" lon="4.811736959964037">
        <ele>255.37</ele>
        <time>2025-04-23T16:09:02Z</time>
      </trkpt>
      <trkpt lat="46.434875037521124" lon="4.811068000271916">
        <ele>257.29000000000002</ele>
        <time>2025-04-23T16:09:05Z</time>
      </trkpt>
      <trkpt lat="46.43493396230042" lon="4.809920014813542">
        <ele>262.10000000000002</ele>
        <time>2025-04-23T16:09:12Z</time>
      </trkpt>
      <trkpt lat="46.434953995049" lon="4.809752963483334">
        <ele>262.57999999999998</ele>
        <time>2025-04-23T16:09:13Z</time>
      </trkpt>
      <trkpt lat="46.434988025575876" lon="4.809591025114059">
        <ele>263.06</ele>
        <time>2025-04-23T16:09:14Z</time>
      </trkpt>
      <trkpt lat="46.435021972283721" lon="4.809432020410895">
        <ele>263.54000000000002</ele>
        <time>2025-04-23T16:09:15Z</time>
      </trkpt>
      <trkpt lat="46.435095984488726" lon="4.80929397046566">
        <ele>264.01999999999998</ele>
        <time>2025-04-23T16:09:16Z</time>
      </trkpt>
      <trkpt lat="46.435153987258673" lon="4.809157010167837">
        <ele>264.01999999999998</ele>
        <time>2025-04-23T16:09:17Z</time>
      </trkpt>
      <trkpt lat="46.435460010543466" lon="4.808443961665034">
        <ele>263.06</ele>
        <time>2025-04-23T16:09:23Z</time>
      </trkpt>
      <trkpt lat="46.435499992221594" lon="4.808351006358862">
        <ele>262.57999999999998</ele>
        <time>2025-04-23T16:09:24Z</time>
      </trkpt>
      <trkpt lat="46.435624966397882" lon="4.808055963367224">
        <ele>262.10000000000002</ele>
        <time>2025-04-23T16:09:28Z</time>
      </trkpt>
      <trkpt lat="46.435654973611236" lon="4.80798396281898">
        <ele>262.10000000000002</ele>
        <time>2025-04-23T16:09:29Z</time>
      </trkpt>
      <trkpt lat="46.435752036049962" lon="4.807757986709476">
        <ele>261.13999999999999</ele>
        <time>2025-04-23T16:09:34Z</time>
      </trkpt>
      <trkpt lat="46.435755975544453" lon="4.807748012244701">
        <ele>261.62</ele>
        <time>2025-04-23T16:09:35Z</time>
      </trkpt>
      <trkpt lat="46.435740971937776" lon="4.807780031114817">
        <ele>263.54000000000002</ele>
        <time>2025-04-23T16:09:44Z</time>
      </trkpt>
      <trkpt lat="46.435740971937776" lon="4.807780031114817">
        <ele>263.54000000000002</ele>
        <time>2025-04-23T16:09:55Z</time>
      </trkpt>
      <trkpt lat="46.435720017179847" lon="4.807833004742861">
        <ele>264.5</ele>
        <time>2025-04-23T16:09:57Z</time>
      </trkpt>
      <trkpt lat="46.435697972774506" lon="4.807883966714144">
        <ele>264.98000000000002</ele>
        <time>2025-04-23T16:09:58Z</time>
      </trkpt>
      <trkpt lat="46.435524970293045" lon="4.808290991932154">
        <ele>265.94</ele>
        <time>2025-04-23T16:10:03Z</time>
      </trkpt>
      <trkpt lat="46.435500998049974" lon="4.808348994702101">
        <ele>266.42000000000002</ele>
        <time>2025-04-23T16:10:04Z</time>
      </trkpt>
      <trkpt lat="46.435442995280027" lon="4.808391993865371">
        <ele>266.42000000000002</ele>
        <time>2025-04-23T16:10:05Z</time>
      </trkpt>
      <trkpt lat="46.435394966974854" lon="4.808371039107442">
        <ele>266.89999999999998</ele>
        <time>2025-04-23T16:10:06Z</time>
      </trkpt>
      <trkpt lat="46.435336964204907" lon="4.808343965560198">
        <ele>266.89999999999998</ele>
        <time>2025-04-23T16:10:07Z</time>
      </trkpt>
      <trkpt lat="46.435262029990554" lon="4.808311024680734">
        <ele>266.89999999999998</ele>
        <time>2025-04-23T16:10:08Z</time>
      </trkpt>
      <trkpt lat="46.43516999669373" lon="4.808269031345844">
        <ele>266.89999999999998</ele>
        <time>2025-04-23T16:10:09Z</time>
      </trkpt>
      <trkpt lat="46.435064971446991" lon="4.808222008869052">
        <ele>266.89999999999998</ele>
        <time>2025-04-23T16:10:10Z</time>
      </trkpt>
      <trkpt lat="46.434029974043369" lon="4.807642986997962">
        <ele>263.06</ele>
        <time>2025-04-23T16:10:18Z</time>
      </trkpt>
      <trkpt lat="46.432703034952283" lon="4.806506987661123">
        <ele>255.37</ele>
        <time>2025-04-23T16:10:27Z</time>
      </trkpt>
      <trkpt lat="46.432554004713893" lon="4.806439010426402">
        <ele>254.41</ele>
        <time>2025-04-23T16:10:28Z</time>
      </trkpt>
      <trkpt lat="46.432393994182348" lon="4.806389976292849">
        <ele>253.44</ele>
        <time>2025-04-23T16:10:29Z</time>
      </trkpt>
      <trkpt lat="46.43222501501441" lon="4.806354017928243">
        <ele>252.47999999999999</ele>
        <time>2025-04-23T16:10:30Z</time>
      </trkpt>
      <trkpt lat="46.43205301836133" lon="4.806316969916225">
        <ele>251.52000000000001</ele>
        <time>2025-04-23T16:10:31Z</time>
      </trkpt>
      <trkpt lat="46.430486021563411" lon="4.806097028777003">
        <ele>240.94999999999999</ele>
        <time>2025-04-23T16:10:40Z</time>
      </trkpt>
      <trkpt lat="46.430135993286967" lon="4.806132987141609">
        <ele>237.58000000000001</ele>
        <time>2025-04-23T16:10:44Z</time>
      </trkpt>
      <trkpt lat="46.430101040750742" lon="4.806137010455132">
        <ele>236.62</ele>
        <time>2025-04-23T16:10:45Z</time>
      </trkpt>
      <trkpt lat="46.429970031604171" lon="4.806013964116573">
        <ele>235.66</ele>
        <time>2025-04-23T16:10:46Z</time>
      </trkpt>
      <trkpt lat="46.429979000240564" lon="4.805975994095206">
        <ele>235.18000000000001</ele>
        <time>2025-04-23T16:10:47Z</time>
      </trkpt>
      <trkpt lat="46.430082013830543" lon="4.80596300214529">
        <ele>234.22</ele>
        <time>2025-04-23T16:10:48Z</time>
      </trkpt>
      <trkpt lat="46.430127024650574" lon="4.805901981890202">
        <ele>233.74000000000001</ele>
        <time>2025-04-23T16:10:49Z</time>
      </trkpt>
      <trkpt lat="46.430187039077282" lon="4.805822018533945">
        <ele>233.25999999999999</ele>
        <time>2025-04-23T16:10:50Z</time>
      </trkpt>
      <trkpt lat="46.430260967463255" lon="4.80572403408587">
        <ele>232.78</ele>
        <time>2025-04-23T16:10:51Z</time>
      </trkpt>
      <trkpt lat="46.430349983274937" lon="4.805604005232453">
        <ele>232.78</ele>
        <time>2025-04-23T16:10:52Z</time>
      </trkpt>
      <trkpt lat="46.431141989305615" lon="4.804630028083921">
        <ele>233.25999999999999</ele>
        <time>2025-04-23T16:10:58Z</time>
      </trkpt>
      <trkpt lat="46.431292025372386" lon="4.80447999201715">
        <ele>233.25999999999999</ele>
        <time>2025-04-23T16:10:59Z</time>
      </trkpt>
      <trkpt lat="46.431483970955014" lon="4.804399022832513">
        <ele>233.74000000000001</ele>
        <time>2025-04-23T16:11:00Z</time>
      </trkpt>
      <trkpt lat="46.431667031720281" lon="4.804321993142366">
        <ele>233.74000000000001</ele>
        <time>2025-04-23T16:11:01Z</time>
      </trkpt>
      <trkpt lat="46.431866018101573" lon="4.804292991757393">
        <ele>234.69999999999999</ele>
        <time>2025-04-23T16:11:02Z</time>
      </trkpt>
      <trkpt lat="46.432068021968007" lon="4.804274970665574">
        <ele>235.18000000000001</ele>
        <time>2025-04-23T16:11:03Z</time>
      </trkpt>
      <trkpt lat="46.433030012995005" lon="4.804186038672924">
        <ele>239.02000000000001</ele>
        <time>2025-04-23T16:11:08Z</time>
      </trkpt>
      <trkpt lat="46.433188011869788" lon="4.804116971790791">
        <ele>239.50999999999999</ele>
        <time>2025-04-23T16:11:09Z</time>
      </trkpt>
      <trkpt lat="46.433351039886475" lon="4.804009012877941">
        <ele>239.99000000000001</ele>
        <time>2025-04-23T16:11:10Z</time>
      </trkpt>
      <trkpt lat="46.433509960770607" lon="4.803870962932706">
        <ele>240.94999999999999</ele>
        <time>2025-04-23T16:11:11Z</time>
      </trkpt>
      <trkpt lat="46.433672988787293" lon="4.803709024563432">
        <ele>241.43000000000001</ele>
        <time>2025-04-23T16:11:12Z</time>
      </trkpt>
      <trkpt lat="46.434144973754883" lon="4.803249025717378">
        <ele>242.87</ele>
        <time>2025-04-23T16:11:15Z</time>
      </trkpt>
      <trkpt lat="46.434320993721485" lon="4.803180964663625">
        <ele>243.34999999999999</ele>
        <time>2025-04-23T16:11:16Z</time>
      </trkpt>
      <trkpt lat="46.434499025344849" lon="4.803110975772142">
        <ele>243.83000000000001</ele>
        <time>2025-04-23T16:11:17Z</time>
      </trkpt>
      <trkpt lat="46.436279006302357" lon="4.802634967491031">
        <ele>246.22999999999999</ele>
        <time>2025-04-23T16:11:27Z</time>
      </trkpt>
      <trkpt lat="46.436998005956411" lon="4.80245802551508">
        <ele>249.59999999999999</ele>
        <time>2025-04-23T16:11:34Z</time>
      </trkpt>
      <trkpt lat="46.437073023989797" lon="4.80243899859488">
        <ele>251.03999999999999</ele>
        <time>2025-04-23T16:11:37Z</time>
      </trkpt>
      <trkpt lat="46.437076963484287" lon="4.802340008318424">
        <ele>251.52000000000001</ele>
        <time>2025-04-23T16:11:38Z</time>
      </trkpt>
      <trkpt lat="46.437090961262584" lon="4.802232971414924">
        <ele>251.52000000000001</ele>
        <time>2025-04-23T16:11:39Z</time>
      </trkpt>
      <trkpt lat="46.437243008986115" lon="4.801088003441691">
        <ele>249.59999999999999</ele>
        <time>2025-04-23T16:11:46Z</time>
      </trkpt>
      <trkpt lat="46.437558000907302" lon="4.7984420042485">
        <ele>243.34999999999999</ele>
        <time>2025-04-23T16:11:59Z</time>
      </trkpt>
      <trkpt lat="46.43779001198709" lon="4.796748021617532">
        <ele>237.09999999999999</ele>
        <time>2025-04-23T16:12:09Z</time>
      </trkpt>
      <trkpt lat="46.437801998108625" lon="4.796665040776134">
        <ele>236.13999999999999</ele>
        <time>2025-04-23T16:12:10Z</time>
      </trkpt>
      <trkpt lat="46.437808033078909" lon="4.796555992215872">
        <ele>235.66</ele>
        <time>2025-04-23T16:12:11Z</time>
      </trkpt>
      <trkpt lat="46.437611980363727" lon="4.795463997870684">
        <ele>234.69999999999999</ele>
        <time>2025-04-23T16:12:17Z</time>
      </trkpt>
      <trkpt lat="46.437463033944368" lon="4.79464097879827">
        <ele>235.18000000000001</ele>
        <time>2025-04-23T16:12:21Z</time>
      </trkpt>
      <trkpt lat="46.437387010082603" lon="4.794464036822319">
        <ele>235.66</ele>
        <time>2025-04-23T16:12:22Z</time>
      </trkpt>
      <trkpt lat="46.437277961522341" lon="4.794286005198956">
        <ele>236.13999999999999</ele>
        <time>2025-04-23T16:12:23Z</time>
      </trkpt>
      <trkpt lat="46.436247993260622" lon="4.792618006467819">
        <ele>244.31</ele>
        <time>2025-04-23T16:12:31Z</time>
      </trkpt>
      <trkpt lat="46.4352320227772" lon="4.791064001619816">
        <ele>250.08000000000001</ele>
        <time>2025-04-23T16:12:39Z</time>
      </trkpt>
      <trkpt lat="46.434629028663039" lon="4.790496965870261">
        <ele>249.12</ele>
        <time>2025-04-23T16:12:43Z</time>
      </trkpt>
      <trkpt lat="46.434484021738172" lon="4.790417002514005">
        <ele>249.12</ele>
        <time>2025-04-23T16:12:44Z</time>
      </trkpt>
      <trkpt lat="46.434315964579582" lon="4.790394958108664">
        <ele>248.63999999999999</ele>
        <time>2025-04-23T16:12:45Z</time>
      </trkpt>
      <trkpt lat="46.434133993461728" lon="4.790371991693974">
        <ele>248.16</ele>
        <time>2025-04-23T16:12:46Z</time>
      </trkpt>
      <trkpt lat="46.433955039829016" lon="4.790349025279284">
        <ele>248.16</ele>
        <time>2025-04-23T16:12:47Z</time>
      </trkpt>
      <trkpt lat="46.433116011321545" lon="4.790189014747739">
        <ele>248.16</ele>
        <time>2025-04-23T16:12:53Z</time>
      </trkpt>
      <trkpt lat="46.43201001919806" lon="4.789678975939751">
        <ele>250.56</ele>
        <time>2025-04-23T16:13:03Z</time>
      </trkpt>
      <trkpt lat="46.431962996721268" lon="4.789608987048268">
        <ele>251.03999999999999</ele>
        <time>2025-04-23T16:13:04Z</time>
      </trkpt>
      <trkpt lat="46.431935001164675" lon="4.789551990106702">
        <ele>251.03999999999999</ele>
        <time>2025-04-23T16:13:05Z</time>
      </trkpt>
      <trkpt lat="46.431935001164675" lon="4.789431039243937">
        <ele>251.52000000000001</ele>
        <time>2025-04-23T16:13:06Z</time>
      </trkpt>
      <trkpt lat="46.43194698728621" lon="4.789276979863644">
        <ele>252</ele>
        <time>2025-04-23T16:13:07Z</time>
      </trkpt>
      <trkpt lat="46.432090988382697" lon="4.78802396915853">
        <ele>254.41</ele>
        <time>2025-04-23T16:13:14Z</time>
      </trkpt>
      <trkpt lat="46.432119989767671" lon="4.787776032462716">
        <ele>255.37</ele>
        <time>2025-04-23T16:13:16Z</time>
      </trkpt>
      <trkpt lat="46.432113032788038" lon="4.787685004994273">
        <ele>255.84999999999999</ele>
        <time>2025-04-23T16:13:17Z</time>
      </trkpt>
      <trkpt lat="46.432048995047808" lon="4.787619961425662">
        <ele>255.84999999999999</ele>
        <time>2025-04-23T16:13:18Z</time>
      </trkpt>
      <trkpt lat="46.431956961750984" lon="4.787529017776251">
        <ele>255.84999999999999</ele>
        <time>2025-04-23T16:13:19Z</time>
      </trkpt>
      <trkpt lat="46.431880015879869" lon="4.787493981420994">
        <ele>255.37</ele>
        <time>2025-04-23T16:13:20Z</time>
      </trkpt>
      <trkpt lat="46.431766021996737" lon="4.78744201362133">
        <ele>254.88999999999999</ele>
        <time>2025-04-23T16:13:21Z</time>
      </trkpt>
      <trkpt lat="46.430693976581097" lon="4.786848993971944">
        <ele>248.63999999999999</ele>
        <time>2025-04-23T16:13:28Z</time>
      </trkpt>
      <trkpt lat="46.430175974965096" lon="4.786520004272461">
        <ele>246.22999999999999</ele>
        <time>2025-04-23T16:13:32Z</time>
      </trkpt>
      <trkpt lat="46.430015964433551" lon="4.786525033414364">
        <ele>245.75</ele>
        <time>2025-04-23T16:13:33Z</time>
      </trkpt>
      <trkpt lat="46.429871963337064" lon="4.786529978737235">
        <ele>245.27000000000001</ele>
        <time>2025-04-23T16:13:34Z</time>
      </trkpt>
      <trkpt lat="46.429559988901019" lon="4.786540037021041">
        <ele>244.31</ele>
        <time>2025-04-23T16:13:36Z</time>
      </trkpt>
      <trkpt lat="46.429401990026236" lon="4.786515980958939">
        <ele>244.31</ele>
        <time>2025-04-23T16:13:37Z</time>
      </trkpt>
      <trkpt lat="46.42923996783793" lon="4.78645496070385">
        <ele>244.31</ele>
        <time>2025-04-23T16:13:38Z</time>
      </trkpt>
      <trkpt lat="46.429081968963146" lon="4.786365022882819">
        <ele>244.31</ele>
        <time>2025-04-23T16:13:39Z</time>
      </trkpt>
      <trkpt lat="46.428926987573504" lon="4.786278018727899">
        <ele>244.31</ele>
        <time>2025-04-23T16:13:40Z</time>
      </trkpt>
      <trkpt lat="46.428231038153172" lon="4.785849032923579">
        <ele>246.72</ele>
        <time>2025-04-23T16:13:45Z</time>
      </trkpt>
      <trkpt lat="46.42812299542129" lon="4.785749036818743">
        <ele>246.72</ele>
        <time>2025-04-23T16:13:46Z</time>
      </trkpt>
      <trkpt lat="46.42803699709475" lon="4.785639988258481">
        <ele>246.72</ele>
        <time>2025-04-23T16:13:47Z</time>
      </trkpt>
      <trkpt lat="46.427987040951848" lon="4.785491041839123">
        <ele>247.19999999999999</ele>
        <time>2025-04-23T16:13:48Z</time>
      </trkpt>
      <trkpt lat="46.427944041788578" lon="4.785361038520932">
        <ele>247.19999999999999</ele>
        <time>2025-04-23T16:13:49Z</time>
      </trkpt>
      <trkpt lat="46.427953010424972" lon="4.785194993019104">
        <ele>247.68000000000001</ele>
        <time>2025-04-23T16:13:50Z</time>
      </trkpt>
      <trkpt lat="46.427960973232985" lon="4.785030037164688">
        <ele>247.68000000000001</ele>
        <time>2025-04-23T16:13:51Z</time>
      </trkpt>
      <trkpt lat="46.427969019860029" lon="4.784861980006099">
        <ele>248.16</ele>
        <time>2025-04-23T16:13:52Z</time>
      </trkpt>
      <trkpt lat="46.427983017638326" lon="4.784586969763041">
        <ele>249.12</ele>
        <time>2025-04-23T16:13:54Z</time>
      </trkpt>
      <trkpt lat="46.427987040951848" lon="4.784502983093262">
        <ele>249.59999999999999</ele>
        <time>2025-04-23T16:13:55Z</time>
      </trkpt>
      <trkpt lat="46.4279739651829" lon="4.78447699919343">
        <ele>250.08000000000001</ele>
        <time>2025-04-23T16:13:56Z</time>
      </trkpt>
      <trkpt lat="46.427959967404604" lon="4.784447997808456">
        <ele>251.03999999999999</ele>
        <time>2025-04-23T16:13:57Z</time>
      </trkpt>
      <trkpt lat="46.427959967404604" lon="4.784447997808456">
        <ele>252</ele>
        <time>2025-04-23T16:13:58Z</time>
      </trkpt>
      <trkpt lat="46.427959967404604" lon="4.784447997808456">
        <ele>252.47999999999999</ele>
        <time>2025-04-23T16:14:15Z</time>
      </trkpt>
      <trkpt lat="46.427959967404604" lon="4.784447997808456">
        <ele>253.44</ele>
        <time>2025-04-23T16:15:05Z</time>
      </trkpt>
      <trkpt lat="46.427959967404604" lon="4.784447997808456">
        <ele>253.93000000000001</ele>
        <time>2025-04-23T16:15:49Z</time>
      </trkpt>
      <trkpt lat="46.427944041788578" lon="4.784416984766722">
        <ele>253.93000000000001</ele>
        <time>2025-04-23T16:16:10Z</time>
      </trkpt>
      <trkpt lat="46.42792803235352" lon="4.784408016130328">
        <ele>253.44</ele>
        <time>2025-04-23T16:16:11Z</time>
      </trkpt>
      <trkpt lat="46.427637012675405" lon="4.784310031682253">
        <ele>250.56</ele>
        <time>2025-04-23T16:16:17Z</time>
      </trkpt>
      <trkpt lat="46.427578004077077" lon="4.784310031682253">
        <ele>249.59999999999999</ele>
        <time>2025-04-23T16:16:18Z</time>
      </trkpt>
      <trkpt lat="46.427317997440696" lon="4.784300979226828">
        <ele>246.22999999999999</ele>
        <time>2025-04-23T16:16:22Z</time>
      </trkpt>
      <trkpt lat="46.427257983013988" lon="4.784287987276912">
        <ele>245.75</ele>
        <time>2025-04-23T16:16:23Z</time>
      </trkpt>
      <trkpt lat="46.427188999950886" lon="4.784231996163726">
        <ele>244.78999999999999</ele>
        <time>2025-04-23T16:16:24Z</time>
      </trkpt>
      <trkpt lat="46.426974004134536" lon="4.784053964540362">
        <ele>242.87</ele>
        <time>2025-04-23T16:16:27Z</time>
      </trkpt>
      <trkpt lat="46.426896974444389" lon="4.783990010619164">
        <ele>242.87</ele>
        <time>2025-04-23T16:16:28Z</time>
      </trkpt>
      <trkpt lat="46.426043026149273" lon="4.78342498652637">
        <ele>239.99000000000001</ele>
        <time>2025-04-23T16:16:38Z</time>
      </trkpt>
      <trkpt lat="46.425970019772649" lon="4.783387016505003">
        <ele>240.47</ele>
        <time>2025-04-23T16:16:39Z</time>
      </trkpt>
      <trkpt lat="46.42588603310287" lon="4.783399002626538">
        <ele>240.94999999999999</ele>
        <time>2025-04-23T16:16:40Z</time>
      </trkpt>
      <trkpt lat="46.425810009241104" lon="4.78342498652637">
        <ele>240.94999999999999</ele>
        <time>2025-04-23T16:16:41Z</time>
      </trkpt>
      <trkpt lat="46.42575996927917" lon="4.783503022044897">
        <ele>241.43000000000001</ele>
        <time>2025-04-23T16:16:42Z</time>
      </trkpt>
      <trkpt lat="46.425704983994365" lon="4.783589020371437">
        <ele>241.43000000000001</ele>
        <time>2025-04-23T16:16:43Z</time>
      </trkpt>
      <trkpt lat="46.425639018416405" lon="4.783673007041216">
        <ele>240.94999999999999</ele>
        <time>2025-04-23T16:16:44Z</time>
      </trkpt>
      <trkpt lat="46.425554025918245" lon="4.783750958740711">
        <ele>240.94999999999999</ele>
        <time>2025-04-23T16:16:45Z</time>
      </trkpt>
      <trkpt lat="46.425168039277196" lon="4.784105010330677">
        <ele>239.02000000000001</ele>
        <time>2025-04-23T16:16:49Z</time>
      </trkpt>
      <trkpt lat="46.425064019858837" lon="4.784142980352044">
        <ele>238.53999999999999</ele>
        <time>2025-04-23T16:16:50Z</time>
      </trkpt>
      <trkpt lat="46.424953965470195" lon="4.78417600505054">
        <ele>238.06</ele>
        <time>2025-04-23T16:16:51Z</time>
      </trkpt>
      <trkpt lat="46.424838965758681" lon="4.784210035577416">
        <ele>237.58000000000001</ele>
        <time>2025-04-23T16:16:52Z</time>
      </trkpt>
      <trkpt lat="46.424716003239155" lon="4.784224033355713">
        <ele>237.58000000000001</ele>
        <time>2025-04-23T16:16:53Z</time>
      </trkpt>
      <trkpt lat="46.423527030274272" lon="4.784298967570067">
        <ele>236.62</ele>
        <time>2025-04-23T16:17:01Z</time>
      </trkpt>
      <trkpt lat="46.421679994091392" lon="4.784610019996762">
        <ele>233.74000000000001</ele>
        <time>2025-04-23T16:17:11Z</time>
      </trkpt>
      <trkpt lat="46.421562982723117" lon="4.784684032201767">
        <ele>233.25999999999999</ele>
        <time>2025-04-23T16:17:12Z</time>
      </trkpt>
      <trkpt lat="46.421456029638648" lon="4.784752009436488">
        <ele>233.25999999999999</ele>
        <time>2025-04-23T16:17:13Z</time>
      </trkpt>
      <trkpt lat="46.421380005776882" lon="4.784886036068201">
        <ele>233.25999999999999</ele>
        <time>2025-04-23T16:17:14Z</time>
      </trkpt>
      <trkpt lat="46.421303981915116" lon="4.785036994144321">
        <ele>233.74000000000001</ele>
        <time>2025-04-23T16:17:15Z</time>
      </trkpt>
      <trkpt lat="46.421226030215621" lon="4.785193987190723">
        <ele>233.25999999999999</ele>
        <time>2025-04-23T16:17:16Z</time>
      </trkpt>
      <trkpt lat="46.421135002747178" lon="4.785331031307578">
        <ele>233.25999999999999</ele>
        <time>2025-04-23T16:17:17Z</time>
      </trkpt>
      <trkpt lat="46.421038024127483" lon="4.785441001877189">
        <ele>233.25999999999999</ele>
        <time>2025-04-23T16:17:18Z</time>
      </trkpt>
      <trkpt lat="46.420927969738841" lon="4.785475032404065">
        <ele>232.78</ele>
        <time>2025-04-23T16:17:19Z</time>
      </trkpt>
      <trkpt lat="46.420810958370566" lon="4.785484001040459">
        <ele>232.30000000000001</ele>
        <time>2025-04-23T16:17:20Z</time>
      </trkpt>
      <trkpt lat="46.420683972537518" lon="4.785478971898556">
        <ele>231.81</ele>
        <time>2025-04-23T16:17:21Z</time>
      </trkpt>
      <trkpt lat="46.420543994754553" lon="4.785447036847472">
        <ele>231.81</ele>
        <time>2025-04-23T16:17:22Z</time>
      </trkpt>
      <trkpt lat="46.419128961861134" lon="4.785128021612763">
        <ele>227.49000000000001</ele>
        <time>2025-04-23T16:17:30Z</time>
      </trkpt>
      <trkpt lat="46.417879974469543" lon="4.784845970571041">
        <ele>224.12</ele>
        <time>2025-04-23T16:17:38Z</time>
      </trkpt>
      <trkpt lat="46.417448977008462" lon="4.784771036356688">
        <ele>222.68000000000001</ele>
        <time>2025-04-23T16:17:42Z</time>
      </trkpt>
      <trkpt lat="46.417341018095613" lon="4.784794002771378">
        <ele>222.68000000000001</ele>
        <time>2025-04-23T16:17:44Z</time>
      </trkpt>
      <trkpt lat="46.417301036417484" lon="4.784802971407771">
        <ele>222.19999999999999</ele>
        <time>2025-04-23T16:17:45Z</time>
      </trkpt>
      <trkpt lat="46.417277986183763" lon="4.784825015813112">
        <ele>222.19999999999999</ele>
        <time>2025-04-23T16:17:46Z</time>
      </trkpt>
      <trkpt lat="46.417246973142028" lon="4.784855023026466">
        <ele>222.19999999999999</ele>
        <time>2025-04-23T16:17:47Z</time>
      </trkpt>
      <trkpt lat="46.417212020605803" lon="4.784887041896582">
        <ele>222.19999999999999</ele>
        <time>2025-04-23T16:17:48Z</time>
      </trkpt>
      <trkpt lat="46.417113030329347" lon="4.784981003031135">
        <ele>221.72</ele>
        <time>2025-04-23T16:17:50Z</time>
      </trkpt>
      <trkpt lat="46.416804995387793" lon="4.785233968868852">
        <ele>220.75999999999999</ele>
        <time>2025-04-23T16:17:54Z</time>
      </trkpt>
      <trkpt lat="46.41671103425324" lon="4.785290965810418">
        <ele>220.75999999999999</ele>
        <time>2025-04-23T16:17:55Z</time>
      </trkpt>
      <trkpt lat="46.41660500317812" lon="4.785302029922605">
        <ele>220.28</ele>
        <time>2025-04-23T16:17:56Z</time>
      </trkpt>
      <trkpt lat="46.41649603843689" lon="4.785306975245476">
        <ele>220.28</ele>
        <time>2025-04-23T16:17:57Z</time>
      </trkpt>
      <trkpt lat="46.416382966563106" lon="4.785313010215759">
        <ele>219.80000000000001</ele>
        <time>2025-04-23T16:17:58Z</time>
      </trkpt>
      <trkpt lat="46.415243027731776" lon="4.785366989672184">
        <ele>216.43000000000001</ele>
        <time>2025-04-23T16:18:08Z</time>
      </trkpt>
      <trkpt lat="46.413997979834676" lon="4.785404037684202">
        <ele>215.94999999999999</ele>
        <time>2025-04-23T16:18:19Z</time>
      </trkpt>
      <trkpt lat="46.413794970139861" lon="4.785404037684202">
        <ele>215.94999999999999</ele>
        <time>2025-04-23T16:18:21Z</time>
      </trkpt>
      <trkpt lat="46.41355499625206" lon="4.78535701520741">
        <ele>215.94999999999999</ele>
        <time>2025-04-23T16:18:24Z</time>
      </trkpt>
      <trkpt lat="46.413502022624016" lon="4.785338994115591">
        <ele>216.43000000000001</ele>
        <time>2025-04-23T16:18:25Z</time>
      </trkpt>
      <trkpt lat="46.413351986557245" lon="4.785292977467179">
        <ele>216.91</ele>
        <time>2025-04-23T16:18:31Z</time>
      </trkpt>
      <trkpt lat="46.413284009322524" lon="4.785281997174025">
        <ele>217.40000000000001</ele>
        <time>2025-04-23T16:18:32Z</time>
      </trkpt>
      <trkpt lat="46.412451015785336" lon="4.785146964713931">
        <ele>216.43000000000001</ele>
        <time>2025-04-23T16:18:42Z</time>
      </trkpt>
      <trkpt lat="46.412280024960637" lon="4.785125004127622">
        <ele>215.94999999999999</ele>
        <time>2025-04-23T16:18:44Z</time>
      </trkpt>
      <trkpt lat="46.412148009985685" lon="4.785223994404078">
        <ele>214.99000000000001</ele>
        <time>2025-04-23T16:18:46Z</time>
      </trkpt>
      <trkpt lat="46.412026975303888" lon="4.785162974148989">
        <ele>214.03</ele>
        <time>2025-04-23T16:18:47Z</time>
      </trkpt>
      <trkpt lat="46.411961009725928" lon="4.785088961943984">
        <ele>213.55000000000001</ele>
        <time>2025-04-23T16:18:48Z</time>
      </trkpt>
      <trkpt lat="46.411889009177685" lon="4.785008998587728">
        <ele>212.59</ele>
        <time>2025-04-23T16:18:50Z</time>
      </trkpt>
      <trkpt lat="46.411079987883568" lon="4.784101992845535">
        <ele>209.22</ele>
        <time>2025-04-23T16:18:59Z</time>
      </trkpt>
      <trkpt lat="46.410971023142338" lon="4.784033009782434">
        <ele>209.22</ele>
        <time>2025-04-23T16:19:00Z</time>
      </trkpt>
      <trkpt lat="46.410859962925315" lon="4.783997973427177">
        <ele>208.74000000000001</ele>
        <time>2025-04-23T16:19:01Z</time>
      </trkpt>
      <trkpt lat="46.41074001789093" lon="4.783965032547712">
        <ele>208.25999999999999</ele>
        <time>2025-04-23T16:19:02Z</time>
      </trkpt>
      <trkpt lat="46.41061102040112" lon="4.783948017284274">
        <ele>208.25999999999999</ele>
        <time>2025-04-23T16:19:03Z</time>
      </trkpt>
      <trkpt lat="46.409449959173799" lon="4.783678958192468">
        <ele>209.69999999999999</ele>
        <time>2025-04-23T16:19:12Z</time>
      </trkpt>
      <trkpt lat="46.409338982775807" lon="4.783637970685959">
        <ele>210.19</ele>
        <time>2025-04-23T16:19:13Z</time>
      </trkpt>
      <trkpt lat="46.409196993336082" lon="4.783685998991132">
        <ele>210.19</ele>
        <time>2025-04-23T16:19:14Z</time>
      </trkpt>
      <trkpt lat="46.408588970080018" lon="4.783816002309322">
        <ele>211.15000000000001</ele>
        <time>2025-04-23T16:19:19Z</time>
      </trkpt>
      <trkpt lat="46.408481011167169" lon="4.783798987045884">
        <ele>211.63</ele>
        <time>2025-04-23T16:19:20Z</time>
      </trkpt>
      <trkpt lat="46.408084966242313" lon="4.783735033124685">
        <ele>213.06999999999999</ele>
        <time>2025-04-23T16:19:23Z</time>
      </trkpt>
      <trkpt lat="46.40796703286469" lon="4.783716006204486">
        <ele>214.03</ele>
        <time>2025-04-23T16:19:24Z</time>
      </trkpt>
      <trkpt lat="46.407842980697751" lon="4.783748025074601">
        <ele>214.99000000000001</ele>
        <time>2025-04-23T16:19:25Z</time>
      </trkpt>
      <trkpt lat="46.407575011253357" lon="4.78387501090765">
        <ele>217.40000000000001</ele>
        <time>2025-04-23T16:19:27Z</time>
      </trkpt>
      <trkpt lat="46.407435033470392" lon="4.78394097648561">
        <ele>218.36000000000001</ele>
        <time>2025-04-23T16:19:28Z</time>
      </trkpt>
      <trkpt lat="46.407002024352551" lon="4.784108027815819">
        <ele>221.72</ele>
        <time>2025-04-23T16:19:31Z</time>
      </trkpt>
      <trkpt lat="46.406847964972258" lon="4.784126970916987">
        <ele>222.68000000000001</ele>
        <time>2025-04-23T16:19:32Z</time>
      </trkpt>
      <trkpt lat="46.406538002192974" lon="4.784164018929005">
        <ele>225.56999999999999</ele>
        <time>2025-04-23T16:19:34Z</time>
      </trkpt>
      <trkpt lat="46.405440978705883" lon="4.784406004473567">
        <ele>232.78</ele>
        <time>2025-04-23T16:19:41Z</time>
      </trkpt>
      <trkpt lat="46.4052829798311" lon="4.784384965896606">
        <ele>233.74000000000001</ele>
        <time>2025-04-23T16:19:42Z</time>
      </trkpt>
      <trkpt lat="46.405129004269838" lon="4.784317994490266">
        <ele>234.69999999999999</ele>
        <time>2025-04-23T16:19:43Z</time>
      </trkpt>
      <trkpt lat="46.403594026342034" lon="4.783712988719344">
        <ele>240.47</ele>
        <time>2025-04-23T16:19:52Z</time>
      </trkpt>
      <trkpt lat="46.40343401581049" lon="4.783689016476274">
        <ele>240.94999999999999</ele>
        <time>2025-04-23T16:19:53Z</time>
      </trkpt>
      <trkpt lat="46.403283979743719" lon="4.783736038953066">
        <ele>241.43000000000001</ele>
        <time>2025-04-23T16:19:54Z</time>
      </trkpt>
      <trkpt lat="46.402326012030244" lon="4.784038038924336">
        <ele>241.91</ele>
        <time>2025-04-23T16:20:00Z</time>
      </trkpt>
      <trkpt lat="46.402182010933757" lon="4.78413300588727">
        <ele>240.94999999999999</ele>
        <time>2025-04-23T16:20:01Z</time>
      </trkpt>
      <trkpt lat="46.401918986812234" lon="4.784346995875239">
        <ele>239.50999999999999</ele>
        <time>2025-04-23T16:20:03Z</time>
      </trkpt>
      <trkpt lat="46.401794012635946" lon="4.784447997808456">
        <ele>239.02000000000001</ele>
        <time>2025-04-23T16:20:04Z</time>
      </trkpt>
      <trkpt lat="46.40167498961091" lon="4.784543970599771">
        <ele>238.06</ele>
        <time>2025-04-23T16:20:05Z</time>
      </trkpt>
      <trkpt lat="46.401540040969849" lon="4.784595016390085">
        <ele>237.09999999999999</ele>
        <time>2025-04-23T16:20:06Z</time>
      </trkpt>
      <trkpt lat="46.40141598880291" lon="4.784558974206448">
        <ele>236.13999999999999</ele>
        <time>2025-04-23T16:20:07Z</time>
      </trkpt>
      <trkpt lat="46.401281962171197" lon="4.784521004185081">
        <ele>235.66</ele>
        <time>2025-04-23T16:20:08Z</time>
      </trkpt>
      <trkpt lat="46.400992032140493" lon="4.784439029172063">
        <ele>234.22</ele>
        <time>2025-04-23T16:20:10Z</time>
      </trkpt>
      <trkpt lat="46.400846019387245" lon="4.784466018900275">
        <ele>233.74000000000001</ele>
        <time>2025-04-23T16:20:11Z</time>
      </trkpt>
      <trkpt lat="46.400420973077416" lon="4.784545982256532">
        <ele>232.78</ele>
        <time>2025-04-23T16:20:14Z</time>
      </trkpt>
      <trkpt lat="46.400274960324168" lon="4.784550005570054">
        <ele>232.30000000000001</ele>
        <time>2025-04-23T16:20:15Z</time>
      </trkpt>
      <trkpt lat="46.400133976712823" lon="4.784472975879908">
        <ele>231.81</ele>
        <time>2025-04-23T16:20:16Z</time>
      </trkpt>
      <trkpt lat="46.399990981444716" lon="4.7843680344522">
        <ele>231.81</ele>
        <time>2025-04-23T16:20:17Z</time>
      </trkpt>
      <trkpt lat="46.399861983954906" lon="4.784254962578416">
        <ele>231.33000000000001</ele>
        <time>2025-04-23T16:20:18Z</time>
      </trkpt>
      <trkpt lat="46.399283967912197" lon="4.783763028681278">
        <ele>230.84999999999999</ele>
        <time>2025-04-23T16:20:24Z</time>
      </trkpt>
      <trkpt lat="46.398245031014085" lon="4.782953001558781">
        <ele>226.05000000000001</ele>
        <time>2025-04-23T16:20:35Z</time>
      </trkpt>
      <trkpt lat="46.398164983838797" lon="4.782936992123723">
        <ele>225.56999999999999</ele>
        <time>2025-04-23T16:20:36Z</time>
      </trkpt>
      <trkpt lat="46.398054007440805" lon="4.782915031537414">
        <ele>225.56999999999999</ele>
        <time>2025-04-23T16:20:37Z</time>
      </trkpt>
      <trkpt lat="46.397965997457504" lon="4.782968005165458">
        <ele>225.09</ele>
        <time>2025-04-23T16:20:38Z</time>
      </trkpt>
      <trkpt lat="46.397857032716274" lon="4.783032964915037">
        <ele>224.61000000000001</ele>
        <time>2025-04-23T16:20:39Z</time>
      </trkpt>
      <trkpt lat="46.397751001641154" lon="4.783129021525383">
        <ele>224.12</ele>
        <time>2025-04-23T16:20:40Z</time>
      </trkpt>
      <trkpt lat="46.397643964737654" lon="4.783232035115361">
        <ele>223.63999999999999</ele>
        <time>2025-04-23T16:20:41Z</time>
      </trkpt>
      <trkpt lat="46.396828992292285" lon="4.784015994518995">
        <ele>220.75999999999999</ele>
        <time>2025-04-23T16:20:48Z</time>
      </trkpt>
      <trkpt lat="46.396713992580771" lon="4.784125965088606">
        <ele>220.75999999999999</ele>
        <time>2025-04-23T16:20:49Z</time>
      </trkpt>
      <trkpt lat="46.395917041227221" lon="4.784567020833492">
        <ele>223.63999999999999</ele>
        <time>2025-04-23T16:20:55Z</time>
      </trkpt>
      <trkpt lat="46.395793994888663" lon="4.784567020833492">
        <ele>224.61000000000001</ele>
        <time>2025-04-23T16:20:56Z</time>
      </trkpt>
      <trkpt lat="46.395677989348769" lon="4.784556040540338">
        <ele>225.56999999999999</ele>
        <time>2025-04-23T16:20:57Z</time>
      </trkpt>
      <trkpt lat="46.3955710362643" lon="4.784475993365049">
        <ele>226.53</ele>
        <time>2025-04-23T16:20:58Z</time>
      </trkpt>
      <trkpt lat="46.395473973825574" lon="4.784361999481916">
        <ele>227.49000000000001</ele>
        <time>2025-04-23T16:20:59Z</time>
      </trkpt>
      <trkpt lat="46.395390992984176" lon="4.784228978678584">
        <ele>228.93000000000001</ele>
        <time>2025-04-23T16:21:00Z</time>
      </trkpt>
      <trkpt lat="46.395310023799539" lon="4.784098975360394">
        <ele>230.37</ele>
        <time>2025-04-23T16:21:01Z</time>
      </trkpt>
      <trkpt lat="46.395236011594534" lon="4.783979030326009">
        <ele>231.81</ele>
        <time>2025-04-23T16:21:02Z</time>
      </trkpt>
      <trkpt lat="46.395097961649299" lon="4.783756993710995">
        <ele>236.13999999999999</ele>
        <time>2025-04-23T16:21:05Z</time>
      </trkpt>
      <trkpt lat="46.394954966381192" lon="4.783597989007831">
        <ele>239.02000000000001</ele>
        <time>2025-04-23T16:21:07Z</time>
      </trkpt>
      <trkpt lat="46.394795039668679" lon="4.783495981246233">
        <ele>240.47</ele>
        <time>2025-04-23T16:21:08Z</time>
      </trkpt>
      <trkpt lat="46.394711975008249" lon="4.783443007618189">
        <ele>242.38999999999999</ele>
        <time>2025-04-23T16:21:09Z</time>
      </trkpt>
      <trkpt lat="46.393745038658381" lon="4.782948978245258">
        <ele>249.59999999999999</ele>
        <time>2025-04-23T16:21:18Z</time>
      </trkpt>
      <trkpt lat="46.39262898825109" lon="4.782384959980846">
        <ele>252.47999999999999</ele>
        <time>2025-04-23T16:21:26Z</time>
      </trkpt>
      <trkpt lat="46.39067399315536" lon="4.781395979225636">
        <ele>255.84999999999999</ele>
        <time>2025-04-23T16:21:37Z</time>
      </trkpt>
      <trkpt lat="46.389402961358428" lon="4.780857022851706">
        <ele>263.06</ele>
        <time>2025-04-23T16:21:45Z</time>
      </trkpt>
      <trkpt lat="46.388334017246962" lon="4.78037497960031">
        <ele>265.94</ele>
        <time>2025-04-23T16:21:52Z</time>
      </trkpt>
      <trkpt lat="46.386507013812661" lon="4.779380969703198">
        <ele>258.73000000000002</ele>
        <time>2025-04-23T16:22:02Z</time>
      </trkpt>
      <trkpt lat="46.386128989979625" lon="4.779222970828414">
        <ele>257.76999999999998</ele>
        <time>2025-04-23T16:22:04Z</time>
      </trkpt>
      <trkpt lat="46.384761985391378" lon="4.778648978099227">
        <ele>256.32999999999998</ele>
        <time>2025-04-23T16:22:12Z</time>
      </trkpt>
      <trkpt lat="46.384387984871864" lon="4.778407998383045">
        <ele>255.84999999999999</ele>
        <time>2025-04-23T16:22:15Z</time>
      </trkpt>
      <trkpt lat="46.384302992373705" lon="4.778304984793067">
        <ele>255.37</ele>
        <time>2025-04-23T16:22:16Z</time>
      </trkpt>
      <trkpt lat="46.384215988218784" lon="4.778185961768031">
        <ele>254.88999999999999</ele>
        <time>2025-04-23T16:22:17Z</time>
      </trkpt>
      <trkpt lat="46.384121021255851" lon="4.778055958449841">
        <ele>254.41</ele>
        <time>2025-04-23T16:22:18Z</time>
      </trkpt>
      <trkpt lat="46.384030999615788" lon="4.777932995930314">
        <ele>253.44</ele>
        <time>2025-04-23T16:22:19Z</time>
      </trkpt>
      <trkpt lat="46.383942989632487" lon="4.777803998440504">
        <ele>252.96000000000001</ele>
        <time>2025-04-23T16:22:20Z</time>
      </trkpt>
      <trkpt lat="46.383849028497934" lon="4.777614986523986">
        <ele>252</ele>
        <time>2025-04-23T16:22:21Z</time>
      </trkpt>
      <trkpt lat="46.383791025727987" lon="4.777431003749371">
        <ele>251.52000000000001</ele>
        <time>2025-04-23T16:22:22Z</time>
      </trkpt>
      <trkpt lat="46.383728999644518" lon="4.777221037074924">
        <ele>250.56</ele>
        <time>2025-04-23T16:22:23Z</time>
      </trkpt>
      <trkpt lat="46.383678037673235" lon="4.777016015723348">
        <ele>249.59999999999999</ele>
        <time>2025-04-23T16:22:24Z</time>
      </trkpt>
      <trkpt lat="46.383624980226159" lon="4.776805965229869">
        <ele>248.63999999999999</ele>
        <time>2025-04-23T16:22:25Z</time>
      </trkpt>
      <trkpt lat="46.383507968857884" lon="4.776335991919041">
        <ele>246.22999999999999</ele>
        <time>2025-04-23T16:22:27Z</time>
      </trkpt>
      <trkpt lat="46.383450971916318" lon="4.776111021637917">
        <ele>244.78999999999999</ele>
        <time>2025-04-23T16:22:28Z</time>
      </trkpt>
      <trkpt lat="46.383396992459893" lon="4.775893008336425">
        <ele>243.34999999999999</ele>
        <time>2025-04-23T16:22:29Z</time>
      </trkpt>
      <trkpt lat="46.38334603048861" lon="4.77568999864161">
        <ele>241.91</ele>
        <time>2025-04-23T16:22:30Z</time>
      </trkpt>
      <trkpt lat="46.383290961384773" lon="4.775468967854977">
        <ele>239.99000000000001</ele>
        <time>2025-04-23T16:22:31Z</time>
      </trkpt>
      <trkpt lat="46.383193982765079" lon="4.775315998122096">
        <ele>238.06</ele>
        <time>2025-04-23T16:22:32Z</time>
      </trkpt>
      <trkpt lat="46.383086023852229" lon="4.775144001469016">
        <ele>235.66</ele>
        <time>2025-04-23T16:22:33Z</time>
      </trkpt>
      <trkpt lat="46.382985021919012" lon="4.77498197928071">
        <ele>234.22</ele>
        <time>2025-04-23T16:22:34Z</time>
      </trkpt>
      <trkpt lat="46.382892988622189" lon="4.774836972355843">
        <ele>231.81</ele>
        <time>2025-04-23T16:22:35Z</time>
      </trkpt>
      <trkpt lat="46.38281000778079" lon="4.774689031764865">
        <ele>229.88999999999999</ele>
        <time>2025-04-23T16:22:36Z</time>
      </trkpt>
      <trkpt lat="46.382759967818856" lon="4.774515023455024">
        <ele>227.49000000000001</ele>
        <time>2025-04-23T16:22:37Z</time>
      </trkpt>
      <trkpt lat="46.382708000019193" lon="4.774334980174899">
        <ele>225.09</ele>
        <time>2025-04-23T16:22:38Z</time>
      </trkpt>
      <trkpt lat="46.382658965885639" lon="4.774166001006961">
        <ele>222.19999999999999</ele>
        <time>2025-04-23T16:22:39Z</time>
      </trkpt>
      <trkpt lat="46.382615966722369" lon="4.77401596494019">
        <ele>219.80000000000001</ele>
        <time>2025-04-23T16:22:40Z</time>
      </trkpt>
      <trkpt lat="46.382572967559099" lon="4.773867018520832">
        <ele>217.88</ele>
        <time>2025-04-23T16:22:41Z</time>
      </trkpt>
      <trkpt lat="46.382520999759436" lon="4.77371203713119">
        <ele>216.43000000000001</ele>
        <time>2025-04-23T16:22:42Z</time>
      </trkpt>
      <trkpt lat="46.382456040009856" lon="4.773572981357575">
        <ele>215.94999999999999</ele>
        <time>2025-04-23T16:22:43Z</time>
      </trkpt>
      <trkpt lat="46.382347997277975" lon="4.773396961390972">
        <ele>215.47</ele>
        <time>2025-04-23T16:22:44Z</time>
      </trkpt>
      <trkpt lat="46.382087990641594" lon="4.77315598167479">
        <ele>214.99000000000001</ele>
        <time>2025-04-23T16:22:47Z</time>
      </trkpt>
      <trkpt lat="46.382024036720395" lon="4.773076018318534">
        <ele>214.99000000000001</ele>
        <time>2025-04-23T16:22:48Z</time>
      </trkpt>
      <trkpt lat="46.38160896487534" lon="4.772327011451125">
        <ele>217.40000000000001</ele>
        <time>2025-04-23T16:22:57Z</time>
      </trkpt>
      <trkpt lat="46.381580969318748" lon="4.772269008681178">
        <ele>218.84</ele>
        <time>2025-04-23T16:23:06Z</time>
      </trkpt>
      <trkpt lat="46.381429005414248" lon="4.772178987041116">
        <ele>219.31999999999999</ele>
        <time>2025-04-23T16:23:07Z</time>
      </trkpt>
      <trkpt lat="46.38139296323061" lon="4.772241013124585">
        <ele>219.31999999999999</ele>
        <time>2025-04-23T16:23:08Z</time>
      </trkpt>
      <trkpt lat="46.381343007087708" lon="4.772323993965983">
        <ele>219.31999999999999</ele>
        <time>2025-04-23T16:23:09Z</time>
      </trkpt>
      <trkpt lat="46.38128399848938" lon="4.77242399007082">
        <ele>219.31999999999999</ele>
        <time>2025-04-23T16:23:10Z</time>
      </trkpt>
      <trkpt lat="46.381129017099738" lon="4.772706041112542">
        <ele>218.84</ele>
        <time>2025-04-23T16:23:13Z</time>
      </trkpt>
      <trkpt lat="46.380677986890078" lon="4.774143034592271">
        <ele>220.75999999999999</ele>
        <time>2025-04-23T16:23:20Z</time>
      </trkpt>
      <trkpt lat="46.380629036575556" lon="4.774279994890094">
        <ele>221.24000000000001</ele>
        <time>2025-04-23T16:23:21Z</time>
      </trkpt>
      <trkpt lat="46.380581008270383" lon="4.774414021521807">
        <ele>222.19999999999999</ele>
        <time>2025-04-23T16:23:22Z</time>
      </trkpt>
      <trkpt lat="46.380539014935493" lon="4.774542013183236">
        <ele>223.16</ele>
        <time>2025-04-23T16:23:23Z</time>
      </trkpt>
      <trkpt lat="46.379840970039368" lon="4.776103980839253">
        <ele>233.25999999999999</ele>
        <time>2025-04-23T16:23:36Z</time>
      </trkpt>
      <trkpt lat="46.379513991996646" lon="4.776714015752077">
        <ele>235.66</ele>
        <time>2025-04-23T16:23:41Z</time>
      </trkpt>
      <trkpt lat="46.379451965913177" lon="4.776776041835547">
        <ele>236.13999999999999</ele>
        <time>2025-04-23T16:23:42Z</time>
      </trkpt>
      <trkpt lat="46.379159018397331" lon="4.777077035978437">
        <ele>237.09999999999999</ele>
        <time>2025-04-23T16:23:45Z</time>
      </trkpt>
      <trkpt lat="46.379073020070791" lon="4.777210978791118">
        <ele>238.06</ele>
        <time>2025-04-23T16:23:46Z</time>
      </trkpt>
      <trkpt lat="46.378996996209025" lon="4.77736403234303">
        <ele>238.53999999999999</ele>
        <time>2025-04-23T16:23:47Z</time>
      </trkpt>
      <trkpt lat="46.378936981782317" lon="4.777546003460884">
        <ele>238.53999999999999</ele>
        <time>2025-04-23T16:23:48Z</time>
      </trkpt>
      <trkpt lat="46.378913009539247" lon="4.777777008712292">
        <ele>239.50999999999999</ele>
        <time>2025-04-23T16:23:49Z</time>
      </trkpt>
      <trkpt lat="46.378922984004021" lon="4.778008013963699">
        <ele>240.94999999999999</ele>
        <time>2025-04-23T16:23:50Z</time>
      </trkpt>
      <trkpt lat="46.378947040066123" lon="4.778252011165023">
        <ele>241.91</ele>
        <time>2025-04-23T16:23:51Z</time>
      </trkpt>
      <trkpt lat="46.379008982330561" lon="4.780484028160572">
        <ele>249.12</ele>
        <time>2025-04-23T16:23:59Z</time>
      </trkpt>
      <trkpt lat="46.378923989832401" lon="4.784599039703608">
        <ele>256.81</ele>
        <time>2025-04-23T16:24:12Z</time>
      </trkpt>
      <trkpt lat="46.378887025639415" lon="4.784860974177718">
        <ele>256.81</ele>
        <time>2025-04-23T16:24:13Z</time>
      </trkpt>
      <trkpt lat="46.378807984292507" lon="4.785119974985719">
        <ele>257.29000000000002</ele>
        <time>2025-04-23T16:24:14Z</time>
      </trkpt>
      <trkpt lat="46.378696002066135" lon="4.785341005772352">
        <ele>257.29000000000002</ele>
        <time>2025-04-23T16:24:15Z</time>
      </trkpt>
      <trkpt lat="46.378564992919564" lon="4.785533035174012">
        <ele>257.29000000000002</ele>
        <time>2025-04-23T16:24:16Z</time>
      </trkpt>
      <trkpt lat="46.378427026793361" lon="4.785733027383685">
        <ele>257.76999999999998</ele>
        <time>2025-04-23T16:24:17Z</time>
      </trkpt>
      <trkpt lat="46.378285037353635" lon="4.78593997657299">
        <ele>257.76999999999998</ele>
        <time>2025-04-23T16:24:18Z</time>
      </trkpt>
      <trkpt lat="46.377659998834133" lon="4.786719996482134">
        <ele>257.76999999999998</ele>
        <time>2025-04-23T16:24:22Z</time>
      </trkpt>
      <trkpt lat="46.377090029418468" lon="4.787397002801299">
        <ele>258.25</ele>
        <time>2025-04-23T16:24:26Z</time>
      </trkpt>
      <trkpt lat="46.376917026937008" lon="4.787495993077755">
        <ele>258.25</ele>
        <time>2025-04-23T16:24:27Z</time>
      </trkpt>
      <trkpt lat="46.376745030283928" lon="4.787562964484096">
        <ele>258.25</ele>
        <time>2025-04-23T16:24:28Z</time>
      </trkpt>
      <trkpt lat="46.376210013404489" lon="4.787670001387596">
        <ele>255.84999999999999</ele>
        <time>2025-04-23T16:24:31Z</time>
      </trkpt>
      <trkpt lat="46.376017984002829" lon="4.787658015266061">
        <ele>254.88999999999999</ele>
        <time>2025-04-23T16:24:32Z</time>
      </trkpt>
      <trkpt lat="46.375815980136395" lon="4.787630019709468">
        <ele>253.93000000000001</ele>
        <time>2025-04-23T16:24:33Z</time>
      </trkpt>
      <trkpt lat="46.374759022146463" lon="4.787529017776251">
        <ele>249.12</ele>
        <time>2025-04-23T16:24:38Z</time>
      </trkpt>
      <trkpt lat="46.374541008844972" lon="4.787529017776251">
        <ele>248.16</ele>
        <time>2025-04-23T16:24:39Z</time>
      </trkpt>
      <trkpt lat="46.374336993321776" lon="4.787536980584264">
        <ele>246.72</ele>
        <time>2025-04-23T16:24:40Z</time>
      </trkpt>
      <trkpt lat="46.374132977798581" lon="4.787600012496114">
        <ele>245.75</ele>
        <time>2025-04-23T16:24:41Z</time>
      </trkpt>
      <trkpt lat="46.373948995023966" lon="4.787705037742853">
        <ele>244.78999999999999</ele>
        <time>2025-04-23T16:24:42Z</time>
      </trkpt>
      <trkpt lat="46.373757971450686" lon="4.787833029404283">
        <ele>243.83000000000001</ele>
        <time>2025-04-23T16:24:43Z</time>
      </trkpt>
      <trkpt lat="46.373569965362549" lon="4.78795800358057">
        <ele>242.87</ele>
        <time>2025-04-23T16:24:44Z</time>
      </trkpt>
      <trkpt lat="46.371580017730594" lon="4.789100037887693">
        <ele>248.16</ele>
        <time>2025-04-23T16:24:54Z</time>
      </trkpt>
      <trkpt lat="46.369120012968779" lon="4.790122965350747">
        <ele>260.64999999999998</ele>
        <time>2025-04-23T16:25:06Z</time>
      </trkpt>
      <trkpt lat="46.368911974132061" lon="4.790165964514017">
        <ele>262.10000000000002</ele>
        <time>2025-04-23T16:25:07Z</time>
      </trkpt>
      <trkpt lat="46.368699995800853" lon="4.790193038061261">
        <ele>263.06</ele>
        <time>2025-04-23T16:25:08Z</time>
      </trkpt>
      <trkpt lat="46.368103958666325" lon="4.790268978103995">
        <ele>266.89999999999998</ele>
        <time>2025-04-23T16:25:11Z</time>
      </trkpt>
      <trkpt lat="46.367915030568838" lon="4.790340978652239">
        <ele>267.86000000000001</ele>
        <time>2025-04-23T16:25:12Z</time>
      </trkpt>
      <trkpt lat="46.36772601865232" lon="4.790429994463921">
        <ele>268.82999999999998</ele>
        <time>2025-04-23T16:25:13Z</time>
      </trkpt>
      <trkpt lat="46.367548992857337" lon="4.79055798612535">
        <ele>269.79000000000002</ele>
        <time>2025-04-23T16:25:14Z</time>
      </trkpt>
      <trkpt lat="46.367390993982553" lon="4.790682960301638">
        <ele>270.75</ele>
        <time>2025-04-23T16:25:15Z</time>
      </trkpt>
      <trkpt lat="46.367225032299757" lon="4.790869960561395">
        <ele>271.70999999999998</ele>
        <time>2025-04-23T16:25:16Z</time>
      </trkpt>
      <trkpt lat="46.367067033424973" lon="4.7910510096699">
        <ele>272.67000000000002</ele>
        <time>2025-04-23T16:25:17Z</time>
      </trkpt>
      <trkpt lat="46.366919009014964" lon="4.791263993829489">
        <ele>274.11000000000001</ele>
        <time>2025-04-23T16:25:18Z</time>
      </trkpt>
      <trkpt lat="46.366768972948194" lon="4.791482007130981">
        <ele>275.06999999999999</ele>
        <time>2025-04-23T16:25:19Z</time>
      </trkpt>
      <trkpt lat="46.365439016371965" lon="4.79305000975728">
        <ele>284.20999999999998</ele>
        <time>2025-04-23T16:25:27Z</time>
      </trkpt>
      <trkpt lat="46.365248998627067" lon="4.793175989761949">
        <ele>285.17000000000002</ele>
        <time>2025-04-23T16:25:28Z</time>
      </trkpt>
      <trkpt lat="46.364879021421075" lon="4.79341596364975">
        <ele>286.61000000000001</ele>
        <time>2025-04-23T16:25:30Z</time>
      </trkpt>
      <trkpt lat="46.364721022546291" lon="4.79358502663672">
        <ele>287.56999999999999</ele>
        <time>2025-04-23T16:25:31Z</time>
      </trkpt>
      <trkpt lat="46.364565035328269" lon="4.793761968612671">
        <ele>288.52999999999997</ele>
        <time>2025-04-23T16:25:32Z</time>
      </trkpt>
      <trkpt lat="46.364262029528618" lon="4.794105039909482">
        <ele>290.45999999999998</ele>
        <time>2025-04-23T16:25:34Z</time>
      </trkpt>
      <trkpt lat="46.364090032875538" lon="4.794250968843699">
        <ele>291.42000000000002</ele>
        <time>2025-04-23T16:25:35Z</time>
      </trkpt>
      <trkpt lat="46.363914012908936" lon="4.794380972161889">
        <ele>292.38</ele>
        <time>2025-04-23T16:25:36Z</time>
      </trkpt>
      <trkpt lat="46.363722989335656" lon="4.794479962438345">
        <ele>293.33999999999997</ele>
        <time>2025-04-23T16:25:37Z</time>
      </trkpt>
      <trkpt lat="46.363522997125983" lon="4.794530002400279">
        <ele>294.30000000000001</ele>
        <time>2025-04-23T16:25:38Z</time>
      </trkpt>
      <trkpt lat="46.363317975774407" lon="4.794581970199943">
        <ele>295.25999999999999</ele>
        <time>2025-04-23T16:25:39Z</time>
      </trkpt>
      <trkpt lat="46.362706013023853" lon="4.79476603679359">
        <ele>298.14999999999998</ele>
        <time>2025-04-23T16:25:42Z</time>
      </trkpt>
      <trkpt lat="46.362303011119366" lon="4.79491800069809">
        <ele>299.11000000000001</ele>
        <time>2025-04-23T16:25:44Z</time>
      </trkpt>
      <trkpt lat="46.36209798976779" lon="4.794985977932811">
        <ele>300.06999999999999</ele>
        <time>2025-04-23T16:25:45Z</time>
      </trkpt>
      <trkpt lat="46.359571013599634" lon="4.795443965122104">
        <ele>308.72000000000003</ele>
        <time>2025-04-23T16:25:57Z</time>
      </trkpt>
      <trkpt lat="46.359021998941898" lon="4.795496016740799">
        <ele>310.63999999999999</ele>
        <time>2025-04-23T16:26:00Z</time>
      </trkpt>
      <trkpt lat="46.358856959268451" lon="4.795601963996887">
        <ele>311.12</ele>
        <time>2025-04-23T16:26:01Z</time>
      </trkpt>
      <trkpt lat="46.358697032555938" lon="4.795704977586865">
        <ele>312.08999999999997</ele>
        <time>2025-04-23T16:26:02Z</time>
      </trkpt>
      <trkpt lat="46.358161009848118" lon="4.796049976721406">
        <ele>314.00999999999999</ele>
        <time>2025-04-23T16:26:07Z</time>
      </trkpt>
      <trkpt lat="46.358099989593029" lon="4.796110996976495">
        <ele>314.00999999999999</ele>
        <time>2025-04-23T16:26:08Z</time>
      </trkpt>
      <trkpt lat="46.358099989593029" lon="4.796189032495022">
        <ele>314.00999999999999</ele>
        <time>2025-04-23T16:26:09Z</time>
      </trkpt>
      <trkpt lat="46.358099989593029" lon="4.796286011114717">
        <ele>314.00999999999999</ele>
        <time>2025-04-23T16:26:10Z</time>
      </trkpt>
      <trkpt lat="46.358099989593029" lon="4.79640000499785">
        <ele>314.00999999999999</ele>
        <time>2025-04-23T16:26:11Z</time>
      </trkpt>
      <trkpt lat="46.358099989593029" lon="4.796850029379129">
        <ele>314.00999999999999</ele>
        <time>2025-04-23T16:26:17Z</time>
      </trkpt>
      <trkpt lat="46.358099989593029" lon="4.796909959986806">
        <ele>314.49000000000001</ele>
        <time>2025-04-23T16:26:20Z</time>
      </trkpt>
      <trkpt lat="46.358098983764648" lon="4.796994030475617">
        <ele>314.49000000000001</ele>
        <time>2025-04-23T16:26:21Z</time>
      </trkpt>
      <trkpt lat="46.358076017349958" lon="4.798074960708618">
        <ele>314.00999999999999</ele>
        <time>2025-04-23T16:26:28Z</time>
      </trkpt>
      <trkpt lat="46.35805900208652" lon="4.798859003931284">
        <ele>312.56999999999999</ele>
        <time>2025-04-23T16:26:35Z</time>
      </trkpt>
      <trkpt lat="46.35805900208652" lon="4.798879036679864">
        <ele>312.08999999999997</ele>
        <time>2025-04-23T16:26:38Z</time>
      </trkpt>
      <trkpt lat="46.35801600292325" lon="4.79895900003612">
        <ele>312.08999999999997</ele>
        <time>2025-04-23T16:26:40Z</time>
      </trkpt>
      <trkpt lat="46.357815004885197" lon="4.798924969509244">
        <ele>312.08999999999997</ele>
        <time>2025-04-23T16:26:43Z</time>
      </trkpt>
      <trkpt lat="46.357626998797059" lon="4.798945002257824">
        <ele>312.08999999999997</ele>
        <time>2025-04-23T16:26:44Z</time>
      </trkpt>
      <trkpt lat="46.3575420062989" lon="4.799029994755983">
        <ele>311.60000000000002</ele>
        <time>2025-04-23T16:26:45Z</time>
      </trkpt>
      <trkpt lat="46.35743304155767" lon="4.799156980589032">
        <ele>311.60000000000002</ele>
        <time>2025-04-23T16:26:46Z</time>
      </trkpt>
      <trkpt lat="46.35664002969861" lon="4.800082007423043">
        <ele>311.12</ele>
        <time>2025-04-23T16:26:52Z</time>
      </trkpt>
      <trkpt lat="46.355807958170772" lon="4.800974009558559">
        <ele>310.16000000000003</ele>
        <time>2025-04-23T16:26:58Z</time>
      </trkpt>
      <trkpt lat="46.35567300952971" lon="4.801071994006634">
        <ele>310.16000000000003</ele>
        <time>2025-04-23T16:26:59Z</time>
      </trkpt>
      <trkpt lat="46.355521967634559" lon="4.801147012040019">
        <ele>310.16000000000003</ele>
        <time>2025-04-23T16:27:00Z</time>
      </trkpt>
      <trkpt lat="46.355355000123382" lon="4.801175007596612">
        <ele>310.16000000000003</ele>
        <time>2025-04-23T16:27:01Z</time>
      </trkpt>
      <trkpt lat="46.355185015127063" lon="4.801169978454709">
        <ele>310.16000000000003</ele>
        <time>2025-04-23T16:27:02Z</time>
      </trkpt>
      <trkpt lat="46.353462031111121" lon="4.801119016483426">
        <ele>302.47000000000003</ele>
        <time>2025-04-23T16:27:11Z</time>
      </trkpt>
      <trkpt lat="46.351947002112865" lon="4.801567029207945">
        <ele>295.74000000000001</ele>
        <time>2025-04-23T16:27:19Z</time>
      </trkpt>
      <trkpt lat="46.350454017519951" lon="4.802053011953831">
        <ele>289.49000000000001</ele>
        <time>2025-04-23T16:27:27Z</time>
      </trkpt>
      <trkpt lat="46.350274980068207" lon="4.802155019715428">
        <ele>288.52999999999997</ele>
        <time>2025-04-23T16:27:28Z</time>
      </trkpt>
      <trkpt lat="46.350099965929985" lon="4.802307989448309">
        <ele>288.05000000000001</ele>
        <time>2025-04-23T16:27:29Z</time>
      </trkpt>
      <trkpt lat="46.348765986040235" lon="4.80372603982687">
        <ele>280.36000000000001</ele>
        <time>2025-04-23T16:27:37Z</time>
      </trkpt>
      <trkpt lat="46.347729982808232" lon="4.805087009444833">
        <ele>276.04000000000002</ele>
        <time>2025-04-23T16:27:45Z</time>
      </trkpt>
      <trkpt lat="46.347366040572524" lon="4.805628983303905">
        <ele>275.06999999999999</ele>
        <time>2025-04-23T16:27:48Z</time>
      </trkpt>
      <trkpt lat="46.346418969333172" lon="4.807383986189961">
        <ele>275.06999999999999</ele>
        <time>2025-04-23T16:27:57Z</time>
      </trkpt>
      <trkpt lat="46.346340011805296" lon="4.807532010599971">
        <ele>275.56</ele>
        <time>2025-04-23T16:27:58Z</time>
      </trkpt>
      <trkpt lat="46.346244039013982" lon="4.807653967291117">
        <ele>276.04000000000002</ele>
        <time>2025-04-23T16:27:59Z</time>
      </trkpt>
      <trkpt lat="46.346126021817327" lon="4.807784976437688">
        <ele>276.51999999999998</ele>
        <time>2025-04-23T16:28:00Z</time>
      </trkpt>
      <trkpt lat="46.346000041812658" lon="4.80780802667141">
        <ele>277</ele>
        <time>2025-04-23T16:28:01Z</time>
      </trkpt>
      <trkpt lat="46.34585696272552" lon="4.807835016399622">
        <ele>277</ele>
        <time>2025-04-23T16:28:02Z</time>
      </trkpt>
      <trkpt lat="46.344487024471164" lon="4.807841973379254">
        <ele>271.23000000000002</ele>
        <time>2025-04-23T16:28:10Z</time>
      </trkpt>
      <trkpt lat="46.34172803722322" lon="4.807825963944197">
        <ele>273.63</ele>
        <time>2025-04-23T16:28:25Z</time>
      </trkpt>
      <trkpt lat="46.339972028508782" lon="4.807823030278087">
        <ele>269.31</ele>
        <time>2025-04-23T16:28:35Z</time>
      </trkpt>
      <trkpt lat="46.338681969791651" lon="4.807827975600958">
        <ele>265.94</ele>
        <time>2025-04-23T16:28:43Z</time>
      </trkpt>
      <trkpt lat="46.338535035029054" lon="4.807820012792945">
        <ele>264.98000000000002</ele>
        <time>2025-04-23T16:28:46Z</time>
      </trkpt>
      <trkpt lat="46.338524976745248" lon="4.807815989479423">
        <ele>264.5</ele>
        <time>2025-04-23T16:28:47Z</time>
      </trkpt>
      <trkpt lat="46.338535035029054" lon="4.807694032788277">
        <ele>263.54000000000002</ele>
        <time>2025-04-23T16:28:49Z</time>
      </trkpt>
      <trkpt lat="46.338596977293491" lon="4.807677017524838">
        <ele>263.06</ele>
        <time>2025-04-23T16:28:50Z</time>
      </trkpt>
      <trkpt lat="46.338651040568948" lon="4.807663019746542">
        <ele>263.06</ele>
        <time>2025-04-23T16:28:51Z</time>
      </trkpt>
      <trkpt lat="46.338723041117191" lon="4.807643992826343">
        <ele>262.57999999999998</ele>
        <time>2025-04-23T16:28:52Z</time>
      </trkpt>
      <trkpt lat="46.338811973109841" lon="4.807619014754891">
        <ele>262.10000000000002</ele>
        <time>2025-04-23T16:28:53Z</time>
      </trkpt>
      <trkpt lat="46.338913980871439" lon="4.807592025026679">
        <ele>261.62</ele>
        <time>2025-04-23T16:28:54Z</time>
      </trkpt>
      <trkpt lat="46.339583024382591" lon="4.807410975918174">
        <ele>259.69</ele>
        <time>2025-04-23T16:28:59Z</time>
      </trkpt>
      <trkpt lat="46.339716967195272" lon="4.807369988411665">
        <ele>259.69</ele>
        <time>2025-04-23T16:29:00Z</time>
      </trkpt>
      <trkpt lat="46.339830039069057" lon="4.807244008406997">
        <ele>259.69</ele>
        <time>2025-04-23T16:29:01Z</time>
      </trkpt>
      <trkpt lat="46.339939003810287" lon="4.807086009532213">
        <ele>259.20999999999998</ele>
        <time>2025-04-23T16:29:02Z</time>
      </trkpt>
      <trkpt lat="46.340027013793588" lon="4.806894985958934">
        <ele>258.73000000000002</ele>
        <time>2025-04-23T16:29:03Z</time>
      </trkpt>
      <trkpt lat="46.340120974928141" lon="4.806691976264119">
        <ele>257.76999999999998</ele>
        <time>2025-04-23T16:29:04Z</time>
      </trkpt>
      <trkpt lat="46.340666972100735" lon="4.805435026064515">
        <ele>257.29000000000002</ele>
        <time>2025-04-23T16:29:11Z</time>
      </trkpt>
      <trkpt lat="46.341350013390183" lon="4.803847996518016">
        <ele>261.13999999999999</ele>
        <time>2025-04-23T16:29:22Z</time>
      </trkpt>
      <trkpt lat="46.341784028336406" lon="4.802829008549452">
        <ele>264.5</ele>
        <time>2025-04-23T16:29:29Z</time>
      </trkpt>
      <trkpt lat="46.341845970600843" lon="4.802681989967823">
        <ele>264.98000000000002</ele>
        <time>2025-04-23T16:29:30Z</time>
      </trkpt>
      <trkpt lat="46.342435972765088" lon="4.801296964287758">
        <ele>273.63</ele>
        <time>2025-04-23T16:29:41Z</time>
      </trkpt>
      <trkpt lat="46.34282698854804" lon="4.800743004307151">
        <ele>277.95999999999998</ele>
        <time>2025-04-23T16:29:49Z</time>
      </trkpt>
      <trkpt lat="46.342893037945032" lon="4.800693970173597">
        <ele>277.95999999999998</ele>
        <time>2025-04-23T16:29:50Z</time>
      </trkpt>
      <trkpt lat="46.343781016767025" lon="4.800191977992654">
        <ele>282.76999999999998</ele>
        <time>2025-04-23T16:30:01Z</time>
      </trkpt>
      <trkpt lat="46.344538992270827" lon="4.799791993573308">
        <ele>284.69</ele>
        <time>2025-04-23T16:30:11Z</time>
      </trkpt>
      <trkpt lat="46.344605041667819" lon="4.799767015501857">
        <ele>285.17000000000002</ele>
        <time>2025-04-23T16:30:13Z</time>
      </trkpt>
      <trkpt lat="46.344623984768987" lon="4.799738014116883">
        <ele>285.64999999999998</ele>
        <time>2025-04-23T16:30:14Z</time>
      </trkpt>
      <trkpt lat="46.34460998699069" lon="4.799696020781994">
        <ele>285.64999999999998</ele>
        <time>2025-04-23T16:30:15Z</time>
      </trkpt>
      <trkpt lat="46.344603030011058" lon="4.799673976376653">
        <ele>286.13</ele>
        <time>2025-04-23T16:30:16Z</time>
      </trkpt>
      <trkpt lat="46.344533041119576" lon="4.7995800152421">
        <ele>286.13</ele>
        <time>2025-04-23T16:30:17Z</time>
      </trkpt>
      <trkpt lat="46.344512002542615" lon="4.799486976116896">
        <ele>286.13</ele>
        <time>2025-04-23T16:30:18Z</time>
      </trkpt>
      <trkpt lat="46.344489036127925" lon="4.799383962526918">
        <ele>286.61000000000001</ele>
        <time>2025-04-23T16:30:19Z</time>
      </trkpt>
      <trkpt lat="46.344461962580681" lon="4.799267034977675">
        <ele>286.61000000000001</ele>
        <time>2025-04-23T16:30:20Z</time>
      </trkpt>
      <trkpt lat="46.344433967024088" lon="4.799140971153975">
        <ele>286.61000000000001</ele>
        <time>2025-04-23T16:30:21Z</time>
      </trkpt>
      <trkpt lat="46.344403037801385" lon="4.799008034169674">
        <ele>286.61000000000001</ele>
        <time>2025-04-23T16:30:22Z</time>
      </trkpt>
      <trkpt lat="46.344190975651145" lon="4.797528041526675">
        <ele>283.73000000000002</ele>
        <time>2025-04-23T16:30:31Z</time>
      </trkpt>
      <trkpt lat="46.344220982864499" lon="4.796012006700039">
        <ele>282.76999999999998</ele>
        <time>2025-04-23T16:30:40Z</time>
      </trkpt>
      <trkpt lat="46.344261970371008" lon="4.795079017058015">
        <ele>283.25</ele>
        <time>2025-04-23T16:30:46Z</time>
      </trkpt>
      <trkpt lat="46.344360960647464" lon="4.794352976605296">
        <ele>283.73000000000002</ele>
        <time>2025-04-23T16:30:51Z</time>
      </trkpt>
      <trkpt lat="46.344390967860818" lon="4.79423101991415">
        <ele>283.73000000000002</ele>
        <time>2025-04-23T16:30:52Z</time>
      </trkpt>
      <trkpt lat="46.344423992559314" lon="4.794122977182269">
        <ele>283.73000000000002</ele>
        <time>2025-04-23T16:30:53Z</time>
      </trkpt>
      <trkpt lat="46.344451988115907" lon="4.794030021876097">
        <ele>283.73000000000002</ele>
        <time>2025-04-23T16:30:54Z</time>
      </trkpt>
      <trkpt lat="46.344464980065823" lon="4.793902030214667">
        <ele>284.20999999999998</ele>
        <time>2025-04-23T16:30:55Z</time>
      </trkpt>
      <trkpt lat="46.344470009207726" lon="4.793789964169264">
        <ele>284.69</ele>
        <time>2025-04-23T16:30:56Z</time>
      </trkpt>
      <trkpt lat="46.344453999772668" lon="4.793669013306499">
        <ele>284.69</ele>
        <time>2025-04-23T16:30:57Z</time>
      </trkpt>
      <trkpt lat="46.34443799033761" lon="4.793548984453082">
        <ele>285.17000000000002</ele>
        <time>2025-04-23T16:30:58Z</time>
      </trkpt>
      <trkpt lat="46.344407983124256" lon="4.793311022222042">
        <ele>286.61000000000001</ele>
        <time>2025-04-23T16:31:00Z</time>
      </trkpt>
      <trkpt lat="46.344402031973004" lon="4.793190993368626">
        <ele>287.56999999999999</ele>
        <time>2025-04-23T16:31:01Z</time>
      </trkpt>
      <trkpt lat="46.344521977007389" lon="4.792348025366664">
        <ele>292.38</ele>
        <time>2025-04-23T16:31:08Z</time>
      </trkpt>
      <trkpt lat="46.344574028626084" lon="4.792251968756318">
        <ele>292.38</ele>
        <time>2025-04-23T16:31:09Z</time>
      </trkpt>
      <trkpt lat="46.344788018614054" lon="4.791860030964017">
        <ele>292.86000000000001</ele>
        <time>2025-04-23T16:31:13Z</time>
      </trkpt>
      <trkpt lat="46.344830011948943" lon="4.79178199544549">
        <ele>293.33999999999997</ele>
        <time>2025-04-23T16:31:14Z</time>
      </trkpt>
      <trkpt lat="46.344984993338585" lon="4.791498016566038">
        <ele>293.81999999999999</ele>
        <time>2025-04-23T16:31:20Z</time>
      </trkpt>
      <trkpt lat="46.344991028308868" lon="4.791487036272883">
        <ele>294.30000000000001</ele>
        <time>2025-04-23T16:31:21Z</time>
      </trkpt>
      <trkpt lat="46.34495297446847" lon="4.791432972997427">
        <ele>294.30000000000001</ele>
        <time>2025-04-23T16:31:22Z</time>
      </trkpt>
      <trkpt lat="46.344926990568638" lon="4.791440013796091">
        <ele>294.77999999999997</ele>
        <time>2025-04-23T16:31:23Z</time>
      </trkpt>
      <trkpt lat="46.344878962263465" lon="4.791453005746007">
        <ele>294.77999999999997</ele>
        <time>2025-04-23T16:31:24Z</time>
      </trkpt>
      <trkpt lat="46.344822971150279" lon="4.791468009352684">
        <ele>294.77999999999997</ele>
        <time>2025-04-23T16:31:25Z</time>
      </trkpt>
      <trkpt lat="46.344764968380332" lon="4.791483012959361">
        <ele>295.25999999999999</ele>
        <time>2025-04-23T16:31:26Z</time>
      </trkpt>
      <trkpt lat="46.344709983095527" lon="4.791498016566038">
        <ele>295.25999999999999</ele>
        <time>2025-04-23T16:31:27Z</time>
      </trkpt>
      <trkpt lat="46.344579979777336" lon="4.791588960215449">
        <ele>295.74000000000001</ele>
        <time>2025-04-23T16:31:29Z</time>
      </trkpt>
      <trkpt lat="46.344503033906221" lon="4.791643023490906">
        <ele>295.74000000000001</ele>
        <time>2025-04-23T16:31:30Z</time>
      </trkpt>
      <trkpt lat="46.343739023432136" lon="4.792133029550314">
        <ele>298.14999999999998</ele>
        <time>2025-04-23T16:31:38Z</time>
      </trkpt>
      <trkpt lat="46.343630980700254" lon="4.79214602150023">
        <ele>298.14999999999998</ele>
        <time>2025-04-23T16:31:39Z</time>
      </trkpt>
      <trkpt lat="46.343524027615786" lon="4.792158007621765">
        <ele>298.14999999999998</ele>
        <time>2025-04-23T16:31:40Z</time>
      </trkpt>
      <trkpt lat="46.343417996540666" lon="4.7921699937433">
        <ele>297.67000000000002</ele>
        <time>2025-04-23T16:31:41Z</time>
      </trkpt>
      <trkpt lat="46.343313977122307" lon="4.792181979864836">
        <ele>297.67000000000002</ele>
        <time>2025-04-23T16:31:42Z</time>
      </trkpt>
      <trkpt lat="46.34321297518909" lon="4.792178040370345">
        <ele>297.18000000000001</ele>
        <time>2025-04-23T16:31:43Z</time>
      </trkpt>
      <trkpt lat="46.342582991346717" lon="4.792107967659831">
        <ele>294.30000000000001</ele>
        <time>2025-04-23T16:31:52Z</time>
      </trkpt>
      <trkpt lat="46.342500010505319" lon="4.792098999023438">
        <ele>294.30000000000001</ele>
        <time>2025-04-23T16:32:01Z</time>
      </trkpt>
      <trkpt lat="46.342484001070261" lon="4.792098999023438">
        <ele>294.30000000000001</ele>
        <time>2025-04-23T16:32:02Z</time>
      </trkpt>
      <trkpt lat="46.342508979141712" lon="4.792223973199725">
        <ele>293.33999999999997</ele>
        <time>2025-04-23T16:32:17Z</time>
      </trkpt>
      <trkpt lat="46.342543009668589" lon="4.792656982317567">
        <ele>290.94</ele>
        <time>2025-04-23T16:32:22Z</time>
      </trkpt>
      <trkpt lat="46.342596989125013" lon="4.792711967602372">
        <ele>289.97000000000003</ele>
        <time>2025-04-23T16:32:23Z</time>
      </trkpt>
      <trkpt lat="46.342629007995129" lon="4.792742980644107">
        <ele>289.49000000000001</ele>
        <time>2025-04-23T16:32:24Z</time>
      </trkpt>
      <trkpt lat="46.342730009928346" lon="4.792753038927913">
        <ele>286.13</ele>
        <time>2025-04-23T16:32:33Z</time>
      </trkpt>
      <trkpt lat="46.342730009928346" lon="4.792753038927913">
        <ele>285.17000000000002</ele>
        <time>2025-04-23T16:32:47Z</time>
      </trkpt>
      <trkpt lat="46.342730009928346" lon="4.792753038927913">
        <ele>284.69</ele>
        <time>2025-04-23T16:33:00Z</time>
      </trkpt>
      <trkpt lat="46.342730009928346" lon="4.792753038927913">
        <ele>284.69</ele>
        <time>2025-04-23T16:33:19Z</time>
      </trkpt>
      <trkpt lat="46.342730009928346" lon="4.792753038927913">
        <ele>284.20999999999998</ele>
        <time>2025-04-23T16:33:37Z</time>
      </trkpt>
    </trkseg>
  </trk>

</gpx>